<?xml version="1.0" encoding="UTF-8"?>
<TrainingCenterDatabase xmlns="http://www.garmin.com/xmlschemas/TrainingCenterDatabase/v2" xmlns:xsi="http://www.w3.org/2001/XMLSchema-instance" xsi:schemaLocation="http://www.garmin.com/xmlschemas/TrainingCenterDatabase/v2 http://www.garmin.com/xmlschemas/TrainingCenterDatabasev2.xsd">
  <Activities>
    <Activity Sport="Other">
      <Id>2019-04-07T11:51:26.000Z</Id>
      <Lap StartTime="2019-04-07T11:51:26.000Z">
        <TotalTimeSeconds>27305</TotalTimeSeconds>
        <DistanceMeters>17770</DistanceMeters>
        <Track>
          <Trackpoint>
            <Time>2019-04-07T11:51:26.000Z</Time>
            <Position>
              <LatitudeDegrees>28.25779356993734836578369140625</LatitudeDegrees>
              <LongitudeDegrees>-16.6107687167823314666748046875</LongitudeDegrees>
            </Position>
            <AltitudeMeters>2461.199951171875</AltitudeMeters>
            <DistanceMeters>0</DistanceMeters>
          </Trackpoint>
          <Trackpoint>
            <Time>2019-04-07T11:51:27.000Z</Time>
            <Position>
              <LatitudeDegrees>28.25779356993734836578369140625</LatitudeDegrees>
              <LongitudeDegrees>-16.61076880060136318206787109375</LongitudeDegrees>
            </Position>
            <AltitudeMeters>2461.60009765625</AltitudeMeters>
            <DistanceMeters>0</DistanceMeters>
          </Trackpoint>
          <Trackpoint>
            <Time>2019-04-07T11:51:28.000Z</Time>
            <Position>
              <LatitudeDegrees>28.2577936537563800811767578125</LatitudeDegrees>
              <LongitudeDegrees>-16.610768549144268035888671875</LongitudeDegrees>
            </Position>
            <AltitudeMeters>2461</AltitudeMeters>
            <DistanceMeters>0</DistanceMeters>
          </Trackpoint>
          <Trackpoint>
            <Time>2019-04-07T11:51:29.000Z</Time>
            <Position>
              <LatitudeDegrees>28.25779507867991924285888671875</LatitudeDegrees>
              <LongitudeDegrees>-16.61076779477298259735107421875</LongitudeDegrees>
            </Position>
            <AltitudeMeters>2460.800048828125</AltitudeMeters>
            <DistanceMeters>0.16459109736515</DistanceMeters>
          </Trackpoint>
          <Trackpoint>
            <Time>2019-04-07T11:51:30.000Z</Time>
            <Position>
              <LatitudeDegrees>28.25779675506055355072021484375</LatitudeDegrees>
              <LongitudeDegrees>-16.61076695658266544342041015625</LongitudeDegrees>
            </Position>
            <AltitudeMeters>2461.39990234375</AltitudeMeters>
            <DistanceMeters>0.37707729037488</DistanceMeters>
          </Trackpoint>
          <Trackpoint>
            <Time>2019-04-07T11:51:31.000Z</Time>
            <Position>
              <LatitudeDegrees>28.25779826380312442779541015625</LatitudeDegrees>
              <LongitudeDegrees>-16.6107660345733165740966796875</LongitudeDegrees>
            </Position>
            <AltitudeMeters>2461</AltitudeMeters>
            <DistanceMeters>0.56713071911485</DistanceMeters>
          </Trackpoint>
          <Trackpoint>
            <Time>2019-04-07T11:51:39.000Z</Time>
            <Position>
              <LatitudeDegrees>28.25782860629260540008544921875</LatitudeDegrees>
              <LongitudeDegrees>-16.61075237207114696502685546875</LongitudeDegrees>
            </Position>
            <AltitudeMeters>2461.60009765625</AltitudeMeters>
            <DistanceMeters>4.2005824885844</DistanceMeters>
          </Trackpoint>
          <Trackpoint>
            <Time>2019-04-07T11:51:40.000Z</Time>
            <Position>
              <LatitudeDegrees>28.2578392513096332550048828125</LatitudeDegrees>
              <LongitudeDegrees>-16.61075346171855926513671875</LongitudeDegrees>
            </Position>
            <AltitudeMeters>2461.60009765625</AltitudeMeters>
            <DistanceMeters>5.3912638068643</DistanceMeters>
          </Trackpoint>
          <Trackpoint>
            <Time>2019-04-07T11:51:46.000Z</Time>
            <Position>
              <LatitudeDegrees>28.25787839479744434356689453125</LatitudeDegrees>
              <LongitudeDegrees>-16.6107512824237346649169921875</LongitudeDegrees>
            </Position>
            <AltitudeMeters>2461.60009765625</AltitudeMeters>
            <DistanceMeters>9.7531866703974</DistanceMeters>
          </Trackpoint>
          <Trackpoint>
            <Time>2019-04-07T11:51:54.000Z</Time>
            <Position>
              <LatitudeDegrees>28.25790924020111560821533203125</LatitudeDegrees>
              <LongitudeDegrees>-16.61074114032089710235595703125</LongitudeDegrees>
            </Position>
            <AltitudeMeters>2461.800048828125</AltitudeMeters>
            <DistanceMeters>13.326494394587</DistanceMeters>
          </Trackpoint>
          <Trackpoint>
            <Time>2019-04-07T11:51:59.000Z</Time>
            <Position>
              <LatitudeDegrees>28.25792265124619007110595703125</LatitudeDegrees>
              <LongitudeDegrees>-16.61068975925445556640625</LongitudeDegrees>
            </Position>
            <AltitudeMeters>2461.60009765625</AltitudeMeters>
            <DistanceMeters>18.579675679554</DistanceMeters>
          </Trackpoint>
          <Trackpoint>
            <Time>2019-04-07T11:52:07.000Z</Time>
            <Position>
              <LatitudeDegrees>28.257926590740680694580078125</LatitudeDegrees>
              <LongitudeDegrees>-16.61068900488317012786865234375</LongitudeDegrees>
            </Position>
            <AltitudeMeters>2461</AltitudeMeters>
            <DistanceMeters>19.035407791886</DistanceMeters>
          </Trackpoint>
          <Trackpoint>
            <Time>2019-04-07T11:52:09.000Z</Time>
            <Position>
              <LatitudeDegrees>28.2579190470278263092041015625</LatitudeDegrees>
              <LongitudeDegrees>-16.61070459522306919097900390625</LongitudeDegrees>
            </Position>
            <AltitudeMeters>2461</AltitudeMeters>
            <DistanceMeters>20.77727623846</DistanceMeters>
          </Trackpoint>
          <Trackpoint>
            <Time>2019-04-07T11:52:12.000Z</Time>
            <Position>
              <LatitudeDegrees>28.2579036243259906768798828125</LatitudeDegrees>
              <LongitudeDegrees>-16.61074046976864337921142578125</LongitudeDegrees>
            </Position>
            <AltitudeMeters>2460.60009765625</AltitudeMeters>
            <DistanceMeters>24.691869413413</DistanceMeters>
          </Trackpoint>
          <Trackpoint>
            <Time>2019-04-07T11:52:20.000Z</Time>
            <Position>
              <LatitudeDegrees>28.2578939013183116912841796875</LatitudeDegrees>
              <LongitudeDegrees>-16.61084256134927272796630859375</LongitudeDegrees>
            </Position>
            <AltitudeMeters>2460</AltitudeMeters>
            <DistanceMeters>34.759320829087</DistanceMeters>
          </Trackpoint>
          <Trackpoint>
            <Time>2019-04-07T11:52:28.000Z</Time>
            <Position>
              <LatitudeDegrees>28.25787722133100032806396484375</LatitudeDegrees>
              <LongitudeDegrees>-16.610945574939250946044921875</LongitudeDegrees>
            </Position>
            <AltitudeMeters>2460</AltitudeMeters>
            <DistanceMeters>45.027483885819</DistanceMeters>
          </Trackpoint>
          <Trackpoint>
            <Time>2019-04-07T11:52:29.000Z</Time>
            <Position>
              <LatitudeDegrees>28.25787722133100032806396484375</LatitudeDegrees>
              <LongitudeDegrees>-16.61095269955694675445556640625</LongitudeDegrees>
            </Position>
            <AltitudeMeters>2459.800048828125</AltitudeMeters>
            <DistanceMeters>45.725784772238</DistanceMeters>
          </Trackpoint>
          <Trackpoint>
            <Time>2019-04-07T11:52:34.000Z</Time>
            <Position>
              <LatitudeDegrees>28.25786196626722812652587890625</LatitudeDegrees>
              <LongitudeDegrees>-16.61096996627748012542724609375</LongitudeDegrees>
            </Position>
            <AltitudeMeters>2459.800048828125</AltitudeMeters>
            <DistanceMeters>48.120382555147</DistanceMeters>
          </Trackpoint>
          <Trackpoint>
            <Time>2019-04-07T11:52:38.000Z</Time>
            <Position>
              <LatitudeDegrees>28.25782022438943386077880859375</LatitudeDegrees>
              <LongitudeDegrees>-16.61096057854592800140380859375</LongitudeDegrees>
            </Position>
            <AltitudeMeters>2459.39990234375</AltitudeMeters>
            <DistanceMeters>52.856489594349</DistanceMeters>
          </Trackpoint>
          <Trackpoint>
            <Time>2019-04-07T11:52:41.000Z</Time>
            <Position>
              <LatitudeDegrees>28.2577832601964473724365234375</LatitudeDegrees>
              <LongitudeDegrees>-16.6109593212604522705078125</LongitudeDegrees>
            </Position>
            <AltitudeMeters>2458.800048828125</AltitudeMeters>
            <DistanceMeters>56.973460991542</DistanceMeters>
          </Trackpoint>
          <Trackpoint>
            <Time>2019-04-07T11:52:45.000Z</Time>
            <Position>
              <LatitudeDegrees>28.25773808173835277557373046875</LatitudeDegrees>
              <LongitudeDegrees>-16.61091841757297515869140625</LongitudeDegrees>
            </Position>
            <AltitudeMeters>2457.199951171875</AltitudeMeters>
            <DistanceMeters>63.405162180944</DistanceMeters>
          </Trackpoint>
          <Trackpoint>
            <Time>2019-04-07T11:52:47.000Z</Time>
            <Position>
              <LatitudeDegrees>28.25772576034069061279296875</LatitudeDegrees>
              <LongitudeDegrees>-16.61089989356696605682373046875</LongitudeDegrees>
            </Position>
            <AltitudeMeters>2456.60009765625</AltitudeMeters>
            <DistanceMeters>65.679856402677</DistanceMeters>
          </Trackpoint>
          <Trackpoint>
            <Time>2019-04-07T11:52:51.000Z</Time>
            <Position>
              <LatitudeDegrees>28.25769030489027500152587890625</LatitudeDegrees>
              <LongitudeDegrees>-16.61087072454392910003662109375</LongitudeDegrees>
            </Position>
            <AltitudeMeters>2456.199951171875</AltitudeMeters>
            <DistanceMeters>70.553161343639</DistanceMeters>
          </Trackpoint>
          <Trackpoint>
            <Time>2019-04-07T11:52:52.000Z</Time>
            <Position>
              <LatitudeDegrees>28.257680833339691162109375</LatitudeDegrees>
              <LongitudeDegrees>-16.610867790877819061279296875</LongitudeDegrees>
            </Position>
            <AltitudeMeters>2456</AltitudeMeters>
            <DistanceMeters>71.649062875277</DistanceMeters>
          </Trackpoint>
          <Trackpoint>
            <Time>2019-04-07T11:52:53.000Z</Time>
            <Position>
              <LatitudeDegrees>28.2576687633991241455078125</LatitudeDegrees>
              <LongitudeDegrees>-16.61086351610720157623291015625</LongitudeDegrees>
            </Position>
            <AltitudeMeters>2456</AltitudeMeters>
            <DistanceMeters>73.05532982761</DistanceMeters>
          </Trackpoint>
          <Trackpoint>
            <Time>2019-04-07T11:52:58.000Z</Time>
            <Position>
              <LatitudeDegrees>28.25760698877274990081787109375</LatitudeDegrees>
              <LongitudeDegrees>-16.61083317361772060394287109375</LongitudeDegrees>
            </Position>
            <AltitudeMeters>2455.39990234375</AltitudeMeters>
            <DistanceMeters>80.547389302523</DistanceMeters>
          </Trackpoint>
          <Trackpoint>
            <Time>2019-04-07T11:53:00.000Z</Time>
            <Position>
              <LatitudeDegrees>28.25758385471999645233154296875</LatitudeDegrees>
              <LongitudeDegrees>-16.61082479171454906463623046875</LongitudeDegrees>
            </Position>
            <AltitudeMeters>2455.199951171875</AltitudeMeters>
            <DistanceMeters>83.248556044269</DistanceMeters>
          </Trackpoint>
          <Trackpoint>
            <Time>2019-04-07T11:53:01.000Z</Time>
            <Position>
              <LatitudeDegrees>28.25757614336907863616943359375</LatitudeDegrees>
              <LongitudeDegrees>-16.6108220256865024566650390625</LongitudeDegrees>
            </Position>
            <AltitudeMeters>2454.800048828125</AltitudeMeters>
            <DistanceMeters>84.145036274677</DistanceMeters>
          </Trackpoint>
          <Trackpoint>
            <Time>2019-04-07T11:53:09.000Z</Time>
            <Position>
              <LatitudeDegrees>28.25757027603685855865478515625</LatitudeDegrees>
              <LongitudeDegrees>-16.61081138066947460174560546875</LongitudeDegrees>
            </Position>
            <AltitudeMeters>2454.39990234375</AltitudeMeters>
            <DistanceMeters>85.373052058834</DistanceMeters>
          </Trackpoint>
          <Trackpoint>
            <Time>2019-04-07T11:53:21.000Z</Time>
            <Position>
              <LatitudeDegrees>28.25755351223051548004150390625</LatitudeDegrees>
              <LongitudeDegrees>-16.61078087054193019866943359375</LongitudeDegrees>
            </Position>
            <AltitudeMeters>2454.39990234375</AltitudeMeters>
            <DistanceMeters>88.89929868426</DistanceMeters>
          </Trackpoint>
          <Trackpoint>
            <Time>2019-04-07T11:53:24.000Z</Time>
            <Position>
              <LatitudeDegrees>28.25753691606223583221435546875</LatitudeDegrees>
              <LongitudeDegrees>-16.61076125688850879669189453125</LongitudeDegrees>
            </Position>
            <AltitudeMeters>2454</AltitudeMeters>
            <DistanceMeters>91.56513254281</DistanceMeters>
          </Trackpoint>
          <Trackpoint>
            <Time>2019-04-07T11:53:27.000Z</Time>
            <Position>
              <LatitudeDegrees>28.2575277797877788543701171875</LatitudeDegrees>
              <LongitudeDegrees>-16.61075890995562076568603515625</LongitudeDegrees>
            </Position>
            <AltitudeMeters>2453.60009765625</AltitudeMeters>
            <DistanceMeters>92.606098043331</DistanceMeters>
          </Trackpoint>
          <Trackpoint>
            <Time>2019-04-07T11:53:30.000Z</Time>
            <Position>
              <LatitudeDegrees>28.25751394964754581451416015625</LatitudeDegrees>
              <LongitudeDegrees>-16.61078858189284801483154296875</LongitudeDegrees>
            </Position>
            <AltitudeMeters>2453</AltitudeMeters>
            <DistanceMeters>95.897919990634</DistanceMeters>
          </Trackpoint>
          <Trackpoint>
            <Time>2019-04-07T11:53:32.000Z</Time>
            <Position>
              <LatitudeDegrees>28.25751160271465778350830078125</LatitudeDegrees>
              <LongitudeDegrees>-16.6107864864170551300048828125</LongitudeDegrees>
            </Position>
            <AltitudeMeters>2452.199951171875</AltitudeMeters>
            <DistanceMeters>96.240543681834</DistanceMeters>
          </Trackpoint>
          <Trackpoint>
            <Time>2019-04-07T11:53:36.000Z</Time>
            <Position>
              <LatitudeDegrees>28.2575019635260105133056640625</LatitudeDegrees>
              <LongitudeDegrees>-16.61077617667615413665771484375</LongitudeDegrees>
            </Position>
            <AltitudeMeters>2452</AltitudeMeters>
            <DistanceMeters>97.712691210633</DistanceMeters>
          </Trackpoint>
          <Trackpoint>
            <Time>2019-04-07T11:53:37.000Z</Time>
            <Position>
              <LatitudeDegrees>28.257500790059566497802734375</LatitudeDegrees>
              <LongitudeDegrees>-16.61077315919101238250732421875</LongitudeDegrees>
            </Position>
            <AltitudeMeters>2452</AltitudeMeters>
            <DistanceMeters>98.027859167258</DistanceMeters>
          </Trackpoint>
          <Trackpoint>
            <Time>2019-04-07T11:53:42.000Z</Time>
            <Position>
              <LatitudeDegrees>28.2575006224215030670166015625</LatitudeDegrees>
              <LongitudeDegrees>-16.61076343618333339691162109375</LongitudeDegrees>
            </Position>
            <AltitudeMeters>2452</AltitudeMeters>
            <DistanceMeters>98.987581938314</DistanceMeters>
          </Trackpoint>
          <Trackpoint>
            <Time>2019-04-07T11:53:44.000Z</Time>
            <Position>
              <LatitudeDegrees>28.2575110159814357757568359375</LatitudeDegrees>
              <LongitudeDegrees>-16.61075673066079616546630859375</LongitudeDegrees>
            </Position>
            <AltitudeMeters>2452.199951171875</AltitudeMeters>
            <DistanceMeters>100.31795593949</DistanceMeters>
          </Trackpoint>
          <Trackpoint>
            <Time>2019-04-07T11:53:49.000Z</Time>
            <Position>
              <LatitudeDegrees>28.25752333737909793853759765625</LatitudeDegrees>
              <LongitudeDegrees>-16.61074365489184856414794921875</LongitudeDegrees>
            </Position>
            <AltitudeMeters>2453.199951171875</AltitudeMeters>
            <DistanceMeters>102.19458318355</DistanceMeters>
          </Trackpoint>
          <Trackpoint>
            <Time>2019-04-07T11:53:51.000Z</Time>
            <Position>
              <LatitudeDegrees>28.2575264386832714080810546875</LatitudeDegrees>
              <LongitudeDegrees>-16.61074901930987834930419921875</LongitudeDegrees>
            </Position>
            <AltitudeMeters>2453.60009765625</AltitudeMeters>
            <DistanceMeters>102.8177150212</DistanceMeters>
          </Trackpoint>
          <Trackpoint>
            <Time>2019-04-07T11:53:54.000Z</Time>
            <Position>
              <LatitudeDegrees>28.25753926299512386322021484375</LatitudeDegrees>
              <LongitudeDegrees>-16.6107610054314136505126953125</LongitudeDegrees>
            </Position>
            <AltitudeMeters>2454.199951171875</AltitudeMeters>
            <DistanceMeters>104.66524550696</DistanceMeters>
          </Trackpoint>
          <Trackpoint>
            <Time>2019-04-07T11:53:59.000Z</Time>
            <Position>
              <LatitudeDegrees>28.2575753889977931976318359375</LatitudeDegrees>
              <LongitudeDegrees>-16.6107822954654693603515625</LongitudeDegrees>
            </Position>
            <AltitudeMeters>2455</AltitudeMeters>
            <DistanceMeters>109.1967346478</DistanceMeters>
          </Trackpoint>
          <Trackpoint>
            <Time>2019-04-07T11:54:06.000Z</Time>
            <Position>
              <LatitudeDegrees>28.257630206644535064697265625</LatitudeDegrees>
              <LongitudeDegrees>-16.61081372760236263275146484375</LongitudeDegrees>
            </Position>
            <AltitudeMeters>2455.39990234375</AltitudeMeters>
            <DistanceMeters>116.03139524249</DistanceMeters>
          </Trackpoint>
          <Trackpoint>
            <Time>2019-04-07T11:54:07.000Z</Time>
            <Position>
              <LatitudeDegrees>28.2576374150812625885009765625</LatitudeDegrees>
              <LongitudeDegrees>-16.61081624217331409454345703125</LongitudeDegrees>
            </Position>
            <AltitudeMeters>2455.60009765625</AltitudeMeters>
            <DistanceMeters>116.86525127694</DistanceMeters>
          </Trackpoint>
          <Trackpoint>
            <Time>2019-04-07T11:54:13.000Z</Time>
            <Position>
              <LatitudeDegrees>28.2576742954552173614501953125</LatitudeDegrees>
              <LongitudeDegrees>-16.61083065904676914215087890625</LongitudeDegrees>
            </Position>
            <AltitudeMeters>2456.60009765625</AltitudeMeters>
            <DistanceMeters>121.20642272466</DistanceMeters>
          </Trackpoint>
          <Trackpoint>
            <Time>2019-04-07T11:54:21.000Z</Time>
            <Position>
              <LatitudeDegrees>28.25771695934236049652099609375</LatitudeDegrees>
              <LongitudeDegrees>-16.610890589654445648193359375</LongitudeDegrees>
            </Position>
            <AltitudeMeters>2457.39990234375</AltitudeMeters>
            <DistanceMeters>128.76089710252</DistanceMeters>
          </Trackpoint>
          <Trackpoint>
            <Time>2019-04-07T11:54:23.000Z</Time>
            <Position>
              <LatitudeDegrees>28.25772785581648349761962890625</LatitudeDegrees>
              <LongitudeDegrees>-16.6108977980911731719970703125</LongitudeDegrees>
            </Position>
            <AltitudeMeters>2457.60009765625</AltitudeMeters>
            <DistanceMeters>130.16394972619</DistanceMeters>
          </Trackpoint>
          <Trackpoint>
            <Time>2019-04-07T11:54:29.000Z</Time>
            <Position>
              <LatitudeDegrees>28.25776733458042144775390625</LatitudeDegrees>
              <LongitudeDegrees>-16.61089654080569744110107421875</LongitudeDegrees>
            </Position>
            <AltitudeMeters>2458.60009765625</AltitudeMeters>
            <DistanceMeters>134.55989826889</DistanceMeters>
          </Trackpoint>
          <Trackpoint>
            <Time>2019-04-07T11:54:30.000Z</Time>
            <Position>
              <LatitudeDegrees>28.2577752135694026947021484375</LatitudeDegrees>
              <LongitudeDegrees>-16.6109018214046955108642578125</LongitudeDegrees>
            </Position>
            <AltitudeMeters>2458.60009765625</AltitudeMeters>
            <DistanceMeters>135.57450593425</DistanceMeters>
          </Trackpoint>
          <Trackpoint>
            <Time>2019-04-07T11:54:35.000Z</Time>
            <Position>
              <LatitudeDegrees>28.257817961275577545166015625</LatitudeDegrees>
              <LongitudeDegrees>-16.6109205968677997589111328125</LongitudeDegrees>
            </Position>
            <AltitudeMeters>2459.39990234375</AltitudeMeters>
            <DistanceMeters>140.67594497745</DistanceMeters>
          </Trackpoint>
          <Trackpoint>
            <Time>2019-04-07T11:54:36.000Z</Time>
            <Position>
              <LatitudeDegrees>28.25782374478876590728759765625</LatitudeDegrees>
              <LongitudeDegrees>-16.61091464571654796600341796875</LongitudeDegrees>
            </Position>
            <AltitudeMeters>2459.39990234375</AltitudeMeters>
            <DistanceMeters>141.54687920074</DistanceMeters>
          </Trackpoint>
          <Trackpoint>
            <Time>2019-04-07T11:54:38.000Z</Time>
            <Position>
              <LatitudeDegrees>28.25782860629260540008544921875</LatitudeDegrees>
              <LongitudeDegrees>-16.61089436151087284088134765625</LongitudeDegrees>
            </Position>
            <AltitudeMeters>2459.39990234375</AltitudeMeters>
            <DistanceMeters>143.6070092764</DistanceMeters>
          </Trackpoint>
          <Trackpoint>
            <Time>2019-04-07T11:54:41.000Z</Time>
            <Position>
              <LatitudeDegrees>28.257850147783756256103515625</LatitudeDegrees>
              <LongitudeDegrees>-16.61086142063140869140625</LongitudeDegrees>
            </Position>
            <AltitudeMeters>2459.39990234375</AltitudeMeters>
            <DistanceMeters>147.62968214249</DistanceMeters>
          </Trackpoint>
          <Trackpoint>
            <Time>2019-04-07T11:54:42.000Z</Time>
            <Position>
              <LatitudeDegrees>28.2578583620488643646240234375</LatitudeDegrees>
              <LongitudeDegrees>-16.610853709280490875244140625</LongitudeDegrees>
            </Position>
            <AltitudeMeters>2459.39990234375</AltitudeMeters>
            <DistanceMeters>148.81656542456</DistanceMeters>
          </Trackpoint>
          <Trackpoint>
            <Time>2019-04-07T11:54:49.000Z</Time>
            <Position>
              <LatitudeDegrees>28.257900774478912353515625</LatitudeDegrees>
              <LongitudeDegrees>-16.6107796132564544677734375</LongitudeDegrees>
            </Position>
            <AltitudeMeters>2459.800048828125</AltitudeMeters>
            <DistanceMeters>157.48016718146</DistanceMeters>
          </Trackpoint>
          <Trackpoint>
            <Time>2019-04-07T11:54:50.000Z</Time>
            <Position>
              <LatitudeDegrees>28.25790655799210071563720703125</LatitudeDegrees>
              <LongitudeDegrees>-16.610769219696521759033203125</LongitudeDegrees>
            </Position>
            <AltitudeMeters>2459.800048828125</AltitudeMeters>
            <DistanceMeters>158.68592101516</DistanceMeters>
          </Trackpoint>
          <Trackpoint>
            <Time>2019-04-07T11:54:58.000Z</Time>
            <Position>
              <LatitudeDegrees>28.25795282609760761260986328125</LatitudeDegrees>
              <LongitudeDegrees>-16.61067835986614227294921875</LongitudeDegrees>
            </Position>
            <AltitudeMeters>2460.60009765625</AltitudeMeters>
            <DistanceMeters>168.97516861782</DistanceMeters>
          </Trackpoint>
          <Trackpoint>
            <Time>2019-04-07T11:55:05.000Z</Time>
            <Position>
              <LatitudeDegrees>28.25797428376972675323486328125</LatitudeDegrees>
              <LongitudeDegrees>-16.61063016392290592193603515625</LongitudeDegrees>
            </Position>
            <AltitudeMeters>2460.60009765625</AltitudeMeters>
            <DistanceMeters>174.26944451563</DistanceMeters>
          </Trackpoint>
          <Trackpoint>
            <Time>2019-04-07T11:55:13.000Z</Time>
            <Position>
              <LatitudeDegrees>28.25799708254635334014892578125</LatitudeDegrees>
              <LongitudeDegrees>-16.61062630824744701385498046875</LongitudeDegrees>
            </Position>
            <AltitudeMeters>2460.800048828125</AltitudeMeters>
            <DistanceMeters>176.83340544575</DistanceMeters>
          </Trackpoint>
          <Trackpoint>
            <Time>2019-04-07T11:55:14.000Z</Time>
            <Position>
              <LatitudeDegrees>28.2580102421343326568603515625</LatitudeDegrees>
              <LongitudeDegrees>-16.61062530241906642913818359375</LongitudeDegrees>
            </Position>
            <AltitudeMeters>2460.800048828125</AltitudeMeters>
            <DistanceMeters>178.30248279909</DistanceMeters>
          </Trackpoint>
          <Trackpoint>
            <Time>2019-04-07T11:55:20.000Z</Time>
            <Position>
              <LatitudeDegrees>28.2580850087106227874755859375</LatitudeDegrees>
              <LongitudeDegrees>-16.6105802915990352630615234375</LongitudeDegrees>
            </Position>
            <AltitudeMeters>2461.39990234375</AltitudeMeters>
            <DistanceMeters>187.72115951004</DistanceMeters>
          </Trackpoint>
          <Trackpoint>
            <Time>2019-04-07T11:55:27.000Z</Time>
            <Position>
              <LatitudeDegrees>28.2581373117864131927490234375</LatitudeDegrees>
              <LongitudeDegrees>-16.61049001850187778472900390625</LongitudeDegrees>
            </Position>
            <AltitudeMeters>2461.39990234375</AltitudeMeters>
            <DistanceMeters>198.31440075005</DistanceMeters>
          </Trackpoint>
          <Trackpoint>
            <Time>2019-04-07T11:55:34.000Z</Time>
            <Position>
              <LatitudeDegrees>28.25818986631929874420166015625</LatitudeDegrees>
              <LongitudeDegrees>-16.6103965602815151214599609375</LongitudeDegrees>
            </Position>
            <AltitudeMeters>2461.60009765625</AltitudeMeters>
            <DistanceMeters>209.18447665913</DistanceMeters>
          </Trackpoint>
          <Trackpoint>
            <Time>2019-04-07T11:55:43.000Z</Time>
            <Position>
              <LatitudeDegrees>28.2582573406398296356201171875</LatitudeDegrees>
              <LongitudeDegrees>-16.61028432659804821014404296875</LongitudeDegrees>
            </Position>
            <AltitudeMeters>2462</AltitudeMeters>
            <DistanceMeters>222.50619172714</DistanceMeters>
          </Trackpoint>
          <Trackpoint>
            <Time>2019-04-07T11:55:49.000Z</Time>
            <Position>
              <LatitudeDegrees>28.25829698704183101654052734375</LatitudeDegrees>
              <LongitudeDegrees>-16.61021140404045581817626953125</LongitudeDegrees>
            </Position>
            <AltitudeMeters>2462.60009765625</AltitudeMeters>
            <DistanceMeters>230.90732721503</DistanceMeters>
          </Trackpoint>
          <Trackpoint>
            <Time>2019-04-07T11:55:50.000Z</Time>
            <Position>
              <LatitudeDegrees>28.2583049498498439788818359375</LatitudeDegrees>
              <LongitudeDegrees>-16.6101987473666667938232421875</LongitudeDegrees>
            </Position>
            <AltitudeMeters>2462.800048828125</AltitudeMeters>
            <DistanceMeters>232.43368225975</DistanceMeters>
          </Trackpoint>
          <Trackpoint>
            <Time>2019-04-07T11:55:56.000Z</Time>
            <Position>
              <LatitudeDegrees>28.258356750011444091796875</LatitudeDegrees>
              <LongitudeDegrees>-16.61012507043778896331787109375</LongitudeDegrees>
            </Position>
            <AltitudeMeters>2462.60009765625</AltitudeMeters>
            <DistanceMeters>241.67573252381</DistanceMeters>
          </Trackpoint>
          <Trackpoint>
            <Time>2019-04-07T11:56:05.000Z</Time>
            <Position>
              <LatitudeDegrees>28.25842422433197498321533203125</LatitudeDegrees>
              <LongitudeDegrees>-16.61002457141876220703125</LongitudeDegrees>
            </Position>
            <AltitudeMeters>2463</AltitudeMeters>
            <DistanceMeters>254.06424249239</DistanceMeters>
          </Trackpoint>
          <Trackpoint>
            <Time>2019-04-07T11:56:16.000Z</Time>
            <Position>
              <LatitudeDegrees>28.25850485824048519134521484375</LatitudeDegrees>
              <LongitudeDegrees>-16.6098792292177677154541015625</LongitudeDegrees>
            </Position>
            <AltitudeMeters>2463.199951171875</AltitudeMeters>
            <DistanceMeters>270.90409167954</DistanceMeters>
          </Trackpoint>
          <Trackpoint>
            <Time>2019-04-07T11:56:24.000Z</Time>
            <Position>
              <LatitudeDegrees>28.258565627038478851318359375</LatitudeDegrees>
              <LongitudeDegrees>-16.60977722145617008209228515625</LongitudeDegrees>
            </Position>
            <AltitudeMeters>2463.39990234375</AltitudeMeters>
            <DistanceMeters>282.97659903325</DistanceMeters>
          </Trackpoint>
          <Trackpoint>
            <Time>2019-04-07T11:56:31.000Z</Time>
            <Position>
              <LatitudeDegrees>28.2586204446852207183837890625</LatitudeDegrees>
              <LongitudeDegrees>-16.60968602634966373443603515625</LongitudeDegrees>
            </Position>
            <AltitudeMeters>2463.800048828125</AltitudeMeters>
            <DistanceMeters>293.80047134329</DistanceMeters>
          </Trackpoint>
          <Trackpoint>
            <Time>2019-04-07T11:56:41.000Z</Time>
            <Position>
              <LatitudeDegrees>28.25870610773563385009765625</LatitudeDegrees>
              <LongitudeDegrees>-16.609560549259185791015625</LongitudeDegrees>
            </Position>
            <AltitudeMeters>2463.199951171875</AltitudeMeters>
            <DistanceMeters>309.36368889161</DistanceMeters>
          </Trackpoint>
          <Trackpoint>
            <Time>2019-04-07T11:56:50.000Z</Time>
            <Position>
              <LatitudeDegrees>28.25877173803746700286865234375</LatitudeDegrees>
              <LongitudeDegrees>-16.6094480641186237335205078125</LongitudeDegrees>
            </Position>
            <AltitudeMeters>2463.800048828125</AltitudeMeters>
            <DistanceMeters>322.59118907789</DistanceMeters>
          </Trackpoint>
          <Trackpoint>
            <Time>2019-04-07T11:56:56.000Z</Time>
            <Position>
              <LatitudeDegrees>28.25881867669522762298583984375</LatitudeDegrees>
              <LongitudeDegrees>-16.60937287844717502593994140625</LongitudeDegrees>
            </Position>
            <AltitudeMeters>2463.800048828125</AltitudeMeters>
            <DistanceMeters>331.62572619812</DistanceMeters>
          </Trackpoint>
          <Trackpoint>
            <Time>2019-04-07T11:57:03.000Z</Time>
            <Position>
              <LatitudeDegrees>28.25886544771492481231689453125</LatitudeDegrees>
              <LongitudeDegrees>-16.60931051708757877349853515625</LongitudeDegrees>
            </Position>
            <AltitudeMeters>2463.199951171875</AltitudeMeters>
            <DistanceMeters>339.6553429891</DistanceMeters>
          </Trackpoint>
          <Trackpoint>
            <Time>2019-04-07T11:57:12.000Z</Time>
            <Position>
              <LatitudeDegrees>28.25886729173362255096435546875</LatitudeDegrees>
              <LongitudeDegrees>-16.609305404126644134521484375</LongitudeDegrees>
            </Position>
            <AltitudeMeters>2463.39990234375</AltitudeMeters>
            <DistanceMeters>340.20122990289</DistanceMeters>
          </Trackpoint>
          <Trackpoint>
            <Time>2019-04-07T11:57:22.000Z</Time>
            <Position>
              <LatitudeDegrees>28.25885974802076816558837890625</LatitudeDegrees>
              <LongitudeDegrees>-16.60931018181145191192626953125</LongitudeDegrees>
            </Position>
            <AltitudeMeters>2463.60009765625</AltitudeMeters>
            <DistanceMeters>341.16095267394</DistanceMeters>
          </Trackpoint>
          <Trackpoint>
            <Time>2019-04-07T11:57:30.000Z</Time>
            <Position>
              <LatitudeDegrees>28.25886460952460765838623046875</LatitudeDegrees>
              <LongitudeDegrees>-16.60927883349359035491943359375</LongitudeDegrees>
            </Position>
            <AltitudeMeters>2463.800048828125</AltitudeMeters>
            <DistanceMeters>344.28095626474</DistanceMeters>
          </Trackpoint>
          <Trackpoint>
            <Time>2019-04-07T11:57:31.000Z</Time>
            <Position>
              <LatitudeDegrees>28.25887097977101802825927734375</LatitudeDegrees>
              <LongitudeDegrees>-16.609267853200435638427734375</LongitudeDegrees>
            </Position>
            <AltitudeMeters>2464</AltitudeMeters>
            <DistanceMeters>345.56645382959</DistanceMeters>
          </Trackpoint>
          <Trackpoint>
            <Time>2019-04-07T11:57:35.000Z</Time>
            <Position>
              <LatitudeDegrees>28.2588945329189300537109375</LatitudeDegrees>
              <LongitudeDegrees>-16.60922032780945301055908203125</LongitudeDegrees>
            </Position>
            <AltitudeMeters>2464.199951171875</AltitudeMeters>
            <DistanceMeters>350.91249834354</DistanceMeters>
          </Trackpoint>
          <Trackpoint>
            <Time>2019-04-07T11:57:42.000Z</Time>
            <Position>
              <LatitudeDegrees>28.258941806852817535400390625</LatitudeDegrees>
              <LongitudeDegrees>-16.609135754406452178955078125</LongitudeDegrees>
            </Position>
            <AltitudeMeters>2464</AltitudeMeters>
            <DistanceMeters>360.73202767384</DistanceMeters>
          </Trackpoint>
          <Trackpoint>
            <Time>2019-04-07T11:57:51.000Z</Time>
            <Position>
              <LatitudeDegrees>28.25900073163211345672607421875</LatitudeDegrees>
              <LongitudeDegrees>-16.60902854986488819122314453125</LongitudeDegrees>
            </Position>
            <AltitudeMeters>2464</AltitudeMeters>
            <DistanceMeters>373.12053764241</DistanceMeters>
          </Trackpoint>
          <Trackpoint>
            <Time>2019-04-07T11:57:59.000Z</Time>
            <Position>
              <LatitudeDegrees>28.25902302749454975128173828125</LatitudeDegrees>
              <LongitudeDegrees>-16.60891774110496044158935546875</LongitudeDegrees>
            </Position>
            <AltitudeMeters>2464.39990234375</AltitudeMeters>
            <DistanceMeters>384.26421797062</DistanceMeters>
          </Trackpoint>
          <Trackpoint>
            <Time>2019-04-07T11:58:05.000Z</Time>
            <Position>
              <LatitudeDegrees>28.2590586505830287933349609375</LatitudeDegrees>
              <LongitudeDegrees>-16.60881799645721912384033203125</LongitudeDegrees>
            </Position>
            <AltitudeMeters>2464.60009765625</AltitudeMeters>
            <DistanceMeters>394.81646288014</DistanceMeters>
          </Trackpoint>
          <Trackpoint>
            <Time>2019-04-07T11:58:07.000Z</Time>
            <Position>
              <LatitudeDegrees>28.25907398946583271026611328125</LatitudeDegrees>
              <LongitudeDegrees>-16.60879544913768768310546875</LongitudeDegrees>
            </Position>
            <AltitudeMeters>2464.60009765625</AltitudeMeters>
            <DistanceMeters>397.60966642582</DistanceMeters>
          </Trackpoint>
          <Trackpoint>
            <Time>2019-04-07T11:58:09.000Z</Time>
            <Position>
              <LatitudeDegrees>28.259074576199054718017578125</LatitudeDegrees>
              <LongitudeDegrees>-16.60877709276974201202392578125</LongitudeDegrees>
            </Position>
            <AltitudeMeters>2464.60009765625</AltitudeMeters>
            <DistanceMeters>399.40765623862</DistanceMeters>
          </Trackpoint>
          <Trackpoint>
            <Time>2019-04-07T11:58:10.000Z</Time>
            <Position>
              <LatitudeDegrees>28.25906644575297832489013671875</LatitudeDegrees>
              <LongitudeDegrees>-16.6087677888572216033935546875</LongitudeDegrees>
            </Position>
            <AltitudeMeters>2464.60009765625</AltitudeMeters>
            <DistanceMeters>400.69315380347</DistanceMeters>
          </Trackpoint>
          <Trackpoint>
            <Time>2019-04-07T11:58:13.000Z</Time>
            <Position>
              <LatitudeDegrees>28.259042389690876007080078125</LatitudeDegrees>
              <LongitudeDegrees>-16.60874892957508563995361328125</LongitudeDegrees>
            </Position>
            <AltitudeMeters>2464.60009765625</AltitudeMeters>
            <DistanceMeters>403.94773206628</DistanceMeters>
          </Trackpoint>
          <Trackpoint>
            <Time>2019-04-07T11:58:15.000Z</Time>
            <Position>
              <LatitudeDegrees>28.25902570970356464385986328125</LatitudeDegrees>
              <LongitudeDegrees>-16.60873400978744029998779296875</LongitudeDegrees>
            </Position>
            <AltitudeMeters>2464.60009765625</AltitudeMeters>
            <DistanceMeters>406.31387817235</DistanceMeters>
          </Trackpoint>
          <Trackpoint>
            <Time>2019-04-07T11:58:16.000Z</Time>
            <Position>
              <LatitudeDegrees>28.2590231113135814666748046875</LatitudeDegrees>
              <LongitudeDegrees>-16.60872244276106357574462890625</LongitudeDegrees>
            </Position>
            <AltitudeMeters>2464.60009765625</AltitudeMeters>
            <DistanceMeters>407.48544618978</DistanceMeters>
          </Trackpoint>
          <Trackpoint>
            <Time>2019-04-07T11:58:23.000Z</Time>
            <Position>
              <LatitudeDegrees>28.25904264114797115325927734375</LatitudeDegrees>
              <LongitudeDegrees>-16.60866863094270229339599609375</LongitudeDegrees>
            </Position>
            <AltitudeMeters>2465.39990234375</AltitudeMeters>
            <DistanceMeters>413.19179840963</DistanceMeters>
          </Trackpoint>
          <Trackpoint>
            <Time>2019-04-07T11:58:24.000Z</Time>
            <Position>
              <LatitudeDegrees>28.2590428926050662994384765625</LatitudeDegrees>
              <LongitudeDegrees>-16.60866133868694305419921875</LongitudeDegrees>
            </Position>
            <AltitudeMeters>2465.800048828125</AltitudeMeters>
            <DistanceMeters>413.90923437005</DistanceMeters>
          </Trackpoint>
          <Trackpoint>
            <Time>2019-04-07T11:58:29.000Z</Time>
            <Position>
              <LatitudeDegrees>28.25904850848019123077392578125</LatitudeDegrees>
              <LongitudeDegrees>-16.6086373664438724517822265625</LongitudeDegrees>
            </Position>
            <AltitudeMeters>2466.39990234375</AltitudeMeters>
            <DistanceMeters>416.33939279993</DistanceMeters>
          </Trackpoint>
          <Trackpoint>
            <Time>2019-04-07T11:58:43.000Z</Time>
            <Position>
              <LatitudeDegrees>28.2590502686798572540283203125</LatitudeDegrees>
              <LongitudeDegrees>-16.608638204634189605712890625</LongitudeDegrees>
            </Position>
            <AltitudeMeters>2466.800048828125</AltitudeMeters>
            <DistanceMeters>416.52944622867</DistanceMeters>
          </Trackpoint>
          <Trackpoint>
            <Time>2019-04-07T11:58:47.000Z</Time>
            <Position>
              <LatitudeDegrees>28.2590501010417938232421875</LatitudeDegrees>
              <LongitudeDegrees>-16.608636863529682159423828125</LongitudeDegrees>
            </Position>
            <AltitudeMeters>2466.800048828125</AltitudeMeters>
            <DistanceMeters>416.66383429692</DistanceMeters>
          </Trackpoint>
          <Trackpoint>
            <Time>2019-04-07T11:58:54.000Z</Time>
            <Position>
              <LatitudeDegrees>28.2590620033442974090576171875</LatitudeDegrees>
              <LongitudeDegrees>-16.6085857339203357696533203125</LongitudeDegrees>
            </Position>
            <AltitudeMeters>2466.60009765625</AltitudeMeters>
            <DistanceMeters>421.8478006835</DistanceMeters>
          </Trackpoint>
          <Trackpoint>
            <Time>2019-04-07T11:59:01.000Z</Time>
            <Position>
              <LatitudeDegrees>28.25907382182776927947998046875</LatitudeDegrees>
              <LongitudeDegrees>-16.608503758907318115234375</LongitudeDegrees>
            </Position>
            <AltitudeMeters>2467.60009765625</AltitudeMeters>
            <DistanceMeters>429.99131843718</DistanceMeters>
          </Trackpoint>
          <Trackpoint>
            <Time>2019-04-07T11:59:03.000Z</Time>
            <Position>
              <LatitudeDegrees>28.25907516293227672576904296875</LatitudeDegrees>
              <LongitudeDegrees>-16.6085025854408740997314453125</LongitudeDegrees>
            </Position>
            <AltitudeMeters>2468</AltitudeMeters>
            <DistanceMeters>430.18137186592</DistanceMeters>
          </Trackpoint>
          <Trackpoint>
            <Time>2019-04-07T11:59:10.000Z</Time>
            <Position>
              <LatitudeDegrees>28.25907750986516475677490234375</LatitudeDegrees>
              <LongitudeDegrees>-16.608488000929355621337890625</LongitudeDegrees>
            </Position>
            <AltitudeMeters>2468.199951171875</AltitudeMeters>
            <DistanceMeters>431.63810381255</DistanceMeters>
          </Trackpoint>
          <Trackpoint>
            <Time>2019-04-07T11:59:11.000Z</Time>
            <Position>
              <LatitudeDegrees>28.2590801082551479339599609375</LatitudeDegrees>
              <LongitudeDegrees>-16.60847635008394718170166015625</LongitudeDegrees>
            </Position>
            <AltitudeMeters>2468.199951171875</AltitudeMeters>
            <DistanceMeters>432.81351935436</DistanceMeters>
          </Trackpoint>
          <Trackpoint>
            <Time>2019-04-07T11:59:18.000Z</Time>
            <Position>
              <LatitudeDegrees>28.25908304192125797271728515625</LatitudeDegrees>
              <LongitudeDegrees>-16.608416922390460968017578125</LongitudeDegrees>
            </Position>
            <AltitudeMeters>2468.60009765625</AltitudeMeters>
            <DistanceMeters>438.64819056992</DistanceMeters>
          </Trackpoint>
          <Trackpoint>
            <Time>2019-04-07T11:59:19.000Z</Time>
            <Position>
              <LatitudeDegrees>28.25908672995865345001220703125</LatitudeDegrees>
              <LongitudeDegrees>-16.60840745083987712860107421875</LongitudeDegrees>
            </Position>
            <AltitudeMeters>2468.60009765625</AltitudeMeters>
            <DistanceMeters>439.66279823528</DistanceMeters>
          </Trackpoint>
          <Trackpoint>
            <Time>2019-04-07T11:59:23.000Z</Time>
            <Position>
              <LatitudeDegrees>28.25907130725681781768798828125</LatitudeDegrees>
              <LongitudeDegrees>-16.608364284038543701171875</LongitudeDegrees>
            </Position>
            <AltitudeMeters>2468.39990234375</AltitudeMeters>
            <DistanceMeters>444.23001583307</DistanceMeters>
          </Trackpoint>
          <Trackpoint>
            <Time>2019-04-07T11:59:26.000Z</Time>
            <Position>
              <LatitudeDegrees>28.25906191952526569366455078125</LatitudeDegrees>
              <LongitudeDegrees>-16.60833855159580707550048828125</LongitudeDegrees>
            </Position>
            <AltitudeMeters>2468.60009765625</AltitudeMeters>
            <DistanceMeters>446.95945040203</DistanceMeters>
          </Trackpoint>
          <Trackpoint>
            <Time>2019-04-07T11:59:29.000Z</Time>
            <Position>
              <LatitudeDegrees>28.25907097198069095611572265625</LatitudeDegrees>
              <LongitudeDegrees>-16.6083057783544063568115234375</LongitudeDegrees>
            </Position>
            <AltitudeMeters>2468.60009765625</AltitudeMeters>
            <DistanceMeters>450.32720573958</DistanceMeters>
          </Trackpoint>
          <Trackpoint>
            <Time>2019-04-07T11:59:30.000Z</Time>
            <Position>
              <LatitudeDegrees>28.25907466001808643341064453125</LatitudeDegrees>
              <LongitudeDegrees>-16.60829647444188594818115234375</LongitudeDegrees>
            </Position>
            <AltitudeMeters>2468.800048828125</AltitudeMeters>
            <DistanceMeters>451.33287395611</DistanceMeters>
          </Trackpoint>
          <Trackpoint>
            <Time>2019-04-07T11:59:34.000Z</Time>
            <Position>
              <LatitudeDegrees>28.259118832647800445556640625</LatitudeDegrees>
              <LongitudeDegrees>-16.60828038118779659271240234375</LongitudeDegrees>
            </Position>
            <AltitudeMeters>2468.800048828125</AltitudeMeters>
            <DistanceMeters>456.4958949383</DistanceMeters>
          </Trackpoint>
          <Trackpoint>
            <Time>2019-04-07T11:59:37.000Z</Time>
            <Position>
              <LatitudeDegrees>28.2591518573462963104248046875</LatitudeDegrees>
              <LongitudeDegrees>-16.6082752682268619537353515625</LongitudeDegrees>
            </Position>
            <AltitudeMeters>2468.199951171875</AltitudeMeters>
            <DistanceMeters>460.20558987193</DistanceMeters>
          </Trackpoint>
          <Trackpoint>
            <Time>2019-04-07T11:59:42.000Z</Time>
            <Position>
              <LatitudeDegrees>28.259192593395709991455078125</LatitudeDegrees>
              <LongitudeDegrees>-16.608262360095977783203125</LongitudeDegrees>
            </Position>
            <AltitudeMeters>2467.60009765625</AltitudeMeters>
            <DistanceMeters>464.91396938827</DistanceMeters>
          </Trackpoint>
          <Trackpoint>
            <Time>2019-04-07T11:59:48.000Z</Time>
            <Position>
              <LatitudeDegrees>28.25925604440271854400634765625</LatitudeDegrees>
              <LongitudeDegrees>-16.6082501225173473358154296875</LongitudeDegrees>
            </Position>
            <AltitudeMeters>2466.800048828125</AltitudeMeters>
            <DistanceMeters>472.0776223971</DistanceMeters>
          </Trackpoint>
          <Trackpoint>
            <Time>2019-04-07T11:59:49.000Z</Time>
            <Position>
              <LatitudeDegrees>28.25926660560071468353271484375</LatitudeDegrees>
              <LongitudeDegrees>-16.60825020633637905120849609375</LongitudeDegrees>
            </Position>
            <AltitudeMeters>2466.60009765625</AltitudeMeters>
            <DistanceMeters>473.25303793891</DistanceMeters>
          </Trackpoint>
          <Trackpoint>
            <Time>2019-04-07T11:59:50.000Z</Time>
            <Position>
              <LatitudeDegrees>28.259275071322917938232421875</LatitudeDegrees>
              <LongitudeDegrees>-16.60824769176542758941650390625</LongitudeDegrees>
            </Position>
            <AltitudeMeters>2466.60009765625</AltitudeMeters>
            <DistanceMeters>474.23139784358</DistanceMeters>
          </Trackpoint>
          <Trackpoint>
            <Time>2019-04-07T11:59:57.000Z</Time>
            <Position>
              <LatitudeDegrees>28.25929057784378528594970703125</LatitudeDegrees>
              <LongitudeDegrees>-16.6082207858562469482421875</LongitudeDegrees>
            </Position>
            <AltitudeMeters>2466.39990234375</AltitudeMeters>
            <DistanceMeters>477.38450966602</DistanceMeters>
          </Trackpoint>
          <Trackpoint>
            <Time>2019-04-07T12:00:01.000Z</Time>
            <Position>
              <LatitudeDegrees>28.2593017257750034332275390625</LatitudeDegrees>
              <LongitudeDegrees>-16.60819597542285919189453125</LongitudeDegrees>
            </Position>
            <AltitudeMeters>2465.60009765625</AltitudeMeters>
            <DistanceMeters>480.11559793678</DistanceMeters>
          </Trackpoint>
          <Trackpoint>
            <Time>2019-04-07T12:00:03.000Z</Time>
            <Position>
              <LatitudeDegrees>28.259297870099544525146484375</LatitudeDegrees>
              <LongitudeDegrees>-16.60819103009998798370361328125</LongitudeDegrees>
            </Position>
            <AltitudeMeters>2464.39990234375</AltitudeMeters>
            <DistanceMeters>480.76706826831</DistanceMeters>
          </Trackpoint>
          <Trackpoint>
            <Time>2019-04-07T12:00:04.000Z</Time>
            <Position>
              <LatitudeDegrees>28.259298540651798248291015625</LatitudeDegrees>
              <LongitudeDegrees>-16.608183570206165313720703125</LongitudeDegrees>
            </Position>
            <AltitudeMeters>2464</AltitudeMeters>
            <DistanceMeters>481.49698231133</DistanceMeters>
          </Trackpoint>
          <Trackpoint>
            <Time>2019-04-07T12:00:06.000Z</Time>
            <Position>
              <LatitudeDegrees>28.25929351150989532470703125</LatitudeDegrees>
              <LongitudeDegrees>-16.60816789604723453521728515625</LongitudeDegrees>
            </Position>
            <AltitudeMeters>2463.39990234375</AltitudeMeters>
            <DistanceMeters>483.12635104631</DistanceMeters>
          </Trackpoint>
          <Trackpoint>
            <Time>2019-04-07T12:00:10.000Z</Time>
            <Position>
              <LatitudeDegrees>28.2592863030731678009033203125</LatitudeDegrees>
              <LongitudeDegrees>-16.6081430017948150634765625</LongitudeDegrees>
            </Position>
            <AltitudeMeters>2462.39990234375</AltitudeMeters>
            <DistanceMeters>485.6938314852</DistanceMeters>
          </Trackpoint>
          <Trackpoint>
            <Time>2019-04-07T12:00:13.000Z</Time>
            <Position>
              <LatitudeDegrees>28.2592936791479587554931640625</LatitudeDegrees>
              <LongitudeDegrees>-16.6081160120666027069091796875</LongitudeDegrees>
            </Position>
            <AltitudeMeters>2462.199951171875</AltitudeMeters>
            <DistanceMeters>488.46268231197</DistanceMeters>
          </Trackpoint>
          <Trackpoint>
            <Time>2019-04-07T12:00:17.000Z</Time>
            <Position>
              <LatitudeDegrees>28.259303905069828033447265625</LatitudeDegrees>
              <LongitudeDegrees>-16.608065553009510040283203125</LongitudeDegrees>
            </Position>
            <AltitudeMeters>2461.800048828125</AltitudeMeters>
            <DistanceMeters>493.53838995668</DistanceMeters>
          </Trackpoint>
          <Trackpoint>
            <Time>2019-04-07T12:00:23.000Z</Time>
            <Position>
              <LatitudeDegrees>28.2593094371259212493896484375</LatitudeDegrees>
              <LongitudeDegrees>-16.608032025396823883056640625</LongitudeDegrees>
            </Position>
            <AltitudeMeters>2461.800048828125</AltitudeMeters>
            <DistanceMeters>496.88192620407</DistanceMeters>
          </Trackpoint>
          <Trackpoint>
            <Time>2019-04-07T12:00:30.000Z</Time>
            <Position>
              <LatitudeDegrees>28.25927934609353542327880859375</LatitudeDegrees>
              <LongitudeDegrees>-16.60795365460216999053955078125</LongitudeDegrees>
            </Position>
            <AltitudeMeters>2462.199951171875</AltitudeMeters>
            <DistanceMeters>505.26369181366</DistanceMeters>
          </Trackpoint>
          <Trackpoint>
            <Time>2019-04-07T12:00:37.000Z</Time>
            <Position>
              <LatitudeDegrees>28.2593030668795108795166015625</LatitudeDegrees>
              <LongitudeDegrees>-16.60789732821285724639892578125</LongitudeDegrees>
            </Position>
            <AltitudeMeters>2462.39990234375</AltitudeMeters>
            <DistanceMeters>511.3838843833</DistanceMeters>
          </Trackpoint>
          <Trackpoint>
            <Time>2019-04-07T12:00:43.000Z</Time>
            <Position>
              <LatitudeDegrees>28.259295858442783355712890625</LatitudeDegrees>
              <LongitudeDegrees>-16.60782759077847003936767578125</LongitudeDegrees>
            </Position>
            <AltitudeMeters>2461.800048828125</AltitudeMeters>
            <DistanceMeters>518.26725645674</DistanceMeters>
          </Trackpoint>
          <Trackpoint>
            <Time>2019-04-07T12:00:50.000Z</Time>
            <Position>
              <LatitudeDegrees>28.2592789269983768463134765625</LatitudeDegrees>
              <LongitudeDegrees>-16.6077582724392414093017578125</LongitudeDegrees>
            </Position>
            <AltitudeMeters>2461.39990234375</AltitudeMeters>
            <DistanceMeters>525.31910947399</DistanceMeters>
          </Trackpoint>
          <Trackpoint>
            <Time>2019-04-07T12:00:56.000Z</Time>
            <Position>
              <LatitudeDegrees>28.25927473604679107666015625</LatitudeDegrees>
              <LongitudeDegrees>-16.60768794827163219451904296875</LongitudeDegrees>
            </Position>
            <AltitudeMeters>2461.199951171875</AltitudeMeters>
            <DistanceMeters>532.22932251236</DistanceMeters>
          </Trackpoint>
          <Trackpoint>
            <Time>2019-04-07T12:01:02.000Z</Time>
            <Position>
              <LatitudeDegrees>28.25929510407149791717529296875</LatitudeDegrees>
              <LongitudeDegrees>-16.60761795938014984130859375</LongitudeDegrees>
            </Position>
            <AltitudeMeters>2461</AltitudeMeters>
            <DistanceMeters>539.45572770965</DistanceMeters>
          </Trackpoint>
          <Trackpoint>
            <Time>2019-04-07T12:01:04.000Z</Time>
            <Position>
              <LatitudeDegrees>28.25930365361273288726806640625</LatitudeDegrees>
              <LongitudeDegrees>-16.60759641788899898529052734375</LongitudeDegrees>
            </Position>
            <AltitudeMeters>2461</AltitudeMeters>
            <DistanceMeters>541.77172974067</DistanceMeters>
          </Trackpoint>
          <Trackpoint>
            <Time>2019-04-07T12:01:07.000Z</Time>
            <Position>
              <LatitudeDegrees>28.2593080960214138031005859375</LatitudeDegrees>
              <LongitudeDegrees>-16.6075661592185497283935546875</LongitudeDegrees>
            </Position>
            <AltitudeMeters>2461</AltitudeMeters>
            <DistanceMeters>544.77824042922</DistanceMeters>
          </Trackpoint>
          <Trackpoint>
            <Time>2019-04-07T12:01:11.000Z</Time>
            <Position>
              <LatitudeDegrees>28.25929887592792510986328125</LatitudeDegrees>
              <LongitudeDegrees>-16.60753187723457813262939453125</LongitudeDegrees>
            </Position>
            <AltitudeMeters>2460.199951171875</AltitudeMeters>
            <DistanceMeters>548.29294448154</DistanceMeters>
          </Trackpoint>
          <Trackpoint>
            <Time>2019-04-07T12:01:12.000Z</Time>
            <Position>
              <LatitudeDegrees>28.25929912738502025604248046875</LatitudeDegrees>
              <LongitudeDegrees>-16.60752274096012115478515625</LongitudeDegrees>
            </Position>
            <AltitudeMeters>2459.39990234375</AltitudeMeters>
            <DistanceMeters>549.18942471194</DistanceMeters>
          </Trackpoint>
          <Trackpoint>
            <Time>2019-04-07T12:01:16.000Z</Time>
            <Position>
              <LatitudeDegrees>28.25928722508251667022705078125</LatitudeDegrees>
              <LongitudeDegrees>-16.60748250782489776611328125</LongitudeDegrees>
            </Position>
            <AltitudeMeters>2458.39990234375</AltitudeMeters>
            <DistanceMeters>553.35111747085</DistanceMeters>
          </Trackpoint>
          <Trackpoint>
            <Time>2019-04-07T12:01:17.000Z</Time>
            <Position>
              <LatitudeDegrees>28.25928487814962863922119140625</LatitudeDegrees>
              <LongitudeDegrees>-16.60746901296079158782958984375</LongitudeDegrees>
            </Position>
            <AltitudeMeters>2458.39990234375</AltitudeMeters>
            <DistanceMeters>554.69835366589</DistanceMeters>
          </Trackpoint>
          <Trackpoint>
            <Time>2019-04-07T12:01:18.000Z</Time>
            <Position>
              <LatitudeDegrees>28.25928546488285064697265625</LatitudeDegrees>
              <LongitudeDegrees>-16.60745610482990741729736328125</LongitudeDegrees>
            </Position>
            <AltitudeMeters>2458.60009765625</AltitudeMeters>
            <DistanceMeters>555.96616816613</DistanceMeters>
          </Trackpoint>
          <Trackpoint>
            <Time>2019-04-07T12:01:21.000Z</Time>
            <Position>
              <LatitudeDegrees>28.25928471051156520843505859375</LatitudeDegrees>
              <LongitudeDegrees>-16.60741922445595264434814453125</LongitudeDegrees>
            </Position>
            <AltitudeMeters>2459</AltitudeMeters>
            <DistanceMeters>559.58467764432</DistanceMeters>
          </Trackpoint>
          <Trackpoint>
            <Time>2019-04-07T12:01:26.000Z</Time>
            <Position>
              <LatitudeDegrees>28.2592648454010486602783203125</LatitudeDegrees>
              <LongitudeDegrees>-16.60734831355512142181396484375</LongitudeDegrees>
            </Position>
            <AltitudeMeters>2457.39990234375</AltitudeMeters>
            <DistanceMeters>566.88010570309</DistanceMeters>
          </Trackpoint>
          <Trackpoint>
            <Time>2019-04-07T12:01:27.000Z</Time>
            <Position>
              <LatitudeDegrees>28.259260319173336029052734375</LatitudeDegrees>
              <LongitudeDegrees>-16.607333980500698089599609375</LongitudeDegrees>
            </Position>
            <AltitudeMeters>2457.199951171875</AltitudeMeters>
            <DistanceMeters>568.37054148004</DistanceMeters>
          </Trackpoint>
          <Trackpoint>
            <Time>2019-04-07T12:01:33.000Z</Time>
            <Position>
              <LatitudeDegrees>28.25925939716398715972900390625</LatitudeDegrees>
              <LongitudeDegrees>-16.60724756307899951934814453125</LongitudeDegrees>
            </Position>
            <AltitudeMeters>2457</AltitudeMeters>
            <DistanceMeters>576.84285389478</DistanceMeters>
          </Trackpoint>
          <Trackpoint>
            <Time>2019-04-07T12:01:40.000Z</Time>
            <Position>
              <LatitudeDegrees>28.25927473604679107666015625</LatitudeDegrees>
              <LongitudeDegrees>-16.60714589059352874755859375</LongitudeDegrees>
            </Position>
            <AltitudeMeters>2456.39990234375</AltitudeMeters>
            <DistanceMeters>586.95550022143</DistanceMeters>
          </Trackpoint>
          <Trackpoint>
            <Time>2019-04-07T12:01:47.000Z</Time>
            <Position>
              <LatitudeDegrees>28.259306252002716064453125</LatitudeDegrees>
              <LongitudeDegrees>-16.60704664885997772216796875</LongitudeDegrees>
            </Position>
            <AltitudeMeters>2456</AltitudeMeters>
            <DistanceMeters>597.29770769752</DistanceMeters>
          </Trackpoint>
          <Trackpoint>
            <Time>2019-04-07T12:01:49.000Z</Time>
            <Position>
              <LatitudeDegrees>28.2593121193349361419677734375</LatitudeDegrees>
              <LongitudeDegrees>-16.60702108405530452728271484375</LongitudeDegrees>
            </Position>
            <AltitudeMeters>2455.800048828125</AltitudeMeters>
            <DistanceMeters>599.88620469799</DistanceMeters>
          </Trackpoint>
          <Trackpoint>
            <Time>2019-04-07T12:01:57.000Z</Time>
            <Position>
              <LatitudeDegrees>28.25931974686682224273681640625</LatitudeDegrees>
              <LongitudeDegrees>-16.6069123707711696624755859375</LongitudeDegrees>
            </Position>
            <AltitudeMeters>2455.199951171875</AltitudeMeters>
            <DistanceMeters>610.57744913573</DistanceMeters>
          </Trackpoint>
          <Trackpoint>
            <Time>2019-04-07T12:01:58.000Z</Time>
            <Position>
              <LatitudeDegrees>28.25932033360004425048828125</LatitudeDegrees>
              <LongitudeDegrees>-16.606896109879016876220703125</LongitudeDegrees>
            </Position>
            <AltitudeMeters>2455</AltitudeMeters>
            <DistanceMeters>612.17321903055</DistanceMeters>
          </Trackpoint>
          <Trackpoint>
            <Time>2019-04-07T12:02:01.000Z</Time>
            <Position>
              <LatitudeDegrees>28.25933282263576984405517578125</LatitudeDegrees>
              <LongitudeDegrees>-16.60685084760189056396484375</LongitudeDegrees>
            </Position>
            <AltitudeMeters>2453.800048828125</AltitudeMeters>
            <DistanceMeters>616.82370643331</DistanceMeters>
          </Trackpoint>
          <Trackpoint>
            <Time>2019-04-07T12:02:03.000Z</Time>
            <Position>
              <LatitudeDegrees>28.259333409368991851806640625</LatitudeDegrees>
              <LongitudeDegrees>-16.60682058893144130706787109375</LongitudeDegrees>
            </Position>
            <AltitudeMeters>2453.800048828125</AltitudeMeters>
            <DistanceMeters>619.78939260289</DistanceMeters>
          </Trackpoint>
          <Trackpoint>
            <Time>2019-04-07T12:02:10.000Z</Time>
            <Position>
              <LatitudeDegrees>28.2593379355967044830322265625</LatitudeDegrees>
              <LongitudeDegrees>-16.60672168247401714324951171875</LongitudeDegrees>
            </Position>
            <AltitudeMeters>2454.199951171875</AltitudeMeters>
            <DistanceMeters>629.49887240743</DistanceMeters>
          </Trackpoint>
          <Trackpoint>
            <Time>2019-04-07T12:02:18.000Z</Time>
            <Position>
              <LatitudeDegrees>28.25931622646749019622802734375</LatitudeDegrees>
              <LongitudeDegrees>-16.6066106222569942474365234375</LongitudeDegrees>
            </Position>
            <AltitudeMeters>2454</AltitudeMeters>
            <DistanceMeters>640.65146282128</DistanceMeters>
          </Trackpoint>
          <Trackpoint>
            <Time>2019-04-07T12:02:25.000Z</Time>
            <Position>
              <LatitudeDegrees>28.25931387953460216522216796875</LatitudeDegrees>
              <LongitudeDegrees>-16.60651699639856815338134765625</LongitudeDegrees>
            </Position>
            <AltitudeMeters>2454.39990234375</AltitudeMeters>
            <DistanceMeters>649.83371874002</DistanceMeters>
          </Trackpoint>
          <Trackpoint>
            <Time>2019-04-07T12:02:28.000Z</Time>
            <Position>
              <LatitudeDegrees>28.2593282125890254974365234375</LatitudeDegrees>
              <LongitudeDegrees>-16.6064828820526599884033203125</LongitudeDegrees>
            </Position>
            <AltitudeMeters>2454.800048828125</AltitudeMeters>
            <DistanceMeters>653.53976060045</DistanceMeters>
          </Trackpoint>
          <Trackpoint>
            <Time>2019-04-07T12:02:29.000Z</Time>
            <Position>
              <LatitudeDegrees>28.25933567248284816741943359375</LatitudeDegrees>
              <LongitudeDegrees>-16.60647592507302761077880859375</LongitudeDegrees>
            </Position>
            <AltitudeMeters>2455.199951171875</AltitudeMeters>
            <DistanceMeters>654.61486514645</DistanceMeters>
          </Trackpoint>
          <Trackpoint>
            <Time>2019-04-07T12:02:32.000Z</Time>
            <Position>
              <LatitudeDegrees>28.259351514279842376708984375</LatitudeDegrees>
              <LongitudeDegrees>-16.60645656287670135498046875</LongitudeDegrees>
            </Position>
            <AltitudeMeters>2456</AltitudeMeters>
            <DistanceMeters>657.20684833974</DistanceMeters>
          </Trackpoint>
          <Trackpoint>
            <Time>2019-04-07T12:02:38.000Z</Time>
            <Position>
              <LatitudeDegrees>28.2593342475593090057373046875</LatitudeDegrees>
              <LongitudeDegrees>-16.60637634806334972381591796875</LongitudeDegrees>
            </Position>
            <AltitudeMeters>2455.199951171875</AltitudeMeters>
            <DistanceMeters>665.30254440804</DistanceMeters>
          </Trackpoint>
          <Trackpoint>
            <Time>2019-04-07T12:02:39.000Z</Time>
            <Position>
              <LatitudeDegrees>28.25933097861707210540771484375</LatitudeDegrees>
              <LongitudeDegrees>-16.606362350285053253173828125</LongitudeDegrees>
            </Position>
            <AltitudeMeters>2455.199951171875</AltitudeMeters>
            <DistanceMeters>666.72477403909</DistanceMeters>
          </Trackpoint>
          <Trackpoint>
            <Time>2019-04-07T12:02:42.000Z</Time>
            <Position>
              <LatitudeDegrees>28.2593161426484584808349609375</LatitudeDegrees>
              <LongitudeDegrees>-16.60632706247270107269287109375</LongitudeDegrees>
            </Position>
            <AltitudeMeters>2455.199951171875</AltitudeMeters>
            <DistanceMeters>670.55895771371</DistanceMeters>
          </Trackpoint>
          <Trackpoint>
            <Time>2019-04-07T12:02:45.000Z</Time>
            <Position>
              <LatitudeDegrees>28.259289823472499847412109375</LatitudeDegrees>
              <LongitudeDegrees>-16.60630099475383758544921875</LongitudeDegrees>
            </Position>
            <AltitudeMeters>2455</AltitudeMeters>
            <DistanceMeters>674.44693250365</DistanceMeters>
          </Trackpoint>
          <Trackpoint>
            <Time>2019-04-07T12:02:50.000Z</Time>
            <Position>
              <LatitudeDegrees>28.25930180959403514862060546875</LatitudeDegrees>
              <LongitudeDegrees>-16.60625095479190349578857421875</LongitudeDegrees>
            </Position>
            <AltitudeMeters>2454.800048828125</AltitudeMeters>
            <DistanceMeters>679.53063969256</DistanceMeters>
          </Trackpoint>
          <Trackpoint>
            <Time>2019-04-07T12:02:55.000Z</Time>
            <Position>
              <LatitudeDegrees>28.25924514792859554290771484375</LatitudeDegrees>
              <LongitudeDegrees>-16.60623268224298954010009765625</LongitudeDegrees>
            </Position>
            <AltitudeMeters>2454.199951171875</AltitudeMeters>
            <DistanceMeters>686.08610564067</DistanceMeters>
          </Trackpoint>
          <Trackpoint>
            <Time>2019-04-07T12:03:01.000Z</Time>
            <Position>
              <LatitudeDegrees>28.2592242769896984100341796875</LatitudeDegrees>
              <LongitudeDegrees>-16.60617300309240818023681640625</LongitudeDegrees>
            </Position>
            <AltitudeMeters>2454.60009765625</AltitudeMeters>
            <DistanceMeters>692.38086341489</DistanceMeters>
          </Trackpoint>
          <Trackpoint>
            <Time>2019-04-07T12:03:05.000Z</Time>
            <Position>
              <LatitudeDegrees>28.25919133611023426055908203125</LatitudeDegrees>
              <LongitudeDegrees>-16.60615347325801849365234375</LongitudeDegrees>
            </Position>
            <AltitudeMeters>2454.60009765625</AltitudeMeters>
            <DistanceMeters>696.51752811743</DistanceMeters>
          </Trackpoint>
          <Trackpoint>
            <Time>2019-04-07T12:03:09.000Z</Time>
            <Position>
              <LatitudeDegrees>28.25916208326816558837890625</LatitudeDegrees>
              <LongitudeDegrees>-16.6061368770897388458251953125</LongitudeDegrees>
            </Position>
            <AltitudeMeters>2454.199951171875</AltitudeMeters>
            <DistanceMeters>700.15842803637</DistanceMeters>
          </Trackpoint>
          <Trackpoint>
            <Time>2019-04-07T12:03:10.000Z</Time>
            <Position>
              <LatitudeDegrees>28.2591528631746768951416015625</LatitudeDegrees>
              <LongitudeDegrees>-16.60613260231912136077880859375</LongitudeDegrees>
            </Position>
            <AltitudeMeters>2454</AltitudeMeters>
            <DistanceMeters>701.2666204368</DistanceMeters>
          </Trackpoint>
          <Trackpoint>
            <Time>2019-04-07T12:03:13.000Z</Time>
            <Position>
              <LatitudeDegrees>28.25915294699370861053466796875</LatitudeDegrees>
              <LongitudeDegrees>-16.60610242746770381927490234375</LongitudeDegrees>
            </Position>
            <AltitudeMeters>2453.39990234375</AltitudeMeters>
            <DistanceMeters>704.22468468124</DistanceMeters>
          </Trackpoint>
          <Trackpoint>
            <Time>2019-04-07T12:03:15.000Z</Time>
            <Position>
              <LatitudeDegrees>28.25913618318736553192138671875</LatitudeDegrees>
              <LongitudeDegrees>-16.60610142163932323455810546875</LongitudeDegrees>
            </Position>
            <AltitudeMeters>2453.199951171875</AltitudeMeters>
            <DistanceMeters>706.09166339225</DistanceMeters>
          </Trackpoint>
          <Trackpoint>
            <Time>2019-04-07T12:03:16.000Z</Time>
            <Position>
              <LatitudeDegrees>28.25912679545581340789794921875</LatitudeDegrees>
              <LongitudeDegrees>-16.606102846562862396240234375</LongitudeDegrees>
            </Position>
            <AltitudeMeters>2452.800048828125</AltitudeMeters>
            <DistanceMeters>707.14126775874</DistanceMeters>
          </Trackpoint>
          <Trackpoint>
            <Time>2019-04-07T12:03:18.000Z</Time>
            <Position>
              <LatitudeDegrees>28.259110115468502044677734375</LatitudeDegrees>
              <LongitudeDegrees>-16.60609438084065914154052734375</LongitudeDegrees>
            </Position>
            <AltitudeMeters>2452.39990234375</AltitudeMeters>
            <DistanceMeters>709.17492825433</DistanceMeters>
          </Trackpoint>
          <Trackpoint>
            <Time>2019-04-07T12:03:22.000Z</Time>
            <Position>
              <LatitudeDegrees>28.2591052539646625518798828125</LatitudeDegrees>
              <LongitudeDegrees>-16.6060480289161205291748046875</LongitudeDegrees>
            </Position>
            <AltitudeMeters>2452</AltitudeMeters>
            <DistanceMeters>713.75004761858</DistanceMeters>
          </Trackpoint>
          <Trackpoint>
            <Time>2019-04-07T12:03:25.000Z</Time>
            <Position>
              <LatitudeDegrees>28.2590777613222599029541015625</LatitudeDegrees>
              <LongitudeDegrees>-16.60602682270109653472900390625</LongitudeDegrees>
            </Position>
            <AltitudeMeters>2451.800048828125</AltitudeMeters>
            <DistanceMeters>717.44999300859</DistanceMeters>
          </Trackpoint>
          <Trackpoint>
            <Time>2019-04-07T12:03:29.000Z</Time>
            <Position>
              <LatitudeDegrees>28.2590539567172527313232421875</LatitudeDegrees>
              <LongitudeDegrees>-16.60597854293882846832275390625</LongitudeDegrees>
            </Position>
            <AltitudeMeters>2451.39990234375</AltitudeMeters>
            <DistanceMeters>722.87401264852</DistanceMeters>
          </Trackpoint>
          <Trackpoint>
            <Time>2019-04-07T12:03:35.000Z</Time>
            <Position>
              <LatitudeDegrees>28.25899536721408367156982421875</LatitudeDegrees>
              <LongitudeDegrees>-16.60592389293015003204345703125</LongitudeDegrees>
            </Position>
            <AltitudeMeters>2450.800048828125</AltitudeMeters>
            <DistanceMeters>731.3142894844</DistanceMeters>
          </Trackpoint>
          <Trackpoint>
            <Time>2019-04-07T12:03:36.000Z</Time>
            <Position>
              <LatitudeDegrees>28.25898514129221439361572265625</LatitudeDegrees>
              <LongitudeDegrees>-16.6059159301221370697021484375</LongitudeDegrees>
            </Position>
            <AltitudeMeters>2450.800048828125</AltitudeMeters>
            <DistanceMeters>732.69463224245</DistanceMeters>
          </Trackpoint>
          <Trackpoint>
            <Time>2019-04-07T12:03:40.000Z</Time>
            <Position>
              <LatitudeDegrees>28.25894691981375217437744140625</LatitudeDegrees>
              <LongitudeDegrees>-16.60587879829108715057373046875</LongitudeDegrees>
            </Position>
            <AltitudeMeters>2450.800048828125</AltitudeMeters>
            <DistanceMeters>738.29314948695</DistanceMeters>
          </Trackpoint>
          <Trackpoint>
            <Time>2019-04-07T12:03:42.000Z</Time>
            <Position>
              <LatitudeDegrees>28.2589429803192615509033203125</LatitudeDegrees>
              <LongitudeDegrees>-16.60585080273449420928955078125</LongitudeDegrees>
            </Position>
            <AltitudeMeters>2450.60009765625</AltitudeMeters>
            <DistanceMeters>741.0701416157</DistanceMeters>
          </Trackpoint>
          <Trackpoint>
            <Time>2019-04-07T12:03:46.000Z</Time>
            <Position>
              <LatitudeDegrees>28.25890752486884593963623046875</LatitudeDegrees>
              <LongitudeDegrees>-16.6058282554149627685546875</LongitudeDegrees>
            </Position>
            <AltitudeMeters>2450.39990234375</AltitudeMeters>
            <DistanceMeters>745.59365277651</DistanceMeters>
          </Trackpoint>
          <Trackpoint>
            <Time>2019-04-07T12:03:47.000Z</Time>
            <Position>
              <LatitudeDegrees>28.25889646075665950775146484375</LatitudeDegrees>
              <LongitudeDegrees>-16.60582398064434528350830078125</LongitudeDegrees>
            </Position>
            <AltitudeMeters>2450.39990234375</AltitudeMeters>
            <DistanceMeters>746.88964437315</DistanceMeters>
          </Trackpoint>
          <Trackpoint>
            <Time>2019-04-07T12:03:53.000Z</Time>
            <Position>
              <LatitudeDegrees>28.25885153375566005706787109375</LatitudeDegrees>
              <LongitudeDegrees>-16.60578056238591670989990234375</LongitudeDegrees>
            </Position>
            <AltitudeMeters>2450.60009765625</AltitudeMeters>
            <DistanceMeters>753.45612097936</DistanceMeters>
          </Trackpoint>
          <Trackpoint>
            <Time>2019-04-07T12:03:57.000Z</Time>
            <Position>
              <LatitudeDegrees>28.25881549157202243804931640625</LatitudeDegrees>
              <LongitudeDegrees>-16.60576279275119304656982421875</LongitudeDegrees>
            </Position>
            <AltitudeMeters>2450.60009765625</AltitudeMeters>
            <DistanceMeters>757.83044744006</DistanceMeters>
          </Trackpoint>
          <Trackpoint>
            <Time>2019-04-07T12:03:59.000Z</Time>
            <Position>
              <LatitudeDegrees>28.2588060200214385986328125</LatitudeDegrees>
              <LongitudeDegrees>-16.60575239919126033782958984375</LongitudeDegrees>
            </Position>
            <AltitudeMeters>2450.800048828125</AltitudeMeters>
            <DistanceMeters>759.29644818824</DistanceMeters>
          </Trackpoint>
          <Trackpoint>
            <Time>2019-04-07T12:04:06.000Z</Time>
            <Position>
              <LatitudeDegrees>28.25880208052694797515869140625</LatitudeDegrees>
              <LongitudeDegrees>-16.60574183799326419830322265625</LongitudeDegrees>
            </Position>
            <AltitudeMeters>2450.39990234375</AltitudeMeters>
            <DistanceMeters>760.42482790207</DistanceMeters>
          </Trackpoint>
          <Trackpoint>
            <Time>2019-04-07T12:04:08.000Z</Time>
            <Position>
              <LatitudeDegrees>28.25880275107920169830322265625</LatitudeDegrees>
              <LongitudeDegrees>-16.6057207994163036346435546875</LongitudeDegrees>
            </Position>
            <AltitudeMeters>2450.39990234375</AltitudeMeters>
            <DistanceMeters>762.48714844096</DistanceMeters>
          </Trackpoint>
          <Trackpoint>
            <Time>2019-04-07T12:04:10.000Z</Time>
            <Position>
              <LatitudeDegrees>28.2587954588234424591064453125</LatitudeDegrees>
              <LongitudeDegrees>-16.60570378415286540985107421875</LongitudeDegrees>
            </Position>
            <AltitudeMeters>2450</AltitudeMeters>
            <DistanceMeters>764.34199590777</DistanceMeters>
          </Trackpoint>
          <Trackpoint>
            <Time>2019-04-07T12:04:13.000Z</Time>
            <Position>
              <LatitudeDegrees>28.25877207331359386444091796875</LatitudeDegrees>
              <LongitudeDegrees>-16.605662293732166290283203125</LongitudeDegrees>
            </Position>
            <AltitudeMeters>2449.39990234375</AltitudeMeters>
            <DistanceMeters>769.17062484136</DistanceMeters>
          </Trackpoint>
          <Trackpoint>
            <Time>2019-04-07T12:04:16.000Z</Time>
            <Position>
              <LatitudeDegrees>28.25875413604080677032470703125</LatitudeDegrees>
              <LongitudeDegrees>-16.60561879165470600128173828125</LongitudeDegrees>
            </Position>
            <AltitudeMeters>2449.199951171875</AltitudeMeters>
            <DistanceMeters>773.8790043577</DistanceMeters>
          </Trackpoint>
          <Trackpoint>
            <Time>2019-04-07T12:04:19.000Z</Time>
            <Position>
              <LatitudeDegrees>28.2587418146431446075439453125</LatitudeDegrees>
              <LongitudeDegrees>-16.60557755269110202789306640625</LongitudeDegrees>
            </Position>
            <AltitudeMeters>2449</AltitudeMeters>
            <DistanceMeters>778.14886669042</DistanceMeters>
          </Trackpoint>
          <Trackpoint>
            <Time>2019-04-07T12:04:25.000Z</Time>
            <Position>
              <LatitudeDegrees>28.25870384462177753448486328125</LatitudeDegrees>
              <LongitudeDegrees>-16.60551108419895172119140625</LongitudeDegrees>
            </Position>
            <AltitudeMeters>2449.800048828125</AltitudeMeters>
            <DistanceMeters>785.91552045157</DistanceMeters>
          </Trackpoint>
          <Trackpoint>
            <Time>2019-04-07T12:04:30.000Z</Time>
            <Position>
              <LatitudeDegrees>28.25869009830057621002197265625</LatitudeDegrees>
              <LongitudeDegrees>-16.6054485552012920379638671875</LongitudeDegrees>
            </Position>
            <AltitudeMeters>2450.39990234375</AltitudeMeters>
            <DistanceMeters>792.23461833301</DistanceMeters>
          </Trackpoint>
          <Trackpoint>
            <Time>2019-04-07T12:04:31.000Z</Time>
            <Position>
              <LatitudeDegrees>28.2586868293583393096923828125</LatitudeDegrees>
              <LongitudeDegrees>-16.6054361499845981597900390625</LongitudeDegrees>
            </Position>
            <AltitudeMeters>2450.39990234375</AltitudeMeters>
            <DistanceMeters>793.50598912214</DistanceMeters>
          </Trackpoint>
          <Trackpoint>
            <Time>2019-04-07T12:04:35.000Z</Time>
            <Position>
              <LatitudeDegrees>28.25867551378905773162841796875</LatitudeDegrees>
              <LongitudeDegrees>-16.6053818352520465850830078125</LongitudeDegrees>
            </Position>
            <AltitudeMeters>2450.60009765625</AltitudeMeters>
            <DistanceMeters>798.9789009216</DistanceMeters>
          </Trackpoint>
          <Trackpoint>
            <Time>2019-04-07T12:04:37.000Z</Time>
            <Position>
              <LatitudeDegrees>28.25868138112127780914306640625</LatitudeDegrees>
              <LongitudeDegrees>-16.60535928793251514434814453125</LongitudeDegrees>
            </Position>
            <AltitudeMeters>2450.800048828125</AltitudeMeters>
            <DistanceMeters>801.28317628471</DistanceMeters>
          </Trackpoint>
          <Trackpoint>
            <Time>2019-04-07T12:04:42.000Z</Time>
            <Position>
              <LatitudeDegrees>28.25864014215767383575439453125</LatitudeDegrees>
              <LongitudeDegrees>-16.60531796514987945556640625</LongitudeDegrees>
            </Position>
            <AltitudeMeters>2450.199951171875</AltitudeMeters>
            <DistanceMeters>807.40631905581</DistanceMeters>
          </Trackpoint>
          <Trackpoint>
            <Time>2019-04-07T12:04:47.000Z</Time>
            <Position>
              <LatitudeDegrees>28.25859186239540576934814453125</LatitudeDegrees>
              <LongitudeDegrees>-16.60528217442333698272705078125</LongitudeDegrees>
            </Position>
            <AltitudeMeters>2449.39990234375</AltitudeMeters>
            <DistanceMeters>813.82396493735</DistanceMeters>
          </Trackpoint>
          <Trackpoint>
            <Time>2019-04-07T12:04:48.000Z</Time>
            <Position>
              <LatitudeDegrees>28.2585882581770420074462890625</LatitudeDegrees>
              <LongitudeDegrees>-16.60526893101632595062255859375</LongitudeDegrees>
            </Position>
            <AltitudeMeters>2449.39990234375</AltitudeMeters>
            <DistanceMeters>815.1812178963</DistanceMeters>
          </Trackpoint>
          <Trackpoint>
            <Time>2019-04-07T12:04:52.000Z</Time>
            <Position>
              <LatitudeDegrees>28.25860812328755855560302734375</LatitudeDegrees>
              <LongitudeDegrees>-16.6052209027111530303955078125</LongitudeDegrees>
            </Position>
            <AltitudeMeters>2448.60009765625</AltitudeMeters>
            <DistanceMeters>820.38431016715</DistanceMeters>
          </Trackpoint>
          <Trackpoint>
            <Time>2019-04-07T12:04:53.000Z</Time>
            <Position>
              <LatitudeDegrees>28.2586127333343029022216796875</LatitudeDegrees>
              <LongitudeDegrees>-16.60521059297025203704833984375</LongitudeDegrees>
            </Position>
            <AltitudeMeters>2448.60009765625</AltitudeMeters>
            <DistanceMeters>821.52066439514</DistanceMeters>
          </Trackpoint>
          <Trackpoint>
            <Time>2019-04-07T12:04:57.000Z</Time>
            <Position>
              <LatitudeDegrees>28.2585996575653553009033203125</LatitudeDegrees>
              <LongitudeDegrees>-16.60516331903636455535888671875</LongitudeDegrees>
            </Position>
            <AltitudeMeters>2448.199951171875</AltitudeMeters>
            <DistanceMeters>826.37912298038</DistanceMeters>
          </Trackpoint>
          <Trackpoint>
            <Time>2019-04-07T12:04:58.000Z</Time>
            <Position>
              <LatitudeDegrees>28.25859135948121547698974609375</LatitudeDegrees>
              <LongitudeDegrees>-16.6051550209522247314453125</LongitudeDegrees>
            </Position>
            <AltitudeMeters>2448.199951171875</AltitudeMeters>
            <DistanceMeters>827.61080997089</DistanceMeters>
          </Trackpoint>
          <Trackpoint>
            <Time>2019-04-07T12:05:02.000Z</Time>
            <Position>
              <LatitudeDegrees>28.25858985073864459991455078125</LatitudeDegrees>
              <LongitudeDegrees>-16.60510129295289516448974609375</LongitudeDegrees>
            </Position>
            <AltitudeMeters>2447.39990234375</AltitudeMeters>
            <DistanceMeters>832.88115295229</DistanceMeters>
          </Trackpoint>
          <Trackpoint>
            <Time>2019-04-07T12:05:03.000Z</Time>
            <Position>
              <LatitudeDegrees>28.25859555043280124664306640625</LatitudeDegrees>
              <LongitudeDegrees>-16.6050871275365352630615234375</LongitudeDegrees>
            </Position>
            <AltitudeMeters>2447.199951171875</AltitudeMeters>
            <DistanceMeters>834.4045470727</DistanceMeters>
          </Trackpoint>
          <Trackpoint>
            <Time>2019-04-07T12:05:05.000Z</Time>
            <Position>
              <LatitudeDegrees>28.2585989870131015777587890625</LatitudeDegrees>
              <LongitudeDegrees>-16.60505955107510089874267578125</LongitudeDegrees>
            </Position>
            <AltitudeMeters>2447</AltitudeMeters>
            <DistanceMeters>837.13232693732</DistanceMeters>
          </Trackpoint>
          <Trackpoint>
            <Time>2019-04-07T12:05:08.000Z</Time>
            <Position>
              <LatitudeDegrees>28.25858582742512226104736328125</LatitudeDegrees>
              <LongitudeDegrees>-16.60501663573086261749267578125</LongitudeDegrees>
            </Position>
            <AltitudeMeters>2446.800048828125</AltitudeMeters>
            <DistanceMeters>841.58744848716</DistanceMeters>
          </Trackpoint>
          <Trackpoint>
            <Time>2019-04-07T12:05:09.000Z</Time>
            <Position>
              <LatitudeDegrees>28.25858649797737598419189453125</LatitudeDegrees>
              <LongitudeDegrees>-16.605002470314502716064453125</LongitudeDegrees>
            </Position>
            <AltitudeMeters>2446.60009765625</AltitudeMeters>
            <DistanceMeters>842.97431772489</DistanceMeters>
          </Trackpoint>
          <Trackpoint>
            <Time>2019-04-07T12:05:13.000Z</Time>
            <Position>
              <LatitudeDegrees>28.25861893594264984130859375</LatitudeDegrees>
              <LongitudeDegrees>-16.6049533523619174957275390625</LongitudeDegrees>
            </Position>
            <AltitudeMeters>2446.199951171875</AltitudeMeters>
            <DistanceMeters>848.99259294431</DistanceMeters>
          </Trackpoint>
          <Trackpoint>
            <Time>2019-04-07T12:05:19.000Z</Time>
            <Position>
              <LatitudeDegrees>28.25859655626118183135986328125</LatitudeDegrees>
              <LongitudeDegrees>-16.60488554276525974273681640625</LongitudeDegrees>
            </Position>
            <AltitudeMeters>2446.199951171875</AltitudeMeters>
            <DistanceMeters>856.09103126251</DistanceMeters>
          </Trackpoint>
          <Trackpoint>
            <Time>2019-04-07T12:05:22.000Z</Time>
            <Position>
              <LatitudeDegrees>28.25859010219573974609375</LatitudeDegrees>
              <LongitudeDegrees>-16.6048474051058292388916015625</LongitudeDegrees>
            </Position>
            <AltitudeMeters>2446</AltitudeMeters>
            <DistanceMeters>859.89803437421</DistanceMeters>
          </Trackpoint>
          <Trackpoint>
            <Time>2019-04-07T12:05:25.000Z</Time>
            <Position>
              <LatitudeDegrees>28.258584402501583099365234375</LatitudeDegrees>
              <LongitudeDegrees>-16.604820080101490020751953125</LongitudeDegrees>
            </Position>
            <AltitudeMeters>2445.199951171875</AltitudeMeters>
            <DistanceMeters>862.65053035722</DistanceMeters>
          </Trackpoint>
          <Trackpoint>
            <Time>2019-04-07T12:05:27.000Z</Time>
            <Position>
              <LatitudeDegrees>28.25859052129089832305908203125</LatitudeDegrees>
              <LongitudeDegrees>-16.6048051603138446807861328125</LongitudeDegrees>
            </Position>
            <AltitudeMeters>2445</AltitudeMeters>
            <DistanceMeters>864.26318717622</DistanceMeters>
          </Trackpoint>
          <Trackpoint>
            <Time>2019-04-07T12:05:33.000Z</Time>
            <Position>
              <LatitudeDegrees>28.2585922814905643463134765625</LatitudeDegrees>
              <LongitudeDegrees>-16.6047957725822925567626953125</LongitudeDegrees>
            </Position>
            <AltitudeMeters>2444.199951171875</AltitudeMeters>
            <DistanceMeters>865.20390365397</DistanceMeters>
          </Trackpoint>
          <Trackpoint>
            <Time>2019-04-07T12:05:45.000Z</Time>
            <Position>
              <LatitudeDegrees>28.25860527344048023223876953125</LatitudeDegrees>
              <LongitudeDegrees>-16.60478479228913784027099609375</LongitudeDegrees>
            </Position>
            <AltitudeMeters>2443.60009765625</AltitudeMeters>
            <DistanceMeters>867.00440287457</DistanceMeters>
          </Trackpoint>
          <Trackpoint>
            <Time>2019-04-07T12:05:46.000Z</Time>
            <Position>
              <LatitudeDegrees>28.25860820710659027099609375</LatitudeDegrees>
              <LongitudeDegrees>-16.60478160716593265533447265625</LongitudeDegrees>
            </Position>
            <AltitudeMeters>2443.60009765625</AltitudeMeters>
            <DistanceMeters>867.46993679885</DistanceMeters>
          </Trackpoint>
          <Trackpoint>
            <Time>2019-04-07T12:05:48.000Z</Time>
            <Position>
              <LatitudeDegrees>28.25862019322812557220458984375</LatitudeDegrees>
              <LongitudeDegrees>-16.6047661006450653076171875</LongitudeDegrees>
            </Position>
            <AltitudeMeters>2443.39990234375</AltitudeMeters>
            <DistanceMeters>869.49246606418</DistanceMeters>
          </Trackpoint>
          <Trackpoint>
            <Time>2019-04-07T12:05:55.000Z</Time>
            <Position>
              <LatitudeDegrees>28.25862254016101360321044921875</LatitudeDegrees>
              <LongitudeDegrees>-16.604715473949909210205078125</LongitudeDegrees>
            </Position>
            <AltitudeMeters>2443</AltitudeMeters>
            <DistanceMeters>874.46209976036</DistanceMeters>
          </Trackpoint>
          <Trackpoint>
            <Time>2019-04-07T12:06:03.000Z</Time>
            <Position>
              <LatitudeDegrees>28.25862832367420196533203125</LatitudeDegrees>
              <LongitudeDegrees>-16.60470533184707164764404296875</LongitudeDegrees>
            </Position>
            <AltitudeMeters>2443.199951171875</AltitudeMeters>
            <DistanceMeters>875.64135027334</DistanceMeters>
          </Trackpoint>
          <Trackpoint>
            <Time>2019-04-07T12:06:28.000Z</Time>
            <Position>
              <LatitudeDegrees>28.25862924568355083465576171875</LatitudeDegrees>
              <LongitudeDegrees>-16.60469862632453441619873046875</LongitudeDegrees>
            </Position>
            <AltitudeMeters>2443.39990234375</AltitudeMeters>
            <DistanceMeters>876.31329061459</DistanceMeters>
          </Trackpoint>
          <Trackpoint>
            <Time>2019-04-07T12:06:35.000Z</Time>
            <Position>
              <LatitudeDegrees>28.25862639583647251129150390625</LatitudeDegrees>
              <LongitudeDegrees>-16.60462989471852779388427734375</LongitudeDegrees>
            </Position>
            <AltitudeMeters>2444.60009765625</AltitudeMeters>
            <DistanceMeters>883.05884879765</DistanceMeters>
          </Trackpoint>
          <Trackpoint>
            <Time>2019-04-07T12:06:36.000Z</Time>
            <Position>
              <LatitudeDegrees>28.25862941332161426544189453125</LatitudeDegrees>
              <LongitudeDegrees>-16.6046200878918170928955078125</LongitudeDegrees>
            </Position>
            <AltitudeMeters>2444.800048828125</AltitudeMeters>
            <DistanceMeters>884.07345646301</DistanceMeters>
          </Trackpoint>
          <Trackpoint>
            <Time>2019-04-07T12:06:39.000Z</Time>
            <Position>
              <LatitudeDegrees>28.258648775517940521240234375</LatitudeDegrees>
              <LongitudeDegrees>-16.6045998036861419677734375</LongitudeDegrees>
            </Position>
            <AltitudeMeters>2445.39990234375</AltitudeMeters>
            <DistanceMeters>887.00545795937</DistanceMeters>
          </Trackpoint>
          <Trackpoint>
            <Time>2019-04-07T12:06:42.000Z</Time>
            <Position>
              <LatitudeDegrees>28.25867392122745513916015625</LatitudeDegrees>
              <LongitudeDegrees>-16.604580692946910858154296875</LongitudeDegrees>
            </Position>
            <AltitudeMeters>2445.39990234375</AltitudeMeters>
            <DistanceMeters>890.37321329692</DistanceMeters>
          </Trackpoint>
          <Trackpoint>
            <Time>2019-04-07T12:06:50.000Z</Time>
            <Position>
              <LatitudeDegrees>28.25872714631259441375732421875</LatitudeDegrees>
              <LongitudeDegrees>-16.60449712537229061126708984375</LongitudeDegrees>
            </Position>
            <AltitudeMeters>2444.60009765625</AltitudeMeters>
            <DistanceMeters>900.48362700486</DistanceMeters>
          </Trackpoint>
          <Trackpoint>
            <Time>2019-04-07T12:06:54.000Z</Time>
            <Position>
              <LatitudeDegrees>28.25874692760407924652099609375</LatitudeDegrees>
              <LongitudeDegrees>-16.604458987712860107421875</LongitudeDegrees>
            </Position>
            <AltitudeMeters>2444</AltitudeMeters>
            <DistanceMeters>904.82271785268</DistanceMeters>
          </Trackpoint>
          <Trackpoint>
            <Time>2019-04-07T12:06:56.000Z</Time>
            <Position>
              <LatitudeDegrees>28.258739300072193145751953125</LatitudeDegrees>
              <LongitudeDegrees>-16.60443526692688465118408203125</LongitudeDegrees>
            </Position>
            <AltitudeMeters>2444</AltitudeMeters>
            <DistanceMeters>907.29888866776</DistanceMeters>
          </Trackpoint>
          <Trackpoint>
            <Time>2019-04-07T12:07:00.000Z</Time>
            <Position>
              <LatitudeDegrees>28.25871675275266170501708984375</LatitudeDegrees>
              <LongitudeDegrees>-16.60438723862171173095703125</LongitudeDegrees>
            </Position>
            <AltitudeMeters>2443.39990234375</AltitudeMeters>
            <DistanceMeters>912.63478887557</DistanceMeters>
          </Trackpoint>
          <Trackpoint>
            <Time>2019-04-07T12:07:01.000Z</Time>
            <Position>
              <LatitudeDegrees>28.25871507637202739715576171875</LatitudeDegrees>
              <LongitudeDegrees>-16.604374162852764129638671875</LongitudeDegrees>
            </Position>
            <AltitudeMeters>2443</AltitudeMeters>
            <DistanceMeters>913.93078047222</DistanceMeters>
          </Trackpoint>
          <Trackpoint>
            <Time>2019-04-07T12:07:04.000Z</Time>
            <Position>
              <LatitudeDegrees>28.25871809385716915130615234375</LatitudeDegrees>
              <LongitudeDegrees>-16.6043354384601116180419921875</LongitudeDegrees>
            </Position>
            <AltitudeMeters>2443.199951171875</AltitudeMeters>
            <DistanceMeters>917.74252456099</DistanceMeters>
          </Trackpoint>
          <Trackpoint>
            <Time>2019-04-07T12:07:11.000Z</Time>
            <Position>
              <LatitudeDegrees>28.25874273665249347686767578125</LatitudeDegrees>
              <LongitudeDegrees>-16.604260168969631195068359375</LongitudeDegrees>
            </Position>
            <AltitudeMeters>2444</AltitudeMeters>
            <DistanceMeters>925.61484408162</DistanceMeters>
          </Trackpoint>
          <Trackpoint>
            <Time>2019-04-07T12:07:15.000Z</Time>
            <Position>
              <LatitudeDegrees>28.25875866226851940155029296875</LatitudeDegrees>
              <LongitudeDegrees>-16.60420744679868221282958984375</LongitudeDegrees>
            </Position>
            <AltitudeMeters>2443.800048828125</AltitudeMeters>
            <DistanceMeters>931.07867357418</DistanceMeters>
          </Trackpoint>
          <Trackpoint>
            <Time>2019-04-07T12:07:17.000Z</Time>
            <Position>
              <LatitudeDegrees>28.25874709524214267730712890625</LatitudeDegrees>
              <LongitudeDegrees>-16.60418448038399219512939453125</LongitudeDegrees>
            </Position>
            <AltitudeMeters>2443.39990234375</AltitudeMeters>
            <DistanceMeters>933.67239810673</DistanceMeters>
          </Trackpoint>
          <Trackpoint>
            <Time>2019-04-07T12:07:22.000Z</Time>
            <Position>
              <LatitudeDegrees>28.2587515376508235931396484375</LatitudeDegrees>
              <LongitudeDegrees>-16.60411977209150791168212890625</LongitudeDegrees>
            </Position>
            <AltitudeMeters>2442.800048828125</AltitudeMeters>
            <DistanceMeters>940.03493161927</DistanceMeters>
          </Trackpoint>
          <Trackpoint>
            <Time>2019-04-07T12:07:28.000Z</Time>
            <Position>
              <LatitudeDegrees>28.258767463266849517822265625</LatitudeDegrees>
              <LongitudeDegrees>-16.60404793918132781982421875</LongitudeDegrees>
            </Position>
            <AltitudeMeters>2442.39990234375</AltitudeMeters>
            <DistanceMeters>947.29686293489</DistanceMeters>
          </Trackpoint>
          <Trackpoint>
            <Time>2019-04-07T12:07:34.000Z</Time>
            <Position>
              <LatitudeDegrees>28.258788585662841796875</LatitudeDegrees>
              <LongitudeDegrees>-16.60396889783442020416259765625</LongitudeDegrees>
            </Position>
            <AltitudeMeters>2442.39990234375</AltitudeMeters>
            <DistanceMeters>955.39478952976</DistanceMeters>
          </Trackpoint>
          <Trackpoint>
            <Time>2019-04-07T12:07:36.000Z</Time>
            <Position>
              <LatitudeDegrees>28.25879327952861785888671875</LatitudeDegrees>
              <LongitudeDegrees>-16.60394308157265186309814453125</LongitudeDegrees>
            </Position>
            <AltitudeMeters>2442.199951171875</AltitudeMeters>
            <DistanceMeters>957.97804841963</DistanceMeters>
          </Trackpoint>
          <Trackpoint>
            <Time>2019-04-07T12:07:38.000Z</Time>
            <Position>
              <LatitudeDegrees>28.2588132284581661224365234375</LatitudeDegrees>
              <LongitudeDegrees>-16.6039357893168926239013671875</LongitudeDegrees>
            </Position>
            <AltitudeMeters>2442</AltitudeMeters>
            <DistanceMeters>960.31346405119</DistanceMeters>
          </Trackpoint>
          <Trackpoint>
            <Time>2019-04-07T12:07:39.000Z</Time>
            <Position>
              <LatitudeDegrees>28.25882521457970142364501953125</LatitudeDegrees>
              <LongitudeDegrees>-16.60393654368817806243896484375</LongitudeDegrees>
            </Position>
            <AltitudeMeters>2442.199951171875</AltitudeMeters>
            <DistanceMeters>961.65060844725</DistanceMeters>
          </Trackpoint>
          <Trackpoint>
            <Time>2019-04-07T12:07:45.000Z</Time>
            <Position>
              <LatitudeDegrees>28.258875422179698944091796875</LatitudeDegrees>
              <LongitudeDegrees>-16.60393788479268550872802734375</LongitudeDegrees>
            </Position>
            <AltitudeMeters>2443.199951171875</AltitudeMeters>
            <DistanceMeters>967.24024747818</DistanceMeters>
          </Trackpoint>
          <Trackpoint>
            <Time>2019-04-07T12:07:46.000Z</Time>
            <Position>
              <LatitudeDegrees>28.258883468806743621826171875</LatitudeDegrees>
              <LongitudeDegrees>-16.60394006408751010894775390625</LongitudeDegrees>
            </Position>
            <AltitudeMeters>2443.39990234375</AltitudeMeters>
            <DistanceMeters>968.16156565651</DistanceMeters>
          </Trackpoint>
          <Trackpoint>
            <Time>2019-04-07T12:07:50.000Z</Time>
            <Position>
              <LatitudeDegrees>28.2589211873710155487060546875</LatitudeDegrees>
              <LongitudeDegrees>-16.603953726589679718017578125</LongitudeDegrees>
            </Position>
            <AltitudeMeters>2444.199951171875</AltitudeMeters>
            <DistanceMeters>972.56879771654</DistanceMeters>
          </Trackpoint>
          <Trackpoint>
            <Time>2019-04-07T12:07:53.000Z</Time>
            <Position>
              <LatitudeDegrees>28.25894390232861042022705078125</LatitudeDegrees>
              <LongitudeDegrees>-16.60395632497966289520263671875</LongitudeDegrees>
            </Position>
            <AltitudeMeters>2444.60009765625</AltitudeMeters>
            <DistanceMeters>975.10976301686</DistanceMeters>
          </Trackpoint>
          <Trackpoint>
            <Time>2019-04-07T12:07:56.000Z</Time>
            <Position>
              <LatitudeDegrees>28.2589709758758544921875</LatitudeDegrees>
              <LongitudeDegrees>-16.6039602644741535186767578125</LongitudeDegrees>
            </Position>
            <AltitudeMeters>2445.39990234375</AltitudeMeters>
            <DistanceMeters>978.14764684047</DistanceMeters>
          </Trackpoint>
          <Trackpoint>
            <Time>2019-04-07T12:08:00.000Z</Time>
            <Position>
              <LatitudeDegrees>28.25900291092693805694580078125</LatitudeDegrees>
              <LongitudeDegrees>-16.6039669699966907501220703125</LongitudeDegrees>
            </Position>
            <AltitudeMeters>2446</AltitudeMeters>
            <DistanceMeters>981.76365993376</DistanceMeters>
          </Trackpoint>
          <Trackpoint>
            <Time>2019-04-07T12:08:02.000Z</Time>
            <Position>
              <LatitudeDegrees>28.25901397503912448883056640625</LatitudeDegrees>
              <LongitudeDegrees>-16.60396479070186614990234375</LongitudeDegrees>
            </Position>
            <AltitudeMeters>2446.39990234375</AltitudeMeters>
            <DistanceMeters>983.01354121804</DistanceMeters>
          </Trackpoint>
          <Trackpoint>
            <Time>2019-04-07T12:08:06.000Z</Time>
            <Position>
              <LatitudeDegrees>28.2590365223586559295654296875</LatitudeDegrees>
              <LongitudeDegrees>-16.60394878126680850982666015625</LongitudeDegrees>
            </Position>
            <AltitudeMeters>2447</AltitudeMeters>
            <DistanceMeters>985.97313141782</DistanceMeters>
          </Trackpoint>
          <Trackpoint>
            <Time>2019-04-07T12:08:09.000Z</Time>
            <Position>
              <LatitudeDegrees>28.2590506039559841156005859375</LatitudeDegrees>
              <LongitudeDegrees>-16.60393587313592433929443359375</LongitudeDegrees>
            </Position>
            <AltitudeMeters>2447.199951171875</AltitudeMeters>
            <DistanceMeters>987.98895244157</DistanceMeters>
          </Trackpoint>
          <Trackpoint>
            <Time>2019-04-07T12:08:13.000Z</Time>
            <Position>
              <LatitudeDegrees>28.2590314932167530059814453125</LatitudeDegrees>
              <LongitudeDegrees>-16.6039126552641391754150390625</LongitudeDegrees>
            </Position>
            <AltitudeMeters>2447.60009765625</AltitudeMeters>
            <DistanceMeters>991.10461162981</DistanceMeters>
          </Trackpoint>
          <Trackpoint>
            <Time>2019-04-07T12:08:21.000Z</Time>
            <Position>
              <LatitudeDegrees>28.25898983515799045562744140625</LatitudeDegrees>
              <LongitudeDegrees>-16.60385674796998500823974609375</LongitudeDegrees>
            </Position>
            <AltitudeMeters>2448.199951171875</AltitudeMeters>
            <DistanceMeters>998.28400410704</DistanceMeters>
          </Trackpoint>
          <Trackpoint>
            <Time>2019-04-07T12:08:22.000Z</Time>
            <Position>
              <LatitudeDegrees>28.2589848898351192474365234375</LatitudeDegrees>
              <LongitudeDegrees>-16.60384736023843288421630859375</LongitudeDegrees>
            </Position>
            <AltitudeMeters>2448.39990234375</AltitudeMeters>
            <DistanceMeters>999.35490079131</DistanceMeters>
          </Trackpoint>
          <Trackpoint>
            <Time>2019-04-07T12:08:27.000Z</Time>
            <Position>
              <LatitudeDegrees>28.2589620910584926605224609375</LatitudeDegrees>
              <LongitudeDegrees>-16.6038085520267486572265625</LongitudeDegrees>
            </Position>
            <AltitudeMeters>2449.39990234375</AltitudeMeters>
            <DistanceMeters>1003.9280459939</DistanceMeters>
          </Trackpoint>
          <Trackpoint>
            <Time>2019-04-07T12:08:29.000Z</Time>
            <Position>
              <LatitudeDegrees>28.258953876793384552001953125</LatitudeDegrees>
              <LongitudeDegrees>-16.60379237495362758636474609375</LongitudeDegrees>
            </Position>
            <AltitudeMeters>2450</AltitudeMeters>
            <DistanceMeters>1005.7608548866</DistanceMeters>
          </Trackpoint>
          <Trackpoint>
            <Time>2019-04-07T12:08:31.000Z</Time>
            <Position>
              <LatitudeDegrees>28.2589486800134181976318359375</LatitudeDegrees>
              <LongitudeDegrees>-16.60377359949052333831787109375</LongitudeDegrees>
            </Position>
            <AltitudeMeters>2450.60009765625</AltitudeMeters>
            <DistanceMeters>1007.6943624888</DistanceMeters>
          </Trackpoint>
          <Trackpoint>
            <Time>2019-04-07T12:08:36.000Z</Time>
            <Position>
              <LatitudeDegrees>28.25893015600740909576416015625</LatitudeDegrees>
              <LongitudeDegrees>-16.603737808763980865478515625</LongitudeDegrees>
            </Position>
            <AltitudeMeters>2451.60009765625</AltitudeMeters>
            <DistanceMeters>1011.7639030278</DistanceMeters>
          </Trackpoint>
          <Trackpoint>
            <Time>2019-04-07T12:08:37.000Z</Time>
            <Position>
              <LatitudeDegrees>28.25892965309321880340576171875</LatitudeDegrees>
              <LongitudeDegrees>-16.6037299297749996185302734375</LongitudeDegrees>
            </Position>
            <AltitudeMeters>2452</AltitudeMeters>
            <DistanceMeters>1012.5417302077</DistanceMeters>
          </Trackpoint>
          <Trackpoint>
            <Time>2019-04-07T12:08:41.000Z</Time>
            <Position>
              <LatitudeDegrees>28.25893543660640716552734375</LatitudeDegrees>
              <LongitudeDegrees>-16.60368827171623706817626953125</LongitudeDegrees>
            </Position>
            <AltitudeMeters>2452.60009765625</AltitudeMeters>
            <DistanceMeters>1016.6762113974</DistanceMeters>
          </Trackpoint>
          <Trackpoint>
            <Time>2019-04-07T12:08:43.000Z</Time>
            <Position>
              <LatitudeDegrees>28.2589490152895450592041015625</LatitudeDegrees>
              <LongitudeDegrees>-16.60367310047149658203125</LongitudeDegrees>
            </Position>
            <AltitudeMeters>2453.199951171875</AltitudeMeters>
            <DistanceMeters>1018.7989474021</DistanceMeters>
          </Trackpoint>
          <Trackpoint>
            <Time>2019-04-07T12:08:46.000Z</Time>
            <Position>
              <LatitudeDegrees>28.25896787457168102264404296875</LatitudeDegrees>
              <LongitudeDegrees>-16.6036524809896945953369140625</LongitudeDegrees>
            </Position>
            <AltitudeMeters>2453.800048828125</AltitudeMeters>
            <DistanceMeters>1021.7139605982</DistanceMeters>
          </Trackpoint>
          <Trackpoint>
            <Time>2019-04-07T12:08:50.000Z</Time>
            <Position>
              <LatitudeDegrees>28.25899167917668819427490234375</LatitudeDegrees>
              <LongitudeDegrees>-16.6036213003098964691162109375</LongitudeDegrees>
            </Position>
            <AltitudeMeters>2454.60009765625</AltitudeMeters>
            <DistanceMeters>1025.7590191289</DistanceMeters>
          </Trackpoint>
          <Trackpoint>
            <Time>2019-04-07T12:08:54.000Z</Time>
            <Position>
              <LatitudeDegrees>28.25900358147919178009033203125</LatitudeDegrees>
              <LongitudeDegrees>-16.6035777144134044647216796875</LongitudeDegrees>
            </Position>
            <AltitudeMeters>2454.60009765625</AltitudeMeters>
            <DistanceMeters>1030.2323455645</DistanceMeters>
          </Trackpoint>
          <Trackpoint>
            <Time>2019-04-07T12:08:57.000Z</Time>
            <Position>
              <LatitudeDegrees>28.2589929364621639251708984375</LatitudeDegrees>
              <LongitudeDegrees>-16.603542007505893707275390625</LongitudeDegrees>
            </Position>
            <AltitudeMeters>2454.60009765625</AltitudeMeters>
            <DistanceMeters>1033.9274065361</DistanceMeters>
          </Trackpoint>
          <Trackpoint>
            <Time>2019-04-07T12:09:01.000Z</Time>
            <Position>
              <LatitudeDegrees>28.25899402610957622528076171875</LatitudeDegrees>
              <LongitudeDegrees>-16.60349071025848388671875</LongitudeDegrees>
            </Position>
            <AltitudeMeters>2455</AltitudeMeters>
            <DistanceMeters>1038.9575431342</DistanceMeters>
          </Trackpoint>
          <Trackpoint>
            <Time>2019-04-07T12:09:03.000Z</Time>
            <Position>
              <LatitudeDegrees>28.2590076886117458343505859375</LatitudeDegrees>
              <LongitudeDegrees>-16.60347252152860164642333984375</LongitudeDegrees>
            </Position>
            <AltitudeMeters>2455.199951171875</AltitudeMeters>
            <DistanceMeters>1041.3006791691</DistanceMeters>
          </Trackpoint>
          <Trackpoint>
            <Time>2019-04-07T12:09:04.000Z</Time>
            <Position>
              <LatitudeDegrees>28.25901565141975879669189453125</LatitudeDegrees>
              <LongitudeDegrees>-16.6034660674631595611572265625</LongitudeDegrees>
            </Position>
            <AltitudeMeters>2455.199951171875</AltitudeMeters>
            <DistanceMeters>1042.3883096275</DistanceMeters>
          </Trackpoint>
          <Trackpoint>
            <Time>2019-04-07T12:09:11.000Z</Time>
            <Position>
              <LatitudeDegrees>28.25908103026449680328369140625</LatitudeDegrees>
              <LongitudeDegrees>-16.6034305281937122344970703125</LongitudeDegrees>
            </Position>
            <AltitudeMeters>2455.60009765625</AltitudeMeters>
            <DistanceMeters>1050.4560720811</DistanceMeters>
          </Trackpoint>
          <Trackpoint>
            <Time>2019-04-07T12:09:14.000Z</Time>
            <Position>
              <LatitudeDegrees>28.25911581516265869140625</LatitudeDegrees>
              <LongitudeDegrees>-16.6034197993576526641845703125</LongitudeDegrees>
            </Position>
            <AltitudeMeters>2455.199951171875</AltitudeMeters>
            <DistanceMeters>1054.4675052693</DistanceMeters>
          </Trackpoint>
          <Trackpoint>
            <Time>2019-04-07T12:09:18.000Z</Time>
            <Position>
              <LatitudeDegrees>28.25915940105915069580078125</LatitudeDegrees>
              <LongitudeDegrees>-16.6034332104027271270751953125</LongitudeDegrees>
            </Position>
            <AltitudeMeters>2455.199951171875</AltitudeMeters>
            <DistanceMeters>1059.494050195</DistanceMeters>
          </Trackpoint>
          <Trackpoint>
            <Time>2019-04-07T12:09:26.000Z</Time>
            <Position>
              <LatitudeDegrees>28.25923718512058258056640625</LatitudeDegrees>
              <LongitudeDegrees>-16.60345114767551422119140625</LongitudeDegrees>
            </Position>
            <AltitudeMeters>2456</AltitudeMeters>
            <DistanceMeters>1068.3279576333</DistanceMeters>
          </Trackpoint>
          <Trackpoint>
            <Time>2019-04-07T12:09:32.000Z</Time>
            <Position>
              <LatitudeDegrees>28.2592564634978771209716796875</LatitudeDegrees>
              <LongitudeDegrees>-16.60342155955731868743896484375</LongitudeDegrees>
            </Position>
            <AltitudeMeters>2455.39990234375</AltitudeMeters>
            <DistanceMeters>1071.9364712099</DistanceMeters>
          </Trackpoint>
          <Trackpoint>
            <Time>2019-04-07T12:09:36.000Z</Time>
            <Position>
              <LatitudeDegrees>28.25925864279270172119140625</LatitudeDegrees>
              <LongitudeDegrees>-16.60340378992259502410888671875</LongitudeDegrees>
            </Position>
            <AltitudeMeters>2455</AltitudeMeters>
            <DistanceMeters>1073.6963905888</DistanceMeters>
          </Trackpoint>
          <Trackpoint>
            <Time>2019-04-07T12:09:39.000Z</Time>
            <Position>
              <LatitudeDegrees>28.25925864279270172119140625</LatitudeDegrees>
              <LongitudeDegrees>-16.6034023649990558624267578125</LongitudeDegrees>
            </Position>
            <AltitudeMeters>2454.60009765625</AltitudeMeters>
            <DistanceMeters>1073.830778657</DistanceMeters>
          </Trackpoint>
          <Trackpoint>
            <Time>2019-04-07T12:09:45.000Z</Time>
            <Position>
              <LatitudeDegrees>28.25927599333226680755615234375</LatitudeDegrees>
              <LongitudeDegrees>-16.6033990122377872467041015625</LongitudeDegrees>
            </Position>
            <AltitudeMeters>2454</AltitudeMeters>
            <DistanceMeters>1075.7898045601</DistanceMeters>
          </Trackpoint>
          <Trackpoint>
            <Time>2019-04-07T12:09:46.000Z</Time>
            <Position>
              <LatitudeDegrees>28.25928286649286746978759765625</LatitudeDegrees>
              <LongitudeDegrees>-16.60339691676199436187744140625</LongitudeDegrees>
            </Position>
            <AltitudeMeters>2453.800048828125</AltitudeMeters>
            <DistanceMeters>1076.5791557333</DistanceMeters>
          </Trackpoint>
          <Trackpoint>
            <Time>2019-04-07T12:09:50.000Z</Time>
            <Position>
              <LatitudeDegrees>28.2593161426484584808349609375</LatitudeDegrees>
              <LongitudeDegrees>-16.603386104106903076171875</LongitudeDegrees>
            </Position>
            <AltitudeMeters>2453.199951171875</AltitudeMeters>
            <DistanceMeters>1080.4309625297</DistanceMeters>
          </Trackpoint>
          <Trackpoint>
            <Time>2019-04-07T12:09:52.000Z</Time>
            <Position>
              <LatitudeDegrees>28.2593298889696598052978515625</LatitudeDegrees>
              <LongitudeDegrees>-16.60338752903044223785400390625</LongitudeDegrees>
            </Position>
            <AltitudeMeters>2453</AltitudeMeters>
            <DistanceMeters>1081.9691042749</DistanceMeters>
          </Trackpoint>
          <Trackpoint>
            <Time>2019-04-07T12:09:53.000Z</Time>
            <Position>
              <LatitudeDegrees>28.25933651067316532135009765625</LatitudeDegrees>
              <LongitudeDegrees>-16.60339104942977428436279296875</LongitudeDegrees>
            </Position>
            <AltitudeMeters>2452.800048828125</AltitudeMeters>
            <DistanceMeters>1082.786554981</DistanceMeters>
          </Trackpoint>
          <Trackpoint>
            <Time>2019-04-07T12:09:58.000Z</Time>
            <Position>
              <LatitudeDegrees>28.2593456469476222991943359375</LatitudeDegrees>
              <LongitudeDegrees>-16.60339440219104290008544921875</LongitudeDegrees>
            </Position>
            <AltitudeMeters>2452.199951171875</AltitudeMeters>
            <DistanceMeters>1083.8574516653</DistanceMeters>
          </Trackpoint>
          <Trackpoint>
            <Time>2019-04-07T12:10:08.000Z</Time>
            <Position>
              <LatitudeDegrees>28.25938872992992401123046875</LatitudeDegrees>
              <LongitudeDegrees>-16.60339758731424808502197265625</LongitudeDegrees>
            </Position>
            <AltitudeMeters>2451.800048828125</AltitudeMeters>
            <DistanceMeters>1088.6635868635</DistanceMeters>
          </Trackpoint>
          <Trackpoint>
            <Time>2019-04-07T12:10:16.000Z</Time>
            <Position>
              <LatitudeDegrees>28.2594633288681507110595703125</LatitudeDegrees>
              <LongitudeDegrees>-16.60341384820640087127685546875</LongitudeDegrees>
            </Position>
            <AltitudeMeters>2452.199951171875</AltitudeMeters>
            <DistanceMeters>1097.1182947313</DistanceMeters>
          </Trackpoint>
          <Trackpoint>
            <Time>2019-04-07T12:10:23.000Z</Time>
            <Position>
              <LatitudeDegrees>28.25945670716464519500732421875</LatitudeDegrees>
              <LongitudeDegrees>-16.60342893563210964202880859375</LongitudeDegrees>
            </Position>
            <AltitudeMeters>2452.39990234375</AltitudeMeters>
            <DistanceMeters>1098.7696829613</DistanceMeters>
          </Trackpoint>
          <Trackpoint>
            <Time>2019-04-07T12:10:33.000Z</Time>
            <Position>
              <LatitudeDegrees>28.25943893752992153167724609375</LatitudeDegrees>
              <LongitudeDegrees>-16.6034392453730106353759765625</LongitudeDegrees>
            </Position>
            <AltitudeMeters>2452.60009765625</AltitudeMeters>
            <DistanceMeters>1100.9901382611</DistanceMeters>
          </Trackpoint>
          <Trackpoint>
            <Time>2019-04-07T12:10:41.000Z</Time>
            <Position>
              <LatitudeDegrees>28.25943625532090663909912109375</LatitudeDegrees>
              <LongitudeDegrees>-16.603446118533611297607421875</LongitudeDegrees>
            </Position>
            <AltitudeMeters>2452.60009765625</AltitudeMeters>
            <DistanceMeters>1101.7262120255</DistanceMeters>
          </Trackpoint>
          <Trackpoint>
            <Time>2019-04-07T12:10:51.000Z</Time>
            <Position>
              <LatitudeDegrees>28.259436003863811492919921875</LatitudeDegrees>
              <LongitudeDegrees>-16.6034211404621601104736328125</LongitudeDegrees>
            </Position>
            <AltitudeMeters>2452.199951171875</AltitudeMeters>
            <DistanceMeters>1104.1748791647</DistanceMeters>
          </Trackpoint>
          <Trackpoint>
            <Time>2019-04-07T12:11:04.000Z</Time>
            <Position>
              <LatitudeDegrees>28.2594344951212406158447265625</LatitudeDegrees>
              <LongitudeDegrees>-16.60343379713594913482666015625</LongitudeDegrees>
            </Position>
            <AltitudeMeters>2452.199951171875</AltitudeMeters>
            <DistanceMeters>1105.4283676175</DistanceMeters>
          </Trackpoint>
          <Trackpoint>
            <Time>2019-04-07T12:11:11.000Z</Time>
            <Position>
              <LatitudeDegrees>28.2594408653676509857177734375</LatitudeDegrees>
              <LongitudeDegrees>-16.6034472920000553131103515625</LongitudeDegrees>
            </Position>
            <AltitudeMeters>2452.39990234375</AltitudeMeters>
            <DistanceMeters>1106.9278638778</DistanceMeters>
          </Trackpoint>
          <Trackpoint>
            <Time>2019-04-07T12:11:22.000Z</Time>
            <Position>
              <LatitudeDegrees>28.259443379938602447509765625</LatitudeDegrees>
              <LongitudeDegrees>-16.603452153503894805908203125</LongitudeDegrees>
            </Position>
            <AltitudeMeters>2452.60009765625</AltitudeMeters>
            <DistanceMeters>1107.4737507916</DistanceMeters>
          </Trackpoint>
          <Trackpoint>
            <Time>2019-04-07T12:11:39.000Z</Time>
            <Position>
              <LatitudeDegrees>28.2594452239573001861572265625</LatitudeDegrees>
              <LongitudeDegrees>-16.60345307551324367523193359375</LongitudeDegrees>
            </Position>
            <AltitudeMeters>2452.60009765625</AltitudeMeters>
            <DistanceMeters>1107.7065177537</DistanceMeters>
          </Trackpoint>
          <Trackpoint>
            <Time>2019-04-07T12:11:48.000Z</Time>
            <Position>
              <LatitudeDegrees>28.25944296084344387054443359375</LatitudeDegrees>
              <LongitudeDegrees>-16.6034576855599880218505859375</LongitudeDegrees>
            </Position>
            <AltitudeMeters>2453</AltitudeMeters>
            <DistanceMeters>1108.2182522717</DistanceMeters>
          </Trackpoint>
          <Trackpoint>
            <Time>2019-04-07T12:12:00.000Z</Time>
            <Position>
              <LatitudeDegrees>28.2594720460474491119384765625</LatitudeDegrees>
              <LongitudeDegrees>-16.6034338809549808502197265625</LongitudeDegrees>
            </Position>
            <AltitudeMeters>2452.60009765625</AltitudeMeters>
            <DistanceMeters>1112.2093742752</DistanceMeters>
          </Trackpoint>
          <Trackpoint>
            <Time>2019-04-07T12:12:01.000Z</Time>
            <Position>
              <LatitudeDegrees>28.25948000885546207427978515625</LatitudeDegrees>
              <LongitudeDegrees>-16.60342658869922161102294921875</LongitudeDegrees>
            </Position>
            <AltitudeMeters>2452.60009765625</AltitudeMeters>
            <DistanceMeters>1113.3496948477</DistanceMeters>
          </Trackpoint>
          <Trackpoint>
            <Time>2019-04-07T12:12:06.000Z</Time>
            <Position>
              <LatitudeDegrees>28.259494341909885406494140625</LatitudeDegrees>
              <LongitudeDegrees>-16.60339616239070892333984375</LongitudeDegrees>
            </Position>
            <AltitudeMeters>2452.60009765625</AltitudeMeters>
            <DistanceMeters>1116.732165373</DistanceMeters>
          </Trackpoint>
          <Trackpoint>
            <Time>2019-04-07T12:12:21.000Z</Time>
            <Position>
              <LatitudeDegrees>28.25950448401272296905517578125</LatitudeDegrees>
              <LongitudeDegrees>-16.60339054651558399200439453125</LongitudeDegrees>
            </Position>
            <AltitudeMeters>2452.60009765625</AltitudeMeters>
            <DistanceMeters>1117.9856538257</DistanceMeters>
          </Trackpoint>
          <Trackpoint>
            <Time>2019-04-07T12:12:34.000Z</Time>
            <Position>
              <LatitudeDegrees>28.25949861668050289154052734375</LatitudeDegrees>
              <LongitudeDegrees>-16.6033953242003917694091796875</LongitudeDegrees>
            </Position>
            <AltitudeMeters>2453</AltitudeMeters>
            <DistanceMeters>1118.7863631535</DistanceMeters>
          </Trackpoint>
          <Trackpoint>
            <Time>2019-04-07T12:12:48.000Z</Time>
            <Position>
              <LatitudeDegrees>28.2594980299472808837890625</LatitudeDegrees>
              <LongitudeDegrees>-16.603395156562328338623046875</LongitudeDegrees>
            </Position>
            <AltitudeMeters>2452.60009765625</AltitudeMeters>
            <DistanceMeters>1118.9207512217</DistanceMeters>
          </Trackpoint>
          <Trackpoint>
            <Time>2019-04-07T12:13:07.000Z</Time>
            <Position>
              <LatitudeDegrees>28.259499035775661468505859375</LatitudeDegrees>
              <LongitudeDegrees>-16.60339121706783771514892578125</LongitudeDegrees>
            </Position>
            <AltitudeMeters>2452.800048828125</AltitudeMeters>
            <DistanceMeters>1119.3239154265</DistanceMeters>
          </Trackpoint>
          <Trackpoint>
            <Time>2019-04-07T12:13:18.000Z</Time>
            <Position>
              <LatitudeDegrees>28.2595075853168964385986328125</LatitudeDegrees>
              <LongitudeDegrees>-16.60339607857167720794677734375</LongitudeDegrees>
            </Position>
            <AltitudeMeters>2453</AltitudeMeters>
            <DistanceMeters>1120.3863463915</DistanceMeters>
          </Trackpoint>
          <Trackpoint>
            <Time>2019-04-07T12:13:20.000Z</Time>
            <Position>
              <LatitudeDegrees>28.2595168054103851318359375</LatitudeDegrees>
              <LongitudeDegrees>-16.60340018570423126220703125</LongitudeDegrees>
            </Position>
            <AltitudeMeters>2453.199951171875</AltitudeMeters>
            <DistanceMeters>1121.4863601385</DistanceMeters>
          </Trackpoint>
          <Trackpoint>
            <Time>2019-04-07T12:13:26.000Z</Time>
            <Position>
              <LatitudeDegrees>28.25952015817165374755859375</LatitudeDegrees>
              <LongitudeDegrees>-16.60339959897100925445556640625</LongitudeDegrees>
            </Position>
            <AltitudeMeters>2453.39990234375</AltitudeMeters>
            <DistanceMeters>1121.8543970207</DistanceMeters>
          </Trackpoint>
          <Trackpoint>
            <Time>2019-04-07T12:13:35.000Z</Time>
            <Position>
              <LatitudeDegrees>28.25952057726681232452392578125</LatitudeDegrees>
              <LongitudeDegrees>-16.603401862084865570068359375</LongitudeDegrees>
            </Position>
            <AltitudeMeters>2452.199951171875</AltitudeMeters>
            <DistanceMeters>1122.0871639828</DistanceMeters>
          </Trackpoint>
          <Trackpoint>
            <Time>2019-04-07T12:13:43.000Z</Time>
            <Position>
              <LatitudeDegrees>28.259523175656795501708984375</LatitudeDegrees>
              <LongitudeDegrees>-16.6034030355513095855712890625</LongitudeDegrees>
            </Position>
            <AltitudeMeters>2453.199951171875</AltitudeMeters>
            <DistanceMeters>1122.4163461775</DistanceMeters>
          </Trackpoint>
          <Trackpoint>
            <Time>2019-04-07T12:13:55.000Z</Time>
            <Position>
              <LatitudeDegrees>28.25951487757265567779541015625</LatitudeDegrees>
              <LongitudeDegrees>-16.60339909605681896209716796875</LongitudeDegrees>
            </Position>
            <AltitudeMeters>2453.199951171875</AltitudeMeters>
            <DistanceMeters>1123.412994766</DistanceMeters>
          </Trackpoint>
          <Trackpoint>
            <Time>2019-04-07T12:14:00.000Z</Time>
            <Position>
              <LatitudeDegrees>28.25954337604343891143798828125</LatitudeDegrees>
              <LongitudeDegrees>-16.60340546630322933197021484375</LongitudeDegrees>
            </Position>
            <AltitudeMeters>2453.199951171875</AltitudeMeters>
            <DistanceMeters>1126.6453002042</DistanceMeters>
          </Trackpoint>
          <Trackpoint>
            <Time>2019-04-07T12:14:08.000Z</Time>
            <Position>
              <LatitudeDegrees>28.2595543563365936279296875</LatitudeDegrees>
              <LongitudeDegrees>-16.6034110821783542633056640625</LongitudeDegrees>
            </Position>
            <AltitudeMeters>2453.39990234375</AltitudeMeters>
            <DistanceMeters>1127.9824446002</DistanceMeters>
          </Trackpoint>
          <Trackpoint>
            <Time>2019-04-07T12:14:16.000Z</Time>
            <Position>
              <LatitudeDegrees>28.2595706172287464141845703125</LatitudeDegrees>
              <LongitudeDegrees>-16.60341368056833744049072265625</LongitudeDegrees>
            </Position>
            <AltitudeMeters>2453.39990234375</AltitudeMeters>
            <DistanceMeters>1129.8103199472</DistanceMeters>
          </Trackpoint>
          <Trackpoint>
            <Time>2019-04-07T12:14:22.000Z</Time>
            <Position>
              <LatitudeDegrees>28.25962635688483715057373046875</LatitudeDegrees>
              <LongitudeDegrees>-16.603389792144298553466796875</LongitudeDegrees>
            </Position>
            <AltitudeMeters>2453.800048828125</AltitudeMeters>
            <DistanceMeters>1136.4411149377</DistanceMeters>
          </Trackpoint>
          <Trackpoint>
            <Time>2019-04-07T12:14:26.000Z</Time>
            <Position>
              <LatitudeDegrees>28.25966457836329936981201171875</LatitudeDegrees>
              <LongitudeDegrees>-16.60336238332092761993408203125</LongitudeDegrees>
            </Position>
            <AltitudeMeters>2454</AltitudeMeters>
            <DistanceMeters>1141.4739436081</DistanceMeters>
          </Trackpoint>
          <Trackpoint>
            <Time>2019-04-07T12:14:28.000Z</Time>
            <Position>
              <LatitudeDegrees>28.259680755436420440673828125</LatitudeDegrees>
              <LongitudeDegrees>-16.60334880463778972625732421875</LongitudeDegrees>
            </Position>
            <AltitudeMeters>2454.199951171875</AltitudeMeters>
            <DistanceMeters>1143.7146404869</DistanceMeters>
          </Trackpoint>
          <Trackpoint>
            <Time>2019-04-07T12:14:34.000Z</Time>
            <Position>
              <LatitudeDegrees>28.25970246456563472747802734375</LatitudeDegrees>
              <LongitudeDegrees>-16.6033150255680084228515625</LongitudeDegrees>
            </Position>
            <AltitudeMeters>2455</AltitudeMeters>
            <DistanceMeters>1147.8140273023</DistanceMeters>
          </Trackpoint>
          <Trackpoint>
            <Time>2019-04-07T12:14:35.000Z</Time>
            <Position>
              <LatitudeDegrees>28.25970078818500041961669921875</LatitudeDegrees>
              <LongitudeDegrees>-16.6033138521015644073486328125</LongitudeDegrees>
            </Position>
            <AltitudeMeters>2455.199951171875</AltitudeMeters>
            <DistanceMeters>1148.0265134953</DistanceMeters>
          </Trackpoint>
          <Trackpoint>
            <Time>2019-04-07T12:14:42.000Z</Time>
            <Position>
              <LatitudeDegrees>28.25972224585711956024169921875</LatitudeDegrees>
              <LongitudeDegrees>-16.60327051766216754913330078125</LongitudeDegrees>
            </Position>
            <AltitudeMeters>2455</AltitudeMeters>
            <DistanceMeters>1152.8998184363</DistanceMeters>
          </Trackpoint>
          <Trackpoint>
            <Time>2019-04-07T12:14:50.000Z</Time>
            <Position>
              <LatitudeDegrees>28.2597610540688037872314453125</LatitudeDegrees>
              <LongitudeDegrees>-16.6031877882778644561767578125</LongitudeDegrees>
            </Position>
            <AltitudeMeters>2455.800048828125</AltitudeMeters>
            <DistanceMeters>1162.088955764</DistanceMeters>
          </Trackpoint>
          <Trackpoint>
            <Time>2019-04-07T12:14:52.000Z</Time>
            <Position>
              <LatitudeDegrees>28.25977027416229248046875</LatitudeDegrees>
              <LongitudeDegrees>-16.6031670011579990386962890625</LongitudeDegrees>
            </Position>
            <AltitudeMeters>2456.199951171875</AltitudeMeters>
            <DistanceMeters>1164.3715757736</DistanceMeters>
          </Trackpoint>
          <Trackpoint>
            <Time>2019-04-07T12:14:57.000Z</Time>
            <Position>
              <LatitudeDegrees>28.25979148037731647491455078125</LatitudeDegrees>
              <LongitudeDegrees>-16.60311696119606494903564453125</LongitudeDegrees>
            </Position>
            <AltitudeMeters>2456.60009765625</AltitudeMeters>
            <DistanceMeters>1169.8155367294</DistanceMeters>
          </Trackpoint>
          <Trackpoint>
            <Time>2019-04-07T12:15:07.000Z</Time>
            <Position>
              <LatitudeDegrees>28.259834311902523040771484375</LatitudeDegrees>
              <LongitudeDegrees>-16.603009589016437530517578125</LongitudeDegrees>
            </Position>
            <AltitudeMeters>2457.199951171875</AltitudeMeters>
            <DistanceMeters>1181.3709571189</DistanceMeters>
          </Trackpoint>
          <Trackpoint>
            <Time>2019-04-07T12:15:13.000Z</Time>
            <Position>
              <LatitudeDegrees>28.2598633132874965667724609375</LatitudeDegrees>
              <LongitudeDegrees>-16.60294731147587299346923828125</LongitudeDegrees>
            </Position>
            <AltitudeMeters>2458.199951171875</AltitudeMeters>
            <DistanceMeters>1188.277248727</DistanceMeters>
          </Trackpoint>
          <Trackpoint>
            <Time>2019-04-07T12:15:15.000Z</Time>
            <Position>
              <LatitudeDegrees>28.25987144373357295989990234375</LatitudeDegrees>
              <LongitudeDegrees>-16.60292769782245159149169921875</LongitudeDegrees>
            </Position>
            <AltitudeMeters>2458.60009765625</AltitudeMeters>
            <DistanceMeters>1190.4021106571</DistanceMeters>
          </Trackpoint>
          <Trackpoint>
            <Time>2019-04-07T12:15:23.000Z</Time>
            <Position>
              <LatitudeDegrees>28.25990329496562480926513671875</LatitudeDegrees>
              <LongitudeDegrees>-16.60283021628856658935546875</LongitudeDegrees>
            </Position>
            <AltitudeMeters>2459.199951171875</AltitudeMeters>
            <DistanceMeters>1200.5952485236</DistanceMeters>
          </Trackpoint>
          <Trackpoint>
            <Time>2019-04-07T12:15:24.000Z</Time>
            <Position>
              <LatitudeDegrees>28.2599062286317348480224609375</LatitudeDegrees>
              <LongitudeDegrees>-16.602818481624126434326171875</LongitudeDegrees>
            </Position>
            <AltitudeMeters>2459.199951171875</AltitudeMeters>
            <DistanceMeters>1201.7934897992</DistanceMeters>
          </Trackpoint>
          <Trackpoint>
            <Time>2019-04-07T12:15:30.000Z</Time>
            <Position>
              <LatitudeDegrees>28.2599189691245555877685546875</LatitudeDegrees>
              <LongitudeDegrees>-16.60274866037070751190185546875</LongitudeDegrees>
            </Position>
            <AltitudeMeters>2459.800048828125</AltitudeMeters>
            <DistanceMeters>1208.7836073689</DistanceMeters>
          </Trackpoint>
          <Trackpoint>
            <Time>2019-04-07T12:15:34.000Z</Time>
            <Position>
              <LatitudeDegrees>28.25992860831320285797119140625</LatitudeDegrees>
              <LongitudeDegrees>-16.6027007997035980224609375</LongitudeDegrees>
            </Position>
            <AltitudeMeters>2460.39990234375</AltitudeMeters>
            <DistanceMeters>1213.5972521579</DistanceMeters>
          </Trackpoint>
          <Trackpoint>
            <Time>2019-04-07T12:15:38.000Z</Time>
            <Position>
              <LatitudeDegrees>28.25993447564542293548583984375</LatitudeDegrees>
              <LongitudeDegrees>-16.6026523523032665252685546875</LongitudeDegrees>
            </Position>
            <AltitudeMeters>2461.39990234375</AltitudeMeters>
            <DistanceMeters>1218.3921009174</DistanceMeters>
          </Trackpoint>
          <Trackpoint>
            <Time>2019-04-07T12:15:48.000Z</Time>
            <Position>
              <LatitudeDegrees>28.2599585317075252532958984375</LatitudeDegrees>
              <LongitudeDegrees>-16.60253559239208698272705078125</LongitudeDegrees>
            </Position>
            <AltitudeMeters>2462.39990234375</AltitudeMeters>
            <DistanceMeters>1230.147792726</DistanceMeters>
          </Trackpoint>
          <Trackpoint>
            <Time>2019-04-07T12:15:49.000Z</Time>
            <Position>
              <LatitudeDegrees>28.2599620521068572998046875</LatitudeDegrees>
              <LongitudeDegrees>-16.60252503119409084320068359375</LongitudeDegrees>
            </Position>
            <AltitudeMeters>2462.60009765625</AltitudeMeters>
            <DistanceMeters>1231.2559851264</DistanceMeters>
          </Trackpoint>
          <Trackpoint>
            <Time>2019-04-07T12:15:57.000Z</Time>
            <Position>
              <LatitudeDegrees>28.26000832021236419677734375</LatitudeDegrees>
              <LongitudeDegrees>-16.60244355909526348114013671875</LongitudeDegrees>
            </Position>
            <AltitudeMeters>2463.60009765625</AltitudeMeters>
            <DistanceMeters>1240.7596067831</DistanceMeters>
          </Trackpoint>
          <Trackpoint>
            <Time>2019-04-07T12:15:59.000Z</Time>
            <Position>
              <LatitudeDegrees>28.2600222341716289520263671875</LatitudeDegrees>
              <LongitudeDegrees>-16.60242646001279354095458984375</LongitudeDegrees>
            </Position>
            <AltitudeMeters>2464</AltitudeMeters>
            <DistanceMeters>1243.0442039433</DistanceMeters>
          </Trackpoint>
          <Trackpoint>
            <Time>2019-04-07T12:16:05.000Z</Time>
            <Position>
              <LatitudeDegrees>28.26007403433322906494140625</LatitudeDegrees>
              <LongitudeDegrees>-16.6023931838572025299072265625</LongitudeDegrees>
            </Position>
            <AltitudeMeters>2464.60009765625</AltitudeMeters>
            <DistanceMeters>1249.6688678229</DistanceMeters>
          </Trackpoint>
          <Trackpoint>
            <Time>2019-04-07T12:16:08.000Z</Time>
            <Position>
              <LatitudeDegrees>28.26010487973690032958984375</LatitudeDegrees>
              <LongitudeDegrees>-16.6023871488869190216064453125</LongitudeDegrees>
            </Position>
            <AltitudeMeters>2464.800048828125</AltitudeMeters>
            <DistanceMeters>1253.1526047161</DistanceMeters>
          </Trackpoint>
          <Trackpoint>
            <Time>2019-04-07T12:16:10.000Z</Time>
            <Position>
              <LatitudeDegrees>28.26012642122805118560791015625</LatitudeDegrees>
              <LongitudeDegrees>-16.6023861430585384368896484375</LongitudeDegrees>
            </Position>
            <AltitudeMeters>2465.39990234375</AltitudeMeters>
            <DistanceMeters>1255.552852364</DistanceMeters>
          </Trackpoint>
          <Trackpoint>
            <Time>2019-04-07T12:16:14.000Z</Time>
            <Position>
              <LatitudeDegrees>28.2601637206971645355224609375</LatitudeDegrees>
              <LongitudeDegrees>-16.602402739226818084716796875</LongitudeDegrees>
            </Position>
            <AltitudeMeters>2465.60009765625</AltitudeMeters>
            <DistanceMeters>1260.0120258669</DistanceMeters>
          </Trackpoint>
          <Trackpoint>
            <Time>2019-04-07T12:16:16.000Z</Time>
            <Position>
              <LatitudeDegrees>28.26017855666577816009521484375</LatitudeDegrees>
              <LongitudeDegrees>-16.60241707228124141693115234375</LongitudeDegrees>
            </Position>
            <AltitudeMeters>2465.800048828125</AltitudeMeters>
            <DistanceMeters>1262.1810509538</DistanceMeters>
          </Trackpoint>
          <Trackpoint>
            <Time>2019-04-07T12:16:22.000Z</Time>
            <Position>
              <LatitudeDegrees>28.26020906679332256317138671875</LatitudeDegrees>
              <LongitudeDegrees>-16.60247155465185642242431640625</LongitudeDegrees>
            </Position>
            <AltitudeMeters>2466.60009765625</AltitudeMeters>
            <DistanceMeters>1268.5101440251</DistanceMeters>
          </Trackpoint>
          <Trackpoint>
            <Time>2019-04-07T12:16:23.000Z</Time>
            <Position>
              <LatitudeDegrees>28.26021426357328891754150390625</LatitudeDegrees>
              <LongitudeDegrees>-16.6024806909263134002685546875</LongitudeDegrees>
            </Position>
            <AltitudeMeters>2466.60009765625</AltitudeMeters>
            <DistanceMeters>1269.5768162484</DistanceMeters>
          </Trackpoint>
          <Trackpoint>
            <Time>2019-04-07T12:16:24.000Z</Time>
            <Position>
              <LatitudeDegrees>28.2602168619632720947265625</LatitudeDegrees>
              <LongitudeDegrees>-16.6024915874004364013671875</LongitudeDegrees>
            </Position>
            <AltitudeMeters>2466.800048828125</AltitudeMeters>
            <DistanceMeters>1270.680926895</DistanceMeters>
          </Trackpoint>
          <Trackpoint>
            <Time>2019-04-07T12:16:30.000Z</Time>
            <Position>
              <LatitudeDegrees>28.2602230645716190338134765625</LatitudeDegrees>
              <LongitudeDegrees>-16.60255721770226955413818359375</LongitudeDegrees>
            </Position>
            <AltitudeMeters>2466.60009765625</AltitudeMeters>
            <DistanceMeters>1277.1518205327</DistanceMeters>
          </Trackpoint>
          <Trackpoint>
            <Time>2019-04-07T12:16:36.000Z</Time>
            <Position>
              <LatitudeDegrees>28.260223232209682464599609375</LatitudeDegrees>
              <LongitudeDegrees>-16.60257674753665924072265625</LongitudeDegrees>
            </Position>
            <AltitudeMeters>2466.60009765625</AltitudeMeters>
            <DistanceMeters>1279.0665557719</DistanceMeters>
          </Trackpoint>
          <Trackpoint>
            <Time>2019-04-07T12:16:47.000Z</Time>
            <Position>
              <LatitudeDegrees>28.26022624969482421875</LatitudeDegrees>
              <LongitudeDegrees>-16.60257817246019840240478515625</LongitudeDegrees>
            </Position>
            <AltitudeMeters>2466.60009765625</AltitudeMeters>
            <DistanceMeters>1279.4221131796</DistanceMeters>
          </Trackpoint>
          <Trackpoint>
            <Time>2019-04-07T12:16:59.000Z</Time>
            <Position>
              <LatitudeDegrees>28.26022650115191936492919921875</LatitudeDegrees>
              <LongitudeDegrees>-16.6025795973837375640869140625</LongitudeDegrees>
            </Position>
            <AltitudeMeters>2467.199951171875</AltitudeMeters>
            <DistanceMeters>1279.5565012479</DistanceMeters>
          </Trackpoint>
          <Trackpoint>
            <Time>2019-04-07T12:17:06.000Z</Time>
            <Position>
              <LatitudeDegrees>28.26022717170417308807373046875</LatitudeDegrees>
              <LongitudeDegrees>-16.6025802679359912872314453125</LongitudeDegrees>
            </Position>
            <AltitudeMeters>2467.39990234375</AltitudeMeters>
            <DistanceMeters>1279.6515279623</DistanceMeters>
          </Trackpoint>
          <Trackpoint>
            <Time>2019-04-07T12:17:15.000Z</Time>
            <Position>
              <LatitudeDegrees>28.260227926075458526611328125</LatitudeDegrees>
              <LongitudeDegrees>-16.602581776678562164306640625</LongitudeDegrees>
            </Position>
            <AltitudeMeters>2467.39990234375</AltitudeMeters>
            <DistanceMeters>1279.7859160305</DistanceMeters>
          </Trackpoint>
          <Trackpoint>
            <Time>2019-04-07T12:17:25.000Z</Time>
            <Position>
              <LatitudeDegrees>28.26022851280868053436279296875</LatitudeDegrees>
              <LongitudeDegrees>-16.60258554853498935699462890625</LongitudeDegrees>
            </Position>
            <AltitudeMeters>2467.199951171875</AltitudeMeters>
            <DistanceMeters>1280.1777212111</DistanceMeters>
          </Trackpoint>
          <Trackpoint>
            <Time>2019-04-07T12:17:37.000Z</Time>
            <Position>
              <LatitudeDegrees>28.26022549532353878021240234375</LatitudeDegrees>
              <LongitudeDegrees>-16.6026042401790618896484375</LongitudeDegrees>
            </Position>
            <AltitudeMeters>2467.60009765625</AltitudeMeters>
            <DistanceMeters>1282.0422799876</DistanceMeters>
          </Trackpoint>
          <Trackpoint>
            <Time>2019-04-07T12:17:39.000Z</Time>
            <Position>
              <LatitudeDegrees>28.26022348366677761077880859375</LatitudeDegrees>
              <LongitudeDegrees>-16.6026288829743862152099609375</LongitudeDegrees>
            </Position>
            <AltitudeMeters>2467.60009765625</AltitudeMeters>
            <DistanceMeters>1284.4687197337</DistanceMeters>
          </Trackpoint>
          <Trackpoint>
            <Time>2019-04-07T12:17:44.000Z</Time>
            <Position>
              <LatitudeDegrees>28.26023924164474010467529296875</LatitudeDegrees>
              <LongitudeDegrees>-16.60269283689558506011962890625</LongitudeDegrees>
            </Position>
            <AltitudeMeters>2467.800048828125</AltitudeMeters>
            <DistanceMeters>1290.9792633998</DistanceMeters>
          </Trackpoint>
          <Trackpoint>
            <Time>2019-04-07T12:17:51.000Z</Time>
            <Position>
              <LatitudeDegrees>28.26025776565074920654296875</LatitudeDegrees>
              <LongitudeDegrees>-16.60273633897304534912109375</LongitudeDegrees>
            </Position>
            <AltitudeMeters>2468.39990234375</AltitudeMeters>
            <DistanceMeters>1295.7163236657</DistanceMeters>
          </Trackpoint>
          <Trackpoint>
            <Time>2019-04-07T12:17:57.000Z</Time>
            <Position>
              <LatitudeDegrees>28.2602596096694469451904296875</LatitudeDegrees>
              <LongitudeDegrees>-16.6027378477156162261962890625</LongitudeDegrees>
            </Position>
            <AltitudeMeters>2468.60009765625</AltitudeMeters>
            <DistanceMeters>1295.9850998022</DistanceMeters>
          </Trackpoint>
          <Trackpoint>
            <Time>2019-04-07T12:18:08.000Z</Time>
            <Position>
              <LatitudeDegrees>28.26025986112654209136962890625</LatitudeDegrees>
              <LongitudeDegrees>-16.60273776389658451080322265625</LongitudeDegrees>
            </Position>
            <AltitudeMeters>2468.39990234375</AltitudeMeters>
            <DistanceMeters>1296.0801265166</DistanceMeters>
          </Trackpoint>
          <Trackpoint>
            <Time>2019-04-07T12:18:19.000Z</Time>
            <Position>
              <LatitudeDegrees>28.2602783851325511932373046875</LatitudeDegrees>
              <LongitudeDegrees>-16.6027888096868991851806640625</LongitudeDegrees>
            </Position>
            <AltitudeMeters>2468.39990234375</AltitudeMeters>
            <DistanceMeters>1301.4933139381</DistanceMeters>
          </Trackpoint>
          <Trackpoint>
            <Time>2019-04-07T12:18:28.000Z</Time>
            <Position>
              <LatitudeDegrees>28.2603109069168567657470703125</LatitudeDegrees>
              <LongitudeDegrees>-16.60289333201944828033447265625</LongitudeDegrees>
            </Position>
            <AltitudeMeters>2469.199951171875</AltitudeMeters>
            <DistanceMeters>1312.3608973774</DistanceMeters>
          </Trackpoint>
          <Trackpoint>
            <Time>2019-04-07T12:18:34.000Z</Time>
            <Position>
              <LatitudeDegrees>28.2603457756340503692626953125</LatitudeDegrees>
              <LongitudeDegrees>-16.60295384936034679412841796875</LongitudeDegrees>
            </Position>
            <AltitudeMeters>2469.60009765625</AltitudeMeters>
            <DistanceMeters>1319.4497883634</DistanceMeters>
          </Trackpoint>
          <Trackpoint>
            <Time>2019-04-07T12:18:38.000Z</Time>
            <Position>
              <LatitudeDegrees>28.26036907732486724853515625</LatitudeDegrees>
              <LongitudeDegrees>-16.60299240611493587493896484375</LongitudeDegrees>
            </Position>
            <AltitudeMeters>2470</AltitudeMeters>
            <DistanceMeters>1324.0327958703</DistanceMeters>
          </Trackpoint>
          <Trackpoint>
            <Time>2019-04-07T12:18:42.000Z</Time>
            <Position>
              <LatitudeDegrees>28.260398246347904205322265625</LatitudeDegrees>
              <LongitudeDegrees>-16.603024341166019439697265625</LongitudeDegrees>
            </Position>
            <AltitudeMeters>2470.800048828125</AltitudeMeters>
            <DistanceMeters>1328.5423116039</DistanceMeters>
          </Trackpoint>
          <Trackpoint>
            <Time>2019-04-07T12:18:48.000Z</Time>
            <Position>
              <LatitudeDegrees>28.2604456879198551177978515625</LatitudeDegrees>
              <LongitudeDegrees>-16.60306499339640140533447265625</LongitudeDegrees>
            </Position>
            <AltitudeMeters>2471.39990234375</AltitudeMeters>
            <DistanceMeters>1335.1581094034</DistanceMeters>
          </Trackpoint>
          <Trackpoint>
            <Time>2019-04-07T12:18:52.000Z</Time>
            <Position>
              <LatitudeDegrees>28.26047326438128948211669921875</LatitudeDegrees>
              <LongitudeDegrees>-16.60309684462845325469970703125</LongitudeDegrees>
            </Position>
            <AltitudeMeters>2471.60009765625</AltitudeMeters>
            <DistanceMeters>1339.5365625881</DistanceMeters>
          </Trackpoint>
          <Trackpoint>
            <Time>2019-04-07T12:18:56.000Z</Time>
            <Position>
              <LatitudeDegrees>28.26051215641200542449951171875</LatitudeDegrees>
              <LongitudeDegrees>-16.6031126864254474639892578125</LongitudeDegrees>
            </Position>
            <AltitudeMeters>2472</AltitudeMeters>
            <DistanceMeters>1344.1353057895</DistanceMeters>
          </Trackpoint>
          <Trackpoint>
            <Time>2019-04-07T12:18:57.000Z</Time>
            <Position>
              <LatitudeDegrees>28.2605214603245258331298828125</LatitudeDegrees>
              <LongitudeDegrees>-16.6031167097389698028564453125</LongitudeDegrees>
            </Position>
            <AltitudeMeters>2472.199951171875</AltitudeMeters>
            <DistanceMeters>1345.2434981899</DistanceMeters>
          </Trackpoint>
          <Trackpoint>
            <Time>2019-04-07T12:19:03.000Z</Time>
            <Position>
              <LatitudeDegrees>28.2605814747512340545654296875</LatitudeDegrees>
              <LongitudeDegrees>-16.60313053987920284271240234375</LongitudeDegrees>
            </Position>
            <AltitudeMeters>2473</AltitudeMeters>
            <DistanceMeters>1352.0589741988</DistanceMeters>
          </Trackpoint>
          <Trackpoint>
            <Time>2019-04-07T12:19:06.000Z</Time>
            <Position>
              <LatitudeDegrees>28.26060905121266841888427734375</LatitudeDegrees>
              <LongitudeDegrees>-16.60311981104314327239990234375</LongitudeDegrees>
            </Position>
            <AltitudeMeters>2473.60009765625</AltitudeMeters>
            <DistanceMeters>1355.3038269125</DistanceMeters>
          </Trackpoint>
          <Trackpoint>
            <Time>2019-04-07T12:19:11.000Z</Time>
            <Position>
              <LatitudeDegrees>28.26064190827310085296630859375</LatitudeDegrees>
              <LongitudeDegrees>-16.6030784882605075836181640625</LongitudeDegrees>
            </Position>
            <AltitudeMeters>2474</AltitudeMeters>
            <DistanceMeters>1360.7626960504</DistanceMeters>
          </Trackpoint>
          <Trackpoint>
            <Time>2019-04-07T12:19:14.000Z</Time>
            <Position>
              <LatitudeDegrees>28.2606513798236846923828125</LatitudeDegrees>
              <LongitudeDegrees>-16.6030489839613437652587890625</LongitudeDegrees>
            </Position>
            <AltitudeMeters>2474.39990234375</AltitudeMeters>
            <DistanceMeters>1363.8404468834</DistanceMeters>
          </Trackpoint>
          <Trackpoint>
            <Time>2019-04-07T12:19:21.000Z</Time>
            <Position>
              <LatitudeDegrees>28.26066873036324977874755859375</LatitudeDegrees>
              <LongitudeDegrees>-16.60296910442411899566650390625</LongitudeDegrees>
            </Position>
            <AltitudeMeters>2475.199951171875</AltitudeMeters>
            <DistanceMeters>1371.9059704685</DistanceMeters>
          </Trackpoint>
          <Trackpoint>
            <Time>2019-04-07T12:19:23.000Z</Time>
            <Position>
              <LatitudeDegrees>28.2606743462383747100830078125</LatitudeDegrees>
              <LongitudeDegrees>-16.60294597037136554718017578125</LongitudeDegrees>
            </Position>
            <AltitudeMeters>2475.60009765625</AltitudeMeters>
            <DistanceMeters>1374.2568015521</DistanceMeters>
          </Trackpoint>
          <Trackpoint>
            <Time>2019-04-07T12:19:27.000Z</Time>
            <Position>
              <LatitudeDegrees>28.2606947980821132659912109375</LatitudeDegrees>
              <LongitudeDegrees>-16.6029021330177783966064453125</LongitudeDegrees>
            </Position>
            <AltitudeMeters>2476.39990234375</AltitudeMeters>
            <DistanceMeters>1379.1189759762</DistanceMeters>
          </Trackpoint>
          <Trackpoint>
            <Time>2019-04-07T12:19:31.000Z</Time>
            <Position>
              <LatitudeDegrees>28.2607279904186725616455078125</LatitudeDegrees>
              <LongitudeDegrees>-16.60286718048155307769775390625</LongitudeDegrees>
            </Position>
            <AltitudeMeters>2476.800048828125</AltitudeMeters>
            <DistanceMeters>1384.1580805554</DistanceMeters>
          </Trackpoint>
          <Trackpoint>
            <Time>2019-04-07T12:19:38.000Z</Time>
            <Position>
              <LatitudeDegrees>28.2608000747859477996826171875</LatitudeDegrees>
              <LongitudeDegrees>-16.6028357483446598052978515625</LongitudeDegrees>
            </Position>
            <AltitudeMeters>2477.39990234375</AltitudeMeters>
            <DistanceMeters>1392.7515644333</DistanceMeters>
          </Trackpoint>
          <Trackpoint>
            <Time>2019-04-07T12:19:46.000Z</Time>
            <Position>
              <LatitudeDegrees>28.260894455015659332275390625</LatitudeDegrees>
              <LongitudeDegrees>-16.60284505225718021392822265625</LongitudeDegrees>
            </Position>
            <AltitudeMeters>2478.199951171875</AltitudeMeters>
            <DistanceMeters>1403.2956765902</DistanceMeters>
          </Trackpoint>
          <Trackpoint>
            <Time>2019-04-07T12:19:48.000Z</Time>
            <Position>
              <LatitudeDegrees>28.26091683469712734222412109375</LatitudeDegrees>
              <LongitudeDegrees>-16.60285075195133686065673828125</LongitudeDegrees>
            </Position>
            <AltitudeMeters>2478.39990234375</AltitudeMeters>
            <DistanceMeters>1405.8490498869</DistanceMeters>
          </Trackpoint>
          <Trackpoint>
            <Time>2019-04-07T12:19:56.000Z</Time>
            <Position>
              <LatitudeDegrees>28.26100635342299938201904296875</LatitudeDegrees>
              <LongitudeDegrees>-16.60287723876535892486572265625</LongitudeDegrees>
            </Position>
            <AltitudeMeters>2479.39990234375</AltitudeMeters>
            <DistanceMeters>1416.1453160768</DistanceMeters>
          </Trackpoint>
          <Trackpoint>
            <Time>2019-04-07T12:20:06.000Z</Time>
            <Position>
              <LatitudeDegrees>28.26111867092549800872802734375</LatitudeDegrees>
              <LongitudeDegrees>-16.60289165563881397247314453125</LongitudeDegrees>
            </Position>
            <AltitudeMeters>2480.39990234375</AltitudeMeters>
            <DistanceMeters>1428.7258625607</DistanceMeters>
          </Trackpoint>
          <Trackpoint>
            <Time>2019-04-07T12:20:07.000Z</Time>
            <Position>
              <LatitudeDegrees>28.2611313275992870330810546875</LatitudeDegrees>
              <LongitudeDegrees>-16.60289190709590911865234375</LongitudeDegrees>
            </Position>
            <AltitudeMeters>2480.39990234375</AltitudeMeters>
            <DistanceMeters>1430.1353365114</DistanceMeters>
          </Trackpoint>
          <Trackpoint>
            <Time>2019-04-07T12:20:16.000Z</Time>
            <Position>
              <LatitudeDegrees>28.26123819686472415924072265625</LatitudeDegrees>
              <LongitudeDegrees>-16.60290104337036609649658203125</LongitudeDegrees>
            </Position>
            <AltitudeMeters>2481.60009765625</AltitudeMeters>
            <DistanceMeters>1442.0637443903</DistanceMeters>
          </Trackpoint>
          <Trackpoint>
            <Time>2019-04-07T12:20:26.000Z</Time>
            <Position>
              <LatitudeDegrees>28.261343725025653839111328125</LatitudeDegrees>
              <LongitudeDegrees>-16.602905653417110443115234375</LongitudeDegrees>
            </Position>
            <AltitudeMeters>2482.800048828125</AltitudeMeters>
            <DistanceMeters>1453.8175156794</DistanceMeters>
          </Trackpoint>
          <Trackpoint>
            <Time>2019-04-07T12:20:30.000Z</Time>
            <Position>
              <LatitudeDegrees>28.26138068921864032745361328125</LatitudeDegrees>
              <LongitudeDegrees>-16.6028850339353084564208984375</LongitudeDegrees>
            </Position>
            <AltitudeMeters>2483.60009765625</AltitudeMeters>
            <DistanceMeters>1458.4005231864</DistanceMeters>
          </Trackpoint>
          <Trackpoint>
            <Time>2019-04-07T12:20:31.000Z</Time>
            <Position>
              <LatitudeDegrees>28.2613908313214778900146484375</LatitudeDegrees>
              <LongitudeDegrees>-16.60288243554532527923583984375</LongitudeDegrees>
            </Position>
            <AltitudeMeters>2483.800048828125</AltitudeMeters>
            <DistanceMeters>1459.5604720603</DistanceMeters>
          </Trackpoint>
          <Trackpoint>
            <Time>2019-04-07T12:20:34.000Z</Time>
            <Position>
              <LatitudeDegrees>28.26141916215419769287109375</LatitudeDegrees>
              <LongitudeDegrees>-16.60286818630993366241455078125</LongitudeDegrees>
            </Position>
            <AltitudeMeters>2484</AltitudeMeters>
            <DistanceMeters>1463.0103475295</DistanceMeters>
          </Trackpoint>
          <Trackpoint>
            <Time>2019-04-07T12:20:39.000Z</Time>
            <Position>
              <LatitudeDegrees>28.26146341860294342041015625</LatitudeDegrees>
              <LongitudeDegrees>-16.6028448008000850677490234375</LongitudeDegrees>
            </Position>
            <AltitudeMeters>2484.800048828125</AltitudeMeters>
            <DistanceMeters>1468.4435160245</DistanceMeters>
          </Trackpoint>
          <Trackpoint>
            <Time>2019-04-07T12:20:42.000Z</Time>
            <Position>
              <LatitudeDegrees>28.26148931868374347686767578125</LatitudeDegrees>
              <LongitudeDegrees>-16.60283281467854976654052734375</LongitudeDegrees>
            </Position>
            <AltitudeMeters>2485.199951171875</AltitudeMeters>
            <DistanceMeters>1471.5577257318</DistanceMeters>
          </Trackpoint>
          <Trackpoint>
            <Time>2019-04-07T12:20:47.000Z</Time>
            <Position>
              <LatitudeDegrees>28.26153575442731380462646484375</LatitudeDegrees>
              <LongitudeDegrees>-16.60280951298773288726806640625</LongitudeDegrees>
            </Position>
            <AltitudeMeters>2486</AltitudeMeters>
            <DistanceMeters>1477.2092193735</DistanceMeters>
          </Trackpoint>
          <Trackpoint>
            <Time>2019-04-07T12:20:49.000Z</Time>
            <Position>
              <LatitudeDegrees>28.2615554518997669219970703125</LatitudeDegrees>
              <LongitudeDegrees>-16.6028015501797199249267578125</LongitudeDegrees>
            </Position>
            <AltitudeMeters>2486.199951171875</AltitudeMeters>
            <DistanceMeters>1479.5368889949</DistanceMeters>
          </Trackpoint>
          <Trackpoint>
            <Time>2019-04-07T12:20:57.000Z</Time>
            <Position>
              <LatitudeDegrees>28.26162661425769329071044921875</LatitudeDegrees>
              <LongitudeDegrees>-16.60275989212095737457275390625</LongitudeDegrees>
            </Position>
            <AltitudeMeters>2487</AltitudeMeters>
            <DistanceMeters>1488.4481454859</DistanceMeters>
          </Trackpoint>
          <Trackpoint>
            <Time>2019-04-07T12:20:58.000Z</Time>
            <Position>
              <LatitudeDegrees>28.26163684017956256866455078125</LatitudeDegrees>
              <LongitudeDegrees>-16.602756120264530181884765625</LongitudeDegrees>
            </Position>
            <AltitudeMeters>2487</AltitudeMeters>
            <DistanceMeters>1489.6463867615</DistanceMeters>
          </Trackpoint>
          <Trackpoint>
            <Time>2019-04-07T12:21:10.000Z</Time>
            <Position>
              <LatitudeDegrees>28.26175100170075893402099609375</LatitudeDegrees>
              <LongitudeDegrees>-16.6027130372822284698486328125</LongitudeDegrees>
            </Position>
            <AltitudeMeters>2488.199951171875</AltitudeMeters>
            <DistanceMeters>1503.0360520941</DistanceMeters>
          </Trackpoint>
          <Trackpoint>
            <Time>2019-04-07T12:21:11.000Z</Time>
            <Position>
              <LatitudeDegrees>28.26175988651812076568603515625</LatitudeDegrees>
              <LongitudeDegrees>-16.6027086786925792694091796875</LongitudeDegrees>
            </Position>
            <AltitudeMeters>2488.199951171875</AltitudeMeters>
            <DistanceMeters>1504.1111566401</DistanceMeters>
          </Trackpoint>
          <Trackpoint>
            <Time>2019-04-07T12:21:18.000Z</Time>
            <Position>
              <LatitudeDegrees>28.2618287019431591033935546875</LatitudeDegrees>
              <LongitudeDegrees>-16.6026711277663707733154296875</LongitudeDegrees>
            </Position>
            <AltitudeMeters>2489</AltitudeMeters>
            <DistanceMeters>1512.6090105646</DistanceMeters>
          </Trackpoint>
          <Trackpoint>
            <Time>2019-04-07T12:21:20.000Z</Time>
            <Position>
              <LatitudeDegrees>28.2618504948914051055908203125</LatitudeDegrees>
              <LongitudeDegrees>-16.60266702063381671905517578125</LongitudeDegrees>
            </Position>
            <AltitudeMeters>2489.199951171875</AltitudeMeters>
            <DistanceMeters>1515.068716079</DistanceMeters>
          </Trackpoint>
          <Trackpoint>
            <Time>2019-04-07T12:21:29.000Z</Time>
            <Position>
              <LatitudeDegrees>28.26194613240659236907958984375</LatitudeDegrees>
              <LongitudeDegrees>-16.6026352532207965850830078125</LongitudeDegrees>
            </Position>
            <AltitudeMeters>2400.800048828125</AltitudeMeters>
            <DistanceMeters>1526.1595997822</DistanceMeters>
          </Trackpoint>
          <Trackpoint>
            <Time>2019-04-07T12:21:32.000Z</Time>
            <Position>
              <LatitudeDegrees>28.26197630725800991058349609375</LatitudeDegrees>
              <LongitudeDegrees>-16.60262368619441986083984375</LongitudeDegrees>
            </Position>
            <AltitudeMeters>2490.199951171875</AltitudeMeters>
            <DistanceMeters>1529.7050005226</DistanceMeters>
          </Trackpoint>
          <Trackpoint>
            <Time>2019-04-07T12:21:38.000Z</Time>
            <Position>
              <LatitudeDegrees>28.2620394229888916015625</LatitudeDegrees>
              <LongitudeDegrees>-16.60259610973298549652099609375</LongitudeDegrees>
            </Position>
            <AltitudeMeters>2491</AltitudeMeters>
            <DistanceMeters>1537.2319321425</DistanceMeters>
          </Trackpoint>
          <Trackpoint>
            <Time>2019-04-07T12:21:45.000Z</Time>
            <Position>
              <LatitudeDegrees>28.2621130160987377166748046875</LatitudeDegrees>
              <LongitudeDegrees>-16.60256962291896343231201171875</LongitudeDegrees>
            </Position>
            <AltitudeMeters>2491.39990234375</AltitudeMeters>
            <DistanceMeters>1545.824365151</DistanceMeters>
          </Trackpoint>
          <Trackpoint>
            <Time>2019-04-07T12:21:48.000Z</Time>
            <Position>
              <LatitudeDegrees>28.2621475495398044586181640625</LatitudeDegrees>
              <LongitudeDegrees>-16.60256409086287021636962890625</LongitudeDegrees>
            </Position>
            <AltitudeMeters>2492</AltitudeMeters>
            <DistanceMeters>1549.7065291847</DistanceMeters>
          </Trackpoint>
          <Trackpoint>
            <Time>2019-04-07T12:21:49.000Z</Time>
            <Position>
              <LatitudeDegrees>28.2621589489281177520751953125</LatitudeDegrees>
              <LongitudeDegrees>-16.60256333649158477783203125</LongitudeDegrees>
            </Position>
            <AltitudeMeters>2492.39990234375</AltitudeMeters>
            <DistanceMeters>1550.9778999739</DistanceMeters>
          </Trackpoint>
          <Trackpoint>
            <Time>2019-04-07T12:21:54.000Z</Time>
            <Position>
              <LatitudeDegrees>28.262218795716762542724609375</LatitudeDegrees>
              <LongitudeDegrees>-16.60257146693766117095947265625</LongitudeDegrees>
            </Position>
            <AltitudeMeters>2493.60009765625</AltitudeMeters>
            <DistanceMeters>1557.6865437263</DistanceMeters>
          </Trackpoint>
          <Trackpoint>
            <Time>2019-04-07T12:21:55.000Z</Time>
            <Position>
              <LatitudeDegrees>28.26222893781960010528564453125</LatitudeDegrees>
              <LongitudeDegrees>-16.60257247276604175567626953125</LongitudeDegrees>
            </Position>
            <AltitudeMeters>2493.60009765625</AltitudeMeters>
            <DistanceMeters>1558.8228979543</DistanceMeters>
          </Trackpoint>
          <Trackpoint>
            <Time>2019-04-07T12:21:56.000Z</Time>
            <Position>
              <LatitudeDegrees>28.2622404210269451141357421875</LatitudeDegrees>
              <LongitudeDegrees>-16.60257180221378803253173828125</LongitudeDegrees>
            </Position>
            <AltitudeMeters>2493.800048828125</AltitudeMeters>
            <DistanceMeters>1560.1013516438</DistanceMeters>
          </Trackpoint>
          <Trackpoint>
            <Time>2019-04-07T12:22:01.000Z</Time>
            <Position>
              <LatitudeDegrees>28.26229448430240154266357421875</LatitudeDegrees>
              <LongitudeDegrees>-16.60257884301245212554931640625</LongitudeDegrees>
            </Position>
            <AltitudeMeters>2494.60009765625</AltitudeMeters>
            <DistanceMeters>1566.157767293</DistanceMeters>
          </Trackpoint>
          <Trackpoint>
            <Time>2019-04-07T12:22:04.000Z</Time>
            <Position>
              <LatitudeDegrees>28.262327425181865692138671875</LatitudeDegrees>
              <LongitudeDegrees>-16.6025809384882450103759765625</LongitudeDegrees>
            </Position>
            <AltitudeMeters>2495</AltitudeMeters>
            <DistanceMeters>1569.8307680018</DistanceMeters>
          </Trackpoint>
          <Trackpoint>
            <Time>2019-04-07T12:22:07.000Z</Time>
            <Position>
              <LatitudeDegrees>28.26235952787101268768310546875</LatitudeDegrees>
              <LongitudeDegrees>-16.602579765021800994873046875</LongitudeDegrees>
            </Position>
            <AltitudeMeters>2495.800048828125</AltitudeMeters>
            <DistanceMeters>1573.4066019248</DistanceMeters>
          </Trackpoint>
          <Trackpoint>
            <Time>2019-04-07T12:22:10.000Z</Time>
            <Position>
              <LatitudeDegrees>28.26239037327468395233154296875</LatitudeDegrees>
              <LongitudeDegrees>-16.60257113166153430938720703125</LongitudeDegrees>
            </Position>
            <AltitudeMeters>2496.39990234375</AltitudeMeters>
            <DistanceMeters>1576.9430769883</DistanceMeters>
          </Trackpoint>
          <Trackpoint>
            <Time>2019-04-07T12:22:13.000Z</Time>
            <Position>
              <LatitudeDegrees>28.26241828501224517822265625</LatitudeDegrees>
              <LongitudeDegrees>-16.60255503840744495391845703125</LongitudeDegrees>
            </Position>
            <AltitudeMeters>2497</AltitudeMeters>
            <DistanceMeters>1580.4268138815</DistanceMeters>
          </Trackpoint>
          <Trackpoint>
            <Time>2019-04-07T12:22:17.000Z</Time>
            <Position>
              <LatitudeDegrees>28.2624516449868679046630859375</LatitudeDegrees>
              <LongitudeDegrees>-16.60252788104116916656494140625</LongitudeDegrees>
            </Position>
            <AltitudeMeters>2498.199951171875</AltitudeMeters>
            <DistanceMeters>1584.996008202</DistanceMeters>
          </Trackpoint>
          <Trackpoint>
            <Time>2019-04-07T12:22:20.000Z</Time>
            <Position>
              <LatitudeDegrees>28.26247603632509708404541015625</LatitudeDegrees>
              <LongitudeDegrees>-16.60250457935035228729248046875</LongitudeDegrees>
            </Position>
            <AltitudeMeters>2499.39990234375</AltitudeMeters>
            <DistanceMeters>1588.5439550114</DistanceMeters>
          </Trackpoint>
          <Trackpoint>
            <Time>2019-04-07T12:22:22.000Z</Time>
            <Position>
              <LatitudeDegrees>28.26249095611274242401123046875</LatitudeDegrees>
              <LongitudeDegrees>-16.60248613916337490081787109375</LongitudeDegrees>
            </Position>
            <AltitudeMeters>2499.60009765625</AltitudeMeters>
            <DistanceMeters>1590.9981475442</DistanceMeters>
          </Trackpoint>
          <Trackpoint>
            <Time>2019-04-07T12:22:31.000Z</Time>
            <Position>
              <LatitudeDegrees>28.2625575922429561614990234375</LatitudeDegrees>
              <LongitudeDegrees>-16.60241137258708477020263671875</LongitudeDegrees>
            </Position>
            <AltitudeMeters>2499.39990234375</AltitudeMeters>
            <DistanceMeters>1601.4255705462</DistanceMeters>
          </Trackpoint>
          <Trackpoint>
            <Time>2019-04-07T12:22:40.000Z</Time>
            <Position>
              <LatitudeDegrees>28.262635879218578338623046875</LatitudeDegrees>
              <LongitudeDegrees>-16.6023351810872554779052734375</LongitudeDegrees>
            </Position>
            <AltitudeMeters>2500</AltitudeMeters>
            <DistanceMeters>1612.9017922648</DistanceMeters>
          </Trackpoint>
          <Trackpoint>
            <Time>2019-04-07T12:22:47.000Z</Time>
            <Position>
              <LatitudeDegrees>28.2626930437982082366943359375</LatitudeDegrees>
              <LongitudeDegrees>-16.60227575339376926422119140625</LongitudeDegrees>
            </Position>
            <AltitudeMeters>2500.60009765625</AltitudeMeters>
            <DistanceMeters>1621.5283129989</DistanceMeters>
          </Trackpoint>
          <Trackpoint>
            <Time>2019-04-07T12:22:50.000Z</Time>
            <Position>
              <LatitudeDegrees>28.26271961443126201629638671875</LatitudeDegrees>
              <LongitudeDegrees>-16.60225220024585723876953125</LongitudeDegrees>
            </Position>
            <AltitudeMeters>2501.39990234375</AltitudeMeters>
            <DistanceMeters>1625.2803643279</DistanceMeters>
          </Trackpoint>
          <Trackpoint>
            <Time>2019-04-07T12:22:51.000Z</Time>
            <Position>
              <LatitudeDegrees>28.26272799633443355560302734375</LatitudeDegrees>
              <LongitudeDegrees>-16.602244488894939422607421875</LongitudeDegrees>
            </Position>
            <AltitudeMeters>2501.60009765625</AltitudeMeters>
            <DistanceMeters>1626.4861181616</DistanceMeters>
          </Trackpoint>
          <Trackpoint>
            <Time>2019-04-07T12:23:01.000Z</Time>
            <Position>
              <LatitudeDegrees>28.2628110609948635101318359375</LatitudeDegrees>
              <LongitudeDegrees>-16.6021618433296680450439453125</LongitudeDegrees>
            </Position>
            <AltitudeMeters>2501.60009765625</AltitudeMeters>
            <DistanceMeters>1638.7787704065</DistanceMeters>
          </Trackpoint>
          <Trackpoint>
            <Time>2019-04-07T12:23:09.000Z</Time>
            <Position>
              <LatitudeDegrees>28.262877948582172393798828125</LatitudeDegrees>
              <LongitudeDegrees>-16.602092944085597991943359375</LongitudeDegrees>
            </Position>
            <AltitudeMeters>2502.60009765625</AltitudeMeters>
            <DistanceMeters>1648.8305128093</DistanceMeters>
          </Trackpoint>
          <Trackpoint>
            <Time>2019-04-07T12:23:20.000Z</Time>
            <Position>
              <LatitudeDegrees>28.26297308318316936492919921875</LatitudeDegrees>
              <LongitudeDegrees>-16.60201423801481723785400390625</LongitudeDegrees>
            </Position>
            <AltitudeMeters>2504</AltitudeMeters>
            <DistanceMeters>1661.9324879733</DistanceMeters>
          </Trackpoint>
          <Trackpoint>
            <Time>2019-04-07T12:23:28.000Z</Time>
            <Position>
              <LatitudeDegrees>28.26302639208734035491943359375</LatitudeDegrees>
              <LongitudeDegrees>-16.6019358672201633453369140625</LongitudeDegrees>
            </Position>
            <AltitudeMeters>2504.39990234375</AltitudeMeters>
            <DistanceMeters>1671.6401075461</DistanceMeters>
          </Trackpoint>
          <Trackpoint>
            <Time>2019-04-07T12:23:31.000Z</Time>
            <Position>
              <LatitudeDegrees>28.2630491070449352264404296875</LatitudeDegrees>
              <LongitudeDegrees>-16.6019080393016338348388671875</LongitudeDegrees>
            </Position>
            <AltitudeMeters>2505.199951171875</AltitudeMeters>
            <DistanceMeters>1675.3595264674</DistanceMeters>
          </Trackpoint>
          <Trackpoint>
            <Time>2019-04-07T12:23:37.000Z</Time>
            <Position>
              <LatitudeDegrees>28.26309411786496639251708984375</LatitudeDegrees>
              <LongitudeDegrees>-16.60184978507459163665771484375</LongitudeDegrees>
            </Position>
            <AltitudeMeters>2506.199951171875</AltitudeMeters>
            <DistanceMeters>1682.9569107955</DistanceMeters>
          </Trackpoint>
          <Trackpoint>
            <Time>2019-04-07T12:23:38.000Z</Time>
            <Position>
              <LatitudeDegrees>28.2631024159491062164306640625</LatitudeDegrees>
              <LongitudeDegrees>-16.6018399782478809356689453125</LongitudeDegrees>
            </Position>
            <AltitudeMeters>2506.60009765625</AltitudeMeters>
            <DistanceMeters>1684.2872847967</DistanceMeters>
          </Trackpoint>
          <Trackpoint>
            <Time>2019-04-07T12:23:44.000Z</Time>
            <Position>
              <LatitudeDegrees>28.263155557215213775634765625</LatitudeDegrees>
              <LongitudeDegrees>-16.60178105346858501434326171875</LongitudeDegrees>
            </Position>
            <AltitudeMeters>2507.60009765625</AltitudeMeters>
            <DistanceMeters>1692.5546089469</DistanceMeters>
          </Trackpoint>
          <Trackpoint>
            <Time>2019-04-07T12:23:49.000Z</Time>
            <Position>
              <LatitudeDegrees>28.26320107094943523406982421875</LatitudeDegrees>
              <LongitudeDegrees>-16.60173696465790271759033203125</LongitudeDegrees>
            </Position>
            <AltitudeMeters>2509</AltitudeMeters>
            <DistanceMeters>1699.2132631157</DistanceMeters>
          </Trackpoint>
          <Trackpoint>
            <Time>2019-04-07T12:23:50.000Z</Time>
            <Position>
              <LatitudeDegrees>28.26321029104292392730712890625</LatitudeDegrees>
              <LongitudeDegrees>-16.60172925330698490142822265625</LongitudeDegrees>
            </Position>
            <AltitudeMeters>2509.39990234375</AltitudeMeters>
            <DistanceMeters>1700.4917168053</DistanceMeters>
          </Trackpoint>
          <Trackpoint>
            <Time>2019-04-07T12:23:51.000Z</Time>
            <Position>
              <LatitudeDegrees>28.26321867294609546661376953125</LatitudeDegrees>
              <LongitudeDegrees>-16.60172120667994022369384765625</LongitudeDegrees>
            </Position>
            <AltitudeMeters>2510</AltitudeMeters>
            <DistanceMeters>1701.7160503749</DistanceMeters>
          </Trackpoint>
          <Trackpoint>
            <Time>2019-04-07T12:23:53.000Z</Time>
            <Position>
              <LatitudeDegrees>28.2632365263998508453369140625</LatitudeDegrees>
              <LongitudeDegrees>-16.6017055325210094451904296875</LongitudeDegrees>
            </Position>
            <AltitudeMeters>2511.199951171875</AltitudeMeters>
            <DistanceMeters>1704.2284244383</DistanceMeters>
          </Trackpoint>
          <Trackpoint>
            <Time>2019-04-07T12:24:00.000Z</Time>
            <Position>
              <LatitudeDegrees>28.26330467127263545989990234375</LatitudeDegrees>
              <LongitudeDegrees>-16.60165633074939250946044921875</LongitudeDegrees>
            </Position>
            <AltitudeMeters>2510.800048828125</AltitudeMeters>
            <DistanceMeters>1713.2163643506</DistanceMeters>
          </Trackpoint>
          <Trackpoint>
            <Time>2019-04-07T12:24:11.000Z</Time>
            <Position>
              <LatitudeDegrees>28.26341514475643634796142578125</LatitudeDegrees>
              <LongitudeDegrees>-16.60157569684088230133056640625</LongitudeDegrees>
            </Position>
            <AltitudeMeters>2511.60009765625</AltitudeMeters>
            <DistanceMeters>1727.834117218</DistanceMeters>
          </Trackpoint>
          <Trackpoint>
            <Time>2019-04-07T12:24:21.000Z</Time>
            <Position>
              <LatitudeDegrees>28.26351933181285858154296875</LatitudeDegrees>
              <LongitudeDegrees>-16.60150310955941677093505859375</LongitudeDegrees>
            </Position>
            <AltitudeMeters>2511.199951171875</AltitudeMeters>
            <DistanceMeters>1741.4392084323</DistanceMeters>
          </Trackpoint>
          <Trackpoint>
            <Time>2019-04-07T12:24:24.000Z</Time>
            <Position>
              <LatitudeDegrees>28.2635500095784664154052734375</LatitudeDegrees>
              <LongitudeDegrees>-16.60148047842085361480712890625</LongitudeDegrees>
            </Position>
            <AltitudeMeters>2512.39990234375</AltitudeMeters>
            <DistanceMeters>1745.5109673091</DistanceMeters>
          </Trackpoint>
          <Trackpoint>
            <Time>2019-04-07T12:24:26.000Z</Time>
            <Position>
              <LatitudeDegrees>28.2635697908699512481689453125</LatitudeDegrees>
              <LongitudeDegrees>-16.601465642452239990234375</LongitudeDegrees>
            </Position>
            <AltitudeMeters>2513.39990234375</AltitudeMeters>
            <DistanceMeters>1748.1478516187</DistanceMeters>
          </Trackpoint>
          <Trackpoint>
            <Time>2019-04-07T12:24:31.000Z</Time>
            <Position>
              <LatitudeDegrees>28.26362268067896366119384765625</LatitudeDegrees>
              <LongitudeDegrees>-16.60143152810633182525634765625</LongitudeDegrees>
            </Position>
            <AltitudeMeters>2513.199951171875</AltitudeMeters>
            <DistanceMeters>1754.9181299017</DistanceMeters>
          </Trackpoint>
          <Trackpoint>
            <Time>2019-04-07T12:24:41.000Z</Time>
            <Position>
              <LatitudeDegrees>28.26372141949832439422607421875</LatitudeDegrees>
              <LongitudeDegrees>-16.60136170685291290283203125</LongitudeDegrees>
            </Position>
            <AltitudeMeters>2513.199951171875</AltitudeMeters>
            <DistanceMeters>1767.8651492123</DistanceMeters>
          </Trackpoint>
          <Trackpoint>
            <Time>2019-04-07T12:24:44.000Z</Time>
            <Position>
              <LatitudeDegrees>28.26374840922653675079345703125</LatitudeDegrees>
              <LongitudeDegrees>-16.6013370640575885772705078125</LongitudeDegrees>
            </Position>
            <AltitudeMeters>2513.800048828125</AltitudeMeters>
            <DistanceMeters>1771.7204709663</DistanceMeters>
          </Trackpoint>
          <Trackpoint>
            <Time>2019-04-07T12:24:47.000Z</Time>
            <Position>
              <LatitudeDegrees>28.2637779973447322845458984375</LatitudeDegrees>
              <LongitudeDegrees>-16.60132524557411670684814453125</LongitudeDegrees>
            </Position>
            <AltitudeMeters>2513.199951171875</AltitudeMeters>
            <DistanceMeters>1775.2119753984</DistanceMeters>
          </Trackpoint>
          <Trackpoint>
            <Time>2019-04-07T12:24:48.000Z</Time>
            <Position>
              <LatitudeDegrees>28.2637873850762844085693359375</LatitudeDegrees>
              <LongitudeDegrees>-16.6013169474899768829345703125</LongitudeDegrees>
            </Position>
            <AltitudeMeters>2512.60009765625</AltitudeMeters>
            <DistanceMeters>1776.5355443728</DistanceMeters>
          </Trackpoint>
          <Trackpoint>
            <Time>2019-04-07T12:24:55.000Z</Time>
            <Position>
              <LatitudeDegrees>28.263855278491973876953125</LatitudeDegrees>
              <LongitudeDegrees>-16.60126187838613986968994140625</LongitudeDegrees>
            </Position>
            <AltitudeMeters>2511.39990234375</AltitudeMeters>
            <DistanceMeters>1785.8219446463</DistanceMeters>
          </Trackpoint>
          <Trackpoint>
            <Time>2019-04-07T12:24:57.000Z</Time>
            <Position>
              <LatitudeDegrees>28.26387740671634674072265625</LatitudeDegrees>
              <LongitudeDegrees>-16.60124829970300197601318359375</LongitudeDegrees>
            </Position>
            <AltitudeMeters>2511.199951171875</AltitudeMeters>
            <DistanceMeters>1788.6216064747</DistanceMeters>
          </Trackpoint>
          <Trackpoint>
            <Time>2019-04-07T12:25:00.000Z</Time>
            <Position>
              <LatitudeDegrees>28.263907916843891143798828125</LatitudeDegrees>
              <LongitudeDegrees>-16.60122835077345371246337890625</LongitudeDegrees>
            </Position>
            <AltitudeMeters>2510.199951171875</AltitudeMeters>
            <DistanceMeters>1792.5396582807</DistanceMeters>
          </Trackpoint>
          <Trackpoint>
            <Time>2019-04-07T12:25:03.000Z</Time>
            <Position>
              <LatitudeDegrees>28.26393641531467437744140625</LatitudeDegrees>
              <LongitudeDegrees>-16.60120571963489055633544921875</LongitudeDegrees>
            </Position>
            <AltitudeMeters>2509.199951171875</AltitudeMeters>
            <DistanceMeters>1796.4090079346</DistanceMeters>
          </Trackpoint>
          <Trackpoint>
            <Time>2019-04-07T12:25:07.000Z</Time>
            <Position>
              <LatitudeDegrees>28.2639748044312000274658203125</LatitudeDegrees>
              <LongitudeDegrees>-16.60117303021252155303955078125</LongitudeDegrees>
            </Position>
            <AltitudeMeters>2508.60009765625</AltitudeMeters>
            <DistanceMeters>1801.7499827039</DistanceMeters>
          </Trackpoint>
          <Trackpoint>
            <Time>2019-04-07T12:25:15.000Z</Time>
            <Position>
              <LatitudeDegrees>28.2640485651791095733642578125</LatitudeDegrees>
              <LongitudeDegrees>-16.60111092031002044677734375</LongitudeDegrees>
            </Position>
            <AltitudeMeters>2508.199951171875</AltitudeMeters>
            <DistanceMeters>1811.9709882504</DistanceMeters>
          </Trackpoint>
          <Trackpoint>
            <Time>2019-04-07T12:25:18.000Z</Time>
            <Position>
              <LatitudeDegrees>28.26407815329730510711669921875</LatitudeDegrees>
              <LongitudeDegrees>-16.60108854062855243682861328125</LongitudeDegrees>
            </Position>
            <AltitudeMeters>2507.800048828125</AltitudeMeters>
            <DistanceMeters>1815.9280266067</DistanceMeters>
          </Trackpoint>
          <Trackpoint>
            <Time>2019-04-07T12:25:28.000Z</Time>
            <Position>
              <LatitudeDegrees>28.26417471282184123992919921875</LatitudeDegrees>
              <LongitudeDegrees>-16.601025760173797607421875</LongitudeDegrees>
            </Position>
            <AltitudeMeters>2508</AltitudeMeters>
            <DistanceMeters>1828.3128915021</DistanceMeters>
          </Trackpoint>
          <Trackpoint>
            <Time>2019-04-07T12:25:38.000Z</Time>
            <Position>
              <LatitudeDegrees>28.2642869465053081512451171875</LatitudeDegrees>
              <LongitudeDegrees>-16.60099315457046031951904296875</LongitudeDegrees>
            </Position>
            <AltitudeMeters>2508.39990234375</AltitudeMeters>
            <DistanceMeters>1841.2071447758</DistanceMeters>
          </Trackpoint>
          <Trackpoint>
            <Time>2019-04-07T12:25:42.000Z</Time>
            <Position>
              <LatitudeDegrees>28.2643362320959568023681640625</LatitudeDegrees>
              <LongitudeDegrees>-16.60098209045827388763427734375</LongitudeDegrees>
            </Position>
            <AltitudeMeters>2508.800048828125</AltitudeMeters>
            <DistanceMeters>1846.7992065356</DistanceMeters>
          </Trackpoint>
          <Trackpoint>
            <Time>2019-04-07T12:25:45.000Z</Time>
            <Position>
              <LatitudeDegrees>28.26437495648860931396484375</LatitudeDegrees>
              <LongitudeDegrees>-16.6009810008108615875244140625</LongitudeDegrees>
            </Position>
            <AltitudeMeters>2509.199951171875</AltitudeMeters>
            <DistanceMeters>1851.1122051995</DistanceMeters>
          </Trackpoint>
          <Trackpoint>
            <Time>2019-04-07T12:25:48.000Z</Time>
            <Position>
              <LatitudeDegrees>28.2644133456051349639892578125</LatitudeDegrees>
              <LongitudeDegrees>-16.600981839001178741455078125</LongitudeDegrees>
            </Position>
            <AltitudeMeters>2509.800048828125</AltitudeMeters>
            <DistanceMeters>1855.3862951197</DistanceMeters>
          </Trackpoint>
          <Trackpoint>
            <Time>2019-04-07T12:25:57.000Z</Time>
            <Position>
              <LatitudeDegrees>28.264520801603794097900390625</LatitudeDegrees>
              <LongitudeDegrees>-16.60100103355944156646728515625</LongitudeDegrees>
            </Position>
            <AltitudeMeters>2509.800048828125</AltitudeMeters>
            <DistanceMeters>1867.4935339013</DistanceMeters>
          </Trackpoint>
          <Trackpoint>
            <Time>2019-04-07T12:26:06.000Z</Time>
            <Position>
              <LatitudeDegrees>28.2646215520799160003662109375</LatitudeDegrees>
              <LongitudeDegrees>-16.60104260779917240142822265625</LongitudeDegrees>
            </Position>
            <AltitudeMeters>2510.39990234375</AltitudeMeters>
            <DistanceMeters>1879.4245910658</DistanceMeters>
          </Trackpoint>
          <Trackpoint>
            <Time>2019-04-07T12:26:09.000Z</Time>
            <Position>
              <LatitudeDegrees>28.26465516351163387298583984375</LatitudeDegrees>
              <LongitudeDegrees>-16.60105526447296142578125</LongitudeDegrees>
            </Position>
            <AltitudeMeters>2510.60009765625</AltitudeMeters>
            <DistanceMeters>1883.3667683272</DistanceMeters>
          </Trackpoint>
          <Trackpoint>
            <Time>2019-04-07T12:26:20.000Z</Time>
            <Position>
              <LatitudeDegrees>28.2647694088518619537353515625</LatitudeDegrees>
              <LongitudeDegrees>-16.60110555589199066162109375</LongitudeDegrees>
            </Position>
            <AltitudeMeters>2511.199951171875</AltitudeMeters>
            <DistanceMeters>1897.0050055517</DistanceMeters>
          </Trackpoint>
          <Trackpoint>
            <Time>2019-04-07T12:26:22.000Z</Time>
            <Position>
              <LatitudeDegrees>28.26479044742882251739501953125</LatitudeDegrees>
              <LongitudeDegrees>-16.6011141054332256317138671875</LongitudeDegrees>
            </Position>
            <AltitudeMeters>2511.39990234375</AltitudeMeters>
            <DistanceMeters>1899.4939074061</DistanceMeters>
          </Trackpoint>
          <Trackpoint>
            <Time>2019-04-07T12:26:28.000Z</Time>
            <Position>
              <LatitudeDegrees>28.264847360551357269287109375</LatitudeDegrees>
              <LongitudeDegrees>-16.60115190781652927398681640625</LongitudeDegrees>
            </Position>
            <AltitudeMeters>2512.199951171875</AltitudeMeters>
            <DistanceMeters>1906.8325296141</DistanceMeters>
          </Trackpoint>
          <Trackpoint>
            <Time>2019-04-07T12:26:30.000Z</Time>
            <Position>
              <LatitudeDegrees>28.264865465462207794189453125</LatitudeDegrees>
              <LongitudeDegrees>-16.60116481594741344451904296875</LongitudeDegrees>
            </Position>
            <AltitudeMeters>2512.39990234375</AltitudeMeters>
            <DistanceMeters>1909.2138922506</DistanceMeters>
          </Trackpoint>
          <Trackpoint>
            <Time>2019-04-07T12:26:40.000Z</Time>
            <Position>
              <LatitudeDegrees>28.26495188288390636444091796875</LatitudeDegrees>
              <LongitudeDegrees>-16.6012250818312168121337890625</LongitudeDegrees>
            </Position>
            <AltitudeMeters>2512.60009765625</AltitudeMeters>
            <DistanceMeters>1920.502090012</DistanceMeters>
          </Trackpoint>
          <Trackpoint>
            <Time>2019-04-07T12:26:46.000Z</Time>
            <Position>
              <LatitudeDegrees>28.265002928674221038818359375</LatitudeDegrees>
              <LongitudeDegrees>-16.6012711822986602783203125</LongitudeDegrees>
            </Position>
            <AltitudeMeters>2513.199951171875</AltitudeMeters>
            <DistanceMeters>1927.762155866</DistanceMeters>
          </Trackpoint>
          <Trackpoint>
            <Time>2019-04-07T12:26:49.000Z</Time>
            <Position>
              <LatitudeDegrees>28.26503067277371883392333984375</LatitudeDegrees>
              <LongitudeDegrees>-16.601286940276622772216796875</LongitudeDegrees>
            </Position>
            <AltitudeMeters>2513.800048828125</AltitudeMeters>
            <DistanceMeters>1931.2159553654</DistanceMeters>
          </Trackpoint>
          <Trackpoint>
            <Time>2019-04-07T12:26:51.000Z</Time>
            <Position>
              <LatitudeDegrees>28.26504827477037906646728515625</LatitudeDegrees>
              <LongitudeDegrees>-16.6013011895120143890380859375</LongitudeDegrees>
            </Position>
            <AltitudeMeters>2514.39990234375</AltitudeMeters>
            <DistanceMeters>1933.6218396105</DistanceMeters>
          </Trackpoint>
          <Trackpoint>
            <Time>2019-04-07T12:26:58.000Z</Time>
            <Position>
              <LatitudeDegrees>28.265106193721294403076171875</LatitudeDegrees>
              <LongitudeDegrees>-16.601359359920024871826171875</LongitudeDegrees>
            </Position>
            <AltitudeMeters>2515</AltitudeMeters>
            <DistanceMeters>1942.2284485286</DistanceMeters>
          </Trackpoint>
          <Trackpoint>
            <Time>2019-04-07T12:26:59.000Z</Time>
            <Position>
              <LatitudeDegrees>28.26511516235768795013427734375</LatitudeDegrees>
              <LongitudeDegrees>-16.60136179067194461822509765625</LongitudeDegrees>
            </Position>
            <AltitudeMeters>2515</AltitudeMeters>
            <DistanceMeters>1943.2519175645</DistanceMeters>
          </Trackpoint>
          <Trackpoint>
            <Time>2019-04-07T12:27:02.000Z</Time>
            <Position>
              <LatitudeDegrees>28.26514047570526599884033203125</LatitudeDegrees>
              <LongitudeDegrees>-16.6013876907527446746826171875</LongitudeDegrees>
            </Position>
            <AltitudeMeters>2515.39990234375</AltitudeMeters>
            <DistanceMeters>1947.0446621875</DistanceMeters>
          </Trackpoint>
          <Trackpoint>
            <Time>2019-04-07T12:27:08.000Z</Time>
            <Position>
              <LatitudeDegrees>28.26518557034432888031005859375</LatitudeDegrees>
              <LongitudeDegrees>-16.6014401614665985107421875</LongitudeDegrees>
            </Position>
            <AltitudeMeters>2516.39990234375</AltitudeMeters>
            <DistanceMeters>1954.2309691099</DistanceMeters>
          </Trackpoint>
          <Trackpoint>
            <Time>2019-04-07T12:27:09.000Z</Time>
            <Position>
              <LatitudeDegrees>28.26519227586686611175537109375</LatitudeDegrees>
              <LongitudeDegrees>-16.6014477051794528961181640625</LongitudeDegrees>
            </Position>
            <AltitudeMeters>2516.60009765625</AltitudeMeters>
            <DistanceMeters>1955.2805734764</DistanceMeters>
          </Trackpoint>
          <Trackpoint>
            <Time>2019-04-07T12:27:17.000Z</Time>
            <Position>
              <LatitudeDegrees>28.26524533331394195556640625</LatitudeDegrees>
              <LongitudeDegrees>-16.60150964744389057159423828125</LongitudeDegrees>
            </Position>
            <AltitudeMeters>2516.39990234375</AltitudeMeters>
            <DistanceMeters>1963.7512869897</DistanceMeters>
          </Trackpoint>
          <Trackpoint>
            <Time>2019-04-07T12:27:28.000Z</Time>
            <Position>
              <LatitudeDegrees>28.26531398110091686248779296875</LatitudeDegrees>
              <LongitudeDegrees>-16.60161157138645648956298828125</LongitudeDegrees>
            </Position>
            <AltitudeMeters>2516.800048828125</AltitudeMeters>
            <DistanceMeters>1976.3293209894</DistanceMeters>
          </Trackpoint>
          <Trackpoint>
            <Time>2019-04-07T12:27:38.000Z</Time>
            <Position>
              <LatitudeDegrees>28.26538841240108013153076171875</LatitudeDegrees>
              <LongitudeDegrees>-16.60170846618711948394775390625</LongitudeDegrees>
            </Position>
            <AltitudeMeters>2516.800048828125</AltitudeMeters>
            <DistanceMeters>1988.9335319873</DistanceMeters>
          </Trackpoint>
          <Trackpoint>
            <Time>2019-04-07T12:27:40.000Z</Time>
            <Position>
              <LatitudeDegrees>28.26540132053196430206298828125</LatitudeDegrees>
              <LongitudeDegrees>-16.6017310135066509246826171875</LongitudeDegrees>
            </Position>
            <AltitudeMeters>2517.39990234375</AltitudeMeters>
            <DistanceMeters>1991.568703478</DistanceMeters>
          </Trackpoint>
          <Trackpoint>
            <Time>2019-04-07T12:27:45.000Z</Time>
            <Position>
              <LatitudeDegrees>28.26544121839106082916259765625</LatitudeDegrees>
              <LongitudeDegrees>-16.6017772816121578216552734375</LongitudeDegrees>
            </Position>
            <AltitudeMeters>2518.60009765625</AltitudeMeters>
            <DistanceMeters>1997.9156059521</DistanceMeters>
          </Trackpoint>
          <Trackpoint>
            <Time>2019-04-07T12:27:48.000Z</Time>
            <Position>
              <LatitudeDegrees>28.2654647715389728546142578125</LatitudeDegrees>
              <LongitudeDegrees>-16.60180401988327503204345703125</LongitudeDegrees>
            </Position>
            <AltitudeMeters>2519.199951171875</AltitudeMeters>
            <DistanceMeters>2001.6216478125</DistanceMeters>
          </Trackpoint>
          <Trackpoint>
            <Time>2019-04-07T12:27:51.000Z</Time>
            <Position>
              <LatitudeDegrees>28.26548673212528228759765625</LatitudeDegrees>
              <LongitudeDegrees>-16.60183285363018512725830078125</LongitudeDegrees>
            </Position>
            <AltitudeMeters>2519.39990234375</AltitudeMeters>
            <DistanceMeters>2005.3580228181</DistanceMeters>
          </Trackpoint>
          <Trackpoint>
            <Time>2019-04-07T12:28:01.000Z</Time>
            <Position>
              <LatitudeDegrees>28.26556778512895107269287109375</LatitudeDegrees>
              <LongitudeDegrees>-16.6019150801002979278564453125</LongitudeDegrees>
            </Position>
            <AltitudeMeters>2520.60009765625</AltitudeMeters>
            <DistanceMeters>2017.4563081958</DistanceMeters>
          </Trackpoint>
          <Trackpoint>
            <Time>2019-04-07T12:28:06.000Z</Time>
            <Position>
              <LatitudeDegrees>28.26561137102544307708740234375</LatitudeDegrees>
              <LongitudeDegrees>-16.60195439122617244720458984375</LongitudeDegrees>
            </Position>
            <AltitudeMeters>2522</AltitudeMeters>
            <DistanceMeters>2023.6527495164</DistanceMeters>
          </Trackpoint>
          <Trackpoint>
            <Time>2019-04-07T12:28:11.000Z</Time>
            <Position>
              <LatitudeDegrees>28.26565411873161792755126953125</LatitudeDegrees>
              <LongitudeDegrees>-16.6019958816468715667724609375</LongitudeDegrees>
            </Position>
            <AltitudeMeters>2522.39990234375</AltitudeMeters>
            <DistanceMeters>2029.9115410622</DistanceMeters>
          </Trackpoint>
          <Trackpoint>
            <Time>2019-04-07T12:28:12.000Z</Time>
            <Position>
              <LatitudeDegrees>28.26566199772059917449951171875</LatitudeDegrees>
              <LongitudeDegrees>-16.60200451500713825225830078125</LongitudeDegrees>
            </Position>
            <AltitudeMeters>2522.39990234375</AltitudeMeters>
            <DistanceMeters>2031.1284767782</DistanceMeters>
          </Trackpoint>
          <Trackpoint>
            <Time>2019-04-07T12:28:21.000Z</Time>
            <Position>
              <LatitudeDegrees>28.2657341659069061279296875</LatitudeDegrees>
              <LongitudeDegrees>-16.60207827575504779815673828125</LongitudeDegrees>
            </Position>
            <AltitudeMeters>2522.60009765625</AltitudeMeters>
            <DistanceMeters>2041.936068499</DistanceMeters>
          </Trackpoint>
          <Trackpoint>
            <Time>2019-04-07T12:28:29.000Z</Time>
            <Position>
              <LatitudeDegrees>28.265790157020092010498046875</LatitudeDegrees>
              <LongitudeDegrees>-16.6021584905683994293212890625</LongitudeDegrees>
            </Position>
            <AltitudeMeters>2522.800048828125</AltitudeMeters>
            <DistanceMeters>2051.9693776339</DistanceMeters>
          </Trackpoint>
          <Trackpoint>
            <Time>2019-04-07T12:28:30.000Z</Time>
            <Position>
              <LatitudeDegrees>28.26579811982810497283935546875</LatitudeDegrees>
              <LongitudeDegrees>-16.60216712392866611480712890625</LongitudeDegrees>
            </Position>
            <AltitudeMeters>2523</AltitudeMeters>
            <DistanceMeters>2053.1937112035</DistanceMeters>
          </Trackpoint>
          <Trackpoint>
            <Time>2019-04-07T12:28:37.000Z</Time>
            <Position>
              <LatitudeDegrees>28.26583198271691799163818359375</LatitudeDegrees>
              <LongitudeDegrees>-16.60220785997807979583740234375</LongitudeDegrees>
            </Position>
            <AltitudeMeters>2523.800048828125</AltitudeMeters>
            <DistanceMeters>2058.6847425499</DistanceMeters>
          </Trackpoint>
          <Trackpoint>
            <Time>2019-04-07T12:28:45.000Z</Time>
            <Position>
              <LatitudeDegrees>28.265853188931941986083984375</LatitudeDegrees>
              <LongitudeDegrees>-16.60222697071731090545654296875</LongitudeDegrees>
            </Position>
            <AltitudeMeters>2524.39990234375</AltitudeMeters>
            <DistanceMeters>2061.6987526531</DistanceMeters>
          </Trackpoint>
          <Trackpoint>
            <Time>2019-04-07T12:28:54.000Z</Time>
            <Position>
              <LatitudeDegrees>28.2659165561199188232421875</LatitudeDegrees>
              <LongitudeDegrees>-16.60229737870395183563232421875</LongitudeDegrees>
            </Position>
            <AltitudeMeters>2524.199951171875</AltitudeMeters>
            <DistanceMeters>2071.5669006238</DistanceMeters>
          </Trackpoint>
          <Trackpoint>
            <Time>2019-04-07T12:28:58.000Z</Time>
            <Position>
              <LatitudeDegrees>28.2659482397139072418212890625</LatitudeDegrees>
              <LongitudeDegrees>-16.6023351810872554779052734375</LongitudeDegrees>
            </Position>
            <AltitudeMeters>2525</AltitudeMeters>
            <DistanceMeters>2076.6815982159</DistanceMeters>
          </Trackpoint>
          <Trackpoint>
            <Time>2019-04-07T12:29:04.000Z</Time>
            <Position>
              <LatitudeDegrees>28.2659958489239215850830078125</LatitudeDegrees>
              <LongitudeDegrees>-16.6023928485810756683349609375</LongitudeDegrees>
            </Position>
            <AltitudeMeters>2525.800048828125</AltitudeMeters>
            <DistanceMeters>2084.4296268812</DistanceMeters>
          </Trackpoint>
          <Trackpoint>
            <Time>2019-04-07T12:29:14.000Z</Time>
            <Position>
              <LatitudeDegrees>28.2660800032317638397216796875</LatitudeDegrees>
              <LongitudeDegrees>-16.602489240467548370361328125</LongitudeDegrees>
            </Position>
            <AltitudeMeters>2526</AltitudeMeters>
            <DistanceMeters>2097.7347243483</DistanceMeters>
          </Trackpoint>
          <Trackpoint>
            <Time>2019-04-07T12:29:16.000Z</Time>
            <Position>
              <LatitudeDegrees>28.2660977728664875030517578125</LatitudeDegrees>
              <LongitudeDegrees>-16.60250726155936717987060546875</LongitudeDegrees>
            </Position>
            <AltitudeMeters>2526.39990234375</AltitudeMeters>
            <DistanceMeters>2100.3886760483</DistanceMeters>
          </Trackpoint>
          <Trackpoint>
            <Time>2019-04-07T12:29:23.000Z</Time>
            <Position>
              <LatitudeDegrees>28.26615552417933940887451171875</LatitudeDegrees>
              <LongitudeDegrees>-16.60257280804216861724853515625</LongitudeDegrees>
            </Position>
            <AltitudeMeters>2527.199951171875</AltitudeMeters>
            <DistanceMeters>2109.4775230219</DistanceMeters>
          </Trackpoint>
          <Trackpoint>
            <Time>2019-04-07T12:29:27.000Z</Time>
            <Position>
              <LatitudeDegrees>28.2661856152117252349853515625</LatitudeDegrees>
              <LongitudeDegrees>-16.602613963186740875244140625</LongitudeDegrees>
            </Position>
            <AltitudeMeters>2527.60009765625</AltitudeMeters>
            <DistanceMeters>2114.7221023996</DistanceMeters>
          </Trackpoint>
          <Trackpoint>
            <Time>2019-04-07T12:29:34.000Z</Time>
            <Position>
              <LatitudeDegrees>28.26624034903943538665771484375</LatitudeDegrees>
              <LongitudeDegrees>-16.60268261097371578216552734375</LongitudeDegrees>
            </Position>
            <AltitudeMeters>2528</AltitudeMeters>
            <DistanceMeters>2123.7995165441</DistanceMeters>
          </Trackpoint>
          <Trackpoint>
            <Time>2019-04-07T12:29:37.000Z</Time>
            <Position>
              <LatitudeDegrees>28.266262896358966827392578125</LatitudeDegrees>
              <LongitudeDegrees>-16.60271295346319675445556640625</LongitudeDegrees>
            </Position>
            <AltitudeMeters>2528.39990234375</AltitudeMeters>
            <DistanceMeters>2127.6909736229</DistanceMeters>
          </Trackpoint>
          <Trackpoint>
            <Time>2019-04-07T12:29:40.000Z</Time>
            <Position>
              <LatitudeDegrees>28.26628594659268856048583984375</LatitudeDegrees>
              <LongitudeDegrees>-16.6027432121336460113525390625</LongitudeDegrees>
            </Position>
            <AltitudeMeters>2529</AltitudeMeters>
            <DistanceMeters>2131.6124810096</DistanceMeters>
          </Trackpoint>
          <Trackpoint>
            <Time>2019-04-07T12:29:43.000Z</Time>
            <Position>
              <LatitudeDegrees>28.2663103379309177398681640625</LatitudeDegrees>
              <LongitudeDegrees>-16.60277263261377811431884765625</LongitudeDegrees>
            </Position>
            <AltitudeMeters>2529.39990234375</AltitudeMeters>
            <DistanceMeters>2135.574080795</DistanceMeters>
          </Trackpoint>
          <Trackpoint>
            <Time>2019-04-07T12:29:47.000Z</Time>
            <Position>
              <LatitudeDegrees>28.26634596101939678192138671875</LatitudeDegrees>
              <LongitudeDegrees>-16.602805741131305694580078125</LongitudeDegrees>
            </Position>
            <AltitudeMeters>2529.39990234375</AltitudeMeters>
            <DistanceMeters>2140.6984795206</DistanceMeters>
          </Trackpoint>
          <Trackpoint>
            <Time>2019-04-07T12:29:50.000Z</Time>
            <Position>
              <LatitudeDegrees>28.266371525824069976806640625</LatitudeDegrees>
              <LongitudeDegrees>-16.6028322279453277587890625</LongitudeDegrees>
            </Position>
            <AltitudeMeters>2530</AltitudeMeters>
            <DistanceMeters>2144.5502863171</DistanceMeters>
          </Trackpoint>
          <Trackpoint>
            <Time>2019-04-07T12:29:55.000Z</Time>
            <Position>
              <LatitudeDegrees>28.2664206437766551971435546875</LatitudeDegrees>
              <LongitudeDegrees>-16.6028659231960773468017578125</LongitudeDegrees>
            </Position>
            <AltitudeMeters>2531.199951171875</AltitudeMeters>
            <DistanceMeters>2150.9376085553</DistanceMeters>
          </Trackpoint>
          <Trackpoint>
            <Time>2019-04-07T12:29:56.000Z</Time>
            <Position>
              <LatitudeDegrees>28.26643128879368305206298828125</LatitudeDegrees>
              <LongitudeDegrees>-16.60287086851894855499267578125</LongitudeDegrees>
            </Position>
            <AltitudeMeters>2531.39990234375</AltitudeMeters>
            <DistanceMeters>2152.2195890203</DistanceMeters>
          </Trackpoint>
          <Trackpoint>
            <Time>2019-04-07T12:30:03.000Z</Time>
            <Position>
              <LatitudeDegrees>28.266505636274814605712890625</LatitudeDegrees>
              <LongitudeDegrees>-16.602900288999080657958984375</LongitudeDegrees>
            </Position>
            <AltitudeMeters>2532.39990234375</AltitudeMeters>
            <DistanceMeters>2160.9831955927</DistanceMeters>
          </Trackpoint>
          <Trackpoint>
            <Time>2019-04-07T12:30:06.000Z</Time>
            <Position>
              <LatitudeDegrees>28.2665361464023590087890625</LatitudeDegrees>
              <LongitudeDegrees>-16.602917723357677459716796875</LongitudeDegrees>
            </Position>
            <AltitudeMeters>2532.60009765625</AltitudeMeters>
            <DistanceMeters>2164.7842641675</DistanceMeters>
          </Trackpoint>
          <Trackpoint>
            <Time>2019-04-07T12:30:11.000Z</Time>
            <Position>
              <LatitudeDegrees>28.26659456826746463775634765625</LatitudeDegrees>
              <LongitudeDegrees>-16.602942533791065216064453125</LongitudeDegrees>
            </Position>
            <AltitudeMeters>2533.39990234375</AltitudeMeters>
            <DistanceMeters>2171.7264193071</DistanceMeters>
          </Trackpoint>
          <Trackpoint>
            <Time>2019-04-07T12:30:17.000Z</Time>
            <Position>
              <LatitudeDegrees>28.266653828322887420654296875</LatitudeDegrees>
              <LongitudeDegrees>-16.60298838280141353607177734375</LongitudeDegrees>
            </Position>
            <AltitudeMeters>2533.199951171875</AltitudeMeters>
            <DistanceMeters>2179.7075319636</DistanceMeters>
          </Trackpoint>
          <Trackpoint>
            <Time>2019-04-07T12:30:22.000Z</Time>
            <Position>
              <LatitudeDegrees>28.2666962407529354095458984375</LatitudeDegrees>
              <LongitudeDegrees>-16.60303280688822269439697265625</LongitudeDegrees>
            </Position>
            <AltitudeMeters>2532.39990234375</AltitudeMeters>
            <DistanceMeters>2186.1301007017</DistanceMeters>
          </Trackpoint>
          <Trackpoint>
            <Time>2019-04-07T12:30:25.000Z</Time>
            <Position>
              <LatitudeDegrees>28.26671962626278400421142578125</LatitudeDegrees>
              <LongitudeDegrees>-16.60306281410157680511474609375</LongitudeDegrees>
            </Position>
            <AltitudeMeters>2532.199951171875</AltitudeMeters>
            <DistanceMeters>2190.0573606328</DistanceMeters>
          </Trackpoint>
          <Trackpoint>
            <Time>2019-04-07T12:30:36.000Z</Time>
            <Position>
              <LatitudeDegrees>28.266793303191661834716796875</LatitudeDegrees>
              <LongitudeDegrees>-16.603177897632122039794921875</LongitudeDegrees>
            </Position>
            <AltitudeMeters>2532.60009765625</AltitudeMeters>
            <DistanceMeters>2204.0042913589</DistanceMeters>
          </Trackpoint>
          <Trackpoint>
            <Time>2019-04-07T12:30:45.000Z</Time>
            <Position>
              <LatitudeDegrees>28.26685071922838687896728515625</LatitudeDegrees>
              <LongitudeDegrees>-16.603278480470180511474609375</LongitudeDegrees>
            </Position>
            <AltitudeMeters>2533</AltitudeMeters>
            <DistanceMeters>2215.7542206673</DistanceMeters>
          </Trackpoint>
          <Trackpoint>
            <Time>2019-04-07T12:30:47.000Z</Time>
            <Position>
              <LatitudeDegrees>28.26686530373990535736083984375</LatitudeDegrees>
              <LongitudeDegrees>-16.60329717211425304412841796875</LongitudeDegrees>
            </Position>
            <AltitudeMeters>2533.39990234375</AltitudeMeters>
            <DistanceMeters>2218.2028878065</DistanceMeters>
          </Trackpoint>
          <Trackpoint>
            <Time>2019-04-07T12:30:54.000Z</Time>
            <Position>
              <LatitudeDegrees>28.26690754853188991546630859375</LatitudeDegrees>
              <LongitudeDegrees>-16.60337059758603572845458984375</LongitudeDegrees>
            </Position>
            <AltitudeMeters>2533.800048828125</AltitudeMeters>
            <DistanceMeters>2226.8005738772</DistanceMeters>
          </Trackpoint>
          <Trackpoint>
            <Time>2019-04-07T12:31:05.000Z</Time>
            <Position>
              <LatitudeDegrees>28.2669725082814693450927734375</LatitudeDegrees>
              <LongitudeDegrees>-16.6034920513629913330078125</LongitudeDegrees>
            </Position>
            <AltitudeMeters>2534.39990234375</AltitudeMeters>
            <DistanceMeters>2240.7303363528</DistanceMeters>
          </Trackpoint>
          <Trackpoint>
            <Time>2019-04-07T12:31:13.000Z</Time>
            <Position>
              <LatitudeDegrees>28.26702422462403774261474609375</LatitudeDegrees>
              <LongitudeDegrees>-16.6035820730030536651611328125</LongitudeDegrees>
            </Position>
            <AltitudeMeters>2534.800048828125</AltitudeMeters>
            <DistanceMeters>2251.2667380062</DistanceMeters>
          </Trackpoint>
          <Trackpoint>
            <Time>2019-04-07T12:31:22.000Z</Time>
            <Position>
              <LatitudeDegrees>28.2670958898961544036865234375</LatitudeDegrees>
              <LongitudeDegrees>-16.60366580821573734283447265625</LongitudeDegrees>
            </Position>
            <AltitudeMeters>2534.60009765625</AltitudeMeters>
            <DistanceMeters>2262.7126258726</DistanceMeters>
          </Trackpoint>
          <Trackpoint>
            <Time>2019-04-07T12:31:28.000Z</Time>
            <Position>
              <LatitudeDegrees>28.2671605981886386871337890625</LatitudeDegrees>
              <LongitudeDegrees>-16.60369388759136199951171875</LongitudeDegrees>
            </Position>
            <AltitudeMeters>2535.60009765625</AltitudeMeters>
            <DistanceMeters>2270.4232693806</DistanceMeters>
          </Trackpoint>
          <Trackpoint>
            <Time>2019-04-07T12:31:30.000Z</Time>
            <Position>
              <LatitudeDegrees>28.2671823911368846893310546875</LatitudeDegrees>
              <LongitudeDegrees>-16.603696234524250030517578125</LongitudeDegrees>
            </Position>
            <AltitudeMeters>2535.60009765625</AltitudeMeters>
            <DistanceMeters>2272.8608481588</DistanceMeters>
          </Trackpoint>
          <Trackpoint>
            <Time>2019-04-07T12:31:41.000Z</Time>
            <Position>
              <LatitudeDegrees>28.26729982160031795501708984375</LatitudeDegrees>
              <LongitudeDegrees>-16.60366170108318328857421875</LongitudeDegrees>
            </Position>
            <AltitudeMeters>2536.199951171875</AltitudeMeters>
            <DistanceMeters>2286.3626696378</DistanceMeters>
          </Trackpoint>
          <Trackpoint>
            <Time>2019-04-07T12:31:42.000Z</Time>
            <Position>
              <LatitudeDegrees>28.26731021516025066375732421875</LatitudeDegrees>
              <LongitudeDegrees>-16.60365843214094638824462890625</LongitudeDegrees>
            </Position>
            <AltitudeMeters>2536.39990234375</AltitudeMeters>
            <DistanceMeters>2287.5684234715</DistanceMeters>
          </Trackpoint>
          <Trackpoint>
            <Time>2019-04-07T12:31:49.000Z</Time>
            <Position>
              <LatitudeDegrees>28.26738984324038028717041015625</LatitudeDegrees>
              <LongitudeDegrees>-16.60364485345780849456787109375</LongitudeDegrees>
            </Position>
            <AltitudeMeters>2537.39990234375</AltitudeMeters>
            <DistanceMeters>2296.5307072189</DistanceMeters>
          </Trackpoint>
          <Trackpoint>
            <Time>2019-04-07T12:31:57.000Z</Time>
            <Position>
              <LatitudeDegrees>28.26748053543269634246826171875</LatitudeDegrees>
              <LongitudeDegrees>-16.6036655567586421966552734375</LongitudeDegrees>
            </Position>
            <AltitudeMeters>2538.199951171875</AltitudeMeters>
            <DistanceMeters>2306.8269734087</DistanceMeters>
          </Trackpoint>
          <Trackpoint>
            <Time>2019-04-07T12:32:06.000Z</Time>
            <Position>
              <LatitudeDegrees>28.26756686903536319732666015625</LatitudeDegrees>
              <LongitudeDegrees>-16.60373705439269542694091796875</LongitudeDegrees>
            </Position>
            <AltitudeMeters>2537.800048828125</AltitudeMeters>
            <DistanceMeters>2318.720507261</DistanceMeters>
          </Trackpoint>
          <Trackpoint>
            <Time>2019-04-07T12:32:14.000Z</Time>
            <Position>
              <LatitudeDegrees>28.2676256261765956878662109375</LatitudeDegrees>
              <LongitudeDegrees>-16.603825986385345458984375</LongitudeDegrees>
            </Position>
            <AltitudeMeters>2538.199951171875</AltitudeMeters>
            <DistanceMeters>2329.6183770249</DistanceMeters>
          </Trackpoint>
          <Trackpoint>
            <Time>2019-04-07T12:32:15.000Z</Time>
            <Position>
              <LatitudeDegrees>28.26763308607041835784912109375</LatitudeDegrees>
              <LongitudeDegrees>-16.60383696667850017547607421875</LongitudeDegrees>
            </Position>
            <AltitudeMeters>2538.39990234375</AltitudeMeters>
            <DistanceMeters>2330.9756299838</DistanceMeters>
          </Trackpoint>
          <Trackpoint>
            <Time>2019-04-07T12:32:18.000Z</Time>
            <Position>
              <LatitudeDegrees>28.2676551304757595062255859375</LatitudeDegrees>
              <LongitudeDegrees>-16.60387150011956691741943359375</LongitudeDegrees>
            </Position>
            <AltitudeMeters>2539.60009765625</AltitudeMeters>
            <DistanceMeters>2335.1557254276</DistanceMeters>
          </Trackpoint>
          <Trackpoint>
            <Time>2019-04-07T12:32:23.000Z</Time>
            <Position>
              <LatitudeDegrees>28.26769419014453887939453125</LatitudeDegrees>
              <LongitudeDegrees>-16.603924222290515899658203125</LongitudeDegrees>
            </Position>
            <AltitudeMeters>2540.60009765625</AltitudeMeters>
            <DistanceMeters>2341.9093108545</DistanceMeters>
          </Trackpoint>
          <Trackpoint>
            <Time>2019-04-07T12:32:26.000Z</Time>
            <Position>
              <LatitudeDegrees>28.26771388761699199676513671875</LatitudeDegrees>
              <LongitudeDegrees>-16.6039602644741535186767578125</LongitudeDegrees>
            </Position>
            <AltitudeMeters>2541</AltitudeMeters>
            <DistanceMeters>2346.0666617314</DistanceMeters>
          </Trackpoint>
          <Trackpoint>
            <Time>2019-04-07T12:32:35.000Z</Time>
            <Position>
              <LatitudeDegrees>28.26777842827141284942626953125</LatitudeDegrees>
              <LongitudeDegrees>-16.604050956666469573974609375</LongitudeDegrees>
            </Position>
            <AltitudeMeters>2540.199951171875</AltitudeMeters>
            <DistanceMeters>2357.4967599808</DistanceMeters>
          </Trackpoint>
          <Trackpoint>
            <Time>2019-04-07T12:32:38.000Z</Time>
            <Position>
              <LatitudeDegrees>28.267803154885768890380859375</LatitudeDegrees>
              <LongitudeDegrees>-16.6040762700140476226806640625</LongitudeDegrees>
            </Position>
            <AltitudeMeters>2541</AltitudeMeters>
            <DistanceMeters>2361.2040199323</DistanceMeters>
          </Trackpoint>
          <Trackpoint>
            <Time>2019-04-07T12:32:42.000Z</Time>
            <Position>
              <LatitudeDegrees>28.26783592812716960906982421875</LatitudeDegrees>
              <LongitudeDegrees>-16.6041128151118755340576171875</LongitudeDegrees>
            </Position>
            <AltitudeMeters>2541.800048828125</AltitudeMeters>
            <DistanceMeters>2366.3160685655</DistanceMeters>
          </Trackpoint>
          <Trackpoint>
            <Time>2019-04-07T12:32:44.000Z</Time>
            <Position>
              <LatitudeDegrees>28.26785269193351268768310546875</LatitudeDegrees>
              <LongitudeDegrees>-16.6041285730898380279541015625</LongitudeDegrees>
            </Position>
            <AltitudeMeters>2541.800048828125</AltitudeMeters>
            <DistanceMeters>2368.7406468309</DistanceMeters>
          </Trackpoint>
          <Trackpoint>
            <Time>2019-04-07T12:32:53.000Z</Time>
            <Position>
              <LatitudeDegrees>28.26793718151748180389404296875</LatitudeDegrees>
              <LongitudeDegrees>-16.604197137057781219482421875</LongitudeDegrees>
            </Position>
            <AltitudeMeters>2540.60009765625</AltitudeMeters>
            <DistanceMeters>2380.2995832467</DistanceMeters>
          </Trackpoint>
          <Trackpoint>
            <Time>2019-04-07T12:32:54.000Z</Time>
            <Position>
              <LatitudeDegrees>28.26794707216322422027587890625</LatitudeDegrees>
              <LongitudeDegrees>-16.60420350730419158935546875</LongitudeDegrees>
            </Position>
            <AltitudeMeters>2540.60009765625</AltitudeMeters>
            <DistanceMeters>2381.5638314544</DistanceMeters>
          </Trackpoint>
          <Trackpoint>
            <Time>2019-04-07T12:33:05.000Z</Time>
            <Position>
              <LatitudeDegrees>28.26805226504802703857421875</LatitudeDegrees>
              <LongitudeDegrees>-16.604291684925556182861328125</LongitudeDegrees>
            </Position>
            <AltitudeMeters>2540.800048828125</AltitudeMeters>
            <DistanceMeters>2396.1171968038</DistanceMeters>
          </Trackpoint>
          <Trackpoint>
            <Time>2019-04-07T12:33:09.000Z</Time>
            <Position>
              <LatitudeDegrees>28.2680918276309967041015625</LatitudeDegrees>
              <LongitudeDegrees>-16.60431884229183197021484375</LongitudeDegrees>
            </Position>
            <AltitudeMeters>2541.39990234375</AltitudeMeters>
            <DistanceMeters>2401.2626981529</DistanceMeters>
          </Trackpoint>
          <Trackpoint>
            <Time>2019-04-07T12:33:12.000Z</Time>
            <Position>
              <LatitudeDegrees>28.26812141574919223785400390625</LatitudeDegrees>
              <LongitudeDegrees>-16.60433736629784107208251953125</LongitudeDegrees>
            </Position>
            <AltitudeMeters>2542.60009765625</AltitudeMeters>
            <DistanceMeters>2405.0231635112</DistanceMeters>
          </Trackpoint>
          <Trackpoint>
            <Time>2019-04-07T12:33:15.000Z</Time>
            <Position>
              <LatitudeDegrees>28.26814941130578517913818359375</LatitudeDegrees>
              <LongitudeDegrees>-16.60435882396996021270751953125</LongitudeDegrees>
            </Position>
            <AltitudeMeters>2543.800048828125</AltitudeMeters>
            <DistanceMeters>2408.7824280184</DistanceMeters>
          </Trackpoint>
          <Trackpoint>
            <Time>2019-04-07T12:33:16.000Z</Time>
            <Position>
              <LatitudeDegrees>28.26815863139927387237548828125</LatitudeDegrees>
              <LongitudeDegrees>-16.6043666191399097442626953125</LongitudeDegrees>
            </Position>
            <AltitudeMeters>2543.800048828125</AltitudeMeters>
            <DistanceMeters>2410.060881708</DistanceMeters>
          </Trackpoint>
          <Trackpoint>
            <Time>2019-04-07T12:33:26.000Z</Time>
            <Position>
              <LatitudeDegrees>28.26824815012514591217041015625</LatitudeDegrees>
              <LongitudeDegrees>-16.60444465465843677520751953125</LongitudeDegrees>
            </Position>
            <AltitudeMeters>2544.199951171875</AltitudeMeters>
            <DistanceMeters>2422.6223925957</DistanceMeters>
          </Trackpoint>
          <Trackpoint>
            <Time>2019-04-07T12:33:35.000Z</Time>
            <Position>
              <LatitudeDegrees>28.2683364115655422210693359375</LatitudeDegrees>
              <LongitudeDegrees>-16.60450433380901813507080078125</LongitudeDegrees>
            </Position>
            <AltitudeMeters>2544.39990234375</AltitudeMeters>
            <DistanceMeters>2434.0556505129</DistanceMeters>
          </Trackpoint>
          <Trackpoint>
            <Time>2019-04-07T12:33:38.000Z</Time>
            <Position>
              <LatitudeDegrees>28.268367759883403778076171875</LatitudeDegrees>
              <LongitudeDegrees>-16.60452109761536121368408203125</LongitudeDegrees>
            </Position>
            <AltitudeMeters>2545</AltitudeMeters>
            <DistanceMeters>2437.9121432075</DistanceMeters>
          </Trackpoint>
          <Trackpoint>
            <Time>2019-04-07T12:33:45.000Z</Time>
            <Position>
              <LatitudeDegrees>28.268446214497089385986328125</LatitudeDegrees>
              <LongitudeDegrees>-16.60454557277262210845947265625</LongitudeDegrees>
            </Position>
            <AltitudeMeters>2544.39990234375</AltitudeMeters>
            <DistanceMeters>2446.9681442159</DistanceMeters>
          </Trackpoint>
          <Trackpoint>
            <Time>2019-04-07T12:33:57.000Z</Time>
            <Position>
              <LatitudeDegrees>28.26858174987137317657470703125</LatitudeDegrees>
              <LongitudeDegrees>-16.6045714728534221649169921875</LongitudeDegrees>
            </Position>
            <AltitudeMeters>2546</AltitudeMeters>
            <DistanceMeters>2462.2659695882</DistanceMeters>
          </Trackpoint>
          <Trackpoint>
            <Time>2019-04-07T12:33:58.000Z</Time>
            <Position>
              <LatitudeDegrees>28.2685934007167816162109375</LatitudeDegrees>
              <LongitudeDegrees>-16.6045734845101833343505859375</LongitudeDegrees>
            </Position>
            <AltitudeMeters>2546.199951171875</AltitudeMeters>
            <DistanceMeters>2463.5826983671</DistanceMeters>
          </Trackpoint>
          <Trackpoint>
            <Time>2019-04-07T12:34:03.000Z</Time>
            <Position>
              <LatitudeDegrees>28.26864897273480892181396484375</LatitudeDegrees>
              <LongitudeDegrees>-16.6045828722417354583740234375</LongitudeDegrees>
            </Position>
            <AltitudeMeters>2547.199951171875</AltitudeMeters>
            <DistanceMeters>2469.8364381345</DistanceMeters>
          </Trackpoint>
          <Trackpoint>
            <Time>2019-04-07T12:34:05.000Z</Time>
            <Position>
              <LatitudeDegrees>28.2686711847782135009765625</LatitudeDegrees>
              <LongitudeDegrees>-16.6045882366597652435302734375</LongitudeDegrees>
            </Position>
            <AltitudeMeters>2547.39990234375</AltitudeMeters>
            <DistanceMeters>2472.3631482576</DistanceMeters>
          </Trackpoint>
          <Trackpoint>
            <Time>2019-04-07T12:34:11.000Z</Time>
            <Position>
              <LatitudeDegrees>28.2687353901565074920654296875</LatitudeDegrees>
              <LongitudeDegrees>-16.604604832828044891357421875</LongitudeDegrees>
            </Position>
            <AltitudeMeters>2548.199951171875</AltitudeMeters>
            <DistanceMeters>2479.6919199615</DistanceMeters>
          </Trackpoint>
          <Trackpoint>
            <Time>2019-04-07T12:34:16.000Z</Time>
            <Position>
              <LatitudeDegrees>28.2687918841838836669921875</LatitudeDegrees>
              <LongitudeDegrees>-16.6046147234737873077392578125</LongitudeDegrees>
            </Position>
            <AltitudeMeters>2548.60009765625</AltitudeMeters>
            <DistanceMeters>2486.0537438055</DistanceMeters>
          </Trackpoint>
          <Trackpoint>
            <Time>2019-04-07T12:34:23.000Z</Time>
            <Position>
              <LatitudeDegrees>28.26886841095983982086181640625</LatitudeDegrees>
              <LongitudeDegrees>-16.60462570376694202423095703125</LongitudeDegrees>
            </Position>
            <AltitudeMeters>2549.39990234375</AltitudeMeters>
            <DistanceMeters>2494.638817127</DistanceMeters>
          </Trackpoint>
          <Trackpoint>
            <Time>2019-04-07T12:34:27.000Z</Time>
            <Position>
              <LatitudeDegrees>28.2689125835895538330078125</LatitudeDegrees>
              <LongitudeDegrees>-16.60463224165141582489013671875</LongitudeDegrees>
            </Position>
            <AltitudeMeters>2549.60009765625</AltitudeMeters>
            <DistanceMeters>2499.597536534</DistanceMeters>
          </Trackpoint>
          <Trackpoint>
            <Time>2019-04-07T12:34:37.000Z</Time>
            <Position>
              <LatitudeDegrees>28.26902733184397220611572265625</LatitudeDegrees>
              <LongitudeDegrees>-16.60466828383505344390869140625</LongitudeDegrees>
            </Position>
            <AltitudeMeters>2549.60009765625</AltitudeMeters>
            <DistanceMeters>2512.8489087848</DistanceMeters>
          </Trackpoint>
          <Trackpoint>
            <Time>2019-04-07T12:34:44.000Z</Time>
            <Position>
              <LatitudeDegrees>28.2691051997244358062744140625</LatitudeDegrees>
              <LongitudeDegrees>-16.60470751114189624786376953125</LongitudeDegrees>
            </Position>
            <AltitudeMeters>2550.39990234375</AltitudeMeters>
            <DistanceMeters>2522.3301751031</DistanceMeters>
          </Trackpoint>
          <Trackpoint>
            <Time>2019-04-07T12:34:49.000Z</Time>
            <Position>
              <LatitudeDegrees>28.26916060410439968109130859375</LatitudeDegrees>
              <LongitudeDegrees>-16.60472653806209564208984375</LongitudeDegrees>
            </Position>
            <AltitudeMeters>2551.60009765625</AltitudeMeters>
            <DistanceMeters>2528.7730984623</DistanceMeters>
          </Trackpoint>
          <Trackpoint>
            <Time>2019-04-07T12:34:54.000Z</Time>
            <Position>
              <LatitudeDegrees>28.2692161761224269866943359375</LatitudeDegrees>
              <LongitudeDegrees>-16.60474305041134357452392578125</LongitudeDegrees>
            </Position>
            <AltitudeMeters>2551.60009765625</AltitudeMeters>
            <DistanceMeters>2535.1667794101</DistanceMeters>
          </Trackpoint>
          <Trackpoint>
            <Time>2019-04-07T12:35:03.000Z</Time>
            <Position>
              <LatitudeDegrees>28.2693234644830226898193359375</LatitudeDegrees>
              <LongitudeDegrees>-16.60477573983371257781982421875</LongitudeDegrees>
            </Position>
            <AltitudeMeters>2551.199951171875</AltitudeMeters>
            <DistanceMeters>2547.5304816891</DistanceMeters>
          </Trackpoint>
          <Trackpoint>
            <Time>2019-04-07T12:35:14.000Z</Time>
            <Position>
              <LatitudeDegrees>28.2694463431835174560546875</LatitudeDegrees>
              <LongitudeDegrees>-16.60479971207678318023681640625</LongitudeDegrees>
            </Position>
            <AltitudeMeters>2552.199951171875</AltitudeMeters>
            <DistanceMeters>2561.4076359451</DistanceMeters>
          </Trackpoint>
          <Trackpoint>
            <Time>2019-04-07T12:35:24.000Z</Time>
            <Position>
              <LatitudeDegrees>28.269555307924747467041015625</LatitudeDegrees>
              <LongitudeDegrees>-16.6048251092433929443359375</LongitudeDegrees>
            </Position>
            <AltitudeMeters>2552.800048828125</AltitudeMeters>
            <DistanceMeters>2573.788125336</DistanceMeters>
          </Trackpoint>
          <Trackpoint>
            <Time>2019-04-07T12:35:25.000Z</Time>
            <Position>
              <LatitudeDegrees>28.26956679113209247589111328125</LatitudeDegrees>
              <LongitudeDegrees>-16.604829132556915283203125</LongitudeDegrees>
            </Position>
            <AltitudeMeters>2552.800048828125</AltitudeMeters>
            <DistanceMeters>2575.1252697321</DistanceMeters>
          </Trackpoint>
          <Trackpoint>
            <Time>2019-04-07T12:35:35.000Z</Time>
            <Position>
              <LatitudeDegrees>28.26968036592006683349609375</LatitudeDegrees>
              <LongitudeDegrees>-16.6048598103225231170654296875</LongitudeDegrees>
            </Position>
            <AltitudeMeters>2553.39990234375</AltitudeMeters>
            <DistanceMeters>2588.1189350838</DistanceMeters>
          </Trackpoint>
          <Trackpoint>
            <Time>2019-04-07T12:35:38.000Z</Time>
            <Position>
              <LatitudeDegrees>28.2697133906185626983642578125</LatitudeDegrees>
              <LongitudeDegrees>-16.604867689311504364013671875</LongitudeDegrees>
            </Position>
            <AltitudeMeters>2554</AltitudeMeters>
            <DistanceMeters>2591.8745947336</DistanceMeters>
          </Trackpoint>
          <Trackpoint>
            <Time>2019-04-07T12:35:46.000Z</Time>
            <Position>
              <LatitudeDegrees>28.269800730049610137939453125</LatitudeDegrees>
              <LongitudeDegrees>-16.60489459522068500518798828125</LongitudeDegrees>
            </Position>
            <AltitudeMeters>2555.199951171875</AltitudeMeters>
            <DistanceMeters>2601.9474264569</DistanceMeters>
          </Trackpoint>
          <Trackpoint>
            <Time>2019-04-07T12:35:47.000Z</Time>
            <Position>
              <LatitudeDegrees>28.26981204561889171600341796875</LatitudeDegrees>
              <LongitudeDegrees>-16.604898869991302490234375</LongitudeDegrees>
            </Position>
            <AltitudeMeters>2555.39990234375</AltitudeMeters>
            <DistanceMeters>2603.2709954313</DistanceMeters>
          </Trackpoint>
          <Trackpoint>
            <Time>2019-04-07T12:35:54.000Z</Time>
            <Position>
              <LatitudeDegrees>28.269865103065967559814453125</LatitudeDegrees>
              <LongitudeDegrees>-16.60491831600666046142578125</LongitudeDegrees>
            </Position>
            <AltitudeMeters>2556.39990234375</AltitudeMeters>
            <DistanceMeters>2609.4761743938</DistanceMeters>
          </Trackpoint>
          <Trackpoint>
            <Time>2019-04-07T12:35:55.000Z</Time>
            <Position>
              <LatitudeDegrees>28.26986418105661869049072265625</LatitudeDegrees>
              <LongitudeDegrees>-16.60491806454956531524658203125</LongitudeDegrees>
            </Position>
            <AltitudeMeters>2556.60009765625</AltitudeMeters>
            <DistanceMeters>2609.5712011082</DistanceMeters>
          </Trackpoint>
          <Trackpoint>
            <Time>2019-04-07T12:36:13.000Z</Time>
            <Position>
              <LatitudeDegrees>28.26985781081020832061767578125</LatitudeDegrees>
              <LongitudeDegrees>-16.60491722635924816131591796875</LongitudeDegrees>
            </Position>
            <AltitudeMeters>2556.199951171875</AltitudeMeters>
            <DistanceMeters>2610.2886370686</DistanceMeters>
          </Trackpoint>
          <Trackpoint>
            <Time>2019-04-07T12:36:33.000Z</Time>
            <Position>
              <LatitudeDegrees>28.2699135504662990570068359375</LatitudeDegrees>
              <LongitudeDegrees>-16.60492946393787860870361328125</LongitudeDegrees>
            </Position>
            <AltitudeMeters>2555.800048828125</AltitudeMeters>
            <DistanceMeters>2616.6063057749</DistanceMeters>
          </Trackpoint>
          <Trackpoint>
            <Time>2019-04-07T12:36:42.000Z</Time>
            <Position>
              <LatitudeDegrees>28.27001019380986690521240234375</LatitudeDegrees>
              <LongitudeDegrees>-16.60496659576892852783203125</LongitudeDegrees>
            </Position>
            <AltitudeMeters>2556.60009765625</AltitudeMeters>
            <DistanceMeters>2627.9622963392</DistanceMeters>
          </Trackpoint>
          <Trackpoint>
            <Time>2019-04-07T12:36:51.000Z</Time>
            <Position>
              <LatitudeDegrees>28.27010951936244964599609375</LatitudeDegrees>
              <LongitudeDegrees>-16.6050187312066555023193359375</LongitudeDegrees>
            </Position>
            <AltitudeMeters>2556.199951171875</AltitudeMeters>
            <DistanceMeters>2640.1412961203</DistanceMeters>
          </Trackpoint>
          <Trackpoint>
            <Time>2019-04-07T12:37:00.000Z</Time>
            <Position>
              <LatitudeDegrees>28.27019962482154369354248046875</LatitudeDegrees>
              <LongitudeDegrees>-16.605090983211994171142578125</LongitudeDegrees>
            </Position>
            <AltitudeMeters>2556</AltitudeMeters>
            <DistanceMeters>2652.4188800064</DistanceMeters>
          </Trackpoint>
          <Trackpoint>
            <Time>2019-04-07T12:37:10.000Z</Time>
            <Position>
              <LatitudeDegrees>28.2702826894819736480712890625</LatitudeDegrees>
              <LongitudeDegrees>-16.60518695600330829620361328125</LongitudeDegrees>
            </Position>
            <AltitudeMeters>2556</AltitudeMeters>
            <DistanceMeters>2665.6087796561</DistanceMeters>
          </Trackpoint>
          <Trackpoint>
            <Time>2019-04-07T12:37:21.000Z</Time>
            <Position>
              <LatitudeDegrees>28.27037430368363857269287109375</LatitudeDegrees>
              <LongitudeDegrees>-16.60528820939362049102783203125</LongitudeDegrees>
            </Position>
            <AltitudeMeters>2557.39990234375</AltitudeMeters>
            <DistanceMeters>2679.8386930142</DistanceMeters>
          </Trackpoint>
          <Trackpoint>
            <Time>2019-04-07T12:37:22.000Z</Time>
            <Position>
              <LatitudeDegrees>28.27038218267261981964111328125</LatitudeDegrees>
              <LongitudeDegrees>-16.605298183858394622802734375</LongitudeDegrees>
            </Position>
            <AltitudeMeters>2557.39990234375</AltitudeMeters>
            <DistanceMeters>2681.1485458778</DistanceMeters>
          </Trackpoint>
          <Trackpoint>
            <Time>2019-04-07T12:37:31.000Z</Time>
            <Position>
              <LatitudeDegrees>28.2704607211053371429443359375</LatitudeDegrees>
              <LongitudeDegrees>-16.60537119023501873016357421875</LongitudeDegrees>
            </Position>
            <AltitudeMeters>2558.199951171875</AltitudeMeters>
            <DistanceMeters>2692.4455397427</DistanceMeters>
          </Trackpoint>
          <Trackpoint>
            <Time>2019-04-07T12:37:32.000Z</Time>
            <Position>
              <LatitudeDegrees>28.27046968974173069000244140625</LatitudeDegrees>
              <LongitudeDegrees>-16.60537806339561939239501953125</LongitudeDegrees>
            </Position>
            <AltitudeMeters>2558.60009765625</AltitudeMeters>
            <DistanceMeters>2693.6475431665</DistanceMeters>
          </Trackpoint>
          <Trackpoint>
            <Time>2019-04-07T12:37:38.000Z</Time>
            <Position>
              <LatitudeDegrees>28.27052685432136058807373046875</LatitudeDegrees>
              <LongitudeDegrees>-16.6054150275886058807373046875</LongitudeDegrees>
            </Position>
            <AltitudeMeters>2559.60009765625</AltitudeMeters>
            <DistanceMeters>2700.968918295</DistanceMeters>
          </Trackpoint>
          <Trackpoint>
            <Time>2019-04-07T12:37:40.000Z</Time>
            <Position>
              <LatitudeDegrees>28.27054646797478199005126953125</LatitudeDegrees>
              <LongitudeDegrees>-16.60542793571949005126953125</LongitudeDegrees>
            </Position>
            <AltitudeMeters>2560</AltitudeMeters>
            <DistanceMeters>2703.493840862</DistanceMeters>
          </Trackpoint>
          <Trackpoint>
            <Time>2019-04-07T12:37:46.000Z</Time>
            <Position>
              <LatitudeDegrees>28.27060866169631481170654296875</LatitudeDegrees>
              <LongitudeDegrees>-16.60546557046473026275634765625</LongitudeDegrees>
            </Position>
            <AltitudeMeters>2560.60009765625</AltitudeMeters>
            <DistanceMeters>2711.3380069037</DistanceMeters>
          </Trackpoint>
          <Trackpoint>
            <Time>2019-04-07T12:37:49.000Z</Time>
            <Position>
              <LatitudeDegrees>28.2706397585570812225341796875</LatitudeDegrees>
              <LongitudeDegrees>-16.605483256280422210693359375</LongitudeDegrees>
            </Position>
            <AltitudeMeters>2561</AltitudeMeters>
            <DistanceMeters>2715.2096895995</DistanceMeters>
          </Trackpoint>
          <Trackpoint>
            <Time>2019-04-07T12:37:53.000Z</Time>
            <Position>
              <LatitudeDegrees>28.2706796564161777496337890625</LatitudeDegrees>
              <LongitudeDegrees>-16.60550915636122226715087890625</LongitudeDegrees>
            </Position>
            <AltitudeMeters>2562</AltitudeMeters>
            <DistanceMeters>2720.325269873</DistanceMeters>
          </Trackpoint>
          <Trackpoint>
            <Time>2019-04-07T12:37:59.000Z</Time>
            <Position>
              <LatitudeDegrees>28.27074226923286914825439453125</LatitudeDegrees>
              <LongitudeDegrees>-16.60552985966205596923828125</LongitudeDegrees>
            </Position>
            <AltitudeMeters>2563</AltitudeMeters>
            <DistanceMeters>2727.5834697857</DistanceMeters>
          </Trackpoint>
          <Trackpoint>
            <Time>2019-04-07T12:38:00.000Z</Time>
            <Position>
              <LatitudeDegrees>28.270753584802150726318359375</LatitudeDegrees>
              <LongitudeDegrees>-16.605531871318817138671875</LongitudeDegrees>
            </Position>
            <AltitudeMeters>2563.199951171875</AltitudeMeters>
            <DistanceMeters>2728.8583869438</DistanceMeters>
          </Trackpoint>
          <Trackpoint>
            <Time>2019-04-07T12:38:09.000Z</Time>
            <Position>
              <LatitudeDegrees>28.27085115015506744384765625</LatitudeDegrees>
              <LongitudeDegrees>-16.60556078888475894927978515625</LongitudeDegrees>
            </Position>
            <AltitudeMeters>2563.39990234375</AltitudeMeters>
            <DistanceMeters>2740.0811988125</DistanceMeters>
          </Trackpoint>
          <Trackpoint>
            <Time>2019-04-07T12:38:17.000Z</Time>
            <Position>
              <LatitudeDegrees>28.27093899250030517578125</LatitudeDegrees>
              <LongitudeDegrees>-16.6055949032306671142578125</LongitudeDegrees>
            </Position>
            <AltitudeMeters>2564</AltitudeMeters>
            <DistanceMeters>2750.414234372</DistanceMeters>
          </Trackpoint>
          <Trackpoint>
            <Time>2019-04-07T12:38:19.000Z</Time>
            <Position>
              <LatitudeDegrees>28.27096019871532917022705078125</LatitudeDegrees>
              <LongitudeDegrees>-16.6056017763912677764892578125</LongitudeDegrees>
            </Position>
            <AltitudeMeters>2564.199951171875</AltitudeMeters>
            <DistanceMeters>2752.8684269048</DistanceMeters>
          </Trackpoint>
          <Trackpoint>
            <Time>2019-04-07T12:38:29.000Z</Time>
            <Position>
              <LatitudeDegrees>28.2710685767233371734619140625</LatitudeDegrees>
              <LongitudeDegrees>-16.6056487150490283966064453125</LongitudeDegrees>
            </Position>
            <AltitudeMeters>2565</AltitudeMeters>
            <DistanceMeters>2765.7787774423</DistanceMeters>
          </Trackpoint>
          <Trackpoint>
            <Time>2019-04-07T12:38:33.000Z</Time>
            <Position>
              <LatitudeDegrees>28.27110989950597286224365234375</LatitudeDegrees>
              <LongitudeDegrees>-16.60566874779760837554931640625</LongitudeDegrees>
            </Position>
            <AltitudeMeters>2565.39990234375</AltitudeMeters>
            <DistanceMeters>2770.7801084402</DistanceMeters>
          </Trackpoint>
          <Trackpoint>
            <Time>2019-04-07T12:38:40.000Z</Time>
            <Position>
              <LatitudeDegrees>28.27117846347391605377197265625</LatitudeDegrees>
              <LongitudeDegrees>-16.60570596344769001007080078125</LongitudeDegrees>
            </Position>
            <AltitudeMeters>2566.39990234375</AltitudeMeters>
            <DistanceMeters>2779.2390874413</DistanceMeters>
          </Trackpoint>
          <Trackpoint>
            <Time>2019-04-07T12:38:41.000Z</Time>
            <Position>
              <LatitudeDegrees>28.271188773214817047119140625</LatitudeDegrees>
              <LongitudeDegrees>-16.6057110764086246490478515625</LongitudeDegrees>
            </Position>
            <AltitudeMeters>2566.60009765625</AltitudeMeters>
            <DistanceMeters>2780.4889687256</DistanceMeters>
          </Trackpoint>
          <Trackpoint>
            <Time>2019-04-07T12:38:49.000Z</Time>
            <Position>
              <LatitudeDegrees>28.27127368189394474029541015625</LatitudeDegrees>
              <LongitudeDegrees>-16.60575172863900661468505859375</LongitudeDegrees>
            </Position>
            <AltitudeMeters>2567</AltitudeMeters>
            <DistanceMeters>2790.7448124461</DistanceMeters>
          </Trackpoint>
          <Trackpoint>
            <Time>2019-04-07T12:38:59.000Z</Time>
            <Position>
              <LatitudeDegrees>28.271383233368396759033203125</LatitudeDegrees>
              <LongitudeDegrees>-16.60577771253883838653564453125</LongitudeDegrees>
            </Position>
            <AltitudeMeters>2567.800048828125</AltitudeMeters>
            <DistanceMeters>2803.2012888153</DistanceMeters>
          </Trackpoint>
          <Trackpoint>
            <Time>2019-04-07T12:39:00.000Z</Time>
            <Position>
              <LatitudeDegrees>28.2713944651186466217041015625</LatitudeDegrees>
              <LongitudeDegrees>-16.6057774610817432403564453125</LongitudeDegrees>
            </Position>
            <AltitudeMeters>2568</AltitudeMeters>
            <DistanceMeters>2804.4511700996</DistanceMeters>
          </Trackpoint>
          <Trackpoint>
            <Time>2019-04-07T12:39:09.000Z</Time>
            <Position>
              <LatitudeDegrees>28.27149228192865848541259765625</LatitudeDegrees>
              <LongitudeDegrees>-16.6057553328573703765869140625</LongitudeDegrees>
            </Position>
            <AltitudeMeters>2569</AltitudeMeters>
            <DistanceMeters>2815.5522265011</DistanceMeters>
          </Trackpoint>
          <Trackpoint>
            <Time>2019-04-07T12:39:18.000Z</Time>
            <Position>
              <LatitudeDegrees>28.27159051783382892608642578125</LatitudeDegrees>
              <LongitudeDegrees>-16.605734042823314666748046875</LongitudeDegrees>
            </Position>
            <AltitudeMeters>2570.199951171875</AltitudeMeters>
            <DistanceMeters>2826.6829339724</DistanceMeters>
          </Trackpoint>
          <Trackpoint>
            <Time>2019-04-07T12:39:19.000Z</Time>
            <Position>
              <LatitudeDegrees>28.2715999893844127655029296875</LatitudeDegrees>
              <LongitudeDegrees>-16.60573027096688747406005859375</LongitudeDegrees>
            </Position>
            <AltitudeMeters>2570.39990234375</AltitudeMeters>
            <DistanceMeters>2827.799245107</DistanceMeters>
          </Trackpoint>
          <Trackpoint>
            <Time>2019-04-07T12:39:22.000Z</Time>
            <Position>
              <LatitudeDegrees>28.27163041569292545318603515625</LatitudeDegrees>
              <LongitudeDegrees>-16.605720631778240203857421875</LongitudeDegrees>
            </Position>
            <AltitudeMeters>2571.39990234375</AltitudeMeters>
            <DistanceMeters>2831.3152335387</DistanceMeters>
          </Trackpoint>
          <Trackpoint>
            <Time>2019-04-07T12:39:28.000Z</Time>
            <Position>
              <LatitudeDegrees>28.271694369614124298095703125</LatitudeDegrees>
              <LongitudeDegrees>-16.60570663399994373321533203125</LongitudeDegrees>
            </Position>
            <AltitudeMeters>2572.800048828125</AltitudeMeters>
            <DistanceMeters>2838.5647193759</DistanceMeters>
          </Trackpoint>
          <Trackpoint>
            <Time>2019-04-07T12:39:29.000Z</Time>
            <Position>
              <LatitudeDegrees>28.27170568518340587615966796875</LatitudeDegrees>
              <LongitudeDegrees>-16.6057043708860874176025390625</LongitudeDegrees>
            </Position>
            <AltitudeMeters>2573</AltitudeMeters>
            <DistanceMeters>2839.8431730655</DistanceMeters>
          </Trackpoint>
          <Trackpoint>
            <Time>2019-04-07T12:39:33.000Z</Time>
            <Position>
              <LatitudeDegrees>28.27175295911729335784912109375</LatitudeDegrees>
              <LongitudeDegrees>-16.605703867971897125244140625</LongitudeDegrees>
            </Position>
            <AltitudeMeters>2574</AltitudeMeters>
            <DistanceMeters>2845.1040840418</DistanceMeters>
          </Trackpoint>
          <Trackpoint>
            <Time>2019-04-07T12:39:40.000Z</Time>
            <Position>
              <LatitudeDegrees>28.27183015644550323486328125</LatitudeDegrees>
              <LongitudeDegrees>-16.6057114116847515106201171875</LongitudeDegrees>
            </Position>
            <AltitudeMeters>2574.199951171875</AltitudeMeters>
            <DistanceMeters>2853.7279874267</DistanceMeters>
          </Trackpoint>
          <Trackpoint>
            <Time>2019-04-07T12:39:50.000Z</Time>
            <Position>
              <LatitudeDegrees>28.2719327509403228759765625</LatitudeDegrees>
              <LongitudeDegrees>-16.60576430149376392364501953125</LongitudeDegrees>
            </Position>
            <AltitudeMeters>2573.800048828125</AltitudeMeters>
            <DistanceMeters>2866.2693538396</DistanceMeters>
          </Trackpoint>
          <Trackpoint>
            <Time>2019-04-07T12:40:03.000Z</Time>
            <Position>
              <LatitudeDegrees>28.27205789275467395782470703125</LatitudeDegrees>
              <LongitudeDegrees>-16.6058523952960968017578125</LongitudeDegrees>
            </Position>
            <AltitudeMeters>2573.800048828125</AltitudeMeters>
            <DistanceMeters>2882.6575365819</DistanceMeters>
          </Trackpoint>
          <Trackpoint>
            <Time>2019-04-07T12:40:06.000Z</Time>
            <Position>
              <LatitudeDegrees>28.27208387665450572967529296875</LatitudeDegrees>
              <LongitudeDegrees>-16.605881564319133758544921875</LongitudeDegrees>
            </Position>
            <AltitudeMeters>2573</AltitudeMeters>
            <DistanceMeters>2886.7237473449</DistanceMeters>
          </Trackpoint>
          <Trackpoint>
            <Time>2019-04-07T12:40:13.000Z</Time>
            <Position>
              <LatitudeDegrees>28.27214607037603855133056640625</LatitudeDegrees>
              <LongitudeDegrees>-16.60593830980360507965087890625</LongitudeDegrees>
            </Position>
            <AltitudeMeters>2573.800048828125</AltitudeMeters>
            <DistanceMeters>2895.6040433751</DistanceMeters>
          </Trackpoint>
          <Trackpoint>
            <Time>2019-04-07T12:40:19.000Z</Time>
            <Position>
              <LatitudeDegrees>28.27219904400408267974853515625</LatitudeDegrees>
              <LongitudeDegrees>-16.6059873439371585845947265625</LongitudeDegrees>
            </Position>
            <AltitudeMeters>2575</AltitudeMeters>
            <DistanceMeters>2903.2103368073</DistanceMeters>
          </Trackpoint>
          <Trackpoint>
            <Time>2019-04-07T12:40:22.000Z</Time>
            <Position>
              <LatitudeDegrees>28.2722259499132633209228515625</LatitudeDegrees>
              <LongitudeDegrees>-16.60600821487605571746826171875</LongitudeDegrees>
            </Position>
            <AltitudeMeters>2575.800048828125</AltitudeMeters>
            <DistanceMeters>2906.8363251281</DistanceMeters>
          </Trackpoint>
          <Trackpoint>
            <Time>2019-04-07T12:40:23.000Z</Time>
            <Position>
              <LatitudeDegrees>28.2722346670925617218017578125</LatitudeDegrees>
              <LongitudeDegrees>-16.6060160100460052490234375</LongitudeDegrees>
            </Position>
            <AltitudeMeters>2576.199951171875</AltitudeMeters>
            <DistanceMeters>2908.0680121186</DistanceMeters>
          </Trackpoint>
          <Trackpoint>
            <Time>2019-04-07T12:40:29.000Z</Time>
            <Position>
              <LatitudeDegrees>28.2722869701683521270751953125</LatitudeDegrees>
              <LongitudeDegrees>-16.60606152378022670745849609375</LongitudeDegrees>
            </Position>
            <AltitudeMeters>2575.39990234375</AltitudeMeters>
            <DistanceMeters>2915.402326359</DistanceMeters>
          </Trackpoint>
          <Trackpoint>
            <Time>2019-04-07T12:40:33.000Z</Time>
            <Position>
              <LatitudeDegrees>28.27232343144714832305908203125</LatitudeDegrees>
              <LongitudeDegrees>-16.6060889326035976409912109375</LongitudeDegrees>
            </Position>
            <AltitudeMeters>2576</AltitudeMeters>
            <DistanceMeters>2920.2700692229</DistanceMeters>
          </Trackpoint>
          <Trackpoint>
            <Time>2019-04-07T12:40:41.000Z</Time>
            <Position>
              <LatitudeDegrees>28.27238730154931545257568359375</LatitudeDegrees>
              <LongitudeDegrees>-16.606140397489070892333984375</LongitudeDegrees>
            </Position>
            <AltitudeMeters>2577.199951171875</AltitudeMeters>
            <DistanceMeters>2928.9871841857</DistanceMeters>
          </Trackpoint>
          <Trackpoint>
            <Time>2019-04-07T12:40:42.000Z</Time>
            <Position>
              <LatitudeDegrees>28.27238797210156917572021484375</LatitudeDegrees>
              <LongitudeDegrees>-16.60614182241261005401611328125</LongitudeDegrees>
            </Position>
            <AltitudeMeters>2578.199951171875</AltitudeMeters>
            <DistanceMeters>2929.1517752831</DistanceMeters>
          </Trackpoint>
          <Trackpoint>
            <Time>2019-04-07T12:40:45.000Z</Time>
            <Position>
              <LatitudeDegrees>28.27239233069121837615966796875</LatitudeDegrees>
              <LongitudeDegrees>-16.60614081658422946929931640625</LongitudeDegrees>
            </Position>
            <AltitudeMeters>2579.199951171875</AltitudeMeters>
            <DistanceMeters>2929.636318354</DistanceMeters>
          </Trackpoint>
          <Trackpoint>
            <Time>2019-04-07T12:40:48.000Z</Time>
            <Position>
              <LatitudeDegrees>28.27241060324013233184814453125</LatitudeDegrees>
              <LongitudeDegrees>-16.60615037195384502410888671875</LongitudeDegrees>
            </Position>
            <AltitudeMeters>2577.60009765625</AltitudeMeters>
            <DistanceMeters>2931.8729815718</DistanceMeters>
          </Trackpoint>
          <Trackpoint>
            <Time>2019-04-07T12:40:49.000Z</Time>
            <Position>
              <LatitudeDegrees>28.27241948805749416351318359375</LatitudeDegrees>
              <LongitudeDegrees>-16.6061569936573505401611328125</LongitudeDegrees>
            </Position>
            <AltitudeMeters>2577</AltitudeMeters>
            <DistanceMeters>2933.0522320848</DistanceMeters>
          </Trackpoint>
          <Trackpoint>
            <Time>2019-04-07T12:40:59.000Z</Time>
            <Position>
              <LatitudeDegrees>28.2725162990391254425048828125</LatitudeDegrees>
              <LongitudeDegrees>-16.60621390677988529205322265625</LongitudeDegrees>
            </Position>
            <AltitudeMeters>2578.39990234375</AltitudeMeters>
            <DistanceMeters>2945.1859193373</DistanceMeters>
          </Trackpoint>
          <Trackpoint>
            <Time>2019-04-07T12:41:07.000Z</Time>
            <Position>
              <LatitudeDegrees>28.27258528210222721099853515625</LatitudeDegrees>
              <LongitudeDegrees>-16.60626671276986598968505859375</LongitudeDegrees>
            </Position>
            <AltitudeMeters>2579</AltitudeMeters>
            <DistanceMeters>2954.445540055</DistanceMeters>
          </Trackpoint>
          <Trackpoint>
            <Time>2019-04-07T12:41:09.000Z</Time>
            <Position>
              <LatitudeDegrees>28.27260489575564861297607421875</LatitudeDegrees>
              <LongitudeDegrees>-16.606279872357845306396484375</LongitudeDegrees>
            </Position>
            <AltitudeMeters>2579.60009765625</AltitudeMeters>
            <DistanceMeters>2956.9811690555</DistanceMeters>
          </Trackpoint>
          <Trackpoint>
            <Time>2019-04-07T12:41:19.000Z</Time>
            <Position>
              <LatitudeDegrees>28.27269910834729671478271484375</LatitudeDegrees>
              <LongitudeDegrees>-16.6063501127064228057861328125</LongitudeDegrees>
            </Position>
            <AltitudeMeters>2580.199951171875</AltitudeMeters>
            <DistanceMeters>2969.5257751549</DistanceMeters>
          </Trackpoint>
          <Trackpoint>
            <Time>2019-04-07T12:41:21.000Z</Time>
            <Position>
              <LatitudeDegrees>28.27271838672459125518798828125</LatitudeDegrees>
              <LongitudeDegrees>-16.6063638590276241302490234375</LongitudeDegrees>
            </Position>
            <AltitudeMeters>2580.60009765625</AltitudeMeters>
            <DistanceMeters>2972.0596228913</DistanceMeters>
          </Trackpoint>
          <Trackpoint>
            <Time>2019-04-07T12:41:26.000Z</Time>
            <Position>
              <LatitudeDegrees>28.27276549302041530609130859375</LatitudeDegrees>
              <LongitudeDegrees>-16.60639730282127857208251953125</LongitudeDegrees>
            </Position>
            <AltitudeMeters>2581.199951171875</AltitudeMeters>
            <DistanceMeters>2978.2429345982</DistanceMeters>
          </Trackpoint>
          <Trackpoint>
            <Time>2019-04-07T12:41:32.000Z</Time>
            <Position>
              <LatitudeDegrees>28.27282198704779148101806640625</LatitudeDegrees>
              <LongitudeDegrees>-16.60644290037453174591064453125</LongitudeDegrees>
            </Position>
            <AltitudeMeters>2581.800048828125</AltitudeMeters>
            <DistanceMeters>2985.9570906613</DistanceMeters>
          </Trackpoint>
          <Trackpoint>
            <Time>2019-04-07T12:41:36.000Z</Time>
            <Position>
              <LatitudeDegrees>28.27286255545914173126220703125</LatitudeDegrees>
              <LongitudeDegrees>-16.6064657829701900482177734375</LongitudeDegrees>
            </Position>
            <AltitudeMeters>2582.39990234375</AltitudeMeters>
            <DistanceMeters>2990.9997779673</DistanceMeters>
          </Trackpoint>
          <Trackpoint>
            <Time>2019-04-07T12:41:40.000Z</Time>
            <Position>
              <LatitudeDegrees>28.2729010283946990966796875</LatitudeDegrees>
              <LongitudeDegrees>-16.60649486817419528961181640625</LongitudeDegrees>
            </Position>
            <AltitudeMeters>2582.60009765625</AltitudeMeters>
            <DistanceMeters>2996.1452793164</DistanceMeters>
          </Trackpoint>
          <Trackpoint>
            <Time>2019-04-07T12:41:50.000Z</Time>
            <Position>
              <LatitudeDegrees>28.27298191376030445098876953125</LatitudeDegrees>
              <LongitudeDegrees>-16.60658706910908222198486328125</LongitudeDegrees>
            </Position>
            <AltitudeMeters>2583.39990234375</AltitudeMeters>
            <DistanceMeters>3008.9018857458</DistanceMeters>
          </Trackpoint>
          <Trackpoint>
            <Time>2019-04-07T12:41:58.000Z</Time>
            <Position>
              <LatitudeDegrees>28.273028768599033355712890625</LatitudeDegrees>
              <LongitudeDegrees>-16.6066785156726837158203125</LongitudeDegrees>
            </Position>
            <AltitudeMeters>2584</AltitudeMeters>
            <DistanceMeters>3019.2724310761</DistanceMeters>
          </Trackpoint>
          <Trackpoint>
            <Time>2019-04-07T12:42:00.000Z</Time>
            <Position>
              <LatitudeDegrees>28.27303991653025150299072265625</LatitudeDegrees>
              <LongitudeDegrees>-16.6067011468112468719482421875</LongitudeDegrees>
            </Position>
            <AltitudeMeters>2584</AltitudeMeters>
            <DistanceMeters>3021.8133963764</DistanceMeters>
          </Trackpoint>
          <Trackpoint>
            <Time>2019-04-07T12:42:07.000Z</Time>
            <Position>
              <LatitudeDegrees>28.27307528816163539886474609375</LatitudeDegrees>
              <LongitudeDegrees>-16.606780104339122772216796875</LongitudeDegrees>
            </Position>
            <AltitudeMeters>2584.60009765625</AltitudeMeters>
            <DistanceMeters>3030.4967792603</DistanceMeters>
          </Trackpoint>
          <Trackpoint>
            <Time>2019-04-07T12:42:08.000Z</Time>
            <Position>
              <LatitudeDegrees>28.27308098785579204559326171875</LatitudeDegrees>
              <LongitudeDegrees>-16.60679175518453121185302734375</LongitudeDegrees>
            </Position>
            <AltitudeMeters>2584.800048828125</AltitudeMeters>
            <DistanceMeters>3031.7997199233</DistanceMeters>
          </Trackpoint>
          <Trackpoint>
            <Time>2019-04-07T12:42:20.000Z</Time>
            <Position>
              <LatitudeDegrees>28.2731466181576251983642578125</LatitudeDegrees>
              <LongitudeDegrees>-16.6069227643311023712158203125</LongitudeDegrees>
            </Position>
            <AltitudeMeters>2585.60009765625</AltitudeMeters>
            <DistanceMeters>3046.5738529877</DistanceMeters>
          </Trackpoint>
          <Trackpoint>
            <Time>2019-04-07T12:42:21.000Z</Time>
            <Position>
              <LatitudeDegrees>28.2731544971466064453125</LatitudeDegrees>
              <LongitudeDegrees>-16.60693139769136905670166015625</LongitudeDegrees>
            </Position>
            <AltitudeMeters>2586</AltitudeMeters>
            <DistanceMeters>3047.794493235</DistanceMeters>
          </Trackpoint>
          <Trackpoint>
            <Time>2019-04-07T12:42:29.000Z</Time>
            <Position>
              <LatitudeDegrees>28.27322716824710369110107421875</LatitudeDegrees>
              <LongitudeDegrees>-16.60698504187166690826416015625</LongitudeDegrees>
            </Position>
            <AltitudeMeters>2587</AltitudeMeters>
            <DistanceMeters>3057.4419280188</DistanceMeters>
          </Trackpoint>
          <Trackpoint>
            <Time>2019-04-07T12:42:35.000Z</Time>
            <Position>
              <LatitudeDegrees>28.27328952960669994354248046875</LatitudeDegrees>
              <LongitudeDegrees>-16.607005409896373748779296875</LongitudeDegrees>
            </Position>
            <AltitudeMeters>2588.199951171875</AltitudeMeters>
            <DistanceMeters>3064.6639583109</DistanceMeters>
          </Trackpoint>
          <Trackpoint>
            <Time>2019-04-07T12:42:38.000Z</Time>
            <Position>
              <LatitudeDegrees>28.27332238666713237762451171875</LatitudeDegrees>
              <LongitudeDegrees>-16.607008762657642364501953125</LongitudeDegrees>
            </Position>
            <AltitudeMeters>2588.800048828125</AltitudeMeters>
            <DistanceMeters>3068.3344996953</DistanceMeters>
          </Trackpoint>
          <Trackpoint>
            <Time>2019-04-07T12:42:41.000Z</Time>
            <Position>
              <LatitudeDegrees>28.27335692010819911956787109375</LatitudeDegrees>
              <LongitudeDegrees>-16.607010774314403533935546875</LongitudeDegrees>
            </Position>
            <AltitudeMeters>2589.39990234375</AltitudeMeters>
            <DistanceMeters>3072.1851341262</DistanceMeters>
          </Trackpoint>
          <Trackpoint>
            <Time>2019-04-07T12:42:46.000Z</Time>
            <Position>
              <LatitudeDegrees>28.2734111510217189788818359375</LatitudeDegrees>
              <LongitudeDegrees>-16.60700666718184947967529296875</LongitudeDegrees>
            </Position>
            <AltitudeMeters>2590.39990234375</AltitudeMeters>
            <DistanceMeters>3078.234836584</DistanceMeters>
          </Trackpoint>
          <Trackpoint>
            <Time>2019-04-07T12:42:49.000Z</Time>
            <Position>
              <LatitudeDegrees>28.273443840444087982177734375</LatitudeDegrees>
              <LongitudeDegrees>-16.6070012189447879791259765625</LongitudeDegrees>
            </Position>
            <AltitudeMeters>2591.199951171875</AltitudeMeters>
            <DistanceMeters>3081.9127510084</DistanceMeters>
          </Trackpoint>
          <Trackpoint>
            <Time>2019-04-07T12:42:58.000Z</Time>
            <Position>
              <LatitudeDegrees>28.27354148961603641510009765625</LatitudeDegrees>
              <LongitudeDegrees>-16.60697146318852901458740234375</LongitudeDegrees>
            </Position>
            <AltitudeMeters>2591.60009765625</AltitudeMeters>
            <DistanceMeters>3093.1660968242</DistanceMeters>
          </Trackpoint>
          <Trackpoint>
            <Time>2019-04-07T12:43:07.000Z</Time>
            <Position>
              <LatitudeDegrees>28.27364391647279262542724609375</LatitudeDegrees>
              <LongitudeDegrees>-16.60694514401257038116455078125</LongitudeDegrees>
            </Position>
            <AltitudeMeters>2592.800048828125</AltitudeMeters>
            <DistanceMeters>3104.8547689727</DistanceMeters>
          </Trackpoint>
          <Trackpoint>
            <Time>2019-04-07T12:43:08.000Z</Time>
            <Position>
              <LatitudeDegrees>28.2736552320420742034912109375</LatitudeDegrees>
              <LongitudeDegrees>-16.606942377984523773193359375</LongitudeDegrees>
            </Position>
            <AltitudeMeters>2593</AltitudeMeters>
            <DistanceMeters>3106.1437740409</DistanceMeters>
          </Trackpoint>
          <Trackpoint>
            <Time>2019-04-07T12:43:12.000Z</Time>
            <Position>
              <LatitudeDegrees>28.27370326034724712371826171875</LatitudeDegrees>
              <LongitudeDegrees>-16.6069328226149082183837890625</LongitudeDegrees>
            </Position>
            <AltitudeMeters>2593.800048828125</AltitudeMeters>
            <DistanceMeters>3111.5702903528</DistanceMeters>
          </Trackpoint>
          <Trackpoint>
            <Time>2019-04-07T12:43:17.000Z</Time>
            <Position>
              <LatitudeDegrees>28.27375925146043300628662109375</LatitudeDegrees>
              <LongitudeDegrees>-16.6069200821220874786376953125</LongitudeDegrees>
            </Position>
            <AltitudeMeters>2594.800048828125</AltitudeMeters>
            <DistanceMeters>3117.9264339958</DistanceMeters>
          </Trackpoint>
          <Trackpoint>
            <Time>2019-04-07T12:43:18.000Z</Time>
            <Position>
              <LatitudeDegrees>28.273770399391651153564453125</LatitudeDegrees>
              <LongitudeDegrees>-16.606918908655643463134765625</LongitudeDegrees>
            </Position>
            <AltitudeMeters>2595</AltitudeMeters>
            <DistanceMeters>3119.1763152801</DistanceMeters>
          </Trackpoint>
          <Trackpoint>
            <Time>2019-04-07T12:43:26.000Z</Time>
            <Position>
              <LatitudeDegrees>28.273858241736888885498046875</LatitudeDegrees>
              <LongitudeDegrees>-16.6069261170923709869384765625</LongitudeDegrees>
            </Position>
            <AltitudeMeters>2596.199951171875</AltitudeMeters>
            <DistanceMeters>3128.9788171771</DistanceMeters>
          </Trackpoint>
          <Trackpoint>
            <Time>2019-04-07T12:43:27.000Z</Time>
            <Position>
              <LatitudeDegrees>28.27386838383972644805908203125</LatitudeDegrees>
              <LongitudeDegrees>-16.60692670382559299468994140625</LongitudeDegrees>
            </Position>
            <AltitudeMeters>2596.199951171875</AltitudeMeters>
            <DistanceMeters>3130.1031884245</DistanceMeters>
          </Trackpoint>
          <Trackpoint>
            <Time>2019-04-07T12:43:37.000Z</Time>
            <Position>
              <LatitudeDegrees>28.27397416345775127410888671875</LatitudeDegrees>
              <LongitudeDegrees>-16.60696215927600860595703125</LongitudeDegrees>
            </Position>
            <AltitudeMeters>2597</AltitudeMeters>
            <DistanceMeters>3142.3793012366</DistanceMeters>
          </Trackpoint>
          <Trackpoint>
            <Time>2019-04-07T12:43:48.000Z</Time>
            <Position>
              <LatitudeDegrees>28.27407474629580974578857421875</LatitudeDegrees>
              <LongitudeDegrees>-16.60704522393643856048583984375</LongitudeDegrees>
            </Position>
            <AltitudeMeters>2596.199951171875</AltitudeMeters>
            <DistanceMeters>3156.2225769433</DistanceMeters>
          </Trackpoint>
          <Trackpoint>
            <Time>2019-04-07T12:43:56.000Z</Time>
            <Position>
              <LatitudeDegrees>28.2741356827318668365478515625</LatitudeDegrees>
              <LongitudeDegrees>-16.6071235947310924530029296875</LongitudeDegrees>
            </Position>
            <AltitudeMeters>2596.800048828125</AltitudeMeters>
            <DistanceMeters>3166.4700526797</DistanceMeters>
          </Trackpoint>
          <Trackpoint>
            <Time>2019-04-07T12:44:04.000Z</Time>
            <Position>
              <LatitudeDegrees>28.27419242821633815765380859375</LatitudeDegrees>
              <LongitudeDegrees>-16.60721621476113796234130859375</LongitudeDegrees>
            </Position>
            <AltitudeMeters>2595</AltitudeMeters>
            <DistanceMeters>3177.5299539229</DistanceMeters>
          </Trackpoint>
          <Trackpoint>
            <Time>2019-04-07T12:44:05.000Z</Time>
            <Position>
              <LatitudeDegrees>28.2741967029869556427001953125</LatitudeDegrees>
              <LongitudeDegrees>-16.60722912289202213287353515625</LongitudeDegrees>
            </Position>
            <AltitudeMeters>2594.800048828125</AltitudeMeters>
            <DistanceMeters>3178.8838761947</DistanceMeters>
          </Trackpoint>
          <Trackpoint>
            <Time>2019-04-07T12:44:12.000Z</Time>
            <Position>
              <LatitudeDegrees>28.2742314040660858154296875</LatitudeDegrees>
              <LongitudeDegrees>-16.60731746815145015716552734375</LongitudeDegrees>
            </Position>
            <AltitudeMeters>2595.800048828125</AltitudeMeters>
            <DistanceMeters>3188.3656187073</DistanceMeters>
          </Trackpoint>
          <Trackpoint>
            <Time>2019-04-07T12:44:15.000Z</Time>
            <Position>
              <LatitudeDegrees>28.2742466591298580169677734375</LatitudeDegrees>
              <LongitudeDegrees>-16.6073544323444366455078125</LongitudeDegrees>
            </Position>
            <AltitudeMeters>2595.60009765625</AltitudeMeters>
            <DistanceMeters>3192.3657806364</DistanceMeters>
          </Trackpoint>
          <Trackpoint>
            <Time>2019-04-07T12:44:20.000Z</Time>
            <Position>
              <LatitudeDegrees>28.27426702715456485748291015625</LatitudeDegrees>
              <LongitudeDegrees>-16.60741754807531833648681640625</LongitudeDegrees>
            </Position>
            <AltitudeMeters>2596</AltitudeMeters>
            <DistanceMeters>3198.9549086168</DistanceMeters>
          </Trackpoint>
          <Trackpoint>
            <Time>2019-04-07T12:44:27.000Z</Time>
            <Position>
              <LatitudeDegrees>28.27429904602468013763427734375</LatitudeDegrees>
              <LongitudeDegrees>-16.60750404931604862213134765625</LongitudeDegrees>
            </Position>
            <AltitudeMeters>2596.60009765625</AltitudeMeters>
            <DistanceMeters>3208.1523950195</DistanceMeters>
          </Trackpoint>
          <Trackpoint>
            <Time>2019-04-07T12:44:29.000Z</Time>
            <Position>
              <LatitudeDegrees>28.27430776320397853851318359375</LatitudeDegrees>
              <LongitudeDegrees>-16.60752969793975353240966796875</LongitudeDegrees>
            </Position>
            <AltitudeMeters>2597</AltitudeMeters>
            <DistanceMeters>3210.8468674096</DistanceMeters>
          </Trackpoint>
          <Trackpoint>
            <Time>2019-04-07T12:44:35.000Z</Time>
            <Position>
              <LatitudeDegrees>28.274334333837032318115234375</LatitudeDegrees>
              <LongitudeDegrees>-16.60760479979217052459716796875</LongitudeDegrees>
            </Position>
            <AltitudeMeters>2598.199951171875</AltitudeMeters>
            <DistanceMeters>3218.7803176561</DistanceMeters>
          </Trackpoint>
          <Trackpoint>
            <Time>2019-04-07T12:44:36.000Z</Time>
            <Position>
              <LatitudeDegrees>28.274333663284778594970703125</LatitudeDegrees>
              <LongitudeDegrees>-16.6076092422008514404296875</LongitudeDegrees>
            </Position>
            <AltitudeMeters>2599</AltitudeMeters>
            <DistanceMeters>3219.2260324548</DistanceMeters>
          </Trackpoint>
          <Trackpoint>
            <Time>2019-04-07T12:44:37.000Z</Time>
            <Position>
              <LatitudeDegrees>28.2743321545422077178955078125</LatitudeDegrees>
              <LongitudeDegrees>-16.6076097451150417327880859375</LongitudeDegrees>
            </Position>
            <AltitudeMeters>2599.60009765625</AltitudeMeters>
            <DistanceMeters>3219.3906235522</DistanceMeters>
          </Trackpoint>
          <Trackpoint>
            <Time>2019-04-07T12:44:42.000Z</Time>
            <Position>
              <LatitudeDegrees>28.27432863414287567138671875</LatitudeDegrees>
              <LongitudeDegrees>-16.607611589133739471435546875</LongitudeDegrees>
            </Position>
            <AltitudeMeters>2600.60009765625</AltitudeMeters>
            <DistanceMeters>3219.8260906638</DistanceMeters>
          </Trackpoint>
          <Trackpoint>
            <Time>2019-04-07T12:44:49.000Z</Time>
            <Position>
              <LatitudeDegrees>28.27432922087609767913818359375</LatitudeDegrees>
              <LongitudeDegrees>-16.6076097451150417327880859375</LongitudeDegrees>
            </Position>
            <AltitudeMeters>2600.800048828125</AltitudeMeters>
            <DistanceMeters>3220.0161440925</DistanceMeters>
          </Trackpoint>
          <Trackpoint>
            <Time>2019-04-07T12:45:08.000Z</Time>
            <Position>
              <LatitudeDegrees>28.27433542348444461822509765625</LatitudeDegrees>
              <LongitudeDegrees>-16.60762240178883075714111328125</LongitudeDegrees>
            </Position>
            <AltitudeMeters>2600.199951171875</AltitudeMeters>
            <DistanceMeters>3221.4383737236</DistanceMeters>
          </Trackpoint>
          <Trackpoint>
            <Time>2019-04-07T12:45:11.000Z</Time>
            <Position>
              <LatitudeDegrees>28.2743505947291851043701171875</LatitudeDegrees>
              <LongitudeDegrees>-16.60765458829700946807861328125</LongitudeDegrees>
            </Position>
            <AltitudeMeters>2599.39990234375</AltitudeMeters>
            <DistanceMeters>3225.0167320619</DistanceMeters>
          </Trackpoint>
          <Trackpoint>
            <Time>2019-04-07T12:45:17.000Z</Time>
            <Position>
              <LatitudeDegrees>28.274380266666412353515625</LatitudeDegrees>
              <LongitudeDegrees>-16.60772256553173065185546875</LongitudeDegrees>
            </Position>
            <AltitudeMeters>2599.800048828125</AltitudeMeters>
            <DistanceMeters>3232.4537488173</DistanceMeters>
          </Trackpoint>
          <Trackpoint>
            <Time>2019-04-07T12:45:25.000Z</Time>
            <Position>
              <LatitudeDegrees>28.27443131245672702789306640625</LatitudeDegrees>
              <LongitudeDegrees>-16.60780479200184345245361328125</LongitudeDegrees>
            </Position>
            <AltitudeMeters>2599.800048828125</AltitudeMeters>
            <DistanceMeters>3242.3150313518</DistanceMeters>
          </Trackpoint>
          <Trackpoint>
            <Time>2019-04-07T12:45:34.000Z</Time>
            <Position>
              <LatitudeDegrees>28.27449493110179901123046875</LatitudeDegrees>
              <LongitudeDegrees>-16.60789749585092067718505859375</LongitudeDegrees>
            </Position>
            <AltitudeMeters>2600.60009765625</AltitudeMeters>
            <DistanceMeters>3253.8348405264</DistanceMeters>
          </Trackpoint>
          <Trackpoint>
            <Time>2019-04-07T12:45:35.000Z</Time>
            <Position>
              <LatitudeDegrees>28.274502642452716827392578125</LatitudeDegrees>
              <LongitudeDegrees>-16.607907302677631378173828125</LongitudeDegrees>
            </Position>
            <AltitudeMeters>2600.800048828125</AltitudeMeters>
            <DistanceMeters>3255.1238455946</DistanceMeters>
          </Trackpoint>
          <Trackpoint>
            <Time>2019-04-07T12:45:44.000Z</Time>
            <Position>
              <LatitudeDegrees>28.27456659637391567230224609375</LatitudeDegrees>
              <LongitudeDegrees>-16.6079954802989959716796875</LongitudeDegrees>
            </Position>
            <AltitudeMeters>2601.800048828125</AltitudeMeters>
            <DistanceMeters>3266.3208800836</DistanceMeters>
          </Trackpoint>
          <Trackpoint>
            <Time>2019-04-07T12:45:53.000Z</Time>
            <Position>
              <LatitudeDegrees>28.27463616617023944854736328125</LatitudeDegrees>
              <LongitudeDegrees>-16.60808642394840717315673828125</LongitudeDegrees>
            </Position>
            <AltitudeMeters>2602</AltitudeMeters>
            <DistanceMeters>3278.1286902232</DistanceMeters>
          </Trackpoint>
          <Trackpoint>
            <Time>2019-04-07T12:45:57.000Z</Time>
            <Position>
              <LatitudeDegrees>28.2746647484600543975830078125</LatitudeDegrees>
              <LongitudeDegrees>-16.6081260703504085540771484375</LongitudeDegrees>
            </Position>
            <AltitudeMeters>2602.800048828125</AltitudeMeters>
            <DistanceMeters>3283.1507419462</DistanceMeters>
          </Trackpoint>
          <Trackpoint>
            <Time>2019-04-07T12:46:04.000Z</Time>
            <Position>
              <LatitudeDegrees>28.2747083343565464019775390625</LatitudeDegrees>
              <LongitudeDegrees>-16.60819874145090579986572265625</LongitudeDegrees>
            </Position>
            <AltitudeMeters>2603</AltitudeMeters>
            <DistanceMeters>3291.768884365</DistanceMeters>
          </Trackpoint>
          <Trackpoint>
            <Time>2019-04-07T12:46:11.000Z</Time>
            <Position>
              <LatitudeDegrees>28.27476357109844684600830078125</LatitudeDegrees>
              <LongitudeDegrees>-16.608262360095977783203125</LongitudeDegrees>
            </Position>
            <AltitudeMeters>2604.199951171875</AltitudeMeters>
            <DistanceMeters>3300.5252751218</DistanceMeters>
          </Trackpoint>
          <Trackpoint>
            <Time>2019-04-07T12:46:13.000Z</Time>
            <Position>
              <LatitudeDegrees>28.2747777365148067474365234375</LatitudeDegrees>
              <LongitudeDegrees>-16.60828054882586002349853515625</LongitudeDegrees>
            </Position>
            <AltitudeMeters>2604.800048828125</AltitudeMeters>
            <DistanceMeters>3302.9028427558</DistanceMeters>
          </Trackpoint>
          <Trackpoint>
            <Time>2019-04-07T12:46:24.000Z</Time>
            <Position>
              <LatitudeDegrees>28.2748541794717311859130859375</LatitudeDegrees>
              <LongitudeDegrees>-16.60839638672769069671630859375</LongitudeDegrees>
            </Position>
            <AltitudeMeters>2604.60009765625</AltitudeMeters>
            <DistanceMeters>3317.0911299732</DistanceMeters>
          </Trackpoint>
          <Trackpoint>
            <Time>2019-04-07T12:46:32.000Z</Time>
            <Position>
              <LatitudeDegrees>28.27490908093750476837158203125</LatitudeDegrees>
              <LongitudeDegrees>-16.60847551189363002777099609375</LongitudeDegrees>
            </Position>
            <AltitudeMeters>2605.199951171875</AltitudeMeters>
            <DistanceMeters>3326.9652241274</DistanceMeters>
          </Trackpoint>
          <Trackpoint>
            <Time>2019-04-07T12:46:34.000Z</Time>
            <Position>
              <LatitudeDegrees>28.274923078715801239013671875</LatitudeDegrees>
              <LongitudeDegrees>-16.60849378444254398345947265625</LongitudeDegrees>
            </Position>
            <AltitudeMeters>2606</AltitudeMeters>
            <DistanceMeters>3329.3389906915</DistanceMeters>
          </Trackpoint>
          <Trackpoint>
            <Time>2019-04-07T12:46:35.000Z</Time>
            <Position>
              <LatitudeDegrees>28.2749309577047824859619140625</LatitudeDegrees>
              <LongitudeDegrees>-16.60850250162184238433837890625</LongitudeDegrees>
            </Position>
            <AltitudeMeters>2606.60009765625</AltitudeMeters>
            <DistanceMeters>3330.5670064757</DistanceMeters>
          </Trackpoint>
          <Trackpoint>
            <Time>2019-04-07T12:46:42.000Z</Time>
            <Position>
              <LatitudeDegrees>28.274975717067718505859375</LatitudeDegrees>
              <LongitudeDegrees>-16.60857282578945159912109375</LongitudeDegrees>
            </Position>
            <AltitudeMeters>2607.60009765625</AltitudeMeters>
            <DistanceMeters>3339.0717646919</DistanceMeters>
          </Trackpoint>
          <Trackpoint>
            <Time>2019-04-07T12:46:44.000Z</Time>
            <Position>
              <LatitudeDegrees>28.27498803846538066864013671875</LatitudeDegrees>
              <LongitudeDegrees>-16.60859269089996814727783203125</LongitudeDegrees>
            </Position>
            <AltitudeMeters>2607.39990234375</AltitudeMeters>
            <DistanceMeters>3341.4531273284</DistanceMeters>
          </Trackpoint>
          <Trackpoint>
            <Time>2019-04-07T12:46:54.000Z</Time>
            <Position>
              <LatitudeDegrees>28.27506079338490962982177734375</LatitudeDegrees>
              <LongitudeDegrees>-16.608689837157726287841796875</LongitudeDegrees>
            </Position>
            <AltitudeMeters>2608.39990234375</AltitudeMeters>
            <DistanceMeters>3353.9533850372</DistanceMeters>
          </Trackpoint>
          <Trackpoint>
            <Time>2019-04-07T12:46:55.000Z</Time>
            <Position>
              <LatitudeDegrees>28.27506783418357372283935546875</LatitudeDegrees>
              <LongitudeDegrees>-16.60870031453669071197509765625</LongitudeDegrees>
            </Position>
            <AltitudeMeters>2608.60009765625</AltitudeMeters>
            <DistanceMeters>3355.2458880903</DistanceMeters>
          </Trackpoint>
          <Trackpoint>
            <Time>2019-04-07T12:47:02.000Z</Time>
            <Position>
              <LatitudeDegrees>28.27512566931545734405517578125</LatitudeDegrees>
              <LongitudeDegrees>-16.6087610833346843719482421875</LongitudeDegrees>
            </Position>
            <AltitudeMeters>2609.800048828125</AltitudeMeters>
            <DistanceMeters>3364.016189747</DistanceMeters>
          </Trackpoint>
          <Trackpoint>
            <Time>2019-04-07T12:47:04.000Z</Time>
            <Position>
              <LatitudeDegrees>28.27514193020761013031005859375</LatitudeDegrees>
              <LongitudeDegrees>-16.6087781824171543121337890625</LongitudeDegrees>
            </Position>
            <AltitudeMeters>2610</AltitudeMeters>
            <DistanceMeters>3366.4832267397</DistanceMeters>
          </Trackpoint>
          <Trackpoint>
            <Time>2019-04-07T12:47:10.000Z</Time>
            <Position>
              <LatitudeDegrees>28.2751958258450031280517578125</LatitudeDegrees>
              <LongitudeDegrees>-16.60883006639778614044189453125</LongitudeDegrees>
            </Position>
            <AltitudeMeters>2611</AltitudeMeters>
            <DistanceMeters>3374.3475126936</DistanceMeters>
          </Trackpoint>
          <Trackpoint>
            <Time>2019-04-07T12:47:14.000Z</Time>
            <Position>
              <LatitudeDegrees>28.2752300240099430084228515625</LatitudeDegrees>
              <LongitudeDegrees>-16.6088563017547130584716796875</LongitudeDegrees>
            </Position>
            <AltitudeMeters>2611.39990234375</AltitudeMeters>
            <DistanceMeters>3378.9403613274</DistanceMeters>
          </Trackpoint>
          <Trackpoint>
            <Time>2019-04-07T12:47:19.000Z</Time>
            <Position>
              <LatitudeDegrees>28.27526045031845569610595703125</LatitudeDegrees>
              <LongitudeDegrees>-16.60888932645320892333984375</LongitudeDegrees>
            </Position>
            <AltitudeMeters>2612.199951171875</AltitudeMeters>
            <DistanceMeters>3383.6247060797</DistanceMeters>
          </Trackpoint>
          <Trackpoint>
            <Time>2019-04-07T12:47:22.000Z</Time>
            <Position>
              <LatitudeDegrees>28.27528593130409717559814453125</LatitudeDegrees>
              <LongitudeDegrees>-16.6089119575917720794677734375</LongitudeDegrees>
            </Position>
            <AltitudeMeters>2613.199951171875</AltitudeMeters>
            <DistanceMeters>3387.2257045209</DistanceMeters>
          </Trackpoint>
          <Trackpoint>
            <Time>2019-04-07T12:47:27.000Z</Time>
            <Position>
              <LatitudeDegrees>28.27533270232379436492919921875</LatitudeDegrees>
              <LongitudeDegrees>-16.60895361565053462982177734375</LongitudeDegrees>
            </Position>
            <AltitudeMeters>2614</AltitudeMeters>
            <DistanceMeters>3393.8421847484</DistanceMeters>
          </Trackpoint>
          <Trackpoint>
            <Time>2019-04-07T12:47:36.000Z</Time>
            <Position>
              <LatitudeDegrees>28.275407217442989349365234375</LatitudeDegrees>
              <LongitudeDegrees>-16.60902821458876132965087890625</LongitudeDegrees>
            </Position>
            <AltitudeMeters>2614</AltitudeMeters>
            <DistanceMeters>3404.8988196297</DistanceMeters>
          </Trackpoint>
          <Trackpoint>
            <Time>2019-04-07T12:47:38.000Z</Time>
            <Position>
              <LatitudeDegrees>28.275432027876377105712890625</LatitudeDegrees>
              <LongitudeDegrees>-16.6090551204979419708251953125</LongitudeDegrees>
            </Position>
            <AltitudeMeters>2614.39990234375</AltitudeMeters>
            <DistanceMeters>3408.7176641482</DistanceMeters>
          </Trackpoint>
          <Trackpoint>
            <Time>2019-04-07T12:47:46.000Z</Time>
            <Position>
              <LatitudeDegrees>28.2755009271204471588134765625</LatitudeDegrees>
              <LongitudeDegrees>-16.60912343300879001617431640625</LongitudeDegrees>
            </Position>
            <AltitudeMeters>2614.800048828125</AltitudeMeters>
            <DistanceMeters>3418.8983918935</DistanceMeters>
          </Trackpoint>
          <Trackpoint>
            <Time>2019-04-07T12:47:52.000Z</Time>
            <Position>
              <LatitudeDegrees>28.27554459683597087860107421875</LatitudeDegrees>
              <LongitudeDegrees>-16.6091788373887538909912109375</LongitudeDegrees>
            </Position>
            <AltitudeMeters>2615.199951171875</AltitudeMeters>
            <DistanceMeters>3426.1863895364</DistanceMeters>
          </Trackpoint>
          <Trackpoint>
            <Time>2019-04-07T12:47:53.000Z</Time>
            <Position>
              <LatitudeDegrees>28.27554459683597087860107421875</LatitudeDegrees>
              <LongitudeDegrees>-16.6091788373887538909912109375</LongitudeDegrees>
            </Position>
            <AltitudeMeters>2615.39990234375</AltitudeMeters>
            <DistanceMeters>3426.1863895364</DistanceMeters>
          </Trackpoint>
          <Trackpoint>
            <Time>2019-04-07T12:48:01.000Z</Time>
            <Position>
              <LatitudeDegrees>28.275605030357837677001953125</LatitudeDegrees>
              <LongitudeDegrees>-16.60925838164985179901123046875</LongitudeDegrees>
            </Position>
            <AltitudeMeters>2616</AltitudeMeters>
            <DistanceMeters>3436.4835327133</DistanceMeters>
          </Trackpoint>
          <Trackpoint>
            <Time>2019-04-07T12:48:06.000Z</Time>
            <Position>
              <LatitudeDegrees>28.27563621103763580322265625</LatitudeDegrees>
              <LongitudeDegrees>-16.60931043326854705810546875</LongitudeDegrees>
            </Position>
            <AltitudeMeters>2616.60009765625</AltitudeMeters>
            <DistanceMeters>3442.6544185787</DistanceMeters>
          </Trackpoint>
          <Trackpoint>
            <Time>2019-04-07T12:48:11.000Z</Time>
            <Position>
              <LatitudeDegrees>28.2756752707064151763916015625</LatitudeDegrees>
              <LongitudeDegrees>-16.60935628227889537811279296875</LongitudeDegrees>
            </Position>
            <AltitudeMeters>2617.60009765625</AltitudeMeters>
            <DistanceMeters>3448.9074363304</DistanceMeters>
          </Trackpoint>
          <Trackpoint>
            <Time>2019-04-07T12:48:23.000Z</Time>
            <Position>
              <LatitudeDegrees>28.2757490314543247222900390625</LatitudeDegrees>
              <LongitudeDegrees>-16.6094809211790561676025390625</LongitudeDegrees>
            </Position>
            <AltitudeMeters>2617.60009765625</AltitudeMeters>
            <DistanceMeters>3463.62676458</DistanceMeters>
          </Trackpoint>
          <Trackpoint>
            <Time>2019-04-07T12:48:29.000Z</Time>
            <Position>
              <LatitudeDegrees>28.27577459625899791717529296875</LatitudeDegrees>
              <LongitudeDegrees>-16.60954621620476245880126953125</LongitudeDegrees>
            </Position>
            <AltitudeMeters>2617.800048828125</AltitudeMeters>
            <DistanceMeters>3470.6310779168</DistanceMeters>
          </Trackpoint>
          <Trackpoint>
            <Time>2019-04-07T12:48:33.000Z</Time>
            <Position>
              <LatitudeDegrees>28.27579119242727756500244140625</LatitudeDegrees>
              <LongitudeDegrees>-16.609603129327297210693359375</LongitudeDegrees>
            </Position>
            <AltitudeMeters>2618.800048828125</AltitudeMeters>
            <DistanceMeters>3476.5081556258</DistanceMeters>
          </Trackpoint>
          <Trackpoint>
            <Time>2019-04-07T12:48:34.000Z</Time>
            <Position>
              <LatitudeDegrees>28.2757952995598316192626953125</LatitudeDegrees>
              <LongitudeDegrees>-16.6096153669059276580810546875</LongitudeDegrees>
            </Position>
            <AltitudeMeters>2618.800048828125</AltitudeMeters>
            <DistanceMeters>3477.7901360909</DistanceMeters>
          </Trackpoint>
          <Trackpoint>
            <Time>2019-04-07T12:48:44.000Z</Time>
            <Position>
              <LatitudeDegrees>28.27582756988704204559326171875</LatitudeDegrees>
              <LongitudeDegrees>-16.60973413847386837005615234375</LongitudeDegrees>
            </Position>
            <AltitudeMeters>2619</AltitudeMeters>
            <DistanceMeters>3489.9739543209</DistanceMeters>
          </Trackpoint>
          <Trackpoint>
            <Time>2019-04-07T12:48:49.000Z</Time>
            <Position>
              <LatitudeDegrees>28.2758305035531520843505859375</LatitudeDegrees>
              <LongitudeDegrees>-16.6097819991409778594970703125</LongitudeDegrees>
            </Position>
            <AltitudeMeters>2620</AltitudeMeters>
            <DistanceMeters>3494.6765766969</DistanceMeters>
          </Trackpoint>
          <Trackpoint>
            <Time>2019-04-07T12:48:52.000Z</Time>
            <Position>
              <LatitudeDegrees>28.27584098093211650848388671875</LatitudeDegrees>
              <LongitudeDegrees>-16.60982700996100902557373046875</LongitudeDegrees>
            </Position>
            <AltitudeMeters>2620.800048828125</AltitudeMeters>
            <DistanceMeters>3499.2398382805</DistanceMeters>
          </Trackpoint>
          <Trackpoint>
            <Time>2019-04-07T12:48:55.000Z</Time>
            <Position>
              <LatitudeDegrees>28.2758452557027339935302734375</LatitudeDegrees>
              <LongitudeDegrees>-16.60985089838504791259765625</LongitudeDegrees>
            </Position>
            <AltitudeMeters>2621</AltitudeMeters>
            <DistanceMeters>3501.6306620692</DistanceMeters>
          </Trackpoint>
          <Trackpoint>
            <Time>2019-04-07T12:49:02.000Z</Time>
            <Position>
              <LatitudeDegrees>28.27586495317518711090087890625</LatitudeDegrees>
              <LongitudeDegrees>-16.60994502715766429901123046875</LongitudeDegrees>
            </Position>
            <AltitudeMeters>2622.199951171875</AltitudeMeters>
            <DistanceMeters>3511.1143091199</DistanceMeters>
          </Trackpoint>
          <Trackpoint>
            <Time>2019-04-07T12:49:08.000Z</Time>
            <Position>
              <LatitudeDegrees>28.275883309543132781982421875</LatitudeDegrees>
              <LongitudeDegrees>-16.61001426167786121368408203125</LongitudeDegrees>
            </Position>
            <AltitudeMeters>2623.199951171875</AltitudeMeters>
            <DistanceMeters>3518.2019261565</DistanceMeters>
          </Trackpoint>
          <Trackpoint>
            <Time>2019-04-07T12:49:18.000Z</Time>
            <Position>
              <LatitudeDegrees>28.275942988693714141845703125</LatitudeDegrees>
              <LongitudeDegrees>-16.61011568270623683929443359375</LongitudeDegrees>
            </Position>
            <AltitudeMeters>2624.199951171875</AltitudeMeters>
            <DistanceMeters>3530.1579334377</DistanceMeters>
          </Trackpoint>
          <Trackpoint>
            <Time>2019-04-07T12:49:20.000Z</Time>
            <Position>
              <LatitudeDegrees>28.2759599201381206512451171875</LatitudeDegrees>
              <LongitudeDegrees>-16.61013060249388217926025390625</LongitudeDegrees>
            </Position>
            <AltitudeMeters>2624.39990234375</AltitudeMeters>
            <DistanceMeters>3532.5449772656</DistanceMeters>
          </Trackpoint>
          <Trackpoint>
            <Time>2019-04-07T12:49:24.000Z</Time>
            <Position>
              <LatitudeDegrees>28.2759954594075679779052734375</LatitudeDegrees>
              <LongitudeDegrees>-16.610159687697887420654296875</LongitudeDegrees>
            </Position>
            <AltitudeMeters>2625.199951171875</AltitudeMeters>
            <DistanceMeters>3537.4210608659</DistanceMeters>
          </Trackpoint>
          <Trackpoint>
            <Time>2019-04-07T12:49:31.000Z</Time>
            <Position>
              <LatitudeDegrees>28.276045583188533782958984375</LatitudeDegrees>
              <LongitudeDegrees>-16.61020520143210887908935546875</LongitudeDegrees>
            </Position>
            <AltitudeMeters>2625.800048828125</AltitudeMeters>
            <DistanceMeters>3544.5638846708</DistanceMeters>
          </Trackpoint>
          <Trackpoint>
            <Time>2019-04-07T12:49:36.000Z</Time>
            <Position>
              <LatitudeDegrees>28.27609713189303874969482421875</LatitudeDegrees>
              <LongitudeDegrees>-16.61024040542542934417724609375</LongitudeDegrees>
            </Position>
            <AltitudeMeters>2626.39990234375</AltitudeMeters>
            <DistanceMeters>3551.2590545318</DistanceMeters>
          </Trackpoint>
          <Trackpoint>
            <Time>2019-04-07T12:49:43.000Z</Time>
            <Position>
              <LatitudeDegrees>28.27615245245397090911865234375</LatitudeDegrees>
              <LongitudeDegrees>-16.61027896218001842498779296875</LongitudeDegrees>
            </Position>
            <AltitudeMeters>2627</AltitudeMeters>
            <DistanceMeters>3558.4829601077</DistanceMeters>
          </Trackpoint>
          <Trackpoint>
            <Time>2019-04-07T12:49:48.000Z</Time>
            <Position>
              <LatitudeDegrees>28.276209533214569091796875</LatitudeDegrees>
              <LongitudeDegrees>-16.61031483672559261322021484375</LongitudeDegrees>
            </Position>
            <AltitudeMeters>2627.60009765625</AltitudeMeters>
            <DistanceMeters>3565.7448914233</DistanceMeters>
          </Trackpoint>
          <Trackpoint>
            <Time>2019-04-07T12:49:53.000Z</Time>
            <Position>
              <LatitudeDegrees>28.276247084140777587890625</LatitudeDegrees>
              <LongitudeDegrees>-16.6103402338922023773193359375</LongitudeDegrees>
            </Position>
            <AltitudeMeters>2628</AltitudeMeters>
            <DistanceMeters>3570.609850864</DistanceMeters>
          </Trackpoint>
          <Trackpoint>
            <Time>2019-04-07T12:50:00.000Z</Time>
            <Position>
              <LatitudeDegrees>28.27632344327867031097412109375</LatitudeDegrees>
              <LongitudeDegrees>-16.61038490943610668182373046875</LongitudeDegrees>
            </Position>
            <AltitudeMeters>2628.60009765625</AltitudeMeters>
            <DistanceMeters>3580.1712573463</DistanceMeters>
          </Trackpoint>
          <Trackpoint>
            <Time>2019-04-07T12:50:03.000Z</Time>
            <Position>
              <LatitudeDegrees>28.27634993009269237518310546875</LatitudeDegrees>
              <LongitudeDegrees>-16.6104049421846866607666015625</LongitudeDegrees>
            </Position>
            <AltitudeMeters>2628.60009765625</AltitudeMeters>
            <DistanceMeters>3583.7141101878</DistanceMeters>
          </Trackpoint>
          <Trackpoint>
            <Time>2019-04-07T12:50:11.000Z</Time>
            <Position>
              <LatitudeDegrees>28.2764066755771636962890625</LatitudeDegrees>
              <LongitudeDegrees>-16.61045514978468418121337890625</LongitudeDegrees>
            </Position>
            <AltitudeMeters>2629.60009765625</AltitudeMeters>
            <DistanceMeters>3591.7212034652</DistanceMeters>
          </Trackpoint>
          <Trackpoint>
            <Time>2019-04-07T12:50:13.000Z</Time>
            <Position>
              <LatitudeDegrees>28.2764227688312530517578125</LatitudeDegrees>
              <LongitudeDegrees>-16.6104711592197418212890625</LongitudeDegrees>
            </Position>
            <AltitudeMeters>2629.800048828125</AltitudeMeters>
            <DistanceMeters>3594.1025661017</DistanceMeters>
          </Trackpoint>
          <Trackpoint>
            <Time>2019-04-07T12:50:24.000Z</Time>
            <Position>
              <LatitudeDegrees>28.27650792896747589111328125</LatitudeDegrees>
              <LongitudeDegrees>-16.61056478507816791534423828125</LongitudeDegrees>
            </Position>
            <AltitudeMeters>2630.800048828125</AltitudeMeters>
            <DistanceMeters>3607.2958884102</DistanceMeters>
          </Trackpoint>
          <Trackpoint>
            <Time>2019-04-07T12:50:32.000Z</Time>
            <Position>
              <LatitudeDegrees>28.27652997337281703948974609375</LatitudeDegrees>
              <LongitudeDegrees>-16.6105891764163970947265625</LongitudeDegrees>
            </Position>
            <AltitudeMeters>2631.800048828125</AltitudeMeters>
            <DistanceMeters>3610.7221253222</DistanceMeters>
          </Trackpoint>
          <Trackpoint>
            <Time>2019-04-07T12:50:43.000Z</Time>
            <Position>
              <LatitudeDegrees>28.27654187567532062530517578125</LatitudeDegrees>
              <LongitudeDegrees>-16.61062262021005153656005859375</LongitudeDegrees>
            </Position>
            <AltitudeMeters>2631.60009765625</AltitudeMeters>
            <DistanceMeters>3614.2586003857</DistanceMeters>
          </Trackpoint>
          <Trackpoint>
            <Time>2019-04-07T12:50:45.000Z</Time>
            <Position>
              <LatitudeDegrees>28.27655092813074588775634765625</LatitudeDegrees>
              <LongitudeDegrees>-16.61065799184143543243408203125</LongitudeDegrees>
            </Position>
            <AltitudeMeters>2632</AltitudeMeters>
            <DistanceMeters>3617.8696155317</DistanceMeters>
          </Trackpoint>
          <Trackpoint>
            <Time>2019-04-07T12:50:52.000Z</Time>
            <Position>
              <LatitudeDegrees>28.2765798456966876983642578125</LatitudeDegrees>
              <LongitudeDegrees>-16.610731668770313262939453125</LongitudeDegrees>
            </Position>
            <AltitudeMeters>2632.199951171875</AltitudeMeters>
            <DistanceMeters>3625.7768431937</DistanceMeters>
          </Trackpoint>
          <Trackpoint>
            <Time>2019-04-07T12:51:05.000Z</Time>
            <Position>
              <LatitudeDegrees>28.2766217552125453948974609375</LatitudeDegrees>
              <LongitudeDegrees>-16.61086603067815303802490234375</LongitudeDegrees>
            </Position>
            <AltitudeMeters>2632.39990234375</AltitudeMeters>
            <DistanceMeters>3639.7490020334</DistanceMeters>
          </Trackpoint>
          <Trackpoint>
            <Time>2019-04-07T12:51:13.000Z</Time>
            <Position>
              <LatitudeDegrees>28.2766489125788211822509765625</LatitudeDegrees>
              <LongitudeDegrees>-16.61096443422138690948486328125</LongitudeDegrees>
            </Position>
            <AltitudeMeters>2633.39990234375</AltitudeMeters>
            <DistanceMeters>3649.8571826295</DistanceMeters>
          </Trackpoint>
          <Trackpoint>
            <Time>2019-04-07T12:51:17.000Z</Time>
            <Position>
              <LatitudeDegrees>28.27665251679718494415283203125</LatitudeDegrees>
              <LongitudeDegrees>-16.61101271398365497589111328125</LongitudeDegrees>
            </Position>
            <AltitudeMeters>2634.60009765625</AltitudeMeters>
            <DistanceMeters>3654.6066174334</DistanceMeters>
          </Trackpoint>
          <Trackpoint>
            <Time>2019-04-07T12:51:24.000Z</Time>
            <Position>
              <LatitudeDegrees>28.2766606472432613372802734375</LatitudeDegrees>
              <LongitudeDegrees>-16.61110826767981052398681640625</LongitudeDegrees>
            </Position>
            <AltitudeMeters>2634.199951171875</AltitudeMeters>
            <DistanceMeters>3664.0161816918</DistanceMeters>
          </Trackpoint>
          <Trackpoint>
            <Time>2019-04-07T12:51:34.000Z</Time>
            <Position>
              <LatitudeDegrees>28.2766737230122089385986328125</LatitudeDegrees>
              <LongitudeDegrees>-16.61122527904808521270751953125</LongitudeDegrees>
            </Position>
            <AltitudeMeters>2634.199951171875</AltitudeMeters>
            <DistanceMeters>3675.5774615312</DistanceMeters>
          </Trackpoint>
          <Trackpoint>
            <Time>2019-04-07T12:51:47.000Z</Time>
            <Position>
              <LatitudeDegrees>28.27669979073107242584228515625</LatitudeDegrees>
              <LongitudeDegrees>-16.6113661788403987884521484375</LongitudeDegrees>
            </Position>
            <AltitudeMeters>2635.60009765625</AltitudeMeters>
            <DistanceMeters>3689.6901283964</DistanceMeters>
          </Trackpoint>
          <Trackpoint>
            <Time>2019-04-07T12:51:49.000Z</Time>
            <Position>
              <LatitudeDegrees>28.27670029364526271820068359375</LatitudeDegrees>
              <LongitudeDegrees>-16.6113906539976596832275390625</LongitudeDegrees>
            </Position>
            <AltitudeMeters>2636.39990234375</AltitudeMeters>
            <DistanceMeters>3692.0922563796</DistanceMeters>
          </Trackpoint>
          <Trackpoint>
            <Time>2019-04-07T12:51:54.000Z</Time>
            <Position>
              <LatitudeDegrees>28.27670699916779994964599609375</LatitudeDegrees>
              <LongitudeDegrees>-16.6114603914320468902587890625</LongitudeDegrees>
            </Position>
            <AltitudeMeters>2637</AltitudeMeters>
            <DistanceMeters>3698.9690659841</DistanceMeters>
          </Trackpoint>
          <Trackpoint>
            <Time>2019-04-07T12:51:57.000Z</Time>
            <Position>
              <LatitudeDegrees>28.2767055742442607879638671875</LatitudeDegrees>
              <LongitudeDegrees>-16.61149375140666961669921875</LongitudeDegrees>
            </Position>
            <AltitudeMeters>2637.60009765625</AltitudeMeters>
            <DistanceMeters>3702.2430086744</DistanceMeters>
          </Trackpoint>
          <Trackpoint>
            <Time>2019-04-07T12:52:01.000Z</Time>
            <Position>
              <LatitudeDegrees>28.27670507133007049560546875</LatitudeDegrees>
              <LongitudeDegrees>-16.6115279495716094970703125</LongitudeDegrees>
            </Position>
            <AltitudeMeters>2638.199951171875</AltitudeMeters>
            <DistanceMeters>3705.5946373973</DistanceMeters>
          </Trackpoint>
          <Trackpoint>
            <Time>2019-04-07T12:52:07.000Z</Time>
            <Position>
              <LatitudeDegrees>28.27668956480920314788818359375</LatitudeDegrees>
              <LongitudeDegrees>-16.61159089766442775726318359375</LongitudeDegrees>
            </Position>
            <AltitudeMeters>2639</AltitudeMeters>
            <DistanceMeters>3712.0017215636</DistanceMeters>
          </Trackpoint>
          <Trackpoint>
            <Time>2019-04-07T12:52:08.000Z</Time>
            <Position>
              <LatitudeDegrees>28.2766837812960147857666015625</LatitudeDegrees>
              <LongitudeDegrees>-16.61161176860332489013671875</LongitudeDegrees>
            </Position>
            <AltitudeMeters>2639.199951171875</AltitudeMeters>
            <DistanceMeters>3714.1477269192</DistanceMeters>
          </Trackpoint>
          <Trackpoint>
            <Time>2019-04-07T12:52:17.000Z</Time>
            <Position>
              <LatitudeDegrees>28.27663508243858814239501953125</LatitudeDegrees>
              <LongitudeDegrees>-16.61168829537928104400634765625</LongitudeDegrees>
            </Position>
            <AltitudeMeters>2640.39990234375</AltitudeMeters>
            <DistanceMeters>3723.4024703014</DistanceMeters>
          </Trackpoint>
          <Trackpoint>
            <Time>2019-04-07T12:52:28.000Z</Time>
            <Position>
              <LatitudeDegrees>28.2765681110322475433349609375</LatitudeDegrees>
              <LongitudeDegrees>-16.61180027760565280914306640625</LongitudeDegrees>
            </Position>
            <AltitudeMeters>2642</AltitudeMeters>
            <DistanceMeters>3736.6705274416</DistanceMeters>
          </Trackpoint>
          <Trackpoint>
            <Time>2019-04-07T12:52:29.000Z</Time>
            <Position>
              <LatitudeDegrees>28.2765681110322475433349609375</LatitudeDegrees>
              <LongitudeDegrees>-16.61180027760565280914306640625</LongitudeDegrees>
            </Position>
            <AltitudeMeters>2642.39990234375</AltitudeMeters>
            <DistanceMeters>3736.765554156</DistanceMeters>
          </Trackpoint>
          <Trackpoint>
            <Time>2019-04-07T12:52:38.000Z</Time>
            <Position>
              <LatitudeDegrees>28.2765205018222332000732421875</LatitudeDegrees>
              <LongitudeDegrees>-16.611907482147216796875</LongitudeDegrees>
            </Position>
            <AltitudeMeters>2642.60009765625</AltitudeMeters>
            <DistanceMeters>3748.5350644538</DistanceMeters>
          </Trackpoint>
          <Trackpoint>
            <Time>2019-04-07T12:52:48.000Z</Time>
            <Position>
              <LatitudeDegrees>28.2764926739037036895751953125</LatitudeDegrees>
              <LongitudeDegrees>-16.6120286844670772552490234375</LongitudeDegrees>
            </Position>
            <AltitudeMeters>2642.800048828125</AltitudeMeters>
            <DistanceMeters>3760.8126483399</DistanceMeters>
          </Trackpoint>
          <Trackpoint>
            <Time>2019-04-07T12:52:58.000Z</Time>
            <Position>
              <LatitudeDegrees>28.27646777965128421783447265625</LatitudeDegrees>
              <LongitudeDegrees>-16.61215030588209629058837890625</LongitudeDegrees>
            </Position>
            <AltitudeMeters>2642.800048828125</AltitudeMeters>
            <DistanceMeters>3773.0511890199</DistanceMeters>
          </Trackpoint>
          <Trackpoint>
            <Time>2019-04-07T12:53:07.000Z</Time>
            <Position>
              <LatitudeDegrees>28.27644481323659420013427734375</LatitudeDegrees>
              <LongitudeDegrees>-16.6122442670166492462158203125</LongitudeDegrees>
            </Position>
            <AltitudeMeters>2643</AltitudeMeters>
            <DistanceMeters>3782.609761793</DistanceMeters>
          </Trackpoint>
          <Trackpoint>
            <Time>2019-04-07T12:53:09.000Z</Time>
            <Position>
              <LatitudeDegrees>28.27643861062824726104736328125</LatitudeDegrees>
              <LongitudeDegrees>-16.612279973924160003662109375</LongitudeDegrees>
            </Position>
            <AltitudeMeters>2644.39990234375</AltitudeMeters>
            <DistanceMeters>3786.1754801825</DistanceMeters>
          </Trackpoint>
          <Trackpoint>
            <Time>2019-04-07T12:53:12.000Z</Time>
            <Position>
              <LatitudeDegrees>28.276431150734424591064453125</LatitudeDegrees>
              <LongitudeDegrees>-16.61231626756489276885986328125</LongitudeDegrees>
            </Position>
            <AltitudeMeters>2645.60009765625</AltitudeMeters>
            <DistanceMeters>3789.8287599397</DistanceMeters>
          </Trackpoint>
          <Trackpoint>
            <Time>2019-04-07T12:53:18.000Z</Time>
            <Position>
              <LatitudeDegrees>28.27642343938350677490234375</LatitudeDegrees>
              <LongitudeDegrees>-16.61238868720829486846923828125</LongitudeDegrees>
            </Position>
            <AltitudeMeters>2645.800048828125</AltitudeMeters>
            <DistanceMeters>3796.9791650209</DistanceMeters>
          </Trackpoint>
          <Trackpoint>
            <Time>2019-04-07T12:53:30.000Z</Time>
            <Position>
              <LatitudeDegrees>28.27641799114644527435302734375</LatitudeDegrees>
              <LongitudeDegrees>-16.6125342808663845062255859375</LongitudeDegrees>
            </Position>
            <AltitudeMeters>2646.800048828125</AltitudeMeters>
            <DistanceMeters>3811.2632322726</DistanceMeters>
          </Trackpoint>
          <Trackpoint>
            <Time>2019-04-07T12:53:37.000Z</Time>
            <Position>
              <LatitudeDegrees>28.2764182426035404205322265625</LatitudeDegrees>
              <LongitudeDegrees>-16.6126073710620403289794921875</LongitudeDegrees>
            </Position>
            <AltitudeMeters>2648</AltitudeMeters>
            <DistanceMeters>3818.4275155241</DistanceMeters>
          </Trackpoint>
          <Trackpoint>
            <Time>2019-04-07T12:53:41.000Z</Time>
            <Position>
              <LatitudeDegrees>28.276420421898365020751953125</LatitudeDegrees>
              <LongitudeDegrees>-16.61265623755753040313720703125</LongitudeDegrees>
            </Position>
            <AltitudeMeters>2648.199951171875</AltitudeMeters>
            <DistanceMeters>3823.2242472009</DistanceMeters>
          </Trackpoint>
          <Trackpoint>
            <Time>2019-04-07T12:53:47.000Z</Time>
            <Position>
              <LatitudeDegrees>28.276428468525409698486328125</LatitudeDegrees>
              <LongitudeDegrees>-16.61272748373448848724365234375</LongitudeDegrees>
            </Position>
            <AltitudeMeters>2649.199951171875</AltitudeMeters>
            <DistanceMeters>3830.2652073398</DistanceMeters>
          </Trackpoint>
          <Trackpoint>
            <Time>2019-04-07T12:53:52.000Z</Time>
            <Position>
              <LatitudeDegrees>28.276435174047946929931640625</LatitudeDegrees>
              <LongitudeDegrees>-16.612794958055019378662109375</LongitudeDegrees>
            </Position>
            <AltitudeMeters>2650.39990234375</AltitudeMeters>
            <DistanceMeters>3836.9211486732</DistanceMeters>
          </Trackpoint>
          <Trackpoint>
            <Time>2019-04-07T12:53:54.000Z</Time>
            <Position>
              <LatitudeDegrees>28.27644095756113529205322265625</LatitudeDegrees>
              <LongitudeDegrees>-16.6128162480890750885009765625</LongitudeDegrees>
            </Position>
            <AltitudeMeters>2650.60009765625</AltitudeMeters>
            <DistanceMeters>3839.1067631037</DistanceMeters>
          </Trackpoint>
          <Trackpoint>
            <Time>2019-04-07T12:53:59.000Z</Time>
            <Position>
              <LatitudeDegrees>28.276456296443939208984375</LatitudeDegrees>
              <LongitudeDegrees>-16.612860001623630523681640625</LongitudeDegrees>
            </Position>
            <AltitudeMeters>2651.39990234375</AltitudeMeters>
            <DistanceMeters>3843.7231448479</DistanceMeters>
          </Trackpoint>
          <Trackpoint>
            <Time>2019-04-07T12:54:01.000Z</Time>
            <Position>
              <LatitudeDegrees>28.27646258287131786346435546875</LatitudeDegrees>
              <LongitudeDegrees>-16.612880118191242218017578125</LongitudeDegrees>
            </Position>
            <AltitudeMeters>2651.800048828125</AltitudeMeters>
            <DistanceMeters>3845.813732564</DistanceMeters>
          </Trackpoint>
          <Trackpoint>
            <Time>2019-04-07T12:54:09.000Z</Time>
            <Position>
              <LatitudeDegrees>28.27648404054343700408935546875</LatitudeDegrees>
              <LongitudeDegrees>-16.612991429865360260009765625</LongitudeDegrees>
            </Position>
            <AltitudeMeters>2651.800048828125</AltitudeMeters>
            <DistanceMeters>3856.9829091708</DistanceMeters>
          </Trackpoint>
          <Trackpoint>
            <Time>2019-04-07T12:54:17.000Z</Time>
            <Position>
              <LatitudeDegrees>28.276494853198528289794921875</LatitudeDegrees>
              <LongitudeDegrees>-16.61308161914348602294921875</LongitudeDegrees>
            </Position>
            <AltitudeMeters>2652.60009765625</AltitudeMeters>
            <DistanceMeters>3865.904799321</DistanceMeters>
          </Trackpoint>
          <Trackpoint>
            <Time>2019-04-07T12:54:18.000Z</Time>
            <Position>
              <LatitudeDegrees>28.27648839913308620452880859375</LatitudeDegrees>
              <LongitudeDegrees>-16.61310450173914432525634765625</LongitudeDegrees>
            </Position>
            <AltitudeMeters>2652.800048828125</AltitudeMeters>
            <DistanceMeters>3868.2594684988</DistanceMeters>
          </Trackpoint>
          <Trackpoint>
            <Time>2019-04-07T12:54:19.000Z</Time>
            <Position>
              <LatitudeDegrees>28.27648839913308620452880859375</LatitudeDegrees>
              <LongitudeDegrees>-16.61310450173914432525634765625</LongitudeDegrees>
            </Position>
            <AltitudeMeters>2653</AltitudeMeters>
            <DistanceMeters>3868.2594684988</DistanceMeters>
          </Trackpoint>
          <Trackpoint>
            <Time>2019-04-07T12:54:24.000Z</Time>
            <Position>
              <LatitudeDegrees>28.276453949511051177978515625</LatitudeDegrees>
              <LongitudeDegrees>-16.61316099576652050018310546875</LongitudeDegrees>
            </Position>
            <AltitudeMeters>2653.39990234375</AltitudeMeters>
            <DistanceMeters>3874.9949791739</DistanceMeters>
          </Trackpoint>
          <Trackpoint>
            <Time>2019-04-07T12:54:27.000Z</Time>
            <Position>
              <LatitudeDegrees>28.2764232717454433441162109375</LatitudeDegrees>
              <LongitudeDegrees>-16.6131773404777050018310546875</LongitudeDegrees>
            </Position>
            <AltitudeMeters>2653.60009765625</AltitudeMeters>
            <DistanceMeters>3878.7674320199</DistanceMeters>
          </Trackpoint>
          <Trackpoint>
            <Time>2019-04-07T12:54:29.000Z</Time>
            <Position>
              <LatitudeDegrees>28.27641480602324008941650390625</LatitudeDegrees>
              <LongitudeDegrees>-16.6131813637912273406982421875</LongitudeDegrees>
            </Position>
            <AltitudeMeters>2653.60009765625</AltitudeMeters>
            <DistanceMeters>3879.7864800026</DistanceMeters>
          </Trackpoint>
          <Trackpoint>
            <Time>2019-04-07T12:54:36.000Z</Time>
            <Position>
              <LatitudeDegrees>28.27632260508835315704345703125</LatitudeDegrees>
              <LongitudeDegrees>-16.6131763346493244171142578125</LongitudeDegrees>
            </Position>
            <AltitudeMeters>2654.39990234375</AltitudeMeters>
            <DistanceMeters>3890.0603577298</DistanceMeters>
          </Trackpoint>
          <Trackpoint>
            <Time>2019-04-07T12:54:38.000Z</Time>
            <Position>
              <LatitudeDegrees>28.27630299143493175506591796875</LatitudeDegrees>
              <LongitudeDegrees>-16.61316879093647003173828125</LongitudeDegrees>
            </Position>
            <AltitudeMeters>2654.39990234375</AltitudeMeters>
            <DistanceMeters>3892.3626728413</DistanceMeters>
          </Trackpoint>
          <Trackpoint>
            <Time>2019-04-07T12:54:40.000Z</Time>
            <Position>
              <LatitudeDegrees>28.27628421597182750701904296875</LatitudeDegrees>
              <LongitudeDegrees>-16.61315680481493473052978515625</LongitudeDegrees>
            </Position>
            <AltitudeMeters>2654.800048828125</AltitudeMeters>
            <DistanceMeters>3894.7591553926</DistanceMeters>
          </Trackpoint>
          <Trackpoint>
            <Time>2019-04-07T12:54:44.000Z</Time>
            <Position>
              <LatitudeDegrees>28.27625756151974201202392578125</LatitudeDegrees>
              <LongitudeDegrees>-16.61312562413513660430908203125</LongitudeDegrees>
            </Position>
            <AltitudeMeters>2655.800048828125</AltitudeMeters>
            <DistanceMeters>3899.0184303985</DistanceMeters>
          </Trackpoint>
          <Trackpoint>
            <Time>2019-04-07T12:54:45.000Z</Time>
            <Position>
              <LatitudeDegrees>28.27625052072107791900634765625</LatitudeDegrees>
              <LongitudeDegrees>-16.61311791278421878814697265625</LongitudeDegrees>
            </Position>
            <AltitudeMeters>2656</AltitudeMeters>
            <DistanceMeters>3900.110204226</DistanceMeters>
          </Trackpoint>
          <Trackpoint>
            <Time>2019-04-07T12:54:50.000Z</Time>
            <Position>
              <LatitudeDegrees>28.27620911411941051483154296875</LatitudeDegrees>
              <LongitudeDegrees>-16.61307114176452159881591796875</LongitudeDegrees>
            </Position>
            <AltitudeMeters>2657.199951171875</AltitudeMeters>
            <DistanceMeters>3906.6110316932</DistanceMeters>
          </Trackpoint>
          <Trackpoint>
            <Time>2019-04-07T12:54:53.000Z</Time>
            <Position>
              <LatitudeDegrees>28.276195116341114044189453125</LatitudeDegrees>
              <LongitudeDegrees>-16.61305136047303676605224609375</LongitudeDegrees>
            </Position>
            <AltitudeMeters>2657.800048828125</AltitudeMeters>
            <DistanceMeters>3909.0981188175</DistanceMeters>
          </Trackpoint>
          <Trackpoint>
            <Time>2019-04-07T12:54:55.000Z</Time>
            <Position>
              <LatitudeDegrees>28.2761798612773418426513671875</LatitudeDegrees>
              <LongitudeDegrees>-16.61303333938121795654296875</LongitudeDegrees>
            </Position>
            <AltitudeMeters>2658.39990234375</AltitudeMeters>
            <DistanceMeters>3911.5504709358</DistanceMeters>
          </Trackpoint>
          <Trackpoint>
            <Time>2019-04-07T12:54:56.000Z</Time>
            <Position>
              <LatitudeDegrees>28.27616502530872821807861328125</LatitudeDegrees>
              <LongitudeDegrees>-16.61301397718489170074462890625</LongitudeDegrees>
            </Position>
            <AltitudeMeters>2658.800048828125</AltitudeMeters>
            <DistanceMeters>3914.0664366722</DistanceMeters>
          </Trackpoint>
          <Trackpoint>
            <Time>2019-04-07T12:55:00.000Z</Time>
            <Position>
              <LatitudeDegrees>28.276136778295040130615234375</LatitudeDegrees>
              <LongitudeDegrees>-16.612976007163524627685546875</LongitudeDegrees>
            </Position>
            <AltitudeMeters>2659.199951171875</AltitudeMeters>
            <DistanceMeters>3918.9378882931</DistanceMeters>
          </Trackpoint>
          <Trackpoint>
            <Time>2019-04-07T12:55:02.000Z</Time>
            <Position>
              <LatitudeDegrees>28.27612194232642650604248046875</LatitudeDegrees>
              <LongitudeDegrees>-16.6129597462713718414306640625</LongitudeDegrees>
            </Position>
            <AltitudeMeters>2659.39990234375</AltitudeMeters>
            <DistanceMeters>3921.23431261</DistanceMeters>
          </Trackpoint>
          <Trackpoint>
            <Time>2019-04-07T12:55:09.000Z</Time>
            <Position>
              <LatitudeDegrees>28.27608472667634487152099609375</LatitudeDegrees>
              <LongitudeDegrees>-16.612878777086734771728515625</LongitudeDegrees>
            </Position>
            <AltitudeMeters>2660</AltitudeMeters>
            <DistanceMeters>3930.1870193804</DistanceMeters>
          </Trackpoint>
          <Trackpoint>
            <Time>2019-04-07T12:55:18.000Z</Time>
            <Position>
              <LatitudeDegrees>28.27603376470506191253662109375</LatitudeDegrees>
              <LongitudeDegrees>-16.61277743987739086151123046875</LongitudeDegrees>
            </Position>
            <AltitudeMeters>2660.39990234375</AltitudeMeters>
            <DistanceMeters>3941.6258046163</DistanceMeters>
          </Trackpoint>
          <Trackpoint>
            <Time>2019-04-07T12:55:22.000Z</Time>
            <Position>
              <LatitudeDegrees>28.27601230703294277191162109375</LatitudeDegrees>
              <LongitudeDegrees>-16.61273720674216747283935546875</LongitudeDegrees>
            </Position>
            <AltitudeMeters>2660.60009765625</AltitudeMeters>
            <DistanceMeters>3946.236314344</DistanceMeters>
          </Trackpoint>
          <Trackpoint>
            <Time>2019-04-07T12:55:26.000Z</Time>
            <Position>
              <LatitudeDegrees>28.2759900949895381927490234375</LatitudeDegrees>
              <LongitudeDegrees>-16.61269261501729488372802734375</LongitudeDegrees>
            </Position>
            <AltitudeMeters>2661.39990234375</AltitudeMeters>
            <DistanceMeters>3951.2574669439</DistanceMeters>
          </Trackpoint>
          <Trackpoint>
            <Time>2019-04-07T12:55:27.000Z</Time>
            <Position>
              <LatitudeDegrees>28.27598364092409610748291015625</LatitudeDegrees>
              <LongitudeDegrees>-16.61268188618123531341552734375</LongitudeDegrees>
            </Position>
            <AltitudeMeters>2661.800048828125</AltitudeMeters>
            <DistanceMeters>3952.532384102</DistanceMeters>
          </Trackpoint>
          <Trackpoint>
            <Time>2019-04-07T12:55:33.000Z</Time>
            <Position>
              <LatitudeDegrees>28.275947682559490203857421875</LatitudeDegrees>
              <LongitudeDegrees>-16.61261583678424358367919921875</LongitudeDegrees>
            </Position>
            <AltitudeMeters>2663</AltitudeMeters>
            <DistanceMeters>3960.1434247922</DistanceMeters>
          </Trackpoint>
          <Trackpoint>
            <Time>2019-04-07T12:55:34.000Z</Time>
            <Position>
              <LatitudeDegrees>28.275941312313079833984375</LatitudeDegrees>
              <LongitudeDegrees>-16.6126061975955963134765625</LongitudeDegrees>
            </Position>
            <AltitudeMeters>2663.199951171875</AltitudeMeters>
            <DistanceMeters>3961.3226753052</DistanceMeters>
          </Trackpoint>
          <Trackpoint>
            <Time>2019-04-07T12:55:36.000Z</Time>
            <Position>
              <LatitudeDegrees>28.27592915855348110198974609375</LatitudeDegrees>
              <LongitudeDegrees>-16.61258616484701633453369140625</LongitudeDegrees>
            </Position>
            <AltitudeMeters>2663.199951171875</AltitudeMeters>
            <DistanceMeters>3963.7078269062</DistanceMeters>
          </Trackpoint>
          <Trackpoint>
            <Time>2019-04-07T12:55:40.000Z</Time>
            <Position>
              <LatitudeDegrees>28.2759096287190914154052734375</LatitudeDegrees>
              <LongitudeDegrees>-16.6125399805605411529541015625</LongitudeDegrees>
            </Position>
            <AltitudeMeters>2663.60009765625</AltitudeMeters>
            <DistanceMeters>3968.7289795061</DistanceMeters>
          </Trackpoint>
          <Trackpoint>
            <Time>2019-04-07T12:55:46.000Z</Time>
            <Position>
              <LatitudeDegrees>28.27589412219822406768798828125</LatitudeDegrees>
              <LongitudeDegrees>-16.61246462725102901458740234375</LongitudeDegrees>
            </Position>
            <AltitudeMeters>2663.60009765625</AltitudeMeters>
            <DistanceMeters>3976.314468752</DistanceMeters>
          </Trackpoint>
          <Trackpoint>
            <Time>2019-04-07T12:55:49.000Z</Time>
            <Position>
              <LatitudeDegrees>28.27589395456016063690185546875</LatitudeDegrees>
              <LongitudeDegrees>-16.6124407388269901275634765625</LongitudeDegrees>
            </Position>
            <AltitudeMeters>2663.800048828125</AltitudeMeters>
            <DistanceMeters>3978.6556770729</DistanceMeters>
          </Trackpoint>
          <Trackpoint>
            <Time>2019-04-07T12:55:54.000Z</Time>
            <Position>
              <LatitudeDegrees>28.27589311636984348297119140625</LatitudeDegrees>
              <LongitudeDegrees>-16.612371504306793212890625</LongitudeDegrees>
            </Position>
            <AltitudeMeters>2664</AltitudeMeters>
            <DistanceMeters>3985.4426071551</DistanceMeters>
          </Trackpoint>
          <Trackpoint>
            <Time>2019-04-07T12:55:58.000Z</Time>
            <Position>
              <LatitudeDegrees>28.27589294873178005218505859375</LatitudeDegrees>
              <LongitudeDegrees>-16.6123259067535400390625</LongitudeDegrees>
            </Position>
            <AltitudeMeters>2664.800048828125</AltitudeMeters>
            <DistanceMeters>3989.9118944689</DistanceMeters>
          </Trackpoint>
          <Trackpoint>
            <Time>2019-04-07T12:56:01.000Z</Time>
            <Position>
              <LatitudeDegrees>28.27589227817952632904052734375</LatitudeDegrees>
              <LongitudeDegrees>-16.61230486817657947540283203125</LongitudeDegrees>
            </Position>
            <AltitudeMeters>2665</AltitudeMeters>
            <DistanceMeters>3991.9764031469</DistanceMeters>
          </Trackpoint>
          <Trackpoint>
            <Time>2019-04-07T12:56:07.000Z</Time>
            <Position>
              <LatitudeDegrees>28.2758807949721813201904296875</LatitudeDegrees>
              <LongitudeDegrees>-16.61223043687641620635986328125</LongitudeDegrees>
            </Position>
            <AltitudeMeters>2665.39990234375</AltitudeMeters>
            <DistanceMeters>3999.3830025284</DistanceMeters>
          </Trackpoint>
          <Trackpoint>
            <Time>2019-04-07T12:56:11.000Z</Time>
            <Position>
              <LatitudeDegrees>28.27586914412677288055419921875</LatitudeDegrees>
              <LongitudeDegrees>-16.612182073295116424560546875</LongitudeDegrees>
            </Position>
            <AltitudeMeters>2666.199951171875</AltitudeMeters>
            <DistanceMeters>4004.2978224119</DistanceMeters>
          </Trackpoint>
          <Trackpoint>
            <Time>2019-04-07T12:56:17.000Z</Time>
            <Position>
              <LatitudeDegrees>28.275840394198894500732421875</LatitudeDegrees>
              <LongitudeDegrees>-16.61211543716490268707275390625</LongitudeDegrees>
            </Position>
            <AltitudeMeters>2666.800048828125</AltitudeMeters>
            <DistanceMeters>4011.5715572081</DistanceMeters>
          </Trackpoint>
          <Trackpoint>
            <Time>2019-04-07T12:56:18.000Z</Time>
            <Position>
              <LatitudeDegrees>28.27582664787769317626953125</LatitudeDegrees>
              <LongitudeDegrees>-16.6120974160730838775634765625</LongitudeDegrees>
            </Position>
            <AltitudeMeters>2666.800048828125</AltitudeMeters>
            <DistanceMeters>4013.9089053312</DistanceMeters>
          </Trackpoint>
          <Trackpoint>
            <Time>2019-04-07T12:56:25.000Z</Time>
            <Position>
              <LatitudeDegrees>28.27578641474246978759765625</LatitudeDegrees>
              <LongitudeDegrees>-16.612040586769580841064453125</LongitudeDegrees>
            </Position>
            <AltitudeMeters>2667.199951171875</AltitudeMeters>
            <DistanceMeters>4021.0561525246</DistanceMeters>
          </Trackpoint>
          <Trackpoint>
            <Time>2019-04-07T12:56:26.000Z</Time>
            <Position>
              <LatitudeDegrees>28.27576772309839725494384765625</LatitudeDegrees>
              <LongitudeDegrees>-16.61202239803969860076904296875</LongitudeDegrees>
            </Position>
            <AltitudeMeters>2667.199951171875</AltitudeMeters>
            <DistanceMeters>4023.7954943296</DistanceMeters>
          </Trackpoint>
          <Trackpoint>
            <Time>2019-04-07T12:56:33.000Z</Time>
            <Position>
              <LatitudeDegrees>28.27570703811943531036376953125</LatitudeDegrees>
              <LongitudeDegrees>-16.61196959204971790313720703125</LongitudeDegrees>
            </Position>
            <AltitudeMeters>2667.39990234375</AltitudeMeters>
            <DistanceMeters>4032.3044985562</DistanceMeters>
          </Trackpoint>
          <Trackpoint>
            <Time>2019-04-07T12:56:40.000Z</Time>
            <Position>
              <LatitudeDegrees>28.27570318244397640228271484375</LatitudeDegrees>
              <LongitudeDegrees>-16.61194612272083759307861328125</LongitudeDegrees>
            </Position>
            <AltitudeMeters>2667.800048828125</AltitudeMeters>
            <DistanceMeters>4034.645706877</DistanceMeters>
          </Trackpoint>
          <Trackpoint>
            <Time>2019-04-07T12:56:50.000Z</Time>
            <Position>
              <LatitudeDegrees>28.275805525481700897216796875</LatitudeDegrees>
              <LongitudeDegrees>-16.612006388604640960693359375</LongitudeDegrees>
            </Position>
            <AltitudeMeters>2666.800048828125</AltitudeMeters>
            <DistanceMeters>4047.4774804832</DistanceMeters>
          </Trackpoint>
          <Trackpoint>
            <Time>2019-04-07T12:57:01.000Z</Time>
            <Position>
              <LatitudeDegrees>28.2758921943604946136474609375</LatitudeDegrees>
              <LongitudeDegrees>-16.612069420516490936279296875</LongitudeDegrees>
            </Position>
            <AltitudeMeters>2667</AltitudeMeters>
            <DistanceMeters>4058.932831673</DistanceMeters>
          </Trackpoint>
          <Trackpoint>
            <Time>2019-04-07T12:57:10.000Z</Time>
            <Position>
              <LatitudeDegrees>28.2758868299424648284912109375</LatitudeDegrees>
              <LongitudeDegrees>-16.6120699234306812286376953125</LongitudeDegrees>
            </Position>
            <AltitudeMeters>2667.199951171875</AltitudeMeters>
            <DistanceMeters>4059.533833385</DistanceMeters>
          </Trackpoint>
          <Trackpoint>
            <Time>2019-04-07T12:57:21.000Z</Time>
            <Position>
              <LatitudeDegrees>28.275878615677356719970703125</LatitudeDegrees>
              <LongitudeDegrees>-16.61207805387675762176513671875</LongitudeDegrees>
            </Position>
            <AltitudeMeters>2666.39990234375</AltitudeMeters>
            <DistanceMeters>4060.750769101</DistanceMeters>
          </Trackpoint>
          <Trackpoint>
            <Time>2019-04-07T12:57:39.000Z</Time>
            <Position>
              <LatitudeDegrees>28.2758704014122486114501953125</LatitudeDegrees>
              <LongitudeDegrees>-16.61207268945872783660888671875</LongitudeDegrees>
            </Position>
            <AltitudeMeters>2666.199951171875</AltitudeMeters>
            <DistanceMeters>4061.8003734674</DistanceMeters>
          </Trackpoint>
          <Trackpoint>
            <Time>2019-04-07T12:57:41.000Z</Time>
            <Position>
              <LatitudeDegrees>28.2758720777928829193115234375</LatitudeDegrees>
              <LongitudeDegrees>-16.61207151599228382110595703125</LongitudeDegrees>
            </Position>
            <AltitudeMeters>2666.199951171875</AltitudeMeters>
            <DistanceMeters>4062.0331404296</DistanceMeters>
          </Trackpoint>
          <Trackpoint>
            <Time>2019-04-07T12:58:24.000Z</Time>
            <Position>
              <LatitudeDegrees>28.27587224543094635009765625</LatitudeDegrees>
              <LongitudeDegrees>-16.6120920516550540924072265625</LongitudeDegrees>
            </Position>
            <AltitudeMeters>2666.60009765625</AltitudeMeters>
            <DistanceMeters>4064.0489614533</DistanceMeters>
          </Trackpoint>
          <Trackpoint>
            <Time>2019-04-07T13:19:31.000Z</Time>
            <Position>
              <LatitudeDegrees>28.2759106345474720001220703125</LatitudeDegrees>
              <LongitudeDegrees>-16.61176121793687343597412109375</LongitudeDegrees>
            </Position>
            <AltitudeMeters>2667.39990234375</AltitudeMeters>
            <DistanceMeters>4096.7578964254</DistanceMeters>
          </Trackpoint>
          <Trackpoint>
            <Time>2019-04-07T13:19:34.000Z</Time>
            <Position>
              <LatitudeDegrees>28.275911472737789154052734375</LatitudeDegrees>
              <LongitudeDegrees>-16.6117561049759387969970703125</LongitudeDegrees>
            </Position>
            <AltitudeMeters>2667.39990234375</AltitudeMeters>
            <DistanceMeters>4097.2783791756</DistanceMeters>
          </Trackpoint>
          <Trackpoint>
            <Time>2019-04-07T13:19:42.000Z</Time>
            <Position>
              <LatitudeDegrees>28.27586461789906024932861328125</LatitudeDegrees>
              <LongitudeDegrees>-16.61172299645841121673583984375</LongitudeDegrees>
            </Position>
            <AltitudeMeters>2667.60009765625</AltitudeMeters>
            <DistanceMeters>4103.4213987474</DistanceMeters>
          </Trackpoint>
          <Trackpoint>
            <Time>2019-04-07T13:19:51.000Z</Time>
            <Position>
              <LatitudeDegrees>28.2756672240793704986572265625</LatitudeDegrees>
              <LongitudeDegrees>-16.611874960362911224365234375</LongitudeDegrees>
            </Position>
            <AltitudeMeters>2667.800048828125</AltitudeMeters>
            <DistanceMeters>4129.9653386324</DistanceMeters>
          </Trackpoint>
          <Trackpoint>
            <Time>2019-04-07T13:19:57.000Z</Time>
            <Position>
              <LatitudeDegrees>28.27563243918120861053466796875</LatitudeDegrees>
              <LongitudeDegrees>-16.61185844801366329193115234375</LongitudeDegrees>
            </Position>
            <AltitudeMeters>2667.60009765625</AltitudeMeters>
            <DistanceMeters>4134.1626805463</DistanceMeters>
          </Trackpoint>
          <Trackpoint>
            <Time>2019-04-07T13:19:58.000Z</Time>
            <Position>
              <LatitudeDegrees>28.27562707476317882537841796875</LatitudeDegrees>
              <LongitudeDegrees>-16.611856855452060699462890625</LongitudeDegrees>
            </Position>
            <AltitudeMeters>2667.60009765625</AltitudeMeters>
            <DistanceMeters>4134.7711484043</DistanceMeters>
          </Trackpoint>
          <Trackpoint>
            <Time>2019-04-07T13:20:05.000Z</Time>
            <Position>
              <LatitudeDegrees>28.2755917869508266448974609375</LatitudeDegrees>
              <LongitudeDegrees>-16.6118261776864528656005859375</LongitudeDegrees>
            </Position>
            <AltitudeMeters>2668</AltitudeMeters>
            <DistanceMeters>4139.7171040335</DistanceMeters>
          </Trackpoint>
          <Trackpoint>
            <Time>2019-04-07T13:20:06.000Z</Time>
            <Position>
              <LatitudeDegrees>28.2755886018276214599609375</LatitudeDegrees>
              <LongitudeDegrees>-16.6118177957832813262939453125</LongitudeDegrees>
            </Position>
            <AltitudeMeters>2668.199951171875</AltitudeMeters>
            <DistanceMeters>4140.6034542186</DistanceMeters>
          </Trackpoint>
          <Trackpoint>
            <Time>2019-04-07T13:20:10.000Z</Time>
            <Position>
              <LatitudeDegrees>28.27556219883263111114501953125</LatitudeDegrees>
              <LongitudeDegrees>-16.6117859445512294769287109375</LongitudeDegrees>
            </Position>
            <AltitudeMeters>2668.39990234375</AltitudeMeters>
            <DistanceMeters>4144.8912550116</DistanceMeters>
          </Trackpoint>
          <Trackpoint>
            <Time>2019-04-07T13:20:13.000Z</Time>
            <Position>
              <LatitudeDegrees>28.27553889714181423187255859375</LatitudeDegrees>
              <LongitudeDegrees>-16.611769683659076690673828125</LongitudeDegrees>
            </Position>
            <AltitudeMeters>2668.60009765625</AltitudeMeters>
            <DistanceMeters>4147.9380432524</DistanceMeters>
          </Trackpoint>
          <Trackpoint>
            <Time>2019-04-07T13:20:14.000Z</Time>
            <Position>
              <LatitudeDegrees>28.27553302980959415435791015625</LatitudeDegrees>
              <LongitudeDegrees>-16.61176457069814205169677734375</LongitudeDegrees>
            </Position>
            <AltitudeMeters>2668.800048828125</AltitudeMeters>
            <DistanceMeters>4148.7664669421</DistanceMeters>
          </Trackpoint>
          <Trackpoint>
            <Time>2019-04-07T13:20:20.000Z</Time>
            <Position>
              <LatitudeDegrees>28.275517188012599945068359375</LatitudeDegrees>
              <LongitudeDegrees>-16.6117369942367076873779296875</LongitudeDegrees>
            </Position>
            <AltitudeMeters>2669.800048828125</AltitudeMeters>
            <DistanceMeters>4151.9931801522</DistanceMeters>
          </Trackpoint>
          <Trackpoint>
            <Time>2019-04-07T13:20:21.000Z</Time>
            <Position>
              <LatitudeDegrees>28.27551475726068019866943359375</LatitudeDegrees>
              <LongitudeDegrees>-16.61173556931316852569580078125</LongitudeDegrees>
            </Position>
            <AltitudeMeters>2670</AltitudeMeters>
            <DistanceMeters>4152.2936810082</DistanceMeters>
          </Trackpoint>
          <Trackpoint>
            <Time>2019-04-07T13:20:29.000Z</Time>
            <Position>
              <LatitudeDegrees>28.27548827044665813446044921875</LatitudeDegrees>
              <LongitudeDegrees>-16.611701287329196929931640625</LongitudeDegrees>
            </Position>
            <AltitudeMeters>2670.60009765625</AltitudeMeters>
            <DistanceMeters>4156.762968322</DistanceMeters>
          </Trackpoint>
          <Trackpoint>
            <Time>2019-04-07T13:20:37.000Z</Time>
            <Position>
              <LatitudeDegrees>28.2754288427531719207763671875</LatitudeDegrees>
              <LongitudeDegrees>-16.61164420656859874725341796875</LongitudeDegrees>
            </Position>
            <AltitudeMeters>2670.60009765625</AltitudeMeters>
            <DistanceMeters>4165.4265700789</DistanceMeters>
          </Trackpoint>
          <Trackpoint>
            <Time>2019-04-07T13:20:40.000Z</Time>
            <Position>
              <LatitudeDegrees>28.2754047028720378875732421875</LatitudeDegrees>
              <LongitudeDegrees>-16.61162409000098705291748046875</LongitudeDegrees>
            </Position>
            <AltitudeMeters>2671.199951171875</AltitudeMeters>
            <DistanceMeters>4168.7592857923</DistanceMeters>
          </Trackpoint>
          <Trackpoint>
            <Time>2019-04-07T13:20:48.000Z</Time>
            <Position>
              <LatitudeDegrees>28.27535969205200672149658203125</LatitudeDegrees>
              <LongitudeDegrees>-16.61156256683170795440673828125</LongitudeDegrees>
            </Position>
            <AltitudeMeters>2672</AltitudeMeters>
            <DistanceMeters>4176.5994216555</DistanceMeters>
          </Trackpoint>
          <Trackpoint>
            <Time>2019-04-07T13:20:49.000Z</Time>
            <Position>
              <LatitudeDegrees>28.275352902710437774658203125</LatitudeDegrees>
              <LongitudeDegrees>-16.61155753768980503082275390625</LongitudeDegrees>
            </Position>
            <AltitudeMeters>2672.39990234375</AltitudeMeters>
            <DistanceMeters>4177.5009242235</DistanceMeters>
          </Trackpoint>
          <Trackpoint>
            <Time>2019-04-07T13:20:52.000Z</Time>
            <Position>
              <LatitudeDegrees>28.27533639036118984222412109375</LatitudeDegrees>
              <LongitudeDegrees>-16.611537672579288482666015625</LongitudeDegrees>
            </Position>
            <AltitudeMeters>2673.199951171875</AltitudeMeters>
            <DistanceMeters>4180.1785875138</DistanceMeters>
          </Trackpoint>
          <Trackpoint>
            <Time>2019-04-07T13:20:55.000Z</Time>
            <Position>
              <LatitudeDegrees>28.27531191520392894744873046875</LatitudeDegrees>
              <LongitudeDegrees>-16.6115257702767848968505859375</LongitudeDegrees>
            </Position>
            <AltitudeMeters>2673.60009765625</AltitudeMeters>
            <DistanceMeters>4183.1412272664</DistanceMeters>
          </Trackpoint>
          <Trackpoint>
            <Time>2019-04-07T13:20:56.000Z</Time>
            <Position>
              <LatitudeDegrees>28.27530303038656711578369140625</LatitudeDegrees>
              <LongitudeDegrees>-16.61152434535324573516845703125</LongitudeDegrees>
            </Position>
            <AltitudeMeters>2674</AltitudeMeters>
            <DistanceMeters>4184.1423958262</DistanceMeters>
          </Trackpoint>
          <Trackpoint>
            <Time>2019-04-07T13:21:02.000Z</Time>
            <Position>
              <LatitudeDegrees>28.27524603344500064849853515625</LatitudeDegrees>
              <LongitudeDegrees>-16.61152283661067485809326171875</LongitudeDegrees>
            </Position>
            <AltitudeMeters>2674.39990234375</AltitudeMeters>
            <DistanceMeters>4190.4885868839</DistanceMeters>
          </Trackpoint>
          <Trackpoint>
            <Time>2019-04-07T13:21:11.000Z</Time>
            <Position>
              <LatitudeDegrees>28.27516724355518817901611328125</LatitudeDegrees>
              <LongitudeDegrees>-16.611549071967601776123046875</LongitudeDegrees>
            </Position>
            <AltitudeMeters>2674.39990234375</AltitudeMeters>
            <DistanceMeters>4199.6274695853</DistanceMeters>
          </Trackpoint>
          <Trackpoint>
            <Time>2019-04-07T13:21:15.000Z</Time>
            <Position>
              <LatitudeDegrees>28.27513606287539005279541015625</LatitudeDegrees>
              <LongitudeDegrees>-16.61157287657260894775390625</LongitudeDegrees>
            </Position>
            <AltitudeMeters>2674.800048828125</AltitudeMeters>
            <DistanceMeters>4203.8097247272</DistanceMeters>
          </Trackpoint>
          <Trackpoint>
            <Time>2019-04-07T13:21:23.000Z</Time>
            <Position>
              <LatitudeDegrees>28.27509230934083461761474609375</LatitudeDegrees>
              <LongitudeDegrees>-16.61163590848445892333984375</LongitudeDegrees>
            </Position>
            <AltitudeMeters>2675.39990234375</AltitudeMeters>
            <DistanceMeters>4211.676306823</DistanceMeters>
          </Trackpoint>
          <Trackpoint>
            <Time>2019-04-07T13:21:25.000Z</Time>
            <Position>
              <LatitudeDegrees>28.2750861905515193939208984375</LatitudeDegrees>
              <LongitudeDegrees>-16.61165426485240459442138671875</LongitudeDegrees>
            </Position>
            <AltitudeMeters>2676</AltitudeMeters>
            <DistanceMeters>4213.6004511373</DistanceMeters>
          </Trackpoint>
          <Trackpoint>
            <Time>2019-04-07T13:21:31.000Z</Time>
            <Position>
              <LatitudeDegrees>28.27507873065769672393798828125</LatitudeDegrees>
              <LongitudeDegrees>-16.61171629093587398529052734375</LongitudeDegrees>
            </Position>
            <AltitudeMeters>2676.39990234375</AltitudeMeters>
            <DistanceMeters>4219.7368522626</DistanceMeters>
          </Trackpoint>
          <Trackpoint>
            <Time>2019-04-07T13:21:37.000Z</Time>
            <Position>
              <LatitudeDegrees>28.2750768028199672698974609375</LatitudeDegrees>
              <LongitudeDegrees>-16.61178217269480228424072265625</LongitudeDegrees>
            </Position>
            <AltitudeMeters>2677</AltitudeMeters>
            <DistanceMeters>4226.1979700762</DistanceMeters>
          </Trackpoint>
          <Trackpoint>
            <Time>2019-04-07T13:21:40.000Z</Time>
            <Position>
              <LatitudeDegrees>28.27507973648607730865478515625</LatitudeDegrees>
              <LongitudeDegrees>-16.61181427538394927978515625</LongitudeDegrees>
            </Position>
            <AltitudeMeters>2677.199951171875</AltitudeMeters>
            <DistanceMeters>4229.3625166118</DistanceMeters>
          </Trackpoint>
          <Trackpoint>
            <Time>2019-04-07T13:21:49.000Z</Time>
            <Position>
              <LatitudeDegrees>28.27509717084467411041259765625</LatitudeDegrees>
              <LongitudeDegrees>-16.611913181841373443603515625</LongitudeDegrees>
            </Position>
            <AltitudeMeters>2678</AltitudeMeters>
            <DistanceMeters>4239.2498624428</DistanceMeters>
          </Trackpoint>
          <Trackpoint>
            <Time>2019-04-07T13:21:58.000Z</Time>
            <Position>
              <LatitudeDegrees>28.27511410228908061981201171875</LatitudeDegrees>
              <LongitudeDegrees>-16.61200563423335552215576171875</LongitudeDegrees>
            </Position>
            <AltitudeMeters>2678</AltitudeMeters>
            <DistanceMeters>4248.5060692956</DistanceMeters>
          </Trackpoint>
          <Trackpoint>
            <Time>2019-04-07T13:21:59.000Z</Time>
            <Position>
              <LatitudeDegrees>28.2751143537461757659912109375</LatitudeDegrees>
              <LongitudeDegrees>-16.6120169498026371002197265625</LongitudeDegrees>
            </Position>
            <AltitudeMeters>2678.39990234375</AltitudeMeters>
            <DistanceMeters>4249.6183284708</DistanceMeters>
          </Trackpoint>
          <Trackpoint>
            <Time>2019-04-07T13:22:07.000Z</Time>
            <Position>
              <LatitudeDegrees>28.2751192152500152587890625</LatitudeDegrees>
              <LongitudeDegrees>-16.6120940633118152618408203125</LongitudeDegrees>
            </Position>
            <AltitudeMeters>2679.39990234375</AltitudeMeters>
            <DistanceMeters>4257.1966717055</DistanceMeters>
          </Trackpoint>
          <Trackpoint>
            <Time>2019-04-07T13:22:11.000Z</Time>
            <Position>
              <LatitudeDegrees>28.27511854469776153564453125</LatitudeDegrees>
              <LongitudeDegrees>-16.6121312789618968963623046875</LongitudeDegrees>
            </Position>
            <AltitudeMeters>2680.39990234375</AltitudeMeters>
            <DistanceMeters>4260.8462419206</DistanceMeters>
          </Trackpoint>
          <Trackpoint>
            <Time>2019-04-07T13:22:12.000Z</Time>
            <Position>
              <LatitudeDegrees>28.2751180417835712432861328125</LatitudeDegrees>
              <LongitudeDegrees>-16.612140499055385589599609375</LongitudeDegrees>
            </Position>
            <AltitudeMeters>2680.60009765625</AltitudeMeters>
            <DistanceMeters>4261.7577061452</DistanceMeters>
          </Trackpoint>
          <Trackpoint>
            <Time>2019-04-07T13:22:15.000Z</Time>
            <Position>
              <LatitudeDegrees>28.275112174451351165771484375</LatitudeDegrees>
              <LongitudeDegrees>-16.6121674887835979461669921875</LongitudeDegrees>
            </Position>
            <AltitudeMeters>2681.199951171875</AltitudeMeters>
            <DistanceMeters>4264.4821735862</DistanceMeters>
          </Trackpoint>
          <Trackpoint>
            <Time>2019-04-07T13:22:17.000Z</Time>
            <Position>
              <LatitudeDegrees>28.2751049660146236419677734375</LatitudeDegrees>
              <LongitudeDegrees>-16.61218584515154361724853515625</LongitudeDegrees>
            </Position>
            <AltitudeMeters>2681.60009765625</AltitudeMeters>
            <DistanceMeters>4266.4503968445</DistanceMeters>
          </Trackpoint>
          <Trackpoint>
            <Time>2019-04-07T13:22:23.000Z</Time>
            <Position>
              <LatitudeDegrees>28.27508208341896533966064453125</LatitudeDegrees>
              <LongitudeDegrees>-16.61224937997758388519287109375</LongitudeDegrees>
            </Position>
            <AltitudeMeters>2682.60009765625</AltitudeMeters>
            <DistanceMeters>4273.179200846</DistanceMeters>
          </Trackpoint>
          <Trackpoint>
            <Time>2019-04-07T13:22:25.000Z</Time>
            <Position>
              <LatitudeDegrees>28.275071941316127777099609375</LatitudeDegrees>
              <LongitudeDegrees>-16.61226698197424411773681640625</LongitudeDegrees>
            </Position>
            <AltitudeMeters>2682.60009765625</AltitudeMeters>
            <DistanceMeters>4275.2415213848</DistanceMeters>
          </Trackpoint>
          <Trackpoint>
            <Time>2019-04-07T13:22:33.000Z</Time>
            <Position>
              <LatitudeDegrees>28.27502592466771602630615234375</LatitudeDegrees>
              <LongitudeDegrees>-16.6123300977051258087158203125</LongitudeDegrees>
            </Position>
            <AltitudeMeters>2683.60009765625</AltitudeMeters>
            <DistanceMeters>4283.2733870533</DistanceMeters>
          </Trackpoint>
          <Trackpoint>
            <Time>2019-04-07T13:22:35.000Z</Time>
            <Position>
              <LatitudeDegrees>28.27501854859292507171630859375</LatitudeDegrees>
              <LongitudeDegrees>-16.61234401166439056396484375</LongitudeDegrees>
            </Position>
            <AltitudeMeters>2684.199951171875</AltitudeMeters>
            <DistanceMeters>4284.8663250561</DistanceMeters>
          </Trackpoint>
          <Trackpoint>
            <Time>2019-04-07T13:22:40.000Z</Time>
            <Position>
              <LatitudeDegrees>28.2749866135418415069580078125</LatitudeDegrees>
              <LongitudeDegrees>-16.61237846128642559051513671875</LongitudeDegrees>
            </Position>
            <AltitudeMeters>2684.60009765625</AltitudeMeters>
            <DistanceMeters>4289.7701086535</DistanceMeters>
          </Trackpoint>
          <Trackpoint>
            <Time>2019-04-07T13:22:41.000Z</Time>
            <Position>
              <LatitudeDegrees>28.27497764490544795989990234375</LatitudeDegrees>
              <LongitudeDegrees>-16.61238499917089939117431640625</LongitudeDegrees>
            </Position>
            <AltitudeMeters>2684.60009765625</AltitudeMeters>
            <DistanceMeters>4290.9569919355</DistanceMeters>
          </Trackpoint>
          <Trackpoint>
            <Time>2019-04-07T13:22:43.000Z</Time>
            <Position>
              <LatitudeDegrees>28.274959623813629150390625</LatitudeDegrees>
              <LongitudeDegrees>-16.61239639855921268463134765625</LongitudeDegrees>
            </Position>
            <AltitudeMeters>2685</AltitudeMeters>
            <DistanceMeters>4293.2514492934</DistanceMeters>
          </Trackpoint>
          <Trackpoint>
            <Time>2019-04-07T13:22:49.000Z</Time>
            <Position>
              <LatitudeDegrees>28.274898268282413482666015625</LatitudeDegrees>
              <LongitudeDegrees>-16.61240880377590656280517578125</LongitudeDegrees>
            </Position>
            <AltitudeMeters>2685.800048828125</AltitudeMeters>
            <DistanceMeters>4300.1877485439</DistanceMeters>
          </Trackpoint>
          <Trackpoint>
            <Time>2019-04-07T13:22:57.000Z</Time>
            <Position>
              <LatitudeDegrees>28.2748281955718994140625</LatitudeDegrees>
              <LongitudeDegrees>-16.61237225867807865142822265625</LongitudeDegrees>
            </Position>
            <AltitudeMeters>2686.800048828125</AltitudeMeters>
            <DistanceMeters>4308.7707179386</DistanceMeters>
          </Trackpoint>
          <Trackpoint>
            <Time>2019-04-07T13:22:58.000Z</Time>
            <Position>
              <LatitudeDegrees>28.27482283115386962890625</LatitudeDegrees>
              <LongitudeDegrees>-16.6123642958700656890869140625</LongitudeDegrees>
            </Position>
            <AltitudeMeters>2687</AltitudeMeters>
            <DistanceMeters>4309.7490778433</DistanceMeters>
          </Trackpoint>
          <Trackpoint>
            <Time>2019-04-07T13:23:05.000Z</Time>
            <Position>
              <LatitudeDegrees>28.27477597631514072418212890625</LatitudeDegrees>
              <LongitudeDegrees>-16.6123066283762454986572265625</LongitudeDegrees>
            </Position>
            <AltitudeMeters>2687.60009765625</AltitudeMeters>
            <DistanceMeters>4317.4397865692</DistanceMeters>
          </Trackpoint>
          <Trackpoint>
            <Time>2019-04-07T13:23:10.000Z</Time>
            <Position>
              <LatitudeDegrees>28.27474462799727916717529296875</LatitudeDegrees>
              <LongitudeDegrees>-16.6122553311288356781005859375</LongitudeDegrees>
            </Position>
            <AltitudeMeters>2687.800048828125</AltitudeMeters>
            <DistanceMeters>4323.5607168226</DistanceMeters>
          </Trackpoint>
          <Trackpoint>
            <Time>2019-04-07T13:23:12.000Z</Time>
            <Position>
              <LatitudeDegrees>28.27473004348576068878173828125</LatitudeDegrees>
              <LongitudeDegrees>-16.6122392378747463226318359375</LongitudeDegrees>
            </Position>
            <AltitudeMeters>2688</AltitudeMeters>
            <DistanceMeters>4325.8234703097</DistanceMeters>
          </Trackpoint>
          <Trackpoint>
            <Time>2019-04-07T13:23:14.000Z</Time>
            <Position>
              <LatitudeDegrees>28.27471864409744739532470703125</LatitudeDegrees>
              <LongitudeDegrees>-16.61221920512616634368896484375</LongitudeDegrees>
            </Position>
            <AltitudeMeters>2688.199951171875</AltitudeMeters>
            <DistanceMeters>4328.1608184328</DistanceMeters>
          </Trackpoint>
          <Trackpoint>
            <Time>2019-04-07T13:23:18.000Z</Time>
            <Position>
              <LatitudeDegrees>28.2746949233114719390869140625</LatitudeDegrees>
              <LongitudeDegrees>-16.6121859289705753326416015625</LongitudeDegrees>
            </Position>
            <AltitudeMeters>2688.800048828125</AltitudeMeters>
            <DistanceMeters>4332.357084519</DistanceMeters>
          </Trackpoint>
          <Trackpoint>
            <Time>2019-04-07T13:23:20.000Z</Time>
            <Position>
              <LatitudeDegrees>28.27468126080930233001708984375</LatitudeDegrees>
              <LongitudeDegrees>-16.61216991953551769256591796875</LongitudeDegrees>
            </Position>
            <AltitudeMeters>2689</AltitudeMeters>
            <DistanceMeters>4334.5447637723</DistanceMeters>
          </Trackpoint>
          <Trackpoint>
            <Time>2019-04-07T13:23:22.000Z</Time>
            <Position>
              <LatitudeDegrees>28.2746701128780841827392578125</LatitudeDegrees>
              <LongitudeDegrees>-16.6121503897011280059814453125</LongitudeDegrees>
            </Position>
            <AltitudeMeters>2689.199951171875</AltitudeMeters>
            <DistanceMeters>4336.8254049172</DistanceMeters>
          </Trackpoint>
          <Trackpoint>
            <Time>2019-04-07T13:23:23.000Z</Time>
            <Position>
              <LatitudeDegrees>28.2746667601168155670166015625</LatitudeDegrees>
              <LongitudeDegrees>-16.61213882267475128173828125</LongitudeDegrees>
            </Position>
            <AltitudeMeters>2689.199951171875</AltitudeMeters>
            <DistanceMeters>4338.0198721951</DistanceMeters>
          </Trackpoint>
          <Trackpoint>
            <Time>2019-04-07T13:23:27.000Z</Time>
            <Position>
              <LatitudeDegrees>28.27464320696890354156494140625</LatitudeDegrees>
              <LongitudeDegrees>-16.6121046245098114013671875</LongitudeDegrees>
            </Position>
            <AltitudeMeters>2689.60009765625</AltitudeMeters>
            <DistanceMeters>4342.2749048942</DistanceMeters>
          </Trackpoint>
          <Trackpoint>
            <Time>2019-04-07T13:23:31.000Z</Time>
            <Position>
              <LatitudeDegrees>28.27461001463234424591064453125</LatitudeDegrees>
              <LongitudeDegrees>-16.612075455486774444580078125</LongitudeDegrees>
            </Position>
            <AltitudeMeters>2689.39990234375</AltitudeMeters>
            <DistanceMeters>4346.9467027029</DistanceMeters>
          </Trackpoint>
          <Trackpoint>
            <Time>2019-04-07T13:23:33.000Z</Time>
            <Position>
              <LatitudeDegrees>28.274597190320491790771484375</LatitudeDegrees>
              <LongitudeDegrees>-16.61205768585205078125</LongitudeDegrees>
            </Position>
            <AltitudeMeters>2689.60009765625</AltitudeMeters>
            <DistanceMeters>4349.1994572304</DistanceMeters>
          </Trackpoint>
          <Trackpoint>
            <Time>2019-04-07T13:23:37.000Z</Time>
            <Position>
              <LatitudeDegrees>28.2745708711445331573486328125</LatitudeDegrees>
              <LongitudeDegrees>-16.6120179556310176849365234375</LongitudeDegrees>
            </Position>
            <AltitudeMeters>2689.800048828125</AltitudeMeters>
            <DistanceMeters>4354.0718355995</DistanceMeters>
          </Trackpoint>
          <Trackpoint>
            <Time>2019-04-07T13:23:38.000Z</Time>
            <Position>
              <LatitudeDegrees>28.274566344916820526123046875</LatitudeDegrees>
              <LongitudeDegrees>-16.61200697533786296844482421875</LongitudeDegrees>
            </Position>
            <AltitudeMeters>2689.800048828125</AltitudeMeters>
            <DistanceMeters>4355.2549086525</DistanceMeters>
          </Trackpoint>
          <Trackpoint>
            <Time>2019-04-07T13:23:40.000Z</Time>
            <Position>
              <LatitudeDegrees>28.2745571248233318328857421875</LatitudeDegrees>
              <LongitudeDegrees>-16.61198652349412441253662109375</LongitudeDegrees>
            </Position>
            <AltitudeMeters>2690</AltitudeMeters>
            <DistanceMeters>4357.5056580577</DistanceMeters>
          </Trackpoint>
          <Trackpoint>
            <Time>2019-04-07T13:23:45.000Z</Time>
            <Position>
              <LatitudeDegrees>28.2745306380093097686767578125</LatitudeDegrees>
              <LongitudeDegrees>-16.61193589679896831512451171875</LongitudeDegrees>
            </Position>
            <AltitudeMeters>2689.800048828125</AltitudeMeters>
            <DistanceMeters>4363.277308775</DistanceMeters>
          </Trackpoint>
          <Trackpoint>
            <Time>2019-04-07T13:23:46.000Z</Time>
            <Position>
              <LatitudeDegrees>28.27452451921999454498291015625</LatitudeDegrees>
              <LongitudeDegrees>-16.611927933990955352783203125</LongitudeDegrees>
            </Position>
            <AltitudeMeters>2689.800048828125</AltitudeMeters>
            <DistanceMeters>4364.3139278452</DistanceMeters>
          </Trackpoint>
          <Trackpoint>
            <Time>2019-04-07T13:23:52.000Z</Time>
            <Position>
              <LatitudeDegrees>28.27448193915188312530517578125</LatitudeDegrees>
              <LongitudeDegrees>-16.61187454126775264739990234375</LongitudeDegrees>
            </Position>
            <AltitudeMeters>2690</AltitudeMeters>
            <DistanceMeters>4371.3747388501</DistanceMeters>
          </Trackpoint>
          <Trackpoint>
            <Time>2019-04-07T13:23:55.000Z</Time>
            <Position>
              <LatitudeDegrees>28.274460732936859130859375</LatitudeDegrees>
              <LongitudeDegrees>-16.61184520460665225982666015625</LongitudeDegrees>
            </Position>
            <AltitudeMeters>2690.800048828125</AltitudeMeters>
            <DistanceMeters>4375.0941577714</DistanceMeters>
          </Trackpoint>
          <Trackpoint>
            <Time>2019-04-07T13:23:59.000Z</Time>
            <Position>
              <LatitudeDegrees>28.2744350843131542205810546875</LatitudeDegrees>
              <LongitudeDegrees>-16.61180547438561916351318359375</LongitudeDegrees>
            </Position>
            <AltitudeMeters>2691.199951171875</AltitudeMeters>
            <DistanceMeters>4379.922786705</DistanceMeters>
          </Trackpoint>
          <Trackpoint>
            <Time>2019-04-07T13:24:08.000Z</Time>
            <Position>
              <LatitudeDegrees>28.27437691390514373779296875</LatitudeDegrees>
              <LongitudeDegrees>-16.61171880550682544708251953125</LongitudeDegrees>
            </Position>
            <AltitudeMeters>2691</AltitudeMeters>
            <DistanceMeters>4390.6038908517</DistanceMeters>
          </Trackpoint>
          <Trackpoint>
            <Time>2019-04-07T13:24:15.000Z</Time>
            <Position>
              <LatitudeDegrees>28.27433399856090545654296875</LatitudeDegrees>
              <LongitudeDegrees>-16.611655019223690032958984375</LongitudeDegrees>
            </Position>
            <AltitudeMeters>2692</AltitudeMeters>
            <DistanceMeters>4398.4716207672</DistanceMeters>
          </Trackpoint>
          <Trackpoint>
            <Time>2019-04-07T13:24:22.000Z</Time>
            <Position>
              <LatitudeDegrees>28.2742885686457157135009765625</LatitudeDegrees>
              <LongitudeDegrees>-16.6115869581699371337890625</LongitudeDegrees>
            </Position>
            <AltitudeMeters>2691.60009765625</AltitudeMeters>
            <DistanceMeters>4406.8426059664</DistanceMeters>
          </Trackpoint>
          <Trackpoint>
            <Time>2019-04-07T13:24:30.000Z</Time>
            <Position>
              <LatitudeDegrees>28.274241797626018524169921875</LatitudeDegrees>
              <LongitudeDegrees>-16.61150657571852207183837890625</LongitudeDegrees>
            </Position>
            <AltitudeMeters>2692.199951171875</AltitudeMeters>
            <DistanceMeters>4416.286177058</DistanceMeters>
          </Trackpoint>
          <Trackpoint>
            <Time>2019-04-07T13:24:39.000Z</Time>
            <Position>
              <LatitudeDegrees>28.274173736572265625</LatitudeDegrees>
              <LongitudeDegrees>-16.611417643725872039794921875</LongitudeDegrees>
            </Position>
            <AltitudeMeters>2693</AltitudeMeters>
            <DistanceMeters>4427.8349531436</DistanceMeters>
          </Trackpoint>
          <Trackpoint>
            <Time>2019-04-07T13:24:46.000Z</Time>
            <Position>
              <LatitudeDegrees>28.27412352897226810455322265625</LatitudeDegrees>
              <LongitudeDegrees>-16.61135553382337093353271484375</LongitudeDegrees>
            </Position>
            <AltitudeMeters>2693.39990234375</AltitudeMeters>
            <DistanceMeters>4436.09954619</DistanceMeters>
          </Trackpoint>
          <Trackpoint>
            <Time>2019-04-07T13:24:52.000Z</Time>
            <Position>
              <LatitudeDegrees>28.2740733213722705841064453125</LatitudeDegrees>
              <LongitudeDegrees>-16.6113088466227054595947265625</LongitudeDegrees>
            </Position>
            <AltitudeMeters>2694</AltitudeMeters>
            <DistanceMeters>4443.3228267254</DistanceMeters>
          </Trackpoint>
          <Trackpoint>
            <Time>2019-04-07T13:24:53.000Z</Time>
            <Position>
              <LatitudeDegrees>28.27406737022101879119873046875</LatitudeDegrees>
              <LongitudeDegrees>-16.61129954271018505096435546875</LongitudeDegrees>
            </Position>
            <AltitudeMeters>2694.199951171875</AltitudeMeters>
            <DistanceMeters>4444.4471979729</DistanceMeters>
          </Trackpoint>
          <Trackpoint>
            <Time>2019-04-07T13:25:00.000Z</Time>
            <Position>
              <LatitudeDegrees>28.2740275561809539794921875</LatitudeDegrees>
              <LongitudeDegrees>-16.611238606274127960205078125</LongitudeDegrees>
            </Position>
            <AltitudeMeters>2695.199951171875</AltitudeMeters>
            <DistanceMeters>4451.8848218069</DistanceMeters>
          </Trackpoint>
          <Trackpoint>
            <Time>2019-04-07T13:25:02.000Z</Time>
            <Position>
              <LatitudeDegrees>28.27401481568813323974609375</LatitudeDegrees>
              <LongitudeDegrees>-16.611227877438068389892578125</LongitudeDegrees>
            </Position>
            <AltitudeMeters>2695.199951171875</AltitudeMeters>
            <DistanceMeters>4453.6498646883</DistanceMeters>
          </Trackpoint>
          <Trackpoint>
            <Time>2019-04-07T13:25:03.000Z</Time>
            <Position>
              <LatitudeDegrees>28.2740060985088348388671875</LatitudeDegrees>
              <LongitudeDegrees>-16.6112243570387363433837890625</LongitudeDegrees>
            </Position>
            <AltitudeMeters>2695.60009765625</AltitudeMeters>
            <DistanceMeters>4454.6777357619</DistanceMeters>
          </Trackpoint>
          <Trackpoint>
            <Time>2019-04-07T13:25:06.000Z</Time>
            <Position>
              <LatitudeDegrees>28.27397449873387813568115234375</LatitudeDegrees>
              <LongitudeDegrees>-16.61122259683907032012939453125</LongitudeDegrees>
            </Position>
            <AltitudeMeters>2696</AltitudeMeters>
            <DistanceMeters>4458.2001390656</DistanceMeters>
          </Trackpoint>
          <Trackpoint>
            <Time>2019-04-07T13:25:09.000Z</Time>
            <Position>
              <LatitudeDegrees>28.27393963001668453216552734375</LatitudeDegrees>
              <LongitudeDegrees>-16.61122729070484638214111328125</LongitudeDegrees>
            </Position>
            <AltitudeMeters>2696.800048828125</AltitudeMeters>
            <DistanceMeters>4462.1066501932</DistanceMeters>
          </Trackpoint>
          <Trackpoint>
            <Time>2019-04-07T13:25:14.000Z</Time>
            <Position>
              <LatitudeDegrees>28.273882381618022918701171875</LatitudeDegrees>
              <LongitudeDegrees>-16.61125101149082183837890625</LongitudeDegrees>
            </Position>
            <AltitudeMeters>2697</AltitudeMeters>
            <DistanceMeters>4468.8889218927</DistanceMeters>
          </Trackpoint>
          <Trackpoint>
            <Time>2019-04-07T13:25:19.000Z</Time>
            <Position>
              <LatitudeDegrees>28.2738466747105121612548828125</LatitudeDegrees>
              <LongitudeDegrees>-16.611271798610687255859375</LongitudeDegrees>
            </Position>
            <AltitudeMeters>2697.60009765625</AltitudeMeters>
            <DistanceMeters>4473.3541664311</DistanceMeters>
          </Trackpoint>
          <Trackpoint>
            <Time>2019-04-07T13:25:24.000Z</Time>
            <Position>
              <LatitudeDegrees>28.27381792478263378143310546875</LatitudeDegrees>
              <LongitudeDegrees>-16.61130926571786403656005859375</LongitudeDegrees>
            </Position>
            <AltitudeMeters>2698</AltitudeMeters>
            <DistanceMeters>4478.225618052</DistanceMeters>
          </Trackpoint>
          <Trackpoint>
            <Time>2019-04-07T13:25:29.000Z</Time>
            <Position>
              <LatitudeDegrees>28.27380903996527194976806640625</LatitudeDegrees>
              <LongitudeDegrees>-16.6113604791462421417236328125</LongitudeDegrees>
            </Position>
            <AltitudeMeters>2698.60009765625</AltitudeMeters>
            <DistanceMeters>4483.3411983255</DistanceMeters>
          </Trackpoint>
          <Trackpoint>
            <Time>2019-04-07T13:25:31.000Z</Time>
            <Position>
              <LatitudeDegrees>28.27380786649882793426513671875</LatitudeDegrees>
              <LongitudeDegrees>-16.61138269118964672088623046875</LongitudeDegrees>
            </Position>
            <AltitudeMeters>2699.39990234375</AltitudeMeters>
            <DistanceMeters>4485.5226772473</DistanceMeters>
          </Trackpoint>
          <Trackpoint>
            <Time>2019-04-07T13:25:38.000Z</Time>
            <Position>
              <LatitudeDegrees>28.27380334027111530303955078125</LatitudeDegrees>
              <LongitudeDegrees>-16.6114662587642669677734375</LongitudeDegrees>
            </Position>
            <AltitudeMeters>2700.39990234375</AltitudeMeters>
            <DistanceMeters>4493.7302572969</DistanceMeters>
          </Trackpoint>
          <Trackpoint>
            <Time>2019-04-07T13:25:39.000Z</Time>
            <Position>
              <LatitudeDegrees>28.27380334027111530303955078125</LatitudeDegrees>
              <LongitudeDegrees>-16.61147858016192913055419921875</LongitudeDegrees>
            </Position>
            <AltitudeMeters>2700.60009765625</AltitudeMeters>
            <DistanceMeters>4494.9360111306</DistanceMeters>
          </Trackpoint>
          <Trackpoint>
            <Time>2019-04-07T13:25:44.000Z</Time>
            <Position>
              <LatitudeDegrees>28.273796550929546356201171875</LatitudeDegrees>
              <LongitudeDegrees>-16.6115421988070011138916015625</LongitudeDegrees>
            </Position>
            <AltitudeMeters>2701.199951171875</AltitudeMeters>
            <DistanceMeters>4501.2178447849</DistanceMeters>
          </Trackpoint>
          <Trackpoint>
            <Time>2019-04-07T13:25:48.000Z</Time>
            <Position>
              <LatitudeDegrees>28.2737926952540874481201171875</LatitudeDegrees>
              <LongitudeDegrees>-16.61159173585474491119384765625</LongitudeDegrees>
            </Position>
            <AltitudeMeters>2701.39990234375</AltitudeMeters>
            <DistanceMeters>4506.0920761216</DistanceMeters>
          </Trackpoint>
          <Trackpoint>
            <Time>2019-04-07T13:25:51.000Z</Time>
            <Position>
              <LatitudeDegrees>28.27378791756927967071533203125</LatitudeDegrees>
              <LongitudeDegrees>-16.61162777803838253021240234375</LongitudeDegrees>
            </Position>
            <AltitudeMeters>2701.800048828125</AltitudeMeters>
            <DistanceMeters>4509.6641200765</DistanceMeters>
          </Trackpoint>
          <Trackpoint>
            <Time>2019-04-07T13:25:56.000Z</Time>
            <Position>
              <LatitudeDegrees>28.273786492645740509033203125</LatitudeDegrees>
              <LongitudeDegrees>-16.61169064231216907501220703125</LongitudeDegrees>
            </Position>
            <AltitudeMeters>2702.199951171875</AltitudeMeters>
            <DistanceMeters>4515.8284174149</DistanceMeters>
          </Trackpoint>
          <Trackpoint>
            <Time>2019-04-07T13:26:04.000Z</Time>
            <Position>
              <LatitudeDegrees>28.27378221787512302398681640625</LatitudeDegrees>
              <LongitudeDegrees>-16.61178611218929290771484375</LongitudeDegrees>
            </Position>
            <AltitudeMeters>2702.60009765625</AltitudeMeters>
            <DistanceMeters>4525.1990344352</DistanceMeters>
          </Trackpoint>
          <Trackpoint>
            <Time>2019-04-07T13:26:06.000Z</Time>
            <Position>
              <LatitudeDegrees>28.27378305606544017791748046875</LatitudeDegrees>
              <LongitudeDegrees>-16.6118087433278560638427734375</LongitudeDegrees>
            </Position>
            <AltitudeMeters>2702.800048828125</AltitudeMeters>
            <DistanceMeters>4527.419489735</DistanceMeters>
          </Trackpoint>
          <Trackpoint>
            <Time>2019-04-07T13:26:16.000Z</Time>
            <Position>
              <LatitudeDegrees>28.27377903275191783905029296875</LatitudeDegrees>
              <LongitudeDegrees>-16.61192600615322589874267578125</LongitudeDegrees>
            </Position>
            <AltitudeMeters>2703.60009765625</AltitudeMeters>
            <DistanceMeters>4538.922825782</DistanceMeters>
          </Trackpoint>
          <Trackpoint>
            <Time>2019-04-07T13:26:24.000Z</Time>
            <Position>
              <LatitudeDegrees>28.2737890072166919708251953125</LatitudeDegrees>
              <LongitudeDegrees>-16.61201921291649341583251953125</LongitudeDegrees>
            </Position>
            <AltitudeMeters>2704</AltitudeMeters>
            <DistanceMeters>4548.1266916611</DistanceMeters>
          </Trackpoint>
          <Trackpoint>
            <Time>2019-04-07T13:26:25.000Z</Time>
            <Position>
              <LatitudeDegrees>28.27379076741635799407958984375</LatitudeDegrees>
              <LongitudeDegrees>-16.6120295226573944091796875</LongitudeDegrees>
            </Position>
            <AltitudeMeters>2704</AltitudeMeters>
            <DistanceMeters>4549.1589460001</DistanceMeters>
          </Trackpoint>
          <Trackpoint>
            <Time>2019-04-07T13:26:34.000Z</Time>
            <Position>
              <LatitudeDegrees>28.27381406910717487335205078125</LatitudeDegrees>
              <LongitudeDegrees>-16.612122058868408203125</LongitudeDegrees>
            </Position>
            <AltitudeMeters>2704.800048828125</AltitudeMeters>
            <DistanceMeters>4558.5929501039</DistanceMeters>
          </Trackpoint>
          <Trackpoint>
            <Time>2019-04-07T13:26:37.000Z</Time>
            <Position>
              <LatitudeDegrees>28.27381792478263378143310546875</LatitudeDegrees>
              <LongitudeDegrees>-16.612152568995952606201171875</LongitudeDegrees>
            </Position>
            <AltitudeMeters>2705</AltitudeMeters>
            <DistanceMeters>4561.6129463305</DistanceMeters>
          </Trackpoint>
          <Trackpoint>
            <Time>2019-04-07T13:26:42.000Z</Time>
            <Position>
              <LatitudeDegrees>28.273830749094486236572265625</LatitudeDegrees>
              <LongitudeDegrees>-16.61220378242433071136474609375</LongitudeDegrees>
            </Position>
            <AltitudeMeters>2705.800048828125</AltitudeMeters>
            <DistanceMeters>4566.8325000117</DistanceMeters>
          </Trackpoint>
          <Trackpoint>
            <Time>2019-04-07T13:26:43.000Z</Time>
            <Position>
              <LatitudeDegrees>28.2738346047699451446533203125</LatitudeDegrees>
              <LongitudeDegrees>-16.61221451126039028167724609375</LongitudeDegrees>
            </Position>
            <AltitudeMeters>2706</AltitudeMeters>
            <DistanceMeters>4567.9688542397</DistanceMeters>
          </Trackpoint>
          <Trackpoint>
            <Time>2019-04-07T13:26:48.000Z</Time>
            <Position>
              <LatitudeDegrees>28.27384860254824161529541015625</LatitudeDegrees>
              <LongitudeDegrees>-16.6122682392597198486328125</LongitudeDegrees>
            </Position>
            <AltitudeMeters>2707</AltitudeMeters>
            <DistanceMeters>4573.4598855861</DistanceMeters>
          </Trackpoint>
          <Trackpoint>
            <Time>2019-04-07T13:26:51.000Z</Time>
            <Position>
              <LatitudeDegrees>28.2738530449569225311279296875</LatitudeDegrees>
              <LongitudeDegrees>-16.61230084486305713653564453125</LongitudeDegrees>
            </Position>
            <AltitudeMeters>2707.60009765625</AltitudeMeters>
            <DistanceMeters>4576.6935875702</DistanceMeters>
          </Trackpoint>
          <Trackpoint>
            <Time>2019-04-07T13:26:54.000Z</Time>
            <Position>
              <LatitudeDegrees>28.2738577388226985931396484375</LatitudeDegrees>
              <LongitudeDegrees>-16.6123357973992824554443359375</LongitudeDegrees>
            </Position>
            <AltitudeMeters>2708.199951171875</AltitudeMeters>
            <DistanceMeters>4580.1604350931</DistanceMeters>
          </Trackpoint>
          <Trackpoint>
            <Time>2019-04-07T13:26:59.000Z</Time>
            <Position>
              <LatitudeDegrees>28.27387006022036075592041015625</LatitudeDegrees>
              <LongitudeDegrees>-16.61239220760762691497802734375</LongitudeDegrees>
            </Position>
            <AltitudeMeters>2708.60009765625</AltitudeMeters>
            <DistanceMeters>4585.8572846382</DistanceMeters>
          </Trackpoint>
          <Trackpoint>
            <Time>2019-04-07T13:27:03.000Z</Time>
            <Position>
              <LatitudeDegrees>28.27387710101902484893798828125</LatitudeDegrees>
              <LongitudeDegrees>-16.61243897862732410430908203125</LongitudeDegrees>
            </Position>
            <AltitudeMeters>2709.199951171875</AltitudeMeters>
            <DistanceMeters>4590.5087428138</DistanceMeters>
          </Trackpoint>
          <Trackpoint>
            <Time>2019-04-07T13:27:06.000Z</Time>
            <Position>
              <LatitudeDegrees>28.27388179488480091094970703125</LatitudeDegrees>
              <LongitudeDegrees>-16.6124739311635494232177734375</LongitudeDegrees>
            </Position>
            <AltitudeMeters>2709.60009765625</AltitudeMeters>
            <DistanceMeters>4593.974287745</DistanceMeters>
          </Trackpoint>
          <Trackpoint>
            <Time>2019-04-07T13:27:10.000Z</Time>
            <Position>
              <LatitudeDegrees>28.2738934457302093505859375</LatitudeDegrees>
              <LongitudeDegrees>-16.612518690526485443115234375</LongitudeDegrees>
            </Position>
            <AltitudeMeters>2710.39990234375</AltitudeMeters>
            <DistanceMeters>4598.548420135</DistanceMeters>
          </Trackpoint>
          <Trackpoint>
            <Time>2019-04-07T13:27:16.000Z</Time>
            <Position>
              <LatitudeDegrees>28.27390082180500030517578125</LatitudeDegrees>
              <LongitudeDegrees>-16.612587757408618927001953125</LongitudeDegrees>
            </Position>
            <AltitudeMeters>2710.800048828125</AltitudeMeters>
            <DistanceMeters>4605.3678697965</DistanceMeters>
          </Trackpoint>
          <Trackpoint>
            <Time>2019-04-07T13:27:27.000Z</Time>
            <Position>
              <LatitudeDegrees>28.2739207707345485687255859375</LatitudeDegrees>
              <LongitudeDegrees>-16.61271373741328716278076171875</LongitudeDegrees>
            </Position>
            <AltitudeMeters>2711.39990234375</AltitudeMeters>
            <DistanceMeters>4617.9149950738</DistanceMeters>
          </Trackpoint>
          <Trackpoint>
            <Time>2019-04-07T13:27:32.000Z</Time>
            <Position>
              <LatitudeDegrees>28.27391465194523334503173828125</LatitudeDegrees>
              <LongitudeDegrees>-16.61277048289775848388671875</LongitudeDegrees>
            </Position>
            <AltitudeMeters>2712.39990234375</AltitudeMeters>
            <DistanceMeters>4623.519960368</DistanceMeters>
          </Trackpoint>
          <Trackpoint>
            <Time>2019-04-07T13:27:35.000Z</Time>
            <Position>
              <LatitudeDegrees>28.27390375547111034393310546875</LatitudeDegrees>
              <LongitudeDegrees>-16.61280669271945953369140625</LongitudeDegrees>
            </Position>
            <AltitudeMeters>2713.39990234375</AltitudeMeters>
            <DistanceMeters>4627.2708081521</DistanceMeters>
          </Trackpoint>
          <Trackpoint>
            <Time>2019-04-07T13:27:36.000Z</Time>
            <Position>
              <LatitudeDegrees>28.27389922924339771270751953125</LatitudeDegrees>
              <LongitudeDegrees>-16.61281784065067768096923828125</LongitudeDegrees>
            </Position>
            <AltitudeMeters>2713.60009765625</AltitudeMeters>
            <DistanceMeters>4628.472811576</DistanceMeters>
          </Trackpoint>
          <Trackpoint>
            <Time>2019-04-07T13:27:44.000Z</Time>
            <Position>
              <LatitudeDegrees>28.27383242547512054443359375</LatitudeDegrees>
              <LongitudeDegrees>-16.6128838062286376953125</LongitudeDegrees>
            </Position>
            <AltitudeMeters>2714.199951171875</AltitudeMeters>
            <DistanceMeters>4638.3263075</DistanceMeters>
          </Trackpoint>
          <Trackpoint>
            <Time>2019-04-07T13:27:46.000Z</Time>
            <Position>
              <LatitudeDegrees>28.2738081179559230804443359375</LatitudeDegrees>
              <LongitudeDegrees>-16.61289160139858722686767578125</LongitudeDegrees>
            </Position>
            <AltitudeMeters>2714.60009765625</AltitudeMeters>
            <DistanceMeters>4641.1356289149</DistanceMeters>
          </Trackpoint>
          <Trackpoint>
            <Time>2019-04-07T13:27:52.000Z</Time>
            <Position>
              <LatitudeDegrees>28.27373947016894817352294921875</LatitudeDegrees>
              <LongitudeDegrees>-16.61289059557020664215087890625</LongitudeDegrees>
            </Position>
            <AltitudeMeters>2715.800048828125</AltitudeMeters>
            <DistanceMeters>4648.7768640432</DistanceMeters>
          </Trackpoint>
          <Trackpoint>
            <Time>2019-04-07T13:27:53.000Z</Time>
            <Position>
              <LatitudeDegrees>28.27372723259031772613525390625</LatitudeDegrees>
              <LongitudeDegrees>-16.612888835370540618896484375</LongitudeDegrees>
            </Position>
            <AltitudeMeters>2715.800048828125</AltitudeMeters>
            <DistanceMeters>4650.1506493164</DistanceMeters>
          </Trackpoint>
          <Trackpoint>
            <Time>2019-04-07T13:28:00.000Z</Time>
            <Position>
              <LatitudeDegrees>28.27365816570818424224853515625</LatitudeDegrees>
              <LongitudeDegrees>-16.612874753773212432861328125</LongitudeDegrees>
            </Position>
            <AltitudeMeters>2717</AltitudeMeters>
            <DistanceMeters>4657.9613596846</DistanceMeters>
          </Trackpoint>
          <Trackpoint>
            <Time>2019-04-07T13:28:04.000Z</Time>
            <Position>
              <LatitudeDegrees>28.27362128533422946929931640625</LatitudeDegrees>
              <LongitudeDegrees>-16.61286109127104282379150390625</LongitudeDegrees>
            </Position>
            <AltitudeMeters>2717.60009765625</AltitudeMeters>
            <DistanceMeters>4662.2795893979</DistanceMeters>
          </Trackpoint>
          <Trackpoint>
            <Time>2019-04-07T13:28:07.000Z</Time>
            <Position>
              <LatitudeDegrees>28.273593373596668243408203125</LatitudeDegrees>
              <LongitudeDegrees>-16.6128531284630298614501953125</LongitudeDegrees>
            </Position>
            <AltitudeMeters>2718</AltitudeMeters>
            <DistanceMeters>4665.4824267088</DistanceMeters>
          </Trackpoint>
          <Trackpoint>
            <Time>2019-04-07T13:28:13.000Z</Time>
            <Position>
              <LatitudeDegrees>28.2735288329422473907470703125</LatitudeDegrees>
              <LongitudeDegrees>-16.6128343529999256134033203125</LongitudeDegrees>
            </Position>
            <AltitudeMeters>2718.800048828125</AltitudeMeters>
            <DistanceMeters>4672.8975555322</DistanceMeters>
          </Trackpoint>
          <Trackpoint>
            <Time>2019-04-07T13:28:23.000Z</Time>
            <Position>
              <LatitudeDegrees>28.27341559343039989471435546875</LatitudeDegrees>
              <LongitudeDegrees>-16.6128152422606945037841796875</LongitudeDegrees>
            </Position>
            <AltitudeMeters>2718.800048828125</AltitudeMeters>
            <DistanceMeters>4685.6399966067</DistanceMeters>
          </Trackpoint>
          <Trackpoint>
            <Time>2019-04-07T13:28:31.000Z</Time>
            <Position>
              <LatitudeDegrees>28.2733296789228916168212890625</LatitudeDegrees>
              <LongitudeDegrees>-16.612799651920795440673828125</LongitudeDegrees>
            </Position>
            <AltitudeMeters>2718.800048828125</AltitudeMeters>
            <DistanceMeters>4695.3234006463</DistanceMeters>
          </Trackpoint>
          <Trackpoint>
            <Time>2019-04-07T13:28:34.000Z</Time>
            <Position>
              <LatitudeDegrees>28.2732995040714740753173828125</LatitudeDegrees>
              <LongitudeDegrees>-16.612794958055019378662109375</LongitudeDegrees>
            </Position>
            <AltitudeMeters>2719</AltitudeMeters>
            <DistanceMeters>4698.7138707189</DistanceMeters>
          </Trackpoint>
          <Trackpoint>
            <Time>2019-04-07T13:28:40.000Z</Time>
            <Position>
              <LatitudeDegrees>28.273237980902194976806640625</LatitudeDegrees>
              <LongitudeDegrees>-16.6127837263047695159912109375</LongitudeDegrees>
            </Position>
            <AltitudeMeters>2719.60009765625</AltitudeMeters>
            <DistanceMeters>4705.64951901</DistanceMeters>
          </Trackpoint>
          <Trackpoint>
            <Time>2019-04-07T13:28:46.000Z</Time>
            <Position>
              <LatitudeDegrees>28.27318391762673854827880859375</LatitudeDegrees>
              <LongitudeDegrees>-16.61276956088840961456298828125</LongitudeDegrees>
            </Position>
            <AltitudeMeters>2720.199951171875</AltitudeMeters>
            <DistanceMeters>4711.825524426</DistanceMeters>
          </Trackpoint>
          <Trackpoint>
            <Time>2019-04-07T13:28:47.000Z</Time>
            <Position>
              <LatitudeDegrees>28.27317402698099613189697265625</LatitudeDegrees>
              <LongitudeDegrees>-16.612765453755855560302734375</LongitudeDegrees>
            </Position>
            <AltitudeMeters>2720.199951171875</AltitudeMeters>
            <DistanceMeters>4713.0009399678</DistanceMeters>
          </Trackpoint>
          <Trackpoint>
            <Time>2019-04-07T13:28:54.000Z</Time>
            <Position>
              <LatitudeDegrees>28.27310915105044841766357421875</LatitudeDegrees>
              <LongitudeDegrees>-16.6127465106546878814697265625</LongitudeDegrees>
            </Position>
            <AltitudeMeters>2721</AltitudeMeters>
            <DistanceMeters>4720.4567531756</DistanceMeters>
          </Trackpoint>
          <Trackpoint>
            <Time>2019-04-07T13:28:56.000Z</Time>
            <Position>
              <LatitudeDegrees>28.2730887830257415771484375</LatitudeDegrees>
              <LongitudeDegrees>-16.612744666635990142822265625</LongitudeDegrees>
            </Position>
            <AltitudeMeters>2721.39990234375</AltitudeMeters>
            <DistanceMeters>4722.7314473973</DistanceMeters>
          </Trackpoint>
          <Trackpoint>
            <Time>2019-04-07T13:29:03.000Z</Time>
            <Position>
              <LatitudeDegrees>28.27301410026848316192626953125</LatitudeDegrees>
              <LongitudeDegrees>-16.6127565689384937286376953125</LongitudeDegrees>
            </Position>
            <AltitudeMeters>2722.39990234375</AltitudeMeters>
            <DistanceMeters>4731.1250554663</DistanceMeters>
          </Trackpoint>
          <Trackpoint>
            <Time>2019-04-07T13:29:04.000Z</Time>
            <Position>
              <LatitudeDegrees>28.2730042934417724609375</LatitudeDegrees>
              <LongitudeDegrees>-16.6127589158713817596435546875</LongitudeDegrees>
            </Position>
            <AltitudeMeters>2722.60009765625</AltitudeMeters>
            <DistanceMeters>4732.2413666009</DistanceMeters>
          </Trackpoint>
          <Trackpoint>
            <Time>2019-04-07T13:29:11.000Z</Time>
            <Position>
              <LatitudeDegrees>28.27294201590120792388916015625</LatitudeDegrees>
              <LongitudeDegrees>-16.61279940046370029449462890625</LongitudeDegrees>
            </Position>
            <AltitudeMeters>2723.60009765625</AltitudeMeters>
            <DistanceMeters>4740.2281344078</DistanceMeters>
          </Trackpoint>
          <Trackpoint>
            <Time>2019-04-07T13:29:12.000Z</Time>
            <Position>
              <LatitudeDegrees>28.272933550179004669189453125</LatitudeDegrees>
              <LongitudeDegrees>-16.61280778236687183380126953125</LongitudeDegrees>
            </Position>
            <AltitudeMeters>2723.800048828125</AltitudeMeters>
            <DistanceMeters>4741.474398083</DistanceMeters>
          </Trackpoint>
          <Trackpoint>
            <Time>2019-04-07T13:29:18.000Z</Time>
            <Position>
              <LatitudeDegrees>28.27289205975830554962158203125</LatitudeDegrees>
              <LongitudeDegrees>-16.6128608398139476776123046875</LongitudeDegrees>
            </Position>
            <AltitudeMeters>2724.60009765625</AltitudeMeters>
            <DistanceMeters>4748.4295486573</DistanceMeters>
          </Trackpoint>
          <Trackpoint>
            <Time>2019-04-07T13:29:23.000Z</Time>
            <Position>
              <LatitudeDegrees>28.27286289073526859283447265625</LatitudeDegrees>
              <LongitudeDegrees>-16.6129091195762157440185546875</LongitudeDegrees>
            </Position>
            <AltitudeMeters>2724.800048828125</AltitudeMeters>
            <DistanceMeters>4754.1682496245</DistanceMeters>
          </Trackpoint>
          <Trackpoint>
            <Time>2019-04-07T13:29:34.000Z</Time>
            <Position>
              <LatitudeDegrees>28.27279784716665744781494140625</LatitudeDegrees>
              <LongitudeDegrees>-16.6130177490413188934326171875</LongitudeDegrees>
            </Position>
            <AltitudeMeters>2724.60009765625</AltitudeMeters>
            <DistanceMeters>4767.044632408</DistanceMeters>
          </Trackpoint>
          <Trackpoint>
            <Time>2019-04-07T13:29:41.000Z</Time>
            <Position>
              <LatitudeDegrees>28.27277320437133312225341796875</LatitudeDegrees>
              <LongitudeDegrees>-16.613093353807926177978515625</LongitudeDegrees>
            </Position>
            <AltitudeMeters>2725.60009765625</AltitudeMeters>
            <DistanceMeters>4774.9472907384</DistanceMeters>
          </Trackpoint>
          <Trackpoint>
            <Time>2019-04-07T13:29:44.000Z</Time>
            <Position>
              <LatitudeDegrees>28.272766582667827606201171875</LatitudeDegrees>
              <LongitudeDegrees>-16.61312780342996120452880859375</LongitudeDegrees>
            </Position>
            <AltitudeMeters>2726.199951171875</AltitudeMeters>
            <DistanceMeters>4778.403703783</DistanceMeters>
          </Trackpoint>
          <Trackpoint>
            <Time>2019-04-07T13:29:47.000Z</Time>
            <Position>
              <LatitudeDegrees>28.2727588713169097900390625</LatitudeDegrees>
              <LongitudeDegrees>-16.613160409033298492431640625</LongitudeDegrees>
            </Position>
            <AltitudeMeters>2726.60009765625</AltitudeMeters>
            <DistanceMeters>4781.7133084009</DistanceMeters>
          </Trackpoint>
          <Trackpoint>
            <Time>2019-04-07T13:29:48.000Z</Time>
            <Position>
              <LatitudeDegrees>28.27275945805013179779052734375</LatitudeDegrees>
              <LongitudeDegrees>-16.61317239515483379364013671875</LongitudeDegrees>
            </Position>
            <AltitudeMeters>2726.60009765625</AltitudeMeters>
            <DistanceMeters>4782.8925589139</DistanceMeters>
          </Trackpoint>
          <Trackpoint>
            <Time>2019-04-07T13:29:53.000Z</Time>
            <Position>
              <LatitudeDegrees>28.27276448719203472137451171875</LatitudeDegrees>
              <LongitudeDegrees>-16.6132323257625102996826171875</LongitudeDegrees>
            </Position>
            <AltitudeMeters>2727.60009765625</AltitudeMeters>
            <DistanceMeters>4788.7941692741</DistanceMeters>
          </Trackpoint>
          <Trackpoint>
            <Time>2019-04-07T13:29:54.000Z</Time>
            <Position>
              <LatitudeDegrees>28.27276901341974735260009765625</LatitudeDegrees>
              <LongitudeDegrees>-16.6132454015314579010009765625</LongitudeDegrees>
            </Position>
            <AltitudeMeters>2727.800048828125</AltitudeMeters>
            <DistanceMeters>4790.171237193</DistanceMeters>
          </Trackpoint>
          <Trackpoint>
            <Time>2019-04-07T13:30:02.000Z</Time>
            <Position>
              <LatitudeDegrees>28.27277823351323604583740234375</LatitudeDegrees>
              <LongitudeDegrees>-16.6133402846753597259521484375</LongitudeDegrees>
            </Position>
            <AltitudeMeters>2728.60009765625</AltitudeMeters>
            <DistanceMeters>4799.528835778</DistanceMeters>
          </Trackpoint>
          <Trackpoint>
            <Time>2019-04-07T13:30:08.000Z</Time>
            <Position>
              <LatitudeDegrees>28.27279332093894481658935546875</LatitudeDegrees>
              <LongitudeDegrees>-16.613413877785205841064453125</LongitudeDegrees>
            </Position>
            <AltitudeMeters>2728.800048828125</AltitudeMeters>
            <DistanceMeters>4806.9354351594</DistanceMeters>
          </Trackpoint>
          <Trackpoint>
            <Time>2019-04-07T13:30:09.000Z</Time>
            <Position>
              <LatitudeDegrees>28.27279508113861083984375</LatitudeDegrees>
              <LongitudeDegrees>-16.61342628300189971923828125</LongitudeDegrees>
            </Position>
            <AltitudeMeters>2728.800048828125</AltitudeMeters>
            <DistanceMeters>4808.1671221499</DistanceMeters>
          </Trackpoint>
          <Trackpoint>
            <Time>2019-04-07T13:30:17.000Z</Time>
            <Position>
              <LatitudeDegrees>28.272814191877841949462890625</LatitudeDegrees>
              <LongitudeDegrees>-16.6135179810225963592529296875</LongitudeDegrees>
            </Position>
            <AltitudeMeters>2729.800048828125</AltitudeMeters>
            <DistanceMeters>4817.4037969976</DistanceMeters>
          </Trackpoint>
          <Trackpoint>
            <Time>2019-04-07T13:30:27.000Z</Time>
            <Position>
              <LatitudeDegrees>28.27287378720939159393310546875</LatitudeDegrees>
              <LongitudeDegrees>-16.61361563019454479217529296875</LongitudeDegrees>
            </Position>
            <AltitudeMeters>2730.60009765625</AltitudeMeters>
            <DistanceMeters>4829.0491260198</DistanceMeters>
          </Trackpoint>
          <Trackpoint>
            <Time>2019-04-07T13:30:29.000Z</Time>
            <Position>
              <LatitudeDegrees>28.2728874497115612030029296875</LatitudeDegrees>
              <LongitudeDegrees>-16.6136336512863636016845703125</LongitudeDegrees>
            </Position>
            <AltitudeMeters>2730.800048828125</AltitudeMeters>
            <DistanceMeters>4831.3806718631</DistanceMeters>
          </Trackpoint>
          <Trackpoint>
            <Time>2019-04-07T13:30:37.000Z</Time>
            <Position>
              <LatitudeDegrees>28.272950984537601470947265625</LatitudeDegrees>
              <LongitudeDegrees>-16.61369643174111843109130859375</LongitudeDegrees>
            </Position>
            <AltitudeMeters>2731.800048828125</AltitudeMeters>
            <DistanceMeters>4840.754661082</DistanceMeters>
          </Trackpoint>
          <Trackpoint>
            <Time>2019-04-07T13:30:40.000Z</Time>
            <Position>
              <LatitudeDegrees>28.27297286130487918853759765625</LatitudeDegrees>
              <LongitudeDegrees>-16.61372107453644275665283203125</LongitudeDegrees>
            </Position>
            <AltitudeMeters>2731.800048828125</AltitudeMeters>
            <DistanceMeters>4844.183532548</DistanceMeters>
          </Trackpoint>
          <Trackpoint>
            <Time>2019-04-07T13:30:46.000Z</Time>
            <Position>
              <LatitudeDegrees>28.2730188779532909393310546875</LatitudeDegrees>
              <LongitudeDegrees>-16.613763906061649322509765625</LongitudeDegrees>
            </Position>
            <AltitudeMeters>2733</AltitudeMeters>
            <DistanceMeters>4850.8061514626</DistanceMeters>
          </Trackpoint>
          <Trackpoint>
            <Time>2019-04-07T13:30:53.000Z</Time>
            <Position>
              <LatitudeDegrees>28.27306522987782955169677734375</LatitudeDegrees>
              <LongitudeDegrees>-16.61381444893777370452880859375</LongitudeDegrees>
            </Position>
            <AltitudeMeters>2733.800048828125</AltitudeMeters>
            <DistanceMeters>4857.9590818503</DistanceMeters>
          </Trackpoint>
          <Trackpoint>
            <Time>2019-04-07T13:30:54.000Z</Time>
            <Position>
              <LatitudeDegrees>28.2730698399245738983154296875</LatitudeDegrees>
              <LongitudeDegrees>-16.61382383666932582855224609375</LongitudeDegrees>
            </Position>
            <AltitudeMeters>2733.800048828125</AltitudeMeters>
            <DistanceMeters>4859.0129790951</DistanceMeters>
          </Trackpoint>
          <Trackpoint>
            <Time>2019-04-07T13:30:57.000Z</Time>
            <Position>
              <LatitudeDegrees>28.273093141615390777587890625</LatitudeDegrees>
              <LongitudeDegrees>-16.61384244449436664581298828125</LongitudeDegrees>
            </Position>
            <AltitudeMeters>2734</AltitudeMeters>
            <DistanceMeters>4862.183227521</DistanceMeters>
          </Trackpoint>
          <Trackpoint>
            <Time>2019-04-07T13:31:01.000Z</Time>
            <Position>
              <LatitudeDegrees>28.2731275074183940887451171875</LatitudeDegrees>
              <LongitudeDegrees>-16.6138670034706592559814453125</LongitudeDegrees>
            </Position>
            <AltitudeMeters>2734</AltitudeMeters>
            <DistanceMeters>4866.7017452912</DistanceMeters>
          </Trackpoint>
          <Trackpoint>
            <Time>2019-04-07T13:31:10.000Z</Time>
            <Position>
              <LatitudeDegrees>28.27319665811955928802490234375</LatitudeDegrees>
              <LongitudeDegrees>-16.61394260823726654052734375</LongitudeDegrees>
            </Position>
            <AltitudeMeters>2735</AltitudeMeters>
            <DistanceMeters>4877.3870757287</DistanceMeters>
          </Trackpoint>
          <Trackpoint>
            <Time>2019-04-07T13:31:12.000Z</Time>
            <Position>
              <LatitudeDegrees>28.2732126675546169281005859375</LatitudeDegrees>
              <LongitudeDegrees>-16.61396163515746593475341796875</LongitudeDegrees>
            </Position>
            <AltitudeMeters>2735</AltitudeMeters>
            <DistanceMeters>4879.9668366361</DistanceMeters>
          </Trackpoint>
          <Trackpoint>
            <Time>2019-04-07T13:31:20.000Z</Time>
            <Position>
              <LatitudeDegrees>28.27327058650553226470947265625</LatitudeDegrees>
              <LongitudeDegrees>-16.61402550525963306427001953125</LongitudeDegrees>
            </Position>
            <AltitudeMeters>2736</AltitudeMeters>
            <DistanceMeters>4888.9527669475</DistanceMeters>
          </Trackpoint>
          <Trackpoint>
            <Time>2019-04-07T13:31:21.000Z</Time>
            <Position>
              <LatitudeDegrees>28.27327796258032321929931640625</LatitudeDegrees>
              <LongitudeDegrees>-16.614032797515392303466796875</LongitudeDegrees>
            </Position>
            <AltitudeMeters>2736.199951171875</AltitudeMeters>
            <DistanceMeters>4890.0445407751</DistanceMeters>
          </Trackpoint>
          <Trackpoint>
            <Time>2019-04-07T13:31:27.000Z</Time>
            <Position>
              <LatitudeDegrees>28.27331383712589740753173828125</LatitudeDegrees>
              <LongitudeDegrees>-16.61407512612640857696533203125</LongitudeDegrees>
            </Position>
            <AltitudeMeters>2737</AltitudeMeters>
            <DistanceMeters>4895.8028774014</DistanceMeters>
          </Trackpoint>
          <Trackpoint>
            <Time>2019-04-07T13:31:28.000Z</Time>
            <Position>
              <LatitudeDegrees>28.273320458829402923583984375</LatitudeDegrees>
              <LongitudeDegrees>-16.614082418382167816162109375</LongitudeDegrees>
            </Position>
            <AltitudeMeters>2737.39990234375</AltitudeMeters>
            <DistanceMeters>4896.8351317404</DistanceMeters>
          </Trackpoint>
          <Trackpoint>
            <Time>2019-04-07T13:31:33.000Z</Time>
            <Position>
              <LatitudeDegrees>28.27335557900369167327880859375</LatitudeDegrees>
              <LongitudeDegrees>-16.61411368288099765777587890625</LongitudeDegrees>
            </Position>
            <AltitudeMeters>2738</AltitudeMeters>
            <DistanceMeters>4901.8020391127</DistanceMeters>
          </Trackpoint>
          <Trackpoint>
            <Time>2019-04-07T13:31:38.000Z</Time>
            <Position>
              <LatitudeDegrees>28.273396231234073638916015625</LatitudeDegrees>
              <LongitudeDegrees>-16.61414721049368381500244140625</LongitudeDegrees>
            </Position>
            <AltitudeMeters>2738.800048828125</AltitudeMeters>
            <DistanceMeters>4907.3941008725</DistanceMeters>
          </Trackpoint>
          <Trackpoint>
            <Time>2019-04-07T13:31:42.000Z</Time>
            <Position>
              <LatitudeDegrees>28.27342472970485687255859375</LatitudeDegrees>
              <LongitudeDegrees>-16.61417839117348194122314453125</LongitudeDegrees>
            </Position>
            <AltitudeMeters>2739</AltitudeMeters>
            <DistanceMeters>4911.8003083522</DistanceMeters>
          </Trackpoint>
          <Trackpoint>
            <Time>2019-04-07T13:31:47.000Z</Time>
            <Position>
              <LatitudeDegrees>28.27345448546111583709716796875</LatitudeDegrees>
              <LongitudeDegrees>-16.6142237372696399688720703125</LongitudeDegrees>
            </Position>
            <AltitudeMeters>2739.60009765625</AltitudeMeters>
            <DistanceMeters>4917.3437143575</DistanceMeters>
          </Trackpoint>
          <Trackpoint>
            <Time>2019-04-07T13:31:50.000Z</Time>
            <Position>
              <LatitudeDegrees>28.2734664715826511383056640625</LatitudeDegrees>
              <LongitudeDegrees>-16.6142530739307403564453125</LongitudeDegrees>
            </Position>
            <AltitudeMeters>2740</AltitudeMeters>
            <DistanceMeters>4920.5125382727</DistanceMeters>
          </Trackpoint>
          <Trackpoint>
            <Time>2019-04-07T13:31:54.000Z</Time>
            <Position>
              <LatitudeDegrees>28.273471333086490631103515625</LatitudeDegrees>
              <LongitudeDegrees>-16.61429909057915210723876953125</LongitudeDegrees>
            </Position>
            <AltitudeMeters>2740.39990234375</AltitudeMeters>
            <DistanceMeters>4925.0549742573</DistanceMeters>
          </Trackpoint>
          <Trackpoint>
            <Time>2019-04-07T13:31:58.000Z</Time>
            <Position>
              <LatitudeDegrees>28.27347577549517154693603515625</LatitudeDegrees>
              <LongitudeDegrees>-16.6143464483320713043212890625</LongitudeDegrees>
            </Position>
            <AltitudeMeters>2741.199951171875</AltitudeMeters>
            <DistanceMeters>4929.7238718291</DistanceMeters>
          </Trackpoint>
          <Trackpoint>
            <Time>2019-04-07T13:32:02.000Z</Time>
            <Position>
              <LatitudeDegrees>28.2734589278697967529296875</LatitudeDegrees>
              <LongitudeDegrees>-16.61439397372305393218994140625</LongitudeDegrees>
            </Position>
            <AltitudeMeters>2741.800048828125</AltitudeMeters>
            <DistanceMeters>4934.7468225141</DistanceMeters>
          </Trackpoint>
          <Trackpoint>
            <Time>2019-04-07T13:32:07.000Z</Time>
            <Position>
              <LatitudeDegrees>28.27342204749584197998046875</LatitudeDegrees>
              <LongitudeDegrees>-16.61443873308598995208740234375</LongitudeDegrees>
            </Position>
            <AltitudeMeters>2742.199951171875</AltitudeMeters>
            <DistanceMeters>4940.7553369414</DistanceMeters>
          </Trackpoint>
          <Trackpoint>
            <Time>2019-04-07T13:32:10.000Z</Time>
            <Position>
              <LatitudeDegrees>28.27339899726212024688720703125</LatitudeDegrees>
              <LongitudeDegrees>-16.61446354351937770843505859375</LongitudeDegrees>
            </Position>
            <AltitudeMeters>2742.60009765625</AltitudeMeters>
            <DistanceMeters>4944.2892576709</DistanceMeters>
          </Trackpoint>
          <Trackpoint>
            <Time>2019-04-07T13:32:16.000Z</Time>
            <Position>
              <LatitudeDegrees>28.27334166504442691802978515625</LatitudeDegrees>
              <LongitudeDegrees>-16.61449003033339977264404296875</LongitudeDegrees>
            </Position>
            <AltitudeMeters>2743.800048828125</AltitudeMeters>
            <DistanceMeters>4951.1778752182</DistanceMeters>
          </Trackpoint>
          <Trackpoint>
            <Time>2019-04-07T13:32:18.000Z</Time>
            <Position>
              <LatitudeDegrees>28.273319788277149200439453125</LatitudeDegrees>
              <LongitudeDegrees>-16.6144882701337337493896484375</LongitudeDegrees>
            </Position>
            <AltitudeMeters>2744</AltitudeMeters>
            <DistanceMeters>4953.6191557127</DistanceMeters>
          </Trackpoint>
          <Trackpoint>
            <Time>2019-04-07T13:32:25.000Z</Time>
            <Position>
              <LatitudeDegrees>28.2732529006898403167724609375</LatitudeDegrees>
              <LongitudeDegrees>-16.61447544582188129425048828125</LongitudeDegrees>
            </Position>
            <AltitudeMeters>2744.39990234375</AltitudeMeters>
            <DistanceMeters>4961.1694452827</DistanceMeters>
          </Trackpoint>
          <Trackpoint>
            <Time>2019-04-07T13:32:29.000Z</Time>
            <Position>
              <LatitudeDegrees>28.27321493066847324371337890625</LatitudeDegrees>
              <LongitudeDegrees>-16.61445499397814273834228515625</LongitudeDegrees>
            </Position>
            <AltitudeMeters>2744.800048828125</AltitudeMeters>
            <DistanceMeters>4965.8480033191</DistanceMeters>
          </Trackpoint>
          <Trackpoint>
            <Time>2019-04-07T13:32:33.000Z</Time>
            <Position>
              <LatitudeDegrees>28.27317872084677219390869140625</LatitudeDegrees>
              <LongitudeDegrees>-16.61443705670535564422607421875</LongitudeDegrees>
            </Position>
            <AltitudeMeters>2745</AltitudeMeters>
            <DistanceMeters>4970.2449788326</DistanceMeters>
          </Trackpoint>
          <Trackpoint>
            <Time>2019-04-07T13:32:40.000Z</Time>
            <Position>
              <LatitudeDegrees>28.2731026969850063323974609375</LatitudeDegrees>
              <LongitudeDegrees>-16.614407636225223541259765625</LongitudeDegrees>
            </Position>
            <AltitudeMeters>2745.60009765625</AltitudeMeters>
            <DistanceMeters>4979.18456364</DistanceMeters>
          </Trackpoint>
          <Trackpoint>
            <Time>2019-04-07T13:32:48.000Z</Time>
            <Position>
              <LatitudeDegrees>28.27302600257098674774169921875</LatitudeDegrees>
              <LongitudeDegrees>-16.61436715163290500640869140625</LongitudeDegrees>
            </Position>
            <AltitudeMeters>2745.800048828125</AltitudeMeters>
            <DistanceMeters>4988.5984454229</DistanceMeters>
          </Trackpoint>
          <Trackpoint>
            <Time>2019-04-07T13:32:56.000Z</Time>
            <Position>
              <LatitudeDegrees>28.27294620685279369354248046875</LatitudeDegrees>
              <LongitudeDegrees>-16.61433823406696319580078125</LongitudeDegrees>
            </Position>
            <AltitudeMeters>2746.800048828125</AltitudeMeters>
            <DistanceMeters>4997.9212393052</DistanceMeters>
          </Trackpoint>
          <Trackpoint>
            <Time>2019-04-07T13:32:57.000Z</Time>
            <Position>
              <LatitudeDegrees>28.272937238216400146484375</LatitudeDegrees>
              <LongitudeDegrees>-16.614333875477313995361328125</LongitudeDegrees>
            </Position>
            <AltitudeMeters>2746.800048828125</AltitudeMeters>
            <DistanceMeters>4999.0088697637</DistanceMeters>
          </Trackpoint>
          <Trackpoint>
            <Time>2019-04-07T13:33:04.000Z</Time>
            <Position>
              <LatitudeDegrees>28.27286909334361553192138671875</LatitudeDegrees>
              <LongitudeDegrees>-16.61429875530302524566650390625</LongitudeDegrees>
            </Position>
            <AltitudeMeters>2747.60009765625</AltitudeMeters>
            <DistanceMeters>5007.3382201176</DistanceMeters>
          </Trackpoint>
          <Trackpoint>
            <Time>2019-04-07T13:33:08.000Z</Time>
            <Position>
              <LatitudeDegrees>28.27283472754061222076416015625</LatitudeDegrees>
              <LongitudeDegrees>-16.61427520215511322021484375</LongitudeDegrees>
            </Position>
            <AltitudeMeters>2747.800048828125</AltitudeMeters>
            <DistanceMeters>5011.8064970806</DistanceMeters>
          </Trackpoint>
          <Trackpoint>
            <Time>2019-04-07T13:33:11.000Z</Time>
            <Position>
              <LatitudeDegrees>28.2728056423366069793701171875</LatitudeDegrees>
              <LongitudeDegrees>-16.61425868980586528778076171875</LongitudeDegrees>
            </Position>
            <AltitudeMeters>2748.199951171875</AltitudeMeters>
            <DistanceMeters>5015.4262541056</DistanceMeters>
          </Trackpoint>
          <Trackpoint>
            <Time>2019-04-07T13:33:20.000Z</Time>
            <Position>
              <LatitudeDegrees>28.27273095957934856414794921875</LatitudeDegrees>
              <LongitudeDegrees>-16.614206135272979736328125</LongitudeDegrees>
            </Position>
            <AltitudeMeters>2748.39990234375</AltitudeMeters>
            <DistanceMeters>5025.2052371581</DistanceMeters>
          </Trackpoint>
          <Trackpoint>
            <Time>2019-04-07T13:33:27.000Z</Time>
            <Position>
              <LatitudeDegrees>28.27266843058168888092041015625</LatitudeDegrees>
              <LongitudeDegrees>-16.61416791379451751708984375</LongitudeDegrees>
            </Position>
            <AltitudeMeters>2749</AltitudeMeters>
            <DistanceMeters>5033.1084667994</DistanceMeters>
          </Trackpoint>
          <Trackpoint>
            <Time>2019-04-07T13:33:28.000Z</Time>
            <Position>
              <LatitudeDegrees>28.27265921048820018768310546875</LatitudeDegrees>
              <LongitudeDegrees>-16.6141617111861705780029296875</LongitudeDegrees>
            </Position>
            <AltitudeMeters>2749.199951171875</AltitudeMeters>
            <DistanceMeters>5034.3029340774</DistanceMeters>
          </Trackpoint>
          <Trackpoint>
            <Time>2019-04-07T13:33:36.000Z</Time>
            <Position>
              <LatitudeDegrees>28.27259131707251071929931640625</LatitudeDegrees>
              <LongitudeDegrees>-16.614111252129077911376953125</LongitudeDegrees>
            </Position>
            <AltitudeMeters>2749.199951171875</AltitudeMeters>
            <DistanceMeters>5043.3344721811</DistanceMeters>
          </Trackpoint>
          <Trackpoint>
            <Time>2019-04-07T13:33:40.000Z</Time>
            <Position>
              <LatitudeDegrees>28.27255929820239543914794921875</LatitudeDegrees>
              <LongitudeDegrees>-16.614082418382167816162109375</LongitudeDegrees>
            </Position>
            <AltitudeMeters>2750</AltitudeMeters>
            <DistanceMeters>5047.8838606245</DistanceMeters>
          </Trackpoint>
          <Trackpoint>
            <Time>2019-04-07T13:33:44.000Z</Time>
            <Position>
              <LatitudeDegrees>28.272518813610076904296875</LatitudeDegrees>
              <LongitudeDegrees>-16.6140544228255748748779296875</LongitudeDegrees>
            </Position>
            <AltitudeMeters>2750</AltitudeMeters>
            <DistanceMeters>5053.1601970123</DistanceMeters>
          </Trackpoint>
          <Trackpoint>
            <Time>2019-04-07T13:33:52.000Z</Time>
            <Position>
              <LatitudeDegrees>28.27244915999472141265869140625</LatitudeDegrees>
              <LongitudeDegrees>-16.61399583332240581512451171875</LongitudeDegrees>
            </Position>
            <AltitudeMeters>2751</AltitudeMeters>
            <DistanceMeters>5062.8080997888</DistanceMeters>
          </Trackpoint>
          <Trackpoint>
            <Time>2019-04-07T13:33:53.000Z</Time>
            <Position>
              <LatitudeDegrees>28.2724418677389621734619140625</LatitudeDegrees>
              <LongitudeDegrees>-16.61398820579051971435546875</LongitudeDegrees>
            </Position>
            <AltitudeMeters>2751</AltitudeMeters>
            <DistanceMeters>5063.9122104354</DistanceMeters>
          </Trackpoint>
          <Trackpoint>
            <Time>2019-04-07T13:33:59.000Z</Time>
            <Position>
              <LatitudeDegrees>28.27240339480340480804443359375</LatitudeDegrees>
              <LongitudeDegrees>-16.6139444522559642791748046875</LongitudeDegrees>
            </Position>
            <AltitudeMeters>2752</AltitudeMeters>
            <DistanceMeters>5069.9730974145</DistanceMeters>
          </Trackpoint>
          <Trackpoint>
            <Time>2019-04-07T13:34:02.000Z</Time>
            <Position>
              <LatitudeDegrees>28.27237774617969989776611328125</LatitudeDegrees>
              <LongitudeDegrees>-16.613924168050289154052734375</LongitudeDegrees>
            </Position>
            <AltitudeMeters>2752.39990234375</AltitudeMeters>
            <DistanceMeters>5073.4516463124</DistanceMeters>
          </Trackpoint>
          <Trackpoint>
            <Time>2019-04-07T13:34:08.000Z</Time>
            <Position>
              <LatitudeDegrees>28.27233575284481048583984375</LatitudeDegrees>
              <LongitudeDegrees>-16.61387949250638484954833984375</LongitudeDegrees>
            </Position>
            <AltitudeMeters>2753</AltitudeMeters>
            <DistanceMeters>5079.8566160457</DistanceMeters>
          </Trackpoint>
          <Trackpoint>
            <Time>2019-04-07T13:34:09.000Z</Time>
            <Position>
              <LatitudeDegrees>28.27232779003679752349853515625</LatitudeDegrees>
              <LongitudeDegrees>-16.613871194422245025634765625</LongitudeDegrees>
            </Position>
            <AltitudeMeters>2753.199951171875</AltitudeMeters>
            <DistanceMeters>5081.0586194696</DistanceMeters>
          </Trackpoint>
          <Trackpoint>
            <Time>2019-04-07T13:34:14.000Z</Time>
            <Position>
              <LatitudeDegrees>28.27229342423379421234130859375</LatitudeDegrees>
              <LongitudeDegrees>-16.6138244234025478363037109375</LongitudeDegrees>
            </Position>
            <AltitudeMeters>2754.199951171875</AltitudeMeters>
            <DistanceMeters>5087.0294436841</DistanceMeters>
          </Trackpoint>
          <Trackpoint>
            <Time>2019-04-07T13:34:18.000Z</Time>
            <Position>
              <LatitudeDegrees>28.2722681947052478790283203125</LatitudeDegrees>
              <LongitudeDegrees>-16.61378360353410243988037109375</LongitudeDegrees>
            </Position>
            <AltitudeMeters>2754</AltitudeMeters>
            <DistanceMeters>5091.917549889</DistanceMeters>
          </Trackpoint>
          <Trackpoint>
            <Time>2019-04-07T13:34:20.000Z</Time>
            <Position>
              <LatitudeDegrees>28.27225754968822002410888671875</LatitudeDegrees>
              <LongitudeDegrees>-16.61376130767166614532470703125</LongitudeDegrees>
            </Position>
            <AltitudeMeters>2754</AltitudeMeters>
            <DistanceMeters>5094.4028209583</DistanceMeters>
          </Trackpoint>
          <Trackpoint>
            <Time>2019-04-07T13:34:21.000Z</Time>
            <Position>
              <LatitudeDegrees>28.2722531072795391082763671875</LatitudeDegrees>
              <LongitudeDegrees>-16.61375041119754314422607421875</LongitudeDegrees>
            </Position>
            <AltitudeMeters>2754.199951171875</AltitudeMeters>
            <DistanceMeters>5095.5782365001</DistanceMeters>
          </Trackpoint>
          <Trackpoint>
            <Time>2019-04-07T13:34:25.000Z</Time>
            <Position>
              <LatitudeDegrees>28.27224112115800380706787109375</LatitudeDegrees>
              <LongitudeDegrees>-16.61370062269270420074462890625</LongitudeDegrees>
            </Position>
            <AltitudeMeters>2755</AltitudeMeters>
            <DistanceMeters>5100.6370146769</DistanceMeters>
          </Trackpoint>
          <Trackpoint>
            <Time>2019-04-07T13:34:26.000Z</Time>
            <Position>
              <LatitudeDegrees>28.272235505282878875732421875</LatitudeDegrees>
              <LongitudeDegrees>-16.61368872039020061492919921875</LongitudeDegrees>
            </Position>
            <AltitudeMeters>2755.199951171875</AltitudeMeters>
            <DistanceMeters>5101.9571679838</DistanceMeters>
          </Trackpoint>
          <Trackpoint>
            <Time>2019-04-07T13:34:33.000Z</Time>
            <Position>
              <LatitudeDegrees>28.272214047610759735107421875</LatitudeDegrees>
              <LongitudeDegrees>-16.61360330879688262939453125</LongitudeDegrees>
            </Position>
            <AltitudeMeters>2756</AltitudeMeters>
            <DistanceMeters>5110.6639177647</DistanceMeters>
          </Trackpoint>
          <Trackpoint>
            <Time>2019-04-07T13:34:35.000Z</Time>
            <Position>
              <LatitudeDegrees>28.2722105272114276885986328125</LatitudeDegrees>
              <LongitudeDegrees>-16.61357774399220943450927734375</LongitudeDegrees>
            </Position>
            <AltitudeMeters>2756.199951171875</AltitudeMeters>
            <DistanceMeters>5113.2013267787</DistanceMeters>
          </Trackpoint>
          <Trackpoint>
            <Time>2019-04-07T13:34:44.000Z</Time>
            <Position>
              <LatitudeDegrees>28.272191584110260009765625</LatitudeDegrees>
              <LongitudeDegrees>-16.61347397603094577789306640625</LongitudeDegrees>
            </Position>
            <AltitudeMeters>2756.800048828125</AltitudeMeters>
            <DistanceMeters>5123.5897069981</DistanceMeters>
          </Trackpoint>
          <Trackpoint>
            <Time>2019-04-07T13:34:46.000Z</Time>
            <Position>
              <LatitudeDegrees>28.272187896072864532470703125</LatitudeDegrees>
              <LongitudeDegrees>-16.61344966851174831390380859375</LongitudeDegrees>
            </Position>
            <AltitudeMeters>2757.199951171875</AltitudeMeters>
            <DistanceMeters>5126.010558008</DistanceMeters>
          </Trackpoint>
          <Trackpoint>
            <Time>2019-04-07T13:34:52.000Z</Time>
            <Position>
              <LatitudeDegrees>28.2721930928528308868408203125</LatitudeDegrees>
              <LongitudeDegrees>-16.6133966110646724700927734375</LongitudeDegrees>
            </Position>
            <AltitudeMeters>2757.60009765625</AltitudeMeters>
            <DistanceMeters>5131.2439337689</DistanceMeters>
          </Trackpoint>
          <Trackpoint>
            <Time>2019-04-07T13:34:59.000Z</Time>
            <Position>
              <LatitudeDegrees>28.2721956074237823486328125</LatitudeDegrees>
              <LongitudeDegrees>-16.61339401267468929290771484375</LongitudeDegrees>
            </Position>
            <AltitudeMeters>2758.199951171875</AltitudeMeters>
            <DistanceMeters>5131.6119706511</DistanceMeters>
          </Trackpoint>
          <Trackpoint>
            <Time>2019-04-07T13:35:06.000Z</Time>
            <Position>
              <LatitudeDegrees>28.2721984572708606719970703125</LatitudeDegrees>
              <LongitudeDegrees>-16.6133919171988964080810546875</LongitudeDegrees>
            </Position>
            <AltitudeMeters>2757.39990234375</AltitudeMeters>
            <DistanceMeters>5131.9920775085</DistanceMeters>
          </Trackpoint>
          <Trackpoint>
            <Time>2019-04-07T13:35:21.000Z</Time>
            <Position>
              <LatitudeDegrees>28.27220004983246326446533203125</LatitudeDegrees>
              <LongitudeDegrees>-16.61338898353278636932373046875</LongitudeDegrees>
            </Position>
            <AltitudeMeters>2758</AltitudeMeters>
            <DistanceMeters>5132.3212597033</DistanceMeters>
          </Trackpoint>
          <Trackpoint>
            <Time>2019-04-07T13:35:34.000Z</Time>
            <Position>
              <LatitudeDegrees>28.2721877284348011016845703125</LatitudeDegrees>
              <LongitudeDegrees>-16.61338068544864654541015625</LongitudeDegrees>
            </Position>
            <AltitudeMeters>2757.800048828125</AltitudeMeters>
            <DistanceMeters>5133.9141977061</DistanceMeters>
          </Trackpoint>
          <Trackpoint>
            <Time>2019-04-07T13:35:37.000Z</Time>
            <Position>
              <LatitudeDegrees>28.2721706293523311614990234375</LatitudeDegrees>
              <LongitudeDegrees>-16.61335277371108531951904296875</LongitudeDegrees>
            </Position>
            <AltitudeMeters>2758.39990234375</AltitudeMeters>
            <DistanceMeters>5137.2469134194</DistanceMeters>
          </Trackpoint>
          <Trackpoint>
            <Time>2019-04-07T13:35:40.000Z</Time>
            <Position>
              <LatitudeDegrees>28.2721609063446521759033203125</LatitudeDegrees>
              <LongitudeDegrees>-16.613318659365177154541015625</LongitudeDegrees>
            </Position>
            <AltitudeMeters>2758.800048828125</AltitudeMeters>
            <DistanceMeters>5140.7616174717</DistanceMeters>
          </Trackpoint>
          <Trackpoint>
            <Time>2019-04-07T13:35:43.000Z</Time>
            <Position>
              <LatitudeDegrees>28.27214690856635570526123046875</LatitudeDegrees>
              <LongitudeDegrees>-16.61328588612377643585205078125</LongitudeDegrees>
            </Position>
            <AltitudeMeters>2759</AltitudeMeters>
            <DistanceMeters>5144.3323972099</DistanceMeters>
          </Trackpoint>
          <Trackpoint>
            <Time>2019-04-07T13:35:49.000Z</Time>
            <Position>
              <LatitudeDegrees>28.27212863601744174957275390625</LatitudeDegrees>
              <LongitudeDegrees>-16.61322067491710186004638671875</LongitudeDegrees>
            </Position>
            <AltitudeMeters>2759.60009765625</AltitudeMeters>
            <DistanceMeters>5151.0396947912</DistanceMeters>
          </Trackpoint>
          <Trackpoint>
            <Time>2019-04-07T13:35:50.000Z</Time>
            <Position>
              <LatitudeDegrees>28.27212511561810970306396484375</LatitudeDegrees>
              <LongitudeDegrees>-16.61321044899523258209228515625</LongitudeDegrees>
            </Position>
            <AltitudeMeters>2759.800048828125</AltitudeMeters>
            <DistanceMeters>5152.1147993372</DistanceMeters>
          </Trackpoint>
          <Trackpoint>
            <Time>2019-04-07T13:35:57.000Z</Time>
            <Position>
              <LatitudeDegrees>28.27209971845149993896484375</LatitudeDegrees>
              <LongitudeDegrees>-16.61314054392278194427490234375</LongitudeDegrees>
            </Position>
            <AltitudeMeters>2760.800048828125</AltitudeMeters>
            <DistanceMeters>5159.5274921787</DistanceMeters>
          </Trackpoint>
          <Trackpoint>
            <Time>2019-04-07T13:36:06.000Z</Time>
            <Position>
              <LatitudeDegrees>28.2720670290291309356689453125</LatitudeDegrees>
              <LongitudeDegrees>-16.61305437795817852020263671875</LongitudeDegrees>
            </Position>
            <AltitudeMeters>2761.39990234375</AltitudeMeters>
            <DistanceMeters>5168.7239967306</DistanceMeters>
          </Trackpoint>
          <Trackpoint>
            <Time>2019-04-07T13:36:07.000Z</Time>
            <Position>
              <LatitudeDegrees>28.2720640115439891815185546875</LatitudeDegrees>
              <LongitudeDegrees>-16.613044403493404388427734375</LongitudeDegrees>
            </Position>
            <AltitudeMeters>2761.60009765625</AltitudeMeters>
            <DistanceMeters>5169.7518678042</DistanceMeters>
          </Trackpoint>
          <Trackpoint>
            <Time>2019-04-07T13:36:09.000Z</Time>
            <Position>
              <LatitudeDegrees>28.27205554582178592681884765625</LatitudeDegrees>
              <LongitudeDegrees>-16.61302587948739528656005859375</LongitudeDegrees>
            </Position>
            <AltitudeMeters>2761.60009765625</AltitudeMeters>
            <DistanceMeters>5171.7943896075</DistanceMeters>
          </Trackpoint>
          <Trackpoint>
            <Time>2019-04-07T13:36:12.000Z</Time>
            <Position>
              <LatitudeDegrees>28.2720408774912357330322265625</LatitudeDegrees>
              <LongitudeDegrees>-16.61299310624599456787109375</LongitudeDegrees>
            </Position>
            <AltitudeMeters>2761.800048828125</AltitudeMeters>
            <DistanceMeters>5175.3966416601</DistanceMeters>
          </Trackpoint>
          <Trackpoint>
            <Time>2019-04-07T13:36:17.000Z</Time>
            <Position>
              <LatitudeDegrees>28.2720158994197845458984375</LatitudeDegrees>
              <LongitudeDegrees>-16.61294256336987018585205078125</LongitudeDegrees>
            </Position>
            <AltitudeMeters>2762</AltitudeMeters>
            <DistanceMeters>5181.0776180912</DistanceMeters>
          </Trackpoint>
          <Trackpoint>
            <Time>2019-04-07T13:36:18.000Z</Time>
            <Position>
              <LatitudeDegrees>28.27201263047754764556884765625</LatitudeDegrees>
              <LongitudeDegrees>-16.61293183453381061553955078125</LongitudeDegrees>
            </Position>
            <AltitudeMeters>2762</AltitudeMeters>
            <DistanceMeters>5182.1898772664</DistanceMeters>
          </Trackpoint>
          <Trackpoint>
            <Time>2019-04-07T13:36:25.000Z</Time>
            <Position>
              <LatitudeDegrees>28.27198513783514499664306640625</LatitudeDegrees>
              <LongitudeDegrees>-16.61286226473748683929443359375</LongitudeDegrees>
            </Position>
            <AltitudeMeters>2762.800048828125</AltitudeMeters>
            <DistanceMeters>5189.6638355806</DistanceMeters>
          </Trackpoint>
          <Trackpoint>
            <Time>2019-04-07T13:36:33.000Z</Time>
            <Position>
              <LatitudeDegrees>28.2719560526311397552490234375</LatitudeDegrees>
              <LongitudeDegrees>-16.6127709858119487762451171875</LongitudeDegrees>
            </Position>
            <AltitudeMeters>2763.800048828125</AltitudeMeters>
            <DistanceMeters>5199.1788524711</DistanceMeters>
          </Trackpoint>
          <Trackpoint>
            <Time>2019-04-07T13:36:34.000Z</Time>
            <Position>
              <LatitudeDegrees>28.27195093967020511627197265625</LatitudeDegrees>
              <LongitudeDegrees>-16.6127612628042697906494140625</LongitudeDegrees>
            </Position>
            <AltitudeMeters>2763.800048828125</AltitudeMeters>
            <DistanceMeters>5200.2870448715</DistanceMeters>
          </Trackpoint>
          <Trackpoint>
            <Time>2019-04-07T13:36:41.000Z</Time>
            <Position>
              <LatitudeDegrees>28.27191338874399662017822265625</LatitudeDegrees>
              <LongitudeDegrees>-16.61269227974116802215576171875</LongitudeDegrees>
            </Position>
            <AltitudeMeters>2765</AltitudeMeters>
            <DistanceMeters>5208.2364143405</DistanceMeters>
          </Trackpoint>
          <Trackpoint>
            <Time>2019-04-07T13:36:50.000Z</Time>
            <Position>
              <LatitudeDegrees>28.27184113673865795135498046875</LatitudeDegrees>
              <LongitudeDegrees>-16.61262908019125461578369140625</LongitudeDegrees>
            </Position>
            <AltitudeMeters>2765.800048828125</AltitudeMeters>
            <DistanceMeters>5218.3882743896</DistanceMeters>
          </Trackpoint>
          <Trackpoint>
            <Time>2019-04-07T13:36:58.000Z</Time>
            <Position>
              <LatitudeDegrees>28.27176569961011409759521484375</LatitudeDegrees>
              <LongitudeDegrees>-16.612587757408618927001953125</LongitudeDegrees>
            </Position>
            <AltitudeMeters>2766.39990234375</AltitudeMeters>
            <DistanceMeters>5227.7105839584</DistanceMeters>
          </Trackpoint>
          <Trackpoint>
            <Time>2019-04-07T13:37:01.000Z</Time>
            <Position>
              <LatitudeDegrees>28.27174021862447261810302734375</LatitudeDegrees>
              <LongitudeDegrees>-16.61257660947740077972412109375</LongitudeDegrees>
            </Position>
            <AltitudeMeters>2766.800048828125</AltitudeMeters>
            <DistanceMeters>5230.7499536631</DistanceMeters>
          </Trackpoint>
          <Trackpoint>
            <Time>2019-04-07T13:37:06.000Z</Time>
            <Position>
              <LatitudeDegrees>28.2716931961476802825927734375</LatitudeDegrees>
              <LongitudeDegrees>-16.61255716346204280853271484375</LongitudeDegrees>
            </Position>
            <AltitudeMeters>2767.60009765625</AltitudeMeters>
            <DistanceMeters>5236.3217938272</DistanceMeters>
          </Trackpoint>
          <Trackpoint>
            <Time>2019-04-07T13:37:13.000Z</Time>
            <Position>
              <LatitudeDegrees>28.27162899076938629150390625</LatitudeDegrees>
              <LongitudeDegrees>-16.6125272400677204132080078125</LongitudeDegrees>
            </Position>
            <AltitudeMeters>2768</AltitudeMeters>
            <DistanceMeters>5244.0464779723</DistanceMeters>
          </Trackpoint>
          <Trackpoint>
            <Time>2019-04-07T13:37:17.000Z</Time>
            <Position>
              <LatitudeDegrees>28.27158699743449687957763671875</LatitudeDegrees>
              <LongitudeDegrees>-16.61251206882297992706298828125</LongitudeDegrees>
            </Position>
            <AltitudeMeters>2769</AltitudeMeters>
            <DistanceMeters>5248.9502615697</DistanceMeters>
          </Trackpoint>
          <Trackpoint>
            <Time>2019-04-07T13:37:21.000Z</Time>
            <Position>
              <LatitudeDegrees>28.27154316008090972900390625</LatitudeDegrees>
              <LongitudeDegrees>-16.612495891749858856201171875</LongitudeDegrees>
            </Position>
            <AltitudeMeters>2769.39990234375</AltitudeMeters>
            <DistanceMeters>5254.0790638355</DistanceMeters>
          </Trackpoint>
          <Trackpoint>
            <Time>2019-04-07T13:37:29.000Z</Time>
            <Position>
              <LatitudeDegrees>28.2714585028588771820068359375</LatitudeDegrees>
              <LongitudeDegrees>-16.612471751868724822998046875</LongitudeDegrees>
            </Position>
            <AltitudeMeters>2769.800048828125</AltitudeMeters>
            <DistanceMeters>5263.7941221983</DistanceMeters>
          </Trackpoint>
          <Trackpoint>
            <Time>2019-04-07T13:37:36.000Z</Time>
            <Position>
              <LatitudeDegrees>28.27138398773968219757080078125</LatitudeDegrees>
              <LongitudeDegrees>-16.61247619427740573883056640625</LongitudeDegrees>
            </Position>
            <AltitudeMeters>2770.800048828125</AltitudeMeters>
            <DistanceMeters>5272.0995875047</DistanceMeters>
          </Trackpoint>
          <Trackpoint>
            <Time>2019-04-07T13:37:37.000Z</Time>
            <Position>
              <LatitudeDegrees>28.2713736779987812042236328125</LatitudeDegrees>
              <LongitudeDegrees>-16.61247921176254749298095703125</LongitudeDegrees>
            </Position>
            <AltitudeMeters>2771</AltitudeMeters>
            <DistanceMeters>5273.2788380176</DistanceMeters>
          </Trackpoint>
          <Trackpoint>
            <Time>2019-04-07T13:37:45.000Z</Time>
            <Position>
              <LatitudeDegrees>28.2712945528328418731689453125</LatitudeDegrees>
              <LongitudeDegrees>-16.61251575686037540435791015625</LongitudeDegrees>
            </Position>
            <AltitudeMeters>2771.800048828125</AltitudeMeters>
            <DistanceMeters>5282.7862596031</DistanceMeters>
          </Trackpoint>
          <Trackpoint>
            <Time>2019-04-07T13:37:48.000Z</Time>
            <Position>
              <LatitudeDegrees>28.27126546762883663177490234375</LatitudeDegrees>
              <LongitudeDegrees>-16.61253101192414760589599609375</LongitudeDegrees>
            </Position>
            <AltitudeMeters>2772</AltitudeMeters>
            <DistanceMeters>5286.3519779926</DistanceMeters>
          </Trackpoint>
          <Trackpoint>
            <Time>2019-04-07T13:37:54.000Z</Time>
            <Position>
              <LatitudeDegrees>28.27121584676206111907958984375</LatitudeDegrees>
              <LongitudeDegrees>-16.6125721670687198638916015625</LongitudeDegrees>
            </Position>
            <AltitudeMeters>2772.800048828125</AltitudeMeters>
            <DistanceMeters>5293.1912612869</DistanceMeters>
          </Trackpoint>
          <Trackpoint>
            <Time>2019-04-07T13:37:57.000Z</Time>
            <Position>
              <LatitudeDegrees>28.27119103632867336273193359375</LatitudeDegrees>
              <LongitudeDegrees>-16.61259421147406101226806640625</LongitudeDegrees>
            </Position>
            <AltitudeMeters>2773</AltitudeMeters>
            <DistanceMeters>5296.6982491849</DistanceMeters>
          </Trackpoint>
          <Trackpoint>
            <Time>2019-04-07T13:38:02.000Z</Time>
            <Position>
              <LatitudeDegrees>28.271149210631847381591796875</LatitudeDegrees>
              <LongitudeDegrees>-16.612632684409618377685546875</LongitudeDegrees>
            </Position>
            <AltitudeMeters>2773.199951171875</AltitudeMeters>
            <DistanceMeters>5302.6902091264</DistanceMeters>
          </Trackpoint>
          <Trackpoint>
            <Time>2019-04-07T13:38:07.000Z</Time>
            <Position>
              <LatitudeDegrees>28.271106965839862823486328125</LatitudeDegrees>
              <LongitudeDegrees>-16.61267417483031749725341796875</LongitudeDegrees>
            </Position>
            <AltitudeMeters>2774</AltitudeMeters>
            <DistanceMeters>5308.9077453955</DistanceMeters>
          </Trackpoint>
          <Trackpoint>
            <Time>2019-04-07T13:38:12.000Z</Time>
            <Position>
              <LatitudeDegrees>28.2710709236562252044677734375</LatitudeDegrees>
              <LongitudeDegrees>-16.61271926946938037872314453125</LongitudeDegrees>
            </Position>
            <AltitudeMeters>2774.800048828125</AltitudeMeters>
            <DistanceMeters>5314.8770570516</DistanceMeters>
          </Trackpoint>
          <Trackpoint>
            <Time>2019-04-07T13:38:15.000Z</Time>
            <Position>
              <LatitudeDegrees>28.27105005271732807159423828125</LatitudeDegrees>
              <LongitudeDegrees>-16.61274793557822704315185546875</LongitudeDegrees>
            </Position>
            <AltitudeMeters>2775.199951171875</AltitudeMeters>
            <DistanceMeters>5318.5229139502</DistanceMeters>
          </Trackpoint>
          <Trackpoint>
            <Time>2019-04-07T13:38:19.000Z</Time>
            <Position>
              <LatitudeDegrees>28.2710315287113189697265625</LatitudeDegrees>
              <LongitudeDegrees>-16.6127884201705455780029296875</LongitudeDegrees>
            </Position>
            <AltitudeMeters>2776.199951171875</AltitudeMeters>
            <DistanceMeters>5322.9962403859</DistanceMeters>
          </Trackpoint>
          <Trackpoint>
            <Time>2019-04-07T13:38:22.000Z</Time>
            <Position>
              <LatitudeDegrees>28.2710223086178302764892578125</LatitudeDegrees>
              <LongitudeDegrees>-16.6128207743167877197265625</LongitudeDegrees>
            </Position>
            <AltitudeMeters>2776.800048828125</AltitudeMeters>
            <DistanceMeters>5326.3316645237</DistanceMeters>
          </Trackpoint>
          <Trackpoint>
            <Time>2019-04-07T13:38:25.000Z</Time>
            <Position>
              <LatitudeDegrees>28.27101887203752994537353515625</LatitudeDegrees>
              <LongitudeDegrees>-16.61285371519625186920166015625</LongitudeDegrees>
            </Position>
            <AltitudeMeters>2777.199951171875</AltitudeMeters>
            <DistanceMeters>5329.5834670263</DistanceMeters>
          </Trackpoint>
          <Trackpoint>
            <Time>2019-04-07T13:38:30.000Z</Time>
            <Position>
              <LatitudeDegrees>28.2710320316255092620849609375</LatitudeDegrees>
              <LongitudeDegrees>-16.6129097901284694671630859375</LongitudeDegrees>
            </Position>
            <AltitudeMeters>2777.800048828125</AltitudeMeters>
            <DistanceMeters>5335.2723855505</DistanceMeters>
          </Trackpoint>
          <Trackpoint>
            <Time>2019-04-07T13:38:38.000Z</Time>
            <Position>
              <LatitudeDegrees>28.27109263278543949127197265625</LatitudeDegrees>
              <LongitudeDegrees>-16.612978689372539520263671875</LongitudeDegrees>
            </Position>
            <AltitudeMeters>2778</AltitudeMeters>
            <DistanceMeters>5344.8172502034</DistanceMeters>
          </Trackpoint>
          <Trackpoint>
            <Time>2019-04-07T13:38:40.000Z</Time>
            <Position>
              <LatitudeDegrees>28.2711114920675754547119140625</LatitudeDegrees>
              <LongitudeDegrees>-16.61298966966569423675537109375</LongitudeDegrees>
            </Position>
            <AltitudeMeters>2778.39990234375</AltitudeMeters>
            <DistanceMeters>5347.1757512294</DistanceMeters>
          </Trackpoint>
          <Trackpoint>
            <Time>2019-04-07T13:38:46.000Z</Time>
            <Position>
              <LatitudeDegrees>28.2711711712181568145751953125</LatitudeDegrees>
              <LongitudeDegrees>-16.61300945095717906951904296875</LongitudeDegrees>
            </Position>
            <AltitudeMeters>2779</AltitudeMeters>
            <DistanceMeters>5354.0957581212</DistanceMeters>
          </Trackpoint>
          <Trackpoint>
            <Time>2019-04-07T13:38:54.000Z</Time>
            <Position>
              <LatitudeDegrees>28.27124987728893756866455078125</LatitudeDegrees>
              <LongitudeDegrees>-16.6130281426012516021728515625</LongitudeDegrees>
            </Position>
            <AltitudeMeters>2779.199951171875</AltitudeMeters>
            <DistanceMeters>5363.0459429312</DistanceMeters>
          </Trackpoint>
          <Trackpoint>
            <Time>2019-04-07T13:38:55.000Z</Time>
            <Position>
              <LatitudeDegrees>28.2712593488395214080810546875</LatitudeDegrees>
              <LongitudeDegrees>-16.61303208209574222564697265625</LongitudeDegrees>
            </Position>
            <AltitudeMeters>2779.39990234375</AltitudeMeters>
            <DistanceMeters>5364.1703141787</DistanceMeters>
          </Trackpoint>
          <Trackpoint>
            <Time>2019-04-07T13:38:59.000Z</Time>
            <Position>
              <LatitudeDegrees>28.271294720470905303955078125</LatitudeDegrees>
              <LongitudeDegrees>-16.61305345594882965087890625</LongitudeDegrees>
            </Position>
            <AltitudeMeters>2780.199951171875</AltitudeMeters>
            <DistanceMeters>5368.6294876817</DistanceMeters>
          </Trackpoint>
          <Trackpoint>
            <Time>2019-04-07T13:39:02.000Z</Time>
            <Position>
              <LatitudeDegrees>28.2713153399527072906494140625</LatitudeDegrees>
              <LongitudeDegrees>-16.61307650618255138397216796875</LongitudeDegrees>
            </Position>
            <AltitudeMeters>2780.39990234375</AltitudeMeters>
            <DistanceMeters>5371.8491969477</DistanceMeters>
          </Trackpoint>
          <Trackpoint>
            <Time>2019-04-07T13:39:03.000Z</Time>
            <Position>
              <LatitudeDegrees>28.2713223807513713836669921875</LatitudeDegrees>
              <LongitudeDegrees>-16.61308488808572292327880859375</LongitudeDegrees>
            </Position>
            <AltitudeMeters>2780.39990234375</AltitudeMeters>
            <DistanceMeters>5372.9815709385</DistanceMeters>
          </Trackpoint>
          <Trackpoint>
            <Time>2019-04-07T13:39:07.000Z</Time>
            <Position>
              <LatitudeDegrees>28.2713478617370128631591796875</LatitudeDegrees>
              <LongitudeDegrees>-16.61311992444097995758056640625</LongitudeDegrees>
            </Position>
            <AltitudeMeters>2780.39990234375</AltitudeMeters>
            <DistanceMeters>5377.4356789241</DistanceMeters>
          </Trackpoint>
          <Trackpoint>
            <Time>2019-04-07T13:39:14.000Z</Time>
            <Position>
              <LatitudeDegrees>28.271389938890933990478515625</LatitudeDegrees>
              <LongitudeDegrees>-16.61317340098321437835693359375</LongitudeDegrees>
            </Position>
            <AltitudeMeters>2781.199951171875</AltitudeMeters>
            <DistanceMeters>5384.4650870287</DistanceMeters>
          </Trackpoint>
          <Trackpoint>
            <Time>2019-04-07T13:39:16.000Z</Time>
            <Position>
              <LatitudeDegrees>28.27140209265053272247314453125</LatitudeDegrees>
              <LongitudeDegrees>-16.61318865604698657989501953125</LongitudeDegrees>
            </Position>
            <AltitudeMeters>2781.60009765625</AltitudeMeters>
            <DistanceMeters>5386.4809080525</DistanceMeters>
          </Trackpoint>
          <Trackpoint>
            <Time>2019-04-07T13:39:22.000Z</Time>
            <Position>
              <LatitudeDegrees>28.27143545262515544891357421875</LatitudeDegrees>
              <LongitudeDegrees>-16.6132400371134281158447265625</LongitudeDegrees>
            </Position>
            <AltitudeMeters>2782.39990234375</AltitudeMeters>
            <DistanceMeters>5392.7382566492</DistanceMeters>
          </Trackpoint>
          <Trackpoint>
            <Time>2019-04-07T13:39:23.000Z</Time>
            <Position>
              <LatitudeDegrees>28.2714403979480266571044921875</LatitudeDegrees>
              <LongitudeDegrees>-16.61325219087302684783935546875</LongitudeDegrees>
            </Position>
            <AltitudeMeters>2782.60009765625</AltitudeMeters>
            <DistanceMeters>5394.0481095128</DistanceMeters>
          </Trackpoint>
          <Trackpoint>
            <Time>2019-04-07T13:39:30.000Z</Time>
            <Position>
              <LatitudeDegrees>28.2714813016355037689208984375</LatitudeDegrees>
              <LongitudeDegrees>-16.61330415867269039154052734375</LongitudeDegrees>
            </Position>
            <AltitudeMeters>2783.60009765625</AltitudeMeters>
            <DistanceMeters>5400.8801271605</DistanceMeters>
          </Trackpoint>
          <Trackpoint>
            <Time>2019-04-07T13:39:32.000Z</Time>
            <Position>
              <LatitudeDegrees>28.27149429358541965484619140625</LatitudeDegrees>
              <LongitudeDegrees>-16.6133223474025726318359375</LongitudeDegrees>
            </Position>
            <AltitudeMeters>2784</AltitudeMeters>
            <DistanceMeters>5403.1745845184</DistanceMeters>
          </Trackpoint>
          <Trackpoint>
            <Time>2019-04-07T13:39:37.000Z</Time>
            <Position>
              <LatitudeDegrees>28.2715250551700592041015625</LatitudeDegrees>
              <LongitudeDegrees>-16.61336987279355525970458984375</LongitudeDegrees>
            </Position>
            <AltitudeMeters>2784.60009765625</AltitudeMeters>
            <DistanceMeters>5408.9563959123</DistanceMeters>
          </Trackpoint>
          <Trackpoint>
            <Time>2019-04-07T13:39:41.000Z</Time>
            <Position>
              <LatitudeDegrees>28.2715490274131298065185546875</LatitudeDegrees>
              <LongitudeDegrees>-16.6134130395948886871337890625</LongitudeDegrees>
            </Position>
            <AltitudeMeters>2785</AltitudeMeters>
            <DistanceMeters>5413.959532119</DistanceMeters>
          </Trackpoint>
          <Trackpoint>
            <Time>2019-04-07T13:39:47.000Z</Time>
            <Position>
              <LatitudeDegrees>28.2715802080929279327392578125</LatitudeDegrees>
              <LongitudeDegrees>-16.61347364075481891632080078125</LongitudeDegrees>
            </Position>
            <AltitudeMeters>2785.60009765625</AltitudeMeters>
            <DistanceMeters>5420.8396237404</DistanceMeters>
          </Trackpoint>
          <Trackpoint>
            <Time>2019-04-07T13:39:49.000Z</Time>
            <Position>
              <LatitudeDegrees>28.2715882547199726104736328125</LatitudeDegrees>
              <LongitudeDegrees>-16.613498032093048095703125</LongitudeDegrees>
            </Position>
            <AltitudeMeters>2786</AltitudeMeters>
            <DistanceMeters>5423.3929970372</DistanceMeters>
          </Trackpoint>
          <Trackpoint>
            <Time>2019-04-07T13:39:53.000Z</Time>
            <Position>
              <LatitudeDegrees>28.27160418033599853515625</LatitudeDegrees>
              <LongitudeDegrees>-16.6135441325604915618896484375</LongitudeDegrees>
            </Position>
            <AltitudeMeters>2786.800048828125</AltitudeMeters>
            <DistanceMeters>5428.2477369395</DistanceMeters>
          </Trackpoint>
          <Trackpoint>
            <Time>2019-04-07T13:39:58.000Z</Time>
            <Position>
              <LatitudeDegrees>28.27160862274467945098876953125</LatitudeDegrees>
              <LongitudeDegrees>-16.61361076869070529937744140625</LongitudeDegrees>
            </Position>
            <AltitudeMeters>2787.39990234375</AltitudeMeters>
            <DistanceMeters>5434.798379905</DistanceMeters>
          </Trackpoint>
          <Trackpoint>
            <Time>2019-04-07T13:40:03.000Z</Time>
            <Position>
              <LatitudeDegrees>28.2716157473623752593994140625</LatitudeDegrees>
              <LongitudeDegrees>-16.61367036402225494384765625</LongitudeDegrees>
            </Position>
            <AltitudeMeters>2788</AltitudeMeters>
            <DistanceMeters>5440.6938666731</DistanceMeters>
          </Trackpoint>
          <Trackpoint>
            <Time>2019-04-07T13:40:07.000Z</Time>
            <Position>
              <LatitudeDegrees>28.27161633409559726715087890625</LatitudeDegrees>
              <LongitudeDegrees>-16.61371529102325439453125</LongitudeDegrees>
            </Position>
            <AltitudeMeters>2789</AltitudeMeters>
            <DistanceMeters>5445.0980242772</DistanceMeters>
          </Trackpoint>
          <Trackpoint>
            <Time>2019-04-07T13:40:10.000Z</Time>
            <Position>
              <LatitudeDegrees>28.27161583118140697479248046875</LatitudeDegrees>
              <LongitudeDegrees>-16.6137496568262577056884765625</LongitudeDegrees>
            </Position>
            <AltitudeMeters>2789.800048828125</AltitudeMeters>
            <DistanceMeters>5448.4671200149</DistanceMeters>
          </Trackpoint>
          <Trackpoint>
            <Time>2019-04-07T13:40:12.000Z</Time>
            <Position>
              <LatitudeDegrees>28.2716164179146289825439453125</LatitudeDegrees>
              <LongitudeDegrees>-16.61377253942191600799560546875</LongitudeDegrees>
            </Position>
            <AltitudeMeters>2790.199951171875</AltitudeMeters>
            <DistanceMeters>5450.7118433065</DistanceMeters>
          </Trackpoint>
          <Trackpoint>
            <Time>2019-04-07T13:40:20.000Z</Time>
            <Position>
              <LatitudeDegrees>28.2716251350939273834228515625</LatitudeDegrees>
              <LongitudeDegrees>-16.61386675201356410980224609375</LongitudeDegrees>
            </Position>
            <AltitudeMeters>2791.199951171875</AltitudeMeters>
            <DistanceMeters>5459.99824358</DistanceMeters>
          </Trackpoint>
          <Trackpoint>
            <Time>2019-04-07T13:40:26.000Z</Time>
            <Position>
              <LatitudeDegrees>28.27163779176771640777587890625</LatitudeDegrees>
              <LongitudeDegrees>-16.6139357350766658782958984375</LongitudeDegrees>
            </Position>
            <AltitudeMeters>2792.39990234375</AltitudeMeters>
            <DistanceMeters>5466.9058425789</DistanceMeters>
          </Trackpoint>
          <Trackpoint>
            <Time>2019-04-07T13:40:30.000Z</Time>
            <Position>
              <LatitudeDegrees>28.2716445811092853546142578125</LatitudeDegrees>
              <LongitudeDegrees>-16.61398191936314105987548828125</LongitudeDegrees>
            </Position>
            <AltitudeMeters>2792.60009765625</AltitudeMeters>
            <DistanceMeters>5471.496724675</DistanceMeters>
          </Trackpoint>
          <Trackpoint>
            <Time>2019-04-07T13:40:39.000Z</Time>
            <Position>
              <LatitudeDegrees>28.27165237627923488616943359375</LatitudeDegrees>
              <LongitudeDegrees>-16.614089794456958770751953125</LongitudeDegrees>
            </Position>
            <AltitudeMeters>2793</AltitudeMeters>
            <DistanceMeters>5482.1065754256</DistanceMeters>
          </Trackpoint>
          <Trackpoint>
            <Time>2019-04-07T13:40:48.000Z</Time>
            <Position>
              <LatitudeDegrees>28.271638043224811553955078125</LatitudeDegrees>
              <LongitudeDegrees>-16.614197082817554473876953125</LongitudeDegrees>
            </Position>
            <AltitudeMeters>2793</AltitudeMeters>
            <DistanceMeters>5492.7436266073</DistanceMeters>
          </Trackpoint>
          <Trackpoint>
            <Time>2019-04-07T13:40:58.000Z</Time>
            <Position>
              <LatitudeDegrees>28.271612562239170074462890625</LatitudeDegrees>
              <LongitudeDegrees>-16.6143149323761463165283203125</LongitudeDegrees>
            </Position>
            <AltitudeMeters>2793</AltitudeMeters>
            <DistanceMeters>5504.6390584144</DistanceMeters>
          </Trackpoint>
          <Trackpoint>
            <Time>2019-04-07T13:41:03.000Z</Time>
            <Position>
              <LatitudeDegrees>28.2715956307947635650634765625</LatitudeDegrees>
              <LongitudeDegrees>-16.614376790821552276611328125</LongitudeDegrees>
            </Position>
            <AltitudeMeters>2793.60009765625</AltitudeMeters>
            <DistanceMeters>5510.9888057576</DistanceMeters>
          </Trackpoint>
          <Trackpoint>
            <Time>2019-04-07T13:41:07.000Z</Time>
            <Position>
              <LatitudeDegrees>28.27157844789326190948486328125</LatitudeDegrees>
              <LongitudeDegrees>-16.61442347802221775054931640625</LongitudeDegrees>
            </Position>
            <AltitudeMeters>2794</AltitudeMeters>
            <DistanceMeters>5515.948435606</DistanceMeters>
          </Trackpoint>
          <Trackpoint>
            <Time>2019-04-07T13:41:15.000Z</Time>
            <Position>
              <LatitudeDegrees>28.2715463452041149139404296875</LatitudeDegrees>
              <LongitudeDegrees>-16.614518947899341583251953125</LongitudeDegrees>
            </Position>
            <AltitudeMeters>2794.60009765625</AltitudeMeters>
            <DistanceMeters>5525.9655314648</DistanceMeters>
          </Trackpoint>
          <Trackpoint>
            <Time>2019-04-07T13:41:16.000Z</Time>
            <Position>
              <LatitudeDegrees>28.27154274098575115203857421875</LatitudeDegrees>
              <LongitudeDegrees>-16.6145305149257183074951171875</LongitudeDegrees>
            </Position>
            <AltitudeMeters>2794.60009765625</AltitudeMeters>
            <DistanceMeters>5527.1712852985</DistanceMeters>
          </Trackpoint>
          <Trackpoint>
            <Time>2019-04-07T13:41:23.000Z</Time>
            <Position>
              <LatitudeDegrees>28.27152262441813945770263671875</LatitudeDegrees>
              <LongitudeDegrees>-16.61461047828197479248046875</LongitudeDegrees>
            </Position>
            <AltitudeMeters>2795.199951171875</AltitudeMeters>
            <DistanceMeters>5535.3236691602</DistanceMeters>
          </Trackpoint>
          <Trackpoint>
            <Time>2019-04-07T13:41:27.000Z</Time>
            <Position>
              <LatitudeDegrees>28.2715124823153018951416015625</LatitudeDegrees>
              <LongitudeDegrees>-16.61466035060584545135498046875</LongitudeDegrees>
            </Position>
            <AltitudeMeters>2795.60009765625</AltitudeMeters>
            <DistanceMeters>5540.3421234244</DistanceMeters>
          </Trackpoint>
          <Trackpoint>
            <Time>2019-04-07T13:41:31.000Z</Time>
            <Position>
              <LatitudeDegrees>28.2715020887553691864013671875</LatitudeDegrees>
              <LongitudeDegrees>-16.61470762453973293304443359375</LongitudeDegrees>
            </Position>
            <AltitudeMeters>2795.800048828125</AltitudeMeters>
            <DistanceMeters>5545.1181021825</DistanceMeters>
          </Trackpoint>
          <Trackpoint>
            <Time>2019-04-07T13:41:42.000Z</Time>
            <Position>
              <LatitudeDegrees>28.27147099189460277557373046875</LatitudeDegrees>
              <LongitudeDegrees>-16.61483041942119598388671875</LongitudeDegrees>
            </Position>
            <AltitudeMeters>2796.39990234375</AltitudeMeters>
            <DistanceMeters>5557.6428971103</DistanceMeters>
          </Trackpoint>
          <Trackpoint>
            <Time>2019-04-07T13:41:46.000Z</Time>
            <Position>
              <LatitudeDegrees>28.2714615203440189361572265625</LatitudeDegrees>
              <LongitudeDegrees>-16.61487710662186145782470703125</LongitudeDegrees>
            </Position>
            <AltitudeMeters>2796.800048828125</AltitudeMeters>
            <DistanceMeters>5562.3387939018</DistanceMeters>
          </Trackpoint>
          <Trackpoint>
            <Time>2019-04-07T13:41:52.000Z</Time>
            <Position>
              <LatitudeDegrees>28.27144869603216648101806640625</LatitudeDegrees>
              <LongitudeDegrees>-16.6149445809423923492431640625</LongitudeDegrees>
            </Position>
            <AltitudeMeters>2797.199951171875</AltitudeMeters>
            <DistanceMeters>5569.1050696552</DistanceMeters>
          </Trackpoint>
          <Trackpoint>
            <Time>2019-04-07T13:41:58.000Z</Time>
            <Position>
              <LatitudeDegrees>28.2714311778545379638671875</LatitudeDegrees>
              <LongitudeDegrees>-16.61501389928162097930908203125</LongitudeDegrees>
            </Position>
            <AltitudeMeters>2797.800048828125</AltitudeMeters>
            <DistanceMeters>5576.1735498995</DistanceMeters>
          </Trackpoint>
          <Trackpoint>
            <Time>2019-04-07T13:42:02.000Z</Time>
            <Position>
              <LatitudeDegrees>28.27141969464719295501708984375</LatitudeDegrees>
              <LongitudeDegrees>-16.6150615923106670379638671875</LongitudeDegrees>
            </Position>
            <AltitudeMeters>2798.39990234375</AltitudeMeters>
            <DistanceMeters>5581.0208438773</DistanceMeters>
          </Trackpoint>
          <Trackpoint>
            <Time>2019-04-07T13:42:05.000Z</Time>
            <Position>
              <LatitudeDegrees>28.271412737667560577392578125</LatitudeDegrees>
              <LongitudeDegrees>-16.61509788595139980316162109375</LongitudeDegrees>
            </Position>
            <AltitudeMeters>2798.800048828125</AltitudeMeters>
            <DistanceMeters>5584.6617437962</DistanceMeters>
          </Trackpoint>
          <Trackpoint>
            <Time>2019-04-07T13:42:12.000Z</Time>
            <Position>
              <LatitudeDegrees>28.27139873988926410675048828125</LatitudeDegrees>
              <LongitudeDegrees>-16.6151843033730983734130859375</LongitudeDegrees>
            </Position>
            <AltitudeMeters>2799.39990234375</AltitudeMeters>
            <DistanceMeters>5593.2746456294</DistanceMeters>
          </Trackpoint>
          <Trackpoint>
            <Time>2019-04-07T13:42:19.000Z</Time>
            <Position>
              <LatitudeDegrees>28.27137552201747894287109375</LatitudeDegrees>
              <LongitudeDegrees>-16.6152656078338623046875</LongitudeDegrees>
            </Position>
            <AltitudeMeters>2800</AltitudeMeters>
            <DistanceMeters>5601.6531785723</DistanceMeters>
          </Trackpoint>
          <Trackpoint>
            <Time>2019-04-07T13:42:27.000Z</Time>
            <Position>
              <LatitudeDegrees>28.27134727500379085540771484375</LatitudeDegrees>
              <LongitudeDegrees>-16.61535487510263919830322265625</LongitudeDegrees>
            </Position>
            <AltitudeMeters>2800.60009765625</AltitudeMeters>
            <DistanceMeters>5610.9507546971</DistanceMeters>
          </Trackpoint>
          <Trackpoint>
            <Time>2019-04-07T13:42:31.000Z</Time>
            <Position>
              <LatitudeDegrees>28.2713354565203189849853515625</LatitudeDegrees>
              <LongitudeDegrees>-16.6154025681316852569580078125</LongitudeDegrees>
            </Position>
            <AltitudeMeters>2801</AltitudeMeters>
            <DistanceMeters>5615.8082838785</DistanceMeters>
          </Trackpoint>
          <Trackpoint>
            <Time>2019-04-07T13:42:38.000Z</Time>
            <Position>
              <LatitudeDegrees>28.27131106518208980560302734375</LatitudeDegrees>
              <LongitudeDegrees>-16.61548445932567119598388671875</LongitudeDegrees>
            </Position>
            <AltitudeMeters>2802</AltitudeMeters>
            <DistanceMeters>5624.2821948931</DistanceMeters>
          </Trackpoint>
          <Trackpoint>
            <Time>2019-04-07T13:42:39.000Z</Time>
            <Position>
              <LatitudeDegrees>28.27130704186856746673583984375</LatitudeDegrees>
              <LongitudeDegrees>-16.6154967807233333587646484375</LongitudeDegrees>
            </Position>
            <AltitudeMeters>2802.199951171875</AltitudeMeters>
            <DistanceMeters>5625.5676924579</DistanceMeters>
          </Trackpoint>
          <Trackpoint>
            <Time>2019-04-07T13:42:46.000Z</Time>
            <Position>
              <LatitudeDegrees>28.271283991634845733642578125</LatitudeDegrees>
              <LongitudeDegrees>-16.61557741463184356689453125</LongitudeDegrees>
            </Position>
            <AltitudeMeters>2802.39990234375</AltitudeMeters>
            <DistanceMeters>5633.878048927</DistanceMeters>
          </Trackpoint>
          <Trackpoint>
            <Time>2019-04-07T13:42:55.000Z</Time>
            <Position>
              <LatitudeDegrees>28.27125624753534793853759765625</LatitudeDegrees>
              <LongitudeDegrees>-16.6156828589737415313720703125</LongitudeDegrees>
            </Position>
            <AltitudeMeters>2803.199951171875</AltitudeMeters>
            <DistanceMeters>5644.6651507184</DistanceMeters>
          </Trackpoint>
          <Trackpoint>
            <Time>2019-04-07T13:42:56.000Z</Time>
            <Position>
              <LatitudeDegrees>28.27125507406890392303466796875</LatitudeDegrees>
              <LongitudeDegrees>-16.6156947612762451171875</LongitudeDegrees>
            </Position>
            <AltitudeMeters>2803.39990234375</AltitudeMeters>
            <DistanceMeters>5645.8367187358</DistanceMeters>
          </Trackpoint>
          <Trackpoint>
            <Time>2019-04-07T13:43:03.000Z</Time>
            <Position>
              <LatitudeDegrees>28.2712392322719097137451171875</LatitudeDegrees>
              <LongitudeDegrees>-16.61577950231730937957763671875</LongitudeDegrees>
            </Position>
            <AltitudeMeters>2804</AltitudeMeters>
            <DistanceMeters>5654.3287261829</DistanceMeters>
          </Trackpoint>
          <Trackpoint>
            <Time>2019-04-07T13:43:12.000Z</Time>
            <Position>
              <LatitudeDegrees>28.2712358795106410980224609375</LatitudeDegrees>
              <LongitudeDegrees>-16.61588846705853939056396484375</LongitudeDegrees>
            </Position>
            <AltitudeMeters>2804.39990234375</AltitudeMeters>
            <DistanceMeters>5665.0170140295</DistanceMeters>
          </Trackpoint>
          <Trackpoint>
            <Time>2019-04-07T13:43:18.000Z</Time>
            <Position>
              <LatitudeDegrees>28.27123177237808704376220703125</LatitudeDegrees>
              <LongitudeDegrees>-16.615959964692592620849609375</LongitudeDegrees>
            </Position>
            <AltitudeMeters>2805.39990234375</AltitudeMeters>
            <DistanceMeters>5672.040638992</DistanceMeters>
          </Trackpoint>
          <Trackpoint>
            <Time>2019-04-07T13:43:21.000Z</Time>
            <Position>
              <LatitudeDegrees>28.271233700215816497802734375</LatitudeDegrees>
              <LongitudeDegrees>-16.61599609069526195526123046875</LongitudeDegrees>
            </Position>
            <AltitudeMeters>2805.60009765625</AltitudeMeters>
            <DistanceMeters>5675.5860397324</DistanceMeters>
          </Trackpoint>
          <Trackpoint>
            <Time>2019-04-07T13:43:31.000Z</Time>
            <Position>
              <LatitudeDegrees>28.27122657559812068939208984375</LatitudeDegrees>
              <LongitudeDegrees>-16.61611519753932952880859375</LongitudeDegrees>
            </Position>
            <AltitudeMeters>2806.39990234375</AltitudeMeters>
            <DistanceMeters>5687.2886095078</DistanceMeters>
          </Trackpoint>
          <Trackpoint>
            <Time>2019-04-07T13:43:32.000Z</Time>
            <Position>
              <LatitudeDegrees>28.27122590504586696624755859375</LatitudeDegrees>
              <LongitudeDegrees>-16.61612785421311855316162109375</LongitudeDegrees>
            </Position>
            <AltitudeMeters>2806.39990234375</AltitudeMeters>
            <DistanceMeters>5688.5348731831</DistanceMeters>
          </Trackpoint>
          <Trackpoint>
            <Time>2019-04-07T13:43:41.000Z</Time>
            <Position>
              <LatitudeDegrees>28.27122087590396404266357421875</LatitudeDegrees>
              <LongitudeDegrees>-16.616239584982395172119140625</LongitudeDegrees>
            </Position>
            <AltitudeMeters>2807.39990234375</AltitudeMeters>
            <DistanceMeters>5699.5017135739</DistanceMeters>
          </Trackpoint>
          <Trackpoint>
            <Time>2019-04-07T13:43:43.000Z</Time>
            <Position>
              <LatitudeDegrees>28.27121995389461517333984375</LatitudeDegrees>
              <LongitudeDegrees>-16.6162638925015926361083984375</LongitudeDegrees>
            </Position>
            <AltitudeMeters>2807.60009765625</AltitudeMeters>
            <DistanceMeters>5701.8887574018</DistanceMeters>
          </Trackpoint>
          <Trackpoint>
            <Time>2019-04-07T13:43:49.000Z</Time>
            <Position>
              <LatitudeDegrees>28.2712127454578876495361328125</LatitudeDegrees>
              <LongitudeDegrees>-16.6163363121449947357177734375</LongitudeDegrees>
            </Position>
            <AltitudeMeters>2808.199951171875</AltitudeMeters>
            <DistanceMeters>5709.0328453114</DistanceMeters>
          </Trackpoint>
          <Trackpoint>
            <Time>2019-04-07T13:43:51.000Z</Time>
            <Position>
              <LatitudeDegrees>28.27120645903050899505615234375</LatitudeDegrees>
              <LongitudeDegrees>-16.61635969765484333038330078125</LongitudeDegrees>
            </Position>
            <AltitudeMeters>2808.60009765625</AltitudeMeters>
            <DistanceMeters>5711.4293278627</DistanceMeters>
          </Trackpoint>
          <Trackpoint>
            <Time>2019-04-07T13:43:57.000Z</Time>
            <Position>
              <LatitudeDegrees>28.27118567191064357757568359375</LatitudeDegrees>
              <LongitudeDegrees>-16.6164298541843891143798828125</LongitudeDegrees>
            </Position>
            <AltitudeMeters>2809.199951171875</AltitudeMeters>
            <DistanceMeters>5718.6856613545</DistanceMeters>
          </Trackpoint>
          <Trackpoint>
            <Time>2019-04-07T13:44:02.000Z</Time>
            <Position>
              <LatitudeDegrees>28.271158598363399505615234375</LatitudeDegrees>
              <LongitudeDegrees>-16.6164873540401458740234375</LongitudeDegrees>
            </Position>
            <AltitudeMeters>2809.800048828125</AltitudeMeters>
            <DistanceMeters>5725.0772234353</DistanceMeters>
          </Trackpoint>
          <Trackpoint>
            <Time>2019-04-07T13:44:07.000Z</Time>
            <Position>
              <LatitudeDegrees>28.27112263999879360198974609375</LatitudeDegrees>
              <LongitudeDegrees>-16.61653957329690456390380859375</LongitudeDegrees>
            </Position>
            <AltitudeMeters>2810.39990234375</AltitudeMeters>
            <DistanceMeters>5731.5752721772</DistanceMeters>
          </Trackpoint>
          <Trackpoint>
            <Time>2019-04-07T13:44:10.000Z</Time>
            <Position>
              <LatitudeDegrees>28.27110118232667446136474609375</LatitudeDegrees>
              <LongitudeDegrees>-16.61656974814832210540771484375</LongitudeDegrees>
            </Position>
            <AltitudeMeters>2811</AltitudeMeters>
            <DistanceMeters>5735.3775284004</DistanceMeters>
          </Trackpoint>
          <Trackpoint>
            <Time>2019-04-07T13:44:18.000Z</Time>
            <Position>
              <LatitudeDegrees>28.27103798277676105499267578125</LatitudeDegrees>
              <LongitudeDegrees>-16.61664736457169055938720703125</LongitudeDegrees>
            </Position>
            <AltitudeMeters>2811.800048828125</AltitudeMeters>
            <DistanceMeters>5745.7397983734</DistanceMeters>
          </Trackpoint>
          <Trackpoint>
            <Time>2019-04-07T13:44:21.000Z</Time>
            <Position>
              <LatitudeDegrees>28.27101501636207103729248046875</LatitudeDegrees>
              <LongitudeDegrees>-16.61667653359472751617431640625</LongitudeDegrees>
            </Position>
            <AltitudeMeters>2812.199951171875</AltitudeMeters>
            <DistanceMeters>5749.5739820481</DistanceMeters>
          </Trackpoint>
          <Trackpoint>
            <Time>2019-04-07T13:44:29.000Z</Time>
            <Position>
              <LatitudeDegrees>28.2709537446498870849609375</LatitudeDegrees>
              <LongitudeDegrees>-16.61675180308520793914794921875</LongitudeDegrees>
            </Position>
            <AltitudeMeters>2812.60009765625</AltitudeMeters>
            <DistanceMeters>5759.6207822596</DistanceMeters>
          </Trackpoint>
          <Trackpoint>
            <Time>2019-04-07T13:44:38.000Z</Time>
            <Position>
              <LatitudeDegrees>28.2709014415740966796875</LatitudeDegrees>
              <LongitudeDegrees>-16.61684568040072917938232421875</LongitudeDegrees>
            </Position>
            <AltitudeMeters>2813</AltitudeMeters>
            <DistanceMeters>5770.5099481499</DistanceMeters>
          </Trackpoint>
          <Trackpoint>
            <Time>2019-04-07T13:44:45.000Z</Time>
            <Position>
              <LatitudeDegrees>28.2709022797644138336181640625</LatitudeDegrees>
              <LongitudeDegrees>-16.616926230490207672119140625</LongitudeDegrees>
            </Position>
            <AltitudeMeters>2813.199951171875</AltitudeMeters>
            <DistanceMeters>5778.406319332</DistanceMeters>
          </Trackpoint>
          <Trackpoint>
            <Time>2019-04-07T13:44:46.000Z</Time>
            <Position>
              <LatitudeDegrees>28.270907811820507049560546875</LatitudeDegrees>
              <LongitudeDegrees>-16.61693804897367954254150390625</LongitudeDegrees>
            </Position>
            <AltitudeMeters>2813.39990234375</AltitudeMeters>
            <DistanceMeters>5779.7196146532</DistanceMeters>
          </Trackpoint>
          <Trackpoint>
            <Time>2019-04-07T13:44:55.000Z</Time>
            <Position>
              <LatitudeDegrees>28.2709337957203388214111328125</LatitudeDegrees>
              <LongitudeDegrees>-16.61704466678202152252197265625</LongitudeDegrees>
            </Position>
            <AltitudeMeters>2814</AltitudeMeters>
            <DistanceMeters>5790.5634910567</DistanceMeters>
          </Trackpoint>
          <Trackpoint>
            <Time>2019-04-07T13:45:04.000Z</Time>
            <Position>
              <LatitudeDegrees>28.27091954648494720458984375</LatitudeDegrees>
              <LongitudeDegrees>-16.61715262569487094879150390625</LongitudeDegrees>
            </Position>
            <AltitudeMeters>2814.199951171875</AltitudeMeters>
            <DistanceMeters>5801.2644442565</DistanceMeters>
          </Trackpoint>
          <Trackpoint>
            <Time>2019-04-07T13:45:11.000Z</Time>
            <Position>
              <LatitudeDegrees>28.27086883597075939178466796875</LatitudeDegrees>
              <LongitudeDegrees>-16.61722688935697078704833984375</LongitudeDegrees>
            </Position>
            <AltitudeMeters>2814</AltitudeMeters>
            <DistanceMeters>5810.476155734</DistanceMeters>
          </Trackpoint>
          <Trackpoint>
            <Time>2019-04-07T13:45:18.000Z</Time>
            <Position>
              <LatitudeDegrees>28.27079976908862590789794921875</LatitudeDegrees>
              <LongitudeDegrees>-16.61728522740304470062255859375</LongitudeDegrees>
            </Position>
            <AltitudeMeters>2814.39990234375</AltitudeMeters>
            <DistanceMeters>5820.0569034633</DistanceMeters>
          </Trackpoint>
          <Trackpoint>
            <Time>2019-04-07T13:45:19.000Z</Time>
            <Position>
              <LatitudeDegrees>28.270791135728359222412109375</LatitudeDegrees>
              <LongitudeDegrees>-16.617293693125247955322265625</LongitudeDegrees>
            </Position>
            <AltitudeMeters>2814.60009765625</AltitudeMeters>
            <DistanceMeters>5821.3247179635</DistanceMeters>
          </Trackpoint>
          <Trackpoint>
            <Time>2019-04-07T13:45:28.000Z</Time>
            <Position>
              <LatitudeDegrees>28.27073086984455585479736328125</LatitudeDegrees>
              <LongitudeDegrees>-16.61738396622240543365478515625</LongitudeDegrees>
            </Position>
            <AltitudeMeters>2815.60009765625</AltitudeMeters>
            <DistanceMeters>5832.4286210506</DistanceMeters>
          </Trackpoint>
          <Trackpoint>
            <Time>2019-04-07T13:45:29.000Z</Time>
            <Position>
              <LatitudeDegrees>28.270728103816509246826171875</LatitudeDegrees>
              <LongitudeDegrees>-16.61739670671522617340087890625</LongitudeDegrees>
            </Position>
            <AltitudeMeters>2815.60009765625</AltitudeMeters>
            <DistanceMeters>5833.7141186154</DistanceMeters>
          </Trackpoint>
          <Trackpoint>
            <Time>2019-04-07T13:45:37.000Z</Time>
            <Position>
              <LatitudeDegrees>28.270707316696643829345703125</LatitudeDegrees>
              <LongitudeDegrees>-16.6174973733723163604736328125</LongitudeDegrees>
            </Position>
            <AltitudeMeters>2816.39990234375</AltitudeMeters>
            <DistanceMeters>5843.8495095613</DistanceMeters>
          </Trackpoint>
          <Trackpoint>
            <Time>2019-04-07T13:45:40.000Z</Time>
            <Position>
              <LatitudeDegrees>28.27070203609764575958251953125</LatitudeDegrees>
              <LongitudeDegrees>-16.61753450520336627960205078125</LongitudeDegrees>
            </Position>
            <AltitudeMeters>2816.60009765625</AltitudeMeters>
            <DistanceMeters>5847.5372317749</DistanceMeters>
          </Trackpoint>
          <Trackpoint>
            <Time>2019-04-07T13:45:46.000Z</Time>
            <Position>
              <LatitudeDegrees>28.27069767750799655914306640625</LatitudeDegrees>
              <LongitudeDegrees>-16.617600806057453155517578125</LongitudeDegrees>
            </Position>
            <AltitudeMeters>2817</AltitudeMeters>
            <DistanceMeters>5854.0540139192</DistanceMeters>
          </Trackpoint>
          <Trackpoint>
            <Time>2019-04-07T13:45:53.000Z</Time>
            <Position>
              <LatitudeDegrees>28.2707074843347072601318359375</LatitudeDegrees>
              <LongitudeDegrees>-16.61763424985110759735107421875</LongitudeDegrees>
            </Position>
            <AltitudeMeters>2817.60009765625</AltitudeMeters>
            <DistanceMeters>5857.5091204384</DistanceMeters>
          </Trackpoint>
          <Trackpoint>
            <Time>2019-04-07T13:46:00.000Z</Time>
            <Position>
              <LatitudeDegrees>28.27071192674338817596435546875</LatitudeDegrees>
              <LongitudeDegrees>-16.61765922792255878448486328125</LongitudeDegrees>
            </Position>
            <AltitudeMeters>2817.800048828125</AltitudeMeters>
            <DistanceMeters>5860.0070761671</DistanceMeters>
          </Trackpoint>
          <Trackpoint>
            <Time>2019-04-07T13:46:08.000Z</Time>
            <Position>
              <LatitudeDegrees>28.270722068846225738525390625</LatitudeDegrees>
              <LongitudeDegrees>-16.6176693700253963470458984375</LongitudeDegrees>
            </Position>
            <AltitudeMeters>2818</AltitudeMeters>
            <DistanceMeters>5861.509580447</DistanceMeters>
          </Trackpoint>
          <Trackpoint>
            <Time>2019-04-07T13:46:10.000Z</Time>
            <Position>
              <LatitudeDegrees>28.2707289420068264007568359375</LatitudeDegrees>
              <LongitudeDegrees>-16.61768889985978603363037109375</LongitudeDegrees>
            </Position>
            <AltitudeMeters>2818.199951171875</AltitudeMeters>
            <DistanceMeters>5863.5719009858</DistanceMeters>
          </Trackpoint>
          <Trackpoint>
            <Time>2019-04-07T13:46:12.000Z</Time>
            <Position>
              <LatitudeDegrees>28.27073522843420505523681640625</LatitudeDegrees>
              <LongitudeDegrees>-16.61770842969417572021484375</LongitudeDegrees>
            </Position>
            <AltitudeMeters>2818.199951171875</AltitudeMeters>
            <DistanceMeters>5865.6099969513</DistanceMeters>
          </Trackpoint>
          <Trackpoint>
            <Time>2019-04-07T13:46:20.000Z</Time>
            <Position>
              <LatitudeDegrees>28.2707758806645870208740234375</LatitudeDegrees>
              <LongitudeDegrees>-16.617773808538913726806640625</LongitudeDegrees>
            </Position>
            <AltitudeMeters>2818.60009765625</AltitudeMeters>
            <DistanceMeters>5873.4558895785</DistanceMeters>
          </Trackpoint>
          <Trackpoint>
            <Time>2019-04-07T13:46:21.000Z</Time>
            <Position>
              <LatitudeDegrees>28.2707835920155048370361328125</LatitudeDegrees>
              <LongitudeDegrees>-16.61777724511921405792236328125</LongitudeDegrees>
            </Position>
            <AltitudeMeters>2818.800048828125</AltitudeMeters>
            <DistanceMeters>5874.3772077569</DistanceMeters>
          </Trackpoint>
          <Trackpoint>
            <Time>2019-04-07T13:46:24.000Z</Time>
            <Position>
              <LatitudeDegrees>28.270811252295970916748046875</LatitudeDegrees>
              <LongitudeDegrees>-16.61778143607079982757568359375</LongitudeDegrees>
            </Position>
            <AltitudeMeters>2819.199951171875</AltitudeMeters>
            <DistanceMeters>5877.4856127811</DistanceMeters>
          </Trackpoint>
          <Trackpoint>
            <Time>2019-04-07T13:46:27.000Z</Time>
            <Position>
              <LatitudeDegrees>28.27083639800548553466796875</LatitudeDegrees>
              <LongitudeDegrees>-16.6177746467292308807373046875</LongitudeDegrees>
            </Position>
            <AltitudeMeters>2819.60009765625</AltitudeMeters>
            <DistanceMeters>5880.3632124926</DistanceMeters>
          </Trackpoint>
          <Trackpoint>
            <Time>2019-04-07T13:46:29.000Z</Time>
            <Position>
              <LatitudeDegrees>28.2708543352782726287841796875</LatitudeDegrees>
              <LongitudeDegrees>-16.61776869557797908782958984375</LongitudeDegrees>
            </Position>
            <AltitudeMeters>2819.800048828125</AltitudeMeters>
            <DistanceMeters>5882.4451434936</DistanceMeters>
          </Trackpoint>
          <Trackpoint>
            <Time>2019-04-07T13:46:33.000Z</Time>
            <Position>
              <LatitudeDegrees>28.27088928781449794769287109375</LatitudeDegrees>
              <LongitudeDegrees>-16.6177649237215518951416015625</LongitudeDegrees>
            </Position>
            <AltitudeMeters>2821</AltitudeMeters>
            <DistanceMeters>5886.3539654828</DistanceMeters>
          </Trackpoint>
          <Trackpoint>
            <Time>2019-04-07T13:46:36.000Z</Time>
            <Position>
              <LatitudeDegrees>28.27091309241950511932373046875</LatitudeDegrees>
              <LongitudeDegrees>-16.6177694499492645263671875</LongitudeDegrees>
            </Position>
            <AltitudeMeters>2821</AltitudeMeters>
            <DistanceMeters>5889.0417268478</DistanceMeters>
          </Trackpoint>
          <Trackpoint>
            <Time>2019-04-07T13:46:37.000Z</Time>
            <Position>
              <LatitudeDegrees>28.270914852619171142578125</LatitudeDegrees>
              <LongitudeDegrees>-16.6177796758711338043212890625</LongitudeDegrees>
            </Position>
            <AltitudeMeters>2821.199951171875</AltitudeMeters>
            <DistanceMeters>5890.0607748305</DistanceMeters>
          </Trackpoint>
          <Trackpoint>
            <Time>2019-04-07T13:46:41.000Z</Time>
            <Position>
              <LatitudeDegrees>28.2708925567567348480224609375</LatitudeDegrees>
              <LongitudeDegrees>-16.6178177297115325927734375</LongitudeDegrees>
            </Position>
            <AltitudeMeters>2821.60009765625</AltitudeMeters>
            <DistanceMeters>5894.5401531198</DistanceMeters>
          </Trackpoint>
          <Trackpoint>
            <Time>2019-04-07T13:46:43.000Z</Time>
            <Position>
              <LatitudeDegrees>28.2708804868161678314208984375</LatitudeDegrees>
              <LongitudeDegrees>-16.61783692426979541778564453125</LongitudeDegrees>
            </Position>
            <AltitudeMeters>2822</AltitudeMeters>
            <DistanceMeters>5896.8502992576</DistanceMeters>
          </Trackpoint>
          <Trackpoint>
            <Time>2019-04-07T13:46:49.000Z</Time>
            <Position>
              <LatitudeDegrees>28.27086062170565128326416015625</LatitudeDegrees>
              <LongitudeDegrees>-16.61788419820368289947509765625</LongitudeDegrees>
            </Position>
            <AltitudeMeters>2822.60009765625</AltitudeMeters>
            <DistanceMeters>5901.984380786</DistanceMeters>
          </Trackpoint>
          <Trackpoint>
            <Time>2019-04-07T13:46:51.000Z</Time>
            <Position>
              <LatitudeDegrees>28.2708550058305263519287109375</LatitudeDegrees>
              <LongitudeDegrees>-16.61789794452488422393798828125</LongitudeDegrees>
            </Position>
            <AltitudeMeters>2823.199951171875</AltitudeMeters>
            <DistanceMeters>5903.4717841371</DistanceMeters>
          </Trackpoint>
          <Trackpoint>
            <Time>2019-04-07T13:46:57.000Z</Time>
            <Position>
              <LatitudeDegrees>28.27084620483219623565673828125</LatitudeDegrees>
              <LongitudeDegrees>-16.61793532781302928924560546875</LongitudeDegrees>
            </Position>
            <AltitudeMeters>2824.199951171875</AltitudeMeters>
            <DistanceMeters>5907.2645287601</DistanceMeters>
          </Trackpoint>
          <Trackpoint>
            <Time>2019-04-07T13:46:58.000Z</Time>
            <Position>
              <LatitudeDegrees>28.27084436081349849700927734375</LatitudeDegrees>
              <LongitudeDegrees>-16.6179412789642810821533203125</LongitudeDegrees>
            </Position>
            <AltitudeMeters>2824.39990234375</AltitudeMeters>
            <DistanceMeters>5907.8876605977</DistanceMeters>
          </Trackpoint>
          <Trackpoint>
            <Time>2019-04-07T13:47:05.000Z</Time>
            <Position>
              <LatitudeDegrees>28.27083346433937549591064453125</LatitudeDegrees>
              <LongitudeDegrees>-16.617976315319538116455078125</LongitudeDegrees>
            </Position>
            <AltitudeMeters>2825.199951171875</AltitudeMeters>
            <DistanceMeters>5911.5310398495</DistanceMeters>
          </Trackpoint>
          <Trackpoint>
            <Time>2019-04-07T13:47:09.000Z</Time>
            <Position>
              <LatitudeDegrees>28.27083983458578586578369140625</LatitudeDegrees>
              <LongitudeDegrees>-16.617996431887149810791015625</LongitudeDegrees>
            </Position>
            <AltitudeMeters>2825.800048828125</AltitudeMeters>
            <DistanceMeters>5913.6259425088</DistanceMeters>
          </Trackpoint>
          <Trackpoint>
            <Time>2019-04-07T13:47:13.000Z</Time>
            <Position>
              <LatitudeDegrees>28.27086682431399822235107421875</LatitudeDegrees>
              <LongitudeDegrees>-16.61799282766878604888916015625</LongitudeDegrees>
            </Position>
            <AltitudeMeters>2826.39990234375</AltitudeMeters>
            <DistanceMeters>5916.6519130166</DistanceMeters>
          </Trackpoint>
          <Trackpoint>
            <Time>2019-04-07T13:47:14.000Z</Time>
            <Position>
              <LatitudeDegrees>28.2708734460175037384033203125</LatitudeDegrees>
              <LongitudeDegrees>-16.61799701862037181854248046875</LongitudeDegrees>
            </Position>
            <AltitudeMeters>2826.39990234375</AltitudeMeters>
            <DistanceMeters>5917.4965289288</DistanceMeters>
          </Trackpoint>
          <Trackpoint>
            <Time>2019-04-07T13:47:16.000Z</Time>
            <Position>
              <LatitudeDegrees>28.27087755315005779266357421875</LatitudeDegrees>
              <LongitudeDegrees>-16.61801193840801715850830078125</LongitudeDegrees>
            </Position>
            <AltitudeMeters>2826.60009765625</AltitudeMeters>
            <DistanceMeters>5919.0287886572</DistanceMeters>
          </Trackpoint>
          <Trackpoint>
            <Time>2019-04-07T13:47:21.000Z</Time>
            <Position>
              <LatitudeDegrees>28.27087705023586750030517578125</LatitudeDegrees>
              <LongitudeDegrees>-16.61804026924073696136474609375</LongitudeDegrees>
            </Position>
            <AltitudeMeters>2827.60009765625</AltitudeMeters>
            <DistanceMeters>5921.805780786</DistanceMeters>
          </Trackpoint>
          <Trackpoint>
            <Time>2019-04-07T13:47:22.000Z</Time>
            <Position>
              <LatitudeDegrees>28.2708855159580707550048828125</LatitudeDegrees>
              <LongitudeDegrees>-16.6180418618023395538330078125</LongitudeDegrees>
            </Position>
            <AltitudeMeters>2827.60009765625</AltitudeMeters>
            <DistanceMeters>5922.7560479297</DistanceMeters>
          </Trackpoint>
          <Trackpoint>
            <Time>2019-04-07T13:47:28.000Z</Time>
            <Position>
              <LatitudeDegrees>28.27093170024454593658447265625</LatitudeDegrees>
              <LongitudeDegrees>-16.61803808994591236114501953125</LongitudeDegrees>
            </Position>
            <AltitudeMeters>2828.800048828125</AltitudeMeters>
            <DistanceMeters>5927.9103165391</DistanceMeters>
          </Trackpoint>
          <Trackpoint>
            <Time>2019-04-07T13:47:31.000Z</Time>
            <Position>
              <LatitudeDegrees>28.270949386060237884521484375</LatitudeDegrees>
              <LongitudeDegrees>-16.6180485673248767852783203125</LongitudeDegrees>
            </Position>
            <AltitudeMeters>2829.199951171875</AltitudeMeters>
            <DistanceMeters>5930.1307718389</DistanceMeters>
          </Trackpoint>
          <Trackpoint>
            <Time>2019-04-07T13:47:36.000Z</Time>
            <Position>
              <LatitudeDegrees>28.2709498889744281768798828125</LatitudeDegrees>
              <LongitudeDegrees>-16.61808067001402378082275390625</LongitudeDegrees>
            </Position>
            <AltitudeMeters>2829.800048828125</AltitudeMeters>
            <DistanceMeters>5933.278150726</DistanceMeters>
          </Trackpoint>
          <Trackpoint>
            <Time>2019-04-07T13:47:38.000Z</Time>
            <Position>
              <LatitudeDegrees>28.27095936052501201629638671875</LatitudeDegrees>
              <LongitudeDegrees>-16.61808184348046779632568359375</LongitudeDegrees>
            </Position>
            <AltitudeMeters>2830</AltitudeMeters>
            <DistanceMeters>5934.3405816911</DistanceMeters>
          </Trackpoint>
          <Trackpoint>
            <Time>2019-04-07T13:47:45.000Z</Time>
            <Position>
              <LatitudeDegrees>28.2709968276321887969970703125</LatitudeDegrees>
              <LongitudeDegrees>-16.61807379685342311859130859375</LongitudeDegrees>
            </Position>
            <AltitudeMeters>2831</AltitudeMeters>
            <DistanceMeters>5938.5839261773</DistanceMeters>
          </Trackpoint>
          <Trackpoint>
            <Time>2019-04-07T13:47:47.000Z</Time>
            <Position>
              <LatitudeDegrees>28.2709995098412036895751953125</LatitudeDegrees>
              <LongitudeDegrees>-16.61809089593589305877685546875</LongitudeDegrees>
            </Position>
            <AltitudeMeters>2831</AltitudeMeters>
            <DistanceMeters>5940.286469727</DistanceMeters>
          </Trackpoint>
          <Trackpoint>
            <Time>2019-04-07T13:47:55.000Z</Time>
            <Position>
              <LatitudeDegrees>28.27100411988794803619384765625</LatitudeDegrees>
              <LongitudeDegrees>-16.61811654455959796905517578125</LongitudeDegrees>
            </Position>
            <AltitudeMeters>2831.60009765625</AltitudeMeters>
            <DistanceMeters>5942.8539501659</DistanceMeters>
          </Trackpoint>
          <Trackpoint>
            <Time>2019-04-07T13:47:57.000Z</Time>
            <Position>
              <LatitudeDegrees>28.271000683307647705078125</LatitudeDegrees>
              <LongitudeDegrees>-16.618127189576625823974609375</LongitudeDegrees>
            </Position>
            <AltitudeMeters>2831.800048828125</AltitudeMeters>
            <DistanceMeters>5943.9621425663</DistanceMeters>
          </Trackpoint>
          <Trackpoint>
            <Time>2019-04-07T13:48:05.000Z</Time>
            <Position>
              <LatitudeDegrees>28.2710055448114871978759765625</LatitudeDegrees>
              <LongitudeDegrees>-16.61817270331084728240966796875</LongitudeDegrees>
            </Position>
            <AltitudeMeters>2832.60009765625</AltitudeMeters>
            <DistanceMeters>5948.4556101503</DistanceMeters>
          </Trackpoint>
          <Trackpoint>
            <Time>2019-04-07T13:48:09.000Z</Time>
            <Position>
              <LatitudeDegrees>28.27100076712667942047119140625</LatitudeDegrees>
              <LongitudeDegrees>-16.61819919012486934661865234375</LongitudeDegrees>
            </Position>
            <AltitudeMeters>2833</AltitudeMeters>
            <DistanceMeters>5951.1061571643</DistanceMeters>
          </Trackpoint>
          <Trackpoint>
            <Time>2019-04-07T13:48:10.000Z</Time>
            <Position>
              <LatitudeDegrees>28.27099473215639591217041015625</LatitudeDegrees>
              <LongitudeDegrees>-16.6182058118283748626708984375</LongitudeDegrees>
            </Position>
            <AltitudeMeters>2833</AltitudeMeters>
            <DistanceMeters>5952.0420617615</DistanceMeters>
          </Trackpoint>
          <Trackpoint>
            <Time>2019-04-07T13:48:12.000Z</Time>
            <Position>
              <LatitudeDegrees>28.270986266434192657470703125</LatitudeDegrees>
              <LongitudeDegrees>-16.61821964196860790252685546875</LongitudeDegrees>
            </Position>
            <AltitudeMeters>2833.199951171875</AltitudeMeters>
            <DistanceMeters>5953.6934499915</DistanceMeters>
          </Trackpoint>
          <Trackpoint>
            <Time>2019-04-07T13:48:15.000Z</Time>
            <Position>
              <LatitudeDegrees>28.27098785899579524993896484375</LatitudeDegrees>
              <LongitudeDegrees>-16.6182480566203594207763671875</LongitudeDegrees>
            </Position>
            <AltitudeMeters>2834</AltitudeMeters>
            <DistanceMeters>5956.4834187897</DistanceMeters>
          </Trackpoint>
          <Trackpoint>
            <Time>2019-04-07T13:48:19.000Z</Time>
            <Position>
              <LatitudeDegrees>28.27097327448427677154541015625</LatitudeDegrees>
              <LongitudeDegrees>-16.61828133277595043182373046875</LongitudeDegrees>
            </Position>
            <AltitudeMeters>2834.800048828125</AltitudeMeters>
            <DistanceMeters>5960.125558586</DistanceMeters>
          </Trackpoint>
          <Trackpoint>
            <Time>2019-04-07T13:48:23.000Z</Time>
            <Position>
              <LatitudeDegrees>28.270946703851222991943359375</LatitudeDegrees>
              <LongitudeDegrees>-16.618306897580623626708984375</LongitudeDegrees>
            </Position>
            <AltitudeMeters>2835.199951171875</AltitudeMeters>
            <DistanceMeters>5964.0019031531</DistanceMeters>
          </Trackpoint>
          <Trackpoint>
            <Time>2019-04-07T13:48:28.000Z</Time>
            <Position>
              <LatitudeDegrees>28.2709197141230106353759765625</LatitudeDegrees>
              <LongitudeDegrees>-16.61834185011684894561767578125</LongitudeDegrees>
            </Position>
            <AltitudeMeters>2836.199951171875</AltitudeMeters>
            <DistanceMeters>5968.5582334467</DistanceMeters>
          </Trackpoint>
          <Trackpoint>
            <Time>2019-04-07T13:48:34.000Z</Time>
            <Position>
              <LatitudeDegrees>28.270909823477268218994140625</LatitudeDegrees>
              <LongitudeDegrees>-16.6183851845562458038330078125</LongitudeDegrees>
            </Position>
            <AltitudeMeters>2837.199951171875</AltitudeMeters>
            <DistanceMeters>5972.9459575696</DistanceMeters>
          </Trackpoint>
          <Trackpoint>
            <Time>2019-04-07T13:48:37.000Z</Time>
            <Position>
              <LatitudeDegrees>28.270913846790790557861328125</LatitudeDegrees>
              <LongitudeDegrees>-16.61839683540165424346923828125</LongitudeDegrees>
            </Position>
            <AltitudeMeters>2837.60009765625</AltitudeMeters>
            <DistanceMeters>5974.1702911392</DistanceMeters>
          </Trackpoint>
          <Trackpoint>
            <Time>2019-04-07T13:48:41.000Z</Time>
            <Position>
              <LatitudeDegrees>28.2709358073770999908447265625</LatitudeDegrees>
              <LongitudeDegrees>-16.61841309629380702972412109375</LongitudeDegrees>
            </Position>
            <AltitudeMeters>2838.39990234375</AltitudeMeters>
            <DistanceMeters>5977.0899473113</DistanceMeters>
          </Trackpoint>
          <Trackpoint>
            <Time>2019-04-07T13:48:44.000Z</Time>
            <Position>
              <LatitudeDegrees>28.27093991450965404510498046875</LatitudeDegrees>
              <LongitudeDegrees>-16.6184287704527378082275390625</LongitudeDegrees>
            </Position>
            <AltitudeMeters>2839</AltitudeMeters>
            <DistanceMeters>5978.6941828883</DistanceMeters>
          </Trackpoint>
          <Trackpoint>
            <Time>2019-04-07T13:48:50.000Z</Time>
            <Position>
              <LatitudeDegrees>28.27091309241950511932373046875</LatitudeDegrees>
              <LongitudeDegrees>-16.6184565983712673187255859375</LongitudeDegrees>
            </Position>
            <AltitudeMeters>2839.39990234375</AltitudeMeters>
            <DistanceMeters>5982.739241419</DistanceMeters>
          </Trackpoint>
          <Trackpoint>
            <Time>2019-04-07T13:48:52.000Z</Time>
            <Position>
              <LatitudeDegrees>28.27089968137443065643310546875</LatitudeDegrees>
              <LongitudeDegrees>-16.61846305243670940399169921875</LongitudeDegrees>
            </Position>
            <AltitudeMeters>2839.60009765625</AltitudeMeters>
            <DistanceMeters>5984.3574880531</DistanceMeters>
          </Trackpoint>
          <Trackpoint>
            <Time>2019-04-07T13:48:59.000Z</Time>
            <Position>
              <LatitudeDegrees>28.27090269885957241058349609375</LatitudeDegrees>
              <LongitudeDegrees>-16.61849305965006351470947265625</LongitudeDegrees>
            </Position>
            <AltitudeMeters>2840.60009765625</AltitudeMeters>
            <DistanceMeters>5987.3186034218</DistanceMeters>
          </Trackpoint>
          <Trackpoint>
            <Time>2019-04-07T13:49:07.000Z</Time>
            <Position>
              <LatitudeDegrees>28.27093421481549739837646484375</LatitudeDegrees>
              <LongitudeDegrees>-16.61852675490081310272216796875</LongitudeDegrees>
            </Position>
            <AltitudeMeters>2841.60009765625</AltitudeMeters>
            <DistanceMeters>5992.1369357617</DistanceMeters>
          </Trackpoint>
          <Trackpoint>
            <Time>2019-04-07T13:49:10.000Z</Time>
            <Position>
              <LatitudeDegrees>28.27092633582651615142822265625</LatitudeDegrees>
              <LongitudeDegrees>-16.61854184232652187347412109375</LongitudeDegrees>
            </Position>
            <AltitudeMeters>2842</AltitudeMeters>
            <DistanceMeters>5993.8526877603</DistanceMeters>
          </Trackpoint>
          <Trackpoint>
            <Time>2019-04-07T13:49:12.000Z</Time>
            <Position>
              <LatitudeDegrees>28.2709170319139957427978515625</LatitudeDegrees>
              <LongitudeDegrees>-16.61854955367743968963623046875</LongitudeDegrees>
            </Position>
            <AltitudeMeters>2842.39990234375</AltitudeMeters>
            <DistanceMeters>5995.1346682253</DistanceMeters>
          </Trackpoint>
          <Trackpoint>
            <Time>2019-04-07T13:49:15.000Z</Time>
            <Position>
              <LatitudeDegrees>28.27091292478144168853759765625</LatitudeDegrees>
              <LongitudeDegrees>-16.61856849677860736846923828125</LongitudeDegrees>
            </Position>
            <AltitudeMeters>2842.800048828125</AltitudeMeters>
            <DistanceMeters>5997.0470439624</DistanceMeters>
          </Trackpoint>
          <Trackpoint>
            <Time>2019-04-07T13:49:19.000Z</Time>
            <Position>
              <LatitudeDegrees>28.27090135775506496429443359375</LatitudeDegrees>
              <LongitudeDegrees>-16.61859347485005855560302734375</LongitudeDegrees>
            </Position>
            <AltitudeMeters>2843.60009765625</AltitudeMeters>
            <DistanceMeters>5999.8142636546</DistanceMeters>
          </Trackpoint>
          <Trackpoint>
            <Time>2019-04-07T13:49:21.000Z</Time>
            <Position>
              <LatitudeDegrees>28.270893730223178863525390625</LatitudeDegrees>
              <LongitudeDegrees>-16.618597917258739471435546875</LongitudeDegrees>
            </Position>
            <AltitudeMeters>2844</AltitudeMeters>
            <DistanceMeters>6000.7692703147</DistanceMeters>
          </Trackpoint>
          <Trackpoint>
            <Time>2019-04-07T13:49:27.000Z</Time>
            <Position>
              <LatitudeDegrees>28.27091208659112453460693359375</LatitudeDegrees>
              <LongitudeDegrees>-16.618626415729522705078125</LongitudeDegrees>
            </Position>
            <AltitudeMeters>2844.800048828125</AltitudeMeters>
            <DistanceMeters>6004.2295999759</DistanceMeters>
          </Trackpoint>
          <Trackpoint>
            <Time>2019-04-07T13:49:28.000Z</Time>
            <Position>
              <LatitudeDegrees>28.27091376297175884246826171875</LatitudeDegrees>
              <LongitudeDegrees>-16.618630774319171905517578125</LongitudeDegrees>
            </Position>
            <AltitudeMeters>2845</AltitudeMeters>
            <DistanceMeters>6004.6951339002</DistanceMeters>
          </Trackpoint>
          <Trackpoint>
            <Time>2019-04-07T13:49:36.000Z</Time>
            <Position>
              <LatitudeDegrees>28.270929269492626190185546875</LatitudeDegrees>
              <LongitudeDegrees>-16.61867394112050533294677734375</LongitudeDegrees>
            </Position>
            <AltitudeMeters>2846.199951171875</AltitudeMeters>
            <DistanceMeters>6009.2643282207</DistanceMeters>
          </Trackpoint>
          <Trackpoint>
            <Time>2019-04-07T13:49:37.000Z</Time>
            <Position>
              <LatitudeDegrees>28.2709341309964656829833984375</LatitudeDegrees>
              <LongitudeDegrees>-16.6186772100627422332763671875</LongitudeDegrees>
            </Position>
            <AltitudeMeters>2846.39990234375</AltitudeMeters>
            <DistanceMeters>6009.9017867997</DistanceMeters>
          </Trackpoint>
          <Trackpoint>
            <Time>2019-04-07T13:49:43.000Z</Time>
            <Position>
              <LatitudeDegrees>28.27097729779779911041259765625</LatitudeDegrees>
              <LongitudeDegrees>-16.618675030767917633056640625</LongitudeDegrees>
            </Position>
            <AltitudeMeters>2847.199951171875</AltitudeMeters>
            <DistanceMeters>6014.7107394688</DistanceMeters>
          </Trackpoint>
          <Trackpoint>
            <Time>2019-04-07T13:49:50.000Z</Time>
            <Position>
              <LatitudeDegrees>28.27098123729228973388671875</LatitudeDegrees>
              <LongitudeDegrees>-16.61871434189379215240478515625</LongitudeDegrees>
            </Position>
            <AltitudeMeters>2848.199951171875</AltitudeMeters>
            <DistanceMeters>6018.5894128703</DistanceMeters>
          </Trackpoint>
          <Trackpoint>
            <Time>2019-04-07T13:49:51.000Z</Time>
            <Position>
              <LatitudeDegrees>28.270980231463909149169921875</LatitudeDegrees>
              <LongitudeDegrees>-16.61871903575956821441650390625</LongitudeDegrees>
            </Position>
            <AltitudeMeters>2848.199951171875</AltitudeMeters>
            <DistanceMeters>6019.0549467946</DistanceMeters>
          </Trackpoint>
          <Trackpoint>
            <Time>2019-04-07T13:49:57.000Z</Time>
            <Position>
              <LatitudeDegrees>28.2709716819226741790771484375</LatitudeDegrees>
              <LongitudeDegrees>-16.6187492944300174713134765625</LongitudeDegrees>
            </Position>
            <AltitudeMeters>2849.39990234375</AltitudeMeters>
            <DistanceMeters>6022.1691565018</DistanceMeters>
          </Trackpoint>
          <Trackpoint>
            <Time>2019-04-07T13:49:59.000Z</Time>
            <Position>
              <LatitudeDegrees>28.270978890359401702880859375</LatitudeDegrees>
              <LongitudeDegrees>-16.61875541321933269500732421875</LongitudeDegrees>
            </Position>
            <AltitudeMeters>2849.800048828125</AltitudeMeters>
            <DistanceMeters>6023.1658050903</DistanceMeters>
          </Trackpoint>
          <Trackpoint>
            <Time>2019-04-07T13:50:03.000Z</Time>
            <Position>
              <LatitudeDegrees>28.27099674381315708160400390625</LatitudeDegrees>
              <LongitudeDegrees>-16.618764884769916534423828125</LongitudeDegrees>
            </Position>
            <AltitudeMeters>2850.39990234375</AltitudeMeters>
            <DistanceMeters>6025.3596671517</DistanceMeters>
          </Trackpoint>
          <Trackpoint>
            <Time>2019-04-07T13:50:08.000Z</Time>
            <Position>
              <LatitudeDegrees>28.2710162736475467681884765625</LatitudeDegrees>
              <LongitudeDegrees>-16.61876044236123561859130859375</LongitudeDegrees>
            </Position>
            <AltitudeMeters>2851</AltitudeMeters>
            <DistanceMeters>6027.5760519526</DistanceMeters>
          </Trackpoint>
          <Trackpoint>
            <Time>2019-04-07T13:50:12.000Z</Time>
            <Position>
              <LatitudeDegrees>28.27103563584387302398681640625</LatitudeDegrees>
              <LongitudeDegrees>-16.6187670640647411346435546875</LongitudeDegrees>
            </Position>
            <AltitudeMeters>2851.39990234375</AltitudeMeters>
            <DistanceMeters>6029.8268013578</DistanceMeters>
          </Trackpoint>
          <Trackpoint>
            <Time>2019-04-07T13:50:18.000Z</Time>
            <Position>
              <LatitudeDegrees>28.27107385732233524322509765625</LatitudeDegrees>
              <LongitudeDegrees>-16.61875859834253787994384765625</LongitudeDegrees>
            </Position>
            <AltitudeMeters>2852.39990234375</AltitudeMeters>
            <DistanceMeters>6034.1596444114</DistanceMeters>
          </Trackpoint>
          <Trackpoint>
            <Time>2019-04-07T13:50:19.000Z</Time>
            <Position>
              <LatitudeDegrees>28.2710823230445384979248046875</LatitudeDegrees>
              <LongitudeDegrees>-16.618754155933856964111328125</LongitudeDegrees>
            </Position>
            <AltitudeMeters>2852.60009765625</AltitudeMeters>
            <DistanceMeters>6035.1962634816</DistanceMeters>
          </Trackpoint>
          <Trackpoint>
            <Time>2019-04-07T13:50:23.000Z</Time>
            <Position>
              <LatitudeDegrees>28.2711128331720829010009765625</LatitudeDegrees>
              <LongitudeDegrees>-16.6187432594597339630126953125</LongitudeDegrees>
            </Position>
            <AltitudeMeters>2853.60009765625</AltitudeMeters>
            <DistanceMeters>6038.7556450643</DistanceMeters>
          </Trackpoint>
          <Trackpoint>
            <Time>2019-04-07T13:50:26.000Z</Time>
            <Position>
              <LatitudeDegrees>28.2711312733590602874755859375</LatitudeDegrees>
              <LongitudeDegrees>-16.618734039366245269775390625</LongitudeDegrees>
            </Position>
            <AltitudeMeters>2854.199951171875</AltitudeMeters>
            <DistanceMeters>6041.0003683558</DistanceMeters>
          </Trackpoint>
          <Trackpoint>
            <Time>2019-04-07T13:50:29.000Z</Time>
            <Position>
              <LatitudeDegrees>28.27114426530897617340087890625</LatitudeDegrees>
              <LongitudeDegrees>-16.6187154315412044525146484375</LongitudeDegrees>
            </Position>
            <AltitudeMeters>2854.800048828125</AltitudeMeters>
            <DistanceMeters>6043.3280379772</DistanceMeters>
          </Trackpoint>
          <Trackpoint>
            <Time>2019-04-07T13:50:31.000Z</Time>
            <Position>
              <LatitudeDegrees>28.27115264721214771270751953125</LatitudeDegrees>
              <LongitudeDegrees>-16.61869950592517852783203125</LongitudeDegrees>
            </Position>
            <AltitudeMeters>2855.199951171875</AltitudeMeters>
            <DistanceMeters>6045.1460060678</DistanceMeters>
          </Trackpoint>
          <Trackpoint>
            <Time>2019-04-07T13:50:33.000Z</Time>
            <Position>
              <LatitudeDegrees>28.27116538770496845245361328125</LatitudeDegrees>
              <LongitudeDegrees>-16.6186916269361972808837890625</LongitudeDegrees>
            </Position>
            <AltitudeMeters>2855.39990234375</AltitudeMeters>
            <DistanceMeters>6046.7586628868</DistanceMeters>
          </Trackpoint>
          <Trackpoint>
            <Time>2019-04-07T13:50:36.000Z</Time>
            <Position>
              <LatitudeDegrees>28.27118483372032642364501953125</LatitudeDegrees>
              <LongitudeDegrees>-16.6186822392046451568603515625</LongitudeDegrees>
            </Position>
            <AltitudeMeters>2855.800048828125</AltitudeMeters>
            <DistanceMeters>6049.1114138002</DistanceMeters>
          </Trackpoint>
          <Trackpoint>
            <Time>2019-04-07T13:50:41.000Z</Time>
            <Position>
              <LatitudeDegrees>28.27120117843151092529296875</LatitudeDegrees>
              <LongitudeDegrees>-16.6187000088393688201904296875</LongitudeDegrees>
            </Position>
            <AltitudeMeters>2856.39990234375</AltitudeMeters>
            <DistanceMeters>6051.6291734519</DistanceMeters>
          </Trackpoint>
          <Trackpoint>
            <Time>2019-04-07T13:50:44.000Z</Time>
            <Position>
              <LatitudeDegrees>28.271189443767070770263671875</LatitudeDegrees>
              <LongitudeDegrees>-16.61871853284537792205810546875</LongitudeDegrees>
            </Position>
            <AltitudeMeters>2856.800048828125</AltitudeMeters>
            <DistanceMeters>6053.8638171088</DistanceMeters>
          </Trackpoint>
          <Trackpoint>
            <Time>2019-04-07T13:50:48.000Z</Time>
            <Position>
              <LatitudeDegrees>28.27118751592934131622314453125</LatitudeDegrees>
              <LongitudeDegrees>-16.618743427097797393798828125</LongitudeDegrees>
            </Position>
            <AltitudeMeters>2857.39990234375</AltitudeMeters>
            <DistanceMeters>6056.312484248</DistanceMeters>
          </Trackpoint>
          <Trackpoint>
            <Time>2019-04-07T13:50:51.000Z</Time>
            <Position>
              <LatitudeDegrees>28.2712013460695743560791015625</LatitudeDegrees>
              <LongitudeDegrees>-16.6187600232660770416259765625</LongitudeDegrees>
            </Position>
            <AltitudeMeters>2857.800048828125</AltitudeMeters>
            <DistanceMeters>6058.5531811269</DistanceMeters>
          </Trackpoint>
          <Trackpoint>
            <Time>2019-04-07T13:50:54.000Z</Time>
            <Position>
              <LatitudeDegrees>28.27122271992266178131103515625</LatitudeDegrees>
              <LongitudeDegrees>-16.6187591850757598876953125</LongitudeDegrees>
            </Position>
            <AltitudeMeters>2858</AltitudeMeters>
            <DistanceMeters>6060.9345437634</DistanceMeters>
          </Trackpoint>
          <Trackpoint>
            <Time>2019-04-07T13:50:59.000Z</Time>
            <Position>
              <LatitudeDegrees>28.271256498992443084716796875</LatitudeDegrees>
              <LongitudeDegrees>-16.618757508695125579833984375</LongitudeDegrees>
            </Position>
            <AltitudeMeters>2858.800048828125</AltitudeMeters>
            <DistanceMeters>6064.6986093766</DistanceMeters>
          </Trackpoint>
          <Trackpoint>
            <Time>2019-04-07T13:51:03.000Z</Time>
            <Position>
              <LatitudeDegrees>28.2712724246084690093994140625</LatitudeDegrees>
              <LongitudeDegrees>-16.618767566978931427001953125</LongitudeDegrees>
            </Position>
            <AltitudeMeters>2859.60009765625</AltitudeMeters>
            <DistanceMeters>6066.7300485057</DistanceMeters>
          </Trackpoint>
          <Trackpoint>
            <Time>2019-04-07T13:51:05.000Z</Time>
            <Position>
              <LatitudeDegrees>28.27127250842750072479248046875</LatitudeDegrees>
              <LongitudeDegrees>-16.61878357641398906707763671875</LongitudeDegrees>
            </Position>
            <AltitudeMeters>2859.800048828125</AltitudeMeters>
            <DistanceMeters>6068.3030205161</DistanceMeters>
          </Trackpoint>
          <Trackpoint>
            <Time>2019-04-07T13:51:11.000Z</Time>
            <Position>
              <LatitudeDegrees>28.27126479707658290863037109375</LatitudeDegrees>
              <LongitudeDegrees>-16.6188210435211658477783203125</LongitudeDegrees>
            </Position>
            <AltitudeMeters>2860.39990234375</AltitudeMeters>
            <DistanceMeters>6072.0754733622</DistanceMeters>
          </Trackpoint>
          <Trackpoint>
            <Time>2019-04-07T13:51:17.000Z</Time>
            <Position>
              <LatitudeDegrees>28.27125725336372852325439453125</LatitudeDegrees>
              <LongitudeDegrees>-16.6188431717455387115478515625</LongitudeDegrees>
            </Position>
            <AltitudeMeters>2861</AltitudeMeters>
            <DistanceMeters>6074.40120245</DistanceMeters>
          </Trackpoint>
          <Trackpoint>
            <Time>2019-04-07T13:51:18.000Z</Time>
            <Position>
              <LatitudeDegrees>28.27125390060245990753173828125</LatitudeDegrees>
              <LongitudeDegrees>-16.6188461892306804656982421875</LongitudeDegrees>
            </Position>
            <AltitudeMeters>2861</AltitudeMeters>
            <DistanceMeters>6074.8667363742</DistanceMeters>
          </Trackpoint>
          <Trackpoint>
            <Time>2019-04-07T13:51:27.000Z</Time>
            <Position>
              <LatitudeDegrees>28.27126077376306056976318359375</LatitudeDegrees>
              <LongitudeDegrees>-16.618860103189945220947265625</LongitudeDegrees>
            </Position>
            <AltitudeMeters>2861.60009765625</AltitudeMeters>
            <DistanceMeters>6076.4310735234</DistanceMeters>
          </Trackpoint>
          <Trackpoint>
            <Time>2019-04-07T13:51:34.000Z</Time>
            <Position>
              <LatitudeDegrees>28.27124400995671749114990234375</LatitudeDegrees>
              <LongitudeDegrees>-16.618890278041362762451171875</LongitudeDegrees>
            </Position>
            <AltitudeMeters>2862</AltitudeMeters>
            <DistanceMeters>6079.9277467288</DistanceMeters>
          </Trackpoint>
          <Trackpoint>
            <Time>2019-04-07T13:51:37.000Z</Time>
            <Position>
              <LatitudeDegrees>28.27124602161347866058349609375</LatitudeDegrees>
              <LongitudeDegrees>-16.61890201270580291748046875</LongitudeDegrees>
            </Position>
            <AltitudeMeters>2862.39990234375</AltitudeMeters>
            <DistanceMeters>6081.0993147462</DistanceMeters>
          </Trackpoint>
          <Trackpoint>
            <Time>2019-04-07T13:51:41.000Z</Time>
            <Position>
              <LatitudeDegrees>28.27125071547925472259521484375</LatitudeDegrees>
              <LongitudeDegrees>-16.61891634576022624969482421875</LongitudeDegrees>
            </Position>
            <AltitudeMeters>2863</AltitudeMeters>
            <DistanceMeters>6082.5988110065</DistanceMeters>
          </Trackpoint>
          <Trackpoint>
            <Time>2019-04-07T13:51:44.000Z</Time>
            <Position>
              <LatitudeDegrees>28.2712353765964508056640625</LatitudeDegrees>
              <LongitudeDegrees>-16.618933193385601043701171875</LongitudeDegrees>
            </Position>
            <AltitudeMeters>2863.39990234375</AltitudeMeters>
            <DistanceMeters>6084.9725775706</DistanceMeters>
          </Trackpoint>
          <Trackpoint>
            <Time>2019-04-07T13:51:47.000Z</Time>
            <Position>
              <LatitudeDegrees>28.2712174393236637115478515625</LatitudeDegrees>
              <LongitudeDegrees>-16.618943251669406890869140625</LongitudeDegrees>
            </Position>
            <AltitudeMeters>2863.800048828125</AltitudeMeters>
            <DistanceMeters>6087.197095921</DistanceMeters>
          </Trackpoint>
          <Trackpoint>
            <Time>2019-04-07T13:51:52.000Z</Time>
            <Position>
              <LatitudeDegrees>28.27120796777307987213134765625</LatitudeDegrees>
              <LongitudeDegrees>-16.61897443234920501708984375</LongitudeDegrees>
            </Position>
            <AltitudeMeters>2864.60009765625</AltitudeMeters>
            <DistanceMeters>6090.4307979052</DistanceMeters>
          </Trackpoint>
          <Trackpoint>
            <Time>2019-04-07T13:51:53.000Z</Time>
            <Position>
              <LatitudeDegrees>28.27120679430663585662841796875</LatitudeDegrees>
              <LongitudeDegrees>-16.618980467319488525390625</LongitudeDegrees>
            </Position>
            <AltitudeMeters>2864.800048828125</AltitudeMeters>
            <DistanceMeters>6091.0392657631</DistanceMeters>
          </Trackpoint>
          <Trackpoint>
            <Time>2019-04-07T13:52:00.000Z</Time>
            <Position>
              <LatitudeDegrees>28.2711956463754177093505859375</LatitudeDegrees>
              <LongitudeDegrees>-16.61902061663568019866943359375</LongitudeDegrees>
            </Position>
            <AltitudeMeters>2866</AltitudeMeters>
            <DistanceMeters>6095.1660955601</DistanceMeters>
          </Trackpoint>
          <Trackpoint>
            <Time>2019-04-07T13:52:02.000Z</Time>
            <Position>
              <LatitudeDegrees>28.27118776738643646240234375</LatitudeDegrees>
              <LongitudeDegrees>-16.6190315969288349151611328125</LongitudeDegrees>
            </Position>
            <AltitudeMeters>2866.199951171875</AltitudeMeters>
            <DistanceMeters>6096.5562165473</DistanceMeters>
          </Trackpoint>
          <Trackpoint>
            <Time>2019-04-07T13:52:07.000Z</Time>
            <Position>
              <LatitudeDegrees>28.271174021065235137939453125</LatitudeDegrees>
              <LongitudeDegrees>-16.6190587542951107025146484375</LongitudeDegrees>
            </Position>
            <AltitudeMeters>2867.199951171875</AltitudeMeters>
            <DistanceMeters>6099.6251528013</DistanceMeters>
          </Trackpoint>
          <Trackpoint>
            <Time>2019-04-07T13:52:11.000Z</Time>
            <Position>
              <LatitudeDegrees>28.27117142267525196075439453125</LatitudeDegrees>
              <LongitudeDegrees>-16.6190808825194835662841796875</LongitudeDegrees>
            </Position>
            <AltitudeMeters>2867.60009765625</AltitudeMeters>
            <DistanceMeters>6101.8128320546</DistanceMeters>
          </Trackpoint>
          <Trackpoint>
            <Time>2019-04-07T13:52:14.000Z</Time>
            <Position>
              <LatitudeDegrees>28.27116823755204677581787109375</LatitudeDegrees>
              <LongitudeDegrees>-16.6190942935645580291748046875</LongitudeDegrees>
            </Position>
            <AltitudeMeters>2868.199951171875</AltitudeMeters>
            <DistanceMeters>6103.1767219869</DistanceMeters>
          </Trackpoint>
          <Trackpoint>
            <Time>2019-04-07T13:52:18.000Z</Time>
            <Position>
              <LatitudeDegrees>28.271168656647205352783203125</LatitudeDegrees>
              <LongitudeDegrees>-16.6191140748560428619384765625</LongitudeDegrees>
            </Position>
            <AltitudeMeters>2869.39990234375</AltitudeMeters>
            <DistanceMeters>6105.1172224062</DistanceMeters>
          </Trackpoint>
          <Trackpoint>
            <Time>2019-04-07T13:52:22.000Z</Time>
            <Position>
              <LatitudeDegrees>28.27118240296840667724609375</LatitudeDegrees>
              <LongitudeDegrees>-16.619124300777912139892578125</LongitudeDegrees>
            </Position>
            <AltitudeMeters>2869.60009765625</AltitudeMeters>
            <DistanceMeters>6106.9450977532</DistanceMeters>
          </Trackpoint>
          <Trackpoint>
            <Time>2019-04-07T13:52:29.000Z</Time>
            <Position>
              <LatitudeDegrees>28.27118986286222934722900390625</LatitudeDegrees>
              <LongitudeDegrees>-16.6191561520099639892578125</LongitudeDegrees>
            </Position>
            <AltitudeMeters>2870.39990234375</AltitudeMeters>
            <DistanceMeters>6110.1760060418</DistanceMeters>
          </Trackpoint>
          <Trackpoint>
            <Time>2019-04-07T13:52:30.000Z</Time>
            <Position>
              <LatitudeDegrees>28.27119220979511737823486328125</LatitudeDegrees>
              <LongitudeDegrees>-16.6191610135138034820556640625</LongitudeDegrees>
            </Position>
            <AltitudeMeters>2870.39990234375</AltitudeMeters>
            <DistanceMeters>6110.7135583148</DistanceMeters>
          </Trackpoint>
          <Trackpoint>
            <Time>2019-04-07T13:52:38.000Z</Time>
            <Position>
              <LatitudeDegrees>28.27121919952332973480224609375</LatitudeDegrees>
              <LongitudeDegrees>-16.61917584948241710662841796875</LongitudeDegrees>
            </Position>
            <AltitudeMeters>2871.39990234375</AltitudeMeters>
            <DistanceMeters>6114.0503358404</DistanceMeters>
          </Trackpoint>
          <Trackpoint>
            <Time>2019-04-07T13:52:39.000Z</Time>
            <Position>
              <LatitudeDegrees>28.2712234742939472198486328125</LatitudeDegrees>
              <LongitudeDegrees>-16.61917023360729217529296875</LongitudeDegrees>
            </Position>
            <AltitudeMeters>2871.60009765625</AltitudeMeters>
            <DistanceMeters>6114.7677718008</DistanceMeters>
          </Trackpoint>
          <Trackpoint>
            <Time>2019-04-07T13:52:44.000Z</Time>
            <Position>
              <LatitudeDegrees>28.271252810955047607421875</LatitudeDegrees>
              <LongitudeDegrees>-16.6191368736326694488525390625</LongitudeDegrees>
            </Position>
            <AltitudeMeters>2872.39990234375</AltitudeMeters>
            <DistanceMeters>6119.3880640766</DistanceMeters>
          </Trackpoint>
          <Trackpoint>
            <Time>2019-04-07T13:52:48.000Z</Time>
            <Position>
              <LatitudeDegrees>28.271276615560054779052734375</LatitudeDegrees>
              <LongitudeDegrees>-16.61911122500896453857421875</LongitudeDegrees>
            </Position>
            <AltitudeMeters>2873</AltitudeMeters>
            <DistanceMeters>6123.0401077384</DistanceMeters>
          </Trackpoint>
          <Trackpoint>
            <Time>2019-04-07T13:52:54.000Z</Time>
            <Position>
              <LatitudeDegrees>28.2713217101991176605224609375</LatitudeDegrees>
              <LongitudeDegrees>-16.61909504793584346771240234375</LongitudeDegrees>
            </Position>
            <AltitudeMeters>2873.39990234375</AltitudeMeters>
            <DistanceMeters>6128.3035927559</DistanceMeters>
          </Trackpoint>
          <Trackpoint>
            <Time>2019-04-07T13:52:57.000Z</Time>
            <Position>
              <LatitudeDegrees>28.27133520506322383880615234375</LatitudeDegrees>
              <LongitudeDegrees>-16.61910762079060077667236328125</LongitudeDegrees>
            </Position>
            <AltitudeMeters>2873.800048828125</AltitudeMeters>
            <DistanceMeters>6130.246418521</DistanceMeters>
          </Trackpoint>
          <Trackpoint>
            <Time>2019-04-07T13:53:04.000Z</Time>
            <Position>
              <LatitudeDegrees>28.27131911180913448333740234375</LatitudeDegrees>
              <LongitudeDegrees>-16.61915145814418792724609375</LongitudeDegrees>
            </Position>
            <AltitudeMeters>2874.60009765625</AltitudeMeters>
            <DistanceMeters>6134.9017577638</DistanceMeters>
          </Trackpoint>
          <Trackpoint>
            <Time>2019-04-07T13:53:06.000Z</Time>
            <Position>
              <LatitudeDegrees>28.2713131606578826904296875</LatitudeDegrees>
              <LongitudeDegrees>-16.6191670484840869903564453125</LongitudeDegrees>
            </Position>
            <AltitudeMeters>2874.800048828125</AltitudeMeters>
            <DistanceMeters>6136.5667603069</DistanceMeters>
          </Trackpoint>
          <Trackpoint>
            <Time>2019-04-07T13:53:13.000Z</Time>
            <Position>
              <LatitudeDegrees>28.271292708814144134521484375</LatitudeDegrees>
              <LongitudeDegrees>-16.61921893246471881866455078125</LongitudeDegrees>
            </Position>
            <AltitudeMeters>2875.60009765625</AltitudeMeters>
            <DistanceMeters>6142.1402208986</DistanceMeters>
          </Trackpoint>
          <Trackpoint>
            <Time>2019-04-07T13:53:14.000Z</Time>
            <Position>
              <LatitudeDegrees>28.27128759585320949554443359375</LatitudeDegrees>
              <LongitudeDegrees>-16.6192250512540340423583984375</LongitudeDegrees>
            </Position>
            <AltitudeMeters>2875.60009765625</AltitudeMeters>
            <DistanceMeters>6142.9686445883</DistanceMeters>
          </Trackpoint>
          <Trackpoint>
            <Time>2019-04-07T13:53:20.000Z</Time>
            <Position>
              <LatitudeDegrees>28.2712997496128082275390625</LatitudeDegrees>
              <LongitudeDegrees>-16.619260422885417938232421875</LongitudeDegrees>
            </Position>
            <AltitudeMeters>2876.60009765625</AltitudeMeters>
            <DistanceMeters>6146.6892772211</DistanceMeters>
          </Trackpoint>
          <Trackpoint>
            <Time>2019-04-07T13:53:21.000Z</Time>
            <Position>
              <LatitudeDegrees>28.27130804769694805145263671875</LatitudeDegrees>
              <LongitudeDegrees>-16.61925815977156162261962890625</LongitudeDegrees>
            </Position>
            <AltitudeMeters>2876.800048828125</AltitudeMeters>
            <DistanceMeters>6147.6395443648</DistanceMeters>
          </Trackpoint>
          <Trackpoint>
            <Time>2019-04-07T13:53:28.000Z</Time>
            <Position>
              <LatitudeDegrees>28.27136085368692874908447265625</LatitudeDegrees>
              <LongitudeDegrees>-16.61921842955052852630615234375</LongitudeDegrees>
            </Position>
            <AltitudeMeters>2877.39990234375</AltitudeMeters>
            <DistanceMeters>6154.6894763324</DistanceMeters>
          </Trackpoint>
          <Trackpoint>
            <Time>2019-04-07T13:53:31.000Z</Time>
            <Position>
              <LatitudeDegrees>28.27138566412031650543212890625</LatitudeDegrees>
              <LongitudeDegrees>-16.6192071139812469482421875</LongitudeDegrees>
            </Position>
            <AltitudeMeters>2877.800048828125</AltitudeMeters>
            <DistanceMeters>6157.6658004061</DistanceMeters>
          </Trackpoint>
          <Trackpoint>
            <Time>2019-04-07T13:53:34.000Z</Time>
            <Position>
              <LatitudeDegrees>28.2714092172682285308837890625</LatitudeDegrees>
              <LongitudeDegrees>-16.6192012466490268707275390625</LongitudeDegrees>
            </Position>
            <AltitudeMeters>2878.199951171875</AltitudeMeters>
            <DistanceMeters>6160.3501999669</DistanceMeters>
          </Trackpoint>
          <Trackpoint>
            <Time>2019-04-07T13:53:41.000Z</Time>
            <Position>
              <LatitudeDegrees>28.27145590446889400482177734375</LatitudeDegrees>
              <LongitudeDegrees>-16.61916562356054782867431640625</LongitudeDegrees>
            </Position>
            <AltitudeMeters>2878.800048828125</AltitudeMeters>
            <DistanceMeters>6166.6111553128</DistanceMeters>
          </Trackpoint>
          <Trackpoint>
            <Time>2019-04-07T13:53:48.000Z</Time>
            <Position>
              <LatitudeDegrees>28.27149496413767337799072265625</LatitudeDegrees>
              <LongitudeDegrees>-16.6191673837602138519287109375</LongitudeDegrees>
            </Position>
            <AltitudeMeters>2879.800048828125</AltitudeMeters>
            <DistanceMeters>6170.9627148382</DistanceMeters>
          </Trackpoint>
          <Trackpoint>
            <Time>2019-04-07T13:53:50.000Z</Time>
            <Position>
              <LatitudeDegrees>28.2714947126805782318115234375</LatitudeDegrees>
              <LongitudeDegrees>-16.619171909987926483154296875</LongitudeDegrees>
            </Position>
            <AltitudeMeters>2879.60009765625</AltitudeMeters>
            <DistanceMeters>6171.4184469506</DistanceMeters>
          </Trackpoint>
          <Trackpoint>
            <Time>2019-04-07T13:53:54.000Z</Time>
            <Position>
              <LatitudeDegrees>28.27149479649960994720458984375</LatitudeDegrees>
              <LongitudeDegrees>-16.61917082034051418304443359375</LongitudeDegrees>
            </Position>
            <AltitudeMeters>2880</AltitudeMeters>
            <DistanceMeters>6171.5528350188</DistanceMeters>
          </Trackpoint>
          <Trackpoint>
            <Time>2019-04-07T13:54:09.000Z</Time>
            <Position>
              <LatitudeDegrees>28.271494209766387939453125</LatitudeDegrees>
              <LongitudeDegrees>-16.61918171681463718414306640625</LongitudeDegrees>
            </Position>
            <AltitudeMeters>2880.39990234375</AltitudeMeters>
            <DistanceMeters>6172.6237317031</DistanceMeters>
          </Trackpoint>
          <Trackpoint>
            <Time>2019-04-07T13:54:13.000Z</Time>
            <Position>
              <LatitudeDegrees>28.27147954143583774566650390625</LatitudeDegrees>
              <LongitudeDegrees>-16.61921071819961071014404296875</LongitudeDegrees>
            </Position>
            <AltitudeMeters>2880.800048828125</AltitudeMeters>
            <DistanceMeters>6175.9018090311</DistanceMeters>
          </Trackpoint>
          <Trackpoint>
            <Time>2019-04-07T13:54:18.000Z</Time>
            <Position>
              <LatitudeDegrees>28.27146277762949466705322265625</LatitudeDegrees>
              <LongitudeDegrees>-16.6192481853067874908447265625</LongitudeDegrees>
            </Position>
            <AltitudeMeters>2881.800048828125</AltitudeMeters>
            <DistanceMeters>6180.0220691824</DistanceMeters>
          </Trackpoint>
          <Trackpoint>
            <Time>2019-04-07T13:54:27.000Z</Time>
            <Position>
              <LatitudeDegrees>28.27142019756138324737548828125</LatitudeDegrees>
              <LongitudeDegrees>-16.61930660717189311981201171875</LongitudeDegrees>
            </Position>
            <AltitudeMeters>2883.199951171875</AltitudeMeters>
            <DistanceMeters>6187.4554424248</DistanceMeters>
          </Trackpoint>
          <Trackpoint>
            <Time>2019-04-07T13:54:28.000Z</Time>
            <Position>
              <LatitudeDegrees>28.27141466550529003143310546875</LatitudeDegrees>
              <LongitudeDegrees>-16.61931247450411319732666015625</LongitudeDegrees>
            </Position>
            <AltitudeMeters>2883.60009765625</AltitudeMeters>
            <DistanceMeters>6188.2892984592</DistanceMeters>
          </Trackpoint>
          <Trackpoint>
            <Time>2019-04-07T13:54:31.000Z</Time>
            <Position>
              <LatitudeDegrees>28.27139941044151782989501953125</LatitudeDegrees>
              <LongitudeDegrees>-16.61932923831045627593994140625</LongitudeDegrees>
            </Position>
            <AltitudeMeters>2884.199951171875</AltitudeMeters>
            <DistanceMeters>6190.6516251179</DistanceMeters>
          </Trackpoint>
          <Trackpoint>
            <Time>2019-04-07T13:54:36.000Z</Time>
            <Position>
              <LatitudeDegrees>28.2713936269283294677734375</LatitudeDegrees>
              <LongitudeDegrees>-16.61935991607606410980224609375</LongitudeDegrees>
            </Position>
            <AltitudeMeters>2885.39990234375</AltitudeMeters>
            <DistanceMeters>6193.7264405655</DistanceMeters>
          </Trackpoint>
          <Trackpoint>
            <Time>2019-04-07T13:54:42.000Z</Time>
            <Position>
              <LatitudeDegrees>28.2713855803012847900390625</LatitudeDegrees>
              <LongitudeDegrees>-16.61940098740160465240478515625</LongitudeDegrees>
            </Position>
            <AltitudeMeters>2886.60009765625</AltitudeMeters>
            <DistanceMeters>6197.849986848</DistanceMeters>
          </Trackpoint>
          <Trackpoint>
            <Time>2019-04-07T13:54:43.000Z</Time>
            <Position>
              <LatitudeDegrees>28.27138180844485759735107421875</LatitudeDegrees>
              <LongitudeDegrees>-16.61940853111445903778076171875</LongitudeDegrees>
            </Position>
            <AltitudeMeters>2886.800048828125</AltitudeMeters>
            <DistanceMeters>6198.6999316201</DistanceMeters>
          </Trackpoint>
          <Trackpoint>
            <Time>2019-04-07T13:54:45.000Z</Time>
            <Position>
              <LatitudeDegrees>28.27137552201747894287109375</LatitudeDegrees>
              <LongitudeDegrees>-16.61942345090210437774658203125</LongitudeDegrees>
            </Position>
            <AltitudeMeters>2887.199951171875</AltitudeMeters>
            <DistanceMeters>6200.3181782542</DistanceMeters>
          </Trackpoint>
          <Trackpoint>
            <Time>2019-04-07T13:54:48.000Z</Time>
            <Position>
              <LatitudeDegrees>28.27136814594268798828125</LatitudeDegrees>
              <LongitudeDegrees>-16.61944306455552577972412109375</LongitudeDegrees>
            </Position>
            <AltitudeMeters>2887.60009765625</AltitudeMeters>
            <DistanceMeters>6202.4087659703</DistanceMeters>
          </Trackpoint>
          <Trackpoint>
            <Time>2019-04-07T13:54:52.000Z</Time>
            <Position>
              <LatitudeDegrees>28.2713592611253261566162109375</LatitudeDegrees>
              <LongitudeDegrees>-16.61946200765669345855712890625</LongitudeDegrees>
            </Position>
            <AltitudeMeters>2888.199951171875</AltitudeMeters>
            <DistanceMeters>6204.5144173028</DistanceMeters>
          </Trackpoint>
          <Trackpoint>
            <Time>2019-04-07T13:54:57.000Z</Time>
            <Position>
              <LatitudeDegrees>28.27134559862315654754638671875</LatitudeDegrees>
              <LongitudeDegrees>-16.61949369125068187713623046875</LongitudeDegrees>
            </Position>
            <AltitudeMeters>2888.60009765625</AltitudeMeters>
            <DistanceMeters>6207.9721363793</DistanceMeters>
          </Trackpoint>
          <Trackpoint>
            <Time>2019-04-07T13:55:02.000Z</Time>
            <Position>
              <LatitudeDegrees>28.27133051119744777679443359375</LatitudeDegrees>
              <LongitudeDegrees>-16.61952604539692401885986328125</LongitudeDegrees>
            </Position>
            <AltitudeMeters>2889.199951171875</AltitudeMeters>
            <DistanceMeters>6211.5605746202</DistanceMeters>
          </Trackpoint>
          <Trackpoint>
            <Time>2019-04-07T13:55:05.000Z</Time>
            <Position>
              <LatitudeDegrees>28.27133118174970149993896484375</LatitudeDegrees>
              <LongitudeDegrees>-16.61954700015485286712646484375</LongitudeDegrees>
            </Position>
            <AltitudeMeters>2889.60009765625</AltitudeMeters>
            <DistanceMeters>6213.6141192872</DistanceMeters>
          </Trackpoint>
          <Trackpoint>
            <Time>2019-04-07T13:55:10.000Z</Time>
            <Position>
              <LatitudeDegrees>28.27135951258242130279541015625</LatitudeDegrees>
              <LongitudeDegrees>-16.6195623390376567840576171875</LongitudeDegrees>
            </Position>
            <AltitudeMeters>2890</AltitudeMeters>
            <DistanceMeters>6217.1082090617</DistanceMeters>
          </Trackpoint>
          <Trackpoint>
            <Time>2019-04-07T13:55:16.000Z</Time>
            <Position>
              <LatitudeDegrees>28.27138817869126796722412109375</LatitudeDegrees>
              <LongitudeDegrees>-16.6195814497768878936767578125</LongitudeDegrees>
            </Position>
            <AltitudeMeters>2890.60009765625</AltitudeMeters>
            <DistanceMeters>6220.8081544517</DistanceMeters>
          </Trackpoint>
          <Trackpoint>
            <Time>2019-04-07T13:55:17.000Z</Time>
            <Position>
              <LatitudeDegrees>28.27138901688158512115478515625</LatitudeDegrees>
              <LongitudeDegrees>-16.61958999931812286376953125</LongitudeDegrees>
            </Position>
            <AltitudeMeters>2890.800048828125</AltitudeMeters>
            <DistanceMeters>6221.6474076689</DistanceMeters>
          </Trackpoint>
          <Trackpoint>
            <Time>2019-04-07T13:55:21.000Z</Time>
            <Position>
              <LatitudeDegrees>28.27137024141848087310791015625</LatitudeDegrees>
              <LongitudeDegrees>-16.61960818804800510406494140625</LongitudeDegrees>
            </Position>
            <AltitudeMeters>2891.60009765625</AltitudeMeters>
            <DistanceMeters>6224.3933344397</DistanceMeters>
          </Trackpoint>
          <Trackpoint>
            <Time>2019-04-07T13:55:24.000Z</Time>
            <Position>
              <LatitudeDegrees>28.2713572494685649871826171875</LatitudeDegrees>
              <LongitudeDegrees>-16.6196200065314769744873046875</LongitudeDegrees>
            </Position>
            <AltitudeMeters>2892.199951171875</AltitudeMeters>
            <DistanceMeters>6226.2457461242</DistanceMeters>
          </Trackpoint>
          <Trackpoint>
            <Time>2019-04-07T13:55:28.000Z</Time>
            <Position>
              <LatitudeDegrees>28.27133637852966785430908203125</LatitudeDegrees>
              <LongitudeDegrees>-16.61963936872780323028564453125</LongitudeDegrees>
            </Position>
            <AltitudeMeters>2892.60009765625</AltitudeMeters>
            <DistanceMeters>6229.2447386447</DistanceMeters>
          </Trackpoint>
          <Trackpoint>
            <Time>2019-04-07T13:55:33.000Z</Time>
            <Position>
              <LatitudeDegrees>28.27132581733167171478271484375</LatitudeDegrees>
              <LongitudeDegrees>-16.61966401152312755584716796875</LongitudeDegrees>
            </Position>
            <AltitudeMeters>2893.39990234375</AltitudeMeters>
            <DistanceMeters>6231.9308196336</DistanceMeters>
          </Trackpoint>
          <Trackpoint>
            <Time>2019-04-07T13:55:35.000Z</Time>
            <Position>
              <LatitudeDegrees>28.2713277451694011688232421875</LatitudeDegrees>
              <LongitudeDegrees>-16.6196766681969165802001953125</LongitudeDegrees>
            </Position>
            <AltitudeMeters>2893.800048828125</AltitudeMeters>
            <DistanceMeters>6233.1950678412</DistanceMeters>
          </Trackpoint>
          <Trackpoint>
            <Time>2019-04-07T13:55:41.000Z</Time>
            <Position>
              <LatitudeDegrees>28.27132799662649631500244140625</LatitudeDegrees>
              <LongitudeDegrees>-16.6197148896753787994384765625</LongitudeDegrees>
            </Position>
            <AltitudeMeters>2894.60009765625</AltitudeMeters>
            <DistanceMeters>6236.9410975787</DistanceMeters>
          </Trackpoint>
          <Trackpoint>
            <Time>2019-04-07T13:55:43.000Z</Time>
            <Position>
              <LatitudeDegrees>28.27131743542850017547607421875</LatitudeDegrees>
              <LongitudeDegrees>-16.61972586996853351593017578125</LongitudeDegrees>
            </Position>
            <AltitudeMeters>2894.800048828125</AltitudeMeters>
            <DistanceMeters>6238.531198646</DistanceMeters>
          </Trackpoint>
          <Trackpoint>
            <Time>2019-04-07T13:55:48.000Z</Time>
            <Position>
              <LatitudeDegrees>28.2713351212441921234130859375</LatitudeDegrees>
              <LongitudeDegrees>-16.61974900402128696441650390625</LongitudeDegrees>
            </Position>
            <AltitudeMeters>2895.60009765625</AltitudeMeters>
            <DistanceMeters>6241.5332006932</DistanceMeters>
          </Trackpoint>
          <Trackpoint>
            <Time>2019-04-07T13:55:51.000Z</Time>
            <Position>
              <LatitudeDegrees>28.271328918635845184326171875</LatitudeDegrees>
              <LongitudeDegrees>-16.61976425908505916595458984375</LongitudeDegrees>
            </Position>
            <AltitudeMeters>2895.800048828125</AltitudeMeters>
            <DistanceMeters>6243.1791116668</DistanceMeters>
          </Trackpoint>
          <Trackpoint>
            <Time>2019-04-07T13:55:54.000Z</Time>
            <Position>
              <LatitudeDegrees>28.27131575904786586761474609375</LatitudeDegrees>
              <LongitudeDegrees>-16.6197799332439899444580078125</LongitudeDegrees>
            </Position>
            <AltitudeMeters>2896.39990234375</AltitudeMeters>
            <DistanceMeters>6245.3018476715</DistanceMeters>
          </Trackpoint>
          <Trackpoint>
            <Time>2019-04-07T13:55:57.000Z</Time>
            <Position>
              <LatitudeDegrees>28.2713056169450283050537109375</LatitudeDegrees>
              <LongitudeDegrees>-16.61979854106903076171875</LongitudeDegrees>
            </Position>
            <AltitudeMeters>2897</AltitudeMeters>
            <DistanceMeters>6247.445748068</DistanceMeters>
          </Trackpoint>
          <Trackpoint>
            <Time>2019-04-07T13:56:03.000Z</Time>
            <Position>
              <LatitudeDegrees>28.2713089697062969207763671875</LatitudeDegrees>
              <LongitudeDegrees>-16.6198320686817169189453125</LongitudeDegrees>
            </Position>
            <AltitudeMeters>2898</AltitudeMeters>
            <DistanceMeters>6250.7526231145</DistanceMeters>
          </Trackpoint>
          <Trackpoint>
            <Time>2019-04-07T13:56:04.000Z</Time>
            <Position>
              <LatitudeDegrees>28.27130922116339206695556640625</LatitudeDegrees>
              <LongitudeDegrees>-16.6198332421481609344482421875</LongitudeDegrees>
            </Position>
            <AltitudeMeters>2898.199951171875</AltitudeMeters>
            <DistanceMeters>6250.8870111828</DistanceMeters>
          </Trackpoint>
          <Trackpoint>
            <Time>2019-04-07T13:56:11.000Z</Time>
            <Position>
              <LatitudeDegrees>28.2713173516094684600830078125</LatitudeDegrees>
              <LongitudeDegrees>-16.619846820831298828125</LongitudeDegrees>
            </Position>
            <AltitudeMeters>2899</AltitudeMeters>
            <DistanceMeters>6252.4940587437</DistanceMeters>
          </Trackpoint>
          <Trackpoint>
            <Time>2019-04-07T13:56:12.000Z</Time>
            <Position>
              <LatitudeDegrees>28.2713150046765804290771484375</LatitudeDegrees>
              <LongitudeDegrees>-16.61985059268772602081298828125</LongitudeDegrees>
            </Position>
            <AltitudeMeters>2899.199951171875</AltitudeMeters>
            <DistanceMeters>6252.949790856</DistanceMeters>
          </Trackpoint>
          <Trackpoint>
            <Time>2019-04-07T13:56:22.000Z</Time>
            <Position>
              <LatitudeDegrees>28.271301425993442535400390625</LatitudeDegrees>
              <LongitudeDegrees>-16.6198979504406452178955078125</LongitudeDegrees>
            </Position>
            <AltitudeMeters>2900</AltitudeMeters>
            <DistanceMeters>6257.8323518451</DistanceMeters>
          </Trackpoint>
          <Trackpoint>
            <Time>2019-04-07T13:56:24.000Z</Time>
            <Position>
              <LatitudeDegrees>28.27130687423050403594970703125</LatitudeDegrees>
              <LongitudeDegrees>-16.619907505810260772705078125</LongitudeDegrees>
            </Position>
            <AltitudeMeters>2900.199951171875</AltitudeMeters>
            <DistanceMeters>6258.9486629797</DistanceMeters>
          </Trackpoint>
          <Trackpoint>
            <Time>2019-04-07T13:56:29.000Z</Time>
            <Position>
              <LatitudeDegrees>28.27131710015237331390380859375</LatitudeDegrees>
              <LongitudeDegrees>-16.619924269616603851318359375</LongitudeDegrees>
            </Position>
            <AltitudeMeters>2901.39990234375</AltitudeMeters>
            <DistanceMeters>6260.9464852411</DistanceMeters>
          </Trackpoint>
          <Trackpoint>
            <Time>2019-04-07T13:56:31.000Z</Time>
            <Position>
              <LatitudeDegrees>28.2713210396468639373779296875</LatitudeDegrees>
              <LongitudeDegrees>-16.619932651519775390625</LongitudeDegrees>
            </Position>
            <AltitudeMeters>2901.60009765625</AltitudeMeters>
            <DistanceMeters>6261.8775530897</DistanceMeters>
          </Trackpoint>
          <Trackpoint>
            <Time>2019-04-07T13:56:43.000Z</Time>
            <Position>
              <LatitudeDegrees>28.27131374739110469818115234375</LatitudeDegrees>
              <LongitudeDegrees>-16.61996148526668548583984375</LongitudeDegrees>
            </Position>
            <AltitudeMeters>2902.199951171875</AltitudeMeters>
            <DistanceMeters>6264.8187795742</DistanceMeters>
          </Trackpoint>
          <Trackpoint>
            <Time>2019-04-07T13:56:45.000Z</Time>
            <Position>
              <LatitudeDegrees>28.271300755441188812255859375</LatitudeDegrees>
              <LongitudeDegrees>-16.619965173304080963134765625</LongitudeDegrees>
            </Position>
            <AltitudeMeters>2902.39990234375</AltitudeMeters>
            <DistanceMeters>6266.3122416198</DistanceMeters>
          </Trackpoint>
          <Trackpoint>
            <Time>2019-04-07T13:56:50.000Z</Time>
            <Position>
              <LatitudeDegrees>28.27127183787524700164794921875</LatitudeDegrees>
              <LongitudeDegrees>-16.61997330375015735626220703125</LongitudeDegrees>
            </Position>
            <AltitudeMeters>2903.199951171875</AltitudeMeters>
            <DistanceMeters>6269.6286603371</DistanceMeters>
          </Trackpoint>
          <Trackpoint>
            <Time>2019-04-07T13:56:51.000Z</Time>
            <Position>
              <LatitudeDegrees>28.27126689255237579345703125</LatitudeDegrees>
              <LongitudeDegrees>-16.61997833289206027984619140625</LongitudeDegrees>
            </Position>
            <AltitudeMeters>2903.199951171875</AltitudeMeters>
            <DistanceMeters>6270.3647341016</DistanceMeters>
          </Trackpoint>
          <Trackpoint>
            <Time>2019-04-07T13:56:58.000Z</Time>
            <Position>
              <LatitudeDegrees>28.2712556608021259307861328125</LatitudeDegrees>
              <LongitudeDegrees>-16.62001923657953739166259765625</LongitudeDegrees>
            </Position>
            <AltitudeMeters>2904.199951171875</AltitudeMeters>
            <DistanceMeters>6274.5642268441</DistanceMeters>
          </Trackpoint>
          <Trackpoint>
            <Time>2019-04-07T13:56:59.000Z</Time>
            <Position>
              <LatitudeDegrees>28.27125859446823596954345703125</LatitudeDegrees>
              <LongitudeDegrees>-16.620025523006916046142578125</LongitudeDegrees>
            </Position>
            <AltitudeMeters>2904.39990234375</AltitudeMeters>
            <DistanceMeters>6275.2560317672</DistanceMeters>
          </Trackpoint>
          <Trackpoint>
            <Time>2019-04-07T13:57:07.000Z</Time>
            <Position>
              <LatitudeDegrees>28.27126781456172466278076171875</LatitudeDegrees>
              <LongitudeDegrees>-16.62007413804531097412109375</LongitudeDegrees>
            </Position>
            <AltitudeMeters>2905</AltitudeMeters>
            <DistanceMeters>6280.1311893236</DistanceMeters>
          </Trackpoint>
          <Trackpoint>
            <Time>2019-04-07T13:57:13.000Z</Time>
            <Position>
              <LatitudeDegrees>28.27126781456172466278076171875</LatitudeDegrees>
              <LongitudeDegrees>-16.62010439671576023101806640625</LongitudeDegrees>
            </Position>
            <AltitudeMeters>2905.39990234375</AltitudeMeters>
            <DistanceMeters>6283.0968754932</DistanceMeters>
          </Trackpoint>
          <Trackpoint>
            <Time>2019-04-07T13:57:17.000Z</Time>
            <Position>
              <LatitudeDegrees>28.2712828181684017181396484375</LatitudeDegrees>
              <LongitudeDegrees>-16.62012250162661075592041015625</LongitudeDegrees>
            </Position>
            <AltitudeMeters>2905.800048828125</AltitudeMeters>
            <DistanceMeters>6285.5344542715</DistanceMeters>
          </Trackpoint>
          <Trackpoint>
            <Time>2019-04-07T13:57:24.000Z</Time>
            <Position>
              <LatitudeDegrees>28.27132397331297397613525390625</LatitudeDegrees>
              <LongitudeDegrees>-16.62011747248470783233642578125</LongitudeDegrees>
            </Position>
            <AltitudeMeters>2906.39990234375</AltitudeMeters>
            <DistanceMeters>6290.1410451631</DistanceMeters>
          </Trackpoint>
          <Trackpoint>
            <Time>2019-04-07T13:57:26.000Z</Time>
            <Position>
              <LatitudeDegrees>28.27133319340646266937255859375</LatitudeDegrees>
              <LongitudeDegrees>-16.62012585438787937164306640625</LongitudeDegrees>
            </Position>
            <AltitudeMeters>2906.39990234375</AltitudeMeters>
            <DistanceMeters>6291.4508980268</DistanceMeters>
          </Trackpoint>
          <Trackpoint>
            <Time>2019-04-07T13:57:30.000Z</Time>
            <Position>
              <LatitudeDegrees>28.27132212929427623748779296875</LatitudeDegrees>
              <LongitudeDegrees>-16.62014882080256938934326171875</LongitudeDegrees>
            </Position>
            <AltitudeMeters>2906.800048828125</AltitudeMeters>
            <DistanceMeters>6294.0183784657</DistanceMeters>
          </Trackpoint>
          <Trackpoint>
            <Time>2019-04-07T13:57:32.000Z</Time>
            <Position>
              <LatitudeDegrees>28.271309472620487213134765625</LatitudeDegrees>
              <LongitudeDegrees>-16.62015418522059917449951171875</LongitudeDegrees>
            </Position>
            <AltitudeMeters>2907.39990234375</AltitudeMeters>
            <DistanceMeters>6295.5178747259</DistanceMeters>
          </Trackpoint>
          <Trackpoint>
            <Time>2019-04-07T13:57:33.000Z</Time>
            <Position>
              <LatitudeDegrees>28.27130586840212345123291015625</LatitudeDegrees>
              <LongitudeDegrees>-16.620158292353153228759765625</LongitudeDegrees>
            </Position>
            <AltitudeMeters>2907.60009765625</AltitudeMeters>
            <DistanceMeters>6296.0880350121</DistanceMeters>
          </Trackpoint>
          <Trackpoint>
            <Time>2019-04-07T13:57:39.000Z</Time>
            <Position>
              <LatitudeDegrees>28.271311819553375244140625</LatitudeDegrees>
              <LongitudeDegrees>-16.620183773338794708251953125</LongitudeDegrees>
            </Position>
            <AltitudeMeters>2908.199951171875</AltitudeMeters>
            <DistanceMeters>6298.6730411182</DistanceMeters>
          </Trackpoint>
          <Trackpoint>
            <Time>2019-04-07T13:57:41.000Z</Time>
            <Position>
              <LatitudeDegrees>28.2713196985423564910888671875</LatitudeDegrees>
              <LongitudeDegrees>-16.62019173614680767059326171875</LongitudeDegrees>
            </Position>
            <AltitudeMeters>2908.800048828125</AltitudeMeters>
            <DistanceMeters>6299.8446091357</DistanceMeters>
          </Trackpoint>
          <Trackpoint>
            <Time>2019-04-07T13:57:47.000Z</Time>
            <Position>
              <LatitudeDegrees>28.27132581733167171478271484375</LatitudeDegrees>
              <LongitudeDegrees>-16.62022434175014495849609375</LongitudeDegrees>
            </Position>
            <AltitudeMeters>2909.60009765625</AltitudeMeters>
            <DistanceMeters>6303.1130308394</DistanceMeters>
          </Trackpoint>
          <Trackpoint>
            <Time>2019-04-07T13:57:49.000Z</Time>
            <Position>
              <LatitudeDegrees>28.27132900245487689971923828125</LatitudeDegrees>
              <LongitudeDegrees>-16.62023431621491909027099609375</LongitudeDegrees>
            </Position>
            <AltitudeMeters>2909.800048828125</AltitudeMeters>
            <DistanceMeters>6304.1496499096</DistanceMeters>
          </Trackpoint>
          <Trackpoint>
            <Time>2019-04-07T13:57:55.000Z</Time>
            <Position>
              <LatitudeDegrees>28.2713217101991176605224609375</LatitudeDegrees>
              <LongitudeDegrees>-16.62027337588369846343994140625</LongitudeDegrees>
            </Position>
            <AltitudeMeters>2910.60009765625</AltitudeMeters>
            <DistanceMeters>6308.0619356319</DistanceMeters>
          </Trackpoint>
          <Trackpoint>
            <Time>2019-04-07T13:57:57.000Z</Time>
            <Position>
              <LatitudeDegrees>28.27131391502916812896728515625</LatitudeDegrees>
              <LongitudeDegrees>-16.62028125487267971038818359375</LongitudeDegrees>
            </Position>
            <AltitudeMeters>2910.60009765625</AltitudeMeters>
            <DistanceMeters>6309.2218845058</DistanceMeters>
          </Trackpoint>
          <Trackpoint>
            <Time>2019-04-07T13:58:04.000Z</Time>
            <Position>
              <LatitudeDegrees>28.2712938822805881500244140625</LatitudeDegrees>
              <LongitudeDegrees>-16.6203200630843639373779296875</LongitudeDegrees>
            </Position>
            <AltitudeMeters>2911.800048828125</AltitudeMeters>
            <DistanceMeters>6313.630140908</DistanceMeters>
          </Trackpoint>
          <Trackpoint>
            <Time>2019-04-07T13:58:13.000Z</Time>
            <Position>
              <LatitudeDegrees>28.27132313512265682220458984375</LatitudeDegrees>
              <LongitudeDegrees>-16.6203706897795200347900390625</LongitudeDegrees>
            </Position>
            <AltitudeMeters>2912.800048828125</AltitudeMeters>
            <DistanceMeters>6319.5653180922</DistanceMeters>
          </Trackpoint>
          <Trackpoint>
            <Time>2019-04-07T13:58:14.000Z</Time>
            <Position>
              <LatitudeDegrees>28.2713257335126399993896484375</LatitudeDegrees>
              <LongitudeDegrees>-16.62037479691207408905029296875</LongitudeDegrees>
            </Position>
            <AltitudeMeters>2913</AltitudeMeters>
            <DistanceMeters>6320.0590913843</DistanceMeters>
          </Trackpoint>
          <Trackpoint>
            <Time>2019-04-07T13:58:21.000Z</Time>
            <Position>
              <LatitudeDegrees>28.27130922116339206695556640625</LatitudeDegrees>
              <LongitudeDegrees>-16.62042274139821529388427734375</LongitudeDegrees>
            </Position>
            <AltitudeMeters>2914</AltitudeMeters>
            <DistanceMeters>6325.1053588734</DistanceMeters>
          </Trackpoint>
          <Trackpoint>
            <Time>2019-04-07T13:58:22.000Z</Time>
            <Position>
              <LatitudeDegrees>28.271304778754711151123046875</LatitudeDegrees>
              <LongitudeDegrees>-16.6204275190830230712890625</LongitudeDegrees>
            </Position>
            <AltitudeMeters>2914.199951171875</AltitudeMeters>
            <DistanceMeters>6325.7839853529</DistanceMeters>
          </Trackpoint>
          <Trackpoint>
            <Time>2019-04-07T13:58:27.000Z</Time>
            <Position>
              <LatitudeDegrees>28.271284662187099456787109375</LatitudeDegrees>
              <LongitudeDegrees>-16.62044805474579334259033203125</LongitudeDegrees>
            </Position>
            <AltitudeMeters>2915</AltitudeMeters>
            <DistanceMeters>6328.7964970668</DistanceMeters>
          </Trackpoint>
          <Trackpoint>
            <Time>2019-04-07T13:58:29.000Z</Time>
            <Position>
              <LatitudeDegrees>28.27127636410295963287353515625</LatitudeDegrees>
              <LongitudeDegrees>-16.62046096287667751312255859375</LongitudeDegrees>
            </Position>
            <AltitudeMeters>2915.199951171875</AltitudeMeters>
            <DistanceMeters>6330.3637177892</DistanceMeters>
          </Trackpoint>
          <Trackpoint>
            <Time>2019-04-07T13:58:37.000Z</Time>
            <Position>
              <LatitudeDegrees>28.27126462943851947784423828125</LatitudeDegrees>
              <LongitudeDegrees>-16.6205106675624847412109375</LongitudeDegrees>
            </Position>
            <AltitudeMeters>2916</AltitudeMeters>
            <DistanceMeters>6335.4081955044</DistanceMeters>
          </Trackpoint>
          <Trackpoint>
            <Time>2019-04-07T13:58:39.000Z</Time>
            <Position>
              <LatitudeDegrees>28.2712730951607227325439453125</LatitudeDegrees>
              <LongitudeDegrees>-16.620515026152133941650390625</LongitudeDegrees>
            </Position>
            <AltitudeMeters>2916.199951171875</AltitudeMeters>
            <DistanceMeters>6336.4404498434</DistanceMeters>
          </Trackpoint>
          <Trackpoint>
            <Time>2019-04-07T13:58:46.000Z</Time>
            <Position>
              <LatitudeDegrees>28.27127586118876934051513671875</LatitudeDegrees>
              <LongitudeDegrees>-16.62051410414278507232666015625</LongitudeDegrees>
            </Position>
            <AltitudeMeters>2916.800048828125</AltitudeMeters>
            <DistanceMeters>6336.7696320381</DistanceMeters>
          </Trackpoint>
          <Trackpoint>
            <Time>2019-04-07T13:58:53.000Z</Time>
            <Position>
              <LatitudeDegrees>28.271296732127666473388671875</LatitudeDegrees>
              <LongitudeDegrees>-16.620527096092700958251953125</LongitudeDegrees>
            </Position>
            <AltitudeMeters>2916.800048828125</AltitudeMeters>
            <DistanceMeters>6339.4201790521</DistanceMeters>
          </Trackpoint>
          <Trackpoint>
            <Time>2019-04-07T13:58:59.000Z</Time>
            <Position>
              <LatitudeDegrees>28.271333612501621246337890625</LatitudeDegrees>
              <LongitudeDegrees>-16.6205195523798465728759765625</LongitudeDegrees>
            </Position>
            <AltitudeMeters>2917.199951171875</AltitudeMeters>
            <DistanceMeters>6343.5916245219</DistanceMeters>
          </Trackpoint>
          <Trackpoint>
            <Time>2019-04-07T13:59:03.000Z</Time>
            <Position>
              <LatitudeDegrees>28.271357752382755279541015625</LatitudeDegrees>
              <LongitudeDegrees>-16.62051678635179996490478515625</LongitudeDegrees>
            </Position>
            <AltitudeMeters>2917.60009765625</AltitudeMeters>
            <DistanceMeters>6346.2927912636</DistanceMeters>
          </Trackpoint>
          <Trackpoint>
            <Time>2019-04-07T13:59:08.000Z</Time>
            <Position>
              <LatitudeDegrees>28.2713914476335048675537109375</LatitudeDegrees>
              <LongitudeDegrees>-16.62052114494144916534423828125</LongitudeDegrees>
            </Position>
            <AltitudeMeters>2918.199951171875</AltitudeMeters>
            <DistanceMeters>6350.0676370391</DistanceMeters>
          </Trackpoint>
          <Trackpoint>
            <Time>2019-04-07T13:59:12.000Z</Time>
            <Position>
              <LatitudeDegrees>28.27140502631664276123046875</LatitudeDegrees>
              <LongitudeDegrees>-16.62054578773677349090576171875</LongitudeDegrees>
            </Position>
            <AltitudeMeters>2919.199951171875</AltitudeMeters>
            <DistanceMeters>6352.9184384702</DistanceMeters>
          </Trackpoint>
          <Trackpoint>
            <Time>2019-04-07T13:59:16.000Z</Time>
            <Position>
              <LatitudeDegrees>28.2713954709470272064208984375</LatitudeDegrees>
              <LongitudeDegrees>-16.6205735318362712860107421875</LongitudeDegrees>
            </Position>
            <AltitudeMeters>2920.199951171875</AltitudeMeters>
            <DistanceMeters>6355.8380946423</DistanceMeters>
          </Trackpoint>
          <Trackpoint>
            <Time>2019-04-07T13:59:20.000Z</Time>
            <Position>
              <LatitudeDegrees>28.2714038528501987457275390625</LatitudeDegrees>
              <LongitudeDegrees>-16.6205899603664875030517578125</LongitudeDegrees>
            </Position>
            <AltitudeMeters>2920.60009765625</AltitudeMeters>
            <DistanceMeters>6357.7002303394</DistanceMeters>
          </Trackpoint>
          <Trackpoint>
            <Time>2019-04-07T13:59:27.000Z</Time>
            <Position>
              <LatitudeDegrees>28.2714410685002803802490234375</LatitudeDegrees>
              <LongitudeDegrees>-16.6205906309187412261962890625</LongitudeDegrees>
            </Position>
            <AltitudeMeters>2921.199951171875</AltitudeMeters>
            <DistanceMeters>6361.8423487882</DistanceMeters>
          </Trackpoint>
          <Trackpoint>
            <Time>2019-04-07T13:59:28.000Z</Time>
            <Position>
              <LatitudeDegrees>28.2714434154331684112548828125</LatitudeDegrees>
              <LongitudeDegrees>-16.62058987654745578765869140625</LongitudeDegrees>
            </Position>
            <AltitudeMeters>2921.199951171875</AltitudeMeters>
            <DistanceMeters>6362.1111249247</DistanceMeters>
          </Trackpoint>
          <Trackpoint>
            <Time>2019-04-07T13:59:35.000Z</Time>
            <Position>
              <LatitudeDegrees>28.27145556919276714324951171875</LatitudeDegrees>
              <LongitudeDegrees>-16.620574034750461578369140625</LongitudeDegrees>
            </Position>
            <AltitudeMeters>2922</AltitudeMeters>
            <DistanceMeters>6364.1668670718</DistanceMeters>
          </Trackpoint>
          <Trackpoint>
            <Time>2019-04-07T13:59:37.000Z</Time>
            <Position>
              <LatitudeDegrees>28.2714558206498622894287109375</LatitudeDegrees>
              <LongitudeDegrees>-16.62057529203593730926513671875</LongitudeDegrees>
            </Position>
            <AltitudeMeters>2922.199951171875</AltitudeMeters>
            <DistanceMeters>6364.3012551401</DistanceMeters>
          </Trackpoint>
          <Trackpoint>
            <Time>2019-04-07T13:59:45.000Z</Time>
            <Position>
              <LatitudeDegrees>28.2714625261723995208740234375</LatitudeDegrees>
              <LongitudeDegrees>-16.62056121043860912322998046875</LongitudeDegrees>
            </Position>
            <AltitudeMeters>2922</AltitudeMeters>
            <DistanceMeters>6365.8742271505</DistanceMeters>
          </Trackpoint>
          <Trackpoint>
            <Time>2019-04-07T13:59:53.000Z</Time>
            <Position>
              <LatitudeDegrees>28.27146378345787525177001953125</LatitudeDegrees>
              <LongitudeDegrees>-16.6205617971718311309814453125</LongitudeDegrees>
            </Position>
            <AltitudeMeters>2921.199951171875</AltitudeMeters>
            <DistanceMeters>6366.0086152188</DistanceMeters>
          </Trackpoint>
          <Trackpoint>
            <Time>2019-04-07T13:59:55.000Z</Time>
            <Position>
              <LatitudeDegrees>28.2714642025530338287353515625</LatitudeDegrees>
              <LongitudeDegrees>-16.62056070752441883087158203125</LongitudeDegrees>
            </Position>
            <AltitudeMeters>2921.199951171875</AltitudeMeters>
            <DistanceMeters>6366.143003287</DistanceMeters>
          </Trackpoint>
          <Trackpoint>
            <Time>2019-04-07T14:00:52.000Z</Time>
            <Position>
              <LatitudeDegrees>28.27146562747657299041748046875</LatitudeDegrees>
              <LongitudeDegrees>-16.6205638088285923004150390625</LongitudeDegrees>
            </Position>
            <AltitudeMeters>2920.199951171875</AltitudeMeters>
            <DistanceMeters>6366.4721854818</DistanceMeters>
          </Trackpoint>
          <Trackpoint>
            <Time>2019-04-07T14:01:46.000Z</Time>
            <Position>
              <LatitudeDegrees>28.27146529220044612884521484375</LatitudeDegrees>
              <LongitudeDegrees>-16.6205634735524654388427734375</LongitudeDegrees>
            </Position>
            <AltitudeMeters>2921</AltitudeMeters>
            <DistanceMeters>6366.4721854818</DistanceMeters>
          </Trackpoint>
          <Trackpoint>
            <Time>2019-04-07T14:01:47.000Z</Time>
            <Position>
              <LatitudeDegrees>28.2714652083814144134521484375</LatitudeDegrees>
              <LongitudeDegrees>-16.6205634735524654388427734375</LongitudeDegrees>
            </Position>
            <AltitudeMeters>2921</AltitudeMeters>
            <DistanceMeters>6366.4721854818</DistanceMeters>
          </Trackpoint>
          <Trackpoint>
            <Time>2019-04-07T14:02:28.000Z</Time>
            <Position>
              <LatitudeDegrees>28.2714652083814144134521484375</LatitudeDegrees>
              <LongitudeDegrees>-16.620562970638275146484375</LongitudeDegrees>
            </Position>
            <AltitudeMeters>2921</AltitudeMeters>
            <DistanceMeters>6366.4721854818</DistanceMeters>
          </Trackpoint>
          <Trackpoint>
            <Time>2019-04-07T14:02:52.000Z</Time>
            <Position>
              <LatitudeDegrees>28.27146378345787525177001953125</LatitudeDegrees>
              <LongitudeDegrees>-16.6205644793808460235595703125</LongitudeDegrees>
            </Position>
            <AltitudeMeters>2921</AltitudeMeters>
            <DistanceMeters>6366.6846716748</DistanceMeters>
          </Trackpoint>
          <Trackpoint>
            <Time>2019-04-07T14:03:05.000Z</Time>
            <Position>
              <LatitudeDegrees>28.2714621908962726593017578125</LatitudeDegrees>
              <LongitudeDegrees>-16.6205644793808460235595703125</LongitudeDegrees>
            </Position>
            <AltitudeMeters>2921</AltitudeMeters>
            <DistanceMeters>6366.8492627721</DistanceMeters>
          </Trackpoint>
          <Trackpoint>
            <Time>2019-04-07T14:08:52.000Z</Time>
            <Position>
              <LatitudeDegrees>28.27148691751062870025634765625</LatitudeDegrees>
              <LongitudeDegrees>-16.62070311605930328369140625</LongitudeDegrees>
            </Position>
            <AltitudeMeters>2921</AltitudeMeters>
            <DistanceMeters>6380.7146992057</DistanceMeters>
          </Trackpoint>
          <Trackpoint>
            <Time>2019-04-07T14:08:54.000Z</Time>
            <Position>
              <LatitudeDegrees>28.27148272655904293060302734375</LatitudeDegrees>
              <LongitudeDegrees>-16.62064134143292903900146484375</LongitudeDegrees>
            </Position>
            <AltitudeMeters>2921.39990234375</AltitudeMeters>
            <DistanceMeters>6386.7882370769</DistanceMeters>
          </Trackpoint>
          <Trackpoint>
            <Time>2019-04-07T14:09:01.000Z</Time>
            <Position>
              <LatitudeDegrees>28.27145598828792572021484375</LatitudeDegrees>
              <LongitudeDegrees>-16.62049180828034877777099609375</LongitudeDegrees>
            </Position>
            <AltitudeMeters>2920.39990234375</AltitudeMeters>
            <DistanceMeters>6401.7452125005</DistanceMeters>
          </Trackpoint>
          <Trackpoint>
            <Time>2019-04-07T14:09:07.000Z</Time>
            <Position>
              <LatitudeDegrees>28.27148473821580410003662109375</LatitudeDegrees>
              <LongitudeDegrees>-16.62061728537082672119140625</LongitudeDegrees>
            </Position>
            <AltitudeMeters>2920.199951171875</AltitudeMeters>
            <DistanceMeters>6414.4543028438</DistanceMeters>
          </Trackpoint>
          <Trackpoint>
            <Time>2019-04-07T14:09:09.000Z</Time>
            <Position>
              <LatitudeDegrees>28.27147719450294971466064453125</LatitudeDegrees>
              <LongitudeDegrees>-16.62062189541757106781005859375</LongitudeDegrees>
            </Position>
            <AltitudeMeters>2920.199951171875</AltitudeMeters>
            <DistanceMeters>6415.4045699875</DistanceMeters>
          </Trackpoint>
          <Trackpoint>
            <Time>2019-04-07T14:09:22.000Z</Time>
            <Position>
              <LatitudeDegrees>28.27145607210695743560791015625</LatitudeDegrees>
              <LongitudeDegrees>-16.62063916213810443878173828125</LongitudeDegrees>
            </Position>
            <AltitudeMeters>2920.800048828125</AltitudeMeters>
            <DistanceMeters>6418.3009368524</DistanceMeters>
          </Trackpoint>
          <Trackpoint>
            <Time>2019-04-07T14:09:30.000Z</Time>
            <Position>
              <LatitudeDegrees>28.27144718728959560394287109375</LatitudeDegrees>
              <LongitudeDegrees>-16.62069196812808513641357421875</LongitudeDegrees>
            </Position>
            <AltitudeMeters>2921.199951171875</AltitudeMeters>
            <DistanceMeters>6423.5712798339</DistanceMeters>
          </Trackpoint>
          <Trackpoint>
            <Time>2019-04-07T14:09:33.000Z</Time>
            <Position>
              <LatitudeDegrees>28.2714658789336681365966796875</LatitudeDegrees>
              <LongitudeDegrees>-16.62070470862090587615966796875</LongitudeDegrees>
            </Position>
            <AltitudeMeters>2921.60009765625</AltitudeMeters>
            <DistanceMeters>6425.99771958</DistanceMeters>
          </Trackpoint>
          <Trackpoint>
            <Time>2019-04-07T14:09:37.000Z</Time>
            <Position>
              <LatitudeDegrees>28.2714819721877574920654296875</LatitudeDegrees>
              <LongitudeDegrees>-16.62072465755045413970947265625</LongitudeDegrees>
            </Position>
            <AltitudeMeters>2922.60009765625</AltitudeMeters>
            <DistanceMeters>6428.6499694833</DistanceMeters>
          </Trackpoint>
          <Trackpoint>
            <Time>2019-04-07T14:09:43.000Z</Time>
            <Position>
              <LatitudeDegrees>28.27147803269326686859130859375</LatitudeDegrees>
              <LongitudeDegrees>-16.62076254375278949737548828125</LongitudeDegrees>
            </Position>
            <AltitudeMeters>2923</AltitudeMeters>
            <DistanceMeters>6432.3887605092</DistanceMeters>
          </Trackpoint>
          <Trackpoint>
            <Time>2019-04-07T14:09:46.000Z</Time>
            <Position>
              <LatitudeDegrees>28.27147384174168109893798828125</LatitudeDegrees>
              <LongitudeDegrees>-16.62077662535011768341064453125</LongitudeDegrees>
            </Position>
            <AltitudeMeters>2923.800048828125</AltitudeMeters>
            <DistanceMeters>6433.8485885952</DistanceMeters>
          </Trackpoint>
          <Trackpoint>
            <Time>2019-04-07T14:09:51.000Z</Time>
            <Position>
              <LatitudeDegrees>28.2714725844562053680419921875</LatitudeDegrees>
              <LongitudeDegrees>-16.620776541531085968017578125</LongitudeDegrees>
            </Position>
            <AltitudeMeters>2924.60009765625</AltitudeMeters>
            <DistanceMeters>6434.0131796926</DistanceMeters>
          </Trackpoint>
          <Trackpoint>
            <Time>2019-04-07T14:09:57.000Z</Time>
            <Position>
              <LatitudeDegrees>28.27148708514869213104248046875</LatitudeDegrees>
              <LongitudeDegrees>-16.6207757033407688140869140625</LongitudeDegrees>
            </Position>
            <AltitudeMeters>2924.800048828125</AltitudeMeters>
            <DistanceMeters>6435.6286338369</DistanceMeters>
          </Trackpoint>
          <Trackpoint>
            <Time>2019-04-07T14:10:00.000Z</Time>
            <Position>
              <LatitudeDegrees>28.2715084590017795562744140625</LatitudeDegrees>
              <LongitudeDegrees>-16.62077528424561023712158203125</LongitudeDegrees>
            </Position>
            <AltitudeMeters>2925.39990234375</AltitudeMeters>
            <DistanceMeters>6438.0080997287</DistanceMeters>
          </Trackpoint>
          <Trackpoint>
            <Time>2019-04-07T14:10:06.000Z</Time>
            <Position>
              <LatitudeDegrees>28.2715419866144657135009765625</LatitudeDegrees>
              <LongitudeDegrees>-16.62079556845128536224365234375</LongitudeDegrees>
            </Position>
            <AltitudeMeters>2925.800048828125</AltitudeMeters>
            <DistanceMeters>6442.2365215808</DistanceMeters>
          </Trackpoint>
          <Trackpoint>
            <Time>2019-04-07T14:10:08.000Z</Time>
            <Position>
              <LatitudeDegrees>28.2715540565550327301025390625</LatitudeDegrees>
              <LongitudeDegrees>-16.620795987546443939208984375</LongitudeDegrees>
            </Position>
            <AltitudeMeters>2926.199951171875</AltitudeMeters>
            <DistanceMeters>6443.5804022633</DistanceMeters>
          </Trackpoint>
          <Trackpoint>
            <Time>2019-04-07T14:10:14.000Z</Time>
            <Position>
              <LatitudeDegrees>28.27158934436738491058349609375</LatitudeDegrees>
              <LongitudeDegrees>-16.6207854263484477996826171875</LongitudeDegrees>
            </Position>
            <AltitudeMeters>2926.800048828125</AltitudeMeters>
            <DistanceMeters>6447.6432805213</DistanceMeters>
          </Trackpoint>
          <Trackpoint>
            <Time>2019-04-07T14:10:17.000Z</Time>
            <Position>
              <LatitudeDegrees>28.27160493470728397369384765625</LatitudeDegrees>
              <LongitudeDegrees>-16.62077863700687885284423828125</LongitudeDegrees>
            </Position>
            <AltitudeMeters>2927</AltitudeMeters>
            <DistanceMeters>6449.5029899819</DistanceMeters>
          </Trackpoint>
          <Trackpoint>
            <Time>2019-04-07T14:10:22.000Z</Time>
            <Position>
              <LatitudeDegrees>28.271621279418468475341796875</LatitudeDegrees>
              <LongitudeDegrees>-16.62076639942824840545654296875</LongitudeDegrees>
            </Position>
            <AltitudeMeters>2927.800048828125</AltitudeMeters>
            <DistanceMeters>6451.6823982066</DistanceMeters>
          </Trackpoint>
          <Trackpoint>
            <Time>2019-04-07T14:10:25.000Z</Time>
            <Position>
              <LatitudeDegrees>28.2716318406164646148681640625</LatitudeDegrees>
              <LongitudeDegrees>-16.62075533531606197357177734375</LongitudeDegrees>
            </Position>
            <AltitudeMeters>2928.199951171875</AltitudeMeters>
            <DistanceMeters>6453.2809949767</DistanceMeters>
          </Trackpoint>
          <Trackpoint>
            <Time>2019-04-07T14:10:30.000Z</Time>
            <Position>
              <LatitudeDegrees>28.271647430956363677978515625</LatitudeDegrees>
              <LongitudeDegrees>-16.62073220126330852508544921875</LongitudeDegrees>
            </Position>
            <AltitudeMeters>2928.800048828125</AltitudeMeters>
            <DistanceMeters>6456.1349622072</DistanceMeters>
          </Trackpoint>
          <Trackpoint>
            <Time>2019-04-07T14:10:35.000Z</Time>
            <Position>
              <LatitudeDegrees>28.27167886309325695037841796875</LatitudeDegrees>
              <LongitudeDegrees>-16.6207230649888515472412109375</LongitudeDegrees>
            </Position>
            <AltitudeMeters>2929.800048828125</AltitudeMeters>
            <DistanceMeters>6459.7459773532</DistanceMeters>
          </Trackpoint>
          <Trackpoint>
            <Time>2019-04-07T14:10:36.000Z</Time>
            <Position>
              <LatitudeDegrees>28.2716861553490161895751953125</LatitudeDegrees>
              <LongitudeDegrees>-16.62072432227432727813720703125</LongitudeDegrees>
            </Position>
            <AltitudeMeters>2930</AltitudeMeters>
            <DistanceMeters>6460.5634280593</DistanceMeters>
          </Trackpoint>
          <Trackpoint>
            <Time>2019-04-07T14:10:41.000Z</Time>
            <Position>
              <LatitudeDegrees>28.27171842567622661590576171875</LatitudeDegrees>
              <LongitudeDegrees>-16.6207234002649784088134765625</LongitudeDegrees>
            </Position>
            <AltitudeMeters>2931</AltitudeMeters>
            <DistanceMeters>6464.1568956485</DistanceMeters>
          </Trackpoint>
          <Trackpoint>
            <Time>2019-04-07T14:10:46.000Z</Time>
            <Position>
              <LatitudeDegrees>28.27174298465251922607421875</LatitudeDegrees>
              <LongitudeDegrees>-16.62071107886731624603271484375</LongitudeDegrees>
            </Position>
            <AltitudeMeters>2931.39990234375</AltitudeMeters>
            <DistanceMeters>6467.1438197398</DistanceMeters>
          </Trackpoint>
          <Trackpoint>
            <Time>2019-04-07T14:10:49.000Z</Time>
            <Position>
              <LatitudeDegrees>28.27175681479275226593017578125</LatitudeDegrees>
              <LongitudeDegrees>-16.620697081089019775390625</LongitudeDegrees>
            </Position>
            <AltitudeMeters>2932</AltitudeMeters>
            <DistanceMeters>6469.2061402786</DistanceMeters>
          </Trackpoint>
          <Trackpoint>
            <Time>2019-04-07T14:10:56.000Z</Time>
            <Position>
              <LatitudeDegrees>28.27179051004350185394287109375</LatitudeDegrees>
              <LongitudeDegrees>-16.62069548852741718292236328125</LongitudeDegrees>
            </Position>
            <AltitudeMeters>2932.800048828125</AltitudeMeters>
            <DistanceMeters>6472.9593947668</DistanceMeters>
          </Trackpoint>
          <Trackpoint>
            <Time>2019-04-07T14:10:57.000Z</Time>
            <Position>
              <LatitudeDegrees>28.27179570682346820831298828125</LatitudeDegrees>
              <LongitudeDegrees>-16.6206928901374340057373046875</LongitudeDegrees>
            </Position>
            <AltitudeMeters>2933</AltitudeMeters>
            <DistanceMeters>6473.58973068</DistanceMeters>
          </Trackpoint>
          <Trackpoint>
            <Time>2019-04-07T14:11:05.000Z</Time>
            <Position>
              <LatitudeDegrees>28.2718289829790592193603515625</LatitudeDegrees>
              <LongitudeDegrees>-16.620661877095699310302734375</LongitudeDegrees>
            </Position>
            <AltitudeMeters>2933.800048828125</AltitudeMeters>
            <DistanceMeters>6478.3798689081</DistanceMeters>
          </Trackpoint>
          <Trackpoint>
            <Time>2019-04-07T14:11:06.000Z</Time>
            <Position>
              <LatitudeDegrees>28.27183141373097896575927734375</LatitudeDegrees>
              <LongitudeDegrees>-16.6206555068492889404296875</LongitudeDegrees>
            </Position>
            <AltitudeMeters>2934</AltitudeMeters>
            <DistanceMeters>6479.0584953876</DistanceMeters>
          </Trackpoint>
          <Trackpoint>
            <Time>2019-04-07T14:11:12.000Z</Time>
            <Position>
              <LatitudeDegrees>28.27186527661979198455810546875</LatitudeDegrees>
              <LongitudeDegrees>-16.6206345520913600921630859375</LongitudeDegrees>
            </Position>
            <AltitudeMeters>2935</AltitudeMeters>
            <DistanceMeters>6483.3505060988</DistanceMeters>
          </Trackpoint>
          <Trackpoint>
            <Time>2019-04-07T14:11:14.000Z</Time>
            <Position>
              <LatitudeDegrees>28.27187734656035900115966796875</LatitudeDegrees>
              <LongitudeDegrees>-16.6206288523972034454345703125</LongitudeDegrees>
            </Position>
            <AltitudeMeters>2935.39990234375</AltitudeMeters>
            <DistanceMeters>6484.8072380455</DistanceMeters>
          </Trackpoint>
          <Trackpoint>
            <Time>2019-04-07T14:11:18.000Z</Time>
            <Position>
              <LatitudeDegrees>28.2718978822231292724609375</LatitudeDegrees>
              <LongitudeDegrees>-16.62062323652207851409912109375</LongitudeDegrees>
            </Position>
            <AltitudeMeters>2936.199951171875</AltitudeMeters>
            <DistanceMeters>6487.1561477302</DistanceMeters>
          </Trackpoint>
          <Trackpoint>
            <Time>2019-04-07T14:11:21.000Z</Time>
            <Position>
              <LatitudeDegrees>28.27190785668790340423583984375</LatitudeDegrees>
              <LongitudeDegrees>-16.6206090711057186126708984375</LongitudeDegrees>
            </Position>
            <AltitudeMeters>2936.60009765625</AltitudeMeters>
            <DistanceMeters>6488.9313932566</DistanceMeters>
          </Trackpoint>
          <Trackpoint>
            <Time>2019-04-07T14:11:25.000Z</Time>
            <Position>
              <LatitudeDegrees>28.2719225250184535980224609375</LatitudeDegrees>
              <LongitudeDegrees>-16.6205906309187412261962890625</LongitudeDegrees>
            </Position>
            <AltitudeMeters>2937</AltitudeMeters>
            <DistanceMeters>6491.3671190671</DistanceMeters>
          </Trackpoint>
          <Trackpoint>
            <Time>2019-04-07T14:11:29.000Z</Time>
            <Position>
              <LatitudeDegrees>28.2719436474144458770751953125</LatitudeDegrees>
              <LongitudeDegrees>-16.62057847715914249420166015625</LongitudeDegrees>
            </Position>
            <AltitudeMeters>2938.199951171875</AltitudeMeters>
            <DistanceMeters>6494.0005766249</DistanceMeters>
          </Trackpoint>
          <Trackpoint>
            <Time>2019-04-07T14:11:31.000Z</Time>
            <Position>
              <LatitudeDegrees>28.2719533704221248626708984375</LatitudeDegrees>
              <LongitudeDegrees>-16.62057260982692241668701171875</LongitudeDegrees>
            </Position>
            <AltitudeMeters>2938.60009765625</AltitudeMeters>
            <DistanceMeters>6495.2212168722</DistanceMeters>
          </Trackpoint>
          <Trackpoint>
            <Time>2019-04-07T14:11:35.000Z</Time>
            <Position>
              <LatitudeDegrees>28.2719691284000873565673828125</LatitudeDegrees>
              <LongitudeDegrees>-16.62056506611406803131103515625</LongitudeDegrees>
            </Position>
            <AltitudeMeters>2939.199951171875</AltitudeMeters>
            <DistanceMeters>6497.1264965709</DistanceMeters>
          </Trackpoint>
          <Trackpoint>
            <Time>2019-04-07T14:11:40.000Z</Time>
            <Position>
              <LatitudeDegrees>28.27198379673063755035400390625</LatitudeDegrees>
              <LongitudeDegrees>-16.6205644793808460235595703125</LongitudeDegrees>
            </Position>
            <AltitudeMeters>2939.800048828125</AltitudeMeters>
            <DistanceMeters>6498.7586339888</DistanceMeters>
          </Trackpoint>
          <Trackpoint>
            <Time>2019-04-07T14:11:45.000Z</Time>
            <Position>
              <LatitudeDegrees>28.271998465061187744140625</LatitudeDegrees>
              <LongitudeDegrees>-16.62059121765196323394775390625</LongitudeDegrees>
            </Position>
            <AltitudeMeters>2940</AltitudeMeters>
            <DistanceMeters>6501.8466366969</DistanceMeters>
          </Trackpoint>
          <Trackpoint>
            <Time>2019-04-07T14:11:47.000Z</Time>
            <Position>
              <LatitudeDegrees>28.2720003090798854827880859375</LatitudeDegrees>
              <LongitudeDegrees>-16.6205986775457859039306640625</LongitudeDegrees>
            </Position>
            <AltitudeMeters>2940.199951171875</AltitudeMeters>
            <DistanceMeters>6502.6008878593</DistanceMeters>
          </Trackpoint>
          <Trackpoint>
            <Time>2019-04-07T14:11:48.000Z</Time>
            <Position>
              <LatitudeDegrees>28.2720026560127735137939453125</LatitudeDegrees>
              <LongitudeDegrees>-16.620604209601879119873046875</LongitudeDegrees>
            </Position>
            <AltitudeMeters>2940.39990234375</AltitudeMeters>
            <DistanceMeters>6503.2018895712</DistanceMeters>
          </Trackpoint>
          <Trackpoint>
            <Time>2019-04-07T14:11:52.000Z</Time>
            <Position>
              <LatitudeDegrees>28.27200986444950103759765625</LatitudeDegrees>
              <LongitudeDegrees>-16.620611585676670074462890625</LongitudeDegrees>
            </Position>
            <AltitudeMeters>2941.39990234375</AltitudeMeters>
            <DistanceMeters>6504.2811855738</DistanceMeters>
          </Trackpoint>
          <Trackpoint>
            <Time>2019-04-07T14:12:00.000Z</Time>
            <Position>
              <LatitudeDegrees>28.27203241176903247833251953125</LatitudeDegrees>
              <LongitudeDegrees>-16.62059582769870758056640625</LongitudeDegrees>
            </Position>
            <AltitudeMeters>2942.39990234375</AltitudeMeters>
            <DistanceMeters>6507.2270137193</DistanceMeters>
          </Trackpoint>
          <Trackpoint>
            <Time>2019-04-07T14:12:09.000Z</Time>
            <Position>
              <LatitudeDegrees>28.27205504290759563446044921875</LatitudeDegrees>
              <LongitudeDegrees>-16.62052810192108154296875</LongitudeDegrees>
            </Position>
            <AltitudeMeters>2943.39990234375</AltitudeMeters>
            <DistanceMeters>6514.3267240451</DistanceMeters>
          </Trackpoint>
          <Trackpoint>
            <Time>2019-04-07T14:12:16.000Z</Time>
            <Position>
              <LatitudeDegrees>28.2720633409917354583740234375</LatitudeDegrees>
              <LongitudeDegrees>-16.620513685047626495361328125</LongitudeDegrees>
            </Position>
            <AltitudeMeters>2944.39990234375</AltitudeMeters>
            <DistanceMeters>6516.0132809163</DistanceMeters>
          </Trackpoint>
          <Trackpoint>
            <Time>2019-04-07T14:12:22.000Z</Time>
            <Position>
              <LatitudeDegrees>28.27209745533764362335205078125</LatitudeDegrees>
              <LongitudeDegrees>-16.62050999701023101806640625</LongitudeDegrees>
            </Position>
            <AltitudeMeters>2945.39990234375</AltitudeMeters>
            <DistanceMeters>6519.8273932837</DistanceMeters>
          </Trackpoint>
          <Trackpoint>
            <Time>2019-04-07T14:12:24.000Z</Time>
            <Position>
              <LatitudeDegrees>28.2721075974404811859130859375</LatitudeDegrees>
              <LongitudeDegrees>-16.62051133811473846435546875</LongitudeDegrees>
            </Position>
            <AltitudeMeters>2945.60009765625</AltitudeMeters>
            <DistanceMeters>6520.9637475117</DistanceMeters>
          </Trackpoint>
          <Trackpoint>
            <Time>2019-04-07T14:12:32.000Z</Time>
            <Position>
              <LatitudeDegrees>28.2721283845603466033935546875</LatitudeDegrees>
              <LongitudeDegrees>-16.62055986933410167694091796875</LongitudeDegrees>
            </Position>
            <AltitudeMeters>2946</AltitudeMeters>
            <DistanceMeters>6526.2537576157</DistanceMeters>
          </Trackpoint>
          <Trackpoint>
            <Time>2019-04-07T14:12:37.000Z</Time>
            <Position>
              <LatitudeDegrees>28.2721474952995777130126953125</LatitudeDegrees>
              <LongitudeDegrees>-16.62058467976748943328857421875</LongitudeDegrees>
            </Position>
            <AltitudeMeters>2946.39990234375</AltitudeMeters>
            <DistanceMeters>6529.4846659042</DistanceMeters>
          </Trackpoint>
          <Trackpoint>
            <Time>2019-04-07T14:12:41.000Z</Time>
            <Position>
              <LatitudeDegrees>28.272175155580043792724609375</LatitudeDegrees>
              <LongitudeDegrees>-16.62058568559587001800537109375</LongitudeDegrees>
            </Position>
            <AltitudeMeters>2947.39990234375</AltitudeMeters>
            <DistanceMeters>6532.5668145734</DistanceMeters>
          </Trackpoint>
          <Trackpoint>
            <Time>2019-04-07T14:12:47.000Z</Time>
            <Position>
              <LatitudeDegrees>28.27221195213496685028076171875</LatitudeDegrees>
              <LongitudeDegrees>-16.620576381683349609375</LongitudeDegrees>
            </Position>
            <AltitudeMeters>2948.60009765625</AltitudeMeters>
            <DistanceMeters>6536.7630806596</DistanceMeters>
          </Trackpoint>
          <Trackpoint>
            <Time>2019-04-07T14:12:51.000Z</Time>
            <Position>
              <LatitudeDegrees>28.27223508618772029876708984375</LatitudeDegrees>
              <LongitudeDegrees>-16.6205651499330997467041015625</LongitudeDegrees>
            </Position>
            <AltitudeMeters>2949.39990234375</AltitudeMeters>
            <DistanceMeters>6539.562742488</DistanceMeters>
          </Trackpoint>
          <Trackpoint>
            <Time>2019-04-07T14:12:52.000Z</Time>
            <Position>
              <LatitudeDegrees>28.27224011532962322235107421875</LatitudeDegrees>
              <LongitudeDegrees>-16.62056188099086284637451171875</LongitudeDegrees>
            </Position>
            <AltitudeMeters>2949.60009765625</AltitudeMeters>
            <DistanceMeters>6540.2142128195</DistanceMeters>
          </Trackpoint>
          <Trackpoint>
            <Time>2019-04-07T14:12:57.000Z</Time>
            <Position>
              <LatitudeDegrees>28.27225620858371257781982421875</LatitudeDegrees>
              <LongitudeDegrees>-16.6205742023885250091552734375</LongitudeDegrees>
            </Position>
            <AltitudeMeters>2950.199951171875</AltitudeMeters>
            <DistanceMeters>6542.3728048247</DistanceMeters>
          </Trackpoint>
          <Trackpoint>
            <Time>2019-04-07T14:13:01.000Z</Time>
            <Position>
              <LatitudeDegrees>28.27226878143846988677978515625</LatitudeDegrees>
              <LongitudeDegrees>-16.62057613022625446319580078125</LongitudeDegrees>
            </Position>
            <AltitudeMeters>2950.39990234375</AltitudeMeters>
            <DistanceMeters>6543.7854784934</DistanceMeters>
          </Trackpoint>
          <Trackpoint>
            <Time>2019-04-07T14:13:05.000Z</Time>
            <Position>
              <LatitudeDegrees>28.27228135429322719573974609375</LatitudeDegrees>
              <LongitudeDegrees>-16.62059356458485126495361328125</LongitudeDegrees>
            </Position>
            <AltitudeMeters>2951.199951171875</AltitudeMeters>
            <DistanceMeters>6545.9916541898</DistanceMeters>
          </Trackpoint>
          <Trackpoint>
            <Time>2019-04-07T14:13:08.000Z</Time>
            <Position>
              <LatitudeDegrees>28.27227883972227573394775390625</LatitudeDegrees>
              <LongitudeDegrees>-16.62061418406665325164794921875</LongitudeDegrees>
            </Position>
            <AltitudeMeters>2951.60009765625</AltitudeMeters>
            <DistanceMeters>6548.0341759931</DistanceMeters>
          </Trackpoint>
          <Trackpoint>
            <Time>2019-04-07T14:13:12.000Z</Time>
            <Position>
              <LatitudeDegrees>28.2722604833543300628662109375</LatitudeDegrees>
              <LongitudeDegrees>-16.62063731811940670013427734375</LongitudeDegrees>
            </Position>
            <AltitudeMeters>2952.800048828125</AltitudeMeters>
            <DistanceMeters>6551.0868860825</DistanceMeters>
          </Trackpoint>
          <Trackpoint>
            <Time>2019-04-07T14:13:13.000Z</Time>
            <Position>
              <LatitudeDegrees>28.27225662767887115478515625</LatitudeDegrees>
              <LongitudeDegrees>-16.62064251489937305450439453125</LongitudeDegrees>
            </Position>
            <AltitudeMeters>2953.199951171875</AltitudeMeters>
            <DistanceMeters>6551.7520730831</DistanceMeters>
          </Trackpoint>
          <Trackpoint>
            <Time>2019-04-07T14:13:21.000Z</Time>
            <Position>
              <LatitudeDegrees>28.27225972898304462432861328125</LatitudeDegrees>
              <LongitudeDegrees>-16.6206962428987026214599609375</LongitudeDegrees>
            </Position>
            <AltitudeMeters>2953.60009765625</AltitudeMeters>
            <DistanceMeters>6557.0309759906</DistanceMeters>
          </Trackpoint>
          <Trackpoint>
            <Time>2019-04-07T14:13:23.000Z</Time>
            <Position>
              <LatitudeDegrees>28.27226844616234302520751953125</LatitudeDegrees>
              <LongitudeDegrees>-16.62070571444928646087646484375</LongitudeDegrees>
            </Position>
            <AltitudeMeters>2954</AltitudeMeters>
            <DistanceMeters>6558.3748566731</DistanceMeters>
          </Trackpoint>
          <Trackpoint>
            <Time>2019-04-07T14:13:30.000Z</Time>
            <Position>
              <LatitudeDegrees>28.27227213419973850250244140625</LatitudeDegrees>
              <LongitudeDegrees>-16.6207364760339260101318359375</LongitudeDegrees>
            </Position>
            <AltitudeMeters>2955</AltitudeMeters>
            <DistanceMeters>6561.4186796692</DistanceMeters>
          </Trackpoint>
          <Trackpoint>
            <Time>2019-04-07T14:13:36.000Z</Time>
            <Position>
              <LatitudeDegrees>28.27228738926351070404052734375</LatitudeDegrees>
              <LongitudeDegrees>-16.62074829451739788055419921875</LongitudeDegrees>
            </Position>
            <AltitudeMeters>2956</AltitudeMeters>
            <DistanceMeters>6563.4744218163</DistanceMeters>
          </Trackpoint>
          <Trackpoint>
            <Time>2019-04-07T14:13:40.000Z</Time>
            <Position>
              <LatitudeDegrees>28.27231622301042079925537109375</LatitudeDegrees>
              <LongitudeDegrees>-16.62073639221489429473876953125</LongitudeDegrees>
            </Position>
            <AltitudeMeters>2956.199951171875</AltitudeMeters>
            <DistanceMeters>6566.8874554541</DistanceMeters>
          </Trackpoint>
          <Trackpoint>
            <Time>2019-04-07T14:13:46.000Z</Time>
            <Position>
              <LatitudeDegrees>28.2723533548414707183837890625</LatitudeDegrees>
              <LongitudeDegrees>-16.62072683684527873992919921875</LongitudeDegrees>
            </Position>
            <AltitudeMeters>2956.800048828125</AltitudeMeters>
            <DistanceMeters>6571.1244109614</DistanceMeters>
          </Trackpoint>
          <Trackpoint>
            <Time>2019-04-07T14:13:49.000Z</Time>
            <Position>
              <LatitudeDegrees>28.27236986719071865081787109375</LatitudeDegrees>
              <LongitudeDegrees>-16.62071979604661464691162109375</LongitudeDegrees>
            </Position>
            <AltitudeMeters>2957.199951171875</AltitudeMeters>
            <DistanceMeters>6573.0857402466</DistanceMeters>
          </Trackpoint>
          <Trackpoint>
            <Time>2019-04-07T14:13:54.000Z</Time>
            <Position>
              <LatitudeDegrees>28.27239216305315494537353515625</LatitudeDegrees>
              <LongitudeDegrees>-16.62070185877382755279541015625</LongitudeDegrees>
            </Position>
            <AltitudeMeters>2958.39990234375</AltitudeMeters>
            <DistanceMeters>6576.1265951065</DistanceMeters>
          </Trackpoint>
          <Trackpoint>
            <Time>2019-04-07T14:13:57.000Z</Time>
            <Position>
              <LatitudeDegrees>28.2724083401262760162353515625</LatitudeDegrees>
              <LongitudeDegrees>-16.62069800309836864471435546875</LongitudeDegrees>
            </Position>
            <AltitudeMeters>2958.800048828125</AltitudeMeters>
            <DistanceMeters>6577.9667795175</DistanceMeters>
          </Trackpoint>
          <Trackpoint>
            <Time>2019-04-07T14:14:02.000Z</Time>
            <Position>
              <LatitudeDegrees>28.2724210806190967559814453125</LatitudeDegrees>
              <LongitudeDegrees>-16.62072549574077129364013671875</LongitudeDegrees>
            </Position>
            <AltitudeMeters>2959.39990234375</AltitudeMeters>
            <DistanceMeters>6581.0106025136</DistanceMeters>
          </Trackpoint>
          <Trackpoint>
            <Time>2019-04-07T14:14:04.000Z</Time>
            <Position>
              <LatitudeDegrees>28.272427953779697418212890625</LatitudeDegrees>
              <LongitudeDegrees>-16.6207341291010379791259765625</LongitudeDegrees>
            </Position>
            <AltitudeMeters>2959.800048828125</AltitudeMeters>
            <DistanceMeters>6582.150923086</DistanceMeters>
          </Trackpoint>
          <Trackpoint>
            <Time>2019-04-07T14:14:07.000Z</Time>
            <Position>
              <LatitudeDegrees>28.27243558131158351898193359375</LatitudeDegrees>
              <LongitudeDegrees>-16.620750725269317626953125</LongitudeDegrees>
            </Position>
            <AltitudeMeters>2960.60009765625</AltitudeMeters>
            <DistanceMeters>6583.9861937782</DistanceMeters>
          </Trackpoint>
          <Trackpoint>
            <Time>2019-04-07T14:14:10.000Z</Time>
            <Position>
              <LatitudeDegrees>28.2724328152835369110107421875</LatitudeDegrees>
              <LongitudeDegrees>-16.62077151238918304443359375</LongitudeDegrees>
            </Position>
            <AltitudeMeters>2960.60009765625</AltitudeMeters>
            <DistanceMeters>6586.0463238539</DistanceMeters>
          </Trackpoint>
          <Trackpoint>
            <Time>2019-04-07T14:14:14.000Z</Time>
            <Position>
              <LatitudeDegrees>28.27241580002009868621826171875</LatitudeDegrees>
              <LongitudeDegrees>-16.6207827441394329071044921875</LongitudeDegrees>
            </Position>
            <AltitudeMeters>2961.39990234375</AltitudeMeters>
            <DistanceMeters>6588.2360659829</DistanceMeters>
          </Trackpoint>
          <Trackpoint>
            <Time>2019-04-07T14:14:18.000Z</Time>
            <Position>
              <LatitudeDegrees>28.27242786996066570281982421875</LatitudeDegrees>
              <LongitudeDegrees>-16.620797328650951385498046875</LongitudeDegrees>
            </Position>
            <AltitudeMeters>2962.199951171875</AltitudeMeters>
            <DistanceMeters>6590.1950918859</DistanceMeters>
          </Trackpoint>
          <Trackpoint>
            <Time>2019-04-07T14:14:19.000Z</Time>
            <Position>
              <LatitudeDegrees>28.27243356965482234954833984375</LatitudeDegrees>
              <LongitudeDegrees>-16.6208005137741565704345703125</LongitudeDegrees>
            </Position>
            <AltitudeMeters>2962.39990234375</AltitudeMeters>
            <DistanceMeters>6590.9062067015</DistanceMeters>
          </Trackpoint>
          <Trackpoint>
            <Time>2019-04-07T14:14:25.000Z</Time>
            <Position>
              <LatitudeDegrees>28.27244295738637447357177734375</LatitudeDegrees>
              <LongitudeDegrees>-16.62083546631038188934326171875</LongitudeDegrees>
            </Position>
            <AltitudeMeters>2962.60009765625</AltitudeMeters>
            <DistanceMeters>6594.4883483272</DistanceMeters>
          </Trackpoint>
          <Trackpoint>
            <Time>2019-04-07T14:14:31.000Z</Time>
            <Position>
              <LatitudeDegrees>28.2724316418170928955078125</LatitudeDegrees>
              <LongitudeDegrees>-16.6208675689995288848876953125</LongitudeDegrees>
            </Position>
            <AltitudeMeters>2963.39990234375</AltitudeMeters>
            <DistanceMeters>6597.8801498234</DistanceMeters>
          </Trackpoint>
          <Trackpoint>
            <Time>2019-04-07T14:14:32.000Z</Time>
            <Position>
              <LatitudeDegrees>28.2724281214177608489990234375</LatitudeDegrees>
              <LongitudeDegrees>-16.6208736039698123931884765625</LongitudeDegrees>
            </Position>
            <AltitudeMeters>2963.60009765625</AltitudeMeters>
            <DistanceMeters>6598.5912646389</DistanceMeters>
          </Trackpoint>
          <Trackpoint>
            <Time>2019-04-07T14:14:36.000Z</Time>
            <Position>
              <LatitudeDegrees>28.2724267803132534027099609375</LatitudeDegrees>
              <LongitudeDegrees>-16.62089732475578784942626953125</LongitudeDegrees>
            </Position>
            <AltitudeMeters>2964.39990234375</AltitudeMeters>
            <DistanceMeters>6600.9208731775</DistanceMeters>
          </Trackpoint>
          <Trackpoint>
            <Time>2019-04-07T14:14:38.000Z</Time>
            <Position>
              <LatitudeDegrees>28.27242820523679256439208984375</LatitudeDegrees>
              <LongitudeDegrees>-16.620905958116054534912109375</LongitudeDegrees>
            </Position>
            <AltitudeMeters>2964.60009765625</AltitudeMeters>
            <DistanceMeters>6601.7813766745</DistanceMeters>
          </Trackpoint>
          <Trackpoint>
            <Time>2019-04-07T14:14:41.000Z</Time>
            <Position>
              <LatitudeDegrees>28.27243658713996410369873046875</LatitudeDegrees>
              <LongitudeDegrees>-16.62091610021889209747314453125</LongitudeDegrees>
            </Position>
            <AltitudeMeters>2965.199951171875</AltitudeMeters>
            <DistanceMeters>6603.1452666068</DistanceMeters>
          </Trackpoint>
          <Trackpoint>
            <Time>2019-04-07T14:14:45.000Z</Time>
            <Position>
              <LatitudeDegrees>28.2724477350711822509765625</LatitudeDegrees>
              <LongitudeDegrees>-16.62093185819685459136962890625</LongitudeDegrees>
            </Position>
            <AltitudeMeters>2965.800048828125</AltitudeMeters>
            <DistanceMeters>6605.1249264707</DistanceMeters>
          </Trackpoint>
          <Trackpoint>
            <Time>2019-04-07T14:14:49.000Z</Time>
            <Position>
              <LatitudeDegrees>28.272463493049144744873046875</LatitudeDegrees>
              <LongitudeDegrees>-16.6209352947771549224853515625</LongitudeDegrees>
            </Position>
            <AltitudeMeters>2966.60009765625</AltitudeMeters>
            <DistanceMeters>6606.9077856654</DistanceMeters>
          </Trackpoint>
          <Trackpoint>
            <Time>2019-04-07T14:14:53.000Z</Time>
            <Position>
              <LatitudeDegrees>28.27247296459972858428955078125</LatitudeDegrees>
              <LongitudeDegrees>-16.62094979546964168548583984375</LongitudeDegrees>
            </Position>
            <AltitudeMeters>2966.800048828125</AltitudeMeters>
            <DistanceMeters>6608.675384729</DistanceMeters>
          </Trackpoint>
          <Trackpoint>
            <Time>2019-04-07T14:14:56.000Z</Time>
            <Position>
              <LatitudeDegrees>28.272484950721263885498046875</LatitudeDegrees>
              <LongitudeDegrees>-16.62094585597515106201171875</LongitudeDegrees>
            </Position>
            <AltitudeMeters>2967</AltitudeMeters>
            <DistanceMeters>6610.0622539667</DistanceMeters>
          </Trackpoint>
          <Trackpoint>
            <Time>2019-04-07T14:15:05.000Z</Time>
            <Position>
              <LatitudeDegrees>28.27251814305782318115234375</LatitudeDegrees>
              <LongitudeDegrees>-16.62096329033374786376953125</LongitudeDegrees>
            </Position>
            <AltitudeMeters>2967.800048828125</AltitudeMeters>
            <DistanceMeters>6614.1317945057</DistanceMeters>
          </Trackpoint>
          <Trackpoint>
            <Time>2019-04-07T14:15:06.000Z</Time>
            <Position>
              <LatitudeDegrees>28.2725183106958866119384765625</LatitudeDegrees>
              <LongitudeDegrees>-16.620969660580158233642578125</LongitudeDegrees>
            </Position>
            <AltitudeMeters>2967.800048828125</AltitudeMeters>
            <DistanceMeters>6614.7549263433</DistanceMeters>
          </Trackpoint>
          <Trackpoint>
            <Time>2019-04-07T14:15:12.000Z</Time>
            <Position>
              <LatitudeDegrees>28.27250967733561992645263671875</LatitudeDegrees>
              <LongitudeDegrees>-16.62100226618349552154541015625</LongitudeDegrees>
            </Position>
            <AltitudeMeters>2968.800048828125</AltitudeMeters>
            <DistanceMeters>6618.0930567081</DistanceMeters>
          </Trackpoint>
          <Trackpoint>
            <Time>2019-04-07T14:15:14.000Z</Time>
            <Position>
              <LatitudeDegrees>28.2725025527179241180419921875</LatitudeDegrees>
              <LongitudeDegrees>-16.6210124082863330841064453125</LongitudeDegrees>
            </Position>
            <AltitudeMeters>2969</AltitudeMeters>
            <DistanceMeters>6619.3644274972</DistanceMeters>
          </Trackpoint>
          <Trackpoint>
            <Time>2019-04-07T14:15:19.000Z</Time>
            <Position>
              <LatitudeDegrees>28.27247656881809234619140625</LatitudeDegrees>
              <LongitudeDegrees>-16.62103696726262569427490234375</LongitudeDegrees>
            </Position>
            <AltitudeMeters>2969.800048828125</AltitudeMeters>
            <DistanceMeters>6623.1260933234</DistanceMeters>
          </Trackpoint>
          <Trackpoint>
            <Time>2019-04-07T14:15:22.000Z</Time>
            <Position>
              <LatitudeDegrees>28.27246894128620624542236328125</LatitudeDegrees>
              <LongitudeDegrees>-16.62105775438249111175537109375</LongitudeDegrees>
            </Position>
            <AltitudeMeters>2970.60009765625</AltitudeMeters>
            <DistanceMeters>6625.3343146166</DistanceMeters>
          </Trackpoint>
          <Trackpoint>
            <Time>2019-04-07T14:15:23.000Z</Time>
            <Position>
              <LatitudeDegrees>28.27246776781976222991943359375</LatitudeDegrees>
              <LongitudeDegrees>-16.6210660524666309356689453125</LongitudeDegrees>
            </Position>
            <AltitudeMeters>2970.800048828125</AltitudeMeters>
            <DistanceMeters>6626.1572701034</DistanceMeters>
          </Trackpoint>
          <Trackpoint>
            <Time>2019-04-07T14:15:31.000Z</Time>
            <Position>
              <LatitudeDegrees>28.272456787526607513427734375</LatitudeDegrees>
              <LongitudeDegrees>-16.621125228703022003173828125</LongitudeDegrees>
            </Position>
            <AltitudeMeters>2972</AltitudeMeters>
            <DistanceMeters>6632.0848351552</DistanceMeters>
          </Trackpoint>
          <Trackpoint>
            <Time>2019-04-07T14:15:32.000Z</Time>
            <Position>
              <LatitudeDegrees>28.27245687134563922882080078125</LatitudeDegrees>
              <LongitudeDegrees>-16.62113218568265438079833984375</LongitudeDegrees>
            </Position>
            <AltitudeMeters>2972</AltitudeMeters>
            <DistanceMeters>6632.7634616347</DistanceMeters>
          </Trackpoint>
          <Trackpoint>
            <Time>2019-04-07T14:15:41.000Z</Time>
            <Position>
              <LatitudeDegrees>28.27245938591659069061279296875</LatitudeDegrees>
              <LongitudeDegrees>-16.6211917810142040252685546875</LongitudeDegrees>
            </Position>
            <AltitudeMeters>2973</AltitudeMeters>
            <DistanceMeters>6638.6120451871</DistanceMeters>
          </Trackpoint>
          <Trackpoint>
            <Time>2019-04-07T14:15:47.000Z</Time>
            <Position>
              <LatitudeDegrees>28.27249006368219852447509765625</LatitudeDegrees>
              <LongitudeDegrees>-16.62118633277714252471923828125</LongitudeDegrees>
            </Position>
            <AltitudeMeters>2974</AltitudeMeters>
            <DistanceMeters>6642.0671517063</DistanceMeters>
          </Trackpoint>
          <Trackpoint>
            <Time>2019-04-07T14:15:49.000Z</Time>
            <Position>
              <LatitudeDegrees>28.27250062488019466400146484375</LatitudeDegrees>
              <LongitudeDegrees>-16.621182896196842193603515625</LongitudeDegrees>
            </Position>
            <AltitudeMeters>2974.39990234375</AltitudeMeters>
            <DistanceMeters>6643.2840874222</DistanceMeters>
          </Trackpoint>
          <Trackpoint>
            <Time>2019-04-07T14:15:52.000Z</Time>
            <Position>
              <LatitudeDegrees>28.2725213281810283660888671875</LatitudeDegrees>
              <LongitudeDegrees>-16.621176190674304962158203125</LongitudeDegrees>
            </Position>
            <AltitudeMeters>2975</AltitudeMeters>
            <DistanceMeters>6645.6805699735</DistanceMeters>
          </Trackpoint>
          <Trackpoint>
            <Time>2019-04-07T14:15:58.000Z</Time>
            <Position>
              <LatitudeDegrees>28.27256214804947376251220703125</LatitudeDegrees>
              <LongitudeDegrees>-16.6211659647524356842041015625</LongitudeDegrees>
            </Position>
            <AltitudeMeters>2976</AltitudeMeters>
            <DistanceMeters>6650.3329987194</DistanceMeters>
          </Trackpoint>
          <Trackpoint>
            <Time>2019-04-07T14:16:04.000Z</Time>
            <Position>
              <LatitudeDegrees>28.27259751968085765838623046875</LatitudeDegrees>
              <LongitudeDegrees>-16.6211463510990142822265625</LongitudeDegrees>
            </Position>
            <AltitudeMeters>2977.199951171875</AltitudeMeters>
            <DistanceMeters>6654.7155747423</DistanceMeters>
          </Trackpoint>
          <Trackpoint>
            <Time>2019-04-07T14:16:07.000Z</Time>
            <Position>
              <LatitudeDegrees>28.2726111821830272674560546875</LatitudeDegrees>
              <LongitudeDegrees>-16.621141321957111358642578125</LongitudeDegrees>
            </Position>
            <AltitudeMeters>2977.800048828125</AltitudeMeters>
            <DistanceMeters>6656.3169933978</DistanceMeters>
          </Trackpoint>
          <Trackpoint>
            <Time>2019-04-07T14:16:14.000Z</Time>
            <Position>
              <LatitudeDegrees>28.27262811362743377685546875</LatitudeDegrees>
              <LongitudeDegrees>-16.621137969195842742919921875</LongitudeDegrees>
            </Position>
            <AltitudeMeters>2978.199951171875</AltitudeMeters>
            <DistanceMeters>6658.231728637</DistanceMeters>
          </Trackpoint>
          <Trackpoint>
            <Time>2019-04-07T14:16:21.000Z</Time>
            <Position>
              <LatitudeDegrees>28.272633813321590423583984375</LatitudeDegrees>
              <LongitudeDegrees>-16.62115314044058322906494140625</LongitudeDegrees>
            </Position>
            <AltitudeMeters>2979.39990234375</AltitudeMeters>
            <DistanceMeters>6659.8499752711</DistanceMeters>
          </Trackpoint>
          <Trackpoint>
            <Time>2019-04-07T14:16:23.000Z</Time>
            <Position>
              <LatitudeDegrees>28.2726346515119075775146484375</LatitudeDegrees>
              <LongitudeDegrees>-16.62115582264959812164306640625</LongitudeDegrees>
            </Position>
            <AltitudeMeters>2979.60009765625</AltitudeMeters>
            <DistanceMeters>6660.1187514076</DistanceMeters>
          </Trackpoint>
          <Trackpoint>
            <Time>2019-04-07T14:16:34.000Z</Time>
            <Position>
              <LatitudeDegrees>28.27263087965548038482666015625</LatitudeDegrees>
              <LongitudeDegrees>-16.62118189036846160888671875</LongitudeDegrees>
            </Position>
            <AltitudeMeters>2980.199951171875</AltitudeMeters>
            <DistanceMeters>6662.707248408</DistanceMeters>
          </Trackpoint>
          <Trackpoint>
            <Time>2019-04-07T14:16:35.000Z</Time>
            <Position>
              <LatitudeDegrees>28.27262635342776775360107421875</LatitudeDegrees>
              <LongitudeDegrees>-16.62118700332939624786376953125</LongitudeDegrees>
            </Position>
            <AltitudeMeters>2980.39990234375</AltitudeMeters>
            <DistanceMeters>6663.4183632236</DistanceMeters>
          </Trackpoint>
          <Trackpoint>
            <Time>2019-04-07T14:16:44.000Z</Time>
            <Position>
              <LatitudeDegrees>28.2726229168474674224853515625</LatitudeDegrees>
              <LongitudeDegrees>-16.621227152645587921142578125</LongitudeDegrees>
            </Position>
            <AltitudeMeters>2981.199951171875</AltitudeMeters>
            <DistanceMeters>6667.3719770545</DistanceMeters>
          </Trackpoint>
          <Trackpoint>
            <Time>2019-04-07T14:16:49.000Z</Time>
            <Position>
              <LatitudeDegrees>28.27263557352125644683837890625</LatitudeDegrees>
              <LongitudeDegrees>-16.6212160885334014892578125</LongitudeDegrees>
            </Position>
            <AltitudeMeters>2981.800048828125</AltitudeMeters>
            <DistanceMeters>6669.1497640933</DistanceMeters>
          </Trackpoint>
          <Trackpoint>
            <Time>2019-04-07T14:16:51.000Z</Time>
            <Position>
              <LatitudeDegrees>28.27264227904379367828369140625</LatitudeDegrees>
              <LongitudeDegrees>-16.621209718286991119384765625</LongitudeDegrees>
            </Position>
            <AltitudeMeters>2982.199951171875</AltitudeMeters>
            <DistanceMeters>6670.1234981569</DistanceMeters>
          </Trackpoint>
          <Trackpoint>
            <Time>2019-04-07T14:16:56.000Z</Time>
            <Position>
              <LatitudeDegrees>28.272661976516246795654296875</LatitudeDegrees>
              <LongitudeDegrees>-16.6212058626115322113037109375</LongitudeDegrees>
            </Position>
            <AltitudeMeters>2983.199951171875</AltitudeMeters>
            <DistanceMeters>6672.3500452523</DistanceMeters>
          </Trackpoint>
          <Trackpoint>
            <Time>2019-04-07T14:16:59.000Z</Time>
            <Position>
              <LatitudeDegrees>28.2726698555052280426025390625</LatitudeDegrees>
              <LongitudeDegrees>-16.62122371606528759002685546875</LongitudeDegrees>
            </Position>
            <AltitudeMeters>2983.60009765625</AltitudeMeters>
            <DistanceMeters>6674.3067650616</DistanceMeters>
          </Trackpoint>
          <Trackpoint>
            <Time>2019-04-07T14:17:03.000Z</Time>
            <Position>
              <LatitudeDegrees>28.27266030013561248779296875</LatitudeDegrees>
              <LongitudeDegrees>-16.62125699222087860107421875</LongitudeDegrees>
            </Position>
            <AltitudeMeters>2984.199951171875</AltitudeMeters>
            <DistanceMeters>6677.7382690588</DistanceMeters>
          </Trackpoint>
          <Trackpoint>
            <Time>2019-04-07T14:17:05.000Z</Time>
            <Position>
              <LatitudeDegrees>28.27265501953661441802978515625</LatitudeDegrees>
              <LongitudeDegrees>-16.6212729178369045257568359375</LongitudeDegrees>
            </Position>
            <AltitudeMeters>2984.800048828125</AltitudeMeters>
            <DistanceMeters>6679.4059811277</DistanceMeters>
          </Trackpoint>
          <Trackpoint>
            <Time>2019-04-07T14:17:08.000Z</Time>
            <Position>
              <LatitudeDegrees>28.27264294959604740142822265625</LatitudeDegrees>
              <LongitudeDegrees>-16.62129697389900684356689453125</LongitudeDegrees>
            </Position>
            <AltitudeMeters>2985.199951171875</AltitudeMeters>
            <DistanceMeters>6682.1204870456</DistanceMeters>
          </Trackpoint>
          <Trackpoint>
            <Time>2019-04-07T14:17:13.000Z</Time>
            <Position>
              <LatitudeDegrees>28.2726178877055644989013671875</LatitudeDegrees>
              <LongitudeDegrees>-16.62132312543690204620361328125</LongitudeDegrees>
            </Position>
            <AltitudeMeters>2986.199951171875</AltitudeMeters>
            <DistanceMeters>6685.909658663</DistanceMeters>
          </Trackpoint>
          <Trackpoint>
            <Time>2019-04-07T14:17:16.000Z</Time>
            <Position>
              <LatitudeDegrees>28.2726098410785198211669921875</LatitudeDegrees>
              <LongitudeDegrees>-16.62134089507162570953369140625</LongitudeDegrees>
            </Position>
            <AltitudeMeters>2986.800048828125</AltitudeMeters>
            <DistanceMeters>6687.8709879482</DistanceMeters>
          </Trackpoint>
          <Trackpoint>
            <Time>2019-04-07T14:17:17.000Z</Time>
            <Position>
              <LatitudeDegrees>28.27260774560272693634033203125</LatitudeDegrees>
              <LongitudeDegrees>-16.621347852051258087158203125</LongitudeDegrees>
            </Position>
            <AltitudeMeters>2987.199951171875</AltitudeMeters>
            <DistanceMeters>6688.5946898439</DistanceMeters>
          </Trackpoint>
          <Trackpoint>
            <Time>2019-04-07T14:17:21.000Z</Time>
            <Position>
              <LatitudeDegrees>28.27261042781174182891845703125</LatitudeDegrees>
              <LongitudeDegrees>-16.6213604249060153961181640625</LongitudeDegrees>
            </Position>
            <AltitudeMeters>2988.199951171875</AltitudeMeters>
            <DistanceMeters>6689.866060633</DistanceMeters>
          </Trackpoint>
          <Trackpoint>
            <Time>2019-04-07T14:17:24.000Z</Time>
            <Position>
              <LatitudeDegrees>28.27262903563678264617919921875</LatitudeDegrees>
              <LongitudeDegrees>-16.6213513724505901336669921875</LongitudeDegrees>
            </Position>
            <AltitudeMeters>2988.800048828125</AltitudeMeters>
            <DistanceMeters>6692.1188151606</DistanceMeters>
          </Trackpoint>
          <Trackpoint>
            <Time>2019-04-07T14:17:25.000Z</Time>
            <Position>
              <LatitudeDegrees>28.27263540588319301605224609375</LatitudeDegrees>
              <LongitudeDegrees>-16.6213460080325603485107421875</LongitudeDegrees>
            </Position>
            <AltitudeMeters>2989.199951171875</AltitudeMeters>
            <DistanceMeters>6693.0000566565</DistanceMeters>
          </Trackpoint>
          <Trackpoint>
            <Time>2019-04-07T14:17:31.000Z</Time>
            <Position>
              <LatitudeDegrees>28.2726688496768474578857421875</LatitudeDegrees>
              <LongitudeDegrees>-16.621329076588153839111328125</LongitudeDegrees>
            </Position>
            <AltitudeMeters>2989.39990234375</AltitudeMeters>
            <DistanceMeters>6697.0762485873</DistanceMeters>
          </Trackpoint>
          <Trackpoint>
            <Time>2019-04-07T14:17:38.000Z</Time>
            <Position>
              <LatitudeDegrees>28.27272224240005016326904296875</LatitudeDegrees>
              <LongitudeDegrees>-16.62131306715309619903564453125</LongitudeDegrees>
            </Position>
            <AltitudeMeters>2988.60009765625</AltitudeMeters>
            <DistanceMeters>6703.2229419945</DistanceMeters>
          </Trackpoint>
          <Trackpoint>
            <Time>2019-04-07T14:17:41.000Z</Time>
            <Position>
              <LatitudeDegrees>28.27274219132959842681884765625</LatitudeDegrees>
              <LongitudeDegrees>-16.62129999138414859771728515625</LongitudeDegrees>
            </Position>
            <AltitudeMeters>2989</AltitudeMeters>
            <DistanceMeters>6705.7869029246</DistanceMeters>
          </Trackpoint>
          <Trackpoint>
            <Time>2019-04-07T14:17:47.000Z</Time>
            <Position>
              <LatitudeDegrees>28.27276582829654216766357421875</LatitudeDegrees>
              <LongitudeDegrees>-16.62132731638848781585693359375</LongitudeDegrees>
            </Position>
            <AltitudeMeters>2990.199951171875</AltitudeMeters>
            <DistanceMeters>6709.5413601862</DistanceMeters>
          </Trackpoint>
          <Trackpoint>
            <Time>2019-04-07T14:17:53.000Z</Time>
            <Position>
              <LatitudeDegrees>28.27275727875530719757080078125</LatitudeDegrees>
              <LongitudeDegrees>-16.621373333036899566650390625</LongitudeDegrees>
            </Position>
            <AltitudeMeters>2991.199951171875</AltitudeMeters>
            <DistanceMeters>6714.1518699139</DistanceMeters>
          </Trackpoint>
          <Trackpoint>
            <Time>2019-04-07T14:17:56.000Z</Time>
            <Position>
              <LatitudeDegrees>28.27275057323276996612548828125</LatitudeDegrees>
              <LongitudeDegrees>-16.62138984538614749908447265625</LongitudeDegrees>
            </Position>
            <AltitudeMeters>2991.800048828125</AltitudeMeters>
            <DistanceMeters>6715.9347291086</DistanceMeters>
          </Trackpoint>
          <Trackpoint>
            <Time>2019-04-07T14:17:59.000Z</Time>
            <Position>
              <LatitudeDegrees>28.272744119167327880859375</LatitudeDegrees>
              <LongitudeDegrees>-16.62140258587896823883056640625</LongitudeDegrees>
            </Position>
            <AltitudeMeters>2992.199951171875</AltitudeMeters>
            <DistanceMeters>6717.3758805865</DistanceMeters>
          </Trackpoint>
          <Trackpoint>
            <Time>2019-04-07T14:18:07.000Z</Time>
            <Position>
              <LatitudeDegrees>28.2727288641035556793212890625</LatitudeDegrees>
              <LongitudeDegrees>-16.62144835107028484344482421875</LongitudeDegrees>
            </Position>
            <AltitudeMeters>2993.39990234375</AltitudeMeters>
            <DistanceMeters>6722.1726122633</DistanceMeters>
          </Trackpoint>
          <Trackpoint>
            <Time>2019-04-07T14:18:14.000Z</Time>
            <Position>
              <LatitudeDegrees>28.2727615535259246826171875</LatitudeDegrees>
              <LongitudeDegrees>-16.6214750893414020538330078125</LongitudeDegrees>
            </Position>
            <AltitudeMeters>2994.60009765625</AltitudeMeters>
            <DistanceMeters>6726.6580342409</DistanceMeters>
          </Trackpoint>
          <Trackpoint>
            <Time>2019-04-07T14:18:15.000Z</Time>
            <Position>
              <LatitudeDegrees>28.27276616357266902923583984375</LatitudeDegrees>
              <LongitudeDegrees>-16.621479280292987823486328125</LongitudeDegrees>
            </Position>
            <AltitudeMeters>2994.800048828125</AltitudeMeters>
            <DistanceMeters>6727.3163986303</DistanceMeters>
          </Trackpoint>
          <Trackpoint>
            <Time>2019-04-07T14:18:22.000Z</Time>
            <Position>
              <LatitudeDegrees>28.27277873642742633819580078125</LatitudeDegrees>
              <LongitudeDegrees>-16.62150450982153415679931640625</LongitudeDegrees>
            </Position>
            <AltitudeMeters>2995.60009765625</AltitudeMeters>
            <DistanceMeters>6730.1576814992</DistanceMeters>
          </Trackpoint>
          <Trackpoint>
            <Time>2019-04-07T14:18:26.000Z</Time>
            <Position>
              <LatitudeDegrees>28.27279399149119853973388671875</LatitudeDegrees>
              <LongitudeDegrees>-16.621501743793487548828125</LongitudeDegrees>
            </Position>
            <AltitudeMeters>2996.199951171875</AltitudeMeters>
            <DistanceMeters>6731.8786884932</DistanceMeters>
          </Trackpoint>
          <Trackpoint>
            <Time>2019-04-07T14:18:28.000Z</Time>
            <Position>
              <LatitudeDegrees>28.272800445556640625</LatitudeDegrees>
              <LongitudeDegrees>-16.62150719203054904937744140625</LongitudeDegrees>
            </Position>
            <AltitudeMeters>2996.60009765625</AltitudeMeters>
            <DistanceMeters>6732.7801910612</DistanceMeters>
          </Trackpoint>
          <Trackpoint>
            <Time>2019-04-07T14:18:33.000Z</Time>
            <Position>
              <LatitudeDegrees>28.27281276695430278778076171875</LatitudeDegrees>
              <LongitudeDegrees>-16.6215324215590953826904296875</LongitudeDegrees>
            </Position>
            <AltitudeMeters>2997.60009765625</AltitudeMeters>
            <DistanceMeters>6735.6071359939</DistanceMeters>
          </Trackpoint>
          <Trackpoint>
            <Time>2019-04-07T14:18:37.000Z</Time>
            <Position>
              <LatitudeDegrees>28.2728019542992115020751953125</LatitudeDegrees>
              <LongitudeDegrees>-16.621550023555755615234375</LongitudeDegrees>
            </Position>
            <AltitudeMeters>2998.39990234375</AltitudeMeters>
            <DistanceMeters>6737.7106419857</DistanceMeters>
          </Trackpoint>
          <Trackpoint>
            <Time>2019-04-07T14:18:38.000Z</Time>
            <Position>
              <LatitudeDegrees>28.27279885299503803253173828125</LatitudeDegrees>
              <LongitudeDegrees>-16.62155278958380222320556640625</LongitudeDegrees>
            </Position>
            <AltitudeMeters>2998.800048828125</AltitudeMeters>
            <DistanceMeters>6738.1356143717</DistanceMeters>
          </Trackpoint>
          <Trackpoint>
            <Time>2019-04-07T14:18:40.000Z</Time>
            <Position>
              <LatitudeDegrees>28.2727969251573085784912109375</LatitudeDegrees>
              <LongitudeDegrees>-16.62155781872570514678955078125</LongitudeDegrees>
            </Position>
            <AltitudeMeters>2999</AltitudeMeters>
            <DistanceMeters>6738.6647007255</DistanceMeters>
          </Trackpoint>
          <Trackpoint>
            <Time>2019-04-07T14:18:45.000Z</Time>
            <Position>
              <LatitudeDegrees>28.27279415912926197052001953125</LatitudeDegrees>
              <LongitudeDegrees>-16.62157692946493625640869140625</LongitudeDegrees>
            </Position>
            <AltitudeMeters>2999.60009765625</AltitudeMeters>
            <DistanceMeters>6740.5628578584</DistanceMeters>
          </Trackpoint>
          <Trackpoint>
            <Time>2019-04-07T14:18:48.000Z</Time>
            <Position>
              <LatitudeDegrees>28.27278795652091503143310546875</LatitudeDegrees>
              <LongitudeDegrees>-16.6215884126722812652587890625</LongitudeDegrees>
            </Position>
            <AltitudeMeters>3000</AltitudeMeters>
            <DistanceMeters>6741.8830111653</DistanceMeters>
          </Trackpoint>
          <Trackpoint>
            <Time>2019-04-07T14:18:53.000Z</Time>
            <Position>
              <LatitudeDegrees>28.2727848552167415618896484375</LatitudeDegrees>
              <LongitudeDegrees>-16.62159855477511882781982421875</LongitudeDegrees>
            </Position>
            <AltitudeMeters>3000.800048828125</AltitudeMeters>
            <DistanceMeters>6742.9326155318</DistanceMeters>
          </Trackpoint>
          <Trackpoint>
            <Time>2019-04-07T14:18:58.000Z</Time>
            <Position>
              <LatitudeDegrees>28.272801451385021209716796875</LatitudeDegrees>
              <LongitudeDegrees>-16.62159117870032787322998046875</LongitudeDegrees>
            </Position>
            <AltitudeMeters>3001.39990234375</AltitudeMeters>
            <DistanceMeters>6744.9145547975</DistanceMeters>
          </Trackpoint>
          <Trackpoint>
            <Time>2019-04-07T14:19:02.000Z</Time>
            <Position>
              <LatitudeDegrees>28.27281377278268337249755859375</LatitudeDegrees>
              <LongitudeDegrees>-16.6215921007096767425537109375</LongitudeDegrees>
            </Position>
            <AltitudeMeters>3001.800048828125</AltitudeMeters>
            <DistanceMeters>6746.2916227164</DistanceMeters>
          </Trackpoint>
          <Trackpoint>
            <Time>2019-04-07T14:19:10.000Z</Time>
            <Position>
              <LatitudeDegrees>28.27282500453293323516845703125</LatitudeDegrees>
              <LongitudeDegrees>-16.62162856198847293853759765625</LongitudeDegrees>
            </Position>
            <AltitudeMeters>3002.800048828125</AltitudeMeters>
            <DistanceMeters>6750.079602583</DistanceMeters>
          </Trackpoint>
          <Trackpoint>
            <Time>2019-04-07T14:19:11.000Z</Time>
            <Position>
              <LatitudeDegrees>28.27282391488552093505859375</LatitudeDegrees>
              <LongitudeDegrees>-16.62163459695875644683837890625</LongitudeDegrees>
            </Position>
            <AltitudeMeters>3003</AltitudeMeters>
            <DistanceMeters>6750.688070441</DistanceMeters>
          </Trackpoint>
          <Trackpoint>
            <Time>2019-04-07T14:19:18.000Z</Time>
            <Position>
              <LatitudeDegrees>28.2728146947920322418212890625</LatitudeDegrees>
              <LongitudeDegrees>-16.62166091613471508026123046875</LongitudeDegrees>
            </Position>
            <AltitudeMeters>3004</AltitudeMeters>
            <DistanceMeters>6753.4634362199</DistanceMeters>
          </Trackpoint>
          <Trackpoint>
            <Time>2019-04-07T14:19:19.000Z</Time>
            <Position>
              <LatitudeDegrees>28.2728110067546367645263671875</LatitudeDegrees>
              <LongitudeDegrees>-16.62166410125792026519775390625</LongitudeDegrees>
            </Position>
            <AltitudeMeters>3004.199951171875</AltitudeMeters>
            <DistanceMeters>6753.9839189701</DistanceMeters>
          </Trackpoint>
          <Trackpoint>
            <Time>2019-04-07T14:19:28.000Z</Time>
            <Position>
              <LatitudeDegrees>28.27280505560338497161865234375</LatitudeDegrees>
              <LongitudeDegrees>-16.621703244745731353759765625</LongitudeDegrees>
            </Position>
            <AltitudeMeters>3005</AltitudeMeters>
            <DistanceMeters>6757.8776958448</DistanceMeters>
          </Trackpoint>
          <Trackpoint>
            <Time>2019-04-07T14:19:29.000Z</Time>
            <Position>
              <LatitudeDegrees>28.2728029601275920867919921875</LatitudeDegrees>
              <LongitudeDegrees>-16.62170869298279285430908203125</LongitudeDegrees>
            </Position>
            <AltitudeMeters>3005.199951171875</AltitudeMeters>
            <DistanceMeters>6758.4634798535</DistanceMeters>
          </Trackpoint>
          <Trackpoint>
            <Time>2019-04-07T14:19:33.000Z</Time>
            <Position>
              <LatitudeDegrees>28.27280379831790924072265625</LatitudeDegrees>
              <LongitudeDegrees>-16.6217151470482349395751953125</LongitudeDegrees>
            </Position>
            <AltitudeMeters>3006</AltitudeMeters>
            <DistanceMeters>6759.1079823876</DistanceMeters>
          </Trackpoint>
          <Trackpoint>
            <Time>2019-04-07T14:19:39.000Z</Time>
            <Position>
              <LatitudeDegrees>28.2727964222431182861328125</LatitudeDegrees>
              <LongitudeDegrees>-16.621733419597148895263671875</LongitudeDegrees>
            </Position>
            <AltitudeMeters>3006</AltitudeMeters>
            <DistanceMeters>6761.0784982771</DistanceMeters>
          </Trackpoint>
          <Trackpoint>
            <Time>2019-04-07T14:19:45.000Z</Time>
            <Position>
              <LatitudeDegrees>28.27277270145714282989501953125</LatitudeDegrees>
              <LongitudeDegrees>-16.62175797857344150543212890625</LongitudeDegrees>
            </Position>
            <AltitudeMeters>3007.199951171875</AltitudeMeters>
            <DistanceMeters>6764.6505422319</DistanceMeters>
          </Trackpoint>
          <Trackpoint>
            <Time>2019-04-07T14:19:51.000Z</Time>
            <Position>
              <LatitudeDegrees>28.27275845222175121307373046875</LatitudeDegrees>
              <LongitudeDegrees>-16.6217845492064952850341796875</LongitudeDegrees>
            </Position>
            <AltitudeMeters>3008.199951171875</AltitudeMeters>
            <DistanceMeters>6767.7002928344</DistanceMeters>
          </Trackpoint>
          <Trackpoint>
            <Time>2019-04-07T14:19:52.000Z</Time>
            <Position>
              <LatitudeDegrees>28.2727583684027194976806640625</LatitudeDegrees>
              <LongitudeDegrees>-16.621789745986461639404296875</LongitudeDegrees>
            </Position>
            <AltitudeMeters>3008.39990234375</AltitudeMeters>
            <DistanceMeters>6768.2120273524</DistanceMeters>
          </Trackpoint>
          <Trackpoint>
            <Time>2019-04-07T14:19:58.000Z</Time>
            <Position>
              <LatitudeDegrees>28.27275325544178485870361328125</LatitudeDegrees>
              <LongitudeDegrees>-16.6218180768191814422607421875</LongitudeDegrees>
            </Position>
            <AltitudeMeters>3009.39990234375</AltitudeMeters>
            <DistanceMeters>6771.0469467578</DistanceMeters>
          </Trackpoint>
          <Trackpoint>
            <Time>2019-04-07T14:20:02.000Z</Time>
            <Position>
              <LatitudeDegrees>28.272759206593036651611328125</LatitudeDegrees>
              <LongitudeDegrees>-16.62183525972068309783935546875</LongitudeDegrees>
            </Position>
            <AltitudeMeters>3010</AltitudeMeters>
            <DistanceMeters>6772.8574488288</DistanceMeters>
          </Trackpoint>
          <Trackpoint>
            <Time>2019-04-07T14:20:08.000Z</Time>
            <Position>
              <LatitudeDegrees>28.27277236618101596832275390625</LatitudeDegrees>
              <LongitudeDegrees>-16.6218490898609161376953125</LongitudeDegrees>
            </Position>
            <AltitudeMeters>3010.60009765625</AltitudeMeters>
            <DistanceMeters>6774.8530098306</DistanceMeters>
          </Trackpoint>
          <Trackpoint>
            <Time>2019-04-07T14:20:13.000Z</Time>
            <Position>
              <LatitudeDegrees>28.27279365621507167816162109375</LatitudeDegrees>
              <LongitudeDegrees>-16.62185185588896274566650390625</LongitudeDegrees>
            </Position>
            <AltitudeMeters>3011</AltitudeMeters>
            <DistanceMeters>6777.2381614315</DistanceMeters>
          </Trackpoint>
          <Trackpoint>
            <Time>2019-04-07T14:20:16.000Z</Time>
            <Position>
              <LatitudeDegrees>28.27280706726014614105224609375</LatitudeDegrees>
              <LongitudeDegrees>-16.62185202352702617645263671875</LongitudeDegrees>
            </Position>
            <AltitudeMeters>3011.60009765625</AltitudeMeters>
            <DistanceMeters>6778.7316234771</DistanceMeters>
          </Trackpoint>
          <Trackpoint>
            <Time>2019-04-07T14:20:20.000Z</Time>
            <Position>
              <LatitudeDegrees>28.27281461097300052642822265625</LatitudeDegrees>
              <LongitudeDegrees>-16.621871553361415863037109375</LongitudeDegrees>
            </Position>
            <AltitudeMeters>3012</AltitudeMeters>
            <DistanceMeters>6780.8222111933</DistanceMeters>
          </Trackpoint>
          <Trackpoint>
            <Time>2019-04-07T14:20:25.000Z</Time>
            <Position>
              <LatitudeDegrees>28.27279835008084774017333984375</LatitudeDegrees>
              <LongitudeDegrees>-16.62189410068094730377197265625</LongitudeDegrees>
            </Position>
            <AltitudeMeters>3012.800048828125</AltitudeMeters>
            <DistanceMeters>6783.6793407153</DistanceMeters>
          </Trackpoint>
          <Trackpoint>
            <Time>2019-04-07T14:20:30.000Z</Time>
            <Position>
              <LatitudeDegrees>28.27277789823710918426513671875</LatitudeDegrees>
              <LongitudeDegrees>-16.6219173185527324676513671875</LongitudeDegrees>
            </Position>
            <AltitudeMeters>3013.199951171875</AltitudeMeters>
            <DistanceMeters>6786.8990499813</DistanceMeters>
          </Trackpoint>
          <Trackpoint>
            <Time>2019-04-07T14:20:32.000Z</Time>
            <Position>
              <LatitudeDegrees>28.2727701030671596527099609375</LatitudeDegrees>
              <LongitudeDegrees>-16.62192628718912601470947265625</LongitudeDegrees>
            </Position>
            <AltitudeMeters>3013.60009765625</AltitudeMeters>
            <DistanceMeters>6788.1307369718</DistanceMeters>
          </Trackpoint>
          <Trackpoint>
            <Time>2019-04-07T14:20:39.000Z</Time>
            <Position>
              <LatitudeDegrees>28.27275560237467288970947265625</LatitudeDegrees>
              <LongitudeDegrees>-16.62195897661149501800537109375</LongitudeDegrees>
            </Position>
            <AltitudeMeters>3014.60009765625</AltitudeMeters>
            <DistanceMeters>6791.7179167739</DistanceMeters>
          </Trackpoint>
          <Trackpoint>
            <Time>2019-04-07T14:20:40.000Z</Time>
            <Position>
              <LatitudeDegrees>28.27275476418435573577880859375</LatitudeDegrees>
              <LongitudeDegrees>-16.62196417339146137237548828125</LongitudeDegrees>
            </Position>
            <AltitudeMeters>3014.800048828125</AltitudeMeters>
            <DistanceMeters>6792.2296512918</DistanceMeters>
          </Trackpoint>
          <Trackpoint>
            <Time>2019-04-07T14:20:49.000Z</Time>
            <Position>
              <LatitudeDegrees>28.2727201469242572784423828125</LatitudeDegrees>
              <LongitudeDegrees>-16.622006334364414215087890625</LongitudeDegrees>
            </Position>
            <AltitudeMeters>3015.800048828125</AltitudeMeters>
            <DistanceMeters>6797.8795468864</DistanceMeters>
          </Trackpoint>
          <Trackpoint>
            <Time>2019-04-07T14:20:50.000Z</Time>
            <Position>
              <LatitudeDegrees>28.2727188058197498321533203125</LatitudeDegrees>
              <LongitudeDegrees>-16.6220098547637462615966796875</LongitudeDegrees>
            </Position>
            <AltitudeMeters>3016</AltitudeMeters>
            <DistanceMeters>6798.2475837686</DistanceMeters>
          </Trackpoint>
          <Trackpoint>
            <Time>2019-04-07T14:20:58.000Z</Time>
            <Position>
              <LatitudeDegrees>28.2727174647152423858642578125</LatitudeDegrees>
              <LongitudeDegrees>-16.6220329888164997100830078125</LongitudeDegrees>
            </Position>
            <AltitudeMeters>3016.800048828125</AltitudeMeters>
            <DistanceMeters>6800.5183047223</DistanceMeters>
          </Trackpoint>
          <Trackpoint>
            <Time>2019-04-07T14:20:59.000Z</Time>
            <Position>
              <LatitudeDegrees>28.27271528542041778564453125</LatitudeDegrees>
              <LongitudeDegrees>-16.622039191424846649169921875</LongitudeDegrees>
            </Position>
            <AltitudeMeters>3017</AltitudeMeters>
            <DistanceMeters>6801.1697750538</DistanceMeters>
          </Trackpoint>
          <Trackpoint>
            <Time>2019-04-07T14:21:07.000Z</Time>
            <Position>
              <LatitudeDegrees>28.27270329929888248443603515625</LatitudeDegrees>
              <LongitudeDegrees>-16.6220685280859470367431640625</LongitudeDegrees>
            </Position>
            <AltitudeMeters>3018.199951171875</AltitudeMeters>
            <DistanceMeters>6804.338598969</DistanceMeters>
          </Trackpoint>
          <Trackpoint>
            <Time>2019-04-07T14:21:15.000Z</Time>
            <Position>
              <LatitudeDegrees>28.272716291248798370361328125</LatitudeDegrees>
              <LongitudeDegrees>-16.622105576097965240478515625</LongitudeDegrees>
            </Position>
            <AltitudeMeters>3019</AltitudeMeters>
            <DistanceMeters>6808.2485758768</DistanceMeters>
          </Trackpoint>
          <Trackpoint>
            <Time>2019-04-07T14:21:24.000Z</Time>
            <Position>
              <LatitudeDegrees>28.2727526687085628509521484375</LatitudeDegrees>
              <LongitudeDegrees>-16.6221131198108196258544921875</LongitudeDegrees>
            </Position>
            <AltitudeMeters>3020</AltitudeMeters>
            <DistanceMeters>6812.363353311</DistanceMeters>
          </Trackpoint>
          <Trackpoint>
            <Time>2019-04-07T14:21:25.000Z</Time>
            <Position>
              <LatitudeDegrees>28.27275727875530719757080078125</LatitudeDegrees>
              <LongitudeDegrees>-16.62211286835372447967529296875</LongitudeDegrees>
            </Position>
            <AltitudeMeters>3020</AltitudeMeters>
            <DistanceMeters>6812.8838360612</DistanceMeters>
          </Trackpoint>
          <Trackpoint>
            <Time>2019-04-07T14:21:33.000Z</Time>
            <Position>
              <LatitudeDegrees>28.27279600314795970916748046875</LatitudeDegrees>
              <LongitudeDegrees>-16.62209962494671344757080078125</LongitudeDegrees>
            </Position>
            <AltitudeMeters>3021</AltitudeMeters>
            <DistanceMeters>6817.3853348717</DistanceMeters>
          </Trackpoint>
          <Trackpoint>
            <Time>2019-04-07T14:21:34.000Z</Time>
            <Position>
              <LatitudeDegrees>28.272801451385021209716796875</LatitudeDegrees>
              <LongitudeDegrees>-16.62209761328995227813720703125</LongitudeDegrees>
            </Position>
            <AltitudeMeters>3021.199951171875</AltitudeMeters>
            <DistanceMeters>6818.0227934507</DistanceMeters>
          </Trackpoint>
          <Trackpoint>
            <Time>2019-04-07T14:21:40.000Z</Time>
            <Position>
              <LatitudeDegrees>28.27282634563744068145751953125</LatitudeDegrees>
              <LongitudeDegrees>-16.62209308706223964691162109375</LongitudeDegrees>
            </Position>
            <AltitudeMeters>3022.199951171875</AltitudeMeters>
            <DistanceMeters>6820.828898698</DistanceMeters>
          </Trackpoint>
          <Trackpoint>
            <Time>2019-04-07T14:21:44.000Z</Time>
            <Position>
              <LatitudeDegrees>28.272841684520244598388671875</LatitudeDegrees>
              <LongitudeDegrees>-16.6220896504819393157958984375</LongitudeDegrees>
            </Position>
            <AltitudeMeters>3022.60009765625</AltitudeMeters>
            <DistanceMeters>6822.5655752748</DistanceMeters>
          </Trackpoint>
          <Trackpoint>
            <Time>2019-04-07T14:21:49.000Z</Time>
            <Position>
              <LatitudeDegrees>28.27285517938435077667236328125</LatitudeDegrees>
              <LongitudeDegrees>-16.6220889799296855926513671875</LongitudeDegrees>
            </Position>
            <AltitudeMeters>3023.199951171875</AltitudeMeters>
            <DistanceMeters>6824.0710815642</DistanceMeters>
          </Trackpoint>
          <Trackpoint>
            <Time>2019-04-07T14:21:52.000Z</Time>
            <Position>
              <LatitudeDegrees>28.27286305837333202362060546875</LatitudeDegrees>
              <LongitudeDegrees>-16.62209987640380859375</LongitudeDegrees>
            </Position>
            <AltitudeMeters>3023.60009765625</AltitudeMeters>
            <DistanceMeters>6825.4514243222</DistanceMeters>
          </Trackpoint>
          <Trackpoint>
            <Time>2019-04-07T14:21:53.000Z</Time>
            <Position>
              <LatitudeDegrees>28.27286012470722198486328125</LatitudeDegrees>
              <LongitudeDegrees>-16.62210565991699695587158203125</LongitudeDegrees>
            </Position>
            <AltitudeMeters>3023.800048828125</AltitudeMeters>
            <DistanceMeters>6826.1097887117</DistanceMeters>
          </Trackpoint>
          <Trackpoint>
            <Time>2019-04-07T14:21:57.000Z</Time>
            <Position>
              <LatitudeDegrees>28.27284964732825756072998046875</LatitudeDegrees>
              <LongitudeDegrees>-16.6221282072365283966064453125</LongitudeDegrees>
            </Position>
            <AltitudeMeters>3024.39990234375</AltitudeMeters>
            <DistanceMeters>6828.611356815</DistanceMeters>
          </Trackpoint>
          <Trackpoint>
            <Time>2019-04-07T14:22:01.000Z</Time>
            <Position>
              <LatitudeDegrees>28.27286054380238056182861328125</LatitudeDegrees>
              <LongitudeDegrees>-16.622140109539031982421875</LongitudeDegrees>
            </Position>
            <AltitudeMeters>3025</AltitudeMeters>
            <DistanceMeters>6830.2952344838</DistanceMeters>
          </Trackpoint>
          <Trackpoint>
            <Time>2019-04-07T14:22:04.000Z</Time>
            <Position>
              <LatitudeDegrees>28.2728716917335987091064453125</LatitudeDegrees>
              <LongitudeDegrees>-16.6221453063189983367919921875</LongitudeDegrees>
            </Position>
            <AltitudeMeters>3025.39990234375</AltitudeMeters>
            <DistanceMeters>6831.6391151663</DistanceMeters>
          </Trackpoint>
          <Trackpoint>
            <Time>2019-04-07T14:22:09.000Z</Time>
            <Position>
              <LatitudeDegrees>28.27288351021707057952880859375</LatitudeDegrees>
              <LongitudeDegrees>-16.62216265685856342315673828125</LongitudeDegrees>
            </Position>
            <AltitudeMeters>3026</AltitudeMeters>
            <DistanceMeters>6833.7872234184</DistanceMeters>
          </Trackpoint>
          <Trackpoint>
            <Time>2019-04-07T14:22:12.000Z</Time>
            <Position>
              <LatitudeDegrees>28.27288233675062656402587890625</LatitudeDegrees>
              <LongitudeDegrees>-16.62217698991298675537109375</LongitudeDegrees>
            </Position>
            <AltitudeMeters>3026.39990234375</AltitudeMeters>
            <DistanceMeters>6835.203089574</DistanceMeters>
          </Trackpoint>
          <Trackpoint>
            <Time>2019-04-07T14:22:18.000Z</Time>
            <Position>
              <LatitudeDegrees>28.27285945415496826171875</LatitudeDegrees>
              <LongitudeDegrees>-16.622207164764404296875</LongitudeDegrees>
            </Position>
            <AltitudeMeters>3026.800048828125</AltitudeMeters>
            <DistanceMeters>6839.106131844</DistanceMeters>
          </Trackpoint>
          <Trackpoint>
            <Time>2019-04-07T14:22:21.000Z</Time>
            <Position>
              <LatitudeDegrees>28.2728468813002109527587890625</LatitudeDegrees>
              <LongitudeDegrees>-16.62221990525722503662109375</LongitudeDegrees>
            </Position>
            <AltitudeMeters>3027.39990234375</AltitudeMeters>
            <DistanceMeters>6840.982759088</DistanceMeters>
          </Trackpoint>
          <Trackpoint>
            <Time>2019-04-07T14:22:27.000Z</Time>
            <Position>
              <LatitudeDegrees>28.272826932370662689208984375</LatitudeDegrees>
              <LongitudeDegrees>-16.622247397899627685546875</LongitudeDegrees>
            </Position>
            <AltitudeMeters>3028.39990234375</AltitudeMeters>
            <DistanceMeters>6844.4742635201</DistanceMeters>
          </Trackpoint>
          <Trackpoint>
            <Time>2019-04-07T14:22:28.000Z</Time>
            <Position>
              <LatitudeDegrees>28.2728259265422821044921875</LatitudeDegrees>
              <LongitudeDegrees>-16.622253097593784332275390625</LongitudeDegrees>
            </Position>
            <AltitudeMeters>3028.39990234375</AltitudeMeters>
            <DistanceMeters>6845.0444238063</DistanceMeters>
          </Trackpoint>
          <Trackpoint>
            <Time>2019-04-07T14:22:34.000Z</Time>
            <Position>
              <LatitudeDegrees>28.272815532982349395751953125</LatitudeDegrees>
              <LongitudeDegrees>-16.62228737957775592803955078125</LongitudeDegrees>
            </Position>
            <AltitudeMeters>3029.60009765625</AltitudeMeters>
            <DistanceMeters>6848.5974572805</DistanceMeters>
          </Trackpoint>
          <Trackpoint>
            <Time>2019-04-07T14:22:36.000Z</Time>
            <Position>
              <LatitudeDegrees>28.2728069834411144256591796875</LatitudeDegrees>
              <LongitudeDegrees>-16.62229525856673717498779296875</LongitudeDegrees>
            </Position>
            <AltitudeMeters>3030</AltitudeMeters>
            <DistanceMeters>6849.8217908501</DistanceMeters>
          </Trackpoint>
          <Trackpoint>
            <Time>2019-04-07T14:22:39.000Z</Time>
            <Position>
              <LatitudeDegrees>28.2727962546050548553466796875</LatitudeDegrees>
              <LongitudeDegrees>-16.62230766378343105316162109375</LongitudeDegrees>
            </Position>
            <AltitudeMeters>3030.60009765625</AltitudeMeters>
            <DistanceMeters>6851.5269842746</DistanceMeters>
          </Trackpoint>
          <Trackpoint>
            <Time>2019-04-07T14:22:44.000Z</Time>
            <Position>
              <LatitudeDegrees>28.27278058044612407684326171875</LatitudeDegrees>
              <LongitudeDegrees>-16.622318141162395477294921875</LongitudeDegrees>
            </Position>
            <AltitudeMeters>3031.39990234375</AltitudeMeters>
            <DistanceMeters>6853.5517446816</DistanceMeters>
          </Trackpoint>
          <Trackpoint>
            <Time>2019-04-07T14:22:46.000Z</Time>
            <Position>
              <LatitudeDegrees>28.27278577722609043121337890625</LatitudeDegrees>
              <LongitudeDegrees>-16.6223230026662349700927734375</LongitudeDegrees>
            </Position>
            <AltitudeMeters>3031.60009765625</AltitudeMeters>
            <DistanceMeters>6854.2999857788</DistanceMeters>
          </Trackpoint>
          <Trackpoint>
            <Time>2019-04-07T14:22:54.000Z</Time>
            <Position>
              <LatitudeDegrees>28.27278829179704189300537109375</LatitudeDegrees>
              <LongitudeDegrees>-16.62234328687191009521484375</LongitudeDegrees>
            </Position>
            <AltitudeMeters>3032.60009765625</AltitudeMeters>
            <DistanceMeters>6856.3045765145</DistanceMeters>
          </Trackpoint>
          <Trackpoint>
            <Time>2019-04-07T14:22:55.000Z</Time>
            <Position>
              <LatitudeDegrees>28.27278980053961277008056640625</LatitudeDegrees>
              <LongitudeDegrees>-16.622346304357051849365234375</LongitudeDegrees>
            </Position>
            <AltitudeMeters>3032.800048828125</AltitudeMeters>
            <DistanceMeters>6856.6337587092</DistanceMeters>
          </Trackpoint>
          <Trackpoint>
            <Time>2019-04-07T14:23:02.000Z</Time>
            <Position>
              <LatitudeDegrees>28.272781670093536376953125</LatitudeDegrees>
              <LongitudeDegrees>-16.62237321026623249053955078125</LongitudeDegrees>
            </Position>
            <AltitudeMeters>3033.800048828125</AltitudeMeters>
            <DistanceMeters>6859.420489005</DistanceMeters>
          </Trackpoint>
          <Trackpoint>
            <Time>2019-04-07T14:23:11.000Z</Time>
            <Position>
              <LatitudeDegrees>28.272800780832767486572265625</LatitudeDegrees>
              <LongitudeDegrees>-16.62242031656205654144287109375</LongitudeDegrees>
            </Position>
            <AltitudeMeters>3034.800048828125</AltitudeMeters>
            <DistanceMeters>6864.504196194</DistanceMeters>
          </Trackpoint>
          <Trackpoint>
            <Time>2019-04-07T14:23:20.000Z</Time>
            <Position>
              <LatitudeDegrees>28.27283623628318309783935546875</LatitudeDegrees>
              <LongitudeDegrees>-16.62247161380946636199951171875</LongitudeDegrees>
            </Position>
            <AltitudeMeters>3035.800048828125</AltitudeMeters>
            <DistanceMeters>6870.8964646418</DistanceMeters>
          </Trackpoint>
          <Trackpoint>
            <Time>2019-04-07T14:23:21.000Z</Time>
            <Position>
              <LatitudeDegrees>28.27283866703510284423828125</LatitudeDegrees>
              <LongitudeDegrees>-16.62247982807457447052001953125</LongitudeDegrees>
            </Position>
            <AltitudeMeters>3036</AltitudeMeters>
            <DistanceMeters>6871.7464094138</DistanceMeters>
          </Trackpoint>
          <Trackpoint>
            <Time>2019-04-07T14:23:27.000Z</Time>
            <Position>
              <LatitudeDegrees>28.27285082079470157623291015625</LatitudeDegrees>
              <LongitudeDegrees>-16.62252894602715969085693359375</LongitudeDegrees>
            </Position>
            <AltitudeMeters>3036.800048828125</AltitudeMeters>
            <DistanceMeters>6876.7477404116</DistanceMeters>
          </Trackpoint>
          <Trackpoint>
            <Time>2019-04-07T14:23:33.000Z</Time>
            <Position>
              <LatitudeDegrees>28.27286817133426666259765625</LatitudeDegrees>
              <LongitudeDegrees>-16.62256448529660701751708984375</LongitudeDegrees>
            </Position>
            <AltitudeMeters>3037.800048828125</AltitudeMeters>
            <DistanceMeters>6880.7298019676</DistanceMeters>
          </Trackpoint>
          <Trackpoint>
            <Time>2019-04-07T14:23:42.000Z</Time>
            <Position>
              <LatitudeDegrees>28.27290530316531658172607421875</LatitudeDegrees>
              <LongitudeDegrees>-16.62258493714034557342529296875</LongitudeDegrees>
            </Position>
            <AltitudeMeters>3039</AltitudeMeters>
            <DistanceMeters>6885.3226506014</DistanceMeters>
          </Trackpoint>
          <Trackpoint>
            <Time>2019-04-07T14:23:43.000Z</Time>
            <Position>
              <LatitudeDegrees>28.272911421954631805419921875</LatitudeDegrees>
              <LongitudeDegrees>-16.6225885413587093353271484375</LongitudeDegrees>
            </Position>
            <AltitudeMeters>3039.199951171875</AltitudeMeters>
            <DistanceMeters>6886.0946512784</DistanceMeters>
          </Trackpoint>
          <Trackpoint>
            <Time>2019-04-07T14:23:52.000Z</Time>
            <Position>
              <LatitudeDegrees>28.272934220731258392333984375</LatitudeDegrees>
              <LongitudeDegrees>-16.62264327518641948699951171875</LongitudeDegrees>
            </Position>
            <AltitudeMeters>3039.800048828125</AltitudeMeters>
            <DistanceMeters>6892.030589139</DistanceMeters>
          </Trackpoint>
          <Trackpoint>
            <Time>2019-04-07T14:23:53.000Z</Time>
            <Position>
              <LatitudeDegrees>28.2729313708841800689697265625</LatitudeDegrees>
              <LongitudeDegrees>-16.6226495616137981414794921875</LongitudeDegrees>
            </Position>
            <AltitudeMeters>3040</AltitudeMeters>
            <DistanceMeters>6892.722394062</DistanceMeters>
          </Trackpoint>
          <Trackpoint>
            <Time>2019-04-07T14:24:00.000Z</Time>
            <Position>
              <LatitudeDegrees>28.2729353941977024078369140625</LatitudeDegrees>
              <LongitudeDegrees>-16.622684933245182037353515625</LongitudeDegrees>
            </Position>
            <AltitudeMeters>3040.60009765625</AltitudeMeters>
            <DistanceMeters>6896.2177757906</DistanceMeters>
          </Trackpoint>
          <Trackpoint>
            <Time>2019-04-07T14:24:01.000Z</Time>
            <Position>
              <LatitudeDegrees>28.2729380764067173004150390625</LatitudeDegrees>
              <LongitudeDegrees>-16.6226847656071186065673828125</LongitudeDegrees>
            </Position>
            <AltitudeMeters>3040.800048828125</AltitudeMeters>
            <DistanceMeters>6896.5182766466</DistanceMeters>
          </Trackpoint>
          <Trackpoint>
            <Time>2019-04-07T14:24:07.000Z</Time>
            <Position>
              <LatitudeDegrees>28.27296213246881961822509765625</LatitudeDegrees>
              <LongitudeDegrees>-16.62267914973199367523193359375</LongitudeDegrees>
            </Position>
            <AltitudeMeters>3041.800048828125</AltitudeMeters>
            <DistanceMeters>6899.2510176184</DistanceMeters>
          </Trackpoint>
          <Trackpoint>
            <Time>2019-04-07T14:24:09.000Z</Time>
            <Position>
              <LatitudeDegrees>28.2729689218103885650634765625</LatitudeDegrees>
              <LongitudeDegrees>-16.62268166430294513702392578125</LongitudeDegrees>
            </Position>
            <AltitudeMeters>3042.199951171875</AltitudeMeters>
            <DistanceMeters>6900.0460681521</DistanceMeters>
          </Trackpoint>
          <Trackpoint>
            <Time>2019-04-07T14:24:16.000Z</Time>
            <Position>
              <LatitudeDegrees>28.27298979274928569793701171875</LatitudeDegrees>
              <LongitudeDegrees>-16.6227095760405063629150390625</LongitudeDegrees>
            </Position>
            <AltitudeMeters>3042.800048828125</AltitudeMeters>
            <DistanceMeters>6903.6357643907</DistanceMeters>
          </Trackpoint>
          <Trackpoint>
            <Time>2019-04-07T14:24:17.000Z</Time>
            <Position>
              <LatitudeDegrees>28.2729940675199031829833984375</LatitudeDegrees>
              <LongitudeDegrees>-16.62270949222147464752197265625</LongitudeDegrees>
            </Position>
            <AltitudeMeters>3043</AltitudeMeters>
            <DistanceMeters>6904.101298315</DistanceMeters>
          </Trackpoint>
          <Trackpoint>
            <Time>2019-04-07T14:24:21.000Z</Time>
            <Position>
              <LatitudeDegrees>28.27300940640270709991455078125</LatitudeDegrees>
              <LongitudeDegrees>-16.6227102465927600860595703125</LongitudeDegrees>
            </Position>
            <AltitudeMeters>3044</AltitudeMeters>
            <DistanceMeters>6905.8117791736</DistanceMeters>
          </Trackpoint>
          <Trackpoint>
            <Time>2019-04-07T14:24:30.000Z</Time>
            <Position>
              <LatitudeDegrees>28.2730383239686489105224609375</LatitudeDegrees>
              <LongitudeDegrees>-16.622731871902942657470703125</LongitudeDegrees>
            </Position>
            <AltitudeMeters>3044.39990234375</AltitudeMeters>
            <DistanceMeters>6909.6659296313</DistanceMeters>
          </Trackpoint>
          <Trackpoint>
            <Time>2019-04-07T14:24:33.000Z</Time>
            <Position>
              <LatitudeDegrees>28.273026086390018463134765625</LatitudeDegrees>
              <LongitudeDegrees>-16.62275358103215694427490234375</LongitudeDegrees>
            </Position>
            <AltitudeMeters>3045</AltitudeMeters>
            <DistanceMeters>6912.1944260466</DistanceMeters>
          </Trackpoint>
          <Trackpoint>
            <Time>2019-04-07T14:24:36.000Z</Time>
            <Position>
              <LatitudeDegrees>28.27301175333559513092041015625</LatitudeDegrees>
              <LongitudeDegrees>-16.62276682443916797637939453125</LongitudeDegrees>
            </Position>
            <AltitudeMeters>3045.39990234375</AltitudeMeters>
            <DistanceMeters>6914.2545561223</DistanceMeters>
          </Trackpoint>
          <Trackpoint>
            <Time>2019-04-07T14:24:39.000Z</Time>
            <Position>
              <LatitudeDegrees>28.2730061374604701995849609375</LatitudeDegrees>
              <LongitudeDegrees>-16.62278107367455959320068359375</LongitudeDegrees>
            </Position>
            <AltitudeMeters>3046.199951171875</AltitudeMeters>
            <DistanceMeters>6915.7868158507</DistanceMeters>
          </Trackpoint>
          <Trackpoint>
            <Time>2019-04-07T14:24:45.000Z</Time>
            <Position>
              <LatitudeDegrees>28.27302030287683010101318359375</LatitudeDegrees>
              <LongitudeDegrees>-16.6227987594902515411376953125</LongitudeDegrees>
            </Position>
            <AltitudeMeters>3047</AltitudeMeters>
            <DistanceMeters>6918.131878015</DistanceMeters>
          </Trackpoint>
          <Trackpoint>
            <Time>2019-04-07T14:24:50.000Z</Time>
            <Position>
              <LatitudeDegrees>28.27303983271121978759765625</LatitudeDegrees>
              <LongitudeDegrees>-16.62281879223883152008056640625</LongitudeDegrees>
            </Position>
            <AltitudeMeters>3047.60009765625</AltitudeMeters>
            <DistanceMeters>6921.0607980586</DistanceMeters>
          </Trackpoint>
          <Trackpoint>
            <Time>2019-04-07T14:24:54.000Z</Time>
            <Position>
              <LatitudeDegrees>28.27305953018367290496826171875</LatitudeDegrees>
              <LongitudeDegrees>-16.62283807061612606048583984375</LongitudeDegrees>
            </Position>
            <AltitudeMeters>3048.39990234375</AltitudeMeters>
            <DistanceMeters>6923.9556056412</DistanceMeters>
          </Trackpoint>
          <Trackpoint>
            <Time>2019-04-07T14:24:55.000Z</Time>
            <Position>
              <LatitudeDegrees>28.273061625659465789794921875</LatitudeDegrees>
              <LongitudeDegrees>-16.622843854129314422607421875</LongitudeDegrees>
            </Position>
            <AltitudeMeters>3048.39990234375</AltitudeMeters>
            <DistanceMeters>6924.5714491364</DistanceMeters>
          </Trackpoint>
          <Trackpoint>
            <Time>2019-04-07T14:25:05.000Z</Time>
            <Position>
              <LatitudeDegrees>28.2730579376220703125</LatitudeDegrees>
              <LongitudeDegrees>-16.62290613166987895965576171875</LongitudeDegrees>
            </Position>
            <AltitudeMeters>3049.199951171875</AltitudeMeters>
            <DistanceMeters>6930.6901660719</DistanceMeters>
          </Trackpoint>
          <Trackpoint>
            <Time>2019-04-07T14:25:08.000Z</Time>
            <Position>
              <LatitudeDegrees>28.27305550687015056610107421875</LatitudeDegrees>
              <LongitudeDegrees>-16.6229228116571903228759765625</LongitudeDegrees>
            </Position>
            <AltitudeMeters>3049.39990234375</AltitudeMeters>
            <DistanceMeters>6932.3470134514</DistanceMeters>
          </Trackpoint>
          <Trackpoint>
            <Time>2019-04-07T14:25:15.000Z</Time>
            <Position>
              <LatitudeDegrees>28.27302650548517704010009765625</LatitudeDegrees>
              <LongitudeDegrees>-16.62293831817805767059326171875</LongitudeDegrees>
            </Position>
            <AltitudeMeters>3050.199951171875</AltitudeMeters>
            <DistanceMeters>6935.9152634127</DistanceMeters>
          </Trackpoint>
          <Trackpoint>
            <Time>2019-04-07T14:25:17.000Z</Time>
            <Position>
              <LatitudeDegrees>28.27301762066781520843505859375</LatitudeDegrees>
              <LongitudeDegrees>-16.62294066511094570159912109375</LongitudeDegrees>
            </Position>
            <AltitudeMeters>3050.60009765625</AltitudeMeters>
            <DistanceMeters>6936.9387324486</DistanceMeters>
          </Trackpoint>
          <Trackpoint>
            <Time>2019-04-07T14:25:23.000Z</Time>
            <Position>
              <LatitudeDegrees>28.2729883678257465362548828125</LatitudeDegrees>
              <LongitudeDegrees>-16.62294737063348293304443359375</LongitudeDegrees>
            </Position>
            <AltitudeMeters>3051.60009765625</AltitudeMeters>
            <DistanceMeters>6940.2605923816</DistanceMeters>
          </Trackpoint>
          <Trackpoint>
            <Time>2019-04-07T14:25:27.000Z</Time>
            <Position>
              <LatitudeDegrees>28.27298258431255817413330078125</LatitudeDegrees>
              <LongitudeDegrees>-16.622949801385402679443359375</LongitudeDegrees>
            </Position>
            <AltitudeMeters>3052</AltitudeMeters>
            <DistanceMeters>6940.945839764</DistanceMeters>
          </Trackpoint>
          <Trackpoint>
            <Time>2019-04-07T14:25:34.000Z</Time>
            <Position>
              <LatitudeDegrees>28.27295660041272640228271484375</LatitudeDegrees>
              <LongitudeDegrees>-16.6229492984712123870849609375</LongitudeDegrees>
            </Position>
            <AltitudeMeters>3052.39990234375</AltitudeMeters>
            <DistanceMeters>6943.8359644517</DistanceMeters>
          </Trackpoint>
          <Trackpoint>
            <Time>2019-04-07T14:25:42.000Z</Time>
            <Position>
              <LatitudeDegrees>28.27295660041272640228271484375</LatitudeDegrees>
              <LongitudeDegrees>-16.62297938950359821319580078125</LongitudeDegrees>
            </Position>
            <AltitudeMeters>3053.39990234375</AltitudeMeters>
            <DistanceMeters>6946.7848563818</DistanceMeters>
          </Trackpoint>
          <Trackpoint>
            <Time>2019-04-07T14:25:44.000Z</Time>
            <Position>
              <LatitudeDegrees>28.2729642279446125030517578125</LatitudeDegrees>
              <LongitudeDegrees>-16.622984670102596282958984375</LongitudeDegrees>
            </Position>
            <AltitudeMeters>3053.60009765625</AltitudeMeters>
            <DistanceMeters>6947.772402966</DistanceMeters>
          </Trackpoint>
          <Trackpoint>
            <Time>2019-04-07T14:25:52.000Z</Time>
            <Position>
              <LatitudeDegrees>28.2729907147586345672607421875</LatitudeDegrees>
              <LongitudeDegrees>-16.62301409058272838592529296875</LongitudeDegrees>
            </Position>
            <AltitudeMeters>3054.800048828125</AltitudeMeters>
            <DistanceMeters>6951.8959492485</DistanceMeters>
          </Trackpoint>
          <Trackpoint>
            <Time>2019-04-07T14:25:54.000Z</Time>
            <Position>
              <LatitudeDegrees>28.27299549244344234466552734375</LatitudeDegrees>
              <LongitudeDegrees>-16.62302414886653423309326171875</LongitudeDegrees>
            </Position>
            <AltitudeMeters>3055.60009765625</AltitudeMeters>
            <DistanceMeters>6953.016297688</DistanceMeters>
          </Trackpoint>
          <Trackpoint>
            <Time>2019-04-07T14:25:57.000Z</Time>
            <Position>
              <LatitudeDegrees>28.27301007695496082305908203125</LatitudeDegrees>
              <LongitudeDegrees>-16.6230331175029277801513671875</LongitudeDegrees>
            </Position>
            <AltitudeMeters>3056.199951171875</AltitudeMeters>
            <DistanceMeters>6954.8613827319</DistanceMeters>
          </Trackpoint>
          <Trackpoint>
            <Time>2019-04-07T14:26:03.000Z</Time>
            <Position>
              <LatitudeDegrees>28.27302533201873302459716796875</LatitudeDegrees>
              <LongitudeDegrees>-16.6230659745633602142333984375</LongitudeDegrees>
            </Position>
            <AltitudeMeters>3056.800048828125</AltitudeMeters>
            <DistanceMeters>6958.5022826508</DistanceMeters>
          </Trackpoint>
          <Trackpoint>
            <Time>2019-04-07T14:26:06.000Z</Time>
            <Position>
              <LatitudeDegrees>28.27302197925746440887451171875</LatitudeDegrees>
              <LongitudeDegrees>-16.6230775415897369384765625</LongitudeDegrees>
            </Position>
            <AltitudeMeters>3057.199951171875</AltitudeMeters>
            <DistanceMeters>6959.6967499288</DistanceMeters>
          </Trackpoint>
          <Trackpoint>
            <Time>2019-04-07T14:26:13.000Z</Time>
            <Position>
              <LatitudeDegrees>28.27303371392190456390380859375</LatitudeDegrees>
              <LongitudeDegrees>-16.623093970119953155517578125</LongitudeDegrees>
            </Position>
            <AltitudeMeters>3058</AltitudeMeters>
            <DistanceMeters>6961.7699880693</DistanceMeters>
          </Trackpoint>
          <Trackpoint>
            <Time>2019-04-07T14:26:14.000Z</Time>
            <Position>
              <LatitudeDegrees>28.27303606085479259490966796875</LatitudeDegrees>
              <LongitudeDegrees>-16.62309723906219005584716796875</LongitudeDegrees>
            </Position>
            <AltitudeMeters>3058</AltitudeMeters>
            <DistanceMeters>6962.1949604554</DistanceMeters>
          </Trackpoint>
          <Trackpoint>
            <Time>2019-04-07T14:26:22.000Z</Time>
            <Position>
              <LatitudeDegrees>28.27304519712924957275390625</LatitudeDegrees>
              <LongitudeDegrees>-16.623132862150669097900390625</LongitudeDegrees>
            </Position>
            <AltitudeMeters>3058.60009765625</AltitudeMeters>
            <DistanceMeters>6965.8321382061</DistanceMeters>
          </Trackpoint>
          <Trackpoint>
            <Time>2019-04-07T14:26:23.000Z</Time>
            <Position>
              <LatitudeDegrees>28.2730443589389324188232421875</LatitudeDegrees>
              <LongitudeDegrees>-16.6231420822441577911376953125</LongitudeDegrees>
            </Position>
            <AltitudeMeters>3059</AltitudeMeters>
            <DistanceMeters>6966.7436024307</DistanceMeters>
          </Trackpoint>
          <Trackpoint>
            <Time>2019-04-07T14:26:30.000Z</Time>
            <Position>
              <LatitudeDegrees>28.27302516438066959381103515625</LatitudeDegrees>
              <LongitudeDegrees>-16.6231652162969112396240234375</LongitudeDegrees>
            </Position>
            <AltitudeMeters>3060</AltitudeMeters>
            <DistanceMeters>6969.857812138</DistanceMeters>
          </Trackpoint>
          <Trackpoint>
            <Time>2019-04-07T14:26:31.000Z</Time>
            <Position>
              <LatitudeDegrees>28.27302281744778156280517578125</LatitudeDegrees>
              <LongitudeDegrees>-16.623167730867862701416015625</LongitudeDegrees>
            </Position>
            <AltitudeMeters>3060.199951171875</AltitudeMeters>
            <DistanceMeters>6970.2133695458</DistanceMeters>
          </Trackpoint>
          <Trackpoint>
            <Time>2019-04-07T14:26:39.000Z</Time>
            <Position>
              <LatitudeDegrees>28.27299834229052066802978515625</LatitudeDegrees>
              <LongitudeDegrees>-16.6231883503496646881103515625</LongitudeDegrees>
            </Position>
            <AltitudeMeters>3060.800048828125</AltitudeMeters>
            <DistanceMeters>6973.605171042</DistanceMeters>
          </Trackpoint>
          <Trackpoint>
            <Time>2019-04-07T14:26:43.000Z</Time>
            <Position>
              <LatitudeDegrees>28.27298291958868503570556640625</LatitudeDegrees>
              <LongitudeDegrees>-16.62318860180675983428955078125</LongitudeDegrees>
            </Position>
            <AltitudeMeters>3061.199951171875</AltitudeMeters>
            <DistanceMeters>6975.3209230406</DistanceMeters>
          </Trackpoint>
          <Trackpoint>
            <Time>2019-04-07T14:26:48.000Z</Time>
            <Position>
              <LatitudeDegrees>28.27296263538300991058349609375</LatitudeDegrees>
              <LongitudeDegrees>-16.62319933064281940460205078125</LongitudeDegrees>
            </Position>
            <AltitudeMeters>3062.39990234375</AltitudeMeters>
            <DistanceMeters>6977.8134503912</DistanceMeters>
          </Trackpoint>
          <Trackpoint>
            <Time>2019-04-07T14:26:49.000Z</Time>
            <Position>
              <LatitudeDegrees>28.2729568518698215484619140625</LatitudeDegrees>
              <LongitudeDegrees>-16.62320427596569061279296875</LongitudeDegrees>
            </Position>
            <AltitudeMeters>3062.39990234375</AltitudeMeters>
            <DistanceMeters>6978.6253589947</DistanceMeters>
          </Trackpoint>
          <Trackpoint>
            <Time>2019-04-07T14:26:55.000Z</Time>
            <Position>
              <LatitudeDegrees>28.272911421954631805419921875</LatitudeDegrees>
              <LongitudeDegrees>-16.6232376359403133392333984375</LongitudeDegrees>
            </Position>
            <AltitudeMeters>3063.39990234375</AltitudeMeters>
            <DistanceMeters>6984.6466343515</DistanceMeters>
          </Trackpoint>
          <Trackpoint>
            <Time>2019-04-07T14:26:57.000Z</Time>
            <Position>
              <LatitudeDegrees>28.27289792709052562713623046875</LatitudeDegrees>
              <LongitudeDegrees>-16.62324794568121433258056640625</LongitudeDegrees>
            </Position>
            <AltitudeMeters>3063.60009765625</AltitudeMeters>
            <DistanceMeters>6986.4546408981</DistanceMeters>
          </Trackpoint>
          <Trackpoint>
            <Time>2019-04-07T14:27:03.000Z</Time>
            <Position>
              <LatitudeDegrees>28.27287445776164531707763671875</LatitudeDegrees>
              <LongitudeDegrees>-16.623289771378040313720703125</LongitudeDegrees>
            </Position>
            <AltitudeMeters>3063.39990234375</AltitudeMeters>
            <DistanceMeters>6991.3168153222</DistanceMeters>
          </Trackpoint>
          <Trackpoint>
            <Time>2019-04-07T14:27:11.000Z</Time>
            <Position>
              <LatitudeDegrees>28.27286590822041034698486328125</LatitudeDegrees>
              <LongitudeDegrees>-16.6233486123383045196533203125</LongitudeDegrees>
            </Position>
            <AltitudeMeters>3064.39990234375</AltitudeMeters>
            <DistanceMeters>6997.1630824509</DistanceMeters>
          </Trackpoint>
          <Trackpoint>
            <Time>2019-04-07T14:27:12.000Z</Time>
            <Position>
              <LatitudeDegrees>28.27286607585847377777099609375</LatitudeDegrees>
              <LongitudeDegrees>-16.6233529709279537200927734375</LongitudeDegrees>
            </Position>
            <AltitudeMeters>3064.39990234375</AltitudeMeters>
            <DistanceMeters>6997.5985495626</DistanceMeters>
          </Trackpoint>
          <Trackpoint>
            <Time>2019-04-07T14:27:20.000Z</Time>
            <Position>
              <LatitudeDegrees>28.272867165505886077880859375</LatitudeDegrees>
              <LongitudeDegrees>-16.6233596764504909515380859375</LongitudeDegrees>
            </Position>
            <AltitudeMeters>3064.60009765625</AltitudeMeters>
            <DistanceMeters>6998.2704899038</DistanceMeters>
          </Trackpoint>
          <Trackpoint>
            <Time>2019-04-07T14:27:36.000Z</Time>
            <Position>
              <LatitudeDegrees>28.27286758460104465484619140625</LatitudeDegrees>
              <LongitudeDegrees>-16.62335908971726894378662109375</LongitudeDegrees>
            </Position>
            <AltitudeMeters>3064.39990234375</AltitudeMeters>
            <DistanceMeters>6998.3655166182</DistanceMeters>
          </Trackpoint>
          <Trackpoint>
            <Time>2019-04-07T14:27:46.000Z</Time>
            <Position>
              <LatitudeDegrees>28.272869847714900970458984375</LatitudeDegrees>
              <LongitudeDegrees>-16.62332338280975818634033203125</LongitudeDegrees>
            </Position>
            <AltitudeMeters>3064</AltitudeMeters>
            <DistanceMeters>7001.8763647132</DistanceMeters>
          </Trackpoint>
          <Trackpoint>
            <Time>2019-04-07T14:27:53.000Z</Time>
            <Position>
              <LatitudeDegrees>28.272866494953632354736328125</LatitudeDegrees>
              <LongitudeDegrees>-16.6233001649379730224609375</LongitudeDegrees>
            </Position>
            <AltitudeMeters>3063.39990234375</AltitudeMeters>
            <DistanceMeters>7004.1845555852</DistanceMeters>
          </Trackpoint>
          <Trackpoint>
            <Time>2019-04-07T14:28:01.000Z</Time>
            <Position>
              <LatitudeDegrees>28.272864483296871185302734375</LatitudeDegrees>
              <LongitudeDegrees>-16.6233023442327976226806640625</LongitudeDegrees>
            </Position>
            <AltitudeMeters>3063.800048828125</AltitudeMeters>
            <DistanceMeters>7004.4997235419</DistanceMeters>
          </Trackpoint>
          <Trackpoint>
            <Time>2019-04-07T14:28:21.000Z</Time>
            <Position>
              <LatitudeDegrees>28.2728619687259197235107421875</LatitudeDegrees>
              <LongitudeDegrees>-16.62330443970859050750732421875</LongitudeDegrees>
            </Position>
            <AltitudeMeters>3064</AltitudeMeters>
            <DistanceMeters>7004.8552809496</DistanceMeters>
          </Trackpoint>
          <Trackpoint>
            <Time>2019-04-07T14:28:34.000Z</Time>
            <Position>
              <LatitudeDegrees>28.27285073697566986083984375</LatitudeDegrees>
              <LongitudeDegrees>-16.6233013384044170379638671875</LongitudeDegrees>
            </Position>
            <AltitudeMeters>3064</AltitudeMeters>
            <DistanceMeters>7006.1407785145</DistanceMeters>
          </Trackpoint>
          <Trackpoint>
            <Time>2019-04-07T14:28:43.000Z</Time>
            <Position>
              <LatitudeDegrees>28.27285165898501873016357421875</LatitudeDegrees>
              <LongitudeDegrees>-16.6233564913272857666015625</LongitudeDegrees>
            </Position>
            <AltitudeMeters>3064.199951171875</AltitudeMeters>
            <DistanceMeters>7011.5489591329</DistanceMeters>
          </Trackpoint>
          <Trackpoint>
            <Time>2019-04-07T14:28:51.000Z</Time>
            <Position>
              <LatitudeDegrees>28.272853754460811614990234375</LatitudeDegrees>
              <LongitudeDegrees>-16.62342161871492862701416015625</LongitudeDegrees>
            </Position>
            <AltitudeMeters>3065.199951171875</AltitudeMeters>
            <DistanceMeters>7017.9369882069</DistanceMeters>
          </Trackpoint>
          <Trackpoint>
            <Time>2019-04-07T14:28:54.000Z</Time>
            <Position>
              <LatitudeDegrees>28.272855766117572784423828125</LatitudeDegrees>
              <LongitudeDegrees>-16.623450033366680145263671875</LongitudeDegrees>
            </Position>
            <AltitudeMeters>3065.60009765625</AltitudeMeters>
            <DistanceMeters>7020.7301917526</DistanceMeters>
          </Trackpoint>
          <Trackpoint>
            <Time>2019-04-07T14:29:02.000Z</Time>
            <Position>
              <LatitudeDegrees>28.27287294901907444000244140625</LatitudeDegrees>
              <LongitudeDegrees>-16.62351499311625957489013671875</LongitudeDegrees>
            </Position>
            <AltitudeMeters>3066</AltitudeMeters>
            <DistanceMeters>7027.3779879376</DistanceMeters>
          </Trackpoint>
          <Trackpoint>
            <Time>2019-04-07T14:29:04.000Z</Time>
            <Position>
              <LatitudeDegrees>28.27288283966481685638427734375</LatitudeDegrees>
              <LongitudeDegrees>-16.6235226206481456756591796875</LongitudeDegrees>
            </Position>
            <AltitudeMeters>3066.39990234375</AltitudeMeters>
            <DistanceMeters>7028.7083619387</DistanceMeters>
          </Trackpoint>
          <Trackpoint>
            <Time>2019-04-07T14:29:09.000Z</Time>
            <Position>
              <LatitudeDegrees>28.27290547080338001251220703125</LatitudeDegrees>
              <LongitudeDegrees>-16.62353293038904666900634765625</LongitudeDegrees>
            </Position>
            <AltitudeMeters>3067</AltitudeMeters>
            <DistanceMeters>7031.4212040465</DistanceMeters>
          </Trackpoint>
          <Trackpoint>
            <Time>2019-04-07T14:29:13.000Z</Time>
            <Position>
              <LatitudeDegrees>28.27292307280004024505615234375</LatitudeDegrees>
              <LongitudeDegrees>-16.623555310070514678955078125</LongitudeDegrees>
            </Position>
            <AltitudeMeters>3067.39990234375</AltitudeMeters>
            <DistanceMeters>7034.3624305311</DistanceMeters>
          </Trackpoint>
          <Trackpoint>
            <Time>2019-04-07T14:29:17.000Z</Time>
            <Position>
              <LatitudeDegrees>28.2729330472648143768310546875</LatitudeDegrees>
              <LongitudeDegrees>-16.62358758039772510528564453125</LongitudeDegrees>
            </Position>
            <AltitudeMeters>3067.800048828125</AltitudeMeters>
            <DistanceMeters>7037.715406101</DistanceMeters>
          </Trackpoint>
          <Trackpoint>
            <Time>2019-04-07T14:29:20.000Z</Time>
            <Position>
              <LatitudeDegrees>28.2729251682758331298828125</LatitudeDegrees>
              <LongitudeDegrees>-16.62361289374530315399169921875</LongitudeDegrees>
            </Position>
            <AltitudeMeters>3068.199951171875</AltitudeMeters>
            <DistanceMeters>7040.3488636589</DistanceMeters>
          </Trackpoint>
          <Trackpoint>
            <Time>2019-04-07T14:29:22.000Z</Time>
            <Position>
              <LatitudeDegrees>28.27292173169553279876708984375</LatitudeDegrees>
              <LongitudeDegrees>-16.623629070818424224853515625</LongitudeDegrees>
            </Position>
            <AltitudeMeters>3068.60009765625</AltitudeMeters>
            <DistanceMeters>7041.9810010768</DistanceMeters>
          </Trackpoint>
          <Trackpoint>
            <Time>2019-04-07T14:29:27.000Z</Time>
            <Position>
              <LatitudeDegrees>28.272912763059139251708984375</LatitudeDegrees>
              <LongitudeDegrees>-16.623667962849140167236328125</LongitudeDegrees>
            </Position>
            <AltitudeMeters>3069.39990234375</AltitudeMeters>
            <DistanceMeters>7045.9208870405</DistanceMeters>
          </Trackpoint>
          <Trackpoint>
            <Time>2019-04-07T14:29:31.000Z</Time>
            <Position>
              <LatitudeDegrees>28.27292986214160919189453125</LatitudeDegrees>
              <LongitudeDegrees>-16.62368833087384700775146484375</LongitudeDegrees>
            </Position>
            <AltitudeMeters>3070</AltitudeMeters>
            <DistanceMeters>7048.6782996621</DistanceMeters>
          </Trackpoint>
          <Trackpoint>
            <Time>2019-04-07T14:29:33.000Z</Time>
            <Position>
              <LatitudeDegrees>28.27294528484344482421875</LatitudeDegrees>
              <LongitudeDegrees>-16.62369302473962306976318359375</LongitudeDegrees>
            </Position>
            <AltitudeMeters>3070.39990234375</AltitudeMeters>
            <DistanceMeters>7050.4535451885</DistanceMeters>
          </Trackpoint>
          <Trackpoint>
            <Time>2019-04-07T14:29:39.000Z</Time>
            <Position>
              <LatitudeDegrees>28.27298359014093875885009765625</LatitudeDegrees>
              <LongitudeDegrees>-16.62370710633695125579833984375</LongitudeDegrees>
            </Position>
            <AltitudeMeters>3071</AltitudeMeters>
            <DistanceMeters>7054.9349389462</DistanceMeters>
          </Trackpoint>
          <Trackpoint>
            <Time>2019-04-07T14:29:40.000Z</Time>
            <Position>
              <LatitudeDegrees>28.2729895412921905517578125</LatitudeDegrees>
              <LongitudeDegrees>-16.6237097047269344329833984375</LongitudeDegrees>
            </Position>
            <AltitudeMeters>3071.199951171875</AltitudeMeters>
            <DistanceMeters>7055.6460537617</DistanceMeters>
          </Trackpoint>
          <Trackpoint>
            <Time>2019-04-07T14:29:43.000Z</Time>
            <Position>
              <LatitudeDegrees>28.272993564605712890625</LatitudeDegrees>
              <LongitudeDegrees>-16.6237288154661655426025390625</LongitudeDegrees>
            </Position>
            <AltitudeMeters>3071.60009765625</AltitudeMeters>
            <DistanceMeters>7057.5748854016</DistanceMeters>
          </Trackpoint>
          <Trackpoint>
            <Time>2019-04-07T14:29:45.000Z</Time>
            <Position>
              <LatitudeDegrees>28.272989876568317413330078125</LatitudeDegrees>
              <LongitudeDegrees>-16.62374071776866912841796875</LongitudeDegrees>
            </Position>
            <AltitudeMeters>3071.800048828125</AltitudeMeters>
            <DistanceMeters>7058.8138821713</DistanceMeters>
          </Trackpoint>
          <Trackpoint>
            <Time>2019-04-07T14:29:49.000Z</Time>
            <Position>
              <LatitudeDegrees>28.27298727817833423614501953125</LatitudeDegrees>
              <LongitudeDegrees>-16.6237561404705047607421875</LongitudeDegrees>
            </Position>
            <AltitudeMeters>3072.60009765625</AltitudeMeters>
            <DistanceMeters>7060.3549565059</DistanceMeters>
          </Trackpoint>
          <Trackpoint>
            <Time>2019-04-07T14:29:54.000Z</Time>
            <Position>
              <LatitudeDegrees>28.27297688461840152740478515625</LatitudeDegrees>
              <LongitudeDegrees>-16.6237901709973812103271484375</LongitudeDegrees>
            </Position>
            <AltitudeMeters>3073.39990234375</AltitudeMeters>
            <DistanceMeters>7063.8850422687</DistanceMeters>
          </Trackpoint>
          <Trackpoint>
            <Time>2019-04-07T14:30:00.000Z</Time>
            <Position>
              <LatitudeDegrees>28.27296196483075618743896484375</LatitudeDegrees>
              <LongitudeDegrees>-16.62382512353360652923583984375</LongitudeDegrees>
            </Position>
            <AltitudeMeters>3073.60009765625</AltitudeMeters>
            <DistanceMeters>7067.693231178</DistanceMeters>
          </Trackpoint>
          <Trackpoint>
            <Time>2019-04-07T14:30:07.000Z</Time>
            <Position>
              <LatitudeDegrees>28.2729461230337619781494140625</LatitudeDegrees>
              <LongitudeDegrees>-16.62386284209787845611572265625</LongitudeDegrees>
            </Position>
            <AltitudeMeters>3074.60009765625</AltitudeMeters>
            <DistanceMeters>7071.7893124801</DistanceMeters>
          </Trackpoint>
          <Trackpoint>
            <Time>2019-04-07T14:30:10.000Z</Time>
            <Position>
              <LatitudeDegrees>28.27294193208217620849609375</LatitudeDegrees>
              <LongitudeDegrees>-16.623877845704555511474609375</LongitudeDegrees>
            </Position>
            <AltitudeMeters>3075.60009765625</AltitudeMeters>
            <DistanceMeters>7073.3333138341</DistanceMeters>
          </Trackpoint>
          <Trackpoint>
            <Time>2019-04-07T14:30:17.000Z</Time>
            <Position>
              <LatitudeDegrees>28.2729296945035457611083984375</LatitudeDegrees>
              <LongitudeDegrees>-16.623909361660480499267578125</LongitudeDegrees>
            </Position>
            <AltitudeMeters>3076.800048828125</AltitudeMeters>
            <DistanceMeters>7076.7104408007</DistanceMeters>
          </Trackpoint>
          <Trackpoint>
            <Time>2019-04-07T14:30:18.000Z</Time>
            <Position>
              <LatitudeDegrees>28.2729226537048816680908203125</LatitudeDegrees>
              <LongitudeDegrees>-16.62391078658401966094970703125</LongitudeDegrees>
            </Position>
            <AltitudeMeters>3076.800048828125</AltitudeMeters>
            <DistanceMeters>7077.5054913344</DistanceMeters>
          </Trackpoint>
          <Trackpoint>
            <Time>2019-04-07T14:30:24.000Z</Time>
            <Position>
              <LatitudeDegrees>28.272914774715900421142578125</LatitudeDegrees>
              <LongitudeDegrees>-16.6239407099783420562744140625</LongitudeDegrees>
            </Position>
            <AltitudeMeters>3077.800048828125</AltitudeMeters>
            <DistanceMeters>7080.5670627199</DistanceMeters>
          </Trackpoint>
          <Trackpoint>
            <Time>2019-04-07T14:30:27.000Z</Time>
            <Position>
              <LatitudeDegrees>28.27291200868785381317138671875</LatitudeDegrees>
              <LongitudeDegrees>-16.62395437248051166534423828125</LongitudeDegrees>
            </Position>
            <AltitudeMeters>3078.199951171875</AltitudeMeters>
            <DistanceMeters>7081.9408479931</DistanceMeters>
          </Trackpoint>
          <Trackpoint>
            <Time>2019-04-07T14:30:34.000Z</Time>
            <Position>
              <LatitudeDegrees>28.2729270122945308685302734375</LatitudeDegrees>
              <LongitudeDegrees>-16.62396342493593692779541015625</LongitudeDegrees>
            </Position>
            <AltitudeMeters>3078.800048828125</AltitudeMeters>
            <DistanceMeters>7083.8318557328</DistanceMeters>
          </Trackpoint>
          <Trackpoint>
            <Time>2019-04-07T14:30:35.000Z</Time>
            <Position>
              <LatitudeDegrees>28.27292877249419689178466796875</LatitudeDegrees>
              <LongitudeDegrees>-16.62396476604044437408447265625</LongitudeDegrees>
            </Position>
            <AltitudeMeters>3079</AltitudeMeters>
            <DistanceMeters>7084.064622695</DistanceMeters>
          </Trackpoint>
          <Trackpoint>
            <Time>2019-04-07T14:30:44.000Z</Time>
            <Position>
              <LatitudeDegrees>28.2729602046310901641845703125</LatitudeDegrees>
              <LongitudeDegrees>-16.6239507682621479034423828125</LongitudeDegrees>
            </Position>
            <AltitudeMeters>3079.800048828125</AltitudeMeters>
            <DistanceMeters>7087.8226859672</DistanceMeters>
          </Trackpoint>
          <Trackpoint>
            <Time>2019-04-07T14:30:45.000Z</Time>
            <Position>
              <LatitudeDegrees>28.27296196483075618743896484375</LatitudeDegrees>
              <LongitudeDegrees>-16.6239500977098941802978515625</LongitudeDegrees>
            </Position>
            <AltitudeMeters>3080.199951171875</AltitudeMeters>
            <DistanceMeters>7088.0351721603</DistanceMeters>
          </Trackpoint>
          <Trackpoint>
            <Time>2019-04-07T14:30:52.000Z</Time>
            <Position>
              <LatitudeDegrees>28.27299197204411029815673828125</LatitudeDegrees>
              <LongitudeDegrees>-16.62396208383142948150634765625</LongitudeDegrees>
            </Position>
            <AltitudeMeters>3081</AltitudeMeters>
            <DistanceMeters>7091.5754752693</DistanceMeters>
          </Trackpoint>
          <Trackpoint>
            <Time>2019-04-07T14:30:59.000Z</Time>
            <Position>
              <LatitudeDegrees>28.27300555072724819183349609375</LatitudeDegrees>
              <LongitudeDegrees>-16.62395521067082881927490234375</LongitudeDegrees>
            </Position>
            <AltitudeMeters>3081.800048828125</AltitudeMeters>
            <DistanceMeters>7093.2268634993</DistanceMeters>
          </Trackpoint>
          <Trackpoint>
            <Time>2019-04-07T14:31:03.000Z</Time>
            <Position>
              <LatitudeDegrees>28.2730208896100521087646484375</LatitudeDegrees>
              <LongitudeDegrees>-16.6239599883556365966796875</LongitudeDegrees>
            </Position>
            <AltitudeMeters>3082.199951171875</AltitudeMeters>
            <DistanceMeters>7094.9970150539</DistanceMeters>
          </Trackpoint>
          <Trackpoint>
            <Time>2019-04-07T14:31:14.000Z</Time>
            <Position>
              <LatitudeDegrees>28.2730658166110515594482421875</LatitudeDegrees>
              <LongitudeDegrees>-16.62394666112959384918212890625</LongitudeDegrees>
            </Position>
            <AltitudeMeters>3083</AltitudeMeters>
            <DistanceMeters>7100.1652803451</DistanceMeters>
          </Trackpoint>
          <Trackpoint>
            <Time>2019-04-07T14:31:16.000Z</Time>
            <Position>
              <LatitudeDegrees>28.27306606806814670562744140625</LatitudeDegrees>
              <LongitudeDegrees>-16.62394565530121326446533203125</LongitudeDegrees>
            </Position>
            <AltitudeMeters>3083.199951171875</AltitudeMeters>
            <DistanceMeters>7100.2603070595</DistanceMeters>
          </Trackpoint>
          <Trackpoint>
            <Time>2019-04-07T14:31:25.000Z</Time>
            <Position>
              <LatitudeDegrees>28.273085094988346099853515625</LatitudeDegrees>
              <LongitudeDegrees>-16.623950935900211334228515625</LongitudeDegrees>
            </Position>
            <AltitudeMeters>3084.199951171875</AltitudeMeters>
            <DistanceMeters>7102.4376426177</DistanceMeters>
          </Trackpoint>
          <Trackpoint>
            <Time>2019-04-07T14:31:34.000Z</Time>
            <Position>
              <LatitudeDegrees>28.273114264011383056640625</LatitudeDegrees>
              <LongitudeDegrees>-16.62398907355964183807373046875</LongitudeDegrees>
            </Position>
            <AltitudeMeters>3085.199951171875</AltitudeMeters>
            <DistanceMeters>7107.3881605168</DistanceMeters>
          </Trackpoint>
          <Trackpoint>
            <Time>2019-04-07T14:31:35.000Z</Time>
            <Position>
              <LatitudeDegrees>28.2731194607913494110107421875</LatitudeDegrees>
              <LongitudeDegrees>-16.62399016320705413818359375</LongitudeDegrees>
            </Position>
            <AltitudeMeters>3085.199951171875</AltitudeMeters>
            <DistanceMeters>7107.9739445255</DistanceMeters>
          </Trackpoint>
          <Trackpoint>
            <Time>2019-04-07T14:31:44.000Z</Time>
            <Position>
              <LatitudeDegrees>28.27317033894360065460205078125</LatitudeDegrees>
              <LongitudeDegrees>-16.6239760816097259521484375</LongitudeDegrees>
            </Position>
            <AltitudeMeters>3086.39990234375</AltitudeMeters>
            <DistanceMeters>7113.8024218208</DistanceMeters>
          </Trackpoint>
          <Trackpoint>
            <Time>2019-04-07T14:31:52.000Z</Time>
            <Position>
              <LatitudeDegrees>28.273200094699859619140625</LatitudeDegrees>
              <LongitudeDegrees>-16.62398873828351497650146484375</LongitudeDegrees>
            </Position>
            <AltitudeMeters>3087</AltitudeMeters>
            <DistanceMeters>7117.3401733598</DistanceMeters>
          </Trackpoint>
          <Trackpoint>
            <Time>2019-04-07T14:31:59.000Z</Time>
            <Position>
              <LatitudeDegrees>28.273201771080493927001953125</LatitudeDegrees>
              <LongitudeDegrees>-16.62399259395897388458251953125</LongitudeDegrees>
            </Position>
            <AltitudeMeters>3087.60009765625</AltitudeMeters>
            <DistanceMeters>7117.7543852047</DistanceMeters>
          </Trackpoint>
          <Trackpoint>
            <Time>2019-04-07T14:32:01.000Z</Time>
            <Position>
              <LatitudeDegrees>28.2732059620320796966552734375</LatitudeDegrees>
              <LongitudeDegrees>-16.62400416098535060882568359375</LongitudeDegrees>
            </Position>
            <AltitudeMeters>3087.800048828125</AltitudeMeters>
            <DistanceMeters>7118.9824009888</DistanceMeters>
          </Trackpoint>
          <Trackpoint>
            <Time>2019-04-07T14:32:07.000Z</Time>
            <Position>
              <LatitudeDegrees>28.27321191318333148956298828125</LatitudeDegrees>
              <LongitudeDegrees>-16.62404104135930538177490234375</LongitudeDegrees>
            </Position>
            <AltitudeMeters>3088.199951171875</AltitudeMeters>
            <DistanceMeters>7122.6578593766</DistanceMeters>
          </Trackpoint>
          <Trackpoint>
            <Time>2019-04-07T14:32:09.000Z</Time>
            <Position>
              <LatitudeDegrees>28.27320504002273082733154296875</LatitudeDegrees>
              <LongitudeDegrees>-16.6240496747195720672607421875</LongitudeDegrees>
            </Position>
            <AltitudeMeters>3088.39990234375</AltitudeMeters>
            <DistanceMeters>7123.798179949</DistanceMeters>
          </Trackpoint>
          <Trackpoint>
            <Time>2019-04-07T14:32:10.000Z</Time>
            <Position>
              <LatitudeDegrees>28.27320277690887451171875</LatitudeDegrees>
              <LongitudeDegrees>-16.62405244074761867523193359375</LongitudeDegrees>
            </Position>
            <AltitudeMeters>3088.39990234375</AltitudeMeters>
            <DistanceMeters>7124.1662168312</DistanceMeters>
          </Trackpoint>
          <Trackpoint>
            <Time>2019-04-07T14:32:19.000Z</Time>
            <Position>
              <LatitudeDegrees>28.27320788986980915069580078125</LatitudeDegrees>
              <LongitudeDegrees>-16.62410373799502849578857421875</LongitudeDegrees>
            </Position>
            <AltitudeMeters>3089.39990234375</AltitudeMeters>
            <DistanceMeters>7129.2267797243</DistanceMeters>
          </Trackpoint>
          <Trackpoint>
            <Time>2019-04-07T14:32:27.000Z</Time>
            <Position>
              <LatitudeDegrees>28.27318391762673854827880859375</LatitudeDegrees>
              <LongitudeDegrees>-16.62414397113025188446044921875</LongitudeDegrees>
            </Position>
            <AltitudeMeters>3090</AltitudeMeters>
            <DistanceMeters>7133.9895049974</DistanceMeters>
          </Trackpoint>
          <Trackpoint>
            <Time>2019-04-07T14:32:30.000Z</Time>
            <Position>
              <LatitudeDegrees>28.27317402698099613189697265625</LatitudeDegrees>
              <LongitudeDegrees>-16.62414397113025188446044921875</LongitudeDegrees>
            </Position>
            <AltitudeMeters>3090.39990234375</AltitudeMeters>
            <DistanceMeters>7135.093615644</DistanceMeters>
          </Trackpoint>
          <Trackpoint>
            <Time>2019-04-07T14:32:33.000Z</Time>
            <Position>
              <LatitudeDegrees>28.2731660641729831695556640625</LatitudeDegrees>
              <LongitudeDegrees>-16.624150760471820831298828125</LongitudeDegrees>
            </Position>
            <AltitudeMeters>3090.800048828125</AltitudeMeters>
            <DistanceMeters>7136.2018080445</DistanceMeters>
          </Trackpoint>
          <Trackpoint>
            <Time>2019-04-07T14:32:39.000Z</Time>
            <Position>
              <LatitudeDegrees>28.27315575443208217620849609375</LatitudeDegrees>
              <LongitudeDegrees>-16.6241593100130558013916015625</LongitudeDegrees>
            </Position>
            <AltitudeMeters>3091.39990234375</AltitudeMeters>
            <DistanceMeters>7137.62720876</DistanceMeters>
          </Trackpoint>
          <Trackpoint>
            <Time>2019-04-07T14:32:45.000Z</Time>
            <Position>
              <LatitudeDegrees>28.27315206639468669891357421875</LatitudeDegrees>
              <LongitudeDegrees>-16.62415922619402408599853515625</LongitudeDegrees>
            </Position>
            <AltitudeMeters>3091.60009765625</AltitudeMeters>
            <DistanceMeters>7138.0414206049</DistanceMeters>
          </Trackpoint>
          <Trackpoint>
            <Time>2019-04-07T14:32:53.000Z</Time>
            <Position>
              <LatitudeDegrees>28.27315072529017925262451171875</LatitudeDegrees>
              <LongitudeDegrees>-16.62416576407849788665771484375</LongitudeDegrees>
            </Position>
            <AltitudeMeters>3091.60009765625</AltitudeMeters>
            <DistanceMeters>7138.6997849944</DistanceMeters>
          </Trackpoint>
          <Trackpoint>
            <Time>2019-04-07T14:33:10.000Z</Time>
            <Position>
              <LatitudeDegrees>28.273150809109210968017578125</LatitudeDegrees>
              <LongitudeDegrees>-16.62416676990687847137451171875</LongitudeDegrees>
            </Position>
            <AltitudeMeters>3091.800048828125</AltitudeMeters>
            <DistanceMeters>7138.7948117087</DistanceMeters>
          </Trackpoint>
          <Trackpoint>
            <Time>2019-04-07T14:33:40.000Z</Time>
            <Position>
              <LatitudeDegrees>28.2731509767472743988037109375</LatitudeDegrees>
              <LongitudeDegrees>-16.6241690330207347869873046875</LongitudeDegrees>
            </Position>
            <AltitudeMeters>3092</AltitudeMeters>
            <DistanceMeters>7138.9848651375</DistanceMeters>
          </Trackpoint>
          <Trackpoint>
            <Time>2019-04-07T14:33:55.000Z</Time>
            <Position>
              <LatitudeDegrees>28.27315340749919414520263671875</LatitudeDegrees>
              <LongitudeDegrees>-16.62419241853058338165283203125</LongitudeDegrees>
            </Position>
            <AltitudeMeters>3092.800048828125</AltitudeMeters>
            <DistanceMeters>7141.2930560095</DistanceMeters>
          </Trackpoint>
          <Trackpoint>
            <Time>2019-04-07T14:33:58.000Z</Time>
            <Position>
              <LatitudeDegrees>28.27315391041338443756103515625</LatitudeDegrees>
              <LongitudeDegrees>-16.62421454675495624542236328125</LongitudeDegrees>
            </Position>
            <AltitudeMeters>3093.199951171875</AltitudeMeters>
            <DistanceMeters>7143.4641616965</DistanceMeters>
          </Trackpoint>
          <Trackpoint>
            <Time>2019-04-07T14:34:05.000Z</Time>
            <Position>
              <LatitudeDegrees>28.27315139584243297576904296875</LatitudeDegrees>
              <LongitudeDegrees>-16.6242531873285770416259765625</LongitudeDegrees>
            </Position>
            <AltitudeMeters>3093.60009765625</AltitudeMeters>
            <DistanceMeters>7147.2628538605</DistanceMeters>
          </Trackpoint>
          <Trackpoint>
            <Time>2019-04-07T14:34:07.000Z</Time>
            <Position>
              <LatitudeDegrees>28.27314854599535465240478515625</LatitudeDegrees>
              <LongitudeDegrees>-16.62426165305078029632568359375</LongitudeDegrees>
            </Position>
            <AltitudeMeters>3094</AltitudeMeters>
            <DistanceMeters>7148.1542834579</DistanceMeters>
          </Trackpoint>
          <Trackpoint>
            <Time>2019-04-07T14:34:14.000Z</Time>
            <Position>
              <LatitudeDegrees>28.2731218077242374420166015625</LatitudeDegrees>
              <LongitudeDegrees>-16.624291241168975830078125</LongitudeDegrees>
            </Position>
            <AltitudeMeters>3095</AltitudeMeters>
            <DistanceMeters>7152.3105481556</DistanceMeters>
          </Trackpoint>
          <Trackpoint>
            <Time>2019-04-07T14:34:16.000Z</Time>
            <Position>
              <LatitudeDegrees>28.27311501838266849517822265625</LatitudeDegrees>
              <LongitudeDegrees>-16.62429937161505222320556640625</LongitudeDegrees>
            </Position>
            <AltitudeMeters>3095.60009765625</AltitudeMeters>
            <DistanceMeters>7153.4105619026</DistanceMeters>
          </Trackpoint>
          <Trackpoint>
            <Time>2019-04-07T14:34:21.000Z</Time>
            <Position>
              <LatitudeDegrees>28.27309372834861278533935546875</LatitudeDegrees>
              <LongitudeDegrees>-16.62431630305945873260498046875</LongitudeDegrees>
            </Position>
            <AltitudeMeters>3096.199951171875</AltitudeMeters>
            <DistanceMeters>7156.3038093623</DistanceMeters>
          </Trackpoint>
          <Trackpoint>
            <Time>2019-04-07T14:34:28.000Z</Time>
            <Position>
              <LatitudeDegrees>28.27307813800871372222900390625</LatitudeDegrees>
              <LongitudeDegrees>-16.62434262223541736602783203125</LongitudeDegrees>
            </Position>
            <AltitudeMeters>3097.199951171875</AltitudeMeters>
            <DistanceMeters>7159.4136665731</DistanceMeters>
          </Trackpoint>
          <Trackpoint>
            <Time>2019-04-07T14:34:36.000Z</Time>
            <Position>
              <LatitudeDegrees>28.27308484353125095367431640625</LatitudeDegrees>
              <LongitudeDegrees>-16.62436039187014102935791015625</LongitudeDegrees>
            </Position>
            <AltitudeMeters>3098.199951171875</AltitudeMeters>
            <DistanceMeters>7161.311823706</DistanceMeters>
          </Trackpoint>
          <Trackpoint>
            <Time>2019-04-07T14:34:38.000Z</Time>
            <Position>
              <LatitudeDegrees>28.2730923034250736236572265625</LatitudeDegrees>
              <LongitudeDegrees>-16.62436324171721935272216796875</LongitudeDegrees>
            </Position>
            <AltitudeMeters>3098.199951171875</AltitudeMeters>
            <DistanceMeters>7162.193065202</DistanceMeters>
          </Trackpoint>
          <Trackpoint>
            <Time>2019-04-07T14:34:46.000Z</Time>
            <Position>
              <LatitudeDegrees>28.2731154374778270721435546875</LatitudeDegrees>
              <LongitudeDegrees>-16.62439743988215923309326171875</LongitudeDegrees>
            </Position>
            <AltitudeMeters>3099.199951171875</AltitudeMeters>
            <DistanceMeters>7166.4193509479</DistanceMeters>
          </Trackpoint>
          <Trackpoint>
            <Time>2019-04-07T14:34:50.000Z</Time>
            <Position>
              <LatitudeDegrees>28.2731211371719837188720703125</LatitudeDegrees>
              <LongitudeDegrees>-16.62441034801304340362548828125</LongitudeDegrees>
            </Position>
            <AltitudeMeters>3100</AltitudeMeters>
            <DistanceMeters>7167.8352171035</DistanceMeters>
          </Trackpoint>
          <Trackpoint>
            <Time>2019-04-07T14:34:52.000Z</Time>
            <Position>
              <LatitudeDegrees>28.27311954461038112640380859375</LatitudeDegrees>
              <LongitudeDegrees>-16.62441822700202465057373046875</LongitudeDegrees>
            </Position>
            <AltitudeMeters>3100.39990234375</AltitudeMeters>
            <DistanceMeters>7168.6302676371</DistanceMeters>
          </Trackpoint>
          <Trackpoint>
            <Time>2019-04-07T14:35:01.000Z</Time>
            <Position>
              <LatitudeDegrees>28.27313228510320186614990234375</LatitudeDegrees>
              <LongitudeDegrees>-16.62445276044309139251708984375</LongitudeDegrees>
            </Position>
            <AltitudeMeters>3101.39990234375</AltitudeMeters>
            <DistanceMeters>7172.3008090215</DistanceMeters>
          </Trackpoint>
          <Trackpoint>
            <Time>2019-04-07T14:35:07.000Z</Time>
            <Position>
              <LatitudeDegrees>28.2731322012841701507568359375</LatitudeDegrees>
              <LongitudeDegrees>-16.6244754754006862640380859375</LongitudeDegrees>
            </Position>
            <AltitudeMeters>3102.39990234375</AltitudeMeters>
            <DistanceMeters>7174.5273561168</DistanceMeters>
          </Trackpoint>
          <Trackpoint>
            <Time>2019-04-07T14:35:09.000Z</Time>
            <Position>
              <LatitudeDegrees>28.27313262037932872772216796875</LatitudeDegrees>
              <LongitudeDegrees>-16.62448897026479244232177734375</LongitudeDegrees>
            </Position>
            <AltitudeMeters>3102.39990234375</AltitudeMeters>
            <DistanceMeters>7175.8509250913</DistanceMeters>
          </Trackpoint>
          <Trackpoint>
            <Time>2019-04-07T14:35:15.000Z</Time>
            <Position>
              <LatitudeDegrees>28.27311233617365360260009765625</LatitudeDegrees>
              <LongitudeDegrees>-16.624504812061786651611328125</LongitudeDegrees>
            </Position>
            <AltitudeMeters>3103.60009765625</AltitudeMeters>
            <DistanceMeters>7178.5919146209</DistanceMeters>
          </Trackpoint>
          <Trackpoint>
            <Time>2019-04-07T14:35:22.000Z</Time>
            <Position>
              <LatitudeDegrees>28.27311619184911251068115234375</LatitudeDegrees>
              <LongitudeDegrees>-16.62452802993357181549072265625</LongitudeDegrees>
            </Position>
            <AltitudeMeters>3104.199951171875</AltitudeMeters>
            <DistanceMeters>7180.9079166519</DistanceMeters>
          </Trackpoint>
          <Trackpoint>
            <Time>2019-04-07T14:35:23.000Z</Time>
            <Position>
              <LatitudeDegrees>28.2731181196868419647216796875</LatitudeDegrees>
              <LongitudeDegrees>-16.6245321370661258697509765625</LongitudeDegrees>
            </Position>
            <AltitudeMeters>3104.60009765625</AltitudeMeters>
            <DistanceMeters>7181.3636487642</DistanceMeters>
          </Trackpoint>
          <Trackpoint>
            <Time>2019-04-07T14:35:34.000Z</Time>
            <Position>
              <LatitudeDegrees>28.2731275074183940887451171875</LatitudeDegrees>
              <LongitudeDegrees>-16.62457128055393695831298828125</LongitudeDegrees>
            </Position>
            <AltitudeMeters>3105.800048828125</AltitudeMeters>
            <DistanceMeters>7185.3411723569</DistanceMeters>
          </Trackpoint>
          <Trackpoint>
            <Time>2019-04-07T14:35:37.000Z</Time>
            <Position>
              <LatitudeDegrees>28.27313178218901157379150390625</LatitudeDegrees>
              <LongitudeDegrees>-16.6245847754180431365966796875</LongitudeDegrees>
            </Position>
            <AltitudeMeters>3106.199951171875</AltitudeMeters>
            <DistanceMeters>7186.7474393092</DistanceMeters>
          </Trackpoint>
          <Trackpoint>
            <Time>2019-04-07T14:35:42.000Z</Time>
            <Position>
              <LatitudeDegrees>28.27311384491622447967529296875</LatitudeDegrees>
              <LongitudeDegrees>-16.62460866384208202362060546875</LongitudeDegrees>
            </Position>
            <AltitudeMeters>3107</AltitudeMeters>
            <DistanceMeters>7189.8251901421</DistanceMeters>
          </Trackpoint>
          <Trackpoint>
            <Time>2019-04-07T14:35:47.000Z</Time>
            <Position>
              <LatitudeDegrees>28.2730902917683124542236328125</LatitudeDegrees>
              <LongitudeDegrees>-16.6246251761913299560546875</LongitudeDegrees>
            </Position>
            <AltitudeMeters>3107.39990234375</AltitudeMeters>
            <DistanceMeters>7192.9073388113</DistanceMeters>
          </Trackpoint>
          <Trackpoint>
            <Time>2019-04-07T14:35:51.000Z</Time>
            <Position>
              <LatitudeDegrees>28.2730681635439395904541015625</LatitudeDegrees>
              <LongitudeDegrees>-16.6246286965906620025634765625</LongitudeDegrees>
            </Position>
            <AltitudeMeters>3108</AltitudeMeters>
            <DistanceMeters>7195.3944259357</DistanceMeters>
          </Trackpoint>
          <Trackpoint>
            <Time>2019-04-07T14:35:57.000Z</Time>
            <Position>
              <LatitudeDegrees>28.27304494567215442657470703125</LatitudeDegrees>
              <LongitudeDegrees>-16.62464923225343227386474609375</LongitudeDegrees>
            </Position>
            <AltitudeMeters>3108.800048828125</AltitudeMeters>
            <DistanceMeters>7198.6711256308</DistanceMeters>
          </Trackpoint>
          <Trackpoint>
            <Time>2019-04-07T14:35:59.000Z</Time>
            <Position>
              <LatitudeDegrees>28.27303924597799777984619140625</LatitudeDegrees>
              <LongitudeDegrees>-16.62465861998498439788818359375</LongitudeDegrees>
            </Position>
            <AltitudeMeters>3109.199951171875</AltitudeMeters>
            <DistanceMeters>7199.7954968783</DistanceMeters>
          </Trackpoint>
          <Trackpoint>
            <Time>2019-04-07T14:36:08.000Z</Time>
            <Position>
              <LatitudeDegrees>28.2730218954384326934814453125</LatitudeDegrees>
              <LongitudeDegrees>-16.62469466216862201690673828125</LongitudeDegrees>
            </Position>
            <AltitudeMeters>3110</AltitudeMeters>
            <DistanceMeters>7203.821535529</DistanceMeters>
          </Trackpoint>
          <Trackpoint>
            <Time>2019-04-07T14:36:09.000Z</Time>
            <Position>
              <LatitudeDegrees>28.273022063076496124267578125</LatitudeDegrees>
              <LongitudeDegrees>-16.62469784729182720184326171875</LongitudeDegrees>
            </Position>
            <AltitudeMeters>3110.199951171875</AltitudeMeters>
            <DistanceMeters>7204.1220363849</DistanceMeters>
          </Trackpoint>
          <Trackpoint>
            <Time>2019-04-07T14:36:17.000Z</Time>
            <Position>
              <LatitudeDegrees>28.27303052879869937896728515625</LatitudeDegrees>
              <LongitudeDegrees>-16.62470907904207706451416015625</LongitudeDegrees>
            </Position>
            <AltitudeMeters>3111</AltitudeMeters>
            <DistanceMeters>7205.5694401762</DistanceMeters>
          </Trackpoint>
          <Trackpoint>
            <Time>2019-04-07T14:36:21.000Z</Time>
            <Position>
              <LatitudeDegrees>28.27303958125412464141845703125</LatitudeDegrees>
              <LongitudeDegrees>-16.6247101686894893646240234375</LongitudeDegrees>
            </Position>
            <AltitudeMeters>3111.39990234375</AltitudeMeters>
            <DistanceMeters>7206.5884881589</DistanceMeters>
          </Trackpoint>
          <Trackpoint>
            <Time>2019-04-07T14:36:24.000Z</Time>
            <Position>
              <LatitudeDegrees>28.273058272898197174072265625</LatitudeDegrees>
              <LongitudeDegrees>-16.62470958195626735687255859375</LongitudeDegrees>
            </Position>
            <AltitudeMeters>3111.39990234375</AltitudeMeters>
            <DistanceMeters>7208.67041916</DistanceMeters>
          </Trackpoint>
          <Trackpoint>
            <Time>2019-04-07T14:36:26.000Z</Time>
            <Position>
              <LatitudeDegrees>28.27306908555328845977783203125</LatitudeDegrees>
              <LongitudeDegrees>-16.6247148625552654266357421875</LongitudeDegrees>
            </Position>
            <AltitudeMeters>3111.800048828125</AltitudeMeters>
            <DistanceMeters>7209.9768204949</DistanceMeters>
          </Trackpoint>
          <Trackpoint>
            <Time>2019-04-07T14:36:32.000Z</Time>
            <Position>
              <LatitudeDegrees>28.27309842221438884735107421875</LatitudeDegrees>
              <LongitudeDegrees>-16.6247162036597728729248046875</LongitudeDegrees>
            </Position>
            <AltitudeMeters>3112.39990234375</AltitudeMeters>
            <DistanceMeters>7213.2452421986</DistanceMeters>
          </Trackpoint>
          <Trackpoint>
            <Time>2019-04-07T14:36:40.000Z</Time>
            <Position>
              <LatitudeDegrees>28.27310797758400440216064453125</LatitudeDegrees>
              <LongitudeDegrees>-16.62474654614925384521484375</LongitudeDegrees>
            </Position>
            <AltitudeMeters>3113</AltitudeMeters>
            <DistanceMeters>7216.4055055653</DistanceMeters>
          </Trackpoint>
          <Trackpoint>
            <Time>2019-04-07T14:36:44.000Z</Time>
            <Position>
              <LatitudeDegrees>28.2731110788881778717041015625</LatitudeDegrees>
              <LongitudeDegrees>-16.6247675009071826934814453125</LongitudeDegrees>
            </Position>
            <AltitudeMeters>3113.60009765625</AltitudeMeters>
            <DistanceMeters>7218.4874365663</DistanceMeters>
          </Trackpoint>
          <Trackpoint>
            <Time>2019-04-07T14:36:49.000Z</Time>
            <Position>
              <LatitudeDegrees>28.27312222681939601898193359375</LatitudeDegrees>
              <LongitudeDegrees>-16.624786444008350372314453125</LongitudeDegrees>
            </Position>
            <AltitudeMeters>3114.199951171875</AltitudeMeters>
            <DistanceMeters>7220.7220802233</DistanceMeters>
          </Trackpoint>
          <Trackpoint>
            <Time>2019-04-07T14:36:55.000Z</Time>
            <Position>
              <LatitudeDegrees>28.27311099506914615631103515625</LatitudeDegrees>
              <LongitudeDegrees>-16.624815948307514190673828125</LongitudeDegrees>
            </Position>
            <AltitudeMeters>3114.60009765625</AltitudeMeters>
            <DistanceMeters>7223.8723268822</DistanceMeters>
          </Trackpoint>
          <Trackpoint>
            <Time>2019-04-07T14:36:59.000Z</Time>
            <Position>
              <LatitudeDegrees>28.27312164008617401123046875</LatitudeDegrees>
              <LongitudeDegrees>-16.6248355619609355926513671875</LongitudeDegrees>
            </Position>
            <AltitudeMeters>3114.800048828125</AltitudeMeters>
            <DistanceMeters>7226.1330841153</DistanceMeters>
          </Trackpoint>
          <Trackpoint>
            <Time>2019-04-07T14:37:07.000Z</Time>
            <Position>
              <LatitudeDegrees>28.2731523178517818450927734375</LatitudeDegrees>
              <LongitudeDegrees>-16.62483916617929935455322265625</LongitudeDegrees>
            </Position>
            <AltitudeMeters>3115.60009765625</AltitudeMeters>
            <DistanceMeters>7229.5659036211</DistanceMeters>
          </Trackpoint>
          <Trackpoint>
            <Time>2019-04-07T14:37:17.000Z</Time>
            <Position>
              <LatitudeDegrees>28.2732073031365871429443359375</LatitudeDegrees>
              <LongitudeDegrees>-16.62483765743672847747802734375</LongitudeDegrees>
            </Position>
            <AltitudeMeters>3116.800048828125</AltitudeMeters>
            <DistanceMeters>7235.6868338744</DistanceMeters>
          </Trackpoint>
          <Trackpoint>
            <Time>2019-04-07T14:37:18.000Z</Time>
            <Position>
              <LatitudeDegrees>28.27321157790720462799072265625</LatitudeDegrees>
              <LongitudeDegrees>-16.62483480758965015411376953125</LongitudeDegrees>
            </Position>
            <AltitudeMeters>3117</AltitudeMeters>
            <DistanceMeters>7236.2490194982</DistanceMeters>
          </Trackpoint>
          <Trackpoint>
            <Time>2019-04-07T14:37:28.000Z</Time>
            <Position>
              <LatitudeDegrees>28.27325667254626750946044921875</LatitudeDegrees>
              <LongitudeDegrees>-16.62485785782337188720703125</LongitudeDegrees>
            </Position>
            <AltitudeMeters>3117.60009765625</AltitudeMeters>
            <DistanceMeters>7241.7523708765</DistanceMeters>
          </Trackpoint>
          <Trackpoint>
            <Time>2019-04-07T14:37:37.000Z</Time>
            <Position>
              <LatitudeDegrees>28.273298330605030059814453125</LatitudeDegrees>
              <LongitudeDegrees>-16.62487990222871303558349609375</LongitudeDegrees>
            </Position>
            <AltitudeMeters>3118.800048828125</AltitudeMeters>
            <DistanceMeters>7246.8670684685</DistanceMeters>
          </Trackpoint>
          <Trackpoint>
            <Time>2019-04-07T14:37:40.000Z</Time>
            <Position>
              <LatitudeDegrees>28.27331366948783397674560546875</LatitudeDegrees>
              <LongitudeDegrees>-16.6248778067529201507568359375</LongitudeDegrees>
            </Position>
            <AltitudeMeters>3118.800048828125</AltitudeMeters>
            <DistanceMeters>7248.5854499737</DistanceMeters>
          </Trackpoint>
          <Trackpoint>
            <Time>2019-04-07T14:37:48.000Z</Time>
            <Position>
              <LatitudeDegrees>28.27336496673524379730224609375</LatitudeDegrees>
              <LongitudeDegrees>-16.62486322224140167236328125</LongitudeDegrees>
            </Position>
            <AltitudeMeters>3119.800048828125</AltitudeMeters>
            <DistanceMeters>7254.4702051226</DistanceMeters>
          </Trackpoint>
          <Trackpoint>
            <Time>2019-04-07T14:37:50.000Z</Time>
            <Position>
              <LatitudeDegrees>28.27337619848549365997314453125</LatitudeDegrees>
              <LongitudeDegrees>-16.624867916107177734375</LongitudeDegrees>
            </Position>
            <AltitudeMeters>3120.199951171875</AltitudeMeters>
            <DistanceMeters>7255.8005791238</DistanceMeters>
          </Trackpoint>
          <Trackpoint>
            <Time>2019-04-07T14:37:54.000Z</Time>
            <Position>
              <LatitudeDegrees>28.27339279465377330780029296875</LatitudeDegrees>
              <LongitudeDegrees>-16.62489465437829494476318359375</LongitudeDegrees>
            </Position>
            <AltitudeMeters>3120.800048828125</AltitudeMeters>
            <DistanceMeters>7259.0076427448</DistanceMeters>
          </Trackpoint>
          <Trackpoint>
            <Time>2019-04-07T14:37:58.000Z</Time>
            <Position>
              <LatitudeDegrees>28.27338323928415775299072265625</LatitudeDegrees>
              <LongitudeDegrees>-16.62492432631552219390869140625</LongitudeDegrees>
            </Position>
            <AltitudeMeters>3121.39990234375</AltitudeMeters>
            <DistanceMeters>7262.1044057618</DistanceMeters>
          </Trackpoint>
          <Trackpoint>
            <Time>2019-04-07T14:38:01.000Z</Time>
            <Position>
              <LatitudeDegrees>28.273369409143924713134765625</LatitudeDegrees>
              <LongitudeDegrees>-16.62493455223739147186279296875</LongitudeDegrees>
            </Position>
            <AltitudeMeters>3122</AltitudeMeters>
            <DistanceMeters>7263.9421349557</DistanceMeters>
          </Trackpoint>
          <Trackpoint>
            <Time>2019-04-07T14:38:08.000Z</Time>
            <Position>
              <LatitudeDegrees>28.2733387313783168792724609375</LatitudeDegrees>
              <LongitudeDegrees>-16.62496740929782390594482421875</LongitudeDegrees>
            </Position>
            <AltitudeMeters>3123</AltitudeMeters>
            <DistanceMeters>7268.6361083816</DistanceMeters>
          </Trackpoint>
          <Trackpoint>
            <Time>2019-04-07T14:38:16.000Z</Time>
            <Position>
              <LatitudeDegrees>28.2733206264674663543701171875</LatitudeDegrees>
              <LongitudeDegrees>-16.6249944828450679779052734375</LongitudeDegrees>
            </Position>
            <AltitudeMeters>3124</AltitudeMeters>
            <DistanceMeters>7271.968824095</DistanceMeters>
          </Trackpoint>
          <Trackpoint>
            <Time>2019-04-07T14:38:27.000Z</Time>
            <Position>
              <LatitudeDegrees>28.27331836335361003875732421875</LatitudeDegrees>
              <LongitudeDegrees>-16.62501820363104343414306640625</LongitudeDegrees>
            </Position>
            <AltitudeMeters>3124.39990234375</AltitudeMeters>
            <DistanceMeters>7274.3081031132</DistanceMeters>
          </Trackpoint>
          <Trackpoint>
            <Time>2019-04-07T14:38:29.000Z</Time>
            <Position>
              <LatitudeDegrees>28.27331853099167346954345703125</LatitudeDegrees>
              <LongitudeDegrees>-16.62502557970583438873291015625</LongitudeDegrees>
            </Position>
            <AltitudeMeters>3124.800048828125</AltitudeMeters>
            <DistanceMeters>7275.0318050088</DistanceMeters>
          </Trackpoint>
          <Trackpoint>
            <Time>2019-04-07T14:38:36.000Z</Time>
            <Position>
              <LatitudeDegrees>28.273344598710536956787109375</LatitudeDegrees>
              <LongitudeDegrees>-16.62504921667277812957763671875</LongitudeDegrees>
            </Position>
            <AltitudeMeters>3125.199951171875</AltitudeMeters>
            <DistanceMeters>7278.7451494219</DistanceMeters>
          </Trackpoint>
          <Trackpoint>
            <Time>2019-04-07T14:38:40.000Z</Time>
            <Position>
              <LatitudeDegrees>28.2733461074531078338623046875</LatitudeDegrees>
              <LongitudeDegrees>-16.6250518150627613067626953125</LongitudeDegrees>
            </Position>
            <AltitudeMeters>3125.800048828125</AltitudeMeters>
            <DistanceMeters>7279.030229565</DistanceMeters>
          </Trackpoint>
          <Trackpoint>
            <Time>2019-04-07T14:38:46.000Z</Time>
            <Position>
              <LatitudeDegrees>28.27335021458566188812255859375</LatitudeDegrees>
              <LongitudeDegrees>-16.6250531561672687530517578125</LongitudeDegrees>
            </Position>
            <AltitudeMeters>3126.199951171875</AltitudeMeters>
            <DistanceMeters>7279.4957634893</DistanceMeters>
          </Trackpoint>
          <Trackpoint>
            <Time>2019-04-07T14:38:50.000Z</Time>
            <Position>
              <LatitudeDegrees>28.273361362516880035400390625</LatitudeDegrees>
              <LongitudeDegrees>-16.625049971044063568115234375</LongitudeDegrees>
            </Position>
            <AltitudeMeters>3127</AltitudeMeters>
            <DistanceMeters>7280.7777439543</DistanceMeters>
          </Trackpoint>
          <Trackpoint>
            <Time>2019-04-07T14:38:58.000Z</Time>
            <Position>
              <LatitudeDegrees>28.273404948413372039794921875</LatitudeDegrees>
              <LongitudeDegrees>-16.6250462830066680908203125</LongitudeDegrees>
            </Position>
            <AltitudeMeters>3127.60009765625</AltitudeMeters>
            <DistanceMeters>7285.6436313797</DistanceMeters>
          </Trackpoint>
          <Trackpoint>
            <Time>2019-04-07T14:39:00.000Z</Time>
            <Position>
              <LatitudeDegrees>28.2734181918203830718994140625</LatitudeDegrees>
              <LongitudeDegrees>-16.62504603154957294464111328125</LongitudeDegrees>
            </Position>
            <AltitudeMeters>3127.800048828125</AltitudeMeters>
            <DistanceMeters>7287.1157789085</DistanceMeters>
          </Trackpoint>
          <Trackpoint>
            <Time>2019-04-07T14:39:09.000Z</Time>
            <Position>
              <LatitudeDegrees>28.273473344743251800537109375</LatitudeDegrees>
              <LongitudeDegrees>-16.6250414215028285980224609375</LongitudeDegrees>
            </Position>
            <AltitudeMeters>3128.60009765625</AltitudeMeters>
            <DistanceMeters>7293.2698134068</DistanceMeters>
          </Trackpoint>
          <Trackpoint>
            <Time>2019-04-07T14:39:10.000Z</Time>
            <Position>
              <LatitudeDegrees>28.27347845770418643951416015625</LatitudeDegrees>
              <LongitudeDegrees>-16.625042594969272613525390625</LongitudeDegrees>
            </Position>
            <AltitudeMeters>3128.800048828125</AltitudeMeters>
            <DistanceMeters>7293.8555974155</DistanceMeters>
          </Trackpoint>
          <Trackpoint>
            <Time>2019-04-07T14:39:18.000Z</Time>
            <Position>
              <LatitudeDegrees>28.27351056039333343505859375</LatitudeDegrees>
              <LongitudeDegrees>-16.62504703737795352935791015625</LongitudeDegrees>
            </Position>
            <AltitudeMeters>3129.39990234375</AltitudeMeters>
            <DistanceMeters>7297.4553418088</DistanceMeters>
          </Trackpoint>
          <Trackpoint>
            <Time>2019-04-07T14:39:23.000Z</Time>
            <Position>
              <LatitudeDegrees>28.2735352031886577606201171875</LatitudeDegrees>
              <LongitudeDegrees>-16.6250373981893062591552734375</LongitudeDegrees>
            </Position>
            <AltitudeMeters>3129.800048828125</AltitudeMeters>
            <DistanceMeters>7300.3579374269</DistanceMeters>
          </Trackpoint>
          <Trackpoint>
            <Time>2019-04-07T14:39:27.000Z</Time>
            <Position>
              <LatitudeDegrees>28.27354853041470050811767578125</LatitudeDegrees>
              <LongitudeDegrees>-16.625032536685466766357421875</LongitudeDegrees>
            </Position>
            <AltitudeMeters>3130.39990234375</AltitudeMeters>
            <DistanceMeters>7301.9135917866</DistanceMeters>
          </Trackpoint>
          <Trackpoint>
            <Time>2019-04-07T14:39:31.000Z</Time>
            <Position>
              <LatitudeDegrees>28.273565210402011871337890625</LatitudeDegrees>
              <LongitudeDegrees>-16.62503086030483245849609375</LongitudeDegrees>
            </Position>
            <AltitudeMeters>3130.800048828125</AltitudeMeters>
            <DistanceMeters>7303.7757274837</DistanceMeters>
          </Trackpoint>
          <Trackpoint>
            <Time>2019-04-07T14:39:39.000Z</Time>
            <Position>
              <LatitudeDegrees>28.2735918648540973663330078125</LatitudeDegrees>
              <LongitudeDegrees>-16.6250149346888065338134765625</LongitudeDegrees>
            </Position>
            <AltitudeMeters>3131.800048828125</AltitudeMeters>
            <DistanceMeters>7307.1287030537</DistanceMeters>
          </Trackpoint>
          <Trackpoint>
            <Time>2019-04-07T14:39:41.000Z</Time>
            <Position>
              <LatitudeDegrees>28.2736012525856494903564453125</LatitudeDegrees>
              <LongitudeDegrees>-16.62500982172787189483642578125</LongitudeDegrees>
            </Position>
            <AltitudeMeters>3132</AltitudeMeters>
            <DistanceMeters>7308.2847529288</DistanceMeters>
          </Trackpoint>
          <Trackpoint>
            <Time>2019-04-07T14:39:48.000Z</Time>
            <Position>
              <LatitudeDegrees>28.27363033778965473175048828125</LatitudeDegrees>
              <LongitudeDegrees>-16.62502943538129329681396484375</LongitudeDegrees>
            </Position>
            <AltitudeMeters>3133</AltitudeMeters>
            <DistanceMeters>7312.050017862</DistanceMeters>
          </Trackpoint>
          <Trackpoint>
            <Time>2019-04-07T14:39:53.000Z</Time>
            <Position>
              <LatitudeDegrees>28.2736320979893207550048828125</LatitudeDegrees>
              <LongitudeDegrees>-16.62507117725908756256103515625</LongitudeDegrees>
            </Position>
            <AltitudeMeters>3133.800048828125</AltitudeMeters>
            <DistanceMeters>7316.1472012981</DistanceMeters>
          </Trackpoint>
          <Trackpoint>
            <Time>2019-04-07T14:39:55.000Z</Time>
            <Position>
              <LatitudeDegrees>28.273629248142242431640625</LatitudeDegrees>
              <LongitudeDegrees>-16.62508760578930377960205078125</LongitudeDegrees>
            </Position>
            <AltitudeMeters>3134</AltitudeMeters>
            <DistanceMeters>7317.7876167273</DistanceMeters>
          </Trackpoint>
          <Trackpoint>
            <Time>2019-04-07T14:40:01.000Z</Time>
            <Position>
              <LatitudeDegrees>28.2735957205295562744140625</LatitudeDegrees>
              <LongitudeDegrees>-16.625111661851406097412109375</LongitudeDegrees>
            </Position>
            <AltitudeMeters>3134.39990234375</AltitudeMeters>
            <DistanceMeters>7322.2020141908</DistanceMeters>
          </Trackpoint>
          <Trackpoint>
            <Time>2019-04-07T14:40:09.000Z</Time>
            <Position>
              <LatitudeDegrees>28.273570239543914794921875</LatitudeDegrees>
              <LongitudeDegrees>-16.62515030242502689361572265625</LongitudeDegrees>
            </Position>
            <AltitudeMeters>3134.800048828125</AltitudeMeters>
            <DistanceMeters>7326.9333522156</DistanceMeters>
          </Trackpoint>
          <Trackpoint>
            <Time>2019-04-07T14:40:10.000Z</Time>
            <Position>
              <LatitudeDegrees>28.27356688678264617919921875</LatitudeDegrees>
              <LongitudeDegrees>-16.62515424191951751708984375</LongitudeDegrees>
            </Position>
            <AltitudeMeters>3135</AltitudeMeters>
            <DistanceMeters>7327.4709044886</DistanceMeters>
          </Trackpoint>
          <Trackpoint>
            <Time>2019-04-07T14:40:17.000Z</Time>
            <Position>
              <LatitudeDegrees>28.2735506258904933929443359375</LatitudeDegrees>
              <LongitudeDegrees>-16.62518667988479137420654296875</LongitudeDegrees>
            </Position>
            <AltitudeMeters>3136</AltitudeMeters>
            <DistanceMeters>7331.1291244505</DistanceMeters>
          </Trackpoint>
          <Trackpoint>
            <Time>2019-04-07T14:40:19.000Z</Time>
            <Position>
              <LatitudeDegrees>28.27354140579700469970703125</LatitudeDegrees>
              <LongitudeDegrees>-16.6251926310360431671142578125</LongitudeDegrees>
            </Position>
            <AltitudeMeters>3136.199951171875</AltitudeMeters>
            <DistanceMeters>7332.3121975035</DistanceMeters>
          </Trackpoint>
          <Trackpoint>
            <Time>2019-04-07T14:40:28.000Z</Time>
            <Position>
              <LatitudeDegrees>28.27351181767880916595458984375</LatitudeDegrees>
              <LongitudeDegrees>-16.62522858940064907073974609375</LongitudeDegrees>
            </Position>
            <AltitudeMeters>3137</AltitudeMeters>
            <DistanceMeters>7337.1361488918</DistanceMeters>
          </Trackpoint>
          <Trackpoint>
            <Time>2019-04-07T14:40:30.000Z</Time>
            <Position>
              <LatitudeDegrees>28.27350745908915996551513671875</LatitudeDegrees>
              <LongitudeDegrees>-16.62523797713220119476318359375</LongitudeDegrees>
            </Position>
            <AltitudeMeters>3137.199951171875</AltitudeMeters>
            <DistanceMeters>7338.1771143923</DistanceMeters>
          </Trackpoint>
          <Trackpoint>
            <Time>2019-04-07T14:40:36.000Z</Time>
            <Position>
              <LatitudeDegrees>28.2734949700534343719482421875</LatitudeDegrees>
              <LongitudeDegrees>-16.6252606920897960662841796875</LongitudeDegrees>
            </Position>
            <AltitudeMeters>3138.199951171875</AltitudeMeters>
            <DistanceMeters>7340.800264836</DistanceMeters>
          </Trackpoint>
          <Trackpoint>
            <Time>2019-04-07T14:40:41.000Z</Time>
            <Position>
              <LatitudeDegrees>28.27346890233457088470458984375</LatitudeDegrees>
              <LongitudeDegrees>-16.625294052064418792724609375</LongitudeDegrees>
            </Position>
            <AltitudeMeters>3139</AltitudeMeters>
            <DistanceMeters>7345.171493697</DistanceMeters>
          </Trackpoint>
          <Trackpoint>
            <Time>2019-04-07T14:40:46.000Z</Time>
            <Position>
              <LatitudeDegrees>28.27344895340502262115478515625</LatitudeDegrees>
              <LongitudeDegrees>-16.625321209430694580078125</LongitudeDegrees>
            </Position>
            <AltitudeMeters>3139.199951171875</AltitudeMeters>
            <DistanceMeters>7348.6370386283</DistanceMeters>
          </Trackpoint>
          <Trackpoint>
            <Time>2019-04-07T14:40:51.000Z</Time>
            <Position>
              <LatitudeDegrees>28.27344157733023166656494140625</LatitudeDegrees>
              <LongitudeDegrees>-16.62534895353019237518310546875</LongitudeDegrees>
            </Position>
            <AltitudeMeters>3140.39990234375</AltitudeMeters>
            <DistanceMeters>7351.4767319681</DistanceMeters>
          </Trackpoint>
          <Trackpoint>
            <Time>2019-04-07T14:40:52.000Z</Time>
            <Position>
              <LatitudeDegrees>28.2734383083879947662353515625</LatitudeDegrees>
              <LongitudeDegrees>-16.6253520548343658447265625</LongitudeDegrees>
            </Position>
            <AltitudeMeters>3140.39990234375</AltitudeMeters>
            <DistanceMeters>7351.9422658924</DistanceMeters>
          </Trackpoint>
          <Trackpoint>
            <Time>2019-04-07T14:40:59.000Z</Time>
            <Position>
              <LatitudeDegrees>28.2734507136046886444091796875</LatitudeDegrees>
              <LongitudeDegrees>-16.62537644617259502410888671875</LongitudeDegrees>
            </Position>
            <AltitudeMeters>3141.60009765625</AltitudeMeters>
            <DistanceMeters>7354.7029514085</DistanceMeters>
          </Trackpoint>
          <Trackpoint>
            <Time>2019-04-07T14:41:01.000Z</Time>
            <Position>
              <LatitudeDegrees>28.2734535634517669677734375</LatitudeDegrees>
              <LongitudeDegrees>-16.6253880970180034637451171875</LongitudeDegrees>
            </Position>
            <AltitudeMeters>3142</AltitudeMeters>
            <DistanceMeters>7355.8860244615</DistanceMeters>
          </Trackpoint>
          <Trackpoint>
            <Time>2019-04-07T14:41:06.000Z</Time>
            <Position>
              <LatitudeDegrees>28.27344744466245174407958984375</LatitudeDegrees>
              <LongitudeDegrees>-16.62540745921432971954345703125</LongitudeDegrees>
            </Position>
            <AltitudeMeters>3142.800048828125</AltitudeMeters>
            <DistanceMeters>7357.9018454853</DistanceMeters>
          </Trackpoint>
          <Trackpoint>
            <Time>2019-04-07T14:41:11.000Z</Time>
            <Position>
              <LatitudeDegrees>28.27344610355794429779052734375</LatitudeDegrees>
              <LongitudeDegrees>-16.6254310123622417449951171875</LongitudeDegrees>
            </Position>
            <AltitudeMeters>3143.800048828125</AltitudeMeters>
            <DistanceMeters>7360.2139452354</DistanceMeters>
          </Trackpoint>
          <Trackpoint>
            <Time>2019-04-07T14:41:12.000Z</Time>
            <Position>
              <LatitudeDegrees>28.2734443433582782745361328125</LatitudeDegrees>
              <LongitudeDegrees>-16.62543545477092266082763671875</LongitudeDegrees>
            </Position>
            <AltitudeMeters>3144</AltitudeMeters>
            <DistanceMeters>7360.6984883063</DistanceMeters>
          </Trackpoint>
          <Trackpoint>
            <Time>2019-04-07T14:41:17.000Z</Time>
            <Position>
              <LatitudeDegrees>28.2734275795519351959228515625</LatitudeDegrees>
              <LongitudeDegrees>-16.6254566609859466552734375</LongitudeDegrees>
            </Position>
            <AltitudeMeters>3145</AltitudeMeters>
            <DistanceMeters>7363.4933078218</DistanceMeters>
          </Trackpoint>
          <Trackpoint>
            <Time>2019-04-07T14:41:21.000Z</Time>
            <Position>
              <LatitudeDegrees>28.27341735363006591796875</LatitudeDegrees>
              <LongitudeDegrees>-16.6254813037812709808349609375</LongitudeDegrees>
            </Position>
            <AltitudeMeters>3145.39990234375</AltitudeMeters>
            <DistanceMeters>7366.1608348109</DistanceMeters>
          </Trackpoint>
          <Trackpoint>
            <Time>2019-04-07T14:41:26.000Z</Time>
            <Position>
              <LatitudeDegrees>28.27339832670986652374267578125</LatitudeDegrees>
              <LongitudeDegrees>-16.62549966014921665191650390625</LongitudeDegrees>
            </Position>
            <AltitudeMeters>3146</AltitudeMeters>
            <DistanceMeters>7368.9394523376</DistanceMeters>
          </Trackpoint>
          <Trackpoint>
            <Time>2019-04-07T14:41:31.000Z</Time>
            <Position>
              <LatitudeDegrees>28.27338692732155323028564453125</LatitudeDegrees>
              <LongitudeDegrees>-16.62552061490714550018310546875</LongitudeDegrees>
            </Position>
            <AltitudeMeters>3146.60009765625</AltitudeMeters>
            <DistanceMeters>7371.3528315673</DistanceMeters>
          </Trackpoint>
          <Trackpoint>
            <Time>2019-04-07T14:41:37.000Z</Time>
            <Position>
              <LatitudeDegrees>28.2733749412000179290771484375</LatitudeDegrees>
              <LongitudeDegrees>-16.62554089911282062530517578125</LongitudeDegrees>
            </Position>
            <AltitudeMeters>3147.199951171875</AltitudeMeters>
            <DistanceMeters>7373.7455430973</DistanceMeters>
          </Trackpoint>
          <Trackpoint>
            <Time>2019-04-07T14:41:39.000Z</Time>
            <Position>
              <LatitudeDegrees>28.2733715884387493133544921875</LatitudeDegrees>
              <LongitudeDegrees>-16.625546179711818695068359375</LongitudeDegrees>
            </Position>
            <AltitudeMeters>3147.199951171875</AltitudeMeters>
            <DistanceMeters>7374.3758790105</DistanceMeters>
          </Trackpoint>
          <Trackpoint>
            <Time>2019-04-07T14:41:48.000Z</Time>
            <Position>
              <LatitudeDegrees>28.27335692010819911956787109375</LatitudeDegrees>
              <LongitudeDegrees>-16.62557266652584075927734375</LongitudeDegrees>
            </Position>
            <AltitudeMeters>3147</AltitudeMeters>
            <DistanceMeters>7377.4418714401</DistanceMeters>
          </Trackpoint>
          <Trackpoint>
            <Time>2019-04-07T14:41:58.000Z</Time>
            <Position>
              <LatitudeDegrees>28.2733565010130405426025390625</LatitudeDegrees>
              <LongitudeDegrees>-16.62557224743068218231201171875</LongitudeDegrees>
            </Position>
            <AltitudeMeters>3147.39990234375</AltitudeMeters>
            <DistanceMeters>7377.4418714401</DistanceMeters>
          </Trackpoint>
          <Trackpoint>
            <Time>2019-04-07T14:42:06.000Z</Time>
            <Position>
              <LatitudeDegrees>28.27338743023574352264404296875</LatitudeDegrees>
              <LongitudeDegrees>-16.62559102289378643035888671875</LongitudeDegrees>
            </Position>
            <AltitudeMeters>3147.800048828125</AltitudeMeters>
            <DistanceMeters>7381.3460703384</DistanceMeters>
          </Trackpoint>
          <Trackpoint>
            <Time>2019-04-07T14:42:09.000Z</Time>
            <Position>
              <LatitudeDegrees>28.2734024338424205780029296875</LatitudeDegrees>
              <LongitudeDegrees>-16.62559320218861103057861328125</LongitudeDegrees>
            </Position>
            <AltitudeMeters>3148.39990234375</AltitudeMeters>
            <DistanceMeters>7383.0299480071</DistanceMeters>
          </Trackpoint>
          <Trackpoint>
            <Time>2019-04-07T14:42:15.000Z</Time>
            <Position>
              <LatitudeDegrees>28.27339463867247104644775390625</LatitudeDegrees>
              <LongitudeDegrees>-16.62562002427875995635986328125</LongitudeDegrees>
            </Position>
            <AltitudeMeters>3149.39990234375</AltitudeMeters>
            <DistanceMeters>7385.7987988339</DistanceMeters>
          </Trackpoint>
          <Trackpoint>
            <Time>2019-04-07T14:42:16.000Z</Time>
            <Position>
              <LatitudeDegrees>28.27338927425444126129150390625</LatitudeDegrees>
              <LongitudeDegrees>-16.625623963773250579833984375</LongitudeDegrees>
            </Position>
            <AltitudeMeters>3149.39990234375</AltitudeMeters>
            <DistanceMeters>7386.5099136494</DistanceMeters>
          </Trackpoint>
          <Trackpoint>
            <Time>2019-04-07T14:42:21.000Z</Time>
            <Position>
              <LatitudeDegrees>28.27336714603006839752197265625</LatitudeDegrees>
              <LongitudeDegrees>-16.6256429068744182586669921875</LongitudeDegrees>
            </Position>
            <AltitudeMeters>3150.39990234375</AltitudeMeters>
            <DistanceMeters>7389.5949907266</DistanceMeters>
          </Trackpoint>
          <Trackpoint>
            <Time>2019-04-07T14:42:27.000Z</Time>
            <Position>
              <LatitudeDegrees>28.27334317378699779510498046875</LatitudeDegrees>
              <LongitudeDegrees>-16.62566478364169597625732421875</LongitudeDegrees>
            </Position>
            <AltitudeMeters>3151.60009765625</AltitudeMeters>
            <DistanceMeters>7393.0185910573</DistanceMeters>
          </Trackpoint>
          <Trackpoint>
            <Time>2019-04-07T14:42:28.000Z</Time>
            <Position>
              <LatitudeDegrees>28.2733343727886676788330078125</LatitudeDegrees>
              <LongitudeDegrees>-16.62566897459328174591064453125</LongitudeDegrees>
            </Position>
            <AltitudeMeters>3151.60009765625</AltitudeMeters>
            <DistanceMeters>7394.0852632806</DistanceMeters>
          </Trackpoint>
          <Trackpoint>
            <Time>2019-04-07T14:42:34.000Z</Time>
            <Position>
              <LatitudeDegrees>28.2733087241649627685546875</LatitudeDegrees>
              <LongitudeDegrees>-16.62569470703601837158203125</LongitudeDegrees>
            </Position>
            <AltitudeMeters>3151.800048828125</AltitudeMeters>
            <DistanceMeters>7397.8934521899</DistanceMeters>
          </Trackpoint>
          <Trackpoint>
            <Time>2019-04-07T14:42:42.000Z</Time>
            <Position>
              <LatitudeDegrees>28.27332104556262493133544921875</LatitudeDegrees>
              <LongitudeDegrees>-16.62571390159428119659423828125</LongitudeDegrees>
            </Position>
            <AltitudeMeters>3152.39990234375</AltitudeMeters>
            <DistanceMeters>7400.2211218113</DistanceMeters>
          </Trackpoint>
          <Trackpoint>
            <Time>2019-04-07T14:42:43.000Z</Time>
            <Position>
              <LatitudeDegrees>28.27332817018032073974609375</LatitudeDegrees>
              <LongitudeDegrees>-16.62571490742266178131103515625</LongitudeDegrees>
            </Position>
            <AltitudeMeters>3152.60009765625</AltitudeMeters>
            <DistanceMeters>7401.021831139</DistanceMeters>
          </Trackpoint>
          <Trackpoint>
            <Time>2019-04-07T14:42:51.000Z</Time>
            <Position>
              <LatitudeDegrees>28.2733618654310703277587890625</LatitudeDegrees>
              <LongitudeDegrees>-16.625707447528839111328125</LongitudeDegrees>
            </Position>
            <AltitudeMeters>3153.60009765625</AltitudeMeters>
            <DistanceMeters>7404.8430395355</DistanceMeters>
          </Trackpoint>
          <Trackpoint>
            <Time>2019-04-07T14:42:55.000Z</Time>
            <Position>
              <LatitudeDegrees>28.27337619848549365997314453125</LatitudeDegrees>
              <LongitudeDegrees>-16.6257062740623950958251953125</LongitudeDegrees>
            </Position>
            <AltitudeMeters>3153.800048828125</AltitudeMeters>
            <DistanceMeters>7406.4472751126</DistanceMeters>
          </Trackpoint>
          <Trackpoint>
            <Time>2019-04-07T14:43:01.000Z</Time>
            <Position>
              <LatitudeDegrees>28.27339656651020050048828125</LatitudeDegrees>
              <LongitudeDegrees>-16.62569873034954071044921875</LongitudeDegrees>
            </Position>
            <AltitudeMeters>3154</AltitudeMeters>
            <DistanceMeters>7408.8324267135</DistanceMeters>
          </Trackpoint>
          <Trackpoint>
            <Time>2019-04-07T14:43:04.000Z</Time>
            <Position>
              <LatitudeDegrees>28.27340318821370601654052734375</LatitudeDegrees>
              <LongitudeDegrees>-16.6257129795849323272705078125</LongitudeDegrees>
            </Position>
            <AltitudeMeters>3154.800048828125</AltitudeMeters>
            <DistanceMeters>7410.4111290599</DistanceMeters>
          </Trackpoint>
          <Trackpoint>
            <Time>2019-04-07T14:43:10.000Z</Time>
            <Position>
              <LatitudeDegrees>28.27342146076261997222900390625</LatitudeDegrees>
              <LongitudeDegrees>-16.6257302463054656982421875</LongitudeDegrees>
            </Position>
            <AltitudeMeters>3155.60009765625</AltitudeMeters>
            <DistanceMeters>7413.0548535478</DistanceMeters>
          </Trackpoint>
          <Trackpoint>
            <Time>2019-04-07T14:43:16.000Z</Time>
            <Position>
              <LatitudeDegrees>28.273429758846759796142578125</LatitudeDegrees>
              <LongitudeDegrees>-16.625728569924831390380859375</LongitudeDegrees>
            </Position>
            <AltitudeMeters>3155.800048828125</AltitudeMeters>
            <DistanceMeters>7413.9859213963</DistanceMeters>
          </Trackpoint>
          <Trackpoint>
            <Time>2019-04-07T14:43:20.000Z</Time>
            <Position>
              <LatitudeDegrees>28.27343135140836238861083984375</LatitudeDegrees>
              <LongitudeDegrees>-16.62573133595287799835205078125</LongitudeDegrees>
            </Position>
            <AltitudeMeters>3155.60009765625</AltitudeMeters>
            <DistanceMeters>7414.2864222523</DistanceMeters>
          </Trackpoint>
          <Trackpoint>
            <Time>2019-04-07T14:43:29.000Z</Time>
            <Position>
              <LatitudeDegrees>28.2734265737235546112060546875</LatitudeDegrees>
              <LongitudeDegrees>-16.6257532127201557159423828125</LongitudeDegrees>
            </Position>
            <AltitudeMeters>3156.199951171875</AltitudeMeters>
            <DistanceMeters>7416.4966872491</DistanceMeters>
          </Trackpoint>
          <Trackpoint>
            <Time>2019-04-07T14:43:40.000Z</Time>
            <Position>
              <LatitudeDegrees>28.273428417742252349853515625</LatitudeDegrees>
              <LongitudeDegrees>-16.62575773894786834716796875</LongitudeDegrees>
            </Position>
            <AltitudeMeters>3156.39990234375</AltitudeMeters>
            <DistanceMeters>7416.98123032</DistanceMeters>
          </Trackpoint>
          <Trackpoint>
            <Time>2019-04-07T14:43:57.000Z</Time>
            <Position>
              <LatitudeDegrees>28.27342875301837921142578125</LatitudeDegrees>
              <LongitudeDegrees>-16.62576151080429553985595703125</LongitudeDegrees>
            </Position>
            <AltitudeMeters>3156</AltitudeMeters>
            <DistanceMeters>7417.3613371775</DistanceMeters>
          </Trackpoint>
          <Trackpoint>
            <Time>2019-04-07T14:44:12.000Z</Time>
            <Position>
              <LatitudeDegrees>28.27342866919934749603271484375</LatitudeDegrees>
              <LongitudeDegrees>-16.625762768089771270751953125</LongitudeDegrees>
            </Position>
            <AltitudeMeters>3156</AltitudeMeters>
            <DistanceMeters>7417.4957252457</DistanceMeters>
          </Trackpoint>
          <Trackpoint>
            <Time>2019-04-07T14:44:28.000Z</Time>
            <Position>
              <LatitudeDegrees>28.27342766337096691131591796875</LatitudeDegrees>
              <LongitudeDegrees>-16.625760085880756378173828125</LongitudeDegrees>
            </Position>
            <AltitudeMeters>3156</AltitudeMeters>
            <DistanceMeters>7417.7808053889</DistanceMeters>
          </Trackpoint>
          <Trackpoint>
            <Time>2019-04-07T14:44:41.000Z</Time>
            <Position>
              <LatitudeDegrees>28.27342330478131771087646484375</LatitudeDegrees>
              <LongitudeDegrees>-16.62576419301331043243408203125</LongitudeDegrees>
            </Position>
            <AltitudeMeters>3155.60009765625</AltitudeMeters>
            <DistanceMeters>7418.4111413021</DistanceMeters>
          </Trackpoint>
          <Trackpoint>
            <Time>2019-04-07T14:45:15.000Z</Time>
            <Position>
              <LatitudeDegrees>28.2734171859920024871826171875</LatitudeDegrees>
              <LongitudeDegrees>-16.62576989270746707916259765625</LongitudeDegrees>
            </Position>
            <AltitudeMeters>3156.39990234375</AltitudeMeters>
            <DistanceMeters>7419.2974914872</DistanceMeters>
          </Trackpoint>
          <Trackpoint>
            <Time>2019-04-07T14:45:27.000Z</Time>
            <Position>
              <LatitudeDegrees>28.27341358177363872528076171875</LatitudeDegrees>
              <LongitudeDegrees>-16.62577676586806774139404296875</LongitudeDegrees>
            </Position>
            <AltitudeMeters>3156.800048828125</AltitudeMeters>
            <DistanceMeters>7420.0811018484</DistanceMeters>
          </Trackpoint>
          <Trackpoint>
            <Time>2019-04-07T14:45:33.000Z</Time>
            <Position>
              <LatitudeDegrees>28.27341576106846332550048828125</LatitudeDegrees>
              <LongitudeDegrees>-16.62579202093183994293212890625</LongitudeDegrees>
            </Position>
            <AltitudeMeters>3158</AltitudeMeters>
            <DistanceMeters>7421.5955784632</DistanceMeters>
          </Trackpoint>
          <Trackpoint>
            <Time>2019-04-07T14:45:38.000Z</Time>
            <Position>
              <LatitudeDegrees>28.2734334468841552734375</LatitudeDegrees>
              <LongitudeDegrees>-16.625802330672740936279296875</LongitudeDegrees>
            </Position>
            <AltitudeMeters>3158.800048828125</AltitudeMeters>
            <DistanceMeters>7423.8078852757</DistanceMeters>
          </Trackpoint>
          <Trackpoint>
            <Time>2019-04-07T14:45:41.000Z</Time>
            <Position>
              <LatitudeDegrees>28.27343872748315334320068359375</LatitudeDegrees>
              <LongitudeDegrees>-16.625798977911472320556640625</LongitudeDegrees>
            </Position>
            <AltitudeMeters>3159.199951171875</AltitudeMeters>
            <DistanceMeters>7424.479825617</DistanceMeters>
          </Trackpoint>
          <Trackpoint>
            <Time>2019-04-07T14:45:46.000Z</Time>
            <Position>
              <LatitudeDegrees>28.2734487019479274749755859375</LatitudeDegrees>
              <LongitudeDegrees>-16.625788249075412750244140625</LongitudeDegrees>
            </Position>
            <AltitudeMeters>3160</AltitudeMeters>
            <DistanceMeters>7426.0091358533</DistanceMeters>
          </Trackpoint>
          <Trackpoint>
            <Time>2019-04-07T14:45:47.000Z</Time>
            <Position>
              <LatitudeDegrees>28.27345423400402069091796875</LatitudeDegrees>
              <LongitudeDegrees>-16.62578682415187358856201171875</LongitudeDegrees>
            </Position>
            <AltitudeMeters>3160.199951171875</AltitudeMeters>
            <DistanceMeters>7426.6394717665</DistanceMeters>
          </Trackpoint>
          <Trackpoint>
            <Time>2019-04-07T14:45:54.000Z</Time>
            <Position>
              <LatitudeDegrees>28.27346923761069774627685546875</LatitudeDegrees>
              <LongitudeDegrees>-16.62580559961497783660888671875</LongitudeDegrees>
            </Position>
            <AltitudeMeters>3160.39990234375</AltitudeMeters>
            <DistanceMeters>7429.1247428358</DistanceMeters>
          </Trackpoint>
          <Trackpoint>
            <Time>2019-04-07T14:46:09.000Z</Time>
            <Position>
              <LatitudeDegrees>28.273470662534236907958984375</LatitudeDegrees>
              <LongitudeDegrees>-16.625820100307464599609375</LongitudeDegrees>
            </Position>
            <AltitudeMeters>3160.60009765625</AltitudeMeters>
            <DistanceMeters>7430.5533075968</DistanceMeters>
          </Trackpoint>
          <Trackpoint>
            <Time>2019-04-07T14:46:16.000Z</Time>
            <Position>
              <LatitudeDegrees>28.273463286459445953369140625</LatitudeDegrees>
              <LongitudeDegrees>-16.62584885023534297943115234375</LongitudeDegrees>
            </Position>
            <AltitudeMeters>3161.60009765625</AltitudeMeters>
            <DistanceMeters>7433.4899252096</DistanceMeters>
          </Trackpoint>
          <Trackpoint>
            <Time>2019-04-07T14:46:19.000Z</Time>
            <Position>
              <LatitudeDegrees>28.27345364727079868316650390625</LatitudeDegrees>
              <LongitudeDegrees>-16.62585823796689510345458984375</LongitudeDegrees>
            </Position>
            <AltitudeMeters>3161.800048828125</AltitudeMeters>
            <DistanceMeters>7434.9025988783</DistanceMeters>
          </Trackpoint>
          <Trackpoint>
            <Time>2019-04-07T14:46:26.000Z</Time>
            <Position>
              <LatitudeDegrees>28.273422718048095703125</LatitudeDegrees>
              <LongitudeDegrees>-16.625866033136844635009765625</LongitudeDegrees>
            </Position>
            <AltitudeMeters>3162.60009765625</AltitudeMeters>
            <DistanceMeters>7438.4288455037</DistanceMeters>
          </Trackpoint>
          <Trackpoint>
            <Time>2019-04-07T14:46:28.000Z</Time>
            <Position>
              <LatitudeDegrees>28.27341374941170215606689453125</LatitudeDegrees>
              <LongitudeDegrees>-16.62586997263133525848388671875</LongitudeDegrees>
            </Position>
            <AltitudeMeters>3162.800048828125</AltitudeMeters>
            <DistanceMeters>7439.495517727</DistanceMeters>
          </Trackpoint>
          <Trackpoint>
            <Time>2019-04-07T14:46:35.000Z</Time>
            <Position>
              <LatitudeDegrees>28.273375444114208221435546875</LatitudeDegrees>
              <LongitudeDegrees>-16.62589159794151782989501953125</LongitudeDegrees>
            </Position>
            <AltitudeMeters>3163.60009765625</AltitudeMeters>
            <DistanceMeters>7444.2563466332</DistanceMeters>
          </Trackpoint>
          <Trackpoint>
            <Time>2019-04-07T14:46:36.000Z</Time>
            <Position>
              <LatitudeDegrees>28.27337200753390789031982421875</LatitudeDegrees>
              <LongitudeDegrees>-16.62589327432215213775634765625</LongitudeDegrees>
            </Position>
            <AltitudeMeters>3163.800048828125</AltitudeMeters>
            <DistanceMeters>7444.6705584781</DistanceMeters>
          </Trackpoint>
          <Trackpoint>
            <Time>2019-04-07T14:46:44.000Z</Time>
            <Position>
              <LatitudeDegrees>28.27332557179033756256103515625</LatitudeDegrees>
              <LongitudeDegrees>-16.6259287297725677490234375</LongitudeDegrees>
            </Position>
            <AltitudeMeters>3164.60009765625</AltitudeMeters>
            <DistanceMeters>7450.8989778926</DistanceMeters>
          </Trackpoint>
          <Trackpoint>
            <Time>2019-04-07T14:46:46.000Z</Time>
            <Position>
              <LatitudeDegrees>28.2733125798404216766357421875</LatitudeDegrees>
              <LongitudeDegrees>-16.62593878805637359619140625</LongitudeDegrees>
            </Position>
            <AltitudeMeters>3164.60009765625</AltitudeMeters>
            <DistanceMeters>7452.6511839281</DistanceMeters>
          </Trackpoint>
          <Trackpoint>
            <Time>2019-04-07T14:46:55.000Z</Time>
            <Position>
              <LatitudeDegrees>28.27326488681137561798095703125</LatitudeDegrees>
              <LongitudeDegrees>-16.62597189657390117645263671875</LongitudeDegrees>
            </Position>
            <AltitudeMeters>3165.60009765625</AltitudeMeters>
            <DistanceMeters>7458.8730757397</DistanceMeters>
          </Trackpoint>
          <Trackpoint>
            <Time>2019-04-07T14:47:07.000Z</Time>
            <Position>
              <LatitudeDegrees>28.27326354570686817169189453125</LatitudeDegrees>
              <LongitudeDegrees>-16.6259855590760707855224609375</LongitudeDegrees>
            </Position>
            <AltitudeMeters>3165.39990234375</AltitudeMeters>
            <DistanceMeters>7460.2203119348</DistanceMeters>
          </Trackpoint>
          <Trackpoint>
            <Time>2019-04-07T14:47:11.000Z</Time>
            <Position>
              <LatitudeDegrees>28.273275531828403472900390625</LatitudeDegrees>
              <LongitudeDegrees>-16.625991426408290863037109375</LongitudeDegrees>
            </Position>
            <AltitudeMeters>3166</AltitudeMeters>
            <DistanceMeters>7461.6708317766</DistanceMeters>
          </Trackpoint>
          <Trackpoint>
            <Time>2019-04-07T14:47:17.000Z</Time>
            <Position>
              <LatitudeDegrees>28.2732954807579517364501953125</LatitudeDegrees>
              <LongitudeDegrees>-16.62597491405904293060302734375</LongitudeDegrees>
            </Position>
            <AltitudeMeters>3166.39990234375</AltitudeMeters>
            <DistanceMeters>7464.4200451156</DistanceMeters>
          </Trackpoint>
          <Trackpoint>
            <Time>2019-04-07T14:47:22.000Z</Time>
            <Position>
              <LatitudeDegrees>28.27331702224910259246826171875</LatitudeDegrees>
              <LongitudeDegrees>-16.62596317939460277557373046875</LongitudeDegrees>
            </Position>
            <AltitudeMeters>3167</AltitudeMeters>
            <DistanceMeters>7467.080793118</DistanceMeters>
          </Trackpoint>
          <Trackpoint>
            <Time>2019-04-07T14:47:28.000Z</Time>
            <Position>
              <LatitudeDegrees>28.27334225177764892578125</LatitudeDegrees>
              <LongitudeDegrees>-16.6259540431201457977294921875</LongitudeDegrees>
            </Position>
            <AltitudeMeters>3167.800048828125</AltitudeMeters>
            <DistanceMeters>7470.0281535539</DistanceMeters>
          </Trackpoint>
          <Trackpoint>
            <Time>2019-04-07T14:47:30.000Z</Time>
            <Position>
              <LatitudeDegrees>28.2733477838337421417236328125</LatitudeDegrees>
              <LongitudeDegrees>-16.62595362402498722076416015625</LongitudeDegrees>
            </Position>
            <AltitudeMeters>3168.199951171875</AltitudeMeters>
            <DistanceMeters>7470.6439970491</DistanceMeters>
          </Trackpoint>
          <Trackpoint>
            <Time>2019-04-07T14:47:36.000Z</Time>
            <Position>
              <LatitudeDegrees>28.27337033115327358245849609375</LatitudeDegrees>
              <LongitudeDegrees>-16.62596066482365131378173828125</LongitudeDegrees>
            </Position>
            <AltitudeMeters>3169.199951171875</AltitudeMeters>
            <DistanceMeters>7473.248145165</DistanceMeters>
          </Trackpoint>
          <Trackpoint>
            <Time>2019-04-07T14:47:37.000Z</Time>
            <Position>
              <LatitudeDegrees>28.27337519265711307525634765625</LatitudeDegrees>
              <LongitudeDegrees>-16.62596225738525390625</LongitudeDegrees>
            </Position>
            <AltitudeMeters>3169.39990234375</AltitudeMeters>
            <DistanceMeters>7473.8022413652</DistanceMeters>
          </Trackpoint>
          <Trackpoint>
            <Time>2019-04-07T14:47:43.000Z</Time>
            <Position>
              <LatitudeDegrees>28.2733891904354095458984375</LatitudeDegrees>
              <LongitudeDegrees>-16.62598446942865848541259765625</LongitudeDegrees>
            </Position>
            <AltitudeMeters>3170.199951171875</AltitudeMeters>
            <DistanceMeters>7476.4799046556</DistanceMeters>
          </Trackpoint>
          <Trackpoint>
            <Time>2019-04-07T14:47:46.000Z</Time>
            <Position>
              <LatitudeDegrees>28.2733833231031894683837890625</LatitudeDegrees>
              <LongitudeDegrees>-16.6259912587702274322509765625</LongitudeDegrees>
            </Position>
            <AltitudeMeters>3170.60009765625</AltitudeMeters>
            <DistanceMeters>7477.4158092528</DistanceMeters>
          </Trackpoint>
          <Trackpoint>
            <Time>2019-04-07T14:47:52.000Z</Time>
            <Position>
              <LatitudeDegrees>28.27337318100035190582275390625</LatitudeDegrees>
              <LongitudeDegrees>-16.62601900286972522735595703125</LongitudeDegrees>
            </Position>
            <AltitudeMeters>3171.60009765625</AltitudeMeters>
            <DistanceMeters>7480.3601043104</DistanceMeters>
          </Trackpoint>
          <Trackpoint>
            <Time>2019-04-07T14:47:54.000Z</Time>
            <Position>
              <LatitudeDegrees>28.2733772881329059600830078125</LatitudeDegrees>
              <LongitudeDegrees>-16.6260311566293239593505859375</LongitudeDegrees>
            </Position>
            <AltitudeMeters>3171.800048828125</AltitudeMeters>
            <DistanceMeters>7481.6314750995</DistanceMeters>
          </Trackpoint>
          <Trackpoint>
            <Time>2019-04-07T14:48:00.000Z</Time>
            <Position>
              <LatitudeDegrees>28.2733695767819881439208984375</LatitudeDegrees>
              <LongitudeDegrees>-16.62606418132781982421875</LongitudeDegrees>
            </Position>
            <AltitudeMeters>3172.800048828125</AltitudeMeters>
            <DistanceMeters>7484.97906003</DistanceMeters>
          </Trackpoint>
          <Trackpoint>
            <Time>2019-04-07T14:48:03.000Z</Time>
            <Position>
              <LatitudeDegrees>28.27336630783975124359130859375</LatitudeDegrees>
              <LongitudeDegrees>-16.626073233783245086669921875</LongitudeDegrees>
            </Position>
            <AltitudeMeters>3173.199951171875</AltitudeMeters>
            <DistanceMeters>7485.9387828011</DistanceMeters>
          </Trackpoint>
          <Trackpoint>
            <Time>2019-04-07T14:48:14.000Z</Time>
            <Position>
              <LatitudeDegrees>28.27335231006145477294921875</LatitudeDegrees>
              <LongitudeDegrees>-16.62609142251312732696533203125</LongitudeDegrees>
            </Position>
            <AltitudeMeters>3173.39990234375</AltitudeMeters>
            <DistanceMeters>7488.3068363207</DistanceMeters>
          </Trackpoint>
          <Trackpoint>
            <Time>2019-04-07T14:48:18.000Z</Time>
            <Position>
              <LatitudeDegrees>28.2733435928821563720703125</LatitudeDegrees>
              <LongitudeDegrees>-16.62610466592013835906982421875</LongitudeDegrees>
            </Position>
            <AltitudeMeters>3174</AltitudeMeters>
            <DistanceMeters>7489.9278706341</DistanceMeters>
          </Trackpoint>
          <Trackpoint>
            <Time>2019-04-07T14:48:24.000Z</Time>
            <Position>
              <LatitudeDegrees>28.27333680354058742523193359375</LatitudeDegrees>
              <LongitudeDegrees>-16.62612126208841800689697265625</LongitudeDegrees>
            </Position>
            <AltitudeMeters>3174.60009765625</AltitudeMeters>
            <DistanceMeters>7491.7208310949</DistanceMeters>
          </Trackpoint>
          <Trackpoint>
            <Time>2019-04-07T14:48:32.000Z</Time>
            <Position>
              <LatitudeDegrees>28.273332528769969940185546875</LatitudeDegrees>
              <LongitudeDegrees>-16.62615562789142131805419921875</LongitudeDegrees>
            </Position>
            <AltitudeMeters>3175.199951171875</AltitudeMeters>
            <DistanceMeters>7495.1232652237</DistanceMeters>
          </Trackpoint>
          <Trackpoint>
            <Time>2019-04-07T14:48:35.000Z</Time>
            <Position>
              <LatitudeDegrees>28.2733333669602870941162109375</LatitudeDegrees>
              <LongitudeDegrees>-16.6261728107929229736328125</LongitudeDegrees>
            </Position>
            <AltitudeMeters>3175.39990234375</AltitudeMeters>
            <DistanceMeters>7496.8071428925</DistanceMeters>
          </Trackpoint>
          <Trackpoint>
            <Time>2019-04-07T14:48:42.000Z</Time>
            <Position>
              <LatitudeDegrees>28.27332791872322559356689453125</LatitudeDegrees>
              <LongitudeDegrees>-16.62619519047439098358154296875</LongitudeDegrees>
            </Position>
            <AltitudeMeters>3176.199951171875</AltitudeMeters>
            <DistanceMeters>7499.083821148</DistanceMeters>
          </Trackpoint>
          <Trackpoint>
            <Time>2019-04-07T14:48:45.000Z</Time>
            <Position>
              <LatitudeDegrees>28.27331752516329288482666015625</LatitudeDegrees>
              <LongitudeDegrees>-16.62620575167238712310791015625</LongitudeDegrees>
            </Position>
            <AltitudeMeters>3177.199951171875</AltitudeMeters>
            <DistanceMeters>7500.636570455</DistanceMeters>
          </Trackpoint>
          <Trackpoint>
            <Time>2019-04-07T14:48:48.000Z</Time>
            <Position>
              <LatitudeDegrees>28.27330864034593105316162109375</LatitudeDegrees>
              <LongitudeDegrees>-16.626219414174556732177734375</LongitudeDegrees>
            </Position>
            <AltitudeMeters>3177.60009765625</AltitudeMeters>
            <DistanceMeters>7502.301572998</DistanceMeters>
          </Trackpoint>
          <Trackpoint>
            <Time>2019-04-07T14:48:54.000Z</Time>
            <Position>
              <LatitudeDegrees>28.2733052037656307220458984375</LatitudeDegrees>
              <LongitudeDegrees>-16.62624581716954708099365234375</LongitudeDegrees>
            </Position>
            <AltitudeMeters>3178.60009765625</AltitudeMeters>
            <DistanceMeters>7504.9178294733</DistanceMeters>
          </Trackpoint>
          <Trackpoint>
            <Time>2019-04-07T14:48:55.000Z</Time>
            <Position>
              <LatitudeDegrees>28.2733021862804889678955078125</LatitudeDegrees>
              <LongitudeDegrees>-16.626250259578227996826171875</LongitudeDegrees>
            </Position>
            <AltitudeMeters>3178.800048828125</AltitudeMeters>
            <DistanceMeters>7505.4637163871</DistanceMeters>
          </Trackpoint>
          <Trackpoint>
            <Time>2019-04-07T14:49:02.000Z</Time>
            <Position>
              <LatitudeDegrees>28.27327720820903778076171875</LatitudeDegrees>
              <LongitudeDegrees>-16.62626333534717559814453125</LongitudeDegrees>
            </Position>
            <AltitudeMeters>3179.800048828125</AltitudeMeters>
            <DistanceMeters>7508.5238126719</DistanceMeters>
          </Trackpoint>
          <Trackpoint>
            <Time>2019-04-07T14:49:03.000Z</Time>
            <Position>
              <LatitudeDegrees>28.27327494509518146514892578125</LatitudeDegrees>
              <LongitudeDegrees>-16.62626610137522220611572265625</LongitudeDegrees>
            </Position>
            <AltitudeMeters>3180</AltitudeMeters>
            <DistanceMeters>7508.8793700797</DistanceMeters>
          </Trackpoint>
          <Trackpoint>
            <Time>2019-04-07T14:49:11.000Z</Time>
            <Position>
              <LatitudeDegrees>28.27327343635261058807373046875</LatitudeDegrees>
              <LongitudeDegrees>-16.6262685321271419525146484375</LongitudeDegrees>
            </Position>
            <AltitudeMeters>3180.199951171875</AltitudeMeters>
            <DistanceMeters>7509.1644502228</DistanceMeters>
          </Trackpoint>
          <Trackpoint>
            <Time>2019-04-07T14:49:18.000Z</Time>
            <Position>
              <LatitudeDegrees>28.2732891105115413665771484375</LatitudeDegrees>
              <LongitudeDegrees>-16.62625797092914581298828125</LongitudeDegrees>
            </Position>
            <AltitudeMeters>3180.60009765625</AltitudeMeters>
            <DistanceMeters>7511.1936655535</DistanceMeters>
          </Trackpoint>
          <Trackpoint>
            <Time>2019-04-07T14:49:21.000Z</Time>
            <Position>
              <LatitudeDegrees>28.27329606749117374420166015625</LatitudeDegrees>
              <LongitudeDegrees>-16.6262460686266422271728515625</LongitudeDegrees>
            </Position>
            <AltitudeMeters>3181</AltitudeMeters>
            <DistanceMeters>7512.5902673264</DistanceMeters>
          </Trackpoint>
          <Trackpoint>
            <Time>2019-04-07T14:49:28.000Z</Time>
            <Position>
              <LatitudeDegrees>28.273307383060455322265625</LatitudeDegrees>
              <LongitudeDegrees>-16.626251600682735443115234375</LongitudeDegrees>
            </Position>
            <AltitudeMeters>3182.199951171875</AltitudeMeters>
            <DistanceMeters>7513.9607620912</DistanceMeters>
          </Trackpoint>
          <Trackpoint>
            <Time>2019-04-07T14:49:37.000Z</Time>
            <Position>
              <LatitudeDegrees>28.27331249602138996124267578125</LatitudeDegrees>
              <LongitudeDegrees>-16.6262961924076080322265625</LongitudeDegrees>
            </Position>
            <AltitudeMeters>3182.800048828125</AltitudeMeters>
            <DistanceMeters>7518.3679941512</DistanceMeters>
          </Trackpoint>
          <Trackpoint>
            <Time>2019-04-07T14:49:41.000Z</Time>
            <Position>
              <LatitudeDegrees>28.273300342261791229248046875</LatitudeDegrees>
              <LongitudeDegrees>-16.62631404586136341094970703125</LongitudeDegrees>
            </Position>
            <AltitudeMeters>3183.60009765625</AltitudeMeters>
            <DistanceMeters>7520.578259148</DistanceMeters>
          </Trackpoint>
          <Trackpoint>
            <Time>2019-04-07T14:49:47.000Z</Time>
            <Position>
              <LatitudeDegrees>28.27330679632723331451416015625</LatitudeDegrees>
              <LongitudeDegrees>-16.62631957791745662689208984375</LongitudeDegrees>
            </Position>
            <AltitudeMeters>3184</AltitudeMeters>
            <DistanceMeters>7521.4797617159</DistanceMeters>
          </Trackpoint>
          <Trackpoint>
            <Time>2019-04-07T14:49:52.000Z</Time>
            <Position>
              <LatitudeDegrees>28.273335881531238555908203125</LatitudeDegrees>
              <LongitudeDegrees>-16.6263069212436676025390625</LongitudeDegrees>
            </Position>
            <AltitudeMeters>3184.800048828125</AltitudeMeters>
            <DistanceMeters>7524.9466092388</DistanceMeters>
          </Trackpoint>
          <Trackpoint>
            <Time>2019-04-07T14:49:55.000Z</Time>
            <Position>
              <LatitudeDegrees>28.27334317378699779510498046875</LatitudeDegrees>
              <LongitudeDegrees>-16.62629711441695690155029296875</LongitudeDegrees>
            </Position>
            <AltitudeMeters>3185.199951171875</AltitudeMeters>
            <DistanceMeters>7526.2036945095</DistanceMeters>
          </Trackpoint>
          <Trackpoint>
            <Time>2019-04-07T14:50:05.000Z</Time>
            <Position>
              <LatitudeDegrees>28.2733784615993499755859375</LatitudeDegrees>
              <LongitudeDegrees>-16.62624187767505645751953125</LongitudeDegrees>
            </Position>
            <AltitudeMeters>3185.199951171875</AltitudeMeters>
            <DistanceMeters>7532.8934672153</DistanceMeters>
          </Trackpoint>
          <Trackpoint>
            <Time>2019-04-07T14:50:12.000Z</Time>
            <Position>
              <LatitudeDegrees>28.27341089956462383270263671875</LatitudeDegrees>
              <LongitudeDegrees>-16.6262199170887470245361328125</LongitudeDegrees>
            </Position>
            <AltitudeMeters>3185.39990234375</AltitudeMeters>
            <DistanceMeters>7537.097258314</DistanceMeters>
          </Trackpoint>
          <Trackpoint>
            <Time>2019-04-07T14:50:18.000Z</Time>
            <Position>
              <LatitudeDegrees>28.27343889512121677398681640625</LatitudeDegrees>
              <LongitudeDegrees>-16.62622251547873020172119140625</LongitudeDegrees>
            </Position>
            <AltitudeMeters>3186</AltitudeMeters>
            <DistanceMeters>7540.2230450489</DistanceMeters>
          </Trackpoint>
          <Trackpoint>
            <Time>2019-04-07T14:50:21.000Z</Time>
            <Position>
              <LatitudeDegrees>28.27345230616629123687744140625</LatitudeDegrees>
              <LongitudeDegrees>-16.62621580995619297027587890625</LongitudeDegrees>
            </Position>
            <AltitudeMeters>3186.39990234375</AltitudeMeters>
            <DistanceMeters>7541.8524137839</DistanceMeters>
          </Trackpoint>
          <Trackpoint>
            <Time>2019-04-07T14:50:25.000Z</Time>
            <Position>
              <LatitudeDegrees>28.2734731771051883697509765625</LatitudeDegrees>
              <LongitudeDegrees>-16.626206673681735992431640625</LongitudeDegrees>
            </Position>
            <AltitudeMeters>3187.199951171875</AltitudeMeters>
            <DistanceMeters>7544.343129046</DistanceMeters>
          </Trackpoint>
          <Trackpoint>
            <Time>2019-04-07T14:50:30.000Z</Time>
            <Position>
              <LatitudeDegrees>28.27350117266178131103515625</LatitudeDegrees>
              <LongitudeDegrees>-16.62621128372848033905029296875</LongitudeDegrees>
            </Position>
            <AltitudeMeters>3188</AltitudeMeters>
            <DistanceMeters>7547.4919421455</DistanceMeters>
          </Trackpoint>
          <Trackpoint>
            <Time>2019-04-07T14:50:31.000Z</Time>
            <Position>
              <LatitudeDegrees>28.2735046930611133575439453125</LatitudeDegrees>
              <LongitudeDegrees>-16.62621312774717807769775390625</LongitudeDegrees>
            </Position>
            <AltitudeMeters>3188.199951171875</AltitudeMeters>
            <DistanceMeters>7547.9274092571</DistanceMeters>
          </Trackpoint>
          <Trackpoint>
            <Time>2019-04-07T14:50:37.000Z</Time>
            <Position>
              <LatitudeDegrees>28.2735110633075237274169921875</LatitudeDegrees>
              <LongitudeDegrees>-16.62621103227138519287109375</LongitudeDegrees>
            </Position>
            <AltitudeMeters>3189</AltitudeMeters>
            <DistanceMeters>7548.6634830215</DistanceMeters>
          </Trackpoint>
          <Trackpoint>
            <Time>2019-04-07T14:50:43.000Z</Time>
            <Position>
              <LatitudeDegrees>28.27351885847747325897216796875</LatitudeDegrees>
              <LongitudeDegrees>-16.626216731965541839599609375</LongitudeDegrees>
            </Position>
            <AltitudeMeters>3189.60009765625</AltitudeMeters>
            <DistanceMeters>7549.6957373605</DistanceMeters>
          </Trackpoint>
          <Trackpoint>
            <Time>2019-04-07T14:50:45.000Z</Time>
            <Position>
              <LatitudeDegrees>28.2735278271138668060302734375</LatitudeDegrees>
              <LongitudeDegrees>-16.62621698342263698577880859375</LongitudeDegrees>
            </Position>
            <AltitudeMeters>3189.800048828125</AltitudeMeters>
            <DistanceMeters>7550.692385949</DistanceMeters>
          </Trackpoint>
          <Trackpoint>
            <Time>2019-04-07T14:50:47.000Z</Time>
            <Position>
              <LatitudeDegrees>28.273536376655101776123046875</LatitudeDegrees>
              <LongitudeDegrees>-16.62621748633682727813720703125</LongitudeDegrees>
            </Position>
            <AltitudeMeters>3190</AltitudeMeters>
            <DistanceMeters>7551.6426530927</DistanceMeters>
          </Trackpoint>
          <Trackpoint>
            <Time>2019-04-07T14:50:54.000Z</Time>
            <Position>
              <LatitudeDegrees>28.273557163774967193603515625</LatitudeDegrees>
              <LongitudeDegrees>-16.62624045275151729583740234375</LongitudeDegrees>
            </Position>
            <AltitudeMeters>3190.39990234375</AltitudeMeters>
            <DistanceMeters>7554.8721636272</DistanceMeters>
          </Trackpoint>
          <Trackpoint>
            <Time>2019-04-07T14:50:58.000Z</Time>
            <Position>
              <LatitudeDegrees>28.2735496200621128082275390625</LatitudeDegrees>
              <LongitudeDegrees>-16.62626777775585651397705078125</LongitudeDegrees>
            </Position>
            <AltitudeMeters>3191</AltitudeMeters>
            <DistanceMeters>7557.6782688746</DistanceMeters>
          </Trackpoint>
          <Trackpoint>
            <Time>2019-04-07T14:51:05.000Z</Time>
            <Position>
              <LatitudeDegrees>28.27355884015560150146484375</LatitudeDegrees>
              <LongitudeDegrees>-16.62629812024533748626708984375</LongitudeDegrees>
            </Position>
            <AltitudeMeters>3191.39990234375</AltitudeMeters>
            <DistanceMeters>7560.8256477617</DistanceMeters>
          </Trackpoint>
          <Trackpoint>
            <Time>2019-04-07T14:51:09.000Z</Time>
            <Position>
              <LatitudeDegrees>28.2735596783459186553955078125</LatitudeDegrees>
              <LongitudeDegrees>-16.62631857208907604217529296875</LongitudeDegrees>
            </Position>
            <AltitudeMeters>3192</AltitudeMeters>
            <DistanceMeters>7562.8324895825</DistanceMeters>
          </Trackpoint>
          <Trackpoint>
            <Time>2019-04-07T14:51:13.000Z</Time>
            <Position>
              <LatitudeDegrees>28.2735573314130306243896484375</LatitudeDegrees>
              <LongitudeDegrees>-16.6263386048376560211181640625</LongitudeDegrees>
            </Position>
            <AltitudeMeters>3192.39990234375</AltitudeMeters>
            <DistanceMeters>7564.8121494464</DistanceMeters>
          </Trackpoint>
          <Trackpoint>
            <Time>2019-04-07T14:51:18.000Z</Time>
            <Position>
              <LatitudeDegrees>28.2735539786517620086669921875</LatitudeDegrees>
              <LongitudeDegrees>-16.62636249326169490814208984375</LongitudeDegrees>
            </Position>
            <AltitudeMeters>3193</AltitudeMeters>
            <DistanceMeters>7567.1840131914</DistanceMeters>
          </Trackpoint>
          <Trackpoint>
            <Time>2019-04-07T14:51:22.000Z</Time>
            <Position>
              <LatitudeDegrees>28.27354668639600276947021484375</LatitudeDegrees>
              <LongitudeDegrees>-16.62638135254383087158203125</LongitudeDegrees>
            </Position>
            <AltitudeMeters>3193.800048828125</AltitudeMeters>
            <DistanceMeters>7569.2043088511</DistanceMeters>
          </Trackpoint>
          <Trackpoint>
            <Time>2019-04-07T14:51:25.000Z</Time>
            <Position>
              <LatitudeDegrees>28.273541741073131561279296875</LatitudeDegrees>
              <LongitudeDegrees>-16.62639870308339595794677734375</LongitudeDegrees>
            </Position>
            <AltitudeMeters>3194.199951171875</AltitudeMeters>
            <DistanceMeters>7570.9922258126</DistanceMeters>
          </Trackpoint>
          <Trackpoint>
            <Time>2019-04-07T14:51:32.000Z</Time>
            <Position>
              <LatitudeDegrees>28.27352371998131275177001953125</LatitudeDegrees>
              <LongitudeDegrees>-16.62644078023731708526611328125</LongitudeDegrees>
            </Position>
            <AltitudeMeters>3195.199951171875</AltitudeMeters>
            <DistanceMeters>7575.5791723039</DistanceMeters>
          </Trackpoint>
          <Trackpoint>
            <Time>2019-04-07T14:51:40.000Z</Time>
            <Position>
              <LatitudeDegrees>28.27351600863039493560791015625</LatitudeDegrees>
              <LongitudeDegrees>-16.62646894343197345733642578125</LongitudeDegrees>
            </Position>
            <AltitudeMeters>3196</AltitudeMeters>
            <DistanceMeters>7578.4692969916</DistanceMeters>
          </Trackpoint>
          <Trackpoint>
            <Time>2019-04-07T14:51:44.000Z</Time>
            <Position>
              <LatitudeDegrees>28.2735134102404117584228515625</LatitudeDegrees>
              <LongitudeDegrees>-16.6264810971915721893310546875</LongitudeDegrees>
            </Position>
            <AltitudeMeters>3196.39990234375</AltitudeMeters>
            <DistanceMeters>7579.6936305613</DistanceMeters>
          </Trackpoint>
          <Trackpoint>
            <Time>2019-04-07T14:51:52.000Z</Time>
            <Position>
              <LatitudeDegrees>28.273511566221714019775390625</LatitudeDegrees>
              <LongitudeDegrees>-16.62648922763764858245849609375</LongitudeDegrees>
            </Position>
            <AltitudeMeters>3196.60009765625</AltitudeMeters>
            <DistanceMeters>7580.5274865957</DistanceMeters>
          </Trackpoint>
          <Trackpoint>
            <Time>2019-04-07T14:52:02.000Z</Time>
            <Position>
              <LatitudeDegrees>28.27349656261503696441650390625</LatitudeDegrees>
              <LongitudeDegrees>-16.62653021514415740966796875</LongitudeDegrees>
            </Position>
            <AltitudeMeters>3197.60009765625</AltitudeMeters>
            <DistanceMeters>7584.8790461211</DistanceMeters>
          </Trackpoint>
          <Trackpoint>
            <Time>2019-04-07T14:52:11.000Z</Time>
            <Position>
              <LatitudeDegrees>28.2734875939786434173583984375</LatitudeDegrees>
              <LongitudeDegrees>-16.6265588812530040740966796875</LongitudeDegrees>
            </Position>
            <AltitudeMeters>3198.60009765625</AltitudeMeters>
            <DistanceMeters>7587.859917675</DistanceMeters>
          </Trackpoint>
          <Trackpoint>
            <Time>2019-04-07T14:52:13.000Z</Time>
            <Position>
              <LatitudeDegrees>28.27347845770418643951416015625</LatitudeDegrees>
              <LongitudeDegrees>-16.626567430794239044189453125</LongitudeDegrees>
            </Position>
            <AltitudeMeters>3198.800048828125</AltitudeMeters>
            <DistanceMeters>7589.1766464539</DistanceMeters>
          </Trackpoint>
          <Trackpoint>
            <Time>2019-04-07T14:52:19.000Z</Time>
            <Position>
              <LatitudeDegrees>28.27346253208816051483154296875</LatitudeDegrees>
              <LongitudeDegrees>-16.626584865152835845947265625</LongitudeDegrees>
            </Position>
            <AltitudeMeters>3199.60009765625</AltitudeMeters>
            <DistanceMeters>7591.638186885</DistanceMeters>
          </Trackpoint>
          <Trackpoint>
            <Time>2019-04-07T14:52:23.000Z</Time>
            <Position>
              <LatitudeDegrees>28.27346035279333591461181640625</LatitudeDegrees>
              <LongitudeDegrees>-16.62658989429473876953125</LongitudeDegrees>
            </Position>
            <AltitudeMeters>3200</AltitudeMeters>
            <DistanceMeters>7592.1840737988</DistanceMeters>
          </Trackpoint>
          <Trackpoint>
            <Time>2019-04-07T14:52:29.000Z</Time>
            <Position>
              <LatitudeDegrees>28.27347158454358577728271484375</LatitudeDegrees>
              <LongitudeDegrees>-16.62658779881894588470458984375</LongitudeDegrees>
            </Position>
            <AltitudeMeters>3200.199951171875</AltitudeMeters>
            <DistanceMeters>7593.4554445879</DistanceMeters>
          </Trackpoint>
          <Trackpoint>
            <Time>2019-04-07T14:52:41.000Z</Time>
            <Position>
              <LatitudeDegrees>28.273462951183319091796875</LatitudeDegrees>
              <LongitudeDegrees>-16.62660439498722553253173828125</LongitudeDegrees>
            </Position>
            <AltitudeMeters>3200.60009765625</AltitudeMeters>
            <DistanceMeters>7595.3464523277</DistanceMeters>
          </Trackpoint>
          <Trackpoint>
            <Time>2019-04-07T14:52:44.000Z</Time>
            <Position>
              <LatitudeDegrees>28.27345431782305240631103515625</LatitudeDegrees>
              <LongitudeDegrees>-16.6266168840229511260986328125</LongitudeDegrees>
            </Position>
            <AltitudeMeters>3201.199951171875</AltitudeMeters>
            <DistanceMeters>7596.9021066874</DistanceMeters>
          </Trackpoint>
          <Trackpoint>
            <Time>2019-04-07T14:52:51.000Z</Time>
            <Position>
              <LatitudeDegrees>28.27343881130218505859375</LatitudeDegrees>
              <LongitudeDegrees>-16.62663842551410198211669921875</LongitudeDegrees>
            </Position>
            <AltitudeMeters>3202.199951171875</AltitudeMeters>
            <DistanceMeters>7599.6298865521</DistanceMeters>
          </Trackpoint>
          <Trackpoint>
            <Time>2019-04-07T14:52:53.000Z</Time>
            <Position>
              <LatitudeDegrees>28.273436129093170166015625</LatitudeDegrees>
              <LongitudeDegrees>-16.62663750350475311279296875</LongitudeDegrees>
            </Position>
            <AltitudeMeters>3202.39990234375</AltitudeMeters>
            <DistanceMeters>7599.9450545087</DistanceMeters>
          </Trackpoint>
          <Trackpoint>
            <Time>2019-04-07T14:53:01.000Z</Time>
            <Position>
              <LatitudeDegrees>28.2734178565442562103271484375</LatitudeDegrees>
              <LongitudeDegrees>-16.6266654990613460540771484375</LongitudeDegrees>
            </Position>
            <AltitudeMeters>3202.39990234375</AltitudeMeters>
            <DistanceMeters>7603.3607328843</DistanceMeters>
          </Trackpoint>
          <Trackpoint>
            <Time>2019-04-07T14:53:13.000Z</Time>
            <Position>
              <LatitudeDegrees>28.2734255678951740264892578125</LatitudeDegrees>
              <LongitudeDegrees>-16.6266956739127635955810546875</LongitudeDegrees>
            </Position>
            <AltitudeMeters>3203.199951171875</AltitudeMeters>
            <DistanceMeters>7606.4414163056</DistanceMeters>
          </Trackpoint>
          <Trackpoint>
            <Time>2019-04-07T14:53:25.000Z</Time>
            <Position>
              <LatitudeDegrees>28.2734259031713008880615234375</LatitudeDegrees>
              <LongitudeDegrees>-16.62672123871743679046630859375</LongitudeDegrees>
            </Position>
            <AltitudeMeters>3203.60009765625</AltitudeMeters>
            <DistanceMeters>7608.9483932112</DistanceMeters>
          </Trackpoint>
          <Trackpoint>
            <Time>2019-04-07T14:53:27.000Z</Time>
            <Position>
              <LatitudeDegrees>28.27342162840068340301513671875</LatitudeDegrees>
              <LongitudeDegrees>-16.62672978825867176055908203125</LongitudeDegrees>
            </Position>
            <AltitudeMeters>3203.60009765625</AltitudeMeters>
            <DistanceMeters>7609.9128090311</DistanceMeters>
          </Trackpoint>
          <Trackpoint>
            <Time>2019-04-07T14:53:35.000Z</Time>
            <Position>
              <LatitudeDegrees>28.27341592870652675628662109375</LatitudeDegrees>
              <LongitudeDegrees>-16.6267489828169345855712890625</LongitudeDegrees>
            </Position>
            <AltitudeMeters>3204.39990234375</AltitudeMeters>
            <DistanceMeters>7611.8970250802</DistanceMeters>
          </Trackpoint>
          <Trackpoint>
            <Time>2019-04-07T14:53:44.000Z</Time>
            <Position>
              <LatitudeDegrees>28.27341374941170215606689453125</LatitudeDegrees>
              <LongitudeDegrees>-16.62674571387469768524169921875</LongitudeDegrees>
            </Position>
            <AltitudeMeters>3204.800048828125</AltitudeMeters>
            <DistanceMeters>7612.300189285</DistanceMeters>
          </Trackpoint>
          <Trackpoint>
            <Time>2019-04-07T14:53:53.000Z</Time>
            <Position>
              <LatitudeDegrees>28.27340603806078433990478515625</LatitudeDegrees>
              <LongitudeDegrees>-16.62677052430808544158935546875</LongitudeDegrees>
            </Position>
            <AltitudeMeters>3204.800048828125</AltitudeMeters>
            <DistanceMeters>7614.8781994213</DistanceMeters>
          </Trackpoint>
          <Trackpoint>
            <Time>2019-04-07T14:53:57.000Z</Time>
            <Position>
              <LatitudeDegrees>28.2734047807753086090087890625</LatitudeDegrees>
              <LongitudeDegrees>-16.626799441874027252197265625</LongitudeDegrees>
            </Position>
            <AltitudeMeters>3205.199951171875</AltitudeMeters>
            <DistanceMeters>7617.7163023419</DistanceMeters>
          </Trackpoint>
          <Trackpoint>
            <Time>2019-04-07T14:54:02.000Z</Time>
            <Position>
              <LatitudeDegrees>28.273378796875476837158203125</LatitudeDegrees>
              <LongitudeDegrees>-16.62681310437619686126708984375</LongitudeDegrees>
            </Position>
            <AltitudeMeters>3206</AltitudeMeters>
            <DistanceMeters>7620.9021783475</DistanceMeters>
          </Trackpoint>
          <Trackpoint>
            <Time>2019-04-07T14:54:05.000Z</Time>
            <Position>
              <LatitudeDegrees>28.27336614020168781280517578125</LatitudeDegrees>
              <LongitudeDegrees>-16.62681796588003635406494140625</LongitudeDegrees>
            </Position>
            <AltitudeMeters>3206.39990234375</AltitudeMeters>
            <DistanceMeters>7622.3895816985</DistanceMeters>
          </Trackpoint>
          <Trackpoint>
            <Time>2019-04-07T14:54:11.000Z</Time>
            <Position>
              <LatitudeDegrees>28.27333931811153888702392578125</LatitudeDegrees>
              <LongitudeDegrees>-16.6268220730125904083251953125</LongitudeDegrees>
            </Position>
            <AltitudeMeters>3207</AltitudeMeters>
            <DistanceMeters>7625.4005942773</DistanceMeters>
          </Trackpoint>
          <Trackpoint>
            <Time>2019-04-07T14:54:21.000Z</Time>
            <Position>
              <LatitudeDegrees>28.2733632065355777740478515625</LatitudeDegrees>
              <LongitudeDegrees>-16.6268311254680156707763671875</LongitudeDegrees>
            </Position>
            <AltitudeMeters>3207</AltitudeMeters>
            <DistanceMeters>7628.2034796668</DistanceMeters>
          </Trackpoint>
          <Trackpoint>
            <Time>2019-04-07T14:54:24.000Z</Time>
            <Position>
              <LatitudeDegrees>28.27337418682873249053955078125</LatitudeDegrees>
              <LongitudeDegrees>-16.62683975882828235626220703125</LongitudeDegrees>
            </Position>
            <AltitudeMeters>3207.800048828125</AltitudeMeters>
            <DistanceMeters>7629.6908830178</DistanceMeters>
          </Trackpoint>
          <Trackpoint>
            <Time>2019-04-07T14:54:31.000Z</Time>
            <Position>
              <LatitudeDegrees>28.273394219577312469482421875</LatitudeDegrees>
              <LongitudeDegrees>-16.6268391720950603485107421875</LongitudeDegrees>
            </Position>
            <AltitudeMeters>3208.800048828125</AltitudeMeters>
            <DistanceMeters>7631.9235052871</DistanceMeters>
          </Trackpoint>
          <Trackpoint>
            <Time>2019-04-07T14:54:32.000Z</Time>
            <Position>
              <LatitudeDegrees>28.27339480631053447723388671875</LatitudeDegrees>
              <LongitudeDegrees>-16.6268354840576648712158203125</LongitudeDegrees>
            </Position>
            <AltitudeMeters>3209</AltitudeMeters>
            <DistanceMeters>7632.2915421693</DistanceMeters>
          </Trackpoint>
          <Trackpoint>
            <Time>2019-04-07T14:54:43.000Z</Time>
            <Position>
              <LatitudeDegrees>28.2734339497983455657958984375</LatitudeDegrees>
              <LongitudeDegrees>-16.626799106597900390625</LongitudeDegrees>
            </Position>
            <AltitudeMeters>3210.199951171875</AltitudeMeters>
            <DistanceMeters>7637.9214239014</DistanceMeters>
          </Trackpoint>
          <Trackpoint>
            <Time>2019-04-07T14:54:53.000Z</Time>
            <Position>
              <LatitudeDegrees>28.27348667196929454803466796875</LatitudeDegrees>
              <LongitudeDegrees>-16.6267520003020763397216796875</LongitudeDegrees>
            </Position>
            <AltitudeMeters>3211.39990234375</AltitudeMeters>
            <DistanceMeters>7645.3893387455</DistanceMeters>
          </Trackpoint>
          <Trackpoint>
            <Time>2019-04-07T14:54:54.000Z</Time>
            <Position>
              <LatitudeDegrees>28.27349245548248291015625</LatitudeDegrees>
              <LongitudeDegrees>-16.62675283849239349365234375</LongitudeDegrees>
            </Position>
            <AltitudeMeters>3211.60009765625</AltitudeMeters>
            <DistanceMeters>7646.0477031349</DistanceMeters>
          </Trackpoint>
          <Trackpoint>
            <Time>2019-04-07T14:55:03.000Z</Time>
            <Position>
              <LatitudeDegrees>28.273511230945587158203125</LatitudeDegrees>
              <LongitudeDegrees>-16.62676499225199222564697265625</LongitudeDegrees>
            </Position>
            <AltitudeMeters>3211.800048828125</AltitudeMeters>
            <DistanceMeters>7648.45358738</DistanceMeters>
          </Trackpoint>
          <Trackpoint>
            <Time>2019-04-07T14:55:10.000Z</Time>
            <Position>
              <LatitudeDegrees>28.27353143133223056793212890625</LatitudeDegrees>
              <LongitudeDegrees>-16.62680941633880138397216796875</LongitudeDegrees>
            </Position>
            <AltitudeMeters>3212.800048828125</AltitudeMeters>
            <DistanceMeters>7653.3546080228</DistanceMeters>
          </Trackpoint>
          <Trackpoint>
            <Time>2019-04-07T14:55:12.000Z</Time>
            <Position>
              <LatitudeDegrees>28.27353394590318202972412109375</LatitudeDegrees>
              <LongitudeDegrees>-16.62681721150875091552734375</LongitudeDegrees>
            </Position>
            <AltitudeMeters>3213.199951171875</AltitudeMeters>
            <DistanceMeters>7654.1609364323</DistanceMeters>
          </Trackpoint>
          <Trackpoint>
            <Time>2019-04-07T14:55:16.000Z</Time>
            <Position>
              <LatitudeDegrees>28.27353059314191341400146484375</LatitudeDegrees>
              <LongitudeDegrees>-16.6268442012369632720947265625</LongitudeDegrees>
            </Position>
            <AltitudeMeters>3213.800048828125</AltitudeMeters>
            <DistanceMeters>7656.8318464627</DistanceMeters>
          </Trackpoint>
          <Trackpoint>
            <Time>2019-04-07T14:55:21.000Z</Time>
            <Position>
              <LatitudeDegrees>28.27351047657430171966552734375</LatitudeDegrees>
              <LongitudeDegrees>-16.62685367278754711151123046875</LongitudeDegrees>
            </Position>
            <AltitudeMeters>3214.199951171875</AltitudeMeters>
            <DistanceMeters>7659.2545618171</DistanceMeters>
          </Trackpoint>
          <Trackpoint>
            <Time>2019-04-07T14:55:29.000Z</Time>
            <Position>
              <LatitudeDegrees>28.27351081185042858123779296875</LatitudeDegrees>
              <LongitudeDegrees>-16.62687563337385654449462890625</LongitudeDegrees>
            </Position>
            <AltitudeMeters>3214.60009765625</AltitudeMeters>
            <DistanceMeters>7661.4068696984</DistanceMeters>
          </Trackpoint>
          <Trackpoint>
            <Time>2019-04-07T14:55:34.000Z</Time>
            <Position>
              <LatitudeDegrees>28.2735063694417476654052734375</LatitudeDegrees>
              <LongitudeDegrees>-16.62689927034080028533935546875</LongitudeDegrees>
            </Position>
            <AltitudeMeters>3215</AltitudeMeters>
            <DistanceMeters>7663.774923218</DistanceMeters>
          </Trackpoint>
          <Trackpoint>
            <Time>2019-04-07T14:55:40.000Z</Time>
            <Position>
              <LatitudeDegrees>28.27348784543573856353759765625</LatitudeDegrees>
              <LongitudeDegrees>-16.62692693062126636505126953125</LongitudeDegrees>
            </Position>
            <AltitudeMeters>3216</AltitudeMeters>
            <DistanceMeters>7667.1800103173</DistanceMeters>
          </Trackpoint>
          <Trackpoint>
            <Time>2019-04-07T14:55:42.000Z</Time>
            <Position>
              <LatitudeDegrees>28.273477368056774139404296875</LatitudeDegrees>
              <LongitudeDegrees>-16.62693254649639129638671875</LongitudeDegrees>
            </Position>
            <AltitudeMeters>3216.39990234375</AltitudeMeters>
            <DistanceMeters>7668.4690153855</DistanceMeters>
          </Trackpoint>
          <Trackpoint>
            <Time>2019-04-07T14:55:50.000Z</Time>
            <Position>
              <LatitudeDegrees>28.27343218959867954254150390625</LatitudeDegrees>
              <LongitudeDegrees>-16.6269706003367900848388671875</LongitudeDegrees>
            </Position>
            <AltitudeMeters>3217.199951171875</AltitudeMeters>
            <DistanceMeters>7674.7299707314</DistanceMeters>
          </Trackpoint>
          <Trackpoint>
            <Time>2019-04-07T14:55:52.000Z</Time>
            <Position>
              <LatitudeDegrees>28.27342699281871318817138671875</LatitudeDegrees>
              <LongitudeDegrees>-16.6269793175160884857177734375</LongitudeDegrees>
            </Position>
            <AltitudeMeters>3217.60009765625</AltitudeMeters>
            <DistanceMeters>7675.7665898016</DistanceMeters>
          </Trackpoint>
          <Trackpoint>
            <Time>2019-04-07T14:56:00.000Z</Time>
            <Position>
              <LatitudeDegrees>28.2734079658985137939453125</LatitudeDegrees>
              <LongitudeDegrees>-16.62702508270740509033203125</LongitudeDegrees>
            </Position>
            <AltitudeMeters>3218.199951171875</AltitudeMeters>
            <DistanceMeters>7680.7271299244</DistanceMeters>
          </Trackpoint>
          <Trackpoint>
            <Time>2019-04-07T14:56:03.000Z</Time>
            <Position>
              <LatitudeDegrees>28.2734020985662937164306640625</LatitudeDegrees>
              <LongitudeDegrees>-16.627042852342128753662109375</LongitudeDegrees>
            </Position>
            <AltitudeMeters>3218.800048828125</AltitudeMeters>
            <DistanceMeters>7682.5868393851</DistanceMeters>
          </Trackpoint>
          <Trackpoint>
            <Time>2019-04-07T14:56:10.000Z</Time>
            <Position>
              <LatitudeDegrees>28.2733819819986820220947265625</LatitudeDegrees>
              <LongitudeDegrees>-16.62706053815782070159912109375</LongitudeDegrees>
            </Position>
            <AltitudeMeters>3220</AltitudeMeters>
            <DistanceMeters>7685.4185716962</DistanceMeters>
          </Trackpoint>
          <Trackpoint>
            <Time>2019-04-07T14:56:19.000Z</Time>
            <Position>
              <LatitudeDegrees>28.27334149740636348724365234375</LatitudeDegrees>
              <LongitudeDegrees>-16.6270832531154155731201171875</LongitudeDegrees>
            </Position>
            <AltitudeMeters>3220.60009765625</AltitudeMeters>
            <DistanceMeters>7690.4442183028</DistanceMeters>
          </Trackpoint>
          <Trackpoint>
            <Time>2019-04-07T14:56:26.000Z</Time>
            <Position>
              <LatitudeDegrees>28.273326493799686431884765625</LatitudeDegrees>
              <LongitudeDegrees>-16.627095825970172882080078125</LongitudeDegrees>
            </Position>
            <AltitudeMeters>3220.800048828125</AltitudeMeters>
            <DistanceMeters>7692.5174564433</DistanceMeters>
          </Trackpoint>
          <Trackpoint>
            <Time>2019-04-07T14:56:34.000Z</Time>
            <Position>
              <LatitudeDegrees>28.27332573942840099334716796875</LatitudeDegrees>
              <LongitudeDegrees>-16.62709641270339488983154296875</LongitudeDegrees>
            </Position>
            <AltitudeMeters>3221.39990234375</AltitudeMeters>
            <DistanceMeters>7692.5174564433</DistanceMeters>
          </Trackpoint>
          <Trackpoint>
            <Time>2019-04-07T14:56:35.000Z</Time>
            <Position>
              <LatitudeDegrees>28.273329176008701324462890625</LatitudeDegrees>
              <LongitudeDegrees>-16.6270969994366168975830078125</LongitudeDegrees>
            </Position>
            <AltitudeMeters>3221.39990234375</AltitudeMeters>
            <DistanceMeters>7692.8975633008</DistanceMeters>
          </Trackpoint>
          <Trackpoint>
            <Time>2019-04-07T14:56:44.000Z</Time>
            <Position>
              <LatitudeDegrees>28.2733394019305706024169921875</LatitudeDegrees>
              <LongitudeDegrees>-16.6270752064883708953857421875</LongitudeDegrees>
            </Position>
            <AltitudeMeters>3222.39990234375</AltitudeMeters>
            <DistanceMeters>7695.3202786552</DistanceMeters>
          </Trackpoint>
          <Trackpoint>
            <Time>2019-04-07T14:56:51.000Z</Time>
            <Position>
              <LatitudeDegrees>28.2733692415058612823486328125</LatitudeDegrees>
              <LongitudeDegrees>-16.6270453669130802154541015625</LongitudeDegrees>
            </Position>
            <AltitudeMeters>3222.60009765625</AltitudeMeters>
            <DistanceMeters>7699.7459125993</DistanceMeters>
          </Trackpoint>
          <Trackpoint>
            <Time>2019-04-07T14:56:52.000Z</Time>
            <Position>
              <LatitudeDegrees>28.2733742706477642059326171875</LatitudeDegrees>
              <LongitudeDegrees>-16.6270446963608264923095703125</LongitudeDegrees>
            </Position>
            <AltitudeMeters>3222.60009765625</AltitudeMeters>
            <DistanceMeters>7700.308098223</DistanceMeters>
          </Trackpoint>
          <Trackpoint>
            <Time>2019-04-07T14:57:03.000Z</Time>
            <Position>
              <LatitudeDegrees>28.27342062257230281829833984375</LatitudeDegrees>
              <LongitudeDegrees>-16.6270453669130802154541015625</LongitudeDegrees>
            </Position>
            <AltitudeMeters>3223.60009765625</AltitudeMeters>
            <DistanceMeters>7705.4676200378</DistanceMeters>
          </Trackpoint>
          <Trackpoint>
            <Time>2019-04-07T14:57:04.000Z</Time>
            <Position>
              <LatitudeDegrees>28.27342581935226917266845703125</LatitudeDegrees>
              <LongitudeDegrees>-16.6270457021892070770263671875</LongitudeDegrees>
            </Position>
            <AltitudeMeters>3223.60009765625</AltitudeMeters>
            <DistanceMeters>7706.037780324</DistanceMeters>
          </Trackpoint>
          <Trackpoint>
            <Time>2019-04-07T14:57:12.000Z</Time>
            <Position>
              <LatitudeDegrees>28.27345515601336956024169921875</LatitudeDegrees>
              <LongitudeDegrees>-16.6270084865391254425048828125</LongitudeDegrees>
            </Position>
            <AltitudeMeters>3224.800048828125</AltitudeMeters>
            <DistanceMeters>7710.9341925777</DistanceMeters>
          </Trackpoint>
          <Trackpoint>
            <Time>2019-04-07T14:57:13.000Z</Time>
            <Position>
              <LatitudeDegrees>28.27345817349851131439208984375</LatitudeDegrees>
              <LongitudeDegrees>-16.6270064748823642730712890625</LongitudeDegrees>
            </Position>
            <AltitudeMeters>3225</AltitudeMeters>
            <DistanceMeters>7711.3373567825</DistanceMeters>
          </Trackpoint>
          <Trackpoint>
            <Time>2019-04-07T14:57:18.000Z</Time>
            <Position>
              <LatitudeDegrees>28.273476697504520416259765625</LatitudeDegrees>
              <LongitudeDegrees>-16.626995243132114410400390625</LongitudeDegrees>
            </Position>
            <AltitudeMeters>3226.199951171875</AltitudeMeters>
            <DistanceMeters>7713.6747049056</DistanceMeters>
          </Trackpoint>
          <Trackpoint>
            <Time>2019-04-07T14:57:22.000Z</Time>
            <Position>
              <LatitudeDegrees>28.273496143519878387451171875</LatitudeDegrees>
              <LongitudeDegrees>-16.6270014457404613494873046875</LongitudeDegrees>
            </Position>
            <AltitudeMeters>3226.60009765625</AltitudeMeters>
            <DistanceMeters>7715.9254543108</DistanceMeters>
          </Trackpoint>
          <Trackpoint>
            <Time>2019-04-07T14:57:25.000Z</Time>
            <Position>
              <LatitudeDegrees>28.27350779436528682708740234375</LatitudeDegrees>
              <LongitudeDegrees>-16.627000607550144195556640625</LongitudeDegrees>
            </Position>
            <AltitudeMeters>3227.199951171875</AltitudeMeters>
            <DistanceMeters>7717.2249250858</DistanceMeters>
          </Trackpoint>
          <Trackpoint>
            <Time>2019-04-07T14:57:32.000Z</Time>
            <Position>
              <LatitudeDegrees>28.27353629283607006072998046875</LatitudeDegrees>
              <LongitudeDegrees>-16.6270148567855358123779296875</LongitudeDegrees>
            </Position>
            <AltitudeMeters>3228.199951171875</AltitudeMeters>
            <DistanceMeters>7720.690470017</DistanceMeters>
          </Trackpoint>
          <Trackpoint>
            <Time>2019-04-07T14:57:35.000Z</Time>
            <Position>
              <LatitudeDegrees>28.27353226952254772186279296875</LatitudeDegrees>
              <LongitudeDegrees>-16.6270282678306102752685546875</LongitudeDegrees>
            </Position>
            <AltitudeMeters>3228.39990234375</AltitudeMeters>
            <DistanceMeters>7722.0805910042</DistanceMeters>
          </Trackpoint>
          <Trackpoint>
            <Time>2019-04-07T14:57:40.000Z</Time>
            <Position>
              <LatitudeDegrees>28.273524306714534759521484375</LatitudeDegrees>
              <LongitudeDegrees>-16.6270410083234310150146484375</LongitudeDegrees>
            </Position>
            <AltitudeMeters>3229.199951171875</AltitudeMeters>
            <DistanceMeters>7723.6128507327</DistanceMeters>
          </Trackpoint>
          <Trackpoint>
            <Time>2019-04-07T14:57:42.000Z</Time>
            <Position>
              <LatitudeDegrees>28.27351936139166355133056640625</LatitudeDegrees>
              <LongitudeDegrees>-16.62704519927501678466796875</LongitudeDegrees>
            </Position>
            <AltitudeMeters>3229.60009765625</AltitudeMeters>
            <DistanceMeters>7724.3046556557</DistanceMeters>
          </Trackpoint>
          <Trackpoint>
            <Time>2019-04-07T14:57:49.000Z</Time>
            <Position>
              <LatitudeDegrees>28.27349706552922725677490234375</LatitudeDegrees>
              <LongitudeDegrees>-16.62707604467868804931640625</LongitudeDegrees>
            </Position>
            <AltitudeMeters>3230.199951171875</AltitudeMeters>
            <DistanceMeters>7728.2157871411</DistanceMeters>
          </Trackpoint>
          <Trackpoint>
            <Time>2019-04-07T14:57:53.000Z</Time>
            <Position>
              <LatitudeDegrees>28.27347678132355213165283203125</LatitudeDegrees>
              <LongitudeDegrees>-16.6271003521978855133056640625</LongitudeDegrees>
            </Position>
            <AltitudeMeters>3230.800048828125</AltitudeMeters>
            <DistanceMeters>7731.4979938984</DistanceMeters>
          </Trackpoint>
          <Trackpoint>
            <Time>2019-04-07T14:57:59.000Z</Time>
            <Position>
              <LatitudeDegrees>28.2734535634517669677734375</LatitudeDegrees>
              <LongitudeDegrees>-16.627123318612575531005859375</LongitudeDegrees>
            </Position>
            <AltitudeMeters>3231.199951171875</AltitudeMeters>
            <DistanceMeters>7734.9255483405</DistanceMeters>
          </Trackpoint>
          <Trackpoint>
            <Time>2019-04-07T14:58:12.000Z</Time>
            <Position>
              <LatitudeDegrees>28.27344576828181743621826171875</LatitudeDegrees>
              <LongitudeDegrees>-16.62714050151407718658447265625</LongitudeDegrees>
            </Position>
            <AltitudeMeters>3231</AltitudeMeters>
            <DistanceMeters>7736.8189422108</DistanceMeters>
          </Trackpoint>
          <Trackpoint>
            <Time>2019-04-07T14:58:21.000Z</Time>
            <Position>
              <LatitudeDegrees>28.27342716045677661895751953125</LatitudeDegrees>
              <LongitudeDegrees>-16.62718467414379119873046875</LongitudeDegrees>
            </Position>
            <AltitudeMeters>3231.199951171875</AltitudeMeters>
            <DistanceMeters>7741.6184968786</DistanceMeters>
          </Trackpoint>
          <Trackpoint>
            <Time>2019-04-07T14:58:29.000Z</Time>
            <Position>
              <LatitudeDegrees>28.27338759787380695343017578125</LatitudeDegrees>
              <LongitudeDegrees>-16.6271969117224216461181640625</LongitudeDegrees>
            </Position>
            <AltitudeMeters>3232</AltitudeMeters>
            <DistanceMeters>7746.1817584621</DistanceMeters>
          </Trackpoint>
          <Trackpoint>
            <Time>2019-04-07T14:58:30.000Z</Time>
            <Position>
              <LatitudeDegrees>28.27338474802672863006591796875</LatitudeDegrees>
              <LongitudeDegrees>-16.6272019408643245697021484375</LongitudeDegrees>
            </Position>
            <AltitudeMeters>3232</AltitudeMeters>
            <DistanceMeters>7746.7675424708</DistanceMeters>
          </Trackpoint>
          <Trackpoint>
            <Time>2019-04-07T14:58:34.000Z</Time>
            <Position>
              <LatitudeDegrees>28.273367397487163543701171875</LatitudeDegrees>
              <LongitudeDegrees>-16.62720671854913234710693359375</LongitudeDegrees>
            </Position>
            <AltitudeMeters>3233</AltitudeMeters>
            <DistanceMeters>7748.7540326938</DistanceMeters>
          </Trackpoint>
          <Trackpoint>
            <Time>2019-04-07T14:58:39.000Z</Time>
            <Position>
              <LatitudeDegrees>28.2733508013188838958740234375</LatitudeDegrees>
              <LongitudeDegrees>-16.62722247652709484100341796875</LongitudeDegrees>
            </Position>
            <AltitudeMeters>3234</AltitudeMeters>
            <DistanceMeters>7751.1617928723</DistanceMeters>
          </Trackpoint>
          <Trackpoint>
            <Time>2019-04-07T14:58:41.000Z</Time>
            <Position>
              <LatitudeDegrees>28.273348622024059295654296875</LatitudeDegrees>
              <LongitudeDegrees>-16.6272358037531375885009765625</LongitudeDegrees>
            </Position>
            <AltitudeMeters>3234.199951171875</AltitudeMeters>
            <DistanceMeters>7752.4921668734</DistanceMeters>
          </Trackpoint>
          <Trackpoint>
            <Time>2019-04-07T14:58:50.000Z</Time>
            <Position>
              <LatitudeDegrees>28.2733451016247272491455078125</LatitudeDegrees>
              <LongitudeDegrees>-16.6272532381117343902587890625</LongitudeDegrees>
            </Position>
            <AltitudeMeters>3234.800048828125</AltitudeMeters>
            <DistanceMeters>7754.2469477906</DistanceMeters>
          </Trackpoint>
          <Trackpoint>
            <Time>2019-04-07T14:58:57.000Z</Time>
            <Position>
              <LatitudeDegrees>28.27333889901638031005859375</LatitudeDegrees>
              <LongitudeDegrees>-16.6272669844329357147216796875</LongitudeDegrees>
            </Position>
            <AltitudeMeters>3235</AltitudeMeters>
            <DistanceMeters>7755.7614244054</DistanceMeters>
          </Trackpoint>
          <Trackpoint>
            <Time>2019-04-07T14:59:11.000Z</Time>
            <Position>
              <LatitudeDegrees>28.27334317378699779510498046875</LatitudeDegrees>
              <LongitudeDegrees>-16.62726706825196743011474609375</LongitudeDegrees>
            </Position>
            <AltitudeMeters>3235</AltitudeMeters>
            <DistanceMeters>7756.2365579773</DistanceMeters>
          </Trackpoint>
          <Trackpoint>
            <Time>2019-04-07T14:59:21.000Z</Time>
            <Position>
              <LatitudeDegrees>28.27333948574960231781005859375</LatitudeDegrees>
              <LongitudeDegrees>-16.62726991809904575347900390625</LongitudeDegrees>
            </Position>
            <AltitudeMeters>3235.39990234375</AltitudeMeters>
            <DistanceMeters>7756.7393920855</DistanceMeters>
          </Trackpoint>
          <Trackpoint>
            <Time>2019-04-07T14:59:23.000Z</Time>
            <Position>
              <LatitudeDegrees>28.2733380608260631561279296875</LatitudeDegrees>
              <LongitudeDegrees>-16.62726824171841144561767578125</LongitudeDegrees>
            </Position>
            <AltitudeMeters>3235.39990234375</AltitudeMeters>
            <DistanceMeters>7756.9721590477</DistanceMeters>
          </Trackpoint>
          <Trackpoint>
            <Time>2019-04-07T14:59:44.000Z</Time>
            <Position>
              <LatitudeDegrees>28.2733194530010223388671875</LatitudeDegrees>
              <LongitudeDegrees>-16.6272921301424503326416015625</LongitudeDegrees>
            </Position>
            <AltitudeMeters>3236</AltitudeMeters>
            <DistanceMeters>7760.0979457826</DistanceMeters>
          </Trackpoint>
          <Trackpoint>
            <Time>2019-04-07T14:59:49.000Z</Time>
            <Position>
              <LatitudeDegrees>28.2732901163399219512939453125</LatitudeDegrees>
              <LongitudeDegrees>-16.6272834129631519317626953125</LongitudeDegrees>
            </Position>
            <AltitudeMeters>3236.60009765625</AltitudeMeters>
            <DistanceMeters>7763.473735538</DistanceMeters>
          </Trackpoint>
          <Trackpoint>
            <Time>2019-04-07T14:59:51.000Z</Time>
            <Position>
              <LatitudeDegrees>28.2732891105115413665771484375</LatitudeDegrees>
              <LongitudeDegrees>-16.62729556672275066375732421875</LongitudeDegrees>
            </Position>
            <AltitudeMeters>3237.199951171875</AltitudeMeters>
            <DistanceMeters>7764.6682028159</DistanceMeters>
          </Trackpoint>
          <Trackpoint>
            <Time>2019-04-07T14:59:58.000Z</Time>
            <Position>
              <LatitudeDegrees>28.273301012814044952392578125</LatitudeDegrees>
              <LongitudeDegrees>-16.62729757837951183319091796875</LongitudeDegrees>
            </Position>
            <AltitudeMeters>3237.60009765625</AltitudeMeters>
            <DistanceMeters>7766.0120834984</DistanceMeters>
          </Trackpoint>
          <Trackpoint>
            <Time>2019-04-07T15:00:00.000Z</Time>
            <Position>
              <LatitudeDegrees>28.27330847270786762237548828125</LatitudeDegrees>
              <LongitudeDegrees>-16.62729590199887752532958984375</LongitudeDegrees>
            </Position>
            <AltitudeMeters>3237.800048828125</AltitudeMeters>
            <DistanceMeters>7766.8620282705</DistanceMeters>
          </Trackpoint>
          <Trackpoint>
            <Time>2019-04-07T15:00:05.000Z</Time>
            <Position>
              <LatitudeDegrees>28.273335210978984832763671875</LatitudeDegrees>
              <LongitudeDegrees>-16.62728534080088138580322265625</LongitudeDegrees>
            </Position>
            <AltitudeMeters>3238.60009765625</AltitudeMeters>
            <DistanceMeters>7770.0137078367</DistanceMeters>
          </Trackpoint>
          <Trackpoint>
            <Time>2019-04-07T15:00:10.000Z</Time>
            <Position>
              <LatitudeDegrees>28.2733611948788166046142578125</LatitudeDegrees>
              <LongitudeDegrees>-16.62727377377450466156005859375</LongitudeDegrees>
            </Position>
            <AltitudeMeters>3239.199951171875</AltitudeMeters>
            <DistanceMeters>7773.1206599958</DistanceMeters>
          </Trackpoint>
          <Trackpoint>
            <Time>2019-04-07T15:00:15.000Z</Time>
            <Position>
              <LatitudeDegrees>28.2733809761703014373779296875</LatitudeDegrees>
              <LongitudeDegrees>-16.6272696666419506072998046875</LongitudeDegrees>
            </Position>
            <AltitudeMeters>3239.800048828125</AltitudeMeters>
            <DistanceMeters>7775.3573232136</DistanceMeters>
          </Trackpoint>
          <Trackpoint>
            <Time>2019-04-07T15:00:20.000Z</Time>
            <Position>
              <LatitudeDegrees>28.27340000309050083160400390625</LatitudeDegrees>
              <LongitudeDegrees>-16.62725382484495639801025390625</LongitudeDegrees>
            </Position>
            <AltitudeMeters>3239.800048828125</AltitudeMeters>
            <DistanceMeters>7777.9839138561</DistanceMeters>
          </Trackpoint>
          <Trackpoint>
            <Time>2019-04-07T15:00:31.000Z</Time>
            <Position>
              <LatitudeDegrees>28.27342062257230281829833984375</LatitudeDegrees>
              <LongitudeDegrees>-16.627232618629932403564453125</LongitudeDegrees>
            </Position>
            <AltitudeMeters>3239.800048828125</AltitudeMeters>
            <DistanceMeters>7781.0806768731</DistanceMeters>
          </Trackpoint>
          <Trackpoint>
            <Time>2019-04-07T15:00:41.000Z</Time>
            <Position>
              <LatitudeDegrees>28.27346035279333591461181640625</LatitudeDegrees>
              <LongitudeDegrees>-16.6272156871855258941650390625</LongitudeDegrees>
            </Position>
            <AltitudeMeters>3240.60009765625</AltitudeMeters>
            <DistanceMeters>7785.8034185362</DistanceMeters>
          </Trackpoint>
          <Trackpoint>
            <Time>2019-04-07T15:00:42.000Z</Time>
            <Position>
              <LatitudeDegrees>28.27346370555460453033447265625</LatitudeDegrees>
              <LongitudeDegrees>-16.6272166930139064788818359375</LongitudeDegrees>
            </Position>
            <AltitudeMeters>3240.800048828125</AltitudeMeters>
            <DistanceMeters>7786.1835253937</DistanceMeters>
          </Trackpoint>
          <Trackpoint>
            <Time>2019-04-07T15:00:52.000Z</Time>
            <Position>
              <LatitudeDegrees>28.27350259758532047271728515625</LatitudeDegrees>
              <LongitudeDegrees>-16.62721862085163593292236328125</LongitudeDegrees>
            </Position>
            <AltitudeMeters>3241.800048828125</AltitudeMeters>
            <DistanceMeters>7790.5153262721</DistanceMeters>
          </Trackpoint>
          <Trackpoint>
            <Time>2019-04-07T15:00:57.000Z</Time>
            <Position>
              <LatitudeDegrees>28.2735087163746356964111328125</LatitudeDegrees>
              <LongitudeDegrees>-16.6272130049765110015869140625</LongitudeDegrees>
            </Position>
            <AltitudeMeters>3242.39990234375</AltitudeMeters>
            <DistanceMeters>7791.3810608417</DistanceMeters>
          </Trackpoint>
          <Trackpoint>
            <Time>2019-04-07T15:01:02.000Z</Time>
            <Position>
              <LatitudeDegrees>28.27352464199066162109375</LatitudeDegrees>
              <LongitudeDegrees>-16.62720873020589351654052734375</LongitudeDegrees>
            </Position>
            <AltitudeMeters>3242.60009765625</AltitudeMeters>
            <DistanceMeters>7793.1990289323</DistanceMeters>
          </Trackpoint>
          <Trackpoint>
            <Time>2019-04-07T15:01:12.000Z</Time>
            <Position>
              <LatitudeDegrees>28.2735694013535976409912109375</LatitudeDegrees>
              <LongitudeDegrees>-16.6272027790546417236328125</LongitudeDegrees>
            </Position>
            <AltitudeMeters>3243.60009765625</AltitudeMeters>
            <DistanceMeters>7798.2156834997</DistanceMeters>
          </Trackpoint>
          <Trackpoint>
            <Time>2019-04-07T15:01:14.000Z</Time>
            <Position>
              <LatitudeDegrees>28.2735777832567691802978515625</LatitudeDegrees>
              <LongitudeDegrees>-16.6271959058940410614013671875</LongitudeDegrees>
            </Position>
            <AltitudeMeters>3244</AltitudeMeters>
            <DistanceMeters>7799.3678211813</DistanceMeters>
          </Trackpoint>
          <Trackpoint>
            <Time>2019-04-07T15:01:20.000Z</Time>
            <Position>
              <LatitudeDegrees>28.27360401861369609832763671875</LatitudeDegrees>
              <LongitudeDegrees>-16.6271746158599853515625</LongitudeDegrees>
            </Position>
            <AltitudeMeters>3244.60009765625</AltitudeMeters>
            <DistanceMeters>7802.9562594222</DistanceMeters>
          </Trackpoint>
          <Trackpoint>
            <Time>2019-04-07T15:01:28.000Z</Time>
            <Position>
              <LatitudeDegrees>28.273651041090488433837890625</LatitudeDegrees>
              <LongitudeDegrees>-16.62714770995080471038818359375</LongitudeDegrees>
            </Position>
            <AltitudeMeters>3245.39990234375</AltitudeMeters>
            <DistanceMeters>7808.8164113585</DistanceMeters>
          </Trackpoint>
          <Trackpoint>
            <Time>2019-04-07T15:01:30.000Z</Time>
            <Position>
              <LatitudeDegrees>28.27366202138364315032958984375</LatitudeDegrees>
              <LongitudeDegrees>-16.62714041769504547119140625</LongitudeDegrees>
            </Position>
            <AltitudeMeters>3245.60009765625</AltitudeMeters>
            <DistanceMeters>7810.2322775141</DistanceMeters>
          </Trackpoint>
          <Trackpoint>
            <Time>2019-04-07T15:01:36.000Z</Time>
            <Position>
              <LatitudeDegrees>28.2736823894083499908447265625</LatitudeDegrees>
              <LongitudeDegrees>-16.62714804522693157196044921875</LongitudeDegrees>
            </Position>
            <AltitudeMeters>3246.800048828125</AltitudeMeters>
            <DistanceMeters>7812.6212120701</DistanceMeters>
          </Trackpoint>
          <Trackpoint>
            <Time>2019-04-07T15:01:50.000Z</Time>
            <Position>
              <LatitudeDegrees>28.27368331141769886016845703125</LatitudeDegrees>
              <LongitudeDegrees>-16.627145446836948394775390625</LongitudeDegrees>
            </Position>
            <AltitudeMeters>3246.800048828125</AltitudeMeters>
            <DistanceMeters>7812.9062922132</DistanceMeters>
          </Trackpoint>
          <Trackpoint>
            <Time>2019-04-07T15:01:58.000Z</Time>
            <Position>
              <LatitudeDegrees>28.27367425896227359771728515625</LatitudeDegrees>
              <LongitudeDegrees>-16.62718056701123714447021484375</LongitudeDegrees>
            </Position>
            <AltitudeMeters>3247.199951171875</AltitudeMeters>
            <DistanceMeters>7816.4922131348</DistanceMeters>
          </Trackpoint>
          <Trackpoint>
            <Time>2019-04-07T15:01:59.000Z</Time>
            <Position>
              <LatitudeDegrees>28.27367291785776615142822265625</LatitudeDegrees>
              <LongitudeDegrees>-16.62718542851507663726806640625</LongitudeDegrees>
            </Position>
            <AltitudeMeters>3247.39990234375</AltitudeMeters>
            <DistanceMeters>7816.9950472431</DistanceMeters>
          </Trackpoint>
          <Trackpoint>
            <Time>2019-04-07T15:02:07.000Z</Time>
            <Position>
              <LatitudeDegrees>28.27365732751786708831787109375</LatitudeDegrees>
              <LongitudeDegrees>-16.627223901450634002685546875</LongitudeDegrees>
            </Position>
            <AltitudeMeters>3248.60009765625</AltitudeMeters>
            <DistanceMeters>7821.1469643823</DistanceMeters>
          </Trackpoint>
          <Trackpoint>
            <Time>2019-04-07T15:02:15.000Z</Time>
            <Position>
              <LatitudeDegrees>28.27365632168948650360107421875</LatitudeDegrees>
              <LongitudeDegrees>-16.62726656533777713775634765625</LongitudeDegrees>
            </Position>
            <AltitudeMeters>3249.60009765625</AltitudeMeters>
            <DistanceMeters>7825.3313781077</DistanceMeters>
          </Trackpoint>
          <Trackpoint>
            <Time>2019-04-07T15:02:16.000Z</Time>
            <Position>
              <LatitudeDegrees>28.27365648932754993438720703125</LatitudeDegrees>
              <LongitudeDegrees>-16.62727050483226776123046875</LongitudeDegrees>
            </Position>
            <AltitudeMeters>3249.800048828125</AltitudeMeters>
            <DistanceMeters>7825.7114849652</DistanceMeters>
          </Trackpoint>
          <Trackpoint>
            <Time>2019-04-07T15:02:22.000Z</Time>
            <Position>
              <LatitudeDegrees>28.2736538909375667572021484375</LatitudeDegrees>
              <LongitudeDegrees>-16.62730327807366847991943359375</LongitudeDegrees>
            </Position>
            <AltitudeMeters>3250.800048828125</AltitudeMeters>
            <DistanceMeters>7828.9367986032</DistanceMeters>
          </Trackpoint>
          <Trackpoint>
            <Time>2019-04-07T15:02:28.000Z</Time>
            <Position>
              <LatitudeDegrees>28.27364240773022174835205078125</LatitudeDegrees>
              <LongitudeDegrees>-16.6273357160389423370361328125</LongitudeDegrees>
            </Position>
            <AltitudeMeters>3251.60009765625</AltitudeMeters>
            <DistanceMeters>7832.3630355152</DistanceMeters>
          </Trackpoint>
          <Trackpoint>
            <Time>2019-04-07T15:02:34.000Z</Time>
            <Position>
              <LatitudeDegrees>28.2736196927726268768310546875</LatitudeDegrees>
              <LongitudeDegrees>-16.62736035883426666259765625</LongitudeDegrees>
            </Position>
            <AltitudeMeters>3252.39990234375</AltitudeMeters>
            <DistanceMeters>7835.8597087205</DistanceMeters>
          </Trackpoint>
          <Trackpoint>
            <Time>2019-04-07T15:02:36.000Z</Time>
            <Position>
              <LatitudeDegrees>28.27361047267913818359375</LatitudeDegrees>
              <LongitudeDegrees>-16.62736915983259677886962890625</LongitudeDegrees>
            </Position>
            <AltitudeMeters>3252.60009765625</AltitudeMeters>
            <DistanceMeters>7837.1968531166</DistanceMeters>
          </Trackpoint>
          <Trackpoint>
            <Time>2019-04-07T15:02:49.000Z</Time>
            <Position>
              <LatitudeDegrees>28.2735935412347316741943359375</LatitudeDegrees>
              <LongitudeDegrees>-16.62744476459920406341552734375</LongitudeDegrees>
            </Position>
            <AltitudeMeters>3253.60009765625</AltitudeMeters>
            <DistanceMeters>7844.8434042983</DistanceMeters>
          </Trackpoint>
          <Trackpoint>
            <Time>2019-04-07T15:02:50.000Z</Time>
            <Position>
              <LatitudeDegrees>28.2735925354063510894775390625</LatitudeDegrees>
              <LongitudeDegrees>-16.62744618952274322509765625</LongitudeDegrees>
            </Position>
            <AltitudeMeters>3253.60009765625</AltitudeMeters>
            <DistanceMeters>7845.0079953957</DistanceMeters>
          </Trackpoint>
          <Trackpoint>
            <Time>2019-04-07T15:03:06.000Z</Time>
            <Position>
              <LatitudeDegrees>28.273594714701175689697265625</LatitudeDegrees>
              <LongitudeDegrees>-16.62745515815913677215576171875</LongitudeDegrees>
            </Position>
            <AltitudeMeters>3254.199951171875</AltitudeMeters>
            <DistanceMeters>7845.9144924759</DistanceMeters>
          </Trackpoint>
          <Trackpoint>
            <Time>2019-04-07T15:03:09.000Z</Time>
            <Position>
              <LatitudeDegrees>28.27360670082271099090576171875</LatitudeDegrees>
              <LongitudeDegrees>-16.62745557725429534912109375</LongitudeDegrees>
            </Position>
            <AltitudeMeters>3254.60009765625</AltitudeMeters>
            <DistanceMeters>7847.2516368719</DistanceMeters>
          </Trackpoint>
          <Trackpoint>
            <Time>2019-04-07T15:03:16.000Z</Time>
            <Position>
              <LatitudeDegrees>28.27363838441669940948486328125</LatitudeDegrees>
              <LongitudeDegrees>-16.62744677625596523284912109375</LongitudeDegrees>
            </Position>
            <AltitudeMeters>3255.39990234375</AltitudeMeters>
            <DistanceMeters>7850.8826025297</DistanceMeters>
          </Trackpoint>
          <Trackpoint>
            <Time>2019-04-07T15:03:22.000Z</Time>
            <Position>
              <LatitudeDegrees>28.27367283403873443603515625</LatitudeDegrees>
              <LongitudeDegrees>-16.627435125410556793212890625</LongitudeDegrees>
            </Position>
            <AltitudeMeters>3256.39990234375</AltitudeMeters>
            <DistanceMeters>7854.8838930134</DistanceMeters>
          </Trackpoint>
          <Trackpoint>
            <Time>2019-04-07T15:03:23.000Z</Time>
            <Position>
              <LatitudeDegrees>28.27367811463773250579833984375</LatitudeDegrees>
              <LongitudeDegrees>-16.62743235938251018524169921875</LongitudeDegrees>
            </Position>
            <AltitudeMeters>3256.60009765625</AltitudeMeters>
            <DistanceMeters>7855.5283955475</DistanceMeters>
          </Trackpoint>
          <Trackpoint>
            <Time>2019-04-07T15:03:32.000Z</Time>
            <Position>
              <LatitudeDegrees>28.27373460866510868072509765625</LatitudeDegrees>
              <LongitudeDegrees>-16.6274158470332622528076171875</LongitudeDegrees>
            </Position>
            <AltitudeMeters>3257.60009765625</AltitudeMeters>
            <DistanceMeters>7862.0208832711</DistanceMeters>
          </Trackpoint>
          <Trackpoint>
            <Time>2019-04-07T15:03:43.000Z</Time>
            <Position>
              <LatitudeDegrees>28.273797892034053802490234375</LatitudeDegrees>
              <LongitudeDegrees>-16.62740729749202728271484375</LongitudeDegrees>
            </Position>
            <AltitudeMeters>3258.39990234375</AltitudeMeters>
            <DistanceMeters>7869.1142312779</DistanceMeters>
          </Trackpoint>
          <Trackpoint>
            <Time>2019-04-07T15:03:44.000Z</Time>
            <Position>
              <LatitudeDegrees>28.27380434609949588775634765625</LatitudeDegrees>
              <LongitudeDegrees>-16.62740922532975673675537109375</LongitudeDegrees>
            </Position>
            <AltitudeMeters>3258.60009765625</AltitudeMeters>
            <DistanceMeters>7869.856413643</DistanceMeters>
          </Trackpoint>
          <Trackpoint>
            <Time>2019-04-07T15:03:49.000Z</Time>
            <Position>
              <LatitudeDegrees>28.2738342694938182830810546875</LatitudeDegrees>
              <LongitudeDegrees>-16.62741224281489849090576171875</LongitudeDegrees>
            </Position>
            <AltitudeMeters>3259.60009765625</AltitudeMeters>
            <DistanceMeters>7873.1985992394</DistanceMeters>
          </Trackpoint>
          <Trackpoint>
            <Time>2019-04-07T15:03:55.000Z</Time>
            <Position>
              <LatitudeDegrees>28.27385924756526947021484375</LatitudeDegrees>
              <LongitudeDegrees>-16.627408973872661590576171875</LongitudeDegrees>
            </Position>
            <AltitudeMeters>3260.60009765625</AltitudeMeters>
            <DistanceMeters>7875.9982610678</DistanceMeters>
          </Trackpoint>
          <Trackpoint>
            <Time>2019-04-07T15:04:00.000Z</Time>
            <Position>
              <LatitudeDegrees>28.27388028614223003387451171875</LatitudeDegrees>
              <LongitudeDegrees>-16.6274118237197399139404296875</LongitudeDegrees>
            </Position>
            <AltitudeMeters>3261.39990234375</AltitudeMeters>
            <DistanceMeters>7878.3586756852</DistanceMeters>
          </Trackpoint>
          <Trackpoint>
            <Time>2019-04-07T15:04:06.000Z</Time>
            <Position>
              <LatitudeDegrees>28.27389487065374851226806640625</LatitudeDegrees>
              <LongitudeDegrees>-16.62743034772574901580810546875</LongitudeDegrees>
            </Position>
            <AltitudeMeters>3262.199951171875</AltitudeMeters>
            <DistanceMeters>7880.7944014957</DistanceMeters>
          </Trackpoint>
          <Trackpoint>
            <Time>2019-04-07T15:04:08.000Z</Time>
            <Position>
              <LatitudeDegrees>28.273899145424365997314453125</LatitudeDegrees>
              <LongitudeDegrees>-16.6274373047053813934326171875</LongitudeDegrees>
            </Position>
            <AltitudeMeters>3262.39990234375</AltitudeMeters>
            <DistanceMeters>7881.6228251854</DistanceMeters>
          </Trackpoint>
          <Trackpoint>
            <Time>2019-04-07T15:04:16.000Z</Time>
            <Position>
              <LatitudeDegrees>28.27391414903104305267333984375</LatitudeDegrees>
              <LongitudeDegrees>-16.6274480335414409637451171875</LongitudeDegrees>
            </Position>
            <AltitudeMeters>3263.199951171875</AltitudeMeters>
            <DistanceMeters>7883.5979183538</DistanceMeters>
          </Trackpoint>
          <Trackpoint>
            <Time>2019-04-07T15:04:25.000Z</Time>
            <Position>
              <LatitudeDegrees>28.2739288173615932464599609375</LatitudeDegrees>
              <LongitudeDegrees>-16.62747410126030445098876953125</LongitudeDegrees>
            </Position>
            <AltitudeMeters>3263.199951171875</AltitudeMeters>
            <DistanceMeters>7886.6298513708</DistanceMeters>
          </Trackpoint>
          <Trackpoint>
            <Time>2019-04-07T15:04:26.000Z</Time>
            <Position>
              <LatitudeDegrees>28.27392906881868839263916015625</LatitudeDegrees>
              <LongitudeDegrees>-16.62747963331639766693115234375</LongitudeDegrees>
            </Position>
            <AltitudeMeters>3263.39990234375</AltitudeMeters>
            <DistanceMeters>7887.1757382846</DistanceMeters>
          </Trackpoint>
          <Trackpoint>
            <Time>2019-04-07T15:04:29.000Z</Time>
            <Position>
              <LatitudeDegrees>28.27392756007611751556396484375</LatitudeDegrees>
              <LongitudeDegrees>-16.62749405018985271453857421875</LongitudeDegrees>
            </Position>
            <AltitudeMeters>3264.39990234375</AltitudeMeters>
            <DistanceMeters>7888.5979679157</DistanceMeters>
          </Trackpoint>
          <Trackpoint>
            <Time>2019-04-07T15:04:35.000Z</Time>
            <Position>
              <LatitudeDegrees>28.27392018400132656097412109375</LatitudeDegrees>
              <LongitudeDegrees>-16.62752388976514339447021484375</LongitudeDegrees>
            </Position>
            <AltitudeMeters>3265.199951171875</AltitudeMeters>
            <DistanceMeters>7891.6358517393</DistanceMeters>
          </Trackpoint>
          <Trackpoint>
            <Time>2019-04-07T15:04:37.000Z</Time>
            <Position>
              <LatitudeDegrees>28.27391817234456539154052734375</LatitudeDegrees>
              <LongitudeDegrees>-16.6275358758866786956787109375</LongitudeDegrees>
            </Position>
            <AltitudeMeters>3265.39990234375</AltitudeMeters>
            <DistanceMeters>7892.8303190173</DistanceMeters>
          </Trackpoint>
          <Trackpoint>
            <Time>2019-04-07T15:04:46.000Z</Time>
            <Position>
              <LatitudeDegrees>28.27393233776092529296875</LatitudeDegrees>
              <LongitudeDegrees>-16.6275670565664768218994140625</LongitudeDegrees>
            </Position>
            <AltitudeMeters>3266.199951171875</AltitudeMeters>
            <DistanceMeters>7896.2697085186</DistanceMeters>
          </Trackpoint>
          <Trackpoint>
            <Time>2019-04-07T15:04:47.000Z</Time>
            <Position>
              <LatitudeDegrees>28.273936696350574493408203125</LatitudeDegrees>
              <LongitudeDegrees>-16.6275667212903499603271484375</LongitudeDegrees>
            </Position>
            <AltitudeMeters>3266.39990234375</AltitudeMeters>
            <DistanceMeters>7896.7542515894</DistanceMeters>
          </Trackpoint>
          <Trackpoint>
            <Time>2019-04-07T15:04:55.000Z</Time>
            <Position>
              <LatitudeDegrees>28.2739496044814586639404296875</LatitudeDegrees>
              <LongitudeDegrees>-16.62759815342724323272705078125</LongitudeDegrees>
            </Position>
            <AltitudeMeters>3267.199951171875</AltitudeMeters>
            <DistanceMeters>7900.1527023794</DistanceMeters>
          </Trackpoint>
          <Trackpoint>
            <Time>2019-04-07T15:05:05.000Z</Time>
            <Position>
              <LatitudeDegrees>28.2739620096981525421142578125</LatitudeDegrees>
              <LongitudeDegrees>-16.62762430496513843536376953125</LongitudeDegrees>
            </Position>
            <AltitudeMeters>3268.199951171875</AltitudeMeters>
            <DistanceMeters>7903.0646161455</DistanceMeters>
          </Trackpoint>
          <Trackpoint>
            <Time>2019-04-07T15:05:11.000Z</Time>
            <Position>
              <LatitudeDegrees>28.2739640213549137115478515625</LatitudeDegrees>
              <LongitudeDegrees>-16.6276294179260730743408203125</LongitudeDegrees>
            </Position>
            <AltitudeMeters>3268.800048828125</AltitudeMeters>
            <DistanceMeters>7903.6187123457</DistanceMeters>
          </Trackpoint>
          <Trackpoint>
            <Time>2019-04-07T15:05:15.000Z</Time>
            <Position>
              <LatitudeDegrees>28.27396410517394542694091796875</LatitudeDegrees>
              <LongitudeDegrees>-16.627631597220897674560546875</LongitudeDegrees>
            </Position>
            <AltitudeMeters>3269.199951171875</AltitudeMeters>
            <DistanceMeters>7903.8311985387</DistanceMeters>
          </Trackpoint>
          <Trackpoint>
            <Time>2019-04-07T15:05:28.000Z</Time>
            <Position>
              <LatitudeDegrees>28.27401070855557918548583984375</LatitudeDegrees>
              <LongitudeDegrees>-16.627663783729076385498046875</LongitudeDegrees>
            </Position>
            <AltitudeMeters>3270</AltitudeMeters>
            <DistanceMeters>7909.9017621013</DistanceMeters>
          </Trackpoint>
          <Trackpoint>
            <Time>2019-04-07T15:05:29.000Z</Time>
            <Position>
              <LatitudeDegrees>28.2740146480500698089599609375</LatitudeDegrees>
              <LongitudeDegrees>-16.62766487337648868560791015625</LongitudeDegrees>
            </Position>
            <AltitudeMeters>3270.199951171875</AltitudeMeters>
            <DistanceMeters>7910.3574942136</DistanceMeters>
          </Trackpoint>
          <Trackpoint>
            <Time>2019-04-07T15:05:36.000Z</Time>
            <Position>
              <LatitudeDegrees>28.2740169949829578399658203125</LatitudeDegrees>
              <LongitudeDegrees>-16.6277015022933483123779296875</LongitudeDegrees>
            </Position>
            <AltitudeMeters>3271.199951171875</AltitudeMeters>
            <DistanceMeters>7913.9572386069</DistanceMeters>
          </Trackpoint>
          <Trackpoint>
            <Time>2019-04-07T15:05:43.000Z</Time>
            <Position>
              <LatitudeDegrees>28.27400945127010345458984375</LatitudeDegrees>
              <LongitudeDegrees>-16.62773528136312961578369140625</LongitudeDegrees>
            </Position>
            <AltitudeMeters>3272</AltitudeMeters>
            <DistanceMeters>7917.3715948697</DistanceMeters>
          </Trackpoint>
          <Trackpoint>
            <Time>2019-04-07T15:05:45.000Z</Time>
            <Position>
              <LatitudeDegrees>28.2740112952888011932373046875</LatitudeDegrees>
              <LongitudeDegrees>-16.62774701602756977081298828125</LongitudeDegrees>
            </Position>
            <AltitudeMeters>3272.199951171875</AltitudeMeters>
            <DistanceMeters>7918.5431628871</DistanceMeters>
          </Trackpoint>
          <Trackpoint>
            <Time>2019-04-07T15:05:51.000Z</Time>
            <Position>
              <LatitudeDegrees>28.27400098554790019989013671875</LatitudeDegrees>
              <LongitudeDegrees>-16.627769730985164642333984375</LongitudeDegrees>
            </Position>
            <AltitudeMeters>3273.199951171875</AltitudeMeters>
            <DistanceMeters>7921.0501397927</DistanceMeters>
          </Trackpoint>
          <Trackpoint>
            <Time>2019-04-07T15:06:00.000Z</Time>
            <Position>
              <LatitudeDegrees>28.27396008186042308807373046875</LatitudeDegrees>
              <LongitudeDegrees>-16.6278040967881679534912109375</LongitudeDegrees>
            </Position>
            <AltitudeMeters>3274</AltitudeMeters>
            <DistanceMeters>7926.7144015809</DistanceMeters>
          </Trackpoint>
          <Trackpoint>
            <Time>2019-04-07T15:06:05.000Z</Time>
            <Position>
              <LatitudeDegrees>28.27393971383571624755859375</LatitudeDegrees>
              <LongitudeDegrees>-16.62783016450703144073486328125</LongitudeDegrees>
            </Position>
            <AltitudeMeters>3275</AltitudeMeters>
            <DistanceMeters>7930.1300799565</DistanceMeters>
          </Trackpoint>
          <Trackpoint>
            <Time>2019-04-07T15:06:11.000Z</Time>
            <Position>
              <LatitudeDegrees>28.2739162445068359375</LatitudeDegrees>
              <LongitudeDegrees>-16.6278587467968463897705078125</LongitudeDegrees>
            </Position>
            <AltitudeMeters>3276.199951171875</AltitudeMeters>
            <DistanceMeters>7933.9595504349</DistanceMeters>
          </Trackpoint>
          <Trackpoint>
            <Time>2019-04-07T15:06:13.000Z</Time>
            <Position>
              <LatitudeDegrees>28.27391096390783786773681640625</LatitudeDegrees>
              <LongitudeDegrees>-16.6278701461851596832275390625</LongitudeDegrees>
            </Position>
            <AltitudeMeters>3276.199951171875</AltitudeMeters>
            <DistanceMeters>7935.2237986426</DistanceMeters>
          </Trackpoint>
          <Trackpoint>
            <Time>2019-04-07T15:06:24.000Z</Time>
            <Position>
              <LatitudeDegrees>28.2738907635211944580078125</LatitudeDegrees>
              <LongitudeDegrees>-16.627921946346759796142578125</LongitudeDegrees>
            </Position>
            <AltitudeMeters>3277.199951171875</AltitudeMeters>
            <DistanceMeters>7940.7761567884</DistanceMeters>
          </Trackpoint>
          <Trackpoint>
            <Time>2019-04-07T15:06:31.000Z</Time>
            <Position>
              <LatitudeDegrees>28.27389889396727085113525390625</LatitudeDegrees>
              <LongitudeDegrees>-16.627939380705356597900390625</LongitudeDegrees>
            </Position>
            <AltitudeMeters>3278.199951171875</AltitudeMeters>
            <DistanceMeters>7942.7096643906</DistanceMeters>
          </Trackpoint>
          <Trackpoint>
            <Time>2019-04-07T15:06:35.000Z</Time>
            <Position>
              <LatitudeDegrees>28.273911885917186737060546875</LatitudeDegrees>
              <LongitudeDegrees>-16.62793661467730998992919921875</LongitudeDegrees>
            </Position>
            <AltitudeMeters>3278.800048828125</AltitudeMeters>
            <DistanceMeters>7944.1818119194</DistanceMeters>
          </Trackpoint>
          <Trackpoint>
            <Time>2019-04-07T15:06:42.000Z</Time>
            <Position>
              <LatitudeDegrees>28.2739308290183544158935546875</LatitudeDegrees>
              <LongitudeDegrees>-16.62794373929500579833984375</LongitudeDegrees>
            </Position>
            <AltitudeMeters>3279</AltitudeMeters>
            <DistanceMeters>7946.4022672192</DistanceMeters>
          </Trackpoint>
          <Trackpoint>
            <Time>2019-04-07T15:06:46.000Z</Time>
            <Position>
              <LatitudeDegrees>28.27392940409481525421142578125</LatitudeDegrees>
              <LongitudeDegrees>-16.6279559768736362457275390625</LongitudeDegrees>
            </Position>
            <AltitudeMeters>3279.60009765625</AltitudeMeters>
            <DistanceMeters>7947.6117598335</DistanceMeters>
          </Trackpoint>
          <Trackpoint>
            <Time>2019-04-07T15:06:52.000Z</Time>
            <Position>
              <LatitudeDegrees>28.2739170826971530914306640625</LatitudeDegrees>
              <LongitudeDegrees>-16.62797986529767513275146484375</LongitudeDegrees>
            </Position>
            <AltitudeMeters>3280</AltitudeMeters>
            <DistanceMeters>7950.3246019413</DistanceMeters>
          </Trackpoint>
          <Trackpoint>
            <Time>2019-04-07T15:06:56.000Z</Time>
            <Position>
              <LatitudeDegrees>28.27391264028847217559814453125</LatitudeDegrees>
              <LongitudeDegrees>-16.62799495272338390350341796875</LongitudeDegrees>
            </Position>
            <AltitudeMeters>3280.60009765625</AltitudeMeters>
            <DistanceMeters>7951.8831559389</DistanceMeters>
          </Trackpoint>
          <Trackpoint>
            <Time>2019-04-07T15:07:00.000Z</Time>
            <Position>
              <LatitudeDegrees>28.27392554841935634613037109375</LatitudeDegrees>
              <LongitudeDegrees>-16.62800274789333343505859375</LongitudeDegrees>
            </Position>
            <AltitudeMeters>3281.199951171875</AltitudeMeters>
            <DistanceMeters>7953.5069731458</DistanceMeters>
          </Trackpoint>
          <Trackpoint>
            <Time>2019-04-07T15:07:05.000Z</Time>
            <Position>
              <LatitudeDegrees>28.27393879182636737823486328125</LatitudeDegrees>
              <LongitudeDegrees>-16.6280223615467548370361328125</LongitudeDegrees>
            </Position>
            <AltitudeMeters>3282</AltitudeMeters>
            <DistanceMeters>7955.9315514112</DistanceMeters>
          </Trackpoint>
          <Trackpoint>
            <Time>2019-04-07T15:07:07.000Z</Time>
            <Position>
              <LatitudeDegrees>28.2739449106156826019287109375</LatitudeDegrees>
              <LongitudeDegrees>-16.628031916916370391845703125</LongitudeDegrees>
            </Position>
            <AltitudeMeters>3282.39990234375</AltitudeMeters>
            <DistanceMeters>7957.0915002852</DistanceMeters>
          </Trackpoint>
          <Trackpoint>
            <Time>2019-04-07T15:07:12.000Z</Time>
            <Position>
              <LatitudeDegrees>28.2739724032580852508544921875</LatitudeDegrees>
              <LongitudeDegrees>-16.62804658524692058563232421875</LongitudeDegrees>
            </Position>
            <AltitudeMeters>3283.199951171875</AltitudeMeters>
            <DistanceMeters>7960.4726357125</DistanceMeters>
          </Trackpoint>
          <Trackpoint>
            <Time>2019-04-07T15:07:16.000Z</Time>
            <Position>
              <LatitudeDegrees>28.27397868968546390533447265625</LatitudeDegrees>
              <LongitudeDegrees>-16.62804901599884033203125</LongitudeDegrees>
            </Position>
            <AltitudeMeters>3283.60009765625</AltitudeMeters>
            <DistanceMeters>7961.2087094769</DistanceMeters>
          </Trackpoint>
          <Trackpoint>
            <Time>2019-04-07T15:07:27.000Z</Time>
            <Position>
              <LatitudeDegrees>28.2739819586277008056640625</LatitudeDegrees>
              <LongitudeDegrees>-16.6280666179955005645751953125</LongitudeDegrees>
            </Position>
            <AltitudeMeters>3284</AltitudeMeters>
            <DistanceMeters>7962.9711924688</DistanceMeters>
          </Trackpoint>
          <Trackpoint>
            <Time>2019-04-07T15:07:28.000Z</Time>
            <Position>
              <LatitudeDegrees>28.27398304827511310577392578125</LatitudeDegrees>
              <LongitudeDegrees>-16.6280689649283885955810546875</LongitudeDegrees>
            </Position>
            <AltitudeMeters>3284.199951171875</AltitudeMeters>
            <DistanceMeters>7963.2399686053</DistanceMeters>
          </Trackpoint>
          <Trackpoint>
            <Time>2019-04-07T15:07:35.000Z</Time>
            <Position>
              <LatitudeDegrees>28.273991011083126068115234375</LatitudeDegrees>
              <LongitudeDegrees>-16.62807516753673553466796875</LongitudeDegrees>
            </Position>
            <AltitudeMeters>3285.39990234375</AltitudeMeters>
            <DistanceMeters>7964.3150731513</DistanceMeters>
          </Trackpoint>
          <Trackpoint>
            <Time>2019-04-07T15:07:37.000Z</Time>
            <Position>
              <LatitudeDegrees>28.27399143017828464508056640625</LatitudeDegrees>
              <LongitudeDegrees>-16.6280760057270526885986328125</LongitudeDegrees>
            </Position>
            <AltitudeMeters>3285.60009765625</AltitudeMeters>
            <DistanceMeters>7964.4100998657</DistanceMeters>
          </Trackpoint>
          <Trackpoint>
            <Time>2019-04-07T15:07:47.000Z</Time>
            <Position>
              <LatitudeDegrees>28.27401573769748210906982421875</LatitudeDegrees>
              <LongitudeDegrees>-16.62809193134307861328125</LongitudeDegrees>
            </Position>
            <AltitudeMeters>3285.60009765625</AltitudeMeters>
            <DistanceMeters>7967.5329963672</DistanceMeters>
          </Trackpoint>
          <Trackpoint>
            <Time>2019-04-07T15:07:55.000Z</Time>
            <Position>
              <LatitudeDegrees>28.2740441523492336273193359375</LatitudeDegrees>
              <LongitudeDegrees>-16.62810333073139190673828125</LongitudeDegrees>
            </Position>
            <AltitudeMeters>3286.199951171875</AltitudeMeters>
            <DistanceMeters>7970.8873182434</DistanceMeters>
          </Trackpoint>
          <Trackpoint>
            <Time>2019-04-07T15:07:57.000Z</Time>
            <Position>
              <LatitudeDegrees>28.2740511931478977203369140625</LatitudeDegrees>
              <LongitudeDegrees>-16.62810609675943851470947265625</LongitudeDegrees>
            </Position>
            <AltitudeMeters>3286.199951171875</AltitudeMeters>
            <DistanceMeters>7971.7157419332</DistanceMeters>
          </Trackpoint>
          <Trackpoint>
            <Time>2019-04-07T15:08:06.000Z</Time>
            <Position>
              <LatitudeDegrees>28.274060077965259552001953125</LatitudeDegrees>
              <LongitudeDegrees>-16.62811716087162494659423828125</LongitudeDegrees>
            </Position>
            <AltitudeMeters>3287</AltitudeMeters>
            <DistanceMeters>7973.1817426814</DistanceMeters>
          </Trackpoint>
          <Trackpoint>
            <Time>2019-04-07T15:08:09.000Z</Time>
            <Position>
              <LatitudeDegrees>28.27406317926943302154541015625</LatitudeDegrees>
              <LongitudeDegrees>-16.62812386639416217803955078125</LongitudeDegrees>
            </Position>
            <AltitudeMeters>3287.199951171875</AltitudeMeters>
            <DistanceMeters>7973.9239250465</DistanceMeters>
          </Trackpoint>
          <Trackpoint>
            <Time>2019-04-07T15:08:19.000Z</Time>
            <Position>
              <LatitudeDegrees>28.274076171219348907470703125</LatitudeDegrees>
              <LongitudeDegrees>-16.62813375703990459442138671875</LongitudeDegrees>
            </Position>
            <AltitudeMeters>3287.800048828125</AltitudeMeters>
            <DistanceMeters>7975.665793493</DistanceMeters>
          </Trackpoint>
          <Trackpoint>
            <Time>2019-04-07T15:08:20.000Z</Time>
            <Position>
              <LatitudeDegrees>28.2740793563425540924072265625</LatitudeDegrees>
              <LongitudeDegrees>-16.6281343437731266021728515625</LongitudeDegrees>
            </Position>
            <AltitudeMeters>3287.800048828125</AltitudeMeters>
            <DistanceMeters>7976.0213509008</DistanceMeters>
          </Trackpoint>
          <Trackpoint>
            <Time>2019-04-07T15:08:28.000Z</Time>
            <Position>
              <LatitudeDegrees>28.27410207130014896392822265625</LatitudeDegrees>
              <LongitudeDegrees>-16.62813208065927028656005859375</LongitudeDegrees>
            </Position>
            <AltitudeMeters>3288.800048828125</AltitudeMeters>
            <DistanceMeters>7978.5587599148</DistanceMeters>
          </Trackpoint>
          <Trackpoint>
            <Time>2019-04-07T15:08:29.000Z</Time>
            <Position>
              <LatitudeDegrees>28.27410173602402210235595703125</LatitudeDegrees>
              <LongitudeDegrees>-16.62813141010701656341552734375</LongitudeDegrees>
            </Position>
            <AltitudeMeters>3289</AltitudeMeters>
            <DistanceMeters>7978.6931479831</DistanceMeters>
          </Trackpoint>
          <Trackpoint>
            <Time>2019-04-07T15:08:41.000Z</Time>
            <Position>
              <LatitudeDegrees>28.2741024903953075408935546875</LatitudeDegrees>
              <LongitudeDegrees>-16.62813208065927028656005859375</LongitudeDegrees>
            </Position>
            <AltitudeMeters>3289</AltitudeMeters>
            <DistanceMeters>7978.8275360513</DistanceMeters>
          </Trackpoint>
          <Trackpoint>
            <Time>2019-04-07T15:08:56.000Z</Time>
            <Position>
              <LatitudeDegrees>28.27409603632986545562744140625</LatitudeDegrees>
              <LongitudeDegrees>-16.6281273029744625091552734375</LongitudeDegrees>
            </Position>
            <AltitudeMeters>3289</AltitudeMeters>
            <DistanceMeters>7979.6774808234</DistanceMeters>
          </Trackpoint>
          <Trackpoint>
            <Time>2019-04-07T15:09:14.000Z</Time>
            <Position>
              <LatitudeDegrees>28.2740951143205165863037109375</LatitudeDegrees>
              <LongitudeDegrees>-16.62812889553606510162353515625</LongitudeDegrees>
            </Position>
            <AltitudeMeters>3289</AltitudeMeters>
            <DistanceMeters>7979.8420719208</DistanceMeters>
          </Trackpoint>
          <Trackpoint>
            <Time>2019-04-07T15:09:33.000Z</Time>
            <Position>
              <LatitudeDegrees>28.27409570105373859405517578125</LatitudeDegrees>
              <LongitudeDegrees>-16.6281299851834774017333984375</LongitudeDegrees>
            </Position>
            <AltitudeMeters>3288.60009765625</AltitudeMeters>
            <DistanceMeters>7979.976459989</DistanceMeters>
          </Trackpoint>
          <Trackpoint>
            <Time>2019-04-07T15:10:03.000Z</Time>
            <Position>
              <LatitudeDegrees>28.27408463694155216217041015625</LatitudeDegrees>
              <LongitudeDegrees>-16.6281279735267162322998046875</LongitudeDegrees>
            </Position>
            <AltitudeMeters>3289</AltitudeMeters>
            <DistanceMeters>7981.2227236643</DistanceMeters>
          </Trackpoint>
          <Trackpoint>
            <Time>2019-04-07T15:10:17.000Z</Time>
            <Position>
              <LatitudeDegrees>28.27407105825841426849365234375</LatitudeDegrees>
              <LongitudeDegrees>-16.6281118802726268768310546875</LongitudeDegrees>
            </Position>
            <AltitudeMeters>3288.800048828125</AltitudeMeters>
            <DistanceMeters>7983.404202586</DistanceMeters>
          </Trackpoint>
          <Trackpoint>
            <Time>2019-04-07T15:10:27.000Z</Time>
            <Position>
              <LatitudeDegrees>28.2740609161555767059326171875</LatitudeDegrees>
              <LongitudeDegrees>-16.62810693494975566864013671875</LongitudeDegrees>
            </Position>
            <AltitudeMeters>3288.60009765625</AltitudeMeters>
            <DistanceMeters>7984.6285361556</DistanceMeters>
          </Trackpoint>
          <Trackpoint>
            <Time>2019-04-07T15:10:59.000Z</Time>
            <Position>
              <LatitudeDegrees>28.2740438170731067657470703125</LatitudeDegrees>
              <LongitudeDegrees>-16.6280894167721271514892578125</LongitudeDegrees>
            </Position>
            <AltitudeMeters>3289.199951171875</AltitudeMeters>
            <DistanceMeters>7987.1942574436</DistanceMeters>
          </Trackpoint>
          <Trackpoint>
            <Time>2019-04-07T15:11:12.000Z</Time>
            <Position>
              <LatitudeDegrees>28.2740490138530731201171875</LatitudeDegrees>
              <LongitudeDegrees>-16.62809067405760288238525390625</LongitudeDegrees>
            </Position>
            <AltitudeMeters>3289</AltitudeMeters>
            <DistanceMeters>7987.7876990847</DistanceMeters>
          </Trackpoint>
          <Trackpoint>
            <Time>2019-04-07T15:11:26.000Z</Time>
            <Position>
              <LatitudeDegrees>28.2740478403866291046142578125</LatitudeDegrees>
              <LongitudeDegrees>-16.62808933295309543609619140625</LongitudeDegrees>
            </Position>
            <AltitudeMeters>3288.800048828125</AltitudeMeters>
            <DistanceMeters>7987.9777525134</DistanceMeters>
          </Trackpoint>
          <Trackpoint>
            <Time>2019-04-07T15:11:37.000Z</Time>
            <Position>
              <LatitudeDegrees>28.27404507435858249664306640625</LatitudeDegrees>
              <LongitudeDegrees>-16.62808883003890514373779296875</LongitudeDegrees>
            </Position>
            <AltitudeMeters>3289.39990234375</AltitudeMeters>
            <DistanceMeters>7988.29292047</DistanceMeters>
          </Trackpoint>
          <Trackpoint>
            <Time>2019-04-07T15:11:38.000Z</Time>
            <Position>
              <LatitudeDegrees>28.27404742129147052764892578125</LatitudeDegrees>
              <LongitudeDegrees>-16.6280890814960002899169921875</LongitudeDegrees>
            </Position>
            <AltitudeMeters>3289.60009765625</AltitudeMeters>
            <DistanceMeters>7988.5616966065</DistanceMeters>
          </Trackpoint>
          <Trackpoint>
            <Time>2019-04-07T15:11:48.000Z</Time>
            <Position>
              <LatitudeDegrees>28.27405697666108608245849609375</LatitudeDegrees>
              <LongitudeDegrees>-16.62809184752404689788818359375</LongitudeDegrees>
            </Position>
            <AltitudeMeters>3289.199951171875</AltitudeMeters>
            <DistanceMeters>7989.6617103535</DistanceMeters>
          </Trackpoint>
          <Trackpoint>
            <Time>2019-04-07T15:11:57.000Z</Time>
            <Position>
              <LatitudeDegrees>28.2740578986704349517822265625</LatitudeDegrees>
              <LongitudeDegrees>-16.6280937753617763519287109375</LongitudeDegrees>
            </Position>
            <AltitudeMeters>3289</AltitudeMeters>
            <DistanceMeters>7989.8944773156</DistanceMeters>
          </Trackpoint>
          <Trackpoint>
            <Time>2019-04-07T15:12:06.000Z</Time>
            <Position>
              <LatitudeDegrees>28.27405773103237152099609375</LatitudeDegrees>
              <LongitudeDegrees>-16.62809394299983978271484375</LongitudeDegrees>
            </Position>
            <AltitudeMeters>3289.800048828125</AltitudeMeters>
            <DistanceMeters>7989.98950403</DistanceMeters>
          </Trackpoint>
          <Trackpoint>
            <Time>2019-04-07T15:12:21.000Z</Time>
            <Position>
              <LatitudeDegrees>28.27406016178429126739501953125</LatitudeDegrees>
              <LongitudeDegrees>-16.62810391746461391448974609375</LongitudeDegrees>
            </Position>
            <AltitudeMeters>3289.39990234375</AltitudeMeters>
            <DistanceMeters>7991.0041116954</DistanceMeters>
          </Trackpoint>
          <Trackpoint>
            <Time>2019-04-07T15:12:26.000Z</Time>
            <Position>
              <LatitudeDegrees>28.27406234107911586761474609375</LatitudeDegrees>
              <LongitudeDegrees>-16.62810576148331165313720703125</LongitudeDegrees>
            </Position>
            <AltitudeMeters>3289.800048828125</AltitudeMeters>
            <DistanceMeters>7991.3046125513</DistanceMeters>
          </Trackpoint>
          <Trackpoint>
            <Time>2019-04-07T15:12:31.000Z</Time>
            <Position>
              <LatitudeDegrees>28.2740624248981475830078125</LatitudeDegrees>
              <LongitudeDegrees>-16.6281061805784702301025390625</LongitudeDegrees>
            </Position>
            <AltitudeMeters>3289.39990234375</AltitudeMeters>
            <DistanceMeters>7991.3046125513</DistanceMeters>
          </Trackpoint>
          <Trackpoint>
            <Time>2019-04-07T15:12:42.000Z</Time>
            <Position>
              <LatitudeDegrees>28.27406368218362331390380859375</LatitudeDegrees>
              <LongitudeDegrees>-16.6280994750559329986572265625</LongitudeDegrees>
            </Position>
            <AltitudeMeters>3289</AltitudeMeters>
            <DistanceMeters>7991.9765528926</DistanceMeters>
          </Trackpoint>
          <Trackpoint>
            <Time>2019-04-07T15:12:45.000Z</Time>
            <Position>
              <LatitudeDegrees>28.274063430726528167724609375</LatitudeDegrees>
              <LongitudeDegrees>-16.62809788249433040618896484375</LongitudeDegrees>
            </Position>
            <AltitudeMeters>3288.60009765625</AltitudeMeters>
            <DistanceMeters>7992.1109409608</DistanceMeters>
          </Trackpoint>
          <Trackpoint>
            <Time>2019-04-07T15:13:18.000Z</Time>
            <Position>
              <LatitudeDegrees>28.27406602911651134490966796875</LatitudeDegrees>
              <LongitudeDegrees>-16.62810064852237701416015625</LongitudeDegrees>
            </Position>
            <AltitudeMeters>3289.199951171875</AltitudeMeters>
            <DistanceMeters>7992.5027461414</DistanceMeters>
          </Trackpoint>
          <Trackpoint>
            <Time>2019-04-07T15:13:28.000Z</Time>
            <Position>
              <LatitudeDegrees>28.27405278570950031280517578125</LatitudeDegrees>
              <LongitudeDegrees>-16.6281360201537609100341796875</LongitudeDegrees>
            </Position>
            <AltitudeMeters>3289.800048828125</AltitudeMeters>
            <DistanceMeters>7996.2692100127</DistanceMeters>
          </Trackpoint>
          <Trackpoint>
            <Time>2019-04-07T15:13:39.000Z</Time>
            <Position>
              <LatitudeDegrees>28.27405462972819805145263671875</LatitudeDegrees>
              <LongitudeDegrees>-16.62813895381987094879150390625</LongitudeDegrees>
            </Position>
            <AltitudeMeters>3290.39990234375</AltitudeMeters>
            <DistanceMeters>7996.6118337039</DistanceMeters>
          </Trackpoint>
          <Trackpoint>
            <Time>2019-04-07T15:13:42.000Z</Time>
            <Position>
              <LatitudeDegrees>28.27404834330081939697265625</LatitudeDegrees>
              <LongitudeDegrees>-16.6281494311988353729248046875</LongitudeDegrees>
            </Position>
            <AltitudeMeters>3290.800048828125</AltitudeMeters>
            <DistanceMeters>7997.8544692385</DistanceMeters>
          </Trackpoint>
          <Trackpoint>
            <Time>2019-04-07T15:13:48.000Z</Time>
            <Position>
              <LatitudeDegrees>28.2740267179906368255615234375</LatitudeDegrees>
              <LongitudeDegrees>-16.6281638480722904205322265625</LongitudeDegrees>
            </Position>
            <AltitudeMeters>3291.60009765625</AltitudeMeters>
            <DistanceMeters>8000.6476727842</DistanceMeters>
          </Trackpoint>
          <Trackpoint>
            <Time>2019-04-07T15:13:51.000Z</Time>
            <Position>
              <LatitudeDegrees>28.27401439659297466278076171875</LatitudeDegrees>
              <LongitudeDegrees>-16.6281692124903202056884765625</LongitudeDegrees>
            </Position>
            <AltitudeMeters>3292</AltitudeMeters>
            <DistanceMeters>8002.1136735324</DistanceMeters>
          </Trackpoint>
          <Trackpoint>
            <Time>2019-04-07T15:13:59.000Z</Time>
            <Position>
              <LatitudeDegrees>28.2739730738103389739990234375</LatitudeDegrees>
              <LongitudeDegrees>-16.62818270735442638397216796875</LongitudeDegrees>
            </Position>
            <AltitudeMeters>3292.60009765625</AltitudeMeters>
            <DistanceMeters>8006.9000399975</DistanceMeters>
          </Trackpoint>
          <Trackpoint>
            <Time>2019-04-07T15:14:02.000Z</Time>
            <Position>
              <LatitudeDegrees>28.27395371161401271820068359375</LatitudeDegrees>
              <LongitudeDegrees>-16.62818471901118755340576171875</LongitudeDegrees>
            </Position>
            <AltitudeMeters>3293</AltitudeMeters>
            <DistanceMeters>8009.0669824865</DistanceMeters>
          </Trackpoint>
          <Trackpoint>
            <Time>2019-04-07T15:14:10.000Z</Time>
            <Position>
              <LatitudeDegrees>28.27388581819832324981689453125</LatitudeDegrees>
              <LongitudeDegrees>-16.62817985750734806060791015625</LongitudeDegrees>
            </Position>
            <AltitudeMeters>3293</AltitudeMeters>
            <DistanceMeters>8016.6387692864</DistanceMeters>
          </Trackpoint>
          <Trackpoint>
            <Time>2019-04-07T15:14:15.000Z</Time>
            <Position>
              <LatitudeDegrees>28.27384273521602153778076171875</LatitudeDegrees>
              <LongitudeDegrees>-16.6281846351921558380126953125</LongitudeDegrees>
            </Position>
            <AltitudeMeters>3293.199951171875</AltitudeMeters>
            <DistanceMeters>8021.456164481</DistanceMeters>
          </Trackpoint>
          <Trackpoint>
            <Time>2019-04-07T15:14:17.000Z</Time>
            <Position>
              <LatitudeDegrees>28.2738252170383930206298828125</LatitudeDegrees>
              <LongitudeDegrees>-16.6281839646399021148681640625</LongitudeDegrees>
            </Position>
            <AltitudeMeters>3293.39990234375</AltitudeMeters>
            <DistanceMeters>8023.4082639301</DistanceMeters>
          </Trackpoint>
          <Trackpoint>
            <Time>2019-04-07T15:14:23.000Z</Time>
            <Position>
              <LatitudeDegrees>28.2738007418811321258544921875</LatitudeDegrees>
              <LongitudeDegrees>-16.62821154110133647918701171875</LongitudeDegrees>
            </Position>
            <AltitudeMeters>3293.199951171875</AltitudeMeters>
            <DistanceMeters>8027.2448020316</DistanceMeters>
          </Trackpoint>
          <Trackpoint>
            <Time>2019-04-07T15:14:24.000Z</Time>
            <Position>
              <LatitudeDegrees>28.2738024182617664337158203125</LatitudeDegrees>
              <LongitudeDegrees>-16.62821539677679538726806640625</LongitudeDegrees>
            </Position>
            <AltitudeMeters>3293.39990234375</AltitudeMeters>
            <DistanceMeters>8027.6697744176</DistanceMeters>
          </Trackpoint>
          <Trackpoint>
            <Time>2019-04-07T15:14:33.000Z</Time>
            <Position>
              <LatitudeDegrees>28.2738237082958221435546875</LatitudeDegrees>
              <LongitudeDegrees>-16.62823836319148540496826171875</LongitudeDegrees>
            </Position>
            <AltitudeMeters>3293.39990234375</AltitudeMeters>
            <DistanceMeters>8030.9395772419</DistanceMeters>
          </Trackpoint>
          <Trackpoint>
            <Time>2019-04-07T15:14:37.000Z</Time>
            <Position>
              <LatitudeDegrees>28.27383921481668949127197265625</LatitudeDegrees>
              <LongitudeDegrees>-16.62824473343789577484130859375</LongitudeDegrees>
            </Position>
            <AltitudeMeters>3294.39990234375</AltitudeMeters>
            <DistanceMeters>8032.7773064357</DistanceMeters>
          </Trackpoint>
          <Trackpoint>
            <Time>2019-04-07T15:14:43.000Z</Time>
            <Position>
              <LatitudeDegrees>28.27385849319398403167724609375</LatitudeDegrees>
              <LongitudeDegrees>-16.62824607454240322113037109375</LongitudeDegrees>
            </Position>
            <AltitudeMeters>3295.60009765625</AltitudeMeters>
            <DistanceMeters>8034.929614317</DistanceMeters>
          </Trackpoint>
          <Trackpoint>
            <Time>2019-04-07T15:14:46.000Z</Time>
            <Position>
              <LatitudeDegrees>28.2738513685762882232666015625</LatitudeDegrees>
              <LongitudeDegrees>-16.62826023995876312255859375</LongitudeDegrees>
            </Position>
            <AltitudeMeters>3296.60009765625</AltitudeMeters>
            <DistanceMeters>8036.5253842118</DistanceMeters>
          </Trackpoint>
          <Trackpoint>
            <Time>2019-04-07T15:14:50.000Z</Time>
            <Position>
              <LatitudeDegrees>28.2738496921956539154052734375</LatitudeDegrees>
              <LongitudeDegrees>-16.62826736457645893096923828125</LongitudeDegrees>
            </Position>
            <AltitudeMeters>3297.39990234375</AltitudeMeters>
            <DistanceMeters>8037.2490861075</DistanceMeters>
          </Trackpoint>
          <Trackpoint>
            <Time>2019-04-07T15:15:04.000Z</Time>
            <Position>
              <LatitudeDegrees>28.27382781542837619781494140625</LatitudeDegrees>
              <LongitudeDegrees>-16.62828211672604084014892578125</LongitudeDegrees>
            </Position>
            <AltitudeMeters>3296.800048828125</AltitudeMeters>
            <DistanceMeters>8040.0808184186</DistanceMeters>
          </Trackpoint>
          <Trackpoint>
            <Time>2019-04-07T15:15:08.000Z</Time>
            <Position>
              <LatitudeDegrees>28.27381473965942859649658203125</LatitudeDegrees>
              <LongitudeDegrees>-16.6282832063734531402587890625</LongitudeDegrees>
            </Position>
            <AltitudeMeters>3297.39990234375</AltitudeMeters>
            <DistanceMeters>8041.5437360914</DistanceMeters>
          </Trackpoint>
          <Trackpoint>
            <Time>2019-04-07T15:15:12.000Z</Time>
            <Position>
              <LatitudeDegrees>28.273803927004337310791015625</LatitudeDegrees>
              <LongitudeDegrees>-16.6282982937991619110107421875</LongitudeDegrees>
            </Position>
            <AltitudeMeters>3298</AltitudeMeters>
            <DistanceMeters>8043.4490157901</DistanceMeters>
          </Trackpoint>
          <Trackpoint>
            <Time>2019-04-07T15:15:14.000Z</Time>
            <Position>
              <LatitudeDegrees>28.273797892034053802490234375</LatitudeDegrees>
              <LongitudeDegrees>-16.62830717861652374267578125</LongitudeDegrees>
            </Position>
            <AltitudeMeters>3298.39990234375</AltitudeMeters>
            <DistanceMeters>8044.5490295371</DistanceMeters>
          </Trackpoint>
          <Trackpoint>
            <Time>2019-04-07T15:15:22.000Z</Time>
            <Position>
              <LatitudeDegrees>28.27375824563205242156982421875</LatitudeDegrees>
              <LongitudeDegrees>-16.628320254385471343994140625</LongitudeDegrees>
            </Position>
            <AltitudeMeters>3298.800048828125</AltitudeMeters>
            <DistanceMeters>8049.1448263997</DistanceMeters>
          </Trackpoint>
          <Trackpoint>
            <Time>2019-04-07T15:15:27.000Z</Time>
            <Position>
              <LatitudeDegrees>28.27376780100166797637939453125</LatitudeDegrees>
              <LongitudeDegrees>-16.62834732793271541595458984375</LongitudeDegrees>
            </Position>
            <AltitudeMeters>3299.199951171875</AltitudeMeters>
            <DistanceMeters>8052.005114717</DistanceMeters>
          </Trackpoint>
          <Trackpoint>
            <Time>2019-04-07T15:15:29.000Z</Time>
            <Position>
              <LatitudeDegrees>28.2737799547612667083740234375</LatitudeDegrees>
              <LongitudeDegrees>-16.62835017777979373931884765625</LongitudeDegrees>
            </Position>
            <AltitudeMeters>3299.39990234375</AltitudeMeters>
            <DistanceMeters>8053.3887245631</DistanceMeters>
          </Trackpoint>
          <Trackpoint>
            <Time>2019-04-07T15:15:30.000Z</Time>
            <Position>
              <LatitudeDegrees>28.2737849839031696319580078125</LatitudeDegrees>
              <LongitudeDegrees>-16.62835939787328243255615234375</LongitudeDegrees>
            </Position>
            <AltitudeMeters>3299.60009765625</AltitudeMeters>
            <DistanceMeters>8054.4553967864</DistanceMeters>
          </Trackpoint>
          <Trackpoint>
            <Time>2019-04-07T15:15:34.000Z</Time>
            <Position>
              <LatitudeDegrees>28.273769058287143707275390625</LatitudeDegrees>
              <LongitudeDegrees>-16.62838160991668701171875</LongitudeDegrees>
            </Position>
            <AltitudeMeters>3300</AltitudeMeters>
            <DistanceMeters>8057.2647182012</DistanceMeters>
          </Trackpoint>
          <Trackpoint>
            <Time>2019-04-07T15:15:35.000Z</Time>
            <Position>
              <LatitudeDegrees>28.27376461587846279144287109375</LatitudeDegrees>
              <LongitudeDegrees>-16.62838387303054332733154296875</LongitudeDegrees>
            </Position>
            <AltitudeMeters>3300.199951171875</AltitudeMeters>
            <DistanceMeters>8057.8022704742</DistanceMeters>
          </Trackpoint>
          <Trackpoint>
            <Time>2019-04-07T15:15:44.000Z</Time>
            <Position>
              <LatitudeDegrees>28.27375791035592555999755859375</LatitudeDegrees>
              <LongitudeDegrees>-16.62838169373571872711181640625</LongitudeDegrees>
            </Position>
            <AltitudeMeters>3300.800048828125</AltitudeMeters>
            <DistanceMeters>8058.5800976541</DistanceMeters>
          </Trackpoint>
          <Trackpoint>
            <Time>2019-04-07T15:15:46.000Z</Time>
            <Position>
              <LatitudeDegrees>28.27375170774757862091064453125</LatitudeDegrees>
              <LongitudeDegrees>-16.6283878125250339508056640625</LongitudeDegrees>
            </Position>
            <AltitudeMeters>3301</AltitudeMeters>
            <DistanceMeters>8059.4965021005</DistanceMeters>
          </Trackpoint>
          <Trackpoint>
            <Time>2019-04-07T15:15:52.000Z</Time>
            <Position>
              <LatitudeDegrees>28.2737373746931552886962890625</LatitudeDegrees>
              <LongitudeDegrees>-16.62838957272469997406005859375</LongitudeDegrees>
            </Position>
            <AltitudeMeters>3301.60009765625</AltitudeMeters>
            <DistanceMeters>8061.0979207559</DistanceMeters>
          </Trackpoint>
          <Trackpoint>
            <Time>2019-04-07T15:15:55.000Z</Time>
            <Position>
              <LatitudeDegrees>28.27373192645609378814697265625</LatitudeDegrees>
              <LongitudeDegrees>-16.6283883154392242431640625</LongitudeDegrees>
            </Position>
            <AltitudeMeters>3301.800048828125</AltitudeMeters>
            <DistanceMeters>8061.7137642512</DistanceMeters>
          </Trackpoint>
          <Trackpoint>
            <Time>2019-04-07T15:16:05.000Z</Time>
            <Position>
              <LatitudeDegrees>28.27372907660901546478271484375</LatitudeDegrees>
              <LongitudeDegrees>-16.62838839925825595855712890625</LongitudeDegrees>
            </Position>
            <AltitudeMeters>3302.199951171875</AltitudeMeters>
            <DistanceMeters>8062.0289322078</DistanceMeters>
          </Trackpoint>
          <Trackpoint>
            <Time>2019-04-07T15:16:15.000Z</Time>
            <Position>
              <LatitudeDegrees>28.27370761893689632415771484375</LatitudeDegrees>
              <LongitudeDegrees>-16.62841455079615116119384765625</LongitudeDegrees>
            </Position>
            <AltitudeMeters>3302.800048828125</AltitudeMeters>
            <DistanceMeters>8065.5333442789</DistanceMeters>
          </Trackpoint>
          <Trackpoint>
            <Time>2019-04-07T15:16:16.000Z</Time>
            <Position>
              <LatitudeDegrees>28.27370175160467624664306640625</LatitudeDegrees>
              <LongitudeDegrees>-16.62841714918613433837890625</LongitudeDegrees>
            </Position>
            <AltitudeMeters>3303</AltitudeMeters>
            <DistanceMeters>8066.2316451653</DistanceMeters>
          </Trackpoint>
          <Trackpoint>
            <Time>2019-04-07T15:16:22.000Z</Time>
            <Position>
              <LatitudeDegrees>28.2736914418637752532958984375</LatitudeDegrees>
              <LongitudeDegrees>-16.6284438036382198333740234375</LongitudeDegrees>
            </Position>
            <AltitudeMeters>3304</AltitudeMeters>
            <DistanceMeters>8069.0840299353</DistanceMeters>
          </Trackpoint>
          <Trackpoint>
            <Time>2019-04-07T15:16:26.000Z</Time>
            <Position>
              <LatitudeDegrees>28.27369487844407558441162109375</LatitudeDegrees>
              <LongitudeDegrees>-16.62847473286092281341552734375</LongitudeDegrees>
            </Position>
            <AltitudeMeters>3304.39990234375</AltitudeMeters>
            <DistanceMeters>8072.1396966453</DistanceMeters>
          </Trackpoint>
          <Trackpoint>
            <Time>2019-04-07T15:16:29.000Z</Time>
            <Position>
              <LatitudeDegrees>28.273685909807682037353515625</LatitudeDegrees>
              <LongitudeDegrees>-16.6284870542585849761962890625</LongitudeDegrees>
            </Position>
            <AltitudeMeters>3304.60009765625</AltitudeMeters>
            <DistanceMeters>8073.7040337945</DistanceMeters>
          </Trackpoint>
          <Trackpoint>
            <Time>2019-04-07T15:16:30.000Z</Time>
            <Position>
              <LatitudeDegrees>28.27368264086544513702392578125</LatitudeDegrees>
              <LongitudeDegrees>-16.62848965264856815338134765625</LongitudeDegrees>
            </Position>
            <AltitudeMeters>3304.800048828125</AltitudeMeters>
            <DistanceMeters>8074.1497485932</DistanceMeters>
          </Trackpoint>
          <Trackpoint>
            <Time>2019-04-07T15:16:40.000Z</Time>
            <Position>
              <LatitudeDegrees>28.27367844991385936737060546875</LatitudeDegrees>
              <LongitudeDegrees>-16.6284902393817901611328125</LongitudeDegrees>
            </Position>
            <AltitudeMeters>3305.39990234375</AltitudeMeters>
            <DistanceMeters>8074.6054807055</DistanceMeters>
          </Trackpoint>
          <Trackpoint>
            <Time>2019-04-07T15:16:45.000Z</Time>
            <Position>
              <LatitudeDegrees>28.27367258258163928985595703125</LatitudeDegrees>
              <LongitudeDegrees>-16.62849501706659793853759765625</LongitudeDegrees>
            </Position>
            <AltitudeMeters>3305</AltitudeMeters>
            <DistanceMeters>8075.4005312392</DistanceMeters>
          </Trackpoint>
          <Trackpoint>
            <Time>2019-04-07T15:16:52.000Z</Time>
            <Position>
              <LatitudeDegrees>28.27366168610751628875732421875</LatitudeDegrees>
              <LongitudeDegrees>-16.628513373434543609619140625</LongitudeDegrees>
            </Position>
            <AltitudeMeters>3305.800048828125</AltitudeMeters>
            <DistanceMeters>8077.5674737282</DistanceMeters>
          </Trackpoint>
          <Trackpoint>
            <Time>2019-04-07T15:16:59.000Z</Time>
            <Position>
              <LatitudeDegrees>28.2736951299011707305908203125</LatitudeDegrees>
              <LongitudeDegrees>-16.62853340618312358856201171875</LongitudeDegrees>
            </Position>
            <AltitudeMeters>3306.60009765625</AltitudeMeters>
            <DistanceMeters>8081.7755587923</DistanceMeters>
          </Trackpoint>
          <Trackpoint>
            <Time>2019-04-07T15:17:01.000Z</Time>
            <Position>
              <LatitudeDegrees>28.27369965612888336181640625</LatitudeDegrees>
              <LongitudeDegrees>-16.62854078225791454315185546875</LongitudeDegrees>
            </Position>
            <AltitudeMeters>3306.800048828125</AltitudeMeters>
            <DistanceMeters>8082.6568002883</DistanceMeters>
          </Trackpoint>
          <Trackpoint>
            <Time>2019-04-07T15:17:07.000Z</Time>
            <Position>
              <LatitudeDegrees>28.27368901111185550689697265625</LatitudeDegrees>
              <LongitudeDegrees>-16.628562994301319122314453125</LongitudeDegrees>
            </Position>
            <AltitudeMeters>3307.800048828125</AltitudeMeters>
            <DistanceMeters>8085.1347938278</DistanceMeters>
          </Trackpoint>
          <Trackpoint>
            <Time>2019-04-07T15:17:17.000Z</Time>
            <Position>
              <LatitudeDegrees>28.27363603748381137847900390625</LatitudeDegrees>
              <LongitudeDegrees>-16.6285913251340389251708984375</LongitudeDegrees>
            </Position>
            <AltitudeMeters>3308.60009765625</AltitudeMeters>
            <DistanceMeters>8091.6522687677</DistanceMeters>
          </Trackpoint>
          <Trackpoint>
            <Time>2019-04-07T15:17:18.000Z</Time>
            <Position>
              <LatitudeDegrees>28.27363536693155765533447265625</LatitudeDegrees>
              <LongitudeDegrees>-16.62859777919948101043701171875</LongitudeDegrees>
            </Position>
            <AltitudeMeters>3308.800048828125</AltitudeMeters>
            <DistanceMeters>8092.282604681</DistanceMeters>
          </Trackpoint>
          <Trackpoint>
            <Time>2019-04-07T15:17:24.000Z</Time>
            <Position>
              <LatitudeDegrees>28.27366202138364315032958984375</LatitudeDegrees>
              <LongitudeDegrees>-16.62861563265323638916015625</LongitudeDegrees>
            </Position>
            <AltitudeMeters>3309.60009765625</AltitudeMeters>
            <DistanceMeters>8095.7272411563</DistanceMeters>
          </Trackpoint>
          <Trackpoint>
            <Time>2019-04-07T15:17:30.000Z</Time>
            <Position>
              <LatitudeDegrees>28.27369504608213901519775390625</LatitudeDegrees>
              <LongitudeDegrees>-16.62861973978579044342041015625</LongitudeDegrees>
            </Position>
            <AltitudeMeters>3310</AltitudeMeters>
            <DistanceMeters>8099.4259660464</DistanceMeters>
          </Trackpoint>
          <Trackpoint>
            <Time>2019-04-07T15:17:33.000Z</Time>
            <Position>
              <LatitudeDegrees>28.27370728366076946258544921875</LatitudeDegrees>
              <LongitudeDegrees>-16.6286201588809490203857421875</LongitudeDegrees>
            </Position>
            <AltitudeMeters>3310.199951171875</AltitudeMeters>
            <DistanceMeters>8100.7898559787</DistanceMeters>
          </Trackpoint>
          <Trackpoint>
            <Time>2019-04-07T15:17:40.000Z</Time>
            <Position>
              <LatitudeDegrees>28.27373452484607696533203125</LatitudeDegrees>
              <LongitudeDegrees>-16.62862409837543964385986328125</LongitudeDegrees>
            </Position>
            <AltitudeMeters>3310.800048828125</AltitudeMeters>
            <DistanceMeters>8103.8455226888</DistanceMeters>
          </Trackpoint>
          <Trackpoint>
            <Time>2019-04-07T15:17:42.000Z</Time>
            <Position>
              <LatitudeDegrees>28.27374164946377277374267578125</LatitudeDegrees>
              <LongitudeDegrees>-16.62862258963286876678466796875</LongitudeDegrees>
            </Position>
            <AltitudeMeters>3311</AltitudeMeters>
            <DistanceMeters>8104.6518510983</DistanceMeters>
          </Trackpoint>
          <Trackpoint>
            <Time>2019-04-07T15:17:47.000Z</Time>
            <Position>
              <LatitudeDegrees>28.27376344241201877593994140625</LatitudeDegrees>
              <LongitudeDegrees>-16.6286181472241878509521484375</LongitudeDegrees>
            </Position>
            <AltitudeMeters>3311.800048828125</AltitudeMeters>
            <DistanceMeters>8107.1170572655</DistanceMeters>
          </Trackpoint>
          <Trackpoint>
            <Time>2019-04-07T15:17:56.000Z</Time>
            <Position>
              <LatitudeDegrees>28.27377744019031524658203125</LatitudeDegrees>
              <LongitudeDegrees>-16.62861420772969722747802734375</LongitudeDegrees>
            </Position>
            <AltitudeMeters>3312.39990234375</AltitudeMeters>
            <DistanceMeters>8108.7212928425</DistanceMeters>
          </Trackpoint>
          <Trackpoint>
            <Time>2019-04-07T15:18:05.000Z</Time>
            <Position>
              <LatitudeDegrees>28.2737799547612667083740234375</LatitudeDegrees>
              <LongitudeDegrees>-16.62861370481550693511962890625</LongitudeDegrees>
            </Position>
            <AltitudeMeters>3312.800048828125</AltitudeMeters>
            <DistanceMeters>8109.0063729856</DistanceMeters>
          </Trackpoint>
          <Trackpoint>
            <Time>2019-04-07T15:18:10.000Z</Time>
            <Position>
              <LatitudeDegrees>28.27376268804073333740234375</LatitudeDegrees>
              <LongitudeDegrees>-16.62862946279346942901611328125</LongitudeDegrees>
            </Position>
            <AltitudeMeters>3313</AltitudeMeters>
            <DistanceMeters>8111.4734099783</DistanceMeters>
          </Trackpoint>
          <Trackpoint>
            <Time>2019-04-07T15:18:17.000Z</Time>
            <Position>
              <LatitudeDegrees>28.2737356983125209808349609375</LatitudeDegrees>
              <LongitudeDegrees>-16.6286630742251873016357421875</LongitudeDegrees>
            </Position>
            <AltitudeMeters>3313.60009765625</AltitudeMeters>
            <DistanceMeters>8115.9325834812</DistanceMeters>
          </Trackpoint>
          <Trackpoint>
            <Time>2019-04-07T15:18:20.000Z</Time>
            <Position>
              <LatitudeDegrees>28.2737313397228717803955078125</LatitudeDegrees>
              <LongitudeDegrees>-16.62868134677410125732421875</LongitudeDegrees>
            </Position>
            <AltitudeMeters>3314</AltitudeMeters>
            <DistanceMeters>8117.7898635359</DistanceMeters>
          </Trackpoint>
          <Trackpoint>
            <Time>2019-04-07T15:18:26.000Z</Time>
            <Position>
              <LatitudeDegrees>28.2737242989242076873779296875</LatitudeDegrees>
              <LongitudeDegrees>-16.62870925851166248321533203125</LongitudeDegrees>
            </Position>
            <AltitudeMeters>3314.60009765625</AltitudeMeters>
            <DistanceMeters>8120.6359096653</DistanceMeters>
          </Trackpoint>
          <Trackpoint>
            <Time>2019-04-07T15:18:29.000Z</Time>
            <Position>
              <LatitudeDegrees>28.27372387982904911041259765625</LatitudeDegrees>
              <LongitudeDegrees>-16.62870842032134532928466796875</LongitudeDegrees>
            </Position>
            <AltitudeMeters>3314.800048828125</AltitudeMeters>
            <DistanceMeters>8120.7309363796</DistanceMeters>
          </Trackpoint>
          <Trackpoint>
            <Time>2019-04-07T15:18:41.000Z</Time>
            <Position>
              <LatitudeDegrees>28.27371667139232158660888671875</LatitudeDegrees>
              <LongitudeDegrees>-16.6287264414131641387939453125</LongitudeDegrees>
            </Position>
            <AltitudeMeters>3314.199951171875</AltitudeMeters>
            <DistanceMeters>8122.6737621448</DistanceMeters>
          </Trackpoint>
          <Trackpoint>
            <Time>2019-04-07T15:18:46.000Z</Time>
            <Position>
              <LatitudeDegrees>28.27371583320200443267822265625</LatitudeDegrees>
              <LongitudeDegrees>-16.62872384302318096160888671875</LongitudeDegrees>
            </Position>
            <AltitudeMeters>3315.39990234375</AltitudeMeters>
            <DistanceMeters>8122.9425382812</DistanceMeters>
          </Trackpoint>
          <Trackpoint>
            <Time>2019-04-07T15:18:47.000Z</Time>
            <Position>
              <LatitudeDegrees>28.273714073002338409423828125</LatitudeDegrees>
              <LongitudeDegrees>-16.628722250461578369140625</LongitudeDegrees>
            </Position>
            <AltitudeMeters>3315.39990234375</AltitudeMeters>
            <DistanceMeters>8123.1550244743</DistanceMeters>
          </Trackpoint>
          <Trackpoint>
            <Time>2019-04-07T15:18:51.000Z</Time>
            <Position>
              <LatitudeDegrees>28.27371164225041866302490234375</LatitudeDegrees>
              <LongitudeDegrees>-16.6287209093570709228515625</LongitudeDegrees>
            </Position>
            <AltitudeMeters>3315.199951171875</AltitudeMeters>
            <DistanceMeters>8123.4555253302</DistanceMeters>
          </Trackpoint>
          <Trackpoint>
            <Time>2019-04-07T15:18:58.000Z</Time>
            <Position>
              <LatitudeDegrees>28.27370929531753063201904296875</LatitudeDegrees>
              <LongitudeDegrees>-16.62873105145990848541259765625</LongitudeDegrees>
            </Position>
            <AltitudeMeters>3315.199951171875</AltitudeMeters>
            <DistanceMeters>8124.4833964038</DistanceMeters>
          </Trackpoint>
          <Trackpoint>
            <Time>2019-04-07T15:19:06.000Z</Time>
            <Position>
              <LatitudeDegrees>28.27370711602270603179931640625</LatitudeDegrees>
              <LongitudeDegrees>-16.62873155437409877777099609375</LongitudeDegrees>
            </Position>
            <AltitudeMeters>3315.39990234375</AltitudeMeters>
            <DistanceMeters>8124.734813458</DistanceMeters>
          </Trackpoint>
          <Trackpoint>
            <Time>2019-04-07T15:19:08.000Z</Time>
            <Position>
              <LatitudeDegrees>28.27370711602270603179931640625</LatitudeDegrees>
              <LongitudeDegrees>-16.62873096764087677001953125</LongitudeDegrees>
            </Position>
            <AltitudeMeters>3315.199951171875</AltitudeMeters>
            <DistanceMeters>8124.734813458</DistanceMeters>
          </Trackpoint>
          <Trackpoint>
            <Time>2019-04-07T15:19:17.000Z</Time>
            <Position>
              <LatitudeDegrees>28.273693956434726715087890625</LatitudeDegrees>
              <LongitudeDegrees>-16.62875938229262828826904296875</LongitudeDegrees>
            </Position>
            <AltitudeMeters>3315.800048828125</AltitudeMeters>
            <DistanceMeters>8127.8807574789</DistanceMeters>
          </Trackpoint>
          <Trackpoint>
            <Time>2019-04-07T15:19:19.000Z</Time>
            <Position>
              <LatitudeDegrees>28.2736954651772975921630859375</LatitudeDegrees>
              <LongitudeDegrees>-16.628766171634197235107421875</LongitudeDegrees>
            </Position>
            <AltitudeMeters>3316.39990234375</AltitudeMeters>
            <DistanceMeters>8128.5593839583</DistanceMeters>
          </Trackpoint>
          <Trackpoint>
            <Time>2019-04-07T15:19:24.000Z</Time>
            <Position>
              <LatitudeDegrees>28.27372438274323940277099609375</LatitudeDegrees>
              <LongitudeDegrees>-16.62876307033002376556396484375</LongitudeDegrees>
            </Position>
            <AltitudeMeters>3316.800048828125</AltitudeMeters>
            <DistanceMeters>8131.7916893965</DistanceMeters>
          </Trackpoint>
          <Trackpoint>
            <Time>2019-04-07T15:19:27.000Z</Time>
            <Position>
              <LatitudeDegrees>28.27373963780701160430908203125</LatitudeDegrees>
              <LongitudeDegrees>-16.62876843474805355072021484375</LongitudeDegrees>
            </Position>
            <AltitudeMeters>3317.39990234375</AltitudeMeters>
            <DistanceMeters>8133.5694764353</DistanceMeters>
          </Trackpoint>
          <Trackpoint>
            <Time>2019-04-07T15:19:33.000Z</Time>
            <Position>
              <LatitudeDegrees>28.2737678848206996917724609375</LatitudeDegrees>
              <LongitudeDegrees>-16.628752090036869049072265625</LongitudeDegrees>
            </Position>
            <AltitudeMeters>3317.60009765625</AltitudeMeters>
            <DistanceMeters>8137.0970032374</DistanceMeters>
          </Trackpoint>
          <Trackpoint>
            <Time>2019-04-07T15:19:39.000Z</Time>
            <Position>
              <LatitudeDegrees>28.27379680238664150238037109375</LatitudeDegrees>
              <LongitudeDegrees>-16.6287462227046489715576171875</LongitudeDegrees>
            </Position>
            <AltitudeMeters>3318.39990234375</AltitudeMeters>
            <DistanceMeters>8140.3654249411</DistanceMeters>
          </Trackpoint>
          <Trackpoint>
            <Time>2019-04-07T15:19:41.000Z</Time>
            <Position>
              <LatitudeDegrees>28.273801244795322418212890625</LatitudeDegrees>
              <LongitudeDegrees>-16.628749072551727294921875</LongitudeDegrees>
            </Position>
            <AltitudeMeters>3319.39990234375</AltitudeMeters>
            <DistanceMeters>8140.9355852274</DistanceMeters>
          </Trackpoint>
          <Trackpoint>
            <Time>2019-04-07T15:19:42.000Z</Time>
            <Position>
              <LatitudeDegrees>28.27380183152854442596435546875</LatitudeDegrees>
              <LongitudeDegrees>-16.62874898873269557952880859375</LongitudeDegrees>
            </Position>
            <AltitudeMeters>3319.60009765625</AltitudeMeters>
            <DistanceMeters>8140.9355852274</DistanceMeters>
          </Trackpoint>
          <Trackpoint>
            <Time>2019-04-07T15:19:49.000Z</Time>
            <Position>
              <LatitudeDegrees>28.27379177324473857879638671875</LatitudeDegrees>
              <LongitudeDegrees>-16.62877346388995647430419921875</LongitudeDegrees>
            </Position>
            <AltitudeMeters>3319.800048828125</AltitudeMeters>
            <DistanceMeters>8143.5827231763</DistanceMeters>
          </Trackpoint>
          <Trackpoint>
            <Time>2019-04-07T15:19:56.000Z</Time>
            <Position>
              <LatitudeDegrees>28.273767717182636260986328125</LatitudeDegrees>
              <LongitudeDegrees>-16.628812439739704132080078125</LongitudeDegrees>
            </Position>
            <AltitudeMeters>3320.39990234375</AltitudeMeters>
            <DistanceMeters>8148.2477509607</DistanceMeters>
          </Trackpoint>
          <Trackpoint>
            <Time>2019-04-07T15:20:00.000Z</Time>
            <Position>
              <LatitudeDegrees>28.27376143075525760650634765625</LatitudeDegrees>
              <LongitudeDegrees>-16.62882945500314235687255859375</LongitudeDegrees>
            </Position>
            <AltitudeMeters>3321.199951171875</AltitudeMeters>
            <DistanceMeters>8150.0557575074</DistanceMeters>
          </Trackpoint>
          <Trackpoint>
            <Time>2019-04-07T15:20:02.000Z</Time>
            <Position>
              <LatitudeDegrees>28.27375757507979869842529296875</LatitudeDegrees>
              <LongitudeDegrees>-16.6288350708782672882080078125</LongitudeDegrees>
            </Position>
            <AltitudeMeters>3321.60009765625</AltitudeMeters>
            <DistanceMeters>8150.7475624304</DistanceMeters>
          </Trackpoint>
          <Trackpoint>
            <Time>2019-04-07T15:20:08.000Z</Time>
            <Position>
              <LatitudeDegrees>28.2737571559846401214599609375</LatitudeDegrees>
              <LongitudeDegrees>-16.6288468055427074432373046875</LongitudeDegrees>
            </Position>
            <AltitudeMeters>3321.800048828125</AltitudeMeters>
            <DistanceMeters>8151.9036123055</DistanceMeters>
          </Trackpoint>
          <Trackpoint>
            <Time>2019-04-07T15:20:16.000Z</Time>
            <Position>
              <LatitudeDegrees>28.27372605912387371063232421875</LatitudeDegrees>
              <LongitudeDegrees>-16.6288796626031398773193359375</LongitudeDegrees>
            </Position>
            <AltitudeMeters>3322.39990234375</AltitudeMeters>
            <DistanceMeters>8156.6320866129</DistanceMeters>
          </Trackpoint>
          <Trackpoint>
            <Time>2019-04-07T15:20:26.000Z</Time>
            <Position>
              <LatitudeDegrees>28.2737363688647747039794921875</LatitudeDegrees>
              <LongitudeDegrees>-16.62889734841883182525634765625</LongitudeDegrees>
            </Position>
            <AltitudeMeters>3323.199951171875</AltitudeMeters>
            <DistanceMeters>8158.7118478051</DistanceMeters>
          </Trackpoint>
          <Trackpoint>
            <Time>2019-04-07T15:20:32.000Z</Time>
            <Position>
              <LatitudeDegrees>28.27375740744173526763916015625</LatitudeDegrees>
              <LongitudeDegrees>-16.6289014555513858795166015625</LongitudeDegrees>
            </Position>
            <AltitudeMeters>3323.39990234375</AltitudeMeters>
            <DistanceMeters>8161.0875156643</DistanceMeters>
          </Trackpoint>
          <Trackpoint>
            <Time>2019-04-07T15:20:33.000Z</Time>
            <Position>
              <LatitudeDegrees>28.2737615145742893218994140625</LatitudeDegrees>
              <LongitudeDegrees>-16.6289021261036396026611328125</LongitudeDegrees>
            </Position>
            <AltitudeMeters>3323.60009765625</AltitudeMeters>
            <DistanceMeters>8161.5626492362</DistanceMeters>
          </Trackpoint>
          <Trackpoint>
            <Time>2019-04-07T15:20:43.000Z</Time>
            <Position>
              <LatitudeDegrees>28.2737781107425689697265625</LatitudeDegrees>
              <LongitudeDegrees>-16.628913693130016326904296875</LongitudeDegrees>
            </Position>
            <AltitudeMeters>3324.199951171875</AltitudeMeters>
            <DistanceMeters>8163.731674323</DistanceMeters>
          </Trackpoint>
          <Trackpoint>
            <Time>2019-04-07T15:20:56.000Z</Time>
            <Position>
              <LatitudeDegrees>28.27377735637128353118896484375</LatitudeDegrees>
              <LongitudeDegrees>-16.6289443708956241607666015625</LongitudeDegrees>
            </Position>
            <AltitudeMeters>3324.39990234375</AltitudeMeters>
            <DistanceMeters>8166.7396863903</DistanceMeters>
          </Trackpoint>
          <Trackpoint>
            <Time>2019-04-07T15:20:57.000Z</Time>
            <Position>
              <LatitudeDegrees>28.2737766019999980926513671875</LatitudeDegrees>
              <LongitudeDegrees>-16.6289515793323516845703125</LongitudeDegrees>
            </Position>
            <AltitudeMeters>3324.60009765625</AltitudeMeters>
            <DistanceMeters>8167.4508012058</DistanceMeters>
          </Trackpoint>
          <Trackpoint>
            <Time>2019-04-07T15:21:07.000Z</Time>
            <Position>
              <LatitudeDegrees>28.27377819456160068511962890625</LatitudeDegrees>
              <LongitudeDegrees>-16.6290017031133174896240234375</LongitudeDegrees>
            </Position>
            <AltitudeMeters>3325.199951171875</AltitudeMeters>
            <DistanceMeters>8172.3683762908</DistanceMeters>
          </Trackpoint>
          <Trackpoint>
            <Time>2019-04-07T15:21:10.000Z</Time>
            <Position>
              <LatitudeDegrees>28.2737866602838039398193359375</LatitudeDegrees>
              <LongitudeDegrees>-16.62900723516941070556640625</LongitudeDegrees>
            </Position>
            <AltitudeMeters>3325.39990234375</AltitudeMeters>
            <DistanceMeters>8173.4601501184</DistanceMeters>
          </Trackpoint>
          <Trackpoint>
            <Time>2019-04-07T15:21:15.000Z</Time>
            <Position>
              <LatitudeDegrees>28.27380317263305187225341796875</LatitudeDegrees>
              <LongitudeDegrees>-16.62899843417108058929443359375</LongitudeDegrees>
            </Position>
            <AltitudeMeters>3326.39990234375</AltitudeMeters>
            <DistanceMeters>8175.4893654491</DistanceMeters>
          </Trackpoint>
          <Trackpoint>
            <Time>2019-04-07T15:21:21.000Z</Time>
            <Position>
              <LatitudeDegrees>28.27382303774356842041015625</LatitudeDegrees>
              <LongitudeDegrees>-16.629015617072582244873046875</LongitudeDegrees>
            </Position>
            <AltitudeMeters>3327.39990234375</AltitudeMeters>
            <DistanceMeters>8178.2696074235</DistanceMeters>
          </Trackpoint>
          <Trackpoint>
            <Time>2019-04-07T15:21:34.000Z</Time>
            <Position>
              <LatitudeDegrees>28.273830078542232513427734375</LatitudeDegrees>
              <LongitudeDegrees>-16.62903866730630397796630859375</LongitudeDegrees>
            </Position>
            <AltitudeMeters>3327.800048828125</AltitudeMeters>
            <DistanceMeters>8180.6604312123</DistanceMeters>
          </Trackpoint>
          <Trackpoint>
            <Time>2019-04-07T15:21:39.000Z</Time>
            <Position>
              <LatitudeDegrees>28.273834101855754852294921875</LatitudeDegrees>
              <LongitudeDegrees>-16.6290459595620632171630859375</LongitudeDegrees>
            </Position>
            <AltitudeMeters>3328.199951171875</AltitudeMeters>
            <DistanceMeters>8181.5103759843</DistanceMeters>
          </Trackpoint>
          <Trackpoint>
            <Time>2019-04-07T15:21:45.000Z</Time>
            <Position>
              <LatitudeDegrees>28.27383510768413543701171875</LatitudeDegrees>
              <LongitudeDegrees>-16.6290452890098094940185546875</LongitudeDegrees>
            </Position>
            <AltitudeMeters>3328.199951171875</AltitudeMeters>
            <DistanceMeters>8181.6447640526</DistanceMeters>
          </Trackpoint>
          <Trackpoint>
            <Time>2019-04-07T15:21:52.000Z</Time>
            <Position>
              <LatitudeDegrees>28.2738352753221988677978515625</LatitudeDegrees>
              <LongitudeDegrees>-16.6290922276675701141357421875</LongitudeDegrees>
            </Position>
            <AltitudeMeters>3328.60009765625</AltitudeMeters>
            <DistanceMeters>8186.2464517062</DistanceMeters>
          </Trackpoint>
          <Trackpoint>
            <Time>2019-04-07T15:21:55.000Z</Time>
            <Position>
              <LatitudeDegrees>28.27383485622704029083251953125</LatitudeDegrees>
              <LongitudeDegrees>-16.62911544553935527801513671875</LongitudeDegrees>
            </Position>
            <AltitudeMeters>3329</AltitudeMeters>
            <DistanceMeters>8188.5231299616</DistanceMeters>
          </Trackpoint>
          <Trackpoint>
            <Time>2019-04-07T15:22:00.000Z</Time>
            <Position>
              <LatitudeDegrees>28.27383234165608882904052734375</LatitudeDegrees>
              <LongitudeDegrees>-16.629147045314311981201171875</LongitudeDegrees>
            </Position>
            <AltitudeMeters>3330</AltitudeMeters>
            <DistanceMeters>8191.6329871724</DistanceMeters>
          </Trackpoint>
          <Trackpoint>
            <Time>2019-04-07T15:22:01.000Z</Time>
            <Position>
              <LatitudeDegrees>28.2738325931131839752197265625</LatitudeDegrees>
              <LongitudeDegrees>-16.6291527450084686279296875</LongitudeDegrees>
            </Position>
            <AltitudeMeters>3330</AltitudeMeters>
            <DistanceMeters>8192.1951727961</DistanceMeters>
          </Trackpoint>
          <Trackpoint>
            <Time>2019-04-07T15:22:08.000Z</Time>
            <Position>
              <LatitudeDegrees>28.273846842348575592041015625</LatitudeDegrees>
              <LongitudeDegrees>-16.62919096648693084716796875</LongitudeDegrees>
            </Position>
            <AltitudeMeters>3331.39990234375</AltitudeMeters>
            <DistanceMeters>8196.2624937873</DistanceMeters>
          </Trackpoint>
          <Trackpoint>
            <Time>2019-04-07T15:22:11.000Z</Time>
            <Position>
              <LatitudeDegrees>28.273865282535552978515625</LatitudeDegrees>
              <LongitudeDegrees>-16.6291924752295017242431640625</LongitudeDegrees>
            </Position>
            <AltitudeMeters>3331.60009765625</AltitudeMeters>
            <DistanceMeters>8198.3182359345</DistanceMeters>
          </Trackpoint>
          <Trackpoint>
            <Time>2019-04-07T15:22:19.000Z</Time>
            <Position>
              <LatitudeDegrees>28.27389688231050968170166015625</LatitudeDegrees>
              <LongitudeDegrees>-16.62919105030596256256103515625</LongitudeDegrees>
            </Position>
            <AltitudeMeters>3332.39990234375</AltitudeMeters>
            <DistanceMeters>8201.8380746923</DistanceMeters>
          </Trackpoint>
          <Trackpoint>
            <Time>2019-04-07T15:22:20.000Z</Time>
            <Position>
              <LatitudeDegrees>28.27390107326209545135498046875</LatitudeDegrees>
              <LongitudeDegrees>-16.62918970920145511627197265625</LongitudeDegrees>
            </Position>
            <AltitudeMeters>3332.60009765625</AltitudeMeters>
            <DistanceMeters>8202.3226177632</DistanceMeters>
          </Trackpoint>
          <Trackpoint>
            <Time>2019-04-07T15:22:28.000Z</Time>
            <Position>
              <LatitudeDegrees>28.273925967514514923095703125</LatitudeDegrees>
              <LongitudeDegrees>-16.62918300367891788482666015625</LongitudeDegrees>
            </Position>
            <AltitudeMeters>3333.39990234375</AltitudeMeters>
            <DistanceMeters>8205.1702498755</DistanceMeters>
          </Trackpoint>
          <Trackpoint>
            <Time>2019-04-07T15:22:30.000Z</Time>
            <Position>
              <LatitudeDegrees>28.2739311642944812774658203125</LatitudeDegrees>
              <LongitudeDegrees>-16.629184596240520477294921875</LongitudeDegrees>
            </Position>
            <AltitudeMeters>3334</AltitudeMeters>
            <DistanceMeters>8205.7636915165</DistanceMeters>
          </Trackpoint>
          <Trackpoint>
            <Time>2019-04-07T15:22:34.000Z</Time>
            <Position>
              <LatitudeDegrees>28.27394910156726837158203125</LatitudeDegrees>
              <LongitudeDegrees>-16.6291760466992855072021484375</LongitudeDegrees>
            </Position>
            <AltitudeMeters>3334.39990234375</AltitudeMeters>
            <DistanceMeters>8207.9306340056</DistanceMeters>
          </Trackpoint>
          <Trackpoint>
            <Time>2019-04-07T15:22:38.000Z</Time>
            <Position>
              <LatitudeDegrees>28.27396846376359462738037109375</LatitudeDegrees>
              <LongitudeDegrees>-16.62916548550128936767578125</LongitudeDegrees>
            </Position>
            <AltitudeMeters>3335</AltitudeMeters>
            <DistanceMeters>8210.3214577943</DistanceMeters>
          </Trackpoint>
          <Trackpoint>
            <Time>2019-04-07T15:22:42.000Z</Time>
            <Position>
              <LatitudeDegrees>28.27397047542035579681396484375</LatitudeDegrees>
              <LongitudeDegrees>-16.62916188128292560577392578125</LongitudeDegrees>
            </Position>
            <AltitudeMeters>3335.39990234375</AltitudeMeters>
            <DistanceMeters>8210.7356696392</DistanceMeters>
          </Trackpoint>
          <Trackpoint>
            <Time>2019-04-07T15:22:46.000Z</Time>
            <Position>
              <LatitudeDegrees>28.27398153953254222869873046875</LatitudeDegrees>
              <LongitudeDegrees>-16.629176549613475799560546875</LongitudeDegrees>
            </Position>
            <AltitudeMeters>3335.60009765625</AltitudeMeters>
            <DistanceMeters>8212.6290635096</DistanceMeters>
          </Trackpoint>
          <Trackpoint>
            <Time>2019-04-07T15:22:51.000Z</Time>
            <Position>
              <LatitudeDegrees>28.273981623351573944091796875</LatitudeDegrees>
              <LongitudeDegrees>-16.62920328788459300994873046875</LongitudeDegrees>
            </Position>
            <AltitudeMeters>3336.199951171875</AltitudeMeters>
            <DistanceMeters>8215.2504921609</DistanceMeters>
          </Trackpoint>
          <Trackpoint>
            <Time>2019-04-07T15:22:55.000Z</Time>
            <Position>
              <LatitudeDegrees>28.2739814557135105133056640625</LatitudeDegrees>
              <LongitudeDegrees>-16.6292078979313373565673828125</LongitudeDegrees>
            </Position>
            <AltitudeMeters>3336.39990234375</AltitudeMeters>
            <DistanceMeters>8215.6962069595</DistanceMeters>
          </Trackpoint>
          <Trackpoint>
            <Time>2019-04-07T15:23:04.000Z</Time>
            <Position>
              <LatitudeDegrees>28.2739888317883014678955078125</LatitudeDegrees>
              <LongitudeDegrees>-16.629257015883922576904296875</LongitudeDegrees>
            </Position>
            <AltitudeMeters>3337.39990234375</AltitudeMeters>
            <DistanceMeters>8220.5796925885</DistanceMeters>
          </Trackpoint>
          <Trackpoint>
            <Time>2019-04-07T15:23:05.000Z</Time>
            <Position>
              <LatitudeDegrees>28.27398933470249176025390625</LatitudeDegrees>
              <LongitudeDegrees>-16.6292648948729038238525390625</LongitudeDegrees>
            </Position>
            <AltitudeMeters>3337.60009765625</AltitudeMeters>
            <DistanceMeters>8221.3516932655</DistanceMeters>
          </Trackpoint>
          <Trackpoint>
            <Time>2019-04-07T15:23:10.000Z</Time>
            <Position>
              <LatitudeDegrees>28.27399495057761669158935546875</LatitudeDegrees>
              <LongitudeDegrees>-16.62928224541246891021728515625</LongitudeDegrees>
            </Position>
            <AltitudeMeters>3338.39990234375</AltitudeMeters>
            <DistanceMeters>8223.1621953365</DistanceMeters>
          </Trackpoint>
          <Trackpoint>
            <Time>2019-04-07T15:23:15.000Z</Time>
            <Position>
              <LatitudeDegrees>28.27400098554790019989013671875</LatitudeDegrees>
              <LongitudeDegrees>-16.62928526289761066436767578125</LongitudeDegrees>
            </Position>
            <AltitudeMeters>3338.60009765625</AltitudeMeters>
            <DistanceMeters>8223.8921093796</DistanceMeters>
          </Trackpoint>
          <Trackpoint>
            <Time>2019-04-07T15:23:24.000Z</Time>
            <Position>
              <LatitudeDegrees>28.27401808463037014007568359375</LatitudeDegrees>
              <LongitudeDegrees>-16.6293418407440185546875</LongitudeDegrees>
            </Position>
            <AltitudeMeters>3339.199951171875</AltitudeMeters>
            <DistanceMeters>8229.7561123723</DistanceMeters>
          </Trackpoint>
          <Trackpoint>
            <Time>2019-04-07T15:23:25.000Z</Time>
            <Position>
              <LatitudeDegrees>28.27402043156325817108154296875</LatitudeDegrees>
              <LongitudeDegrees>-16.6293483786284923553466796875</LongitudeDegrees>
            </Position>
            <AltitudeMeters>3339.39990234375</AltitudeMeters>
            <DistanceMeters>8230.4544132587</DistanceMeters>
          </Trackpoint>
          <Trackpoint>
            <Time>2019-04-07T15:23:33.000Z</Time>
            <Position>
              <LatitudeDegrees>28.2740327529609203338623046875</LatitudeDegrees>
              <LongitudeDegrees>-16.62937830202281475067138671875</LongitudeDegrees>
            </Position>
            <AltitudeMeters>3340.39990234375</AltitudeMeters>
            <DistanceMeters>8233.6909065269</DistanceMeters>
          </Trackpoint>
          <Trackpoint>
            <Time>2019-04-07T15:23:34.000Z</Time>
            <Position>
              <LatitudeDegrees>28.2740342617034912109375</LatitudeDegrees>
              <LongitudeDegrees>-16.62938115186989307403564453125</LongitudeDegrees>
            </Position>
            <AltitudeMeters>3340.60009765625</AltitudeMeters>
            <DistanceMeters>8234.0200887216</DistanceMeters>
          </Trackpoint>
          <Trackpoint>
            <Time>2019-04-07T15:23:45.000Z</Time>
            <Position>
              <LatitudeDegrees>28.274032585322856903076171875</LatitudeDegrees>
              <LongitudeDegrees>-16.6293832473456859588623046875</LongitudeDegrees>
            </Position>
            <AltitudeMeters>3341.199951171875</AltitudeMeters>
            <DistanceMeters>8234.2888648581</DistanceMeters>
          </Trackpoint>
          <Trackpoint>
            <Time>2019-04-07T15:23:47.000Z</Time>
            <Position>
              <LatitudeDegrees>28.2740327529609203338623046875</LatitudeDegrees>
              <LongitudeDegrees>-16.62938383407890796661376953125</LongitudeDegrees>
            </Position>
            <AltitudeMeters>3341.39990234375</AltitudeMeters>
            <DistanceMeters>8234.2888648581</DistanceMeters>
          </Trackpoint>
          <Trackpoint>
            <Time>2019-04-07T15:23:56.000Z</Time>
            <Position>
              <LatitudeDegrees>28.27403116039931774139404296875</LatitudeDegrees>
              <LongitudeDegrees>-16.62938651628792285919189453125</LongitudeDegrees>
            </Position>
            <AltitudeMeters>3341.39990234375</AltitudeMeters>
            <DistanceMeters>8234.6180470528</DistanceMeters>
          </Trackpoint>
          <Trackpoint>
            <Time>2019-04-07T15:23:59.000Z</Time>
            <Position>
              <LatitudeDegrees>28.27403116039931774139404296875</LatitudeDegrees>
              <LongitudeDegrees>-16.62938819266855716705322265625</LongitudeDegrees>
            </Position>
            <AltitudeMeters>3341.60009765625</AltitudeMeters>
            <DistanceMeters>8234.7524351211</DistanceMeters>
          </Trackpoint>
          <Trackpoint>
            <Time>2019-04-08T05:03:06.000Z</Time>
            <Position>
              <LatitudeDegrees>28.27402596361935138702392578125</LatitudeDegrees>
              <LongitudeDegrees>-16.6293879412114620208740234375</LongitudeDegrees>
            </Position>
            <AltitudeMeters>3221.199951171875</AltitudeMeters>
            <DistanceMeters>8235.3225954073</DistanceMeters>
          </Trackpoint>
          <Trackpoint>
            <Time>2019-04-08T05:03:07.000Z</Time>
            <Position>
              <LatitudeDegrees>28.27402227558195590972900390625</LatitudeDegrees>
              <LongitudeDegrees>-16.62937335669994354248046875</LongitudeDegrees>
            </Position>
            <AltitudeMeters>3221</AltitudeMeters>
            <DistanceMeters>8236.8069601375</DistanceMeters>
          </Trackpoint>
          <Trackpoint>
            <Time>2019-04-08T05:03:08.000Z</Time>
            <Position>
              <LatitudeDegrees>28.27401741407811641693115234375</LatitudeDegrees>
              <LongitudeDegrees>-16.62935567088425159454345703125</LongitudeDegrees>
            </Position>
            <AltitudeMeters>3221</AltitudeMeters>
            <DistanceMeters>8238.6224429664</DistanceMeters>
          </Trackpoint>
          <Trackpoint>
            <Time>2019-04-08T05:03:09.000Z</Time>
            <Position>
              <LatitudeDegrees>28.27401489950716495513916015625</LatitudeDegrees>
              <LongitudeDegrees>-16.629346199333667755126953125</LongitudeDegrees>
            </Position>
            <AltitudeMeters>3220.800048828125</AltitudeMeters>
            <DistanceMeters>8239.5915291082</DistanceMeters>
          </Trackpoint>
          <Trackpoint>
            <Time>2019-04-08T05:03:10.000Z</Time>
            <Position>
              <LatitudeDegrees>28.2740129716694355010986328125</LatitudeDegrees>
              <LongitudeDegrees>-16.629340164363384246826171875</LongitudeDegrees>
            </Position>
            <AltitudeMeters>3221</AltitudeMeters>
            <DistanceMeters>8240.2218650215</DistanceMeters>
          </Trackpoint>
          <Trackpoint>
            <Time>2019-04-08T05:03:11.000Z</Time>
            <Position>
              <LatitudeDegrees>28.2740116305649280548095703125</LatitudeDegrees>
              <LongitudeDegrees>-16.62933438085019588470458984375</LongitudeDegrees>
            </Position>
            <AltitudeMeters>3221</AltitudeMeters>
            <DistanceMeters>8240.8076490302</DistanceMeters>
          </Trackpoint>
          <Trackpoint>
            <Time>2019-04-08T05:03:12.000Z</Time>
            <Position>
              <LatitudeDegrees>28.27401020564138889312744140625</LatitudeDegrees>
              <LongitudeDegrees>-16.6293322853744029998779296875</LongitudeDegrees>
            </Position>
            <AltitudeMeters>3221.199951171875</AltitudeMeters>
            <DistanceMeters>8241.0764251667</DistanceMeters>
          </Trackpoint>
          <Trackpoint>
            <Time>2019-04-08T05:03:13.000Z</Time>
            <Position>
              <LatitudeDegrees>28.27401087619364261627197265625</LatitudeDegrees>
              <LongitudeDegrees>-16.629331447184085845947265625</LongitudeDegrees>
            </Position>
            <AltitudeMeters>3221.199951171875</AltitudeMeters>
            <DistanceMeters>8241.171451881</DistanceMeters>
          </Trackpoint>
          <Trackpoint>
            <Time>2019-04-08T05:03:14.000Z</Time>
            <Position>
              <LatitudeDegrees>28.27401154674589633941650390625</LatitudeDegrees>
              <LongitudeDegrees>-16.6293332912027835845947265625</LongitudeDegrees>
            </Position>
            <AltitudeMeters>3221.199951171875</AltitudeMeters>
            <DistanceMeters>8241.3615053098</DistanceMeters>
          </Trackpoint>
          <Trackpoint>
            <Time>2019-04-08T05:03:15.000Z</Time>
            <Position>
              <LatitudeDegrees>28.27401213347911834716796875</LatitudeDegrees>
              <LongitudeDegrees>-16.62932641804218292236328125</LongitudeDegrees>
            </Position>
            <AltitudeMeters>3221.199951171875</AltitudeMeters>
            <DistanceMeters>8242.033445651</DistanceMeters>
          </Trackpoint>
          <Trackpoint>
            <Time>2019-04-08T05:03:16.000Z</Time>
            <Position>
              <LatitudeDegrees>28.2740116305649280548095703125</LatitudeDegrees>
              <LongitudeDegrees>-16.62931795231997966766357421875</LongitudeDegrees>
            </Position>
            <AltitudeMeters>3221.199951171875</AltitudeMeters>
            <DistanceMeters>8242.8673016855</DistanceMeters>
          </Trackpoint>
          <Trackpoint>
            <Time>2019-04-08T05:03:17.000Z</Time>
            <Position>
              <LatitudeDegrees>28.274012468755245208740234375</LatitudeDegrees>
              <LongitudeDegrees>-16.6293114982545375823974609375</LongitudeDegrees>
            </Position>
            <AltitudeMeters>3221.39990234375</AltitudeMeters>
            <DistanceMeters>8243.5047602645</DistanceMeters>
          </Trackpoint>
          <Trackpoint>
            <Time>2019-04-08T05:03:18.000Z</Time>
            <Position>
              <LatitudeDegrees>28.2740156538784503936767578125</LatitudeDegrees>
              <LongitudeDegrees>-16.62930957041680812835693359375</LongitudeDegrees>
            </Position>
            <AltitudeMeters>3221.199951171875</AltitudeMeters>
            <DistanceMeters>8243.8965654451</DistanceMeters>
          </Trackpoint>
          <Trackpoint>
            <Time>2019-04-08T05:03:19.000Z</Time>
            <Position>
              <LatitudeDegrees>28.27401657588779926300048828125</LatitudeDegrees>
              <LongitudeDegrees>-16.62930705584585666656494140625</LongitudeDegrees>
            </Position>
            <AltitudeMeters>3221.199951171875</AltitudeMeters>
            <DistanceMeters>8244.1653415816</DistanceMeters>
          </Trackpoint>
          <Trackpoint>
            <Time>2019-04-08T05:03:21.000Z</Time>
            <Position>
              <LatitudeDegrees>28.27401976101100444793701171875</LatitudeDegrees>
              <LongitudeDegrees>-16.6293014399707317352294921875</LongitudeDegrees>
            </Position>
            <AltitudeMeters>3221.199951171875</AltitudeMeters>
            <DistanceMeters>8244.8168119131</DistanceMeters>
          </Trackpoint>
          <Trackpoint>
            <Time>2019-04-08T05:03:23.000Z</Time>
            <Position>
              <LatitudeDegrees>28.2740223594009876251220703125</LatitudeDegrees>
              <LongitudeDegrees>-16.629297249019145965576171875</LongitudeDegrees>
            </Position>
            <AltitudeMeters>3220.800048828125</AltitudeMeters>
            <DistanceMeters>8245.3196460214</DistanceMeters>
          </Trackpoint>
          <Trackpoint>
            <Time>2019-04-08T05:03:24.000Z</Time>
            <Position>
              <LatitudeDegrees>28.27402361668646335601806640625</LatitudeDegrees>
              <LongitudeDegrees>-16.62929548881947994232177734375</LongitudeDegrees>
            </Position>
            <AltitudeMeters>3220.800048828125</AltitudeMeters>
            <DistanceMeters>8245.5321322144</DistanceMeters>
          </Trackpoint>
          <Trackpoint>
            <Time>2019-04-08T05:03:25.000Z</Time>
            <Position>
              <LatitudeDegrees>28.27402462251484394073486328125</LatitudeDegrees>
              <LongitudeDegrees>-16.62929431535303592681884765625</LongitudeDegrees>
            </Position>
            <AltitudeMeters>3221</AltitudeMeters>
            <DistanceMeters>8245.6967233118</DistanceMeters>
          </Trackpoint>
          <Trackpoint>
            <Time>2019-04-08T05:03:27.000Z</Time>
            <Position>
              <LatitudeDegrees>28.2740334235131740570068359375</LatitudeDegrees>
              <LongitudeDegrees>-16.6293057985603809356689453125</LongitudeDegrees>
            </Position>
            <AltitudeMeters>3221</AltitudeMeters>
            <DistanceMeters>8247.1871590887</DistanceMeters>
          </Trackpoint>
          <Trackpoint>
            <Time>2019-04-08T05:03:29.000Z</Time>
            <Position>
              <LatitudeDegrees>28.2740414701402187347412109375</LatitudeDegrees>
              <LongitudeDegrees>-16.6293094865977764129638671875</LongitudeDegrees>
            </Position>
            <AltitudeMeters>3221</AltitudeMeters>
            <DistanceMeters>8248.1515749087</DistanceMeters>
          </Trackpoint>
          <Trackpoint>
            <Time>2019-04-08T05:03:31.000Z</Time>
            <Position>
              <LatitudeDegrees>28.27404163777828216552734375</LatitudeDegrees>
              <LongitudeDegrees>-16.6293104924261569976806640625</LongitudeDegrees>
            </Position>
            <AltitudeMeters>3220.60009765625</AltitudeMeters>
            <DistanceMeters>8248.1515749087</DistanceMeters>
          </Trackpoint>
          <Trackpoint>
            <Time>2019-04-08T05:03:32.000Z</Time>
            <Position>
              <LatitudeDegrees>28.27404239214956760406494140625</LatitudeDegrees>
              <LongitudeDegrees>-16.629309318959712982177734375</LongitudeDegrees>
            </Position>
            <AltitudeMeters>3220.800048828125</AltitudeMeters>
            <DistanceMeters>8248.2859629769</DistanceMeters>
          </Trackpoint>
          <Trackpoint>
            <Time>2019-04-08T05:03:33.000Z</Time>
            <Position>
              <LatitudeDegrees>28.27404423616826534271240234375</LatitudeDegrees>
              <LongitudeDegrees>-16.6293051280081272125244140625</LongitudeDegrees>
            </Position>
            <AltitudeMeters>3220.800048828125</AltitudeMeters>
            <DistanceMeters>8248.7514969012</DistanceMeters>
          </Trackpoint>
          <Trackpoint>
            <Time>2019-04-08T05:03:35.000Z</Time>
            <Position>
              <LatitudeDegrees>28.2740481756627559661865234375</LatitudeDegrees>
              <LongitudeDegrees>-16.62930605001747608184814453125</LongitudeDegrees>
            </Position>
            <AltitudeMeters>3220.800048828125</AltitudeMeters>
            <DistanceMeters>8249.2072290135</DistanceMeters>
          </Trackpoint>
          <Trackpoint>
            <Time>2019-04-08T05:03:37.000Z</Time>
            <Position>
              <LatitudeDegrees>28.27404842711985111236572265625</LatitudeDegrees>
              <LongitudeDegrees>-16.62930923514068126678466796875</LongitudeDegrees>
            </Position>
            <AltitudeMeters>3221</AltitudeMeters>
            <DistanceMeters>8249.5223969701</DistanceMeters>
          </Trackpoint>
          <Trackpoint>
            <Time>2019-04-08T05:03:39.000Z</Time>
            <Position>
              <LatitudeDegrees>28.274043984711170196533203125</LatitudeDegrees>
              <LongitudeDegrees>-16.62931527011096477508544921875</LongitudeDegrees>
            </Position>
            <AltitudeMeters>3221.199951171875</AltitudeMeters>
            <DistanceMeters>8250.2943976472</DistanceMeters>
          </Trackpoint>
          <Trackpoint>
            <Time>2019-04-08T05:03:41.000Z</Time>
            <Position>
              <LatitudeDegrees>28.27404591254889965057373046875</LatitudeDegrees>
              <LongitudeDegrees>-16.62931728176772594451904296875</LongitudeDegrees>
            </Position>
            <AltitudeMeters>3221</AltitudeMeters>
            <DistanceMeters>8250.5948985031</DistanceMeters>
          </Trackpoint>
          <Trackpoint>
            <Time>2019-04-08T05:03:43.000Z</Time>
            <Position>
              <LatitudeDegrees>28.27404825948178768157958984375</LatitudeDegrees>
              <LongitudeDegrees>-16.62932348437607288360595703125</LongitudeDegrees>
            </Position>
            <AltitudeMeters>3221.199951171875</AltitudeMeters>
            <DistanceMeters>8251.2532628926</DistanceMeters>
          </Trackpoint>
          <Trackpoint>
            <Time>2019-04-08T05:03:45.000Z</Time>
            <Position>
              <LatitudeDegrees>28.274050690233707427978515625</LatitudeDegrees>
              <LongitudeDegrees>-16.629328094422817230224609375</LongitudeDegrees>
            </Position>
            <AltitudeMeters>3220.800048828125</AltitudeMeters>
            <DistanceMeters>8251.7737456428</DistanceMeters>
          </Trackpoint>
          <Trackpoint>
            <Time>2019-04-08T05:03:48.000Z</Time>
            <Position>
              <LatitudeDegrees>28.27405479736626148223876953125</LatitudeDegrees>
              <LongitudeDegrees>-16.629331447184085845947265625</LongitudeDegrees>
            </Position>
            <AltitudeMeters>3220.800048828125</AltitudeMeters>
            <DistanceMeters>8252.3359312666</DistanceMeters>
          </Trackpoint>
          <Trackpoint>
            <Time>2019-04-08T05:03:51.000Z</Time>
            <Position>
              <LatitudeDegrees>28.27405462972819805145263671875</LatitudeDegrees>
              <LongitudeDegrees>-16.629319377243518829345703125</LongitudeDegrees>
            </Position>
            <AltitudeMeters>3221.199951171875</AltitudeMeters>
            <DistanceMeters>8253.5190043196</DistanceMeters>
          </Trackpoint>
          <Trackpoint>
            <Time>2019-04-08T05:03:54.000Z</Time>
            <Position>
              <LatitudeDegrees>28.27405965887010097503662109375</LatitudeDegrees>
              <LongitudeDegrees>-16.62932784296572208404541015625</LongitudeDegrees>
            </Position>
            <AltitudeMeters>3221.39990234375</AltitudeMeters>
            <DistanceMeters>8254.5156529081</DistanceMeters>
          </Trackpoint>
          <Trackpoint>
            <Time>2019-04-08T05:03:55.000Z</Time>
            <Position>
              <LatitudeDegrees>28.27405496500432491302490234375</LatitudeDegrees>
              <LongitudeDegrees>-16.62932683713734149932861328125</LongitudeDegrees>
            </Position>
            <AltitudeMeters>3221.199951171875</AltitudeMeters>
            <DistanceMeters>8255.0447392618</DistanceMeters>
          </Trackpoint>
          <Trackpoint>
            <Time>2019-04-08T05:03:57.000Z</Time>
            <Position>
              <LatitudeDegrees>28.27404809184372425079345703125</LatitudeDegrees>
              <LongitudeDegrees>-16.62933672778308391571044921875</LongitudeDegrees>
            </Position>
            <AltitudeMeters>3221.39990234375</AltitudeMeters>
            <DistanceMeters>8256.2800865487</DistanceMeters>
          </Trackpoint>
          <Trackpoint>
            <Time>2019-04-08T05:04:01.000Z</Time>
            <Position>
              <LatitudeDegrees>28.27403518371284008026123046875</LatitudeDegrees>
              <LongitudeDegrees>-16.6293591074645519256591796875</LongitudeDegrees>
            </Position>
            <AltitudeMeters>3221.60009765625</AltitudeMeters>
            <DistanceMeters>8258.9032369924</DistanceMeters>
          </Trackpoint>
          <Trackpoint>
            <Time>2019-04-08T05:04:04.000Z</Time>
            <Position>
              <LatitudeDegrees>28.27403484843671321868896484375</LatitudeDegrees>
              <LongitudeDegrees>-16.62939825095236301422119140625</LongitudeDegrees>
            </Position>
            <AltitudeMeters>3221.39990234375</AltitudeMeters>
            <DistanceMeters>8262.7409517655</DistanceMeters>
          </Trackpoint>
          <Trackpoint>
            <Time>2019-04-08T05:04:10.000Z</Time>
            <Position>
              <LatitudeDegrees>28.27403753064572811126708984375</LatitudeDegrees>
              <LongitudeDegrees>-16.62944217212498188018798828125</LongitudeDegrees>
            </Position>
            <AltitudeMeters>3221.199951171875</AltitudeMeters>
            <DistanceMeters>8267.0560436101</DistanceMeters>
          </Trackpoint>
          <Trackpoint>
            <Time>2019-04-08T05:04:12.000Z</Time>
            <Position>
              <LatitudeDegrees>28.27403686009347438812255859375</LatitudeDegrees>
              <LongitudeDegrees>-16.62945927120745182037353515625</LongitudeDegrees>
            </Position>
            <AltitudeMeters>3221.199951171875</AltitudeMeters>
            <DistanceMeters>8268.7318579716</DistanceMeters>
          </Trackpoint>
          <Trackpoint>
            <Time>2019-04-08T05:04:14.000Z</Time>
            <Position>
              <LatitudeDegrees>28.2740384526550769805908203125</LatitudeDegrees>
              <LongitudeDegrees>-16.6294761188328266143798828125</LongitudeDegrees>
            </Position>
            <AltitudeMeters>3221.800048828125</AltitudeMeters>
            <DistanceMeters>8270.3914281917</DistanceMeters>
          </Trackpoint>
          <Trackpoint>
            <Time>2019-04-08T05:04:19.000Z</Time>
            <Position>
              <LatitudeDegrees>28.27404825948178768157958984375</LatitudeDegrees>
              <LongitudeDegrees>-16.62951140664517879486083984375</LongitudeDegrees>
            </Position>
            <AltitudeMeters>3222.199951171875</AltitudeMeters>
            <DistanceMeters>8274.018661487</DistanceMeters>
          </Trackpoint>
          <Trackpoint>
            <Time>2019-04-08T05:04:22.000Z</Time>
            <Position>
              <LatitudeDegrees>28.274060077965259552001953125</LatitudeDegrees>
              <LongitudeDegrees>-16.629516519606113433837890625</LongitudeDegrees>
            </Position>
            <AltitudeMeters>3223.39990234375</AltitudeMeters>
            <DistanceMeters>8275.4281354377</DistanceMeters>
          </Trackpoint>
          <Trackpoint>
            <Time>2019-04-08T05:04:32.000Z</Time>
            <Position>
              <LatitudeDegrees>28.2740934379398822784423828125</LatitudeDegrees>
              <LongitudeDegrees>-16.6295693255960941314697265625</LongitudeDegrees>
            </Position>
            <AltitudeMeters>3223.199951171875</AltitudeMeters>
            <DistanceMeters>8281.7984700866</DistanceMeters>
          </Trackpoint>
          <Trackpoint>
            <Time>2019-04-08T05:04:36.000Z</Time>
            <Position>
              <LatitudeDegrees>28.2741028256714344024658203125</LatitudeDegrees>
              <LongitudeDegrees>-16.6296021826565265655517578125</LongitudeDegrees>
            </Position>
            <AltitudeMeters>3223.39990234375</AltitudeMeters>
            <DistanceMeters>8285.1849427476</DistanceMeters>
          </Trackpoint>
          <Trackpoint>
            <Time>2019-04-08T05:04:43.000Z</Time>
            <Position>
              <LatitudeDegrees>28.2741160690784454345703125</LatitudeDegrees>
              <LongitudeDegrees>-16.629655994474887847900390625</LongitudeDegrees>
            </Position>
            <AltitudeMeters>3224.39990234375</AltitudeMeters>
            <DistanceMeters>8290.6628021857</DistanceMeters>
          </Trackpoint>
          <Trackpoint>
            <Time>2019-04-08T05:04:48.000Z</Time>
            <Position>
              <LatitudeDegrees>28.27412369661033153533935546875</LatitudeDegrees>
              <LongitudeDegrees>-16.62966714240610599517822265625</LongitudeDegrees>
            </Position>
            <AltitudeMeters>3226.199951171875</AltitudeMeters>
            <DistanceMeters>8292.0464120318</DistanceMeters>
          </Trackpoint>
          <Trackpoint>
            <Time>2019-04-08T05:04:51.000Z</Time>
            <Position>
              <LatitudeDegrees>28.27412202022969722747802734375</LatitudeDegrees>
              <LongitudeDegrees>-16.6296699084341526031494140625</LongitudeDegrees>
            </Position>
            <AltitudeMeters>3225.800048828125</AltitudeMeters>
            <DistanceMeters>8292.3755942265</DistanceMeters>
          </Trackpoint>
          <Trackpoint>
            <Time>2019-04-08T05:05:03.000Z</Time>
            <Position>
              <LatitudeDegrees>28.27410592697560787200927734375</LatitudeDegrees>
              <LongitudeDegrees>-16.62966848351061344146728515625</LongitudeDegrees>
            </Position>
            <AltitudeMeters>3225.39990234375</AltitudeMeters>
            <DistanceMeters>8294.1685546873</DistanceMeters>
          </Trackpoint>
          <Trackpoint>
            <Time>2019-04-08T05:05:05.000Z</Time>
            <Position>
              <LatitudeDegrees>28.274105004966259002685546875</LatitudeDegrees>
              <LongitudeDegrees>-16.62967334501445293426513671875</LongitudeDegrees>
            </Position>
            <AltitudeMeters>3225</AltitudeMeters>
            <DistanceMeters>8294.6530977582</DistanceMeters>
          </Trackpoint>
          <Trackpoint>
            <Time>2019-04-08T05:05:12.000Z</Time>
            <Position>
              <LatitudeDegrees>28.274106346070766448974609375</LatitudeDegrees>
              <LongitudeDegrees>-16.62968625314533710479736328125</LongitudeDegrees>
            </Position>
            <AltitudeMeters>3225</AltitudeMeters>
            <DistanceMeters>8295.9280149163</DistanceMeters>
          </Trackpoint>
          <Trackpoint>
            <Time>2019-04-08T05:05:20.000Z</Time>
            <Position>
              <LatitudeDegrees>28.27412822283804416656494140625</LatitudeDegrees>
              <LongitudeDegrees>-16.62972631864249706268310546875</LongitudeDegrees>
            </Position>
            <AltitudeMeters>3226</AltitudeMeters>
            <DistanceMeters>8300.548307192</DistanceMeters>
          </Trackpoint>
          <Trackpoint>
            <Time>2019-04-08T05:05:21.000Z</Time>
            <Position>
              <LatitudeDegrees>28.2741336710751056671142578125</LatitudeDegrees>
              <LongitudeDegrees>-16.62973151542246341705322265625</LongitudeDegrees>
            </Position>
            <AltitudeMeters>3226.199951171875</AltitudeMeters>
            <DistanceMeters>8301.3433577257</DistanceMeters>
          </Trackpoint>
          <Trackpoint>
            <Time>2019-04-08T05:05:30.000Z</Time>
            <Position>
              <LatitudeDegrees>28.2741896621882915496826171875</LatitudeDegrees>
              <LongitudeDegrees>-16.62976135499775409698486328125</LongitudeDegrees>
            </Position>
            <AltitudeMeters>3226.800048828125</AltitudeMeters>
            <DistanceMeters>8308.2286973201</DistanceMeters>
          </Trackpoint>
          <Trackpoint>
            <Time>2019-04-08T05:05:33.000Z</Time>
            <Position>
              <LatitudeDegrees>28.27418790198862552642822265625</LatitudeDegrees>
              <LongitudeDegrees>-16.62978197447955608367919921875</LongitudeDegrees>
            </Position>
            <AltitudeMeters>3227.39990234375</AltitudeMeters>
            <DistanceMeters>8310.2579126508</DistanceMeters>
          </Trackpoint>
          <Trackpoint>
            <Time>2019-04-08T05:05:36.000Z</Time>
            <Position>
              <LatitudeDegrees>28.27417365275323390960693359375</LatitudeDegrees>
              <LongitudeDegrees>-16.629790775477886199951171875</LongitudeDegrees>
            </Position>
            <AltitudeMeters>3228.199951171875</AltitudeMeters>
            <DistanceMeters>8312.0609177867</DistanceMeters>
          </Trackpoint>
          <Trackpoint>
            <Time>2019-04-08T05:05:41.000Z</Time>
            <Position>
              <LatitudeDegrees>28.2741534523665904998779296875</LatitudeDegrees>
              <LongitudeDegrees>-16.62980980239808559417724609375</LongitudeDegrees>
            </Position>
            <AltitudeMeters>3228.60009765625</AltitudeMeters>
            <DistanceMeters>8314.9805739587</DistanceMeters>
          </Trackpoint>
          <Trackpoint>
            <Time>2019-04-08T05:05:45.000Z</Time>
            <Position>
              <LatitudeDegrees>28.27415538020431995391845703125</LatitudeDegrees>
              <LongitudeDegrees>-16.6298264823853969573974609375</LongitudeDegrees>
            </Position>
            <AltitudeMeters>3229.39990234375</AltitudeMeters>
            <DistanceMeters>8316.6264849324</DistanceMeters>
          </Trackpoint>
          <Trackpoint>
            <Time>2019-04-08T05:05:47.000Z</Time>
            <Position>
              <LatitudeDegrees>28.2741601578891277313232421875</LatitudeDegrees>
              <LongitudeDegrees>-16.6298338584601879119873046875</LongitudeDegrees>
            </Position>
            <AltitudeMeters>3229.60009765625</AltitudeMeters>
            <DistanceMeters>8317.5229651628</DistanceMeters>
          </Trackpoint>
          <Trackpoint>
            <Time>2019-04-08T05:05:51.000Z</Time>
            <Position>
              <LatitudeDegrees>28.274172730743885040283203125</LatitudeDegrees>
              <LongitudeDegrees>-16.62984701804816722869873046875</LongitudeDegrees>
            </Position>
            <AltitudeMeters>3230.800048828125</AltitudeMeters>
            <DistanceMeters>8319.4282448616</DistanceMeters>
          </Trackpoint>
          <Trackpoint>
            <Time>2019-04-08T05:05:54.000Z</Time>
            <Position>
              <LatitudeDegrees>28.27418379485607147216796875</LatitudeDegrees>
              <LongitudeDegrees>-16.6298579983413219451904296875</LongitudeDegrees>
            </Position>
            <AltitudeMeters>3231.199951171875</AltitudeMeters>
            <DistanceMeters>8321.0603822795</DistanceMeters>
          </Trackpoint>
          <Trackpoint>
            <Time>2019-04-08T05:06:01.000Z</Time>
            <Position>
              <LatitudeDegrees>28.2742037437856197357177734375</LatitudeDegrees>
              <LongitudeDegrees>-16.62988808937370777130126953125</LongitudeDegrees>
            </Position>
            <AltitudeMeters>3232</AltitudeMeters>
            <DistanceMeters>8324.7505523673</DistanceMeters>
          </Trackpoint>
          <Trackpoint>
            <Time>2019-04-08T05:06:03.000Z</Time>
            <Position>
              <LatitudeDegrees>28.27420265413820743560791015625</LatitudeDegrees>
              <LongitudeDegrees>-16.6298982314765453338623046875</LongitudeDegrees>
            </Position>
            <AltitudeMeters>3232.199951171875</AltitudeMeters>
            <DistanceMeters>8325.7517209272</DistanceMeters>
          </Trackpoint>
          <Trackpoint>
            <Time>2019-04-08T05:06:11.000Z</Time>
            <Position>
              <LatitudeDegrees>28.27421732246875762939453125</LatitudeDegrees>
              <LongitudeDegrees>-16.62992966361343860626220703125</LongitudeDegrees>
            </Position>
            <AltitudeMeters>3233</AltitudeMeters>
            <DistanceMeters>8329.2380489229</DistanceMeters>
          </Trackpoint>
          <Trackpoint>
            <Time>2019-04-08T05:06:18.000Z</Time>
            <Position>
              <LatitudeDegrees>28.274223022162914276123046875</LatitudeDegrees>
              <LongitudeDegrees>-16.62996612489223480224609375</LongitudeDegrees>
            </Position>
            <AltitudeMeters>3234</AltitudeMeters>
            <DistanceMeters>8332.8702578493</DistanceMeters>
          </Trackpoint>
          <Trackpoint>
            <Time>2019-04-08T05:06:19.000Z</Time>
            <Position>
              <LatitudeDegrees>28.27422578819096088409423828125</LatitudeDegrees>
              <LongitudeDegrees>-16.62997157312929630279541015625</LongitudeDegrees>
            </Position>
            <AltitudeMeters>3234.199951171875</AltitudeMeters>
            <DistanceMeters>8333.4861013445</DistanceMeters>
          </Trackpoint>
          <Trackpoint>
            <Time>2019-04-08T05:06:28.000Z</Time>
            <Position>
              <LatitudeDegrees>28.27425864525139331817626953125</LatitudeDegrees>
              <LongitudeDegrees>-16.62999303080141544342041015625</LongitudeDegrees>
            </Position>
            <AltitudeMeters>3235.199951171875</AltitudeMeters>
            <DistanceMeters>8337.7049022015</DistanceMeters>
          </Trackpoint>
          <Trackpoint>
            <Time>2019-04-08T05:06:32.000Z</Time>
            <Position>
              <LatitudeDegrees>28.274284712970256805419921875</LatitudeDegrees>
              <LongitudeDegrees>-16.62998833693563938140869140625</LongitudeDegrees>
            </Position>
            <AltitudeMeters>3236.199951171875</AltitudeMeters>
            <DistanceMeters>8340.6415198143</DistanceMeters>
          </Trackpoint>
          <Trackpoint>
            <Time>2019-04-08T05:06:33.000Z</Time>
            <Position>
              <LatitudeDegrees>28.27429242432117462158203125</LatitudeDegrees>
              <LongitudeDegrees>-16.62999093532562255859375</LongitudeDegrees>
            </Position>
            <AltitudeMeters>3236.39990234375</AltitudeMeters>
            <DistanceMeters>8341.5329494117</DistanceMeters>
          </Trackpoint>
          <Trackpoint>
            <Time>2019-04-08T05:06:39.000Z</Time>
            <Position>
              <LatitudeDegrees>28.27431530691683292388916015625</LatitudeDegrees>
              <LongitudeDegrees>-16.630036868155002593994140625</LongitudeDegrees>
            </Position>
            <AltitudeMeters>3236.800048828125</AltitudeMeters>
            <DistanceMeters>8346.705580899</DistanceMeters>
          </Trackpoint>
          <Trackpoint>
            <Time>2019-04-08T05:06:43.000Z</Time>
            <Position>
              <LatitudeDegrees>28.27430524863302707672119140625</LatitudeDegrees>
              <LongitudeDegrees>-16.63007148541510105133056640625</LongitudeDegrees>
            </Position>
            <AltitudeMeters>3237.39990234375</AltitudeMeters>
            <DistanceMeters>8350.2788886232</DistanceMeters>
          </Trackpoint>
          <Trackpoint>
            <Time>2019-04-08T05:06:46.000Z</Time>
            <Position>
              <LatitudeDegrees>28.27429804019629955291748046875</LatitudeDegrees>
              <LongitudeDegrees>-16.63008137606084346771240234375</LongitudeDegrees>
            </Position>
            <AltitudeMeters>3237.800048828125</AltitudeMeters>
            <DistanceMeters>8351.5395604497</DistanceMeters>
          </Trackpoint>
          <Trackpoint>
            <Time>2019-04-08T05:06:53.000Z</Time>
            <Position>
              <LatitudeDegrees>28.27429183758795261383056640625</LatitudeDegrees>
              <LongitudeDegrees>-16.63011155091226100921630859375</LongitudeDegrees>
            </Position>
            <AltitudeMeters>3238.60009765625</AltitudeMeters>
            <DistanceMeters>8354.5774442733</DistanceMeters>
          </Trackpoint>
          <Trackpoint>
            <Time>2019-04-08T05:06:55.000Z</Time>
            <Position>
              <LatitudeDegrees>28.27429921366274356842041015625</LatitudeDegrees>
              <LongitudeDegrees>-16.63011440075933933258056640625</LongitudeDegrees>
            </Position>
            <AltitudeMeters>3239</AltitudeMeters>
            <DistanceMeters>8355.4483784966</DistanceMeters>
          </Trackpoint>
          <Trackpoint>
            <Time>2019-04-08T05:07:01.000Z</Time>
            <Position>
              <LatitudeDegrees>28.27431765384972095489501953125</LatitudeDegrees>
              <LongitudeDegrees>-16.63014658726751804351806640625</LongitudeDegrees>
            </Position>
            <AltitudeMeters>3239.60009765625</AltitudeMeters>
            <DistanceMeters>8359.2112444076</DistanceMeters>
          </Trackpoint>
          <Trackpoint>
            <Time>2019-04-08T05:07:03.000Z</Time>
            <Position>
              <LatitudeDegrees>28.2743049971759319305419921875</LatitudeDegrees>
              <LongitudeDegrees>-16.6301567293703556060791015625</LongitudeDegrees>
            </Position>
            <AltitudeMeters>3239.800048828125</AltitudeMeters>
            <DistanceMeters>8360.9348728914</DistanceMeters>
          </Trackpoint>
          <Trackpoint>
            <Time>2019-04-08T05:07:12.000Z</Time>
            <Position>
              <LatitudeDegrees>28.2742577232420444488525390625</LatitudeDegrees>
              <LongitudeDegrees>-16.63016469217836856842041015625</LongitudeDegrees>
            </Position>
            <AltitudeMeters>3240.800048828125</AltitudeMeters>
            <DistanceMeters>8366.2538229286</DistanceMeters>
          </Trackpoint>
          <Trackpoint>
            <Time>2019-04-08T05:07:18.000Z</Time>
            <Position>
              <LatitudeDegrees>28.27423500828444957733154296875</LatitudeDegrees>
              <LongitudeDegrees>-16.63017625920474529266357421875</LongitudeDegrees>
            </Position>
            <AltitudeMeters>3242</AltitudeMeters>
            <DistanceMeters>8369.0243039297</DistanceMeters>
          </Trackpoint>
          <Trackpoint>
            <Time>2019-04-08T05:07:20.000Z</Time>
            <Position>
              <LatitudeDegrees>28.274231068789958953857421875</LatitudeDegrees>
              <LongitudeDegrees>-16.630187742412090301513671875</LongitudeDegrees>
            </Position>
            <AltitudeMeters>3242</AltitudeMeters>
            <DistanceMeters>8370.233796544</DistanceMeters>
          </Trackpoint>
          <Trackpoint>
            <Time>2019-04-08T05:07:28.000Z</Time>
            <Position>
              <LatitudeDegrees>28.27422075904905796051025390625</LatitudeDegrees>
              <LongitudeDegrees>-16.630206517875194549560546875</LongitudeDegrees>
            </Position>
            <AltitudeMeters>3243</AltitudeMeters>
            <DistanceMeters>8372.4028216308</DistanceMeters>
          </Trackpoint>
          <Trackpoint>
            <Time>2019-04-08T05:07:29.000Z</Time>
            <Position>
              <LatitudeDegrees>28.27421572990715503692626953125</LatitudeDegrees>
              <LongitudeDegrees>-16.63020878098905086517333984375</LongitudeDegrees>
            </Position>
            <AltitudeMeters>3243</AltitudeMeters>
            <DistanceMeters>8373.0038233427</DistanceMeters>
          </Trackpoint>
          <Trackpoint>
            <Time>2019-04-08T05:07:38.000Z</Time>
            <Position>
              <LatitudeDegrees>28.2741832919418811798095703125</LatitudeDegrees>
              <LongitudeDegrees>-16.6302170790731906890869140625</LongitudeDegrees>
            </Position>
            <AltitudeMeters>3244</AltitudeMeters>
            <DistanceMeters>8376.7037687327</DistanceMeters>
          </Trackpoint>
          <Trackpoint>
            <Time>2019-04-08T05:07:39.000Z</Time>
            <Position>
              <LatitudeDegrees>28.27417717315256595611572265625</LatitudeDegrees>
              <LongitudeDegrees>-16.6302177496254444122314453125</LongitudeDegrees>
            </Position>
            <AltitudeMeters>3244</AltitudeMeters>
            <DistanceMeters>8377.4020696192</DistanceMeters>
          </Trackpoint>
          <Trackpoint>
            <Time>2019-04-08T05:07:43.000Z</Time>
            <Position>
              <LatitudeDegrees>28.2741534523665904998779296875</LatitudeDegrees>
              <LongitudeDegrees>-16.630217917263507843017578125</LongitudeDegrees>
            </Position>
            <AltitudeMeters>3245.199951171875</AltitudeMeters>
            <DistanceMeters>8380.0423762329</DistanceMeters>
          </Trackpoint>
          <Trackpoint>
            <Time>2019-04-08T05:07:48.000Z</Time>
            <Position>
              <LatitudeDegrees>28.27414096333086490631103515625</LatitudeDegrees>
              <LongitudeDegrees>-16.63020961917936801910400390625</LongitudeDegrees>
            </Position>
            <AltitudeMeters>3245.60009765625</AltitudeMeters>
            <DistanceMeters>8381.6522308659</DistanceMeters>
          </Trackpoint>
          <Trackpoint>
            <Time>2019-04-08T05:07:59.000Z</Time>
            <Position>
              <LatitudeDegrees>28.2741511054337024688720703125</LatitudeDegrees>
              <LongitudeDegrees>-16.63023426197469234466552734375</LongitudeDegrees>
            </Position>
            <AltitudeMeters>3245.800048828125</AltitudeMeters>
            <DistanceMeters>8384.3180647245</DistanceMeters>
          </Trackpoint>
          <Trackpoint>
            <Time>2019-04-08T05:08:02.000Z</Time>
            <Position>
              <LatitudeDegrees>28.2741571404039859771728515625</LatitudeDegrees>
              <LongitudeDegrees>-16.6302390396595001220703125</LongitudeDegrees>
            </Position>
            <AltitudeMeters>3246.199951171875</AltitudeMeters>
            <DistanceMeters>8385.1355154306</DistanceMeters>
          </Trackpoint>
          <Trackpoint>
            <Time>2019-04-08T05:08:13.000Z</Time>
            <Position>
              <LatitudeDegrees>28.274157978594303131103515625</LatitudeDegrees>
              <LongitudeDegrees>-16.63024767301976680755615234375</LongitudeDegrees>
            </Position>
            <AltitudeMeters>3247</AltitudeMeters>
            <DistanceMeters>8385.9854602026</DistanceMeters>
          </Trackpoint>
          <Trackpoint>
            <Time>2019-04-08T05:08:33.000Z</Time>
            <Position>
              <LatitudeDegrees>28.27415286563336849212646484375</LatitudeDegrees>
              <LongitudeDegrees>-16.6302645206451416015625</LongitudeDegrees>
            </Position>
            <AltitudeMeters>3246.60009765625</AltitudeMeters>
            <DistanceMeters>8387.7325050898</DistanceMeters>
          </Trackpoint>
          <Trackpoint>
            <Time>2019-04-08T05:08:35.000Z</Time>
            <Position>
              <LatitudeDegrees>28.2741507701575756072998046875</LatitudeDegrees>
              <LongitudeDegrees>-16.63026963360607624053955078125</LongitudeDegrees>
            </Position>
            <AltitudeMeters>3247.199951171875</AltitudeMeters>
            <DistanceMeters>8388.2866012901</DistanceMeters>
          </Trackpoint>
          <Trackpoint>
            <Time>2019-04-08T05:08:40.000Z</Time>
            <Position>
              <LatitudeDegrees>28.27414247207343578338623046875</LatitudeDegrees>
              <LongitudeDegrees>-16.63026921451091766357421875</LongitudeDegrees>
            </Position>
            <AltitudeMeters>3247.800048828125</AltitudeMeters>
            <DistanceMeters>8389.2079194684</DistanceMeters>
          </Trackpoint>
          <Trackpoint>
            <Time>2019-04-08T05:08:53.000Z</Time>
            <Position>
              <LatitudeDegrees>28.2741008140146732330322265625</LatitudeDegrees>
              <LongitudeDegrees>-16.63029897026717662811279296875</LongitudeDegrees>
            </Position>
            <AltitudeMeters>3247.60009765625</AltitudeMeters>
            <DistanceMeters>8394.6857789065</DistanceMeters>
          </Trackpoint>
          <Trackpoint>
            <Time>2019-04-08T05:09:05.000Z</Time>
            <Position>
              <LatitudeDegrees>28.274091593921184539794921875</LatitudeDegrees>
              <LongitudeDegrees>-16.6303002275526523590087890625</LongitudeDegrees>
            </Position>
            <AltitudeMeters>3247</AltitudeMeters>
            <DistanceMeters>8395.7180332455</DistanceMeters>
          </Trackpoint>
          <Trackpoint>
            <Time>2019-04-08T05:09:17.000Z</Time>
            <Position>
              <LatitudeDegrees>28.27409536577761173248291015625</LatitudeDegrees>
              <LongitudeDegrees>-16.630299054086208343505859375</LongitudeDegrees>
            </Position>
            <AltitudeMeters>3247.39990234375</AltitudeMeters>
            <DistanceMeters>8396.1637480442</DistanceMeters>
          </Trackpoint>
          <Trackpoint>
            <Time>2019-04-08T05:09:30.000Z</Time>
            <Position>
              <LatitudeDegrees>28.274104334414005279541015625</LatitudeDegrees>
              <LongitudeDegrees>-16.63032059557735919952392578125</LongitudeDegrees>
            </Position>
            <AltitudeMeters>3248</AltitudeMeters>
            <DistanceMeters>8398.5010961673</DistanceMeters>
          </Trackpoint>
          <Trackpoint>
            <Time>2019-04-08T05:09:31.000Z</Time>
            <Position>
              <LatitudeDegrees>28.274107016623020172119140625</LatitudeDegrees>
              <LongitudeDegrees>-16.63032629527151584625244140625</LongitudeDegrees>
            </Position>
            <AltitudeMeters>3248.199951171875</AltitudeMeters>
            <DistanceMeters>8399.1385547463</DistanceMeters>
          </Trackpoint>
          <Trackpoint>
            <Time>2019-04-08T05:09:41.000Z</Time>
            <Position>
              <LatitudeDegrees>28.274107687175273895263671875</LatitudeDegrees>
              <LongitudeDegrees>-16.6303887404501438140869140625</LongitudeDegrees>
            </Position>
            <AltitudeMeters>3248.800048828125</AltitudeMeters>
            <DistanceMeters>8405.2602225944</DistanceMeters>
          </Trackpoint>
          <Trackpoint>
            <Time>2019-04-08T05:09:43.000Z</Time>
            <Position>
              <LatitudeDegrees>28.27410777099430561065673828125</LatitudeDegrees>
              <LongitudeDegrees>-16.630400978028774261474609375</LongitudeDegrees>
            </Position>
            <AltitudeMeters>3249.199951171875</AltitudeMeters>
            <DistanceMeters>8406.4546898724</DistanceMeters>
          </Trackpoint>
          <Trackpoint>
            <Time>2019-04-08T05:09:48.000Z</Time>
            <Position>
              <LatitudeDegrees>28.27411078847944736480712890625</LatitudeDegrees>
              <LongitudeDegrees>-16.63041547872126102447509765625</LongitudeDegrees>
            </Position>
            <AltitudeMeters>3249.60009765625</AltitudeMeters>
            <DistanceMeters>8407.911421819</DistanceMeters>
          </Trackpoint>
          <Trackpoint>
            <Time>2019-04-08T05:09:54.000Z</Time>
            <Position>
              <LatitudeDegrees>28.27413895167410373687744140625</LatitudeDegrees>
              <LongitudeDegrees>-16.63042268715798854827880859375</LongitudeDegrees>
            </Position>
            <AltitudeMeters>3250.199951171875</AltitudeMeters>
            <DistanceMeters>8411.1255169408</DistanceMeters>
          </Trackpoint>
          <Trackpoint>
            <Time>2019-04-08T05:09:55.000Z</Time>
            <Position>
              <LatitudeDegrees>28.27414582483470439910888671875</LatitudeDegrees>
              <LongitudeDegrees>-16.63042268715798854827880859375</LongitudeDegrees>
            </Position>
            <AltitudeMeters>3250.39990234375</AltitudeMeters>
            <DistanceMeters>8411.891646805</DistanceMeters>
          </Trackpoint>
          <Trackpoint>
            <Time>2019-04-08T05:10:02.000Z</Time>
            <Position>
              <LatitudeDegrees>28.27417164109647274017333984375</LatitudeDegrees>
              <LongitudeDegrees>-16.63044464774429798126220703125</LongitudeDegrees>
            </Position>
            <AltitudeMeters>3251</AltitudeMeters>
            <DistanceMeters>8415.4813430436</DistanceMeters>
          </Trackpoint>
          <Trackpoint>
            <Time>2019-04-08T05:10:05.000Z</Time>
            <Position>
              <LatitudeDegrees>28.27417214401066303253173828125</LatitudeDegrees>
              <LongitudeDegrees>-16.6304547898471355438232421875</LongitudeDegrees>
            </Position>
            <AltitudeMeters>3251.60009765625</AltitudeMeters>
            <DistanceMeters>8416.4779916321</DistanceMeters>
          </Trackpoint>
          <Trackpoint>
            <Time>2019-04-08T05:10:11.000Z</Time>
            <Position>
              <LatitudeDegrees>28.274181447923183441162109375</LatitudeDegrees>
              <LongitudeDegrees>-16.63048110902309417724609375</LongitudeDegrees>
            </Position>
            <AltitudeMeters>3252.39990234375</AltitudeMeters>
            <DistanceMeters>8419.2566091587</DistanceMeters>
          </Trackpoint>
          <Trackpoint>
            <Time>2019-04-08T05:10:12.000Z</Time>
            <Position>
              <LatitudeDegrees>28.274183459579944610595703125</LatitudeDegrees>
              <LongitudeDegrees>-16.63048521615564823150634765625</LongitudeDegrees>
            </Position>
            <AltitudeMeters>3252.60009765625</AltitudeMeters>
            <DistanceMeters>8419.7023239574</DistanceMeters>
          </Trackpoint>
          <Trackpoint>
            <Time>2019-04-08T05:10:19.000Z</Time>
            <Position>
              <LatitudeDegrees>28.27419024892151355743408203125</LatitudeDegrees>
              <LongitudeDegrees>-16.6305245272815227508544921875</LongitudeDegrees>
            </Position>
            <AltitudeMeters>3253.60009765625</AltitudeMeters>
            <DistanceMeters>8423.6284340539</DistanceMeters>
          </Trackpoint>
          <Trackpoint>
            <Time>2019-04-08T05:10:21.000Z</Time>
            <Position>
              <LatitudeDegrees>28.27419125474989414215087890625</LatitudeDegrees>
              <LongitudeDegrees>-16.63053332827985286712646484375</LongitudeDegrees>
            </Position>
            <AltitudeMeters>3254.199951171875</AltitudeMeters>
            <DistanceMeters>8424.4993682772</DistanceMeters>
          </Trackpoint>
          <Trackpoint>
            <Time>2019-04-08T05:10:24.000Z</Time>
            <Position>
              <LatitudeDegrees>28.27420231886208057403564453125</LatitudeDegrees>
              <LongitudeDegrees>-16.63054841570556163787841796875</LongitudeDegrees>
            </Position>
            <AltitudeMeters>3254.800048828125</AltitudeMeters>
            <DistanceMeters>8426.4235125914</DistanceMeters>
          </Trackpoint>
          <Trackpoint>
            <Time>2019-04-08T05:10:29.000Z</Time>
            <Position>
              <LatitudeDegrees>28.27420684508979320526123046875</LatitudeDegrees>
              <LongitudeDegrees>-16.63058060221374034881591796875</LongitudeDegrees>
            </Position>
            <AltitudeMeters>3255.800048828125</AltitudeMeters>
            <DistanceMeters>8429.6178805073</DistanceMeters>
          </Trackpoint>
          <Trackpoint>
            <Time>2019-04-08T05:10:30.000Z</Time>
            <Position>
              <LatitudeDegrees>28.27420399524271488189697265625</LatitudeDegrees>
              <LongitudeDegrees>-16.6305855475366115570068359375</LongitudeDegrees>
            </Position>
            <AltitudeMeters>3255.800048828125</AltitudeMeters>
            <DistanceMeters>8430.1959054448</DistanceMeters>
          </Trackpoint>
          <Trackpoint>
            <Time>2019-04-08T05:10:38.000Z</Time>
            <Position>
              <LatitudeDegrees>28.274186812341213226318359375</LatitudeDegrees>
              <LongitudeDegrees>-16.63063466548919677734375</LongitudeDegrees>
            </Position>
            <AltitudeMeters>3256.60009765625</AltitudeMeters>
            <DistanceMeters>8435.3772582863</DistanceMeters>
          </Trackpoint>
          <Trackpoint>
            <Time>2019-04-08T05:10:39.000Z</Time>
            <Position>
              <LatitudeDegrees>28.2741846330463886260986328125</LatitudeDegrees>
              <LongitudeDegrees>-16.63063927553594112396240234375</LongitudeDegrees>
            </Position>
            <AltitudeMeters>3256.800048828125</AltitudeMeters>
            <DistanceMeters>8435.8889928043</DistanceMeters>
          </Trackpoint>
          <Trackpoint>
            <Time>2019-04-08T05:10:45.000Z</Time>
            <Position>
              <LatitudeDegrees>28.27417298220098018646240234375</LatitudeDegrees>
              <LongitudeDegrees>-16.63066224195063114166259765625</LongitudeDegrees>
            </Position>
            <AltitudeMeters>3258</AltitudeMeters>
            <DistanceMeters>8438.4879343542</DistanceMeters>
          </Trackpoint>
          <Trackpoint>
            <Time>2019-04-08T05:10:48.000Z</Time>
            <Position>
              <LatitudeDegrees>28.27417599968612194061279296875</LatitudeDegrees>
              <LongitudeDegrees>-16.63066995330154895782470703125</LongitudeDegrees>
            </Position>
            <AltitudeMeters>3258.39990234375</AltitudeMeters>
            <DistanceMeters>8439.3217903887</DistanceMeters>
          </Trackpoint>
          <Trackpoint>
            <Time>2019-04-08T05:10:56.000Z</Time>
            <Position>
              <LatitudeDegrees>28.274192847311496734619140625</LatitudeDegrees>
              <LongitudeDegrees>-16.63070515729486942291259765625</LongitudeDegrees>
            </Position>
            <AltitudeMeters>3259</AltitudeMeters>
            <DistanceMeters>8443.2490503197</DistanceMeters>
          </Trackpoint>
          <Trackpoint>
            <Time>2019-04-08T05:11:01.000Z</Time>
            <Position>
              <LatitudeDegrees>28.2741725631058216094970703125</LatitudeDegrees>
              <LongitudeDegrees>-16.6307218372821807861328125</LongitudeDegrees>
            </Position>
            <AltitudeMeters>3260.199951171875</AltitudeMeters>
            <DistanceMeters>8446.0357806156</DistanceMeters>
          </Trackpoint>
          <Trackpoint>
            <Time>2019-04-08T05:11:02.000Z</Time>
            <Position>
              <LatitudeDegrees>28.27416661195456981658935546875</LatitudeDegrees>
              <LongitudeDegrees>-16.63072594441473484039306640625</LongitudeDegrees>
            </Position>
            <AltitudeMeters>3260.199951171875</AltitudeMeters>
            <DistanceMeters>8446.8077812926</DistanceMeters>
          </Trackpoint>
          <Trackpoint>
            <Time>2019-04-08T05:11:09.000Z</Time>
            <Position>
              <LatitudeDegrees>28.274162001907825469970703125</LatitudeDegrees>
              <LongitudeDegrees>-16.63075067102909088134765625</LongitudeDegrees>
            </Position>
            <AltitudeMeters>3261.199951171875</AltitudeMeters>
            <DistanceMeters>8449.2875962168</DistanceMeters>
          </Trackpoint>
          <Trackpoint>
            <Time>2019-04-08T05:11:11.000Z</Time>
            <Position>
              <LatitudeDegrees>28.274168707430362701416015625</LatitudeDegrees>
              <LongitudeDegrees>-16.6307588852941989898681640625</LongitudeDegrees>
            </Position>
            <AltitudeMeters>3261.60009765625</AltitudeMeters>
            <DistanceMeters>8450.3876099638</DistanceMeters>
          </Trackpoint>
          <Trackpoint>
            <Time>2019-04-08T05:11:17.000Z</Time>
            <Position>
              <LatitudeDegrees>28.27418806962668895721435546875</LatitudeDegrees>
              <LongitudeDegrees>-16.630773134529590606689453125</LongitudeDegrees>
            </Position>
            <AltitudeMeters>3262.60009765625</AltitudeMeters>
            <DistanceMeters>8452.9550904027</DistanceMeters>
          </Trackpoint>
          <Trackpoint>
            <Time>2019-04-08T05:11:19.000Z</Time>
            <Position>
              <LatitudeDegrees>28.2741930149495601654052734375</LatitudeDegrees>
              <LongitudeDegrees>-16.630775146186351776123046875</LongitudeDegrees>
            </Position>
            <AltitudeMeters>3263</AltitudeMeters>
            <DistanceMeters>8453.5408744114</DistanceMeters>
          </Trackpoint>
          <Trackpoint>
            <Time>2019-04-08T05:11:25.000Z</Time>
            <Position>
              <LatitudeDegrees>28.27419293113052845001220703125</LatitudeDegrees>
              <LongitudeDegrees>-16.63079400546848773956298828125</LongitudeDegrees>
            </Position>
            <AltitudeMeters>3263.800048828125</AltitudeMeters>
            <DistanceMeters>8455.3884048971</DistanceMeters>
          </Trackpoint>
          <Trackpoint>
            <Time>2019-04-08T05:11:27.000Z</Time>
            <Position>
              <LatitudeDegrees>28.27418111264705657958984375</LatitudeDegrees>
              <LongitudeDegrees>-16.630798280239105224609375</LongitudeDegrees>
            </Position>
            <AltitudeMeters>3264.199951171875</AltitudeMeters>
            <DistanceMeters>8456.765472816</DistanceMeters>
          </Trackpoint>
          <Trackpoint>
            <Time>2019-04-08T05:11:34.000Z</Time>
            <Position>
              <LatitudeDegrees>28.27413056977093219757080078125</LatitudeDegrees>
              <LongitudeDegrees>-16.6308121941983699798583984375</LongitudeDegrees>
            </Position>
            <AltitudeMeters>3265</AltitudeMeters>
            <DistanceMeters>8462.5543080774</DistanceMeters>
          </Trackpoint>
          <Trackpoint>
            <Time>2019-04-08T05:11:35.000Z</Time>
            <Position>
              <LatitudeDegrees>28.27413056977093219757080078125</LatitudeDegrees>
              <LongitudeDegrees>-16.6308121941983699798583984375</LongitudeDegrees>
            </Position>
            <AltitudeMeters>3265.199951171875</AltitudeMeters>
            <DistanceMeters>8462.6493347918</DistanceMeters>
          </Trackpoint>
          <Trackpoint>
            <Time>2019-04-08T05:11:40.000Z</Time>
            <Position>
              <LatitudeDegrees>28.27412000857293605804443359375</LatitudeDegrees>
              <LongitudeDegrees>-16.630828119814395904541015625</LongitudeDegrees>
            </Position>
            <AltitudeMeters>3266</AltitudeMeters>
            <DistanceMeters>8464.6037457864</DistanceMeters>
          </Trackpoint>
          <Trackpoint>
            <Time>2019-04-08T05:11:43.000Z</Time>
            <Position>
              <LatitudeDegrees>28.27412671409547328948974609375</LatitudeDegrees>
              <LongitudeDegrees>-16.630844883620738983154296875</LongitudeDegrees>
            </Position>
            <AltitudeMeters>3266.39990234375</AltitudeMeters>
            <DistanceMeters>8466.4092533594</DistanceMeters>
          </Trackpoint>
          <Trackpoint>
            <Time>2019-04-08T05:11:48.000Z</Time>
            <Position>
              <LatitudeDegrees>28.27414196915924549102783203125</LatitudeDegrees>
              <LongitudeDegrees>-16.63086441345512866973876953125</LongitudeDegrees>
            </Position>
            <AltitudeMeters>3267.199951171875</AltitudeMeters>
            <DistanceMeters>8468.9696899429</DistanceMeters>
          </Trackpoint>
          <Trackpoint>
            <Time>2019-04-08T05:11:52.000Z</Time>
            <Position>
              <LatitudeDegrees>28.2741507701575756072998046875</LatitudeDegrees>
              <LongitudeDegrees>-16.6308718733489513397216796875</LongitudeDegrees>
            </Position>
            <AltitudeMeters>3267.60009765625</AltitudeMeters>
            <DistanceMeters>8470.1940235126</DistanceMeters>
          </Trackpoint>
          <Trackpoint>
            <Time>2019-04-08T05:11:54.000Z</Time>
            <Position>
              <LatitudeDegrees>28.27415504492819309234619140625</LatitudeDegrees>
              <LongitudeDegrees>-16.6308745555579662322998046875</LongitudeDegrees>
            </Position>
            <AltitudeMeters>3268.39990234375</AltitudeMeters>
            <DistanceMeters>8470.7481197128</DistanceMeters>
          </Trackpoint>
          <Trackpoint>
            <Time>2019-04-08T05:12:01.000Z</Time>
            <Position>
              <LatitudeDegrees>28.27417113818228244781494140625</LatitudeDegrees>
              <LongitudeDegrees>-16.63090934045612812042236328125</LongitudeDegrees>
            </Position>
            <AltitudeMeters>3269.39990234375</AltitudeMeters>
            <DistanceMeters>8474.601098518</DistanceMeters>
          </Trackpoint>
          <Trackpoint>
            <Time>2019-04-08T05:12:03.000Z</Time>
            <Position>
              <LatitudeDegrees>28.27417298220098018646240234375</LatitudeDegrees>
              <LongitudeDegrees>-16.630926690995693206787109375</LongitudeDegrees>
            </Position>
            <AltitudeMeters>3269.60009765625</AltitudeMeters>
            <DistanceMeters>8476.314216974</DistanceMeters>
          </Trackpoint>
          <Trackpoint>
            <Time>2019-04-08T05:12:08.000Z</Time>
            <Position>
              <LatitudeDegrees>28.2741557992994785308837890625</LatitudeDegrees>
              <LongitudeDegrees>-16.630945466458797454833984375</LongitudeDegrees>
            </Position>
            <AltitudeMeters>3270.39990234375</AltitudeMeters>
            <DistanceMeters>8478.9681686741</DistanceMeters>
          </Trackpoint>
          <Trackpoint>
            <Time>2019-04-08T05:12:12.000Z</Time>
            <Position>
              <LatitudeDegrees>28.27413953840732574462890625</LatitudeDegrees>
              <LongitudeDegrees>-16.63094487972557544708251953125</LongitudeDegrees>
            </Position>
            <AltitudeMeters>3271</AltitudeMeters>
            <DistanceMeters>8480.7786707451</DistanceMeters>
          </Trackpoint>
          <Trackpoint>
            <Time>2019-04-08T05:12:17.000Z</Time>
            <Position>
              <LatitudeDegrees>28.274132497608661651611328125</LatitudeDegrees>
              <LongitudeDegrees>-16.63096524775028228759765625</LongitudeDegrees>
            </Position>
            <AltitudeMeters>3271.60009765625</AltitudeMeters>
            <DistanceMeters>8482.9225711416</DistanceMeters>
          </Trackpoint>
          <Trackpoint>
            <Time>2019-04-08T05:12:20.000Z</Time>
            <Position>
              <LatitudeDegrees>28.2741417177021503448486328125</LatitudeDegrees>
              <LongitudeDegrees>-16.6309781558811664581298828125</LongitudeDegrees>
            </Position>
            <AltitudeMeters>3272</AltitudeMeters>
            <DistanceMeters>8484.5519398766</DistanceMeters>
          </Trackpoint>
          <Trackpoint>
            <Time>2019-04-08T05:12:22.000Z</Time>
            <Position>
              <LatitudeDegrees>28.27414414845407009124755859375</LatitudeDegrees>
              <LongitudeDegrees>-16.6309828497469425201416015625</LongitudeDegrees>
            </Position>
            <AltitudeMeters>3272.60009765625</AltitudeMeters>
            <DistanceMeters>8485.0810262304</DistanceMeters>
          </Trackpoint>
          <Trackpoint>
            <Time>2019-04-08T05:12:25.000Z</Time>
            <Position>
              <LatitudeDegrees>28.27414616011083126068115234375</LatitudeDegrees>
              <LongitudeDegrees>-16.63099869154393672943115234375</LongitudeDegrees>
            </Position>
            <AltitudeMeters>3273</AltitudeMeters>
            <DistanceMeters>8486.6511252302</DistanceMeters>
          </Trackpoint>
          <Trackpoint>
            <Time>2019-04-08T05:12:27.000Z</Time>
            <Position>
              <LatitudeDegrees>28.27414683066308498382568359375</LatitudeDegrees>
              <LongitudeDegrees>-16.631009168922901153564453125</LongitudeDegrees>
            </Position>
            <AltitudeMeters>3273.60009765625</AltitudeMeters>
            <DistanceMeters>8487.6833795692</DistanceMeters>
          </Trackpoint>
          <Trackpoint>
            <Time>2019-04-08T05:12:32.000Z</Time>
            <Position>
              <LatitudeDegrees>28.274162672460079193115234375</LatitudeDegrees>
              <LongitudeDegrees>-16.63102719001471996307373046875</LongitudeDegrees>
            </Position>
            <AltitudeMeters>3273.800048828125</AltitudeMeters>
            <DistanceMeters>8490.1795271502</DistanceMeters>
          </Trackpoint>
          <Trackpoint>
            <Time>2019-04-08T05:12:38.000Z</Time>
            <Position>
              <LatitudeDegrees>28.2741849683225154876708984375</LatitudeDegrees>
              <LongitudeDegrees>-16.63104160688817501068115234375</LongitudeDegrees>
            </Position>
            <AltitudeMeters>3274.60009765625</AltitudeMeters>
            <DistanceMeters>8493.0366566722</DistanceMeters>
          </Trackpoint>
          <Trackpoint>
            <Time>2019-04-08T05:12:41.000Z</Time>
            <Position>
              <LatitudeDegrees>28.27418857254087924957275390625</LatitudeDegrees>
              <LongitudeDegrees>-16.63105778396129608154296875</LongitudeDegrees>
            </Position>
            <AltitudeMeters>3275</AltitudeMeters>
            <DistanceMeters>8494.6715580843</DistanceMeters>
          </Trackpoint>
          <Trackpoint>
            <Time>2019-04-08T05:12:47.000Z</Time>
            <Position>
              <LatitudeDegrees>28.27418379485607147216796875</LatitudeDegrees>
              <LongitudeDegrees>-16.63108527660369873046875</LongitudeDegrees>
            </Position>
            <AltitudeMeters>3275.800048828125</AltitudeMeters>
            <DistanceMeters>8497.4174848551</DistanceMeters>
          </Trackpoint>
          <Trackpoint>
            <Time>2019-04-08T05:12:52.000Z</Time>
            <Position>
              <LatitudeDegrees>28.274173401296138763427734375</LatitudeDegrees>
              <LongitudeDegrees>-16.63109826855361461639404296875</LongitudeDegrees>
            </Position>
            <AltitudeMeters>3276.800048828125</AltitudeMeters>
            <DistanceMeters>8499.1358663603</DistanceMeters>
          </Trackpoint>
          <Trackpoint>
            <Time>2019-04-08T05:12:53.000Z</Time>
            <Position>
              <LatitudeDegrees>28.2741688750684261322021484375</LatitudeDegrees>
              <LongitudeDegrees>-16.63109994493424892425537109375</LongitudeDegrees>
            </Position>
            <AltitudeMeters>3277</AltitudeMeters>
            <DistanceMeters>8499.6649527141</DistanceMeters>
          </Trackpoint>
          <Trackpoint>
            <Time>2019-04-08T05:13:02.000Z</Time>
            <Position>
              <LatitudeDegrees>28.2741348445415496826171875</LatitudeDegrees>
              <LongitudeDegrees>-16.63113933987915515899658203125</LongitudeDegrees>
            </Position>
            <AltitudeMeters>3278.199951171875</AltitudeMeters>
            <DistanceMeters>8505.0739681215</DistanceMeters>
          </Trackpoint>
          <Trackpoint>
            <Time>2019-04-08T05:13:10.000Z</Time>
            <Position>
              <LatitudeDegrees>28.27412788756191730499267578125</LatitudeDegrees>
              <LongitudeDegrees>-16.6311870329082012176513671875</LongitudeDegrees>
            </Position>
            <AltitudeMeters>3279.39990234375</AltitudeMeters>
            <DistanceMeters>8509.8129342658</DistanceMeters>
          </Trackpoint>
          <Trackpoint>
            <Time>2019-04-08T05:13:12.000Z</Time>
            <Position>
              <LatitudeDegrees>28.274124450981616973876953125</LatitudeDegrees>
              <LongitudeDegrees>-16.6311964206397533416748046875</LongitudeDegrees>
            </Position>
            <AltitudeMeters>3279.800048828125</AltitudeMeters>
            <DistanceMeters>8510.8095828542</DistanceMeters>
          </Trackpoint>
          <Trackpoint>
            <Time>2019-04-08T05:13:15.000Z</Time>
            <Position>
              <LatitudeDegrees>28.27411950565874576568603515625</LatitudeDegrees>
              <LongitudeDegrees>-16.631205640733242034912109375</LongitudeDegrees>
            </Position>
            <AltitudeMeters>3280.39990234375</AltitudeMeters>
            <DistanceMeters>8511.8677555618</DistanceMeters>
          </Trackpoint>
          <Trackpoint>
            <Time>2019-04-08T05:13:22.000Z</Time>
            <Position>
              <LatitudeDegrees>28.2741205953061580657958984375</LatitudeDegrees>
              <LongitudeDegrees>-16.6312379948794841766357421875</LongitudeDegrees>
            </Position>
            <AltitudeMeters>3281.199951171875</AltitudeMeters>
            <DistanceMeters>8515.0408510906</DistanceMeters>
          </Trackpoint>
          <Trackpoint>
            <Time>2019-04-08T05:13:24.000Z</Time>
            <Position>
              <LatitudeDegrees>28.2741242833435535430908203125</LatitudeDegrees>
              <LongitudeDegrees>-16.6312390007078647613525390625</LongitudeDegrees>
            </Position>
            <AltitudeMeters>3281.60009765625</AltitudeMeters>
            <DistanceMeters>8515.4550629355</DistanceMeters>
          </Trackpoint>
          <Trackpoint>
            <Time>2019-04-08T05:13:27.000Z</Time>
            <Position>
              <LatitudeDegrees>28.27413459308445453643798828125</LatitudeDegrees>
              <LongitudeDegrees>-16.631240509450435638427734375</LongitudeDegrees>
            </Position>
            <AltitudeMeters>3282.60009765625</AltitudeMeters>
            <DistanceMeters>8516.6111128106</DistanceMeters>
          </Trackpoint>
          <Trackpoint>
            <Time>2019-04-08T05:13:31.000Z</Time>
            <Position>
              <LatitudeDegrees>28.274144232273101806640625</LatitudeDegrees>
              <LongitudeDegrees>-16.63124025799334049224853515625</LongitudeDegrees>
            </Position>
            <AltitudeMeters>3283.39990234375</AltitudeMeters>
            <DistanceMeters>8517.6862173566</DistanceMeters>
          </Trackpoint>
          <Trackpoint>
            <Time>2019-04-08T05:13:39.000Z</Time>
            <Position>
              <LatitudeDegrees>28.27414632774889469146728515625</LatitudeDegrees>
              <LongitudeDegrees>-16.6312748752534389495849609375</LongitudeDegrees>
            </Position>
            <AltitudeMeters>3283.60009765625</AltitudeMeters>
            <DistanceMeters>8521.0873242241</DistanceMeters>
          </Trackpoint>
          <Trackpoint>
            <Time>2019-04-08T05:13:46.000Z</Time>
            <Position>
              <LatitudeDegrees>28.2741455733776092529296875</LatitudeDegrees>
              <LongitudeDegrees>-16.631310917437076568603515625</LongitudeDegrees>
            </Position>
            <AltitudeMeters>3284.60009765625</AltitudeMeters>
            <DistanceMeters>8524.6199670939</DistanceMeters>
          </Trackpoint>
          <Trackpoint>
            <Time>2019-04-08T05:13:51.000Z</Time>
            <Position>
              <LatitudeDegrees>28.27415269799530506134033203125</LatitudeDegrees>
              <LongitudeDegrees>-16.631329692900180816650390625</LongitudeDegrees>
            </Position>
            <AltitudeMeters>3285.800048828125</AltitudeMeters>
            <DistanceMeters>8526.6223042137</DistanceMeters>
          </Trackpoint>
          <Trackpoint>
            <Time>2019-04-08T05:13:58.000Z</Time>
            <Position>
              <LatitudeDegrees>28.274149931967258453369140625</LatitudeDegrees>
              <LongitudeDegrees>-16.6313674114644527435302734375</LongitudeDegrees>
            </Position>
            <AltitudeMeters>3286.800048828125</AltitudeMeters>
            <DistanceMeters>8530.3332160392</DistanceMeters>
          </Trackpoint>
          <Trackpoint>
            <Time>2019-04-08T05:13:59.000Z</Time>
            <Position>
              <LatitudeDegrees>28.2741514407098293304443359375</LatitudeDegrees>
              <LongitudeDegrees>-16.63137017749249935150146484375</LongitudeDegrees>
            </Position>
            <AltitudeMeters>3287</AltitudeMeters>
            <DistanceMeters>8530.6337168952</DistanceMeters>
          </Trackpoint>
          <Trackpoint>
            <Time>2019-04-08T05:14:10.000Z</Time>
            <Position>
              <LatitudeDegrees>28.2741417177021503448486328125</LatitudeDegrees>
              <LongitudeDegrees>-16.6314291022717952728271484375</LongitudeDegrees>
            </Position>
            <AltitudeMeters>3288</AltitudeMeters>
            <DistanceMeters>8536.5092579125</DistanceMeters>
          </Trackpoint>
          <Trackpoint>
            <Time>2019-04-08T05:14:11.000Z</Time>
            <Position>
              <LatitudeDegrees>28.2741400413215160369873046875</LatitudeDegrees>
              <LongitudeDegrees>-16.63143438287079334259033203125</LongitudeDegrees>
            </Position>
            <AltitudeMeters>3288</AltitudeMeters>
            <DistanceMeters>8537.0551448262</DistanceMeters>
          </Trackpoint>
          <Trackpoint>
            <Time>2019-04-08T05:14:21.000Z</Time>
            <Position>
              <LatitudeDegrees>28.27413811348378658294677734375</LatitudeDegrees>
              <LongitudeDegrees>-16.63149523548781871795654296875</LongitudeDegrees>
            </Position>
            <AltitudeMeters>3289.199951171875</AltitudeMeters>
            <DistanceMeters>8543.0244564824</DistanceMeters>
          </Trackpoint>
          <Trackpoint>
            <Time>2019-04-08T05:14:23.000Z</Time>
            <Position>
              <LatitudeDegrees>28.274137862026691436767578125</LatitudeDegrees>
              <LongitudeDegrees>-16.63150495849549770355224609375</LongitudeDegrees>
            </Position>
            <AltitudeMeters>3289.60009765625</AltitudeMeters>
            <DistanceMeters>8543.9794631425</DistanceMeters>
          </Trackpoint>
          <Trackpoint>
            <Time>2019-04-08T05:14:30.000Z</Time>
            <Position>
              <LatitudeDegrees>28.27413509599864482879638671875</LatitudeDegrees>
              <LongitudeDegrees>-16.63154586218297481536865234375</LongitudeDegrees>
            </Position>
            <AltitudeMeters>3290.199951171875</AltitudeMeters>
            <DistanceMeters>8548.0010134544</DistanceMeters>
          </Trackpoint>
          <Trackpoint>
            <Time>2019-04-08T05:14:33.000Z</Time>
            <Position>
              <LatitudeDegrees>28.2741350121796131134033203125</LatitudeDegrees>
              <LongitudeDegrees>-16.6315558366477489471435546875</LongitudeDegrees>
            </Position>
            <AltitudeMeters>3290.800048828125</AltitudeMeters>
            <DistanceMeters>8548.979373359</DistanceMeters>
          </Trackpoint>
          <Trackpoint>
            <Time>2019-04-08T05:14:35.000Z</Time>
            <Position>
              <LatitudeDegrees>28.2741336710751056671142578125</LatitudeDegrees>
              <LongitudeDegrees>-16.6315642185509204864501953125</LongitudeDegrees>
            </Position>
            <AltitudeMeters>3291.199951171875</AltitudeMeters>
            <DistanceMeters>8549.8186265763</DistanceMeters>
          </Trackpoint>
          <Trackpoint>
            <Time>2019-04-08T05:14:42.000Z</Time>
            <Position>
              <LatitudeDegrees>28.2741313241422176361083984375</LatitudeDegrees>
              <LongitudeDegrees>-16.631597578525543212890625</LongitudeDegrees>
            </Position>
            <AltitudeMeters>3292.199951171875</AltitudeMeters>
            <DistanceMeters>8553.0994574346</DistanceMeters>
          </Trackpoint>
          <Trackpoint>
            <Time>2019-04-08T05:14:44.000Z</Time>
            <Position>
              <LatitudeDegrees>28.2741319946944713592529296875</LatitudeDegrees>
              <LongitudeDegrees>-16.63160629570484161376953125</LongitudeDegrees>
            </Position>
            <AltitudeMeters>3292.60009765625</AltitudeMeters>
            <DistanceMeters>8553.9599609317</DistanceMeters>
          </Trackpoint>
          <Trackpoint>
            <Time>2019-04-08T05:14:53.000Z</Time>
            <Position>
              <LatitudeDegrees>28.27414364553987979888916015625</LatitudeDegrees>
              <LongitudeDegrees>-16.6316218860447406768798828125</LongitudeDegrees>
            </Position>
            <AltitudeMeters>3293</AltitudeMeters>
            <DistanceMeters>8555.9622980514</DistanceMeters>
          </Trackpoint>
          <Trackpoint>
            <Time>2019-04-08T05:14:54.000Z</Time>
            <Position>
              <LatitudeDegrees>28.2741482555866241455078125</LatitudeDegrees>
              <LongitudeDegrees>-16.63163219578564167022705078125</LongitudeDegrees>
            </Position>
            <AltitudeMeters>3293.199951171875</AltitudeMeters>
            <DistanceMeters>8557.0946720422</DistanceMeters>
          </Trackpoint>
          <Trackpoint>
            <Time>2019-04-08T05:15:02.000Z</Time>
            <Position>
              <LatitudeDegrees>28.27415018342435359954833984375</LatitudeDegrees>
              <LongitudeDegrees>-16.63167896680533885955810546875</LongitudeDegrees>
            </Position>
            <AltitudeMeters>3294</AltitudeMeters>
            <DistanceMeters>8561.6845705535</DistanceMeters>
          </Trackpoint>
          <Trackpoint>
            <Time>2019-04-08T05:15:04.000Z</Time>
            <Position>
              <LatitudeDegrees>28.27415336854755878448486328125</LatitudeDegrees>
              <LongitudeDegrees>-16.63169187493622303009033203125</LongitudeDegrees>
            </Position>
            <AltitudeMeters>3294.199951171875</AltitudeMeters>
            <DistanceMeters>8562.9978658747</DistanceMeters>
          </Trackpoint>
          <Trackpoint>
            <Time>2019-04-08T05:15:05.000Z</Time>
            <Position>
              <LatitudeDegrees>28.274154961109161376953125</LatitudeDegrees>
              <LongitudeDegrees>-16.63169757463037967681884765625</LongitudeDegrees>
            </Position>
            <AltitudeMeters>3294.60009765625</AltitudeMeters>
            <DistanceMeters>8563.5836498834</DistanceMeters>
          </Trackpoint>
          <Trackpoint>
            <Time>2019-04-08T05:15:10.000Z</Time>
            <Position>
              <LatitudeDegrees>28.27415697276592254638671875</LatitudeDegrees>
              <LongitudeDegrees>-16.631734035909175872802734375</LongitudeDegrees>
            </Position>
            <AltitudeMeters>3295.39990234375</AltitudeMeters>
            <DistanceMeters>8567.1657915092</DistanceMeters>
          </Trackpoint>
          <Trackpoint>
            <Time>2019-04-08T05:15:12.000Z</Time>
            <Position>
              <LatitudeDegrees>28.2741568051278591156005859375</LatitudeDegrees>
              <LongitudeDegrees>-16.63174484856426715850830078125</LongitudeDegrees>
            </Position>
            <AltitudeMeters>3295.39990234375</AltitudeMeters>
            <DistanceMeters>8568.2239642167</DistanceMeters>
          </Trackpoint>
          <Trackpoint>
            <Time>2019-04-08T05:15:18.000Z</Time>
            <Position>
              <LatitudeDegrees>28.27416124753654003143310546875</LatitudeDegrees>
              <LongitudeDegrees>-16.63177586160600185394287109375</LongitudeDegrees>
            </Position>
            <AltitudeMeters>3296.39990234375</AltitudeMeters>
            <DistanceMeters>8571.303181693</DistanceMeters>
          </Trackpoint>
          <Trackpoint>
            <Time>2019-04-08T05:15:21.000Z</Time>
            <Position>
              <LatitudeDegrees>28.2741611637175083160400390625</LatitudeDegrees>
              <LongitudeDegrees>-16.63178239949047565460205078125</LongitudeDegrees>
            </Position>
            <AltitudeMeters>3297</AltitudeMeters>
            <DistanceMeters>8571.9546520245</DistanceMeters>
          </Trackpoint>
          <Trackpoint>
            <Time>2019-04-08T05:15:23.000Z</Time>
            <Position>
              <LatitudeDegrees>28.27416476793587207794189453125</LatitudeDegrees>
              <LongitudeDegrees>-16.6317955590784549713134765625</LongitudeDegrees>
            </Position>
            <AltitudeMeters>3297.39990234375</AltitudeMeters>
            <DistanceMeters>8573.3119049835</DistanceMeters>
          </Trackpoint>
          <Trackpoint>
            <Time>2019-04-08T05:15:33.000Z</Time>
            <Position>
              <LatitudeDegrees>28.27418136410415172576904296875</LatitudeDegrees>
              <LongitudeDegrees>-16.6318287514150142669677734375</LongitudeDegrees>
            </Position>
            <AltitudeMeters>3298</AltitudeMeters>
            <DistanceMeters>8577.0531104694</DistanceMeters>
          </Trackpoint>
          <Trackpoint>
            <Time>2019-04-08T05:15:37.000Z</Time>
            <Position>
              <LatitudeDegrees>28.2741831243038177490234375</LatitudeDegrees>
              <LongitudeDegrees>-16.6318485327064990997314453125</LongitudeDegrees>
            </Position>
            <AltitudeMeters>3298.39990234375</AltitudeMeters>
            <DistanceMeters>8579.0052099186</DistanceMeters>
          </Trackpoint>
          <Trackpoint>
            <Time>2019-04-08T05:15:43.000Z</Time>
            <Position>
              <LatitudeDegrees>28.2741802744567394256591796875</LatitudeDegrees>
              <LongitudeDegrees>-16.63187795318663120269775390625</LongitudeDegrees>
            </Position>
            <AltitudeMeters>3299.800048828125</AltitudeMeters>
            <DistanceMeters>8581.9078055367</DistanceMeters>
          </Trackpoint>
          <Trackpoint>
            <Time>2019-04-08T05:15:49.000Z</Time>
            <Position>
              <LatitudeDegrees>28.2741839624941349029541015625</LatitudeDegrees>
              <LongitudeDegrees>-16.63190645165741443634033203125</LongitudeDegrees>
            </Position>
            <AltitudeMeters>3300.800048828125</AltitudeMeters>
            <DistanceMeters>8584.733152874</DistanceMeters>
          </Trackpoint>
          <Trackpoint>
            <Time>2019-04-08T05:15:52.000Z</Time>
            <Position>
              <LatitudeDegrees>28.2741883210837841033935546875</LatitudeDegrees>
              <LongitudeDegrees>-16.63192857988178730010986328125</LongitudeDegrees>
            </Position>
            <AltitudeMeters>3301.199951171875</AltitudeMeters>
            <DistanceMeters>8586.9576712244</DistanceMeters>
          </Trackpoint>
          <Trackpoint>
            <Time>2019-04-08T05:15:54.000Z</Time>
            <Position>
              <LatitudeDegrees>28.2741884887218475341796875</LatitudeDegrees>
              <LongitudeDegrees>-16.63193847052752971649169921875</LongitudeDegrees>
            </Position>
            <AltitudeMeters>3301.800048828125</AltitudeMeters>
            <DistanceMeters>8587.931405288</DistanceMeters>
          </Trackpoint>
          <Trackpoint>
            <Time>2019-04-08T05:16:02.000Z</Time>
            <Position>
              <LatitudeDegrees>28.2741846330463886260986328125</LatitudeDegrees>
              <LongitudeDegrees>-16.63196797482669353485107421875</LongitudeDegrees>
            </Position>
            <AltitudeMeters>3303</AltitudeMeters>
            <DistanceMeters>8590.8572406335</DistanceMeters>
          </Trackpoint>
          <Trackpoint>
            <Time>2019-04-08T05:16:03.000Z</Time>
            <Position>
              <LatitudeDegrees>28.274183459579944610595703125</LatitudeDegrees>
              <LongitudeDegrees>-16.63197015412151813507080078125</LongitudeDegrees>
            </Position>
            <AltitudeMeters>3303.199951171875</AltitudeMeters>
            <DistanceMeters>8591.0900075956</DistanceMeters>
          </Trackpoint>
          <Trackpoint>
            <Time>2019-04-08T05:16:13.000Z</Time>
            <Position>
              <LatitudeDegrees>28.27418471686542034149169921875</LatitudeDegrees>
              <LongitudeDegrees>-16.6319870017468929290771484375</LongitudeDegrees>
            </Position>
            <AltitudeMeters>3304</AltitudeMeters>
            <DistanceMeters>8592.7468549751</DistanceMeters>
          </Trackpoint>
          <Trackpoint>
            <Time>2019-04-08T05:16:17.000Z</Time>
            <Position>
              <LatitudeDegrees>28.274185471236705780029296875</LatitudeDegrees>
              <LongitudeDegrees>-16.63200854323804378509521484375</LongitudeDegrees>
            </Position>
            <AltitudeMeters>3305</AltitudeMeters>
            <DistanceMeters>8594.8610659012</DistanceMeters>
          </Trackpoint>
          <Trackpoint>
            <Time>2019-04-08T05:16:18.000Z</Time>
            <Position>
              <LatitudeDegrees>28.2741856388747692108154296875</LatitudeDegrees>
              <LongitudeDegrees>-16.6320128180086612701416015625</LongitudeDegrees>
            </Position>
            <AltitudeMeters>3305.199951171875</AltitudeMeters>
            <DistanceMeters>8595.275277746</DistanceMeters>
          </Trackpoint>
          <Trackpoint>
            <Time>2019-04-08T05:16:25.000Z</Time>
            <Position>
              <LatitudeDegrees>28.27418379485607147216796875</LatitudeDegrees>
              <LongitudeDegrees>-16.63204290904104709625244140625</LongitudeDegrees>
            </Position>
            <AltitudeMeters>3306</AltitudeMeters>
            <DistanceMeters>8598.2302877158</DistanceMeters>
          </Trackpoint>
          <Trackpoint>
            <Time>2019-04-08T05:16:32.000Z</Time>
            <Position>
              <LatitudeDegrees>28.27418421395123004913330078125</LatitudeDegrees>
              <LongitudeDegrees>-16.63207576610147953033447265625</LongitudeDegrees>
            </Position>
            <AltitudeMeters>3307.199951171875</AltitudeMeters>
            <DistanceMeters>8601.4513989889</DistanceMeters>
          </Trackpoint>
          <Trackpoint>
            <Time>2019-04-08T05:16:38.000Z</Time>
            <Position>
              <LatitudeDegrees>28.27418555505573749542236328125</LatitudeDegrees>
              <LongitudeDegrees>-16.63209504447877407073974609375</LongitudeDegrees>
            </Position>
            <AltitudeMeters>3308</AltitudeMeters>
            <DistanceMeters>8603.3495561218</DistanceMeters>
          </Trackpoint>
          <Trackpoint>
            <Time>2019-04-08T05:16:40.000Z</Time>
            <Position>
              <LatitudeDegrees>28.2741842977702617645263671875</LatitudeDegrees>
              <LongitudeDegrees>-16.63210325874388217926025390625</LongitudeDegrees>
            </Position>
            <AltitudeMeters>3308.39990234375</AltitudeMeters>
            <DistanceMeters>8604.1670068279</DistanceMeters>
          </Trackpoint>
          <Trackpoint>
            <Time>2019-04-08T05:16:48.000Z</Time>
            <Position>
              <LatitudeDegrees>28.2741859741508960723876953125</LatitudeDegrees>
              <LongitudeDegrees>-16.63214466534554958343505859375</LongitudeDegrees>
            </Position>
            <AltitudeMeters>3309.39990234375</AltitudeMeters>
            <DistanceMeters>8608.2298850859</DistanceMeters>
          </Trackpoint>
          <Trackpoint>
            <Time>2019-04-08T05:16:52.000Z</Time>
            <Position>
              <LatitudeDegrees>28.2741802744567394256591796875</LatitudeDegrees>
              <LongitudeDegrees>-16.6321663744747638702392578125</LongitudeDegrees>
            </Position>
            <AltitudeMeters>3310.199951171875</AltitudeMeters>
            <DistanceMeters>8610.4523728395</DistanceMeters>
          </Trackpoint>
          <Trackpoint>
            <Time>2019-04-08T05:16:53.000Z</Time>
            <Position>
              <LatitudeDegrees>28.2741804420948028564453125</LatitudeDegrees>
              <LongitudeDegrees>-16.6321720741689205169677734375</LongitudeDegrees>
            </Position>
            <AltitudeMeters>3310.39990234375</AltitudeMeters>
            <DistanceMeters>8611.0225331257</DistanceMeters>
          </Trackpoint>
          <Trackpoint>
            <Time>2019-04-08T05:17:01.000Z</Time>
            <Position>
              <LatitudeDegrees>28.274168707430362701416015625</LatitudeDegrees>
              <LongitudeDegrees>-16.632209457457065582275390625</LongitudeDegrees>
            </Position>
            <AltitudeMeters>3311.60009765625</AltitudeMeters>
            <DistanceMeters>8614.9128297879</DistanceMeters>
          </Trackpoint>
          <Trackpoint>
            <Time>2019-04-08T05:17:07.000Z</Time>
            <Position>
              <LatitudeDegrees>28.27416107989847660064697265625</LatitudeDegrees>
              <LongitudeDegrees>-16.63224407471716403961181640625</LongitudeDegrees>
            </Position>
            <AltitudeMeters>3312.800048828125</AltitudeMeters>
            <DistanceMeters>8618.4107939932</DistanceMeters>
          </Trackpoint>
          <Trackpoint>
            <Time>2019-04-08T05:17:12.000Z</Time>
            <Position>
              <LatitudeDegrees>28.27416275627911090850830078125</LatitudeDegrees>
              <LongitudeDegrees>-16.6322810389101505279541015625</LongitudeDegrees>
            </Position>
            <AltitudeMeters>3313.800048828125</AltitudeMeters>
            <DistanceMeters>8622.039271836</DistanceMeters>
          </Trackpoint>
          <Trackpoint>
            <Time>2019-04-08T05:17:14.000Z</Time>
            <Position>
              <LatitudeDegrees>28.274158649146556854248046875</LatitudeDegrees>
              <LongitudeDegrees>-16.63229101337492465972900390625</LongitudeDegrees>
            </Position>
            <AltitudeMeters>3314</AltitudeMeters>
            <DistanceMeters>8623.114376382</DistanceMeters>
          </Trackpoint>
          <Trackpoint>
            <Time>2019-04-08T05:17:19.000Z</Time>
            <Position>
              <LatitudeDegrees>28.27415303327143192291259765625</LatitudeDegrees>
              <LongitudeDegrees>-16.63231263868510723114013671875</LongitudeDegrees>
            </Position>
            <AltitudeMeters>3315</AltitudeMeters>
            <DistanceMeters>8625.3266831945</DistanceMeters>
          </Trackpoint>
          <Trackpoint>
            <Time>2019-04-08T05:17:31.000Z</Time>
            <Position>
              <LatitudeDegrees>28.27413543127477169036865234375</LatitudeDegrees>
              <LongitudeDegrees>-16.63237877190113067626953125</LongitudeDegrees>
            </Position>
            <AltitudeMeters>3316.199951171875</AltitudeMeters>
            <DistanceMeters>8632.0996285165</DistanceMeters>
          </Trackpoint>
          <Trackpoint>
            <Time>2019-04-08T05:17:34.000Z</Time>
            <Position>
              <LatitudeDegrees>28.27412654645740985870361328125</LatitudeDegrees>
              <LongitudeDegrees>-16.63239729590713977813720703125</LongitudeDegrees>
            </Position>
            <AltitudeMeters>3316.60009765625</AltitudeMeters>
            <DistanceMeters>8634.1685065299</DistanceMeters>
          </Trackpoint>
          <Trackpoint>
            <Time>2019-04-08T05:17:41.000Z</Time>
            <Position>
              <LatitudeDegrees>28.27412067912518978118896484375</LatitudeDegrees>
              <LongitudeDegrees>-16.6324335895478725433349609375</LongitudeDegrees>
            </Position>
            <AltitudeMeters>3317</AltitudeMeters>
            <DistanceMeters>8637.7870160081</DistanceMeters>
          </Trackpoint>
          <Trackpoint>
            <Time>2019-04-08T05:17:50.000Z</Time>
            <Position>
              <LatitudeDegrees>28.2741175778210163116455078125</LatitudeDegrees>
              <LongitudeDegrees>-16.63247742690145969390869140625</LongitudeDegrees>
            </Position>
            <AltitudeMeters>3318.199951171875</AltitudeMeters>
            <DistanceMeters>8642.0979204749</DistanceMeters>
          </Trackpoint>
          <Trackpoint>
            <Time>2019-04-08T05:17:51.000Z</Time>
            <Position>
              <LatitudeDegrees>28.2741175778210163116455078125</LatitudeDegrees>
              <LongitudeDegrees>-16.63247742690145969390869140625</LongitudeDegrees>
            </Position>
            <AltitudeMeters>3318.199951171875</AltitudeMeters>
            <DistanceMeters>8642.0979204749</DistanceMeters>
          </Trackpoint>
          <Trackpoint>
            <Time>2019-04-08T05:18:00.000Z</Time>
            <Position>
              <LatitudeDegrees>28.27411766164004802703857421875</LatitudeDegrees>
              <LongitudeDegrees>-16.632519252598285675048828125</LongitudeDegrees>
            </Position>
            <AltitudeMeters>3319.199951171875</AltitudeMeters>
            <DistanceMeters>8646.1973072903</DistanceMeters>
          </Trackpoint>
          <Trackpoint>
            <Time>2019-04-08T05:18:03.000Z</Time>
            <Position>
              <LatitudeDegrees>28.27412101440131664276123046875</LatitudeDegrees>
              <LongitudeDegrees>-16.63252688013017177581787109375</LongitudeDegrees>
            </Position>
            <AltitudeMeters>3319.60009765625</AltitudeMeters>
            <DistanceMeters>8647.0365605075</DistanceMeters>
          </Trackpoint>
          <Trackpoint>
            <Time>2019-04-08T05:18:08.000Z</Time>
            <Position>
              <LatitudeDegrees>28.27411849983036518096923828125</LatitudeDegrees>
              <LongitudeDegrees>-16.6325522772967815399169921875</LongitudeDegrees>
            </Position>
            <AltitudeMeters>3320.199951171875</AltitudeMeters>
            <DistanceMeters>8649.5417357766</DistanceMeters>
          </Trackpoint>
          <Trackpoint>
            <Time>2019-04-08T05:18:14.000Z</Time>
            <Position>
              <LatitudeDegrees>28.2741135545074939727783203125</LatitudeDegrees>
              <LongitudeDegrees>-16.6325797699391841888427734375</LongitudeDegrees>
            </Position>
            <AltitudeMeters>3320.800048828125</AltitudeMeters>
            <DistanceMeters>8652.2925909272</DistanceMeters>
          </Trackpoint>
          <Trackpoint>
            <Time>2019-04-08T05:18:20.000Z</Time>
            <Position>
              <LatitudeDegrees>28.27410995028913021087646484375</LatitudeDegrees>
              <LongitudeDegrees>-16.6326079331338405609130859375</LongitudeDegrees>
            </Position>
            <AltitudeMeters>3321.199951171875</AltitudeMeters>
            <DistanceMeters>8655.0825597254</DistanceMeters>
          </Trackpoint>
          <Trackpoint>
            <Time>2019-04-08T05:18:28.000Z</Time>
            <Position>
              <LatitudeDegrees>28.274109028279781341552734375</LatitudeDegrees>
              <LongitudeDegrees>-16.63264028728008270263671875</LongitudeDegrees>
            </Position>
            <AltitudeMeters>3322.199951171875</AltitudeMeters>
            <DistanceMeters>8658.2542320222</DistanceMeters>
          </Trackpoint>
          <Trackpoint>
            <Time>2019-04-08T05:18:29.000Z</Time>
            <Position>
              <LatitudeDegrees>28.27410374768078327178955078125</LatitudeDegrees>
              <LongitudeDegrees>-16.6326431371271610260009765625</LongitudeDegrees>
            </Position>
            <AltitudeMeters>3322.39990234375</AltitudeMeters>
            <DistanceMeters>8658.9125964117</DistanceMeters>
          </Trackpoint>
          <Trackpoint>
            <Time>2019-04-08T05:18:36.000Z</Time>
            <Position>
              <LatitudeDegrees>28.2741024903953075408935546875</LatitudeDegrees>
              <LongitudeDegrees>-16.6326515190303325653076171875</LongitudeDegrees>
            </Position>
            <AltitudeMeters>3323</AltitudeMeters>
            <DistanceMeters>8659.7410201014</DistanceMeters>
          </Trackpoint>
          <Trackpoint>
            <Time>2019-04-08T05:18:46.000Z</Time>
            <Position>
              <LatitudeDegrees>28.274102993309497833251953125</LatitudeDegrees>
              <LongitudeDegrees>-16.6326528601348400115966796875</LongitudeDegrees>
            </Position>
            <AltitudeMeters>3323.199951171875</AltitudeMeters>
            <DistanceMeters>8659.8754081697</DistanceMeters>
          </Trackpoint>
          <Trackpoint>
            <Time>2019-04-08T05:18:50.000Z</Time>
            <Position>
              <LatitudeDegrees>28.2740986347198486328125</LatitudeDegrees>
              <LongitudeDegrees>-16.63266979157924652099609375</LongitudeDegrees>
            </Position>
            <AltitudeMeters>3323.199951171875</AltitudeMeters>
            <DistanceMeters>8661.6042677079</DistanceMeters>
          </Trackpoint>
          <Trackpoint>
            <Time>2019-04-08T05:18:52.000Z</Time>
            <Position>
              <LatitudeDegrees>28.2741065137088298797607421875</LatitudeDegrees>
              <LongitudeDegrees>-16.63267725147306919097900390625</LongitudeDegrees>
            </Position>
            <AltitudeMeters>3323.60009765625</AltitudeMeters>
            <DistanceMeters>8662.7445882804</DistanceMeters>
          </Trackpoint>
          <Trackpoint>
            <Time>2019-04-08T05:18:57.000Z</Time>
            <Position>
              <LatitudeDegrees>28.2741075195372104644775390625</LatitudeDegrees>
              <LongitudeDegrees>-16.63269602693617343902587890625</LongitudeDegrees>
            </Position>
            <AltitudeMeters>3324.39990234375</AltitudeMeters>
            <DistanceMeters>8664.587224637</DistanceMeters>
          </Trackpoint>
          <Trackpoint>
            <Time>2019-04-08T05:19:03.000Z</Time>
            <Position>
              <LatitudeDegrees>28.27411548234522342681884765625</LatitudeDegrees>
              <LongitudeDegrees>-16.63271673023700714111328125</LongitudeDegrees>
            </Position>
            <AltitudeMeters>3325.60009765625</AltitudeMeters>
            <DistanceMeters>8666.8015713825</DistanceMeters>
          </Trackpoint>
          <Trackpoint>
            <Time>2019-04-08T05:19:08.000Z</Time>
            <Position>
              <LatitudeDegrees>28.2741219364106655120849609375</LatitudeDegrees>
              <LongitudeDegrees>-16.63273843936622142791748046875</LongitudeDegrees>
            </Position>
            <AltitudeMeters>3326.39990234375</AltitudeMeters>
            <DistanceMeters>8669.0483051745</DistanceMeters>
          </Trackpoint>
          <Trackpoint>
            <Time>2019-04-08T05:19:10.000Z</Time>
            <Position>
              <LatitudeDegrees>28.2741229422390460968017578125</LatitudeDegrees>
              <LongitudeDegrees>-16.63274866528809070587158203125</LongitudeDegrees>
            </Position>
            <AltitudeMeters>3326.800048828125</AltitudeMeters>
            <DistanceMeters>8670.053973391</DistanceMeters>
          </Trackpoint>
          <Trackpoint>
            <Time>2019-04-08T05:19:18.000Z</Time>
            <Position>
              <LatitudeDegrees>28.27413073740899562835693359375</LatitudeDegrees>
              <LongitudeDegrees>-16.63277179934084415435791015625</LongitudeDegrees>
            </Position>
            <AltitudeMeters>3328</AltitudeMeters>
            <DistanceMeters>8672.4804131371</DistanceMeters>
          </Trackpoint>
          <Trackpoint>
            <Time>2019-04-08T05:19:26.000Z</Time>
            <Position>
              <LatitudeDegrees>28.27415160834789276123046875</LatitudeDegrees>
              <LongitudeDegrees>-16.6327839531004428863525390625</LongitudeDegrees>
            </Position>
            <AltitudeMeters>3329</AltitudeMeters>
            <DistanceMeters>8675.08975743</DistanceMeters>
          </Trackpoint>
          <Trackpoint>
            <Time>2019-04-08T05:19:31.000Z</Time>
            <Position>
              <LatitudeDegrees>28.2741531170904636383056640625</LatitudeDegrees>
              <LongitudeDegrees>-16.632796861231327056884765625</LongitudeDegrees>
            </Position>
            <AltitudeMeters>3329.800048828125</AltitudeMeters>
            <DistanceMeters>8676.3682111196</DistanceMeters>
          </Trackpoint>
          <Trackpoint>
            <Time>2019-04-08T05:19:33.000Z</Time>
            <Position>
              <LatitudeDegrees>28.27415320090949535369873046875</LatitudeDegrees>
              <LongitudeDegrees>-16.632804907858371734619140625</LongitudeDegrees>
            </Position>
            <AltitudeMeters>3330</AltitudeMeters>
            <DistanceMeters>8677.1575622928</DistanceMeters>
          </Trackpoint>
          <Trackpoint>
            <Time>2019-04-08T05:19:41.000Z</Time>
            <Position>
              <LatitudeDegrees>28.274162001907825469970703125</LatitudeDegrees>
              <LongitudeDegrees>-16.63283466361463069915771484375</LongitudeDegrees>
            </Position>
            <AltitudeMeters>3331</AltitudeMeters>
            <DistanceMeters>8680.2353131257</DistanceMeters>
          </Trackpoint>
          <Trackpoint>
            <Time>2019-04-08T05:19:46.000Z</Time>
            <Position>
              <LatitudeDegrees>28.27416359446942806243896484375</LatitudeDegrees>
              <LongitudeDegrees>-16.6328459791839122772216796875</LongitudeDegrees>
            </Position>
            <AltitudeMeters>3332.199951171875</AltitudeMeters>
            <DistanceMeters>8681.3596843732</DistanceMeters>
          </Trackpoint>
          <Trackpoint>
            <Time>2019-04-08T05:19:48.000Z</Time>
            <Position>
              <LatitudeDegrees>28.2741655223071575164794921875</LatitudeDegrees>
              <LongitudeDegrees>-16.63284958340227603912353515625</LongitudeDegrees>
            </Position>
            <AltitudeMeters>3332.39990234375</AltitudeMeters>
            <DistanceMeters>8681.7628485779</DistanceMeters>
          </Trackpoint>
          <Trackpoint>
            <Time>2019-04-08T05:19:52.000Z</Time>
            <Position>
              <LatitudeDegrees>28.274175412952899932861328125</LatitudeDegrees>
              <LongitudeDegrees>-16.6328644193708896636962890625</LongitudeDegrees>
            </Position>
            <AltitudeMeters>3333.199951171875</AltitudeMeters>
            <DistanceMeters>8683.5857770273</DistanceMeters>
          </Trackpoint>
          <Trackpoint>
            <Time>2019-04-08T05:19:57.000Z</Time>
            <Position>
              <LatitudeDegrees>28.274192512035369873046875</LatitudeDegrees>
              <LongitudeDegrees>-16.632873304188251495361328125</LongitudeDegrees>
            </Position>
            <AltitudeMeters>3334.199951171875</AltitudeMeters>
            <DistanceMeters>8685.6785233271</DistanceMeters>
          </Trackpoint>
          <Trackpoint>
            <Time>2019-04-08T05:19:58.000Z</Time>
            <Position>
              <LatitudeDegrees>28.27419443987309932708740234375</LatitudeDegrees>
              <LongitudeDegrees>-16.6328848712146282196044921875</LongitudeDegrees>
            </Position>
            <AltitudeMeters>3334.60009765625</AltitudeMeters>
            <DistanceMeters>8686.8345732022</DistanceMeters>
          </Trackpoint>
          <Trackpoint>
            <Time>2019-04-08T05:20:06.000Z</Time>
            <Position>
              <LatitudeDegrees>28.27419041655957698822021484375</LatitudeDegrees>
              <LongitudeDegrees>-16.63292032666504383087158203125</LongitudeDegrees>
            </Position>
            <AltitudeMeters>3335.39990234375</AltitudeMeters>
            <DistanceMeters>8690.3389852732</DistanceMeters>
          </Trackpoint>
          <Trackpoint>
            <Time>2019-04-08T05:20:10.000Z</Time>
            <Position>
              <LatitudeDegrees>28.27419293113052845001220703125</LatitudeDegrees>
              <LongitudeDegrees>-16.63294262252748012542724609375</LongitudeDegrees>
            </Position>
            <AltitudeMeters>3336.199951171875</AltitudeMeters>
            <DistanceMeters>8692.5410640753</DistanceMeters>
          </Trackpoint>
          <Trackpoint>
            <Time>2019-04-08T05:20:11.000Z</Time>
            <Position>
              <LatitudeDegrees>28.27419276349246501922607421875</LatitudeDegrees>
              <LongitudeDegrees>-16.63294798694550991058349609375</LongitudeDegrees>
            </Position>
            <AltitudeMeters>3336.39990234375</AltitudeMeters>
            <DistanceMeters>8693.0615468255</DistanceMeters>
          </Trackpoint>
          <Trackpoint>
            <Time>2019-04-08T05:20:21.000Z</Time>
            <Position>
              <LatitudeDegrees>28.27419050037860870361328125</LatitudeDegrees>
              <LongitudeDegrees>-16.63298905827105045318603515625</LongitudeDegrees>
            </Position>
            <AltitudeMeters>3337.39990234375</AltitudeMeters>
            <DistanceMeters>8697.0954280523</DistanceMeters>
          </Trackpoint>
          <Trackpoint>
            <Time>2019-04-08T05:20:26.000Z</Time>
            <Position>
              <LatitudeDegrees>28.2741950266063213348388671875</LatitudeDegrees>
              <LongitudeDegrees>-16.63301705382764339447021484375</LongitudeDegrees>
            </Position>
            <AltitudeMeters>3338.199951171875</AltitudeMeters>
            <DistanceMeters>8699.8853968505</DistanceMeters>
          </Trackpoint>
          <Trackpoint>
            <Time>2019-04-08T05:20:28.000Z</Time>
            <Position>
              <LatitudeDegrees>28.2741990499198436737060546875</LatitudeDegrees>
              <LongitudeDegrees>-16.633024848997592926025390625</LongitudeDegrees>
            </Position>
            <AltitudeMeters>3338.39990234375</AltitudeMeters>
            <DistanceMeters>8700.7666383464</DistanceMeters>
          </Trackpoint>
          <Trackpoint>
            <Time>2019-04-08T05:20:33.000Z</Time>
            <Position>
              <LatitudeDegrees>28.2742007263004779815673828125</LatitudeDegrees>
              <LongitudeDegrees>-16.63303968496620655059814453125</LongitudeDegrees>
            </Position>
            <AltitudeMeters>3339.39990234375</AltitudeMeters>
            <DistanceMeters>8702.2326390946</DistanceMeters>
          </Trackpoint>
          <Trackpoint>
            <Time>2019-04-08T05:20:35.000Z</Time>
            <Position>
              <LatitudeDegrees>28.27419745735824108123779296875</LatitudeDegrees>
              <LongitudeDegrees>-16.63305602967739105224609375</LongitudeDegrees>
            </Position>
            <AltitudeMeters>3339.60009765625</AltitudeMeters>
            <DistanceMeters>8703.8730545238</DistanceMeters>
          </Trackpoint>
          <Trackpoint>
            <Time>2019-04-08T05:20:43.000Z</Time>
            <Position>
              <LatitudeDegrees>28.27419393695890903472900390625</LatitudeDegrees>
              <LongitudeDegrees>-16.6330843605101108551025390625</LongitudeDegrees>
            </Position>
            <AltitudeMeters>3340.60009765625</AltitudeMeters>
            <DistanceMeters>8706.6759399132</DistanceMeters>
          </Trackpoint>
          <Trackpoint>
            <Time>2019-04-08T05:20:46.000Z</Time>
            <Position>
              <LatitudeDegrees>28.2741965353488922119140625</LatitudeDegrees>
              <LongitudeDegrees>-16.63309651426970958709716796875</LongitudeDegrees>
            </Position>
            <AltitudeMeters>3341</AltitudeMeters>
            <DistanceMeters>8707.9002734828</DistanceMeters>
          </Trackpoint>
          <Trackpoint>
            <Time>2019-04-08T05:20:48.000Z</Time>
            <Position>
              <LatitudeDegrees>28.274202905595302581787109375</LatitudeDegrees>
              <LongitudeDegrees>-16.63309500552713871002197265625</LongitudeDegrees>
            </Position>
            <AltitudeMeters>3341.60009765625</AltitudeMeters>
            <DistanceMeters>8708.6239753785</DistanceMeters>
          </Trackpoint>
          <Trackpoint>
            <Time>2019-04-08T05:20:55.000Z</Time>
            <Position>
              <LatitudeDegrees>28.2742195017635822296142578125</LatitudeDegrees>
              <LongitudeDegrees>-16.6330971010029315948486328125</LongitudeDegrees>
            </Position>
            <AltitudeMeters>3342.60009765625</AltitudeMeters>
            <DistanceMeters>8710.4812554332</DistanceMeters>
          </Trackpoint>
          <Trackpoint>
            <Time>2019-04-08T05:20:58.000Z</Time>
            <Position>
              <LatitudeDegrees>28.27422545291483402252197265625</LatitudeDegrees>
              <LongitudeDegrees>-16.63308821618556976318359375</LongitudeDegrees>
            </Position>
            <AltitudeMeters>3343</AltitudeMeters>
            <DistanceMeters>8711.5730292608</DistanceMeters>
          </Trackpoint>
          <Trackpoint>
            <Time>2019-04-08T05:21:05.000Z</Time>
            <Position>
              <LatitudeDegrees>28.2742215134203433990478515625</LatitudeDegrees>
              <LongitudeDegrees>-16.63306675851345062255859375</LongitudeDegrees>
            </Position>
            <AltitudeMeters>3343.800048828125</AltitudeMeters>
            <DistanceMeters>8713.7211375129</DistanceMeters>
          </Trackpoint>
          <Trackpoint>
            <Time>2019-04-08T05:21:11.000Z</Time>
            <Position>
              <LatitudeDegrees>28.27421505935490131378173828125</LatitudeDegrees>
              <LongitudeDegrees>-16.63308109156787395477294921875</LongitudeDegrees>
            </Position>
            <AltitudeMeters>3344.800048828125</AltitudeMeters>
            <DistanceMeters>8715.2998398593</DistanceMeters>
          </Trackpoint>
          <Trackpoint>
            <Time>2019-04-08T05:21:18.000Z</Time>
            <Position>
              <LatitudeDegrees>28.27423282898962497711181640625</LatitudeDegrees>
              <LongitudeDegrees>-16.63308545015752315521240234375</LongitudeDegrees>
            </Position>
            <AltitudeMeters>3345.39990234375</AltitudeMeters>
            <DistanceMeters>8717.3246002662</DistanceMeters>
          </Trackpoint>
          <Trackpoint>
            <Time>2019-04-08T05:21:24.000Z</Time>
            <Position>
              <LatitudeDegrees>28.27424506656825542449951171875</LatitudeDegrees>
              <LongitudeDegrees>-16.63305728696286678314208984375</LongitudeDegrees>
            </Position>
            <AltitudeMeters>3345.800048828125</AltitudeMeters>
            <DistanceMeters>8720.4038177425</DistanceMeters>
          </Trackpoint>
          <Trackpoint>
            <Time>2019-04-08T05:21:26.000Z</Time>
            <Position>
              <LatitudeDegrees>28.27424640767276287078857421875</LatitudeDegrees>
              <LongitudeDegrees>-16.63305343128740787506103515625</LongitudeDegrees>
            </Position>
            <AltitudeMeters>3345.60009765625</AltitudeMeters>
            <DistanceMeters>8720.8069819472</DistanceMeters>
          </Trackpoint>
          <Trackpoint>
            <Time>2019-04-08T05:21:38.000Z</Time>
            <Position>
              <LatitudeDegrees>28.27427138574421405792236328125</LatitudeDegrees>
              <LongitudeDegrees>-16.63305762223899364471435546875</LongitudeDegrees>
            </Position>
            <AltitudeMeters>3346.39990234375</AltitudeMeters>
            <DistanceMeters>8723.6163033621</DistanceMeters>
          </Trackpoint>
          <Trackpoint>
            <Time>2019-04-08T05:21:41.000Z</Time>
            <Position>
              <LatitudeDegrees>28.2742701284587383270263671875</LatitudeDegrees>
              <LongitudeDegrees>-16.6330642439424991607666015625</LongitudeDegrees>
            </Position>
            <AltitudeMeters>3347</AltitudeMeters>
            <DistanceMeters>8724.2814903627</DistanceMeters>
          </Trackpoint>
          <Trackpoint>
            <Time>2019-04-08T05:21:48.000Z</Time>
            <Position>
              <LatitudeDegrees>28.274282701313495635986328125</LatitudeDegrees>
              <LongitudeDegrees>-16.63309215568006038665771484375</LongitudeDegrees>
            </Position>
            <AltitudeMeters>3347.800048828125</AltitudeMeters>
            <DistanceMeters>8727.3548370663</DistanceMeters>
          </Trackpoint>
          <Trackpoint>
            <Time>2019-04-08T05:21:49.000Z</Time>
            <Position>
              <LatitudeDegrees>28.274282701313495635986328125</LatitudeDegrees>
              <LongitudeDegrees>-16.63309215568006038665771484375</LongitudeDegrees>
            </Position>
            <AltitudeMeters>3348</AltitudeMeters>
            <DistanceMeters>8727.3548370663</DistanceMeters>
          </Trackpoint>
          <Trackpoint>
            <Time>2019-04-08T05:21:57.000Z</Time>
            <Position>
              <LatitudeDegrees>28.27429376542568206787109375</LatitudeDegrees>
              <LongitudeDegrees>-16.63312576711177825927734375</LongitudeDegrees>
            </Position>
            <AltitudeMeters>3348.800048828125</AltitudeMeters>
            <DistanceMeters>8730.870825498</DistanceMeters>
          </Trackpoint>
          <Trackpoint>
            <Time>2019-04-08T05:22:01.000Z</Time>
            <Position>
              <LatitudeDegrees>28.27429711818695068359375</LatitudeDegrees>
              <LongitudeDegrees>-16.633148901164531707763671875</LongitudeDegrees>
            </Position>
            <AltitudeMeters>3349</AltitudeMeters>
            <DistanceMeters>8733.1672498149</DistanceMeters>
          </Trackpoint>
          <Trackpoint>
            <Time>2019-04-08T05:22:05.000Z</Time>
            <Position>
              <LatitudeDegrees>28.2743029855191707611083984375</LatitudeDegrees>
              <LongitudeDegrees>-16.6331661678850650787353515625</LongitudeDegrees>
            </Position>
            <AltitudeMeters>3349.60009765625</AltitudeMeters>
            <DistanceMeters>8734.9802439753</DistanceMeters>
          </Trackpoint>
          <Trackpoint>
            <Time>2019-04-08T05:22:13.000Z</Time>
            <Position>
              <LatitudeDegrees>28.2742946036159992218017578125</LatitudeDegrees>
              <LongitudeDegrees>-16.63319810293614864349365234375</LongitudeDegrees>
            </Position>
            <AltitudeMeters>3350</AltitudeMeters>
            <DistanceMeters>8738.2459016855</DistanceMeters>
          </Trackpoint>
          <Trackpoint>
            <Time>2019-04-08T05:22:14.000Z</Time>
            <Position>
              <LatitudeDegrees>28.27429116703569889068603515625</LatitudeDegrees>
              <LongitudeDegrees>-16.63320514373481273651123046875</LongitudeDegrees>
            </Position>
            <AltitudeMeters>3350.199951171875</AltitudeMeters>
            <DistanceMeters>8739.0409522191</DistanceMeters>
          </Trackpoint>
          <Trackpoint>
            <Time>2019-04-08T05:22:23.000Z</Time>
            <Position>
              <LatitudeDegrees>28.274299800395965576171875</LatitudeDegrees>
              <LongitudeDegrees>-16.633238755166530609130859375</LongitudeDegrees>
            </Position>
            <AltitudeMeters>3351.199951171875</AltitudeMeters>
            <DistanceMeters>8742.4724562164</DistanceMeters>
          </Trackpoint>
          <Trackpoint>
            <Time>2019-04-08T05:22:26.000Z</Time>
            <Position>
              <LatitudeDegrees>28.27430709265172481536865234375</LatitudeDegrees>
              <LongitudeDegrees>-16.63324168883264064788818359375</LongitudeDegrees>
            </Position>
            <AltitudeMeters>3351.60009765625</AltitudeMeters>
            <DistanceMeters>8743.3329597134</DistanceMeters>
          </Trackpoint>
          <Trackpoint>
            <Time>2019-04-08T05:22:31.000Z</Time>
            <Position>
              <LatitudeDegrees>28.2743113674223423004150390625</LatitudeDegrees>
              <LongitudeDegrees>-16.63325023837387561798095703125</LongitudeDegrees>
            </Position>
            <AltitudeMeters>3352.199951171875</AltitudeMeters>
            <DistanceMeters>8744.2926824844</DistanceMeters>
          </Trackpoint>
          <Trackpoint>
            <Time>2019-04-08T05:22:35.000Z</Time>
            <Position>
              <LatitudeDegrees>28.27431145124137401580810546875</LatitudeDegrees>
              <LongitudeDegrees>-16.63326566107571125030517578125</LongitudeDegrees>
            </Position>
            <AltitudeMeters>3352</AltitudeMeters>
            <DistanceMeters>8745.804174906</DistanceMeters>
          </Trackpoint>
          <Trackpoint>
            <Time>2019-04-08T05:22:52.000Z</Time>
            <Position>
              <LatitudeDegrees>28.27433324418962001800537109375</LatitudeDegrees>
              <LongitudeDegrees>-16.63332869298756122589111328125</LongitudeDegrees>
            </Position>
            <AltitudeMeters>3353</AltitudeMeters>
            <DistanceMeters>8752.4417755997</DistanceMeters>
          </Trackpoint>
          <Trackpoint>
            <Time>2019-04-08T05:22:53.000Z</Time>
            <Position>
              <LatitudeDegrees>28.274333663284778594970703125</LatitudeDegrees>
              <LongitudeDegrees>-16.63333388976752758026123046875</LongitudeDegrees>
            </Position>
            <AltitudeMeters>3353.199951171875</AltitudeMeters>
            <DistanceMeters>8752.96225835</DistanceMeters>
          </Trackpoint>
          <Trackpoint>
            <Time>2019-04-08T05:23:04.000Z</Time>
            <Position>
              <LatitudeDegrees>28.2743324898183345794677734375</LatitudeDegrees>
              <LongitudeDegrees>-16.63339390419423580169677734375</LongitudeDegrees>
            </Position>
            <AltitudeMeters>3354.199951171875</AltitudeMeters>
            <DistanceMeters>8758.8462462057</DistanceMeters>
          </Trackpoint>
          <Trackpoint>
            <Time>2019-04-08T05:23:09.000Z</Time>
            <Position>
              <LatitudeDegrees>28.2743324898183345794677734375</LatitudeDegrees>
              <LongitudeDegrees>-16.63342039100825786590576171875</LongitudeDegrees>
            </Position>
            <AltitudeMeters>3355.39990234375</AltitudeMeters>
            <DistanceMeters>8761.4417109092</DistanceMeters>
          </Trackpoint>
          <Trackpoint>
            <Time>2019-04-08T05:23:10.000Z</Time>
            <Position>
              <LatitudeDegrees>28.274332322180271148681640625</LatitudeDegrees>
              <LongitudeDegrees>-16.633429862558841705322265625</LongitudeDegrees>
            </Position>
            <AltitudeMeters>3355.60009765625</AltitudeMeters>
            <DistanceMeters>8762.3727787578</DistanceMeters>
          </Trackpoint>
          <Trackpoint>
            <Time>2019-04-08T05:23:20.000Z</Time>
            <Position>
              <LatitudeDegrees>28.27435604296624660491943359375</LatitudeDegrees>
              <LongitudeDegrees>-16.63344050757586956024169921875</LongitudeDegrees>
            </Position>
            <AltitudeMeters>3356.39990234375</AltitudeMeters>
            <DistanceMeters>8765.2124720977</DistanceMeters>
          </Trackpoint>
          <Trackpoint>
            <Time>2019-04-08T05:23:22.000Z</Time>
            <Position>
              <LatitudeDegrees>28.274355791509151458740234375</LatitudeDegrees>
              <LongitudeDegrees>-16.633450984954833984375</LongitudeDegrees>
            </Position>
            <AltitudeMeters>3356.60009765625</AltitudeMeters>
            <DistanceMeters>8766.2403431713</DistanceMeters>
          </Trackpoint>
          <Trackpoint>
            <Time>2019-04-08T05:23:31.000Z</Time>
            <Position>
              <LatitudeDegrees>28.2743512652814388275146484375</LatitudeDegrees>
              <LongitudeDegrees>-16.633482165634632110595703125</LongitudeDegrees>
            </Position>
            <AltitudeMeters>3357.199951171875</AltitudeMeters>
            <DistanceMeters>8769.3385638316</DistanceMeters>
          </Trackpoint>
          <Trackpoint>
            <Time>2019-04-08T05:23:33.000Z</Time>
            <Position>
              <LatitudeDegrees>28.2743509300053119659423828125</LatitudeDegrees>
              <LongitudeDegrees>-16.63348275236785411834716796875</LongitudeDegrees>
            </Position>
            <AltitudeMeters>3357.39990234375</AltitudeMeters>
            <DistanceMeters>8769.4335905459</DistanceMeters>
          </Trackpoint>
          <Trackpoint>
            <Time>2019-04-08T05:23:44.000Z</Time>
            <Position>
              <LatitudeDegrees>28.27433626167476177215576171875</LatitudeDegrees>
              <LongitudeDegrees>-16.633519716560840606689453125</LongitudeDegrees>
            </Position>
            <AltitudeMeters>3358.199951171875</AltitudeMeters>
            <DistanceMeters>8773.4088432142</DistanceMeters>
          </Trackpoint>
          <Trackpoint>
            <Time>2019-04-08T05:23:46.000Z</Time>
            <Position>
              <LatitudeDegrees>28.2743334956467151641845703125</LatitudeDegrees>
              <LongitudeDegrees>-16.63353119976818561553955078125</LongitudeDegrees>
            </Position>
            <AltitudeMeters>3358.60009765625</AltitudeMeters>
            <DistanceMeters>8774.5804112317</DistanceMeters>
          </Trackpoint>
          <Trackpoint>
            <Time>2019-04-08T05:23:52.000Z</Time>
            <Position>
              <LatitudeDegrees>28.2743244431912899017333984375</LatitudeDegrees>
              <LongitudeDegrees>-16.6335591115057468414306640625</LongitudeDegrees>
            </Position>
            <AltitudeMeters>3359.39990234375</AltitudeMeters>
            <DistanceMeters>8777.4954244278</DistanceMeters>
          </Trackpoint>
          <Trackpoint>
            <Time>2019-04-08T05:23:55.000Z</Time>
            <Position>
              <LatitudeDegrees>28.27432033605873584747314453125</LatitudeDegrees>
              <LongitudeDegrees>-16.63356958888471126556396484375</LongitudeDegrees>
            </Position>
            <AltitudeMeters>3360</AltitudeMeters>
            <DistanceMeters>8778.6197956753</DistanceMeters>
          </Trackpoint>
          <Trackpoint>
            <Time>2019-04-08T05:23:57.000Z</Time>
            <Position>
              <LatitudeDegrees>28.27431480400264263153076171875</LatitudeDegrees>
              <LongitudeDegrees>-16.63357981480658054351806640625</LongitudeDegrees>
            </Position>
            <AltitudeMeters>3360.39990234375</AltitudeMeters>
            <DistanceMeters>8779.7990461883</DistanceMeters>
          </Trackpoint>
          <Trackpoint>
            <Time>2019-04-08T05:24:02.000Z</Time>
            <Position>
              <LatitudeDegrees>28.2742989622056484222412109375</LatitudeDegrees>
              <LongitudeDegrees>-16.63360881619155406951904296875</LongitudeDegrees>
            </Position>
            <AltitudeMeters>3361.39990234375</AltitudeMeters>
            <DistanceMeters>8783.145282102</DistanceMeters>
          </Trackpoint>
          <Trackpoint>
            <Time>2019-04-08T05:24:07.000Z</Time>
            <Position>
              <LatitudeDegrees>28.27428814955055713653564453125</LatitudeDegrees>
              <LongitudeDegrees>-16.633629016578197479248046875</LongitudeDegrees>
            </Position>
            <AltitudeMeters>3361.800048828125</AltitudeMeters>
            <DistanceMeters>8785.4612841331</DistanceMeters>
          </Trackpoint>
          <Trackpoint>
            <Time>2019-04-08T05:24:10.000Z</Time>
            <Position>
              <LatitudeDegrees>28.274278677999973297119140625</LatitudeDegrees>
              <LongitudeDegrees>-16.6336496360599994659423828125</LongitudeDegrees>
            </Position>
            <AltitudeMeters>3362.39990234375</AltitudeMeters>
            <DistanceMeters>8787.7399446947</DistanceMeters>
          </Trackpoint>
          <Trackpoint>
            <Time>2019-04-08T05:24:18.000Z</Time>
            <Position>
              <LatitudeDegrees>28.2742711342871189117431640625</LatitudeDegrees>
              <LongitudeDegrees>-16.63368232548236846923828125</LongitudeDegrees>
            </Position>
            <AltitudeMeters>3363.60009765625</AltitudeMeters>
            <DistanceMeters>8791.0522766345</DistanceMeters>
          </Trackpoint>
          <Trackpoint>
            <Time>2019-04-08T05:24:24.000Z</Time>
            <Position>
              <LatitudeDegrees>28.27426065690815448760986328125</LatitudeDegrees>
              <LongitudeDegrees>-16.63371275179088115692138671875</LongitudeDegrees>
            </Position>
            <AltitudeMeters>3364.39990234375</AltitudeMeters>
            <DistanceMeters>8794.2551139455</DistanceMeters>
          </Trackpoint>
          <Trackpoint>
            <Time>2019-04-08T05:24:28.000Z</Time>
            <Position>
              <LatitudeDegrees>28.27425059862434864044189453125</LatitudeDegrees>
              <LongitudeDegrees>-16.6337331198155879974365234375</LongitudeDegrees>
            </Position>
            <AltitudeMeters>3364.60009765625</AltitudeMeters>
            <DistanceMeters>8796.5436602827</DistanceMeters>
          </Trackpoint>
          <Trackpoint>
            <Time>2019-04-08T05:24:34.000Z</Time>
            <Position>
              <LatitudeDegrees>28.27424121089279651641845703125</LatitudeDegrees>
              <LongitudeDegrees>-16.6337612830102443695068359375</LongitudeDegrees>
            </Position>
            <AltitudeMeters>3365.60009765625</AltitudeMeters>
            <DistanceMeters>8799.494082912</DistanceMeters>
          </Trackpoint>
          <Trackpoint>
            <Time>2019-04-08T05:24:42.000Z</Time>
            <Position>
              <LatitudeDegrees>28.2742101140320301055908203125</LatitudeDegrees>
              <LongitudeDegrees>-16.63378424942493438720703125</LongitudeDegrees>
            </Position>
            <AltitudeMeters>3366.60009765625</AltitudeMeters>
            <DistanceMeters>8803.6241936131</DistanceMeters>
          </Trackpoint>
          <Trackpoint>
            <Time>2019-04-08T05:24:43.000Z</Time>
            <Position>
              <LatitudeDegrees>28.2742101140320301055908203125</LatitudeDegrees>
              <LongitudeDegrees>-16.63378424942493438720703125</LongitudeDegrees>
            </Position>
            <AltitudeMeters>3366.800048828125</AltitudeMeters>
            <DistanceMeters>8803.6241936131</DistanceMeters>
          </Trackpoint>
          <Trackpoint>
            <Time>2019-04-08T05:24:50.000Z</Time>
            <Position>
              <LatitudeDegrees>28.2742124609649181365966796875</LatitudeDegrees>
              <LongitudeDegrees>-16.63381467573344707489013671875</LongitudeDegrees>
            </Position>
            <AltitudeMeters>3367.60009765625</AltitudeMeters>
            <DistanceMeters>8806.6186661724</DistanceMeters>
          </Trackpoint>
          <Trackpoint>
            <Time>2019-04-08T05:24:52.000Z</Time>
            <Position>
              <LatitudeDegrees>28.274218998849391937255859375</LatitudeDegrees>
              <LongitudeDegrees>-16.63382892496883869171142578125</LongitudeDegrees>
            </Position>
            <AltitudeMeters>3367.800048828125</AltitudeMeters>
            <DistanceMeters>8808.1945059556</DistanceMeters>
          </Trackpoint>
          <Trackpoint>
            <Time>2019-04-08T05:24:57.000Z</Time>
            <Position>
              <LatitudeDegrees>28.274218328297138214111328125</LatitudeDegrees>
              <LongitudeDegrees>-16.63384652696549892425537109375</LongitudeDegrees>
            </Position>
            <AltitudeMeters>3368.800048828125</AltitudeMeters>
            <DistanceMeters>8809.9233654938</DistanceMeters>
          </Trackpoint>
          <Trackpoint>
            <Time>2019-04-08T05:25:07.000Z</Time>
            <Position>
              <LatitudeDegrees>28.2741844654083251953125</LatitudeDegrees>
              <LongitudeDegrees>-16.63386966101825237274169921875</LongitudeDegrees>
            </Position>
            <AltitudeMeters>3369.60009765625</AltitudeMeters>
            <DistanceMeters>8814.3213677383</DistanceMeters>
          </Trackpoint>
          <Trackpoint>
            <Time>2019-04-08T05:25:08.000Z</Time>
            <Position>
              <LatitudeDegrees>28.27417516149580478668212890625</LatitudeDegrees>
              <LongitudeDegrees>-16.63387142121791839599609375</LongitudeDegrees>
            </Position>
            <AltitudeMeters>3369.800048828125</AltitudeMeters>
            <DistanceMeters>8815.3709721048</DistanceMeters>
          </Trackpoint>
          <Trackpoint>
            <Time>2019-04-08T05:25:19.000Z</Time>
            <Position>
              <LatitudeDegrees>28.274133838713169097900390625</LatitudeDegrees>
              <LongitudeDegrees>-16.63387167267501354217529296875</LongitudeDegrees>
            </Position>
            <AltitudeMeters>3371</AltitudeMeters>
            <DistanceMeters>8819.9697153061</DistanceMeters>
          </Trackpoint>
          <Trackpoint>
            <Time>2019-04-08T05:25:21.000Z</Time>
            <Position>
              <LatitudeDegrees>28.274128139019012451171875</LatitudeDegrees>
              <LongitudeDegrees>-16.6338799707591533660888671875</LongitudeDegrees>
            </Position>
            <AltitudeMeters>3371.199951171875</AltitudeMeters>
            <DistanceMeters>8821.0019696452</DistanceMeters>
          </Trackpoint>
          <Trackpoint>
            <Time>2019-04-08T05:25:28.000Z</Time>
            <Position>
              <LatitudeDegrees>28.27413023449480533599853515625</LatitudeDegrees>
              <LongitudeDegrees>-16.63390151225030422210693359375</LongitudeDegrees>
            </Position>
            <AltitudeMeters>3371.800048828125</AltitudeMeters>
            <DistanceMeters>8823.1268315752</DistanceMeters>
          </Trackpoint>
          <Trackpoint>
            <Time>2019-04-08T05:25:38.000Z</Time>
            <Position>
              <LatitudeDegrees>28.27413207851350307464599609375</LatitudeDegrees>
              <LongitudeDegrees>-16.6339292563498020172119140625</LongitudeDegrees>
            </Position>
            <AltitudeMeters>3372.60009765625</AltitudeMeters>
            <DistanceMeters>8825.8546114399</DistanceMeters>
          </Trackpoint>
          <Trackpoint>
            <Time>2019-04-08T05:25:40.000Z</Time>
            <Position>
              <LatitudeDegrees>28.27413149178028106689453125</LatitudeDegrees>
              <LongitudeDegrees>-16.63393369875848293304443359375</LongitudeDegrees>
            </Position>
            <AltitudeMeters>3372.800048828125</AltitudeMeters>
            <DistanceMeters>8826.3003262386</DistanceMeters>
          </Trackpoint>
          <Trackpoint>
            <Time>2019-04-08T05:25:47.000Z</Time>
            <Position>
              <LatitudeDegrees>28.27413140796124935150146484375</LatitudeDegrees>
              <LongitudeDegrees>-16.6339466907083988189697265625</LongitudeDegrees>
            </Position>
            <AltitudeMeters>3373.800048828125</AltitudeMeters>
            <DistanceMeters>8827.5752433966</DistanceMeters>
          </Trackpoint>
          <Trackpoint>
            <Time>2019-04-08T05:25:48.000Z</Time>
            <Position>
              <LatitudeDegrees>28.27413224615156650543212890625</LatitudeDegrees>
              <LongitudeDegrees>-16.63394543342292308807373046875</LongitudeDegrees>
            </Position>
            <AltitudeMeters>3374</AltitudeMeters>
            <DistanceMeters>8827.739834494</DistanceMeters>
          </Trackpoint>
          <Trackpoint>
            <Time>2019-04-08T05:25:59.000Z</Time>
            <Position>
              <LatitudeDegrees>28.27410659752786159515380859375</LatitudeDegrees>
              <LongitudeDegrees>-16.633979380130767822265625</LongitudeDegrees>
            </Position>
            <AltitudeMeters>3374.800048828125</AltitudeMeters>
            <DistanceMeters>8832.1234406205</DistanceMeters>
          </Trackpoint>
          <Trackpoint>
            <Time>2019-04-08T05:26:02.000Z</Time>
            <Position>
              <LatitudeDegrees>28.27409737743437290191650390625</LatitudeDegrees>
              <LongitudeDegrees>-16.633983068168163299560546875</LongitudeDegrees>
            </Position>
            <AltitudeMeters>3375</AltitudeMeters>
            <DistanceMeters>8833.211071079</DistanceMeters>
          </Trackpoint>
          <Trackpoint>
            <Time>2019-04-08T05:26:07.000Z</Time>
            <Position>
              <LatitudeDegrees>28.2740823738276958465576171875</LatitudeDegrees>
              <LongitudeDegrees>-16.6339889355003833770751953125</LongitudeDegrees>
            </Position>
            <AltitudeMeters>3376.199951171875</AltitudeMeters>
            <DistanceMeters>8834.9761139604</DistanceMeters>
          </Trackpoint>
          <Trackpoint>
            <Time>2019-04-08T05:26:16.000Z</Time>
            <Position>
              <LatitudeDegrees>28.2740381173789501190185546875</LatitudeDegrees>
              <LongitudeDegrees>-16.63399019278585910797119140625</LongitudeDegrees>
            </Position>
            <AltitudeMeters>3377</AltitudeMeters>
            <DistanceMeters>8839.903778271</DistanceMeters>
          </Trackpoint>
          <Trackpoint>
            <Time>2019-04-08T05:26:19.000Z</Time>
            <Position>
              <LatitudeDegrees>28.27403468079864978790283203125</LatitudeDegrees>
              <LongitudeDegrees>-16.63399538956582546234130859375</LongitudeDegrees>
            </Position>
            <AltitudeMeters>3377.199951171875</AltitudeMeters>
            <DistanceMeters>8840.548280805</DistanceMeters>
          </Trackpoint>
          <Trackpoint>
            <Time>2019-04-08T05:26:28.000Z</Time>
            <Position>
              <LatitudeDegrees>28.2740324176847934722900390625</LatitudeDegrees>
              <LongitudeDegrees>-16.63401357829570770263671875</LongitudeDegrees>
            </Position>
            <AltitudeMeters>3378.199951171875</AltitudeMeters>
            <DistanceMeters>8842.3462706178</DistanceMeters>
          </Trackpoint>
          <Trackpoint>
            <Time>2019-04-08T05:26:30.000Z</Time>
            <Position>
              <LatitudeDegrees>28.2740330882370471954345703125</LatitudeDegrees>
              <LongitudeDegrees>-16.6340124048292636871337890625</LongitudeDegrees>
            </Position>
            <AltitudeMeters>3378.39990234375</AltitudeMeters>
            <DistanceMeters>8842.4806586861</DistanceMeters>
          </Trackpoint>
          <Trackpoint>
            <Time>2019-04-08T05:26:38.000Z</Time>
            <Position>
              <LatitudeDegrees>28.27404926531016826629638671875</LatitudeDegrees>
              <LongitudeDegrees>-16.6340331919491291046142578125</LongitudeDegrees>
            </Position>
            <AltitudeMeters>3378.800048828125</AltitudeMeters>
            <DistanceMeters>8845.2018096712</DistanceMeters>
          </Trackpoint>
          <Trackpoint>
            <Time>2019-04-08T05:26:43.000Z</Time>
            <Position>
              <LatitudeDegrees>28.27404926531016826629638671875</LatitudeDegrees>
              <LongitudeDegrees>-16.6340378858149051666259765625</LongitudeDegrees>
            </Position>
            <AltitudeMeters>3379.199951171875</AltitudeMeters>
            <DistanceMeters>8845.6673435955</DistanceMeters>
          </Trackpoint>
          <Trackpoint>
            <Time>2019-04-08T05:26:51.000Z</Time>
            <Position>
              <LatitudeDegrees>28.2740471698343753814697265625</LatitudeDegrees>
              <LongitudeDegrees>-16.63403847254812717437744140625</LongitudeDegrees>
            </Position>
            <AltitudeMeters>3379.60009765625</AltitudeMeters>
            <DistanceMeters>8845.9001105577</DistanceMeters>
          </Trackpoint>
          <Trackpoint>
            <Time>2019-04-08T05:27:03.000Z</Time>
            <Position>
              <LatitudeDegrees>28.27404775656759738922119140625</LatitudeDegrees>
              <LongitudeDegrees>-16.6340382210910320281982421875</LongitudeDegrees>
            </Position>
            <AltitudeMeters>3379.60009765625</AltitudeMeters>
            <DistanceMeters>8845.9001105577</DistanceMeters>
          </Trackpoint>
          <Trackpoint>
            <Time>2019-04-08T05:27:23.000Z</Time>
            <Position>
              <LatitudeDegrees>28.27404758892953395843505859375</LatitudeDegrees>
              <LongitudeDegrees>-16.63404040038585662841796875</LongitudeDegrees>
            </Position>
            <AltitudeMeters>3379.60009765625</AltitudeMeters>
            <DistanceMeters>8846.1125967507</DistanceMeters>
          </Trackpoint>
          <Trackpoint>
            <Time>2019-04-08T05:28:01.000Z</Time>
            <Position>
              <LatitudeDegrees>28.2740461640059947967529296875</LatitudeDegrees>
              <LongitudeDegrees>-16.6340405680239200592041015625</LongitudeDegrees>
            </Position>
            <AltitudeMeters>3379.39990234375</AltitudeMeters>
            <DistanceMeters>8846.2469848189</DistanceMeters>
          </Trackpoint>
          <Trackpoint>
            <Time>2019-04-08T05:28:42.000Z</Time>
            <Position>
              <LatitudeDegrees>28.2740463316440582275390625</LatitudeDegrees>
              <LongitudeDegrees>-16.63404266349971294403076171875</LongitudeDegrees>
            </Position>
            <AltitudeMeters>3378.60009765625</AltitudeMeters>
            <DistanceMeters>8846.4594710119</DistanceMeters>
          </Trackpoint>
          <Trackpoint>
            <Time>2019-04-08T05:29:11.000Z</Time>
            <Position>
              <LatitudeDegrees>28.27402428723871707916259765625</LatitudeDegrees>
              <LongitudeDegrees>-16.6340647079050540924072265625</LongitudeDegrees>
            </Position>
            <AltitudeMeters>3379.39990234375</AltitudeMeters>
            <DistanceMeters>8849.7292738362</DistanceMeters>
          </Trackpoint>
          <Trackpoint>
            <Time>2019-04-08T05:29:16.000Z</Time>
            <Position>
              <LatitudeDegrees>28.27401825226843357086181640625</LatitudeDegrees>
              <LongitudeDegrees>-16.6340730898082256317138671875</LongitudeDegrees>
            </Position>
            <AltitudeMeters>3380</AltitudeMeters>
            <DistanceMeters>8850.7874465438</DistanceMeters>
          </Trackpoint>
          <Trackpoint>
            <Time>2019-04-08T05:29:29.000Z</Time>
            <Position>
              <LatitudeDegrees>28.2740213535726070404052734375</LatitudeDegrees>
              <LongitudeDegrees>-16.63408876396715641021728515625</LongitudeDegrees>
            </Position>
            <AltitudeMeters>3380.199951171875</AltitudeMeters>
            <DistanceMeters>8852.3604185542</DistanceMeters>
          </Trackpoint>
          <Trackpoint>
            <Time>2019-04-08T05:29:34.000Z</Time>
            <Position>
              <LatitudeDegrees>28.27403266914188861846923828125</LatitudeDegrees>
              <LongitudeDegrees>-16.6340989060699939727783203125</LongitudeDegrees>
            </Position>
            <AltitudeMeters>3381.199951171875</AltitudeMeters>
            <DistanceMeters>8853.9618372097</DistanceMeters>
          </Trackpoint>
          <Trackpoint>
            <Time>2019-04-08T05:29:40.000Z</Time>
            <Position>
              <LatitudeDegrees>28.27403300441801548004150390625</LatitudeDegrees>
              <LongitudeDegrees>-16.63410075008869171142578125</LongitudeDegrees>
            </Position>
            <AltitudeMeters>3381.39990234375</AltitudeMeters>
            <DistanceMeters>8854.1264283071</DistanceMeters>
          </Trackpoint>
          <Trackpoint>
            <Time>2019-04-08T05:29:48.000Z</Time>
            <Position>
              <LatitudeDegrees>28.274042643606662750244140625</LatitudeDegrees>
              <LongitudeDegrees>-16.634107790887355804443359375</LongitudeDegrees>
            </Position>
            <AltitudeMeters>3381.199951171875</AltitudeMeters>
            <DistanceMeters>8855.4013454651</DistanceMeters>
          </Trackpoint>
          <Trackpoint>
            <Time>2019-04-08T05:29:49.000Z</Time>
            <Position>
              <LatitudeDegrees>28.274042643606662750244140625</LatitudeDegrees>
              <LongitudeDegrees>-16.634107790887355804443359375</LongitudeDegrees>
            </Position>
            <AltitudeMeters>3381.199951171875</AltitudeMeters>
            <DistanceMeters>8855.4013454651</DistanceMeters>
          </Trackpoint>
          <Trackpoint>
            <Time>2019-04-08T05:29:55.000Z</Time>
            <Position>
              <LatitudeDegrees>28.27406175434589385986328125</LatitudeDegrees>
              <LongitudeDegrees>-16.63411282002925872802734375</LongitudeDegrees>
            </Position>
            <AltitudeMeters>3382.199951171875</AltitudeMeters>
            <DistanceMeters>8857.5848931203</DistanceMeters>
          </Trackpoint>
          <Trackpoint>
            <Time>2019-04-08T05:29:56.000Z</Time>
            <Position>
              <LatitudeDegrees>28.2740656100213527679443359375</LatitudeDegrees>
              <LongitudeDegrees>-16.6341190226376056671142578125</LongitudeDegrees>
            </Position>
            <AltitudeMeters>3382.39990234375</AltitudeMeters>
            <DistanceMeters>8858.3331342175</DistanceMeters>
          </Trackpoint>
          <Trackpoint>
            <Time>2019-04-08T05:30:00.000Z</Time>
            <Position>
              <LatitudeDegrees>28.2740642689168453216552734375</LatitudeDegrees>
              <LongitudeDegrees>-16.63413922302424907684326171875</LongitudeDegrees>
            </Position>
            <AltitudeMeters>3383.39990234375</AltitudeMeters>
            <DistanceMeters>8860.3196244405</DistanceMeters>
          </Trackpoint>
          <Trackpoint>
            <Time>2019-04-08T05:30:06.000Z</Time>
            <Position>
              <LatitudeDegrees>28.27404574491083621978759765625</LatitudeDegrees>
              <LongitudeDegrees>-16.6341599263250827789306640625</LongitudeDegrees>
            </Position>
            <AltitudeMeters>3384.199951171875</AltitudeMeters>
            <DistanceMeters>8863.2128719002</DistanceMeters>
          </Trackpoint>
          <Trackpoint>
            <Time>2019-04-08T05:30:07.000Z</Time>
            <Position>
              <LatitudeDegrees>28.27404574491083621978759765625</LatitudeDegrees>
              <LongitudeDegrees>-16.6341599263250827789306640625</LongitudeDegrees>
            </Position>
            <AltitudeMeters>3384.39990234375</AltitudeMeters>
            <DistanceMeters>8863.3078986146</DistanceMeters>
          </Trackpoint>
          <Trackpoint>
            <Time>2019-04-08T05:30:11.000Z</Time>
            <Position>
              <LatitudeDegrees>28.27403493225574493408203125</LatitudeDegrees>
              <LongitudeDegrees>-16.63417585194110870361328125</LongitudeDegrees>
            </Position>
            <AltitudeMeters>3385.39990234375</AltitudeMeters>
            <DistanceMeters>8865.2807044711</DistanceMeters>
          </Trackpoint>
          <Trackpoint>
            <Time>2019-04-08T05:30:19.000Z</Time>
            <Position>
              <LatitudeDegrees>28.27402847819030284881591796875</LatitudeDegrees>
              <LongitudeDegrees>-16.634188257157802581787109375</LongitudeDegrees>
            </Position>
            <AltitudeMeters>3385.199951171875</AltitudeMeters>
            <DistanceMeters>8866.6965706267</DistanceMeters>
          </Trackpoint>
          <Trackpoint>
            <Time>2019-04-08T05:30:30.000Z</Time>
            <Position>
              <LatitudeDegrees>28.27399428002536296844482421875</LatitudeDegrees>
              <LongitudeDegrees>-16.63422052748501300811767578125</LongitudeDegrees>
            </Position>
            <AltitudeMeters>3385.800048828125</AltitudeMeters>
            <DistanceMeters>8871.6452641225</DistanceMeters>
          </Trackpoint>
          <Trackpoint>
            <Time>2019-04-08T05:30:33.000Z</Time>
            <Position>
              <LatitudeDegrees>28.2739953696727752685546875</LatitudeDegrees>
              <LongitudeDegrees>-16.6342382133007049560546875</LongitudeDegrees>
            </Position>
            <AltitudeMeters>3386.39990234375</AltitudeMeters>
            <DistanceMeters>8873.3845385715</DistanceMeters>
          </Trackpoint>
          <Trackpoint>
            <Time>2019-04-08T05:30:39.000Z</Time>
            <Position>
              <LatitudeDegrees>28.27400048263370990753173828125</LatitudeDegrees>
              <LongitudeDegrees>-16.63426646031439304351806640625</LongitudeDegrees>
            </Position>
            <AltitudeMeters>3387.60009765625</AltitudeMeters>
            <DistanceMeters>8876.2130801974</DistanceMeters>
          </Trackpoint>
          <Trackpoint>
            <Time>2019-04-08T05:30:40.000Z</Time>
            <Position>
              <LatitudeDegrees>28.27400333248078823089599609375</LatitudeDegrees>
              <LongitudeDegrees>-16.63427048362791538238525390625</LongitudeDegrees>
            </Position>
            <AltitudeMeters>3387.800048828125</AltitudeMeters>
            <DistanceMeters>8876.7159143056</DistanceMeters>
          </Trackpoint>
          <Trackpoint>
            <Time>2019-04-08T05:30:47.000Z</Time>
            <Position>
              <LatitudeDegrees>28.27401154674589633941650390625</LatitudeDegrees>
              <LongitudeDegrees>-16.6342900134623050689697265625</LongitudeDegrees>
            </Position>
            <AltitudeMeters>3388.800048828125</AltitudeMeters>
            <DistanceMeters>8878.8365222536</DistanceMeters>
          </Trackpoint>
          <Trackpoint>
            <Time>2019-04-08T05:30:55.000Z</Time>
            <Position>
              <LatitudeDegrees>28.2740213535726070404052734375</LatitudeDegrees>
              <LongitudeDegrees>-16.634327061474323272705078125</LongitudeDegrees>
            </Position>
            <AltitudeMeters>3389.39990234375</AltitudeMeters>
            <DistanceMeters>8882.6280762489</DistanceMeters>
          </Trackpoint>
          <Trackpoint>
            <Time>2019-04-08T05:30:58.000Z</Time>
            <Position>
              <LatitudeDegrees>28.27402160502970218658447265625</LatitudeDegrees>
              <LongitudeDegrees>-16.63434826768934726715087890625</LongitudeDegrees>
            </Position>
            <AltitudeMeters>3390</AltitudeMeters>
            <DistanceMeters>8884.7078374411</DistanceMeters>
          </Trackpoint>
          <Trackpoint>
            <Time>2019-04-08T05:31:03.000Z</Time>
            <Position>
              <LatitudeDegrees>28.274025209248065948486328125</LatitudeDegrees>
              <LongitudeDegrees>-16.6343718208372592926025390625</LongitudeDegrees>
            </Position>
            <AltitudeMeters>3390.800048828125</AltitudeMeters>
            <DistanceMeters>8887.0490457619</DistanceMeters>
          </Trackpoint>
          <Trackpoint>
            <Time>2019-04-08T05:31:07.000Z</Time>
            <Position>
              <LatitudeDegrees>28.27402143739163875579833984375</LatitudeDegrees>
              <LongitudeDegrees>-16.6343825496733188629150390625</LongitudeDegrees>
            </Position>
            <AltitudeMeters>3391.199951171875</AltitudeMeters>
            <DistanceMeters>8888.1853999899</DistanceMeters>
          </Trackpoint>
          <Trackpoint>
            <Time>2019-04-08T05:31:11.000Z</Time>
            <Position>
              <LatitudeDegrees>28.274029232561588287353515625</LatitudeDegrees>
              <LongitudeDegrees>-16.63440920412540435791015625</LongitudeDegrees>
            </Position>
            <AltitudeMeters>3392</AltitudeMeters>
            <DistanceMeters>8890.9378959729</DistanceMeters>
          </Trackpoint>
          <Trackpoint>
            <Time>2019-04-08T05:31:20.000Z</Time>
            <Position>
              <LatitudeDegrees>28.27403082512319087982177734375</LatitudeDegrees>
              <LongitudeDegrees>-16.63445538841187953948974609375</LongitudeDegrees>
            </Position>
            <AltitudeMeters>3392.199951171875</AltitudeMeters>
            <DistanceMeters>8895.4673919361</DistanceMeters>
          </Trackpoint>
          <Trackpoint>
            <Time>2019-04-08T05:31:22.000Z</Time>
            <Position>
              <LatitudeDegrees>28.274026215076446533203125</LatitudeDegrees>
              <LongitudeDegrees>-16.6344640217721462249755859375</LongitudeDegrees>
            </Position>
            <AltitudeMeters>3392.39990234375</AltitudeMeters>
            <DistanceMeters>8896.4549385203</DistanceMeters>
          </Trackpoint>
          <Trackpoint>
            <Time>2019-04-08T05:31:28.000Z</Time>
            <Position>
              <LatitudeDegrees>28.27403702773153781890869140625</LatitudeDegrees>
              <LongitudeDegrees>-16.63449377752840518951416015625</LongitudeDegrees>
            </Position>
            <AltitudeMeters>3393.199951171875</AltitudeMeters>
            <DistanceMeters>8899.6109129051</DistanceMeters>
          </Trackpoint>
          <Trackpoint>
            <Time>2019-04-08T05:31:32.000Z</Time>
            <Position>
              <LatitudeDegrees>28.2740471698343753814697265625</LatitudeDegrees>
              <LongitudeDegrees>-16.63450936786830425262451171875</LongitudeDegrees>
            </Position>
            <AltitudeMeters>3393.39990234375</AltitudeMeters>
            <DistanceMeters>8901.509070038</DistanceMeters>
          </Trackpoint>
          <Trackpoint>
            <Time>2019-04-08T05:31:42.000Z</Time>
            <Position>
              <LatitudeDegrees>28.2740280590951442718505859375</LatitudeDegrees>
              <LongitudeDegrees>-16.6345612518489360809326171875</LongitudeDegrees>
            </Position>
            <AltitudeMeters>3393.800048828125</AltitudeMeters>
            <DistanceMeters>8907.0214386064</DistanceMeters>
          </Trackpoint>
          <Trackpoint>
            <Time>2019-04-08T05:31:45.000Z</Time>
            <Position>
              <LatitudeDegrees>28.274022527039051055908203125</LatitudeDegrees>
              <LongitudeDegrees>-16.634577177464962005615234375</LongitudeDegrees>
            </Position>
            <AltitudeMeters>3394.199951171875</AltitudeMeters>
            <DistanceMeters>8908.6999450409</DistanceMeters>
          </Trackpoint>
          <Trackpoint>
            <Time>2019-04-08T05:31:50.000Z</Time>
            <Position>
              <LatitudeDegrees>28.2740206830203533172607421875</LatitudeDegrees>
              <LongitudeDegrees>-16.6346034966409206390380859375</LongitudeDegrees>
            </Position>
            <AltitudeMeters>3395.60009765625</AltitudeMeters>
            <DistanceMeters>8911.2884420413</DistanceMeters>
          </Trackpoint>
          <Trackpoint>
            <Time>2019-04-08T05:31:57.000Z</Time>
            <Position>
              <LatitudeDegrees>28.27402814291417598724365234375</LatitudeDegrees>
              <LongitudeDegrees>-16.634622775018215179443359375</LongitudeDegrees>
            </Position>
            <AltitudeMeters>3396.60009765625</AltitudeMeters>
            <DistanceMeters>8913.3551365417</DistanceMeters>
          </Trackpoint>
          <Trackpoint>
            <Time>2019-04-08T05:31:59.000Z</Time>
            <Position>
              <LatitudeDegrees>28.274034596979618072509765625</LatitudeDegrees>
              <LongitudeDegrees>-16.63463174365460872650146484375</LongitudeDegrees>
            </Position>
            <AltitudeMeters>3397</AltitudeMeters>
            <DistanceMeters>8914.4875105325</DistanceMeters>
          </Trackpoint>
          <Trackpoint>
            <Time>2019-04-08T05:32:05.000Z</Time>
            <Position>
              <LatitudeDegrees>28.27404943294823169708251953125</LatitudeDegrees>
              <LongitudeDegrees>-16.6346477530896663665771484375</LongitudeDegrees>
            </Position>
            <AltitudeMeters>3398</AltitudeMeters>
            <DistanceMeters>8916.764188788</DistanceMeters>
          </Trackpoint>
          <Trackpoint>
            <Time>2019-04-08T05:32:11.000Z</Time>
            <Position>
              <LatitudeDegrees>28.2740656100213527679443359375</LatitudeDegrees>
              <LongitudeDegrees>-16.63467197678983211517333984375</LongitudeDegrees>
            </Position>
            <AltitudeMeters>3398.39990234375</AltitudeMeters>
            <DistanceMeters>8919.7435452864</DistanceMeters>
          </Trackpoint>
          <Trackpoint>
            <Time>2019-04-08T05:32:19.000Z</Time>
            <Position>
              <LatitudeDegrees>28.27407575212419033050537109375</LatitudeDegrees>
              <LongitudeDegrees>-16.6347148083150386810302734375</LongitudeDegrees>
            </Position>
            <AltitudeMeters>3453.800048828125</AltitudeMeters>
            <DistanceMeters>8924.0909525593</DistanceMeters>
          </Trackpoint>
          <Trackpoint>
            <Time>2019-04-08T05:32:28.000Z</Time>
            <Position>
              <LatitudeDegrees>28.27405144460499286651611328125</LatitudeDegrees>
              <LongitudeDegrees>-16.63476484827697277069091796875</LongitudeDegrees>
            </Position>
            <AltitudeMeters>3400</AltitudeMeters>
            <DistanceMeters>8929.6918886924</DistanceMeters>
          </Trackpoint>
          <Trackpoint>
            <Time>2019-04-08T05:32:29.000Z</Time>
            <Position>
              <LatitudeDegrees>28.27404926531016826629638671875</LatitudeDegrees>
              <LongitudeDegrees>-16.63476820103824138641357421875</LongitudeDegrees>
            </Position>
            <AltitudeMeters>3400.199951171875</AltitudeMeters>
            <DistanceMeters>8930.0950528971</DistanceMeters>
          </Trackpoint>
          <Trackpoint>
            <Time>2019-04-08T05:32:34.000Z</Time>
            <Position>
              <LatitudeDegrees>28.2740543782711029052734375</LatitudeDegrees>
              <LongitudeDegrees>-16.6347808577120304107666015625</LongitudeDegrees>
            </Position>
            <AltitudeMeters>3401.199951171875</AltitudeMeters>
            <DistanceMeters>8931.4589428294</DistanceMeters>
          </Trackpoint>
          <Trackpoint>
            <Time>2019-04-08T05:32:39.000Z</Time>
            <Position>
              <LatitudeDegrees>28.274065442383289337158203125</LatitudeDegrees>
              <LongitudeDegrees>-16.6347909159958362579345703125</LongitudeDegrees>
            </Position>
            <AltitudeMeters>3402</AltitudeMeters>
            <DistanceMeters>8933.0376451758</DistanceMeters>
          </Trackpoint>
          <Trackpoint>
            <Time>2019-04-08T05:32:40.000Z</Time>
            <Position>
              <LatitudeDegrees>28.27406954951584339141845703125</LatitudeDegrees>
              <LongitudeDegrees>-16.634793765842914581298828125</LongitudeDegrees>
            </Position>
            <AltitudeMeters>3402.39990234375</AltitudeMeters>
            <DistanceMeters>8933.5751974488</DistanceMeters>
          </Trackpoint>
          <Trackpoint>
            <Time>2019-04-08T05:32:47.000Z</Time>
            <Position>
              <LatitudeDegrees>28.2740780152380466461181640625</LatitudeDegrees>
              <LongitudeDegrees>-16.6348127089440822601318359375</LongitudeDegrees>
            </Position>
            <AltitudeMeters>3403</AltitudeMeters>
            <DistanceMeters>8935.6571284499</DistanceMeters>
          </Trackpoint>
          <Trackpoint>
            <Time>2019-04-08T05:32:50.000Z</Time>
            <Position>
              <LatitudeDegrees>28.27407156117260456085205078125</LatitudeDegrees>
              <LongitudeDegrees>-16.63482519797980785369873046875</LongitudeDegrees>
            </Position>
            <AltitudeMeters>3403.39990234375</AltitudeMeters>
            <DistanceMeters>8937.0761799102</DistanceMeters>
          </Trackpoint>
          <Trackpoint>
            <Time>2019-04-08T05:32:55.000Z</Time>
            <Position>
              <LatitudeDegrees>28.274080194532871246337890625</LatitudeDegrees>
              <LongitudeDegrees>-16.63485436700284481048583984375</LongitudeDegrees>
            </Position>
            <AltitudeMeters>3404</AltitudeMeters>
            <DistanceMeters>8940.0916876583</DistanceMeters>
          </Trackpoint>
          <Trackpoint>
            <Time>2019-04-08T05:32:57.000Z</Time>
            <Position>
              <LatitudeDegrees>28.2740813679993152618408203125</LatitudeDegrees>
              <LongitudeDegrees>-16.63485906086862087249755859375</LongitudeDegrees>
            </Position>
            <AltitudeMeters>3404.60009765625</AltitudeMeters>
            <DistanceMeters>8940.5572215826</DistanceMeters>
          </Trackpoint>
          <Trackpoint>
            <Time>2019-04-08T05:33:08.000Z</Time>
            <Position>
              <LatitudeDegrees>28.2741133868694305419921875</LatitudeDegrees>
              <LongitudeDegrees>-16.6349290497601032257080078125</LongitudeDegrees>
            </Position>
            <AltitudeMeters>3405.199951171875</AltitudeMeters>
            <DistanceMeters>8948.2883324978</DistanceMeters>
          </Trackpoint>
          <Trackpoint>
            <Time>2019-04-08T05:33:10.000Z</Time>
            <Position>
              <LatitudeDegrees>28.27411883510649204254150390625</LatitudeDegrees>
              <LongitudeDegrees>-16.6349394433200359344482421875</LongitudeDegrees>
            </Position>
            <AltitudeMeters>3405.60009765625</AltitudeMeters>
            <DistanceMeters>8949.4752157798</DistanceMeters>
          </Trackpoint>
          <Trackpoint>
            <Time>2019-04-08T05:33:15.000Z</Time>
            <Position>
              <LatitudeDegrees>28.2741279713809490203857421875</LatitudeDegrees>
              <LongitudeDegrees>-16.63496349938213825225830078125</LongitudeDegrees>
            </Position>
            <AltitudeMeters>3406.800048828125</AltitudeMeters>
            <DistanceMeters>8952.0426962187</DistanceMeters>
          </Trackpoint>
          <Trackpoint>
            <Time>2019-04-08T05:33:21.000Z</Time>
            <Position>
              <LatitudeDegrees>28.27414247207343578338623046875</LatitudeDegrees>
              <LongitudeDegrees>-16.6349813528358936309814453125</LongitudeDegrees>
            </Position>
            <AltitudeMeters>3407.39990234375</AltitudeMeters>
            <DistanceMeters>8954.4240588553</DistanceMeters>
          </Trackpoint>
          <Trackpoint>
            <Time>2019-04-08T05:33:24.000Z</Time>
            <Position>
              <LatitudeDegrees>28.27414666302502155303955078125</LatitudeDegrees>
              <LongitudeDegrees>-16.63499786518514156341552734375</LongitudeDegrees>
            </Position>
            <AltitudeMeters>3407.800048828125</AltitudeMeters>
            <DistanceMeters>8956.1079365241</DistanceMeters>
          </Trackpoint>
          <Trackpoint>
            <Time>2019-04-08T05:33:31.000Z</Time>
            <Position>
              <LatitudeDegrees>28.2741638459265232086181640625</LatitudeDegrees>
              <LongitudeDegrees>-16.63503038696944713592529296875</LongitudeDegrees>
            </Position>
            <AltitudeMeters>3408.60009765625</AltitudeMeters>
            <DistanceMeters>8959.8249268333</DistanceMeters>
          </Trackpoint>
          <Trackpoint>
            <Time>2019-04-08T05:33:35.000Z</Time>
            <Position>
              <LatitudeDegrees>28.274171054363250732421875</LatitudeDegrees>
              <LongitudeDegrees>-16.63504078052937984466552734375</LongitudeDegrees>
            </Position>
            <AltitudeMeters>3408.800048828125</AltitudeMeters>
            <DistanceMeters>8961.12091843</DistanceMeters>
          </Trackpoint>
          <Trackpoint>
            <Time>2019-04-08T05:33:47.000Z</Time>
            <Position>
              <LatitudeDegrees>28.27420181594789028167724609375</LatitudeDegrees>
              <LongitudeDegrees>-16.6350960172712802886962890625</LongitudeDegrees>
            </Position>
            <AltitudeMeters>3409.60009765625</AltitudeMeters>
            <DistanceMeters>8967.5272978628</DistanceMeters>
          </Trackpoint>
          <Trackpoint>
            <Time>2019-04-08T05:33:49.000Z</Time>
            <Position>
              <LatitudeDegrees>28.27420500107109546661376953125</LatitudeDegrees>
              <LongitudeDegrees>-16.63510666228830814361572265625</LongitudeDegrees>
            </Position>
            <AltitudeMeters>3410.199951171875</AltitudeMeters>
            <DistanceMeters>8968.6273116098</DistanceMeters>
          </Trackpoint>
          <Trackpoint>
            <Time>2019-04-08T05:33:51.000Z</Time>
            <Position>
              <LatitudeDegrees>28.2742107845842838287353515625</LatitudeDegrees>
              <LongitudeDegrees>-16.6351181454956531524658203125</LongitudeDegrees>
            </Position>
            <AltitudeMeters>3410.800048828125</AltitudeMeters>
            <DistanceMeters>8969.9233032064</DistanceMeters>
          </Trackpoint>
          <Trackpoint>
            <Time>2019-04-08T05:33:59.000Z</Time>
            <Position>
              <LatitudeDegrees>28.2742322422564029693603515625</LatitudeDegrees>
              <LongitudeDegrees>-16.6351567022502422332763671875</LongitudeDegrees>
            </Position>
            <AltitudeMeters>3412</AltitudeMeters>
            <DistanceMeters>8974.3936006429</DistanceMeters>
          </Trackpoint>
          <Trackpoint>
            <Time>2019-04-08T05:34:04.000Z</Time>
            <Position>
              <LatitudeDegrees>28.27424422837793827056884765625</LatitudeDegrees>
              <LongitudeDegrees>-16.6351769864559173583984375</LongitudeDegrees>
            </Position>
            <AltitudeMeters>3412</AltitudeMeters>
            <DistanceMeters>8976.7863121728</DistanceMeters>
          </Trackpoint>
          <Trackpoint>
            <Time>2019-04-08T05:34:10.000Z</Time>
            <Position>
              <LatitudeDegrees>28.27425579540431499481201171875</LatitudeDegrees>
              <LongitudeDegrees>-16.6352009586989879608154296875</LongitudeDegrees>
            </Position>
            <AltitudeMeters>3412.199951171875</AltitudeMeters>
            <DistanceMeters>8979.4639754632</DistanceMeters>
          </Trackpoint>
          <Trackpoint>
            <Time>2019-04-08T05:34:16.000Z</Time>
            <Position>
              <LatitudeDegrees>28.274263255298137664794921875</LatitudeDegrees>
              <LongitudeDegrees>-16.63523674942553043365478515625</LongitudeDegrees>
            </Position>
            <AltitudeMeters>3413</AltitudeMeters>
            <DistanceMeters>8983.0687334305</DistanceMeters>
          </Trackpoint>
          <Trackpoint>
            <Time>2019-04-08T05:34:18.000Z</Time>
            <Position>
              <LatitudeDegrees>28.27426719479262828826904296875</LatitudeDegrees>
              <LongitudeDegrees>-16.63525435142219066619873046875</LongitudeDegrees>
            </Position>
            <AltitudeMeters>3413.39990234375</AltitudeMeters>
            <DistanceMeters>8984.8490583536</DistanceMeters>
          </Trackpoint>
          <Trackpoint>
            <Time>2019-04-08T05:34:25.000Z</Time>
            <Position>
              <LatitudeDegrees>28.27425411902368068695068359375</LatitudeDegrees>
              <LongitudeDegrees>-16.63530246354639530181884765625</LongitudeDegrees>
            </Position>
            <AltitudeMeters>3413.39990234375</AltitudeMeters>
            <DistanceMeters>8989.7849621458</DistanceMeters>
          </Trackpoint>
          <Trackpoint>
            <Time>2019-04-08T05:34:34.000Z</Time>
            <Position>
              <LatitudeDegrees>28.27427289448678493499755859375</LatitudeDegrees>
              <LongitudeDegrees>-16.63537940941751003265380859375</LongitudeDegrees>
            </Position>
            <AltitudeMeters>3413.800048828125</AltitudeMeters>
            <DistanceMeters>8997.6118413831</DistanceMeters>
          </Trackpoint>
          <Trackpoint>
            <Time>2019-04-08T05:34:35.000Z</Time>
            <Position>
              <LatitudeDegrees>28.27427096664905548095703125</LatitudeDegrees>
              <LongitudeDegrees>-16.63538661785423755645751953125</LongitudeDegrees>
            </Position>
            <AltitudeMeters>3414.199951171875</AltitudeMeters>
            <DistanceMeters>8998.3479151475</DistanceMeters>
          </Trackpoint>
          <Trackpoint>
            <Time>2019-04-08T05:34:43.000Z</Time>
            <Position>
              <LatitudeDegrees>28.27427490614354610443115234375</LatitudeDegrees>
              <LongitudeDegrees>-16.6354433633387088775634765625</LongitudeDegrees>
            </Position>
            <AltitudeMeters>3414.800048828125</AltitudeMeters>
            <DistanceMeters>9003.9278527438</DistanceMeters>
          </Trackpoint>
          <Trackpoint>
            <Time>2019-04-08T05:34:47.000Z</Time>
            <Position>
              <LatitudeDegrees>28.27427373267710208892822265625</LatitudeDegrees>
              <LongitudeDegrees>-16.63546155206859111785888671875</LongitudeDegrees>
            </Position>
            <AltitudeMeters>3415.199951171875</AltitudeMeters>
            <DistanceMeters>9005.7157697053</DistanceMeters>
          </Trackpoint>
          <Trackpoint>
            <Time>2019-04-08T05:34:51.000Z</Time>
            <Position>
              <LatitudeDegrees>28.27427096664905548095703125</LatitudeDegrees>
              <LongitudeDegrees>-16.63546808995306491851806640625</LongitudeDegrees>
            </Position>
            <AltitudeMeters>3415.60009765625</AltitudeMeters>
            <DistanceMeters>9006.4268845208</DistanceMeters>
          </Trackpoint>
          <Trackpoint>
            <Time>2019-04-08T05:35:01.000Z</Time>
            <Position>
              <LatitudeDegrees>28.27426384203135967254638671875</LatitudeDegrees>
              <LongitudeDegrees>-16.6354886256158351898193359375</LongitudeDegrees>
            </Position>
            <AltitudeMeters>3416</AltitudeMeters>
            <DistanceMeters>9008.5896557982</DistanceMeters>
          </Trackpoint>
          <Trackpoint>
            <Time>2019-04-08T05:35:03.000Z</Time>
            <Position>
              <LatitudeDegrees>28.27426350675523281097412109375</LatitudeDegrees>
              <LongitudeDegrees>-16.63549943827092647552490234375</LongitudeDegrees>
            </Position>
            <AltitudeMeters>3416</AltitudeMeters>
            <DistanceMeters>9009.6478285057</DistanceMeters>
          </Trackpoint>
          <Trackpoint>
            <Time>2019-04-08T05:35:10.000Z</Time>
            <Position>
              <LatitudeDegrees>28.27426426112651824951171875</LatitudeDegrees>
              <LongitudeDegrees>-16.63550849072635173797607421875</LongitudeDegrees>
            </Position>
            <AltitudeMeters>3416.60009765625</AltitudeMeters>
            <DistanceMeters>9010.5341786908</DistanceMeters>
          </Trackpoint>
          <Trackpoint>
            <Time>2019-04-08T05:35:18.000Z</Time>
            <Position>
              <LatitudeDegrees>28.27426635660231113433837890625</LatitudeDegrees>
              <LongitudeDegrees>-16.6355503164231777191162109375</LongitudeDegrees>
            </Position>
            <AltitudeMeters>3417.199951171875</AltitudeMeters>
            <DistanceMeters>9014.6401685497</DistanceMeters>
          </Trackpoint>
          <Trackpoint>
            <Time>2019-04-08T05:35:19.000Z</Time>
            <Position>
              <LatitudeDegrees>28.2742657698690891265869140625</LatitudeDegrees>
              <LongitudeDegrees>-16.635555513203144073486328125</LongitudeDegrees>
            </Position>
            <AltitudeMeters>3417.39990234375</AltitudeMeters>
            <DistanceMeters>9015.1430026579</DistanceMeters>
          </Trackpoint>
          <Trackpoint>
            <Time>2019-04-08T05:35:27.000Z</Time>
            <Position>
              <LatitudeDegrees>28.2742528617382049560546875</LatitudeDegrees>
              <LongitudeDegrees>-16.635595075786113739013671875</LongitudeDegrees>
            </Position>
            <AltitudeMeters>3418.39990234375</AltitudeMeters>
            <DistanceMeters>9019.2774838477</DistanceMeters>
          </Trackpoint>
          <Trackpoint>
            <Time>2019-04-08T05:35:37.000Z</Time>
            <Position>
              <LatitudeDegrees>28.2742392830550670623779296875</LatitudeDegrees>
              <LongitudeDegrees>-16.635644026100635528564453125</LongitudeDegrees>
            </Position>
            <AltitudeMeters>3419.39990234375</AltitudeMeters>
            <DistanceMeters>9024.3076204458</DistanceMeters>
          </Trackpoint>
          <Trackpoint>
            <Time>2019-04-08T05:35:40.000Z</Time>
            <Position>
              <LatitudeDegrees>28.274236433207988739013671875</LatitudeDegrees>
              <LongitudeDegrees>-16.63565953262150287628173828125</LongitudeDegrees>
            </Position>
            <AltitudeMeters>3419.39990234375</AltitudeMeters>
            <DistanceMeters>9025.8603697529</DistanceMeters>
          </Trackpoint>
          <Trackpoint>
            <Time>2019-04-08T05:35:44.000Z</Time>
            <Position>
              <LatitudeDegrees>28.274229057133197784423828125</LatitudeDegrees>
              <LongitudeDegrees>-16.63568350486457347869873046875</LongitudeDegrees>
            </Position>
            <AltitudeMeters>3420.39990234375</AltitudeMeters>
            <DistanceMeters>9028.3474568772</DistanceMeters>
          </Trackpoint>
          <Trackpoint>
            <Time>2019-04-08T05:35:48.000Z</Time>
            <Position>
              <LatitudeDegrees>28.27422310598194599151611328125</LatitudeDegrees>
              <LongitudeDegrees>-16.63570211268961429595947265625</LongitudeDegrees>
            </Position>
            <AltitudeMeters>3420.60009765625</AltitudeMeters>
            <DistanceMeters>9030.2879572965</DistanceMeters>
          </Trackpoint>
          <Trackpoint>
            <Time>2019-04-08T05:35:57.000Z</Time>
            <Position>
              <LatitudeDegrees>28.2742111198604106903076171875</LatitudeDegrees>
              <LongitudeDegrees>-16.6357576847076416015625</LongitudeDegrees>
            </Position>
            <AltitudeMeters>3421.39990234375</AltitudeMeters>
            <DistanceMeters>9035.8969488574</DistanceMeters>
          </Trackpoint>
          <Trackpoint>
            <Time>2019-04-08T05:35:58.000Z</Time>
            <Position>
              <LatitudeDegrees>28.27421003021299839019775390625</LatitudeDegrees>
              <LongitudeDegrees>-16.63576313294470310211181640625</LongitudeDegrees>
            </Position>
            <AltitudeMeters>3421.39990234375</AltitudeMeters>
            <DistanceMeters>9036.4510450576</DistanceMeters>
          </Trackpoint>
          <Trackpoint>
            <Time>2019-04-08T05:36:06.000Z</Time>
            <Position>
              <LatitudeDegrees>28.27420097775757312774658203125</LatitudeDegrees>
              <LongitudeDegrees>-16.6358088143169879913330078125</LongitudeDegrees>
            </Position>
            <AltitudeMeters>3422.39990234375</AltitudeMeters>
            <DistanceMeters>9041.0419271537</DistanceMeters>
          </Trackpoint>
          <Trackpoint>
            <Time>2019-04-08T05:36:07.000Z</Time>
            <Position>
              <LatitudeDegrees>28.2741987146437168121337890625</LatitudeDegrees>
              <LongitudeDegrees>-16.63581191562116146087646484375</LongitudeDegrees>
            </Position>
            <AltitudeMeters>3422.60009765625</AltitudeMeters>
            <DistanceMeters>9041.4337323343</DistanceMeters>
          </Trackpoint>
          <Trackpoint>
            <Time>2019-04-08T05:36:16.000Z</Time>
            <Position>
              <LatitudeDegrees>28.27417918480932712554931640625</LatitudeDegrees>
              <LongitudeDegrees>-16.6358560882508754730224609375</LongitudeDegrees>
            </Position>
            <AltitudeMeters>3423.199951171875</AltitudeMeters>
            <DistanceMeters>9046.27823114</DistanceMeters>
          </Trackpoint>
          <Trackpoint>
            <Time>2019-04-08T05:36:18.000Z</Time>
            <Position>
              <LatitudeDegrees>28.27417499385774135589599609375</LatitudeDegrees>
              <LongitudeDegrees>-16.63586405105888843536376953125</LongitudeDegrees>
            </Position>
            <AltitudeMeters>3423.39990234375</AltitudeMeters>
            <DistanceMeters>9047.1896953646</DistanceMeters>
          </Trackpoint>
          <Trackpoint>
            <Time>2019-04-08T05:36:25.000Z</Time>
            <Position>
              <LatitudeDegrees>28.27416929416358470916748046875</LatitudeDegrees>
              <LongitudeDegrees>-16.63589322008192539215087890625</LongitudeDegrees>
            </Position>
            <AltitudeMeters>3424.199951171875</AltitudeMeters>
            <DistanceMeters>9050.1186154082</DistanceMeters>
          </Trackpoint>
          <Trackpoint>
            <Time>2019-04-08T05:36:26.000Z</Time>
            <Position>
              <LatitudeDegrees>28.2741702161729335784912109375</LatitudeDegrees>
              <LongitudeDegrees>-16.63589514791965484619140625</LongitudeDegrees>
            </Position>
            <AltitudeMeters>3424.60009765625</AltitudeMeters>
            <DistanceMeters>9050.3513823704</DistanceMeters>
          </Trackpoint>
          <Trackpoint>
            <Time>2019-04-08T05:36:34.000Z</Time>
            <Position>
              <LatitudeDegrees>28.274162672460079193115234375</LatitudeDegrees>
              <LongitudeDegrees>-16.63594267331063747406005859375</LongitudeDegrees>
            </Position>
            <AltitudeMeters>3424.800048828125</AltitudeMeters>
            <DistanceMeters>9055.0855823803</DistanceMeters>
          </Trackpoint>
          <Trackpoint>
            <Time>2019-04-08T05:36:35.000Z</Time>
            <Position>
              <LatitudeDegrees>28.27416208572685718536376953125</LatitudeDegrees>
              <LongitudeDegrees>-16.63594401441514492034912109375</LongitudeDegrees>
            </Position>
            <AltitudeMeters>3424.39990234375</AltitudeMeters>
            <DistanceMeters>9055.2501734776</DistanceMeters>
          </Trackpoint>
          <Trackpoint>
            <Time>2019-04-08T05:36:42.000Z</Time>
            <Position>
              <LatitudeDegrees>28.27414624392986297607421875</LatitudeDegrees>
              <LongitudeDegrees>-16.635981984436511993408203125</LongitudeDegrees>
            </Position>
            <AltitudeMeters>3425.199951171875</AltitudeMeters>
            <DistanceMeters>9059.368241418</DistanceMeters>
          </Trackpoint>
          <Trackpoint>
            <Time>2019-04-08T05:36:44.000Z</Time>
            <Position>
              <LatitudeDegrees>28.2741450704634189605712890625</LatitudeDegrees>
              <LongitudeDegrees>-16.6359928809106349945068359375</LongitudeDegrees>
            </Position>
            <AltitudeMeters>3425.60009765625</AltitudeMeters>
            <DistanceMeters>9060.443345964</DistanceMeters>
          </Trackpoint>
          <Trackpoint>
            <Time>2019-04-08T05:36:47.000Z</Time>
            <Position>
              <LatitudeDegrees>28.27414046041667461395263671875</LatitudeDegrees>
              <LongitudeDegrees>-16.63601878099143505096435546875</LongitudeDegrees>
            </Position>
            <AltitudeMeters>3425.39990234375</AltitudeMeters>
            <DistanceMeters>9063.0335866474</DistanceMeters>
          </Trackpoint>
          <Trackpoint>
            <Time>2019-04-08T05:36:49.000Z</Time>
            <Position>
              <LatitudeDegrees>28.27413576655089855194091796875</LatitudeDegrees>
              <LongitudeDegrees>-16.6360290907323360443115234375</LongitudeDegrees>
            </Position>
            <AltitudeMeters>3425.60009765625</AltitudeMeters>
            <DistanceMeters>9064.1699408754</DistanceMeters>
          </Trackpoint>
          <Trackpoint>
            <Time>2019-04-08T05:36:57.000Z</Time>
            <Position>
              <LatitudeDegrees>28.274117074906826019287109375</LatitudeDegrees>
              <LongitudeDegrees>-16.6360783763229846954345703125</LongitudeDegrees>
            </Position>
            <AltitudeMeters>3425.60009765625</AltitudeMeters>
            <DistanceMeters>9069.4291351243</DistanceMeters>
          </Trackpoint>
          <Trackpoint>
            <Time>2019-04-08T05:36:59.000Z</Time>
            <Position>
              <LatitudeDegrees>28.27410961501300334930419921875</LatitudeDegrees>
              <LongitudeDegrees>-16.6360884346067905426025390625</LongitudeDegrees>
            </Position>
            <AltitudeMeters>3425.39990234375</AltitudeMeters>
            <DistanceMeters>9070.7181401925</DistanceMeters>
          </Trackpoint>
          <Trackpoint>
            <Time>2019-04-08T05:37:00.000Z</Time>
            <Position>
              <LatitudeDegrees>28.27410601079463958740234375</LatitudeDegrees>
              <LongitudeDegrees>-16.63609094917774200439453125</LongitudeDegrees>
            </Position>
            <AltitudeMeters>3425.39990234375</AltitudeMeters>
            <DistanceMeters>9071.1932737643</DistanceMeters>
          </Trackpoint>
          <Trackpoint>
            <Time>2019-04-08T05:37:07.000Z</Time>
            <Position>
              <LatitudeDegrees>28.27408027835190296173095703125</LatitudeDegrees>
              <LongitudeDegrees>-16.63612489588558673858642578125</LongitudeDegrees>
            </Position>
            <AltitudeMeters>3426</AltitudeMeters>
            <DistanceMeters>9075.5840838499</DistanceMeters>
          </Trackpoint>
          <Trackpoint>
            <Time>2019-04-08T05:37:10.000Z</Time>
            <Position>
              <LatitudeDegrees>28.2740689627826213836669921875</LatitudeDegrees>
              <LongitudeDegrees>-16.6361367143690586090087890625</LongitudeDegrees>
            </Position>
            <AltitudeMeters>3426.60009765625</AltitudeMeters>
            <DistanceMeters>9077.2945647086</DistanceMeters>
          </Trackpoint>
          <Trackpoint>
            <Time>2019-04-08T05:37:16.000Z</Time>
            <Position>
              <LatitudeDegrees>28.274046666920185089111328125</LatitudeDegrees>
              <LongitudeDegrees>-16.63616864942014217376708984375</LongitudeDegrees>
            </Position>
            <AltitudeMeters>3426.800048828125</AltitudeMeters>
            <DistanceMeters>9081.2890790816</DistanceMeters>
          </Trackpoint>
          <Trackpoint>
            <Time>2019-04-08T05:37:24.000Z</Time>
            <Position>
              <LatitudeDegrees>28.27403384260833263397216796875</LatitudeDegrees>
              <LongitudeDegrees>-16.63622413761913776397705078125</LongitudeDegrees>
            </Position>
            <AltitudeMeters>3427.199951171875</AltitudeMeters>
            <DistanceMeters>9086.9125413343</DistanceMeters>
          </Trackpoint>
          <Trackpoint>
            <Time>2019-04-08T05:37:25.000Z</Time>
            <Position>
              <LatitudeDegrees>28.274030573666095733642578125</LatitudeDegrees>
              <LongitudeDegrees>-16.6362302564084529876708984375</LongitudeDegrees>
            </Position>
            <AltitudeMeters>3427.800048828125</AltitudeMeters>
            <DistanceMeters>9087.6108422207</DistanceMeters>
          </Trackpoint>
          <Trackpoint>
            <Time>2019-04-08T05:37:32.000Z</Time>
            <Position>
              <LatitudeDegrees>28.27402629889547824859619140625</LatitudeDegrees>
              <LongitudeDegrees>-16.63627057336270809173583984375</LongitudeDegrees>
            </Position>
            <AltitudeMeters>3428.800048828125</AltitudeMeters>
            <DistanceMeters>9091.5917697708</DistanceMeters>
          </Trackpoint>
          <Trackpoint>
            <Time>2019-04-08T05:37:33.000Z</Time>
            <Position>
              <LatitudeDegrees>28.2740240357816219329833984375</LatitudeDegrees>
              <LongitudeDegrees>-16.63627610541880130767822265625</LongitudeDegrees>
            </Position>
            <AltitudeMeters>3429</AltitudeMeters>
            <DistanceMeters>9092.2002376288</DistanceMeters>
          </Trackpoint>
          <Trackpoint>
            <Time>2019-04-08T05:37:39.000Z</Time>
            <Position>
              <LatitudeDegrees>28.27402428723871707916259765625</LatitudeDegrees>
              <LongitudeDegrees>-16.63630577735602855682373046875</LongitudeDegrees>
            </Position>
            <AltitudeMeters>3430</AltitudeMeters>
            <DistanceMeters>9095.1090486622</DistanceMeters>
          </Trackpoint>
          <Trackpoint>
            <Time>2019-04-08T05:37:49.000Z</Time>
            <Position>
              <LatitudeDegrees>28.2740143127739429473876953125</LatitudeDegrees>
              <LongitudeDegrees>-16.63633109070360660552978515625</LongitudeDegrees>
            </Position>
            <AltitudeMeters>3430.60009765625</AltitudeMeters>
            <DistanceMeters>9097.8268791446</DistanceMeters>
          </Trackpoint>
          <Trackpoint>
            <Time>2019-04-08T05:37:52.000Z</Time>
            <Position>
              <LatitudeDegrees>28.274015821516513824462890625</LatitudeDegrees>
              <LongitudeDegrees>-16.63633310236036777496337890625</LongitudeDegrees>
            </Position>
            <AltitudeMeters>3431</AltitudeMeters>
            <DistanceMeters>9098.0956552811</DistanceMeters>
          </Trackpoint>
          <Trackpoint>
            <Time>2019-04-08T05:38:01.000Z</Time>
            <Position>
              <LatitudeDegrees>28.27399914152920246124267578125</LatitudeDegrees>
              <LongitudeDegrees>-16.636358834803104400634765625</LongitudeDegrees>
            </Position>
            <AltitudeMeters>3431</AltitudeMeters>
            <DistanceMeters>9101.2272144803</DistanceMeters>
          </Trackpoint>
          <Trackpoint>
            <Time>2019-04-08T05:38:07.000Z</Time>
            <Position>
              <LatitudeDegrees>28.27397801913321018218994140625</LatitudeDegrees>
              <LongitudeDegrees>-16.63637350313365459442138671875</LongitudeDegrees>
            </Position>
            <AltitudeMeters>3432.199951171875</AltitudeMeters>
            <DistanceMeters>9103.9813503181</DistanceMeters>
          </Trackpoint>
          <Trackpoint>
            <Time>2019-04-08T05:38:11.000Z</Time>
            <Position>
              <LatitudeDegrees>28.27397131361067295074462890625</LatitudeDegrees>
              <LongitudeDegrees>-16.63639068603515625</LongitudeDegrees>
            </Position>
            <AltitudeMeters>3432.800048828125</AltitudeMeters>
            <DistanceMeters>9105.8239866747</DistanceMeters>
          </Trackpoint>
          <Trackpoint>
            <Time>2019-04-08T05:38:13.000Z</Time>
            <Position>
              <LatitudeDegrees>28.273967541754245758056640625</LatitudeDegrees>
              <LongitudeDegrees>-16.63639747537672519683837890625</LongitudeDegrees>
            </Position>
            <AltitudeMeters>3433.39990234375</AltitudeMeters>
            <DistanceMeters>9106.6133378479</DistanceMeters>
          </Trackpoint>
          <Trackpoint>
            <Time>2019-04-08T05:38:17.000Z</Time>
            <Position>
              <LatitudeDegrees>28.27395404689013957977294921875</LatitudeDegrees>
              <LongitudeDegrees>-16.636409796774387359619140625</LongitudeDegrees>
            </Position>
            <AltitudeMeters>3434.39990234375</AltitudeMeters>
            <DistanceMeters>9108.5398272506</DistanceMeters>
          </Trackpoint>
          <Trackpoint>
            <Time>2019-04-08T05:38:23.000Z</Time>
            <Position>
              <LatitudeDegrees>28.2739405520260334014892578125</LatitudeDegrees>
              <LongitudeDegrees>-16.6364351101219654083251953125</LongitudeDegrees>
            </Position>
            <AltitudeMeters>3435.60009765625</AltitudeMeters>
            <DistanceMeters>9111.4408669342</DistanceMeters>
          </Trackpoint>
          <Trackpoint>
            <Time>2019-04-08T05:38:29.000Z</Time>
            <Position>
              <LatitudeDegrees>28.27392789535224437713623046875</LatitudeDegrees>
              <LongitudeDegrees>-16.6364657878875732421875</LongitudeDegrees>
            </Position>
            <AltitudeMeters>3436.800048828125</AltitudeMeters>
            <DistanceMeters>9114.7627268672</DistanceMeters>
          </Trackpoint>
          <Trackpoint>
            <Time>2019-04-08T05:38:35.000Z</Time>
            <Position>
              <LatitudeDegrees>28.27391155064105987548828125</LatitudeDegrees>
              <LongitudeDegrees>-16.636486910283565521240234375</LongitudeDegrees>
            </Position>
            <AltitudeMeters>3437.800048828125</AltitudeMeters>
            <DistanceMeters>9117.5201394888</DistanceMeters>
          </Trackpoint>
          <Trackpoint>
            <Time>2019-04-08T05:38:43.000Z</Time>
            <Position>
              <LatitudeDegrees>28.27389973215758800506591796875</LatitudeDegrees>
              <LongitudeDegrees>-16.63651607930660247802734375</LongitudeDegrees>
            </Position>
            <AltitudeMeters>3438.60009765625</AltitudeMeters>
            <DistanceMeters>9120.6660835097</DistanceMeters>
          </Trackpoint>
          <Trackpoint>
            <Time>2019-04-08T05:38:45.000Z</Time>
            <Position>
              <LatitudeDegrees>28.27389839105308055877685546875</LatitudeDegrees>
              <LongitudeDegrees>-16.636522114276885986328125</LongitudeDegrees>
            </Position>
            <AltitudeMeters>3439</AltitudeMeters>
            <DistanceMeters>9121.2819270049</DistanceMeters>
          </Trackpoint>
          <Trackpoint>
            <Time>2019-04-08T05:38:50.000Z</Time>
            <Position>
              <LatitudeDegrees>28.2738818787038326263427734375</LatitudeDegrees>
              <LongitudeDegrees>-16.6365390457212924957275390625</LongitudeDegrees>
            </Position>
            <AltitudeMeters>3439.60009765625</AltitudeMeters>
            <DistanceMeters>9123.7599205444</DistanceMeters>
          </Trackpoint>
          <Trackpoint>
            <Time>2019-04-08T05:38:53.000Z</Time>
            <Position>
              <LatitudeDegrees>28.27387391589581966400146484375</LatitudeDegrees>
              <LongitudeDegrees>-16.63653795607388019561767578125</LongitudeDegrees>
            </Position>
            <AltitudeMeters>3440.199951171875</AltitudeMeters>
            <DistanceMeters>9124.6614231124</DistanceMeters>
          </Trackpoint>
          <Trackpoint>
            <Time>2019-04-08T05:39:04.000Z</Time>
            <Position>
              <LatitudeDegrees>28.273847512900829315185546875</LatitudeDegrees>
              <LongitudeDegrees>-16.636553294956684112548828125</LongitudeDegrees>
            </Position>
            <AltitudeMeters>3440.39990234375</AltitudeMeters>
            <DistanceMeters>9127.9641995723</DistanceMeters>
          </Trackpoint>
          <Trackpoint>
            <Time>2019-04-08T05:39:07.000Z</Time>
            <Position>
              <LatitudeDegrees>28.27383619733154773712158203125</LatitudeDegrees>
              <LongitudeDegrees>-16.6365487687289714813232421875</LongitudeDegrees>
            </Position>
            <AltitudeMeters>3440.800048828125</AltitudeMeters>
            <DistanceMeters>9129.3013439683</DistanceMeters>
          </Trackpoint>
          <Trackpoint>
            <Time>2019-04-08T05:39:13.000Z</Time>
            <Position>
              <LatitudeDegrees>28.2738128118216991424560546875</LatitudeDegrees>
              <LongitudeDegrees>-16.63655740208923816680908203125</LongitudeDegrees>
            </Position>
            <AltitudeMeters>3441.199951171875</AltitudeMeters>
            <DistanceMeters>9132.0390370571</DistanceMeters>
          </Trackpoint>
          <Trackpoint>
            <Time>2019-04-08T05:39:24.000Z</Time>
            <Position>
              <LatitudeDegrees>28.27377802692353725433349609375</LatitudeDegrees>
              <LongitudeDegrees>-16.63660266436636447906494140625</LongitudeDegrees>
            </Position>
            <AltitudeMeters>3442</AltitudeMeters>
            <DistanceMeters>9137.9276271723</DistanceMeters>
          </Trackpoint>
          <Trackpoint>
            <Time>2019-04-08T05:39:34.000Z</Time>
            <Position>
              <LatitudeDegrees>28.273744918406009674072265625</LatitudeDegrees>
              <LongitudeDegrees>-16.63665194995701313018798828125</LongitudeDegrees>
            </Position>
            <AltitudeMeters>3442.39990234375</AltitudeMeters>
            <DistanceMeters>9144.0026516518</DistanceMeters>
          </Trackpoint>
          <Trackpoint>
            <Time>2019-04-08T05:39:39.000Z</Time>
            <Position>
              <LatitudeDegrees>28.273730836808681488037109375</LatitudeDegrees>
              <LongitudeDegrees>-16.636669971048831939697265625</LongitudeDegrees>
            </Position>
            <AltitudeMeters>3443.199951171875</AltitudeMeters>
            <DistanceMeters>9146.3649783105</DistanceMeters>
          </Trackpoint>
          <Trackpoint>
            <Time>2019-04-08T05:39:44.000Z</Time>
            <Position>
              <LatitudeDegrees>28.2737155817449092864990234375</LatitudeDegrees>
              <LongitudeDegrees>-16.636686734855175018310546875</LongitudeDegrees>
            </Position>
            <AltitudeMeters>3444.199951171875</AltitudeMeters>
            <DistanceMeters>9148.7273049692</DistanceMeters>
          </Trackpoint>
          <Trackpoint>
            <Time>2019-04-08T05:39:46.000Z</Time>
            <Position>
              <LatitudeDegrees>28.27370443381369113922119140625</LatitudeDegrees>
              <LongitudeDegrees>-16.63669084198772907257080078125</LongitudeDegrees>
            </Position>
            <AltitudeMeters>3444.199951171875</AltitudeMeters>
            <DistanceMeters>9150.0302456323</DistanceMeters>
          </Trackpoint>
          <Trackpoint>
            <Time>2019-04-08T05:39:52.000Z</Time>
            <Position>
              <LatitudeDegrees>28.27368649654090404510498046875</LatitudeDegrees>
              <LongitudeDegrees>-16.63671749643981456756591796875</LongitudeDegrees>
            </Position>
            <AltitudeMeters>3444.60009765625</AltitudeMeters>
            <DistanceMeters>9153.3179502272</DistanceMeters>
          </Trackpoint>
          <Trackpoint>
            <Time>2019-04-08T05:40:00.000Z</Time>
            <Position>
              <LatitudeDegrees>28.2736545614898204803466796875</LatitudeDegrees>
              <LongitudeDegrees>-16.63676192052662372589111328125</LongitudeDegrees>
            </Position>
            <AltitudeMeters>3445</AltitudeMeters>
            <DistanceMeters>9158.9398064646</DistanceMeters>
          </Trackpoint>
          <Trackpoint>
            <Time>2019-04-08T05:40:02.000Z</Time>
            <Position>
              <LatitudeDegrees>28.27364441938698291778564453125</LatitudeDegrees>
              <LongitudeDegrees>-16.6367710568010807037353515625</LongitudeDegrees>
            </Position>
            <AltitudeMeters>3445.39990234375</AltitudeMeters>
            <DistanceMeters>9160.3840874824</DistanceMeters>
          </Trackpoint>
          <Trackpoint>
            <Time>2019-04-08T05:40:09.000Z</Time>
            <Position>
              <LatitudeDegrees>28.2736076228320598602294921875</LatitudeDegrees>
              <LongitudeDegrees>-16.636820174753665924072265625</LongitudeDegrees>
            </Position>
            <AltitudeMeters>3445.60009765625</AltitudeMeters>
            <DistanceMeters>9166.7053285208</DistanceMeters>
          </Trackpoint>
          <Trackpoint>
            <Time>2019-04-08T05:40:20.000Z</Time>
            <Position>
              <LatitudeDegrees>28.27356152236461639404296875</LatitudeDegrees>
              <LongitudeDegrees>-16.63688245229423046112060546875</LongitudeDegrees>
            </Position>
            <AltitudeMeters>3446.39990234375</AltitudeMeters>
            <DistanceMeters>9174.6802158801</DistanceMeters>
          </Trackpoint>
          <Trackpoint>
            <Time>2019-04-08T05:40:28.000Z</Time>
            <Position>
              <LatitudeDegrees>28.273522965610027313232421875</LatitudeDegrees>
              <LongitudeDegrees>-16.6369370184838771820068359375</LongitudeDegrees>
            </Position>
            <AltitudeMeters>3447.199951171875</AltitudeMeters>
            <DistanceMeters>9181.537300395</DistanceMeters>
          </Trackpoint>
          <Trackpoint>
            <Time>2019-04-08T05:40:31.000Z</Time>
            <Position>
              <LatitudeDegrees>28.27351315878331661224365234375</LatitudeDegrees>
              <LongitudeDegrees>-16.63695738650858402252197265625</LongitudeDegrees>
            </Position>
            <AltitudeMeters>3447.60009765625</AltitudeMeters>
            <DistanceMeters>9183.8119946167</DistanceMeters>
          </Trackpoint>
          <Trackpoint>
            <Time>2019-04-08T05:40:38.000Z</Time>
            <Position>
              <LatitudeDegrees>28.273486755788326263427734375</LatitudeDegrees>
              <LongitudeDegrees>-16.6369740664958953857421875</LongitudeDegrees>
            </Position>
            <AltitudeMeters>3448</AltitudeMeters>
            <DistanceMeters>9187.1743830101</DistanceMeters>
          </Trackpoint>
          <Trackpoint>
            <Time>2019-04-08T05:40:43.000Z</Time>
            <Position>
              <LatitudeDegrees>28.2734508812427520751953125</LatitudeDegrees>
              <LongitudeDegrees>-16.6369621641933917999267578125</LongitudeDegrees>
            </Position>
            <AltitudeMeters>3448.800048828125</AltitudeMeters>
            <DistanceMeters>9191.3339053945</DistanceMeters>
          </Trackpoint>
          <Trackpoint>
            <Time>2019-04-08T05:40:49.000Z</Time>
            <Position>
              <LatitudeDegrees>28.2734138332307338714599609375</LatitudeDegrees>
              <LongitudeDegrees>-16.6369799338281154632568359375</LongitudeDegrees>
            </Position>
            <AltitudeMeters>3449.800048828125</AltitudeMeters>
            <DistanceMeters>9195.8112673081</DistanceMeters>
          </Trackpoint>
          <Trackpoint>
            <Time>2019-04-08T05:40:57.000Z</Time>
            <Position>
              <LatitudeDegrees>28.27340469695627689361572265625</LatitudeDegrees>
              <LongitudeDegrees>-16.63703533820807933807373046875</LongitudeDegrees>
            </Position>
            <AltitudeMeters>3450.60009765625</AltitudeMeters>
            <DistanceMeters>9201.3375425938</DistanceMeters>
          </Trackpoint>
          <Trackpoint>
            <Time>2019-04-08T05:41:01.000Z</Time>
            <Position>
              <LatitudeDegrees>28.27339665032923221588134765625</LatitudeDegrees>
              <LongitudeDegrees>-16.6370426304638385772705078125</LongitudeDegrees>
            </Position>
            <AltitudeMeters>3450.800048828125</AltitudeMeters>
            <DistanceMeters>9202.4857547523</DistanceMeters>
          </Trackpoint>
          <Trackpoint>
            <Time>2019-04-08T05:41:04.000Z</Time>
            <Position>
              <LatitudeDegrees>28.27339162118732929229736328125</LatitudeDegrees>
              <LongitudeDegrees>-16.637042462825775146484375</LongitudeDegrees>
            </Position>
            <AltitudeMeters>3451</AltitudeMeters>
            <DistanceMeters>9203.0398509525</DistanceMeters>
          </Trackpoint>
          <Trackpoint>
            <Time>2019-04-08T05:41:11.000Z</Time>
            <Position>
              <LatitudeDegrees>28.27337720431387424468994140625</LatitudeDegrees>
              <LongitudeDegrees>-16.63704472593963146209716796875</LongitudeDegrees>
            </Position>
            <AltitudeMeters>3451.800048828125</AltitudeMeters>
            <DistanceMeters>9204.6580975866</DistanceMeters>
          </Trackpoint>
          <Trackpoint>
            <Time>2019-04-08T05:41:15.000Z</Time>
            <Position>
              <LatitudeDegrees>28.27337318100035190582275390625</LatitudeDegrees>
              <LongitudeDegrees>-16.63706048391759395599365234375</LongitudeDegrees>
            </Position>
            <AltitudeMeters>3452.199951171875</AltitudeMeters>
            <DistanceMeters>9206.2651451475</DistanceMeters>
          </Trackpoint>
          <Trackpoint>
            <Time>2019-04-08T05:41:19.000Z</Time>
            <Position>
              <LatitudeDegrees>28.2733638770878314971923828125</LatitudeDegrees>
              <LongitudeDegrees>-16.6370831988751888275146484375</LongitudeDegrees>
            </Position>
            <AltitudeMeters>3452.800048828125</AltitudeMeters>
            <DistanceMeters>9208.7211767158</DistanceMeters>
          </Trackpoint>
          <Trackpoint>
            <Time>2019-04-08T05:41:23.000Z</Time>
            <Position>
              <LatitudeDegrees>28.27336027286946773529052734375</LatitudeDegrees>
              <LongitudeDegrees>-16.63710792548954486846923828125</LongitudeDegrees>
            </Position>
            <AltitudeMeters>3453.199951171875</AltitudeMeters>
            <DistanceMeters>9211.1790459436</DistanceMeters>
          </Trackpoint>
          <Trackpoint>
            <Time>2019-04-08T05:41:28.000Z</Time>
            <Position>
              <LatitudeDegrees>28.27335423789918422698974609375</LatitudeDegrees>
              <LongitudeDegrees>-16.6371455602347850799560546875</LongitudeDegrees>
            </Position>
            <AltitudeMeters>3454</AltitudeMeters>
            <DistanceMeters>9214.9286897965</DistanceMeters>
          </Trackpoint>
          <Trackpoint>
            <Time>2019-04-08T05:41:32.000Z</Time>
            <Position>
              <LatitudeDegrees>28.2733548246324062347412109375</LatitudeDegrees>
              <LongitudeDegrees>-16.6371703706681728363037109375</LongitudeDegrees>
            </Position>
            <AltitudeMeters>3454.39990234375</AltitudeMeters>
            <DistanceMeters>9217.3625612284</DistanceMeters>
          </Trackpoint>
          <Trackpoint>
            <Time>2019-04-08T05:41:36.000Z</Time>
            <Position>
              <LatitudeDegrees>28.27335365116596221923828125</LatitudeDegrees>
              <LongitudeDegrees>-16.6372049041092395782470703125</LongitudeDegrees>
            </Position>
            <AltitudeMeters>3455.199951171875</AltitudeMeters>
            <DistanceMeters>9220.7516993544</DistanceMeters>
          </Trackpoint>
          <Trackpoint>
            <Time>2019-04-08T05:41:38.000Z</Time>
            <Position>
              <LatitudeDegrees>28.27334283851087093353271484375</LatitudeDegrees>
              <LongitudeDegrees>-16.6372166387736797332763671875</LongitudeDegrees>
            </Position>
            <AltitudeMeters>3455.39990234375</AltitudeMeters>
            <DistanceMeters>9222.4194114233</DistanceMeters>
          </Trackpoint>
          <Trackpoint>
            <Time>2019-04-08T05:41:45.000Z</Time>
            <Position>
              <LatitudeDegrees>28.2733316905796527862548828125</LatitudeDegrees>
              <LongitudeDegrees>-16.6372608952224254608154296875</LongitudeDegrees>
            </Position>
            <AltitudeMeters>3456.199951171875</AltitudeMeters>
            <DistanceMeters>9226.9309291617</DistanceMeters>
          </Trackpoint>
          <Trackpoint>
            <Time>2019-04-08T05:41:47.000Z</Time>
            <Position>
              <LatitudeDegrees>28.2733293436467647552490234375</LatitudeDegrees>
              <LongitudeDegrees>-16.6372743062674999237060546875</LongitudeDegrees>
            </Position>
            <AltitudeMeters>3456.60009765625</AltitudeMeters>
            <DistanceMeters>9228.2714459324</DistanceMeters>
          </Trackpoint>
          <Trackpoint>
            <Time>2019-04-08T05:41:54.000Z</Time>
            <Position>
              <LatitudeDegrees>28.27332087792456150054931640625</LatitudeDegrees>
              <LongitudeDegrees>-16.6373175568878650665283203125</LongitudeDegrees>
            </Position>
            <AltitudeMeters>3457.60009765625</AltitudeMeters>
            <DistanceMeters>9232.6146969833</DistanceMeters>
          </Trackpoint>
          <Trackpoint>
            <Time>2019-04-08T05:41:55.000Z</Time>
            <Position>
              <LatitudeDegrees>28.27331786043941974639892578125</LatitudeDegrees>
              <LongitudeDegrees>-16.63732250221073627471923828125</LongitudeDegrees>
            </Position>
            <AltitudeMeters>3457.800048828125</AltitudeMeters>
            <DistanceMeters>9233.2081386243</DistanceMeters>
          </Trackpoint>
          <Trackpoint>
            <Time>2019-04-08T05:42:03.000Z</Time>
            <Position>
              <LatitudeDegrees>28.27332138083875179290771484375</LatitudeDegrees>
              <LongitudeDegrees>-16.63734815083444118499755859375</LongitudeDegrees>
            </Position>
            <AltitudeMeters>3458.800048828125</AltitudeMeters>
            <DistanceMeters>9235.7526552406</DistanceMeters>
          </Trackpoint>
          <Trackpoint>
            <Time>2019-04-08T05:42:05.000Z</Time>
            <Position>
              <LatitudeDegrees>28.27332104556262493133544921875</LatitudeDegrees>
              <LongitudeDegrees>-16.637357287108898162841796875</LongitudeDegrees>
            </Position>
            <AltitudeMeters>3458.800048828125</AltitudeMeters>
            <DistanceMeters>9236.6541578085</DistanceMeters>
          </Trackpoint>
          <Trackpoint>
            <Time>2019-04-08T05:42:14.000Z</Time>
            <Position>
              <LatitudeDegrees>28.27333060093224048614501953125</LatitudeDegrees>
              <LongitudeDegrees>-16.63742400705814361572265625</LongitudeDegrees>
            </Position>
            <AltitudeMeters>3460</AltitudeMeters>
            <DistanceMeters>9243.2815473265</DistanceMeters>
          </Trackpoint>
          <Trackpoint>
            <Time>2019-04-08T05:42:15.000Z</Time>
            <Position>
              <LatitudeDegrees>28.27333110384643077850341796875</LatitudeDegrees>
              <LongitudeDegrees>-16.63743129931390285491943359375</LongitudeDegrees>
            </Position>
            <AltitudeMeters>3460</AltitudeMeters>
            <DistanceMeters>9243.9989832869</DistanceMeters>
          </Trackpoint>
          <Trackpoint>
            <Time>2019-04-08T05:42:23.000Z</Time>
            <Position>
              <LatitudeDegrees>28.27336647547781467437744140625</LatitudeDegrees>
              <LongitudeDegrees>-16.6374461352825164794921875</LongitudeDegrees>
            </Position>
            <AltitudeMeters>3461</AltitudeMeters>
            <DistanceMeters>9248.1952493731</DistanceMeters>
          </Trackpoint>
          <Trackpoint>
            <Time>2019-04-08T05:42:31.000Z</Time>
            <Position>
              <LatitudeDegrees>28.27340067364275455474853515625</LatitudeDegrees>
              <LongitudeDegrees>-16.63743741810321807861328125</LongitudeDegrees>
            </Position>
            <AltitudeMeters>3462.199951171875</AltitudeMeters>
            <DistanceMeters>9252.0971346718</DistanceMeters>
          </Trackpoint>
          <Trackpoint>
            <Time>2019-04-08T05:42:32.000Z</Time>
            <Position>
              <LatitudeDegrees>28.27340461313724517822265625</LatitudeDegrees>
              <LongitudeDegrees>-16.63743834011256694793701171875</LongitudeDegrees>
            </Position>
            <AltitudeMeters>3462.39990234375</AltitudeMeters>
            <DistanceMeters>9252.5528667841</DistanceMeters>
          </Trackpoint>
          <Trackpoint>
            <Time>2019-04-08T05:42:42.000Z</Time>
            <Position>
              <LatitudeDegrees>28.2734463550150394439697265625</LatitudeDegrees>
              <LongitudeDegrees>-16.63747387938201427459716796875</LongitudeDegrees>
            </Position>
            <AltitudeMeters>3463.199951171875</AltitudeMeters>
            <DistanceMeters>9258.3596133295</DistanceMeters>
          </Trackpoint>
          <Trackpoint>
            <Time>2019-04-08T05:42:44.000Z</Time>
            <Position>
              <LatitudeDegrees>28.2734544016420841217041015625</LatitudeDegrees>
              <LongitudeDegrees>-16.6374791599810123443603515625</LongitudeDegrees>
            </Position>
            <AltitudeMeters>3463.39990234375</AltitudeMeters>
            <DistanceMeters>9259.3918676685</DistanceMeters>
          </Trackpoint>
          <Trackpoint>
            <Time>2019-04-08T05:42:51.000Z</Time>
            <Position>
              <LatitudeDegrees>28.27349807135760784149169921875</LatitudeDegrees>
              <LongitudeDegrees>-16.63749776780605316162109375</LongitudeDegrees>
            </Position>
            <AltitudeMeters>3463.800048828125</AltitudeMeters>
            <DistanceMeters>9264.5827970755</DistanceMeters>
          </Trackpoint>
          <Trackpoint>
            <Time>2019-04-08T05:42:55.000Z</Time>
            <Position>
              <LatitudeDegrees>28.273529000580310821533203125</LatitudeDegrees>
              <LongitudeDegrees>-16.63751679472625255584716796875</LongitudeDegrees>
            </Position>
            <AltitudeMeters>3464.39990234375</AltitudeMeters>
            <DistanceMeters>9268.4973902504</DistanceMeters>
          </Trackpoint>
          <Trackpoint>
            <Time>2019-04-08T05:42:56.000Z</Time>
            <Position>
              <LatitudeDegrees>28.27353377826511859893798828125</LatitudeDegrees>
              <LongitudeDegrees>-16.63752635009586811065673828125</LongitudeDegrees>
            </Position>
            <AltitudeMeters>3464.39990234375</AltitudeMeters>
            <DistanceMeters>9269.5724947964</DistanceMeters>
          </Trackpoint>
          <Trackpoint>
            <Time>2019-04-08T05:42:58.000Z</Time>
            <Position>
              <LatitudeDegrees>28.27353612519800662994384765625</LatitudeDegrees>
              <LongitudeDegrees>-16.6375386714935302734375</LongitudeDegrees>
            </Position>
            <AltitudeMeters>3464.39990234375</AltitudeMeters>
            <DistanceMeters>9270.8078420833</DistanceMeters>
          </Trackpoint>
          <Trackpoint>
            <Time>2019-04-08T05:43:06.000Z</Time>
            <Position>
              <LatitudeDegrees>28.27351282350718975067138671875</LatitudeDegrees>
              <LongitudeDegrees>-16.637567169964313507080078125</LongitudeDegrees>
            </Position>
            <AltitudeMeters>3464.800048828125</AltitudeMeters>
            <DistanceMeters>9274.6207704952</DistanceMeters>
          </Trackpoint>
          <Trackpoint>
            <Time>2019-04-08T05:43:10.000Z</Time>
            <Position>
              <LatitudeDegrees>28.273497484624385833740234375</LatitudeDegrees>
              <LongitudeDegrees>-16.6375784017145633697509765625</LongitudeDegrees>
            </Position>
            <AltitudeMeters>3465.199951171875</AltitudeMeters>
            <DistanceMeters>9276.6499858259</DistanceMeters>
          </Trackpoint>
          <Trackpoint>
            <Time>2019-04-08T05:43:16.000Z</Time>
            <Position>
              <LatitudeDegrees>28.27349136583507061004638671875</LatitudeDegrees>
              <LongitudeDegrees>-16.63760446943342685699462890625</LongitudeDegrees>
            </Position>
            <AltitudeMeters>3466.39990234375</AltitudeMeters>
            <DistanceMeters>9279.2937103138</DistanceMeters>
          </Trackpoint>
          <Trackpoint>
            <Time>2019-04-08T05:43:25.000Z</Time>
            <Position>
              <LatitudeDegrees>28.273494802415370941162109375</LatitudeDegrees>
              <LongitudeDegrees>-16.6376323811709880828857421875</LongitudeDegrees>
            </Position>
            <AltitudeMeters>3467</AltitudeMeters>
            <DistanceMeters>9282.0560308229</DistanceMeters>
          </Trackpoint>
          <Trackpoint>
            <Time>2019-04-08T05:43:27.000Z</Time>
            <Position>
              <LatitudeDegrees>28.2735033519566059112548828125</LatitudeDegrees>
              <LongitudeDegrees>-16.637643277645111083984375</LongitudeDegrees>
            </Position>
            <AltitudeMeters>3467.39990234375</AltitudeMeters>
            <DistanceMeters>9283.4845955839</DistanceMeters>
          </Trackpoint>
          <Trackpoint>
            <Time>2019-04-08T05:43:34.000Z</Time>
            <Position>
              <LatitudeDegrees>28.27353335916996002197265625</LatitudeDegrees>
              <LongitudeDegrees>-16.63766750134527683258056640625</LongitudeDegrees>
            </Position>
            <AltitudeMeters>3468.199951171875</AltitudeMeters>
            <DistanceMeters>9287.58177902</DistanceMeters>
          </Trackpoint>
          <Trackpoint>
            <Time>2019-04-08T05:43:36.000Z</Time>
            <Position>
              <LatitudeDegrees>28.27354350127279758453369140625</LatitudeDegrees>
              <LongitudeDegrees>-16.6376783140003681182861328125</LongitudeDegrees>
            </Position>
            <AltitudeMeters>3468.60009765625</AltitudeMeters>
            <DistanceMeters>9289.1316178291</DistanceMeters>
          </Trackpoint>
          <Trackpoint>
            <Time>2019-04-08T05:43:44.000Z</Time>
            <Position>
              <LatitudeDegrees>28.273544423282146453857421875</LatitudeDegrees>
              <LongitudeDegrees>-16.63772567175328731536865234375</LongitudeDegrees>
            </Position>
            <AltitudeMeters>3469.60009765625</AltitudeMeters>
            <DistanceMeters>9293.7753041394</DistanceMeters>
          </Trackpoint>
          <Trackpoint>
            <Time>2019-04-08T05:43:45.000Z</Time>
            <Position>
              <LatitudeDegrees>28.2735439203679561614990234375</LatitudeDegrees>
              <LongitudeDegrees>-16.63773137144744396209716796875</LongitudeDegrees>
            </Position>
            <AltitudeMeters>3469.60009765625</AltitudeMeters>
            <DistanceMeters>9294.3454644256</DistanceMeters>
          </Trackpoint>
          <Trackpoint>
            <Time>2019-04-08T05:43:54.000Z</Time>
            <Position>
              <LatitudeDegrees>28.273561857640743255615234375</LatitudeDegrees>
              <LongitudeDegrees>-16.63777780719101428985595703125</LongitudeDegrees>
            </Position>
            <AltitudeMeters>3470.60009765625</AltitudeMeters>
            <DistanceMeters>9299.3160065641</DistanceMeters>
          </Trackpoint>
          <Trackpoint>
            <Time>2019-04-08T05:43:55.000Z</Time>
            <Position>
              <LatitudeDegrees>28.273564539849758148193359375</LatitudeDegrees>
              <LongitudeDegrees>-16.6377839259803295135498046875</LongitudeDegrees>
            </Position>
            <AltitudeMeters>3470.800048828125</AltitudeMeters>
            <DistanceMeters>9299.9879469053</DistanceMeters>
          </Trackpoint>
          <Trackpoint>
            <Time>2019-04-08T05:44:03.000Z</Time>
            <Position>
              <LatitudeDegrees>28.27357719652354717254638671875</LatitudeDegrees>
              <LongitudeDegrees>-16.63780689239501953125</LongitudeDegrees>
            </Position>
            <AltitudeMeters>3472</AltitudeMeters>
            <DistanceMeters>9302.6452989293</DistanceMeters>
          </Trackpoint>
          <Trackpoint>
            <Time>2019-04-08T05:44:11.000Z</Time>
            <Position>
              <LatitudeDegrees>28.27358809299767017364501953125</LatitudeDegrees>
              <LongitudeDegrees>-16.63785207085311412811279296875</LongitudeDegrees>
            </Position>
            <AltitudeMeters>3472.39990234375</AltitudeMeters>
            <DistanceMeters>9307.2371643995</DistanceMeters>
          </Trackpoint>
          <Trackpoint>
            <Time>2019-04-08T05:44:21.000Z</Time>
            <Position>
              <LatitudeDegrees>28.27357702888548374176025390625</LatitudeDegrees>
              <LongitudeDegrees>-16.63791711442172527313232421875</LongitudeDegrees>
            </Position>
            <AltitudeMeters>3473</AltitudeMeters>
            <DistanceMeters>9313.7310428241</DistanceMeters>
          </Trackpoint>
          <Trackpoint>
            <Time>2019-04-08T05:44:22.000Z</Time>
            <Position>
              <LatitudeDegrees>28.27357518486678600311279296875</LatitudeDegrees>
              <LongitudeDegrees>-16.63792558014392852783203125</LongitudeDegrees>
            </Position>
            <AltitudeMeters>3473</AltitudeMeters>
            <DistanceMeters>9314.5809875961</DistanceMeters>
          </Trackpoint>
          <Trackpoint>
            <Time>2019-04-08T05:44:30.000Z</Time>
            <Position>
              <LatitudeDegrees>28.2735590077936649322509765625</LatitudeDegrees>
              <LongitudeDegrees>-16.6379897855222225189208984375</LongitudeDegrees>
            </Position>
            <AltitudeMeters>3473.60009765625</AltitudeMeters>
            <DistanceMeters>9321.1268040255</DistanceMeters>
          </Trackpoint>
          <Trackpoint>
            <Time>2019-04-08T05:44:32.000Z</Time>
            <Position>
              <LatitudeDegrees>28.27355355955660343170166015625</LatitudeDegrees>
              <LongitudeDegrees>-16.63799875415861606597900390625</LongitudeDegrees>
            </Position>
            <AltitudeMeters>3474</AltitudeMeters>
            <DistanceMeters>9322.1934762488</DistanceMeters>
          </Trackpoint>
          <Trackpoint>
            <Time>2019-04-08T05:44:33.000Z</Time>
            <Position>
              <LatitudeDegrees>28.27355121262371540069580078125</LatitudeDegrees>
              <LongitudeDegrees>-16.638001687824726104736328125</LongitudeDegrees>
            </Position>
            <AltitudeMeters>3474</AltitudeMeters>
            <DistanceMeters>9322.5735831062</DistanceMeters>
          </Trackpoint>
          <Trackpoint>
            <Time>2019-04-08T05:44:42.000Z</Time>
            <Position>
              <LatitudeDegrees>28.2735378853976726531982421875</LatitudeDegrees>
              <LongitudeDegrees>-16.638046614825725555419921875</LongitudeDegrees>
            </Position>
            <AltitudeMeters>3474.800048828125</AltitudeMeters>
            <DistanceMeters>9327.2211569737</DistanceMeters>
          </Trackpoint>
          <Trackpoint>
            <Time>2019-04-08T05:44:45.000Z</Time>
            <Position>
              <LatitudeDegrees>28.27353528700768947601318359375</LatitudeDegrees>
              <LongitudeDegrees>-16.6380635462701320648193359375</LongitudeDegrees>
            </Position>
            <AltitudeMeters>3475.199951171875</AltitudeMeters>
            <DistanceMeters>9328.9050346425</DistanceMeters>
          </Trackpoint>
          <Trackpoint>
            <Time>2019-04-08T05:44:53.000Z</Time>
            <Position>
              <LatitudeDegrees>28.2735459320247173309326171875</LatitudeDegrees>
              <LongitudeDegrees>-16.6381044499576091766357421875</LongitudeDegrees>
            </Position>
            <AltitudeMeters>3476.39990234375</AltitudeMeters>
            <DistanceMeters>9333.0851300863</DistanceMeters>
          </Trackpoint>
          <Trackpoint>
            <Time>2019-04-08T05:44:57.000Z</Time>
            <Position>
              <LatitudeDegrees>28.27354953624308109283447265625</LatitudeDegrees>
              <LongitudeDegrees>-16.63810973055660724639892578125</LongitudeDegrees>
            </Position>
            <AltitudeMeters>3477.39990234375</AltitudeMeters>
            <DistanceMeters>9333.7296326204</DistanceMeters>
          </Trackpoint>
          <Trackpoint>
            <Time>2019-04-08T05:45:02.000Z</Time>
            <Position>
              <LatitudeDegrees>28.2735476084053516387939453125</LatitudeDegrees>
              <LongitudeDegrees>-16.63810621015727519989013671875</LongitudeDegrees>
            </Position>
            <AltitudeMeters>3478.39990234375</AltitudeMeters>
            <DistanceMeters>9334.1327968251</DistanceMeters>
          </Trackpoint>
          <Trackpoint>
            <Time>2019-04-08T05:45:08.000Z</Time>
            <Position>
              <LatitudeDegrees>28.27355070970952510833740234375</LatitudeDegrees>
              <LongitudeDegrees>-16.63813269697129726409912109375</LongitudeDegrees>
            </Position>
            <AltitudeMeters>3477.60009765625</AltitudeMeters>
            <DistanceMeters>9336.7507784944</DistanceMeters>
          </Trackpoint>
          <Trackpoint>
            <Time>2019-04-08T05:45:17.000Z</Time>
            <Position>
              <LatitudeDegrees>28.2735828123986721038818359375</LatitudeDegrees>
              <LongitudeDegrees>-16.63817527703940868377685546875</LongitudeDegrees>
            </Position>
            <AltitudeMeters>3478.199951171875</AltitudeMeters>
            <DistanceMeters>9342.2450978838</DistanceMeters>
          </Trackpoint>
          <Trackpoint>
            <Time>2019-04-08T05:45:19.000Z</Time>
            <Position>
              <LatitudeDegrees>28.27359077520668506622314453125</LatitudeDegrees>
              <LongitudeDegrees>-16.63818164728581905364990234375</LongitudeDegrees>
            </Position>
            <AltitudeMeters>3478.199951171875</AltitudeMeters>
            <DistanceMeters>9343.3327283422</DistanceMeters>
          </Trackpoint>
          <Trackpoint>
            <Time>2019-04-08T05:45:27.000Z</Time>
            <Position>
              <LatitudeDegrees>28.273592703044414520263671875</LatitudeDegrees>
              <LongitudeDegrees>-16.63818365894258022308349609375</LongitudeDegrees>
            </Position>
            <AltitudeMeters>3478.800048828125</AltitudeMeters>
            <DistanceMeters>9343.6478962989</DistanceMeters>
          </Trackpoint>
          <Trackpoint>
            <Time>2019-04-08T05:45:44.000Z</Time>
            <Position>
              <LatitudeDegrees>28.27360904775559902191162109375</LatitudeDegrees>
              <LongitudeDegrees>-16.63819380104541778564453125</LongitudeDegrees>
            </Position>
            <AltitudeMeters>3479</AltitudeMeters>
            <DistanceMeters>9345.7211344394</DistanceMeters>
          </Trackpoint>
          <Trackpoint>
            <Time>2019-04-08T05:45:49.000Z</Time>
            <Position>
              <LatitudeDegrees>28.27362480573356151580810546875</LatitudeDegrees>
              <LongitudeDegrees>-16.638221628963947296142578125</LongitudeDegrees>
            </Position>
            <AltitudeMeters>3479.39990234375</AltitudeMeters>
            <DistanceMeters>9348.9645954084</DistanceMeters>
          </Trackpoint>
          <Trackpoint>
            <Time>2019-04-08T05:45:52.000Z</Time>
            <Position>
              <LatitudeDegrees>28.27362379990518093109130859375</LatitudeDegrees>
              <LongitudeDegrees>-16.6382462717592716217041015625</LongitudeDegrees>
            </Position>
            <AltitudeMeters>3479.199951171875</AltitudeMeters>
            <DistanceMeters>9351.3817134153</DistanceMeters>
          </Trackpoint>
          <Trackpoint>
            <Time>2019-04-08T05:46:01.000Z</Time>
            <Position>
              <LatitudeDegrees>28.2736351154744625091552734375</LatitudeDegrees>
              <LongitudeDegrees>-16.63828860037028789520263671875</LongitudeDegrees>
            </Position>
            <AltitudeMeters>3480.60009765625</AltitudeMeters>
            <DistanceMeters>9355.7166400674</DistanceMeters>
          </Trackpoint>
          <Trackpoint>
            <Time>2019-04-08T05:46:02.000Z</Time>
            <Position>
              <LatitudeDegrees>28.27363536693155765533447265625</LatitudeDegrees>
              <LongitudeDegrees>-16.63829036056995391845703125</LongitudeDegrees>
            </Position>
            <AltitudeMeters>3480.800048828125</AltitudeMeters>
            <DistanceMeters>9355.8812311648</DistanceMeters>
          </Trackpoint>
          <Trackpoint>
            <Time>2019-04-08T05:46:15.000Z</Time>
            <Position>
              <LatitudeDegrees>28.27363385818898677825927734375</LatitudeDegrees>
              <LongitudeDegrees>-16.63829899393022060394287109375</LongitudeDegrees>
            </Position>
            <AltitudeMeters>3480.60009765625</AltitudeMeters>
            <DistanceMeters>9356.7364715941</DistanceMeters>
          </Trackpoint>
          <Trackpoint>
            <Time>2019-04-08T05:46:22.000Z</Time>
            <Position>
              <LatitudeDegrees>28.2736324332654476165771484375</LatitudeDegrees>
              <LongitudeDegrees>-16.63834727369248867034912109375</LongitudeDegrees>
            </Position>
            <AltitudeMeters>3481.60009765625</AltitudeMeters>
            <DistanceMeters>9361.4706716041</DistanceMeters>
          </Trackpoint>
          <Trackpoint>
            <Time>2019-04-08T05:46:24.000Z</Time>
            <Position>
              <LatitudeDegrees>28.27363017015159130096435546875</LatitudeDegrees>
              <LongitudeDegrees>-16.638363115489482879638671875</LongitudeDegrees>
            </Position>
            <AltitudeMeters>3481.800048828125</AltitudeMeters>
            <DistanceMeters>9363.0436436145</DistanceMeters>
          </Trackpoint>
          <Trackpoint>
            <Time>2019-04-08T05:46:29.000Z</Time>
            <Position>
              <LatitudeDegrees>28.2736354507505893707275390625</LatitudeDegrees>
              <LongitudeDegrees>-16.63839890621602535247802734375</LongitudeDegrees>
            </Position>
            <AltitudeMeters>3482.800048828125</AltitudeMeters>
            <DistanceMeters>9366.6004873133</DistanceMeters>
          </Trackpoint>
          <Trackpoint>
            <Time>2019-04-08T05:46:33.000Z</Time>
            <Position>
              <LatitudeDegrees>28.27365045435726642608642578125</LatitudeDegrees>
              <LongitudeDegrees>-16.6384276561439037322998046875</LongitudeDegrees>
            </Position>
            <AltitudeMeters>3483</AltitudeMeters>
            <DistanceMeters>9369.8758087961</DistanceMeters>
          </Trackpoint>
          <Trackpoint>
            <Time>2019-04-08T05:46:40.000Z</Time>
            <Position>
              <LatitudeDegrees>28.2737015001475811004638671875</LatitudeDegrees>
              <LongitudeDegrees>-16.63845104165375232696533203125</LongitudeDegrees>
            </Position>
            <AltitudeMeters>3482.60009765625</AltitudeMeters>
            <DistanceMeters>9376.0026373213</DistanceMeters>
          </Trackpoint>
          <Trackpoint>
            <Time>2019-04-08T05:46:47.000Z</Time>
            <Position>
              <LatitudeDegrees>28.27374634332954883575439453125</LatitudeDegrees>
              <LongitudeDegrees>-16.63848079741001129150390625</LongitudeDegrees>
            </Position>
            <AltitudeMeters>3482</AltitudeMeters>
            <DistanceMeters>9381.7828866968</DistanceMeters>
          </Trackpoint>
          <Trackpoint>
            <Time>2019-04-08T05:46:49.000Z</Time>
            <Position>
              <LatitudeDegrees>28.2737608440220355987548828125</LatitudeDegrees>
              <LongitudeDegrees>-16.63849479518830776214599609375</LongitudeDegrees>
            </Position>
            <AltitudeMeters>3481.60009765625</AltitudeMeters>
            <DistanceMeters>9383.9013644504</DistanceMeters>
          </Trackpoint>
          <Trackpoint>
            <Time>2019-04-08T05:46:53.000Z</Time>
            <Position>
              <LatitudeDegrees>28.27377484180033206939697265625</LatitudeDegrees>
              <LongitudeDegrees>-16.63853167556226253509521484375</LongitudeDegrees>
            </Position>
            <AltitudeMeters>3481.39990234375</AltitudeMeters>
            <DistanceMeters>9387.8366638166</DistanceMeters>
          </Trackpoint>
          <Trackpoint>
            <Time>2019-04-08T05:47:01.000Z</Time>
            <Position>
              <LatitudeDegrees>28.27380149625241756439208984375</LatitudeDegrees>
              <LongitudeDegrees>-16.6386150754988193511962890625</LongitudeDegrees>
            </Position>
            <AltitudeMeters>3481</AltitudeMeters>
            <DistanceMeters>9396.5335552322</DistanceMeters>
          </Trackpoint>
          <Trackpoint>
            <Time>2019-04-08T05:47:02.000Z</Time>
            <Position>
              <LatitudeDegrees>28.273809961974620819091796875</LatitudeDegrees>
              <LongitudeDegrees>-16.638625301420688629150390625</LongitudeDegrees>
            </Position>
            <AltitudeMeters>3481</AltitudeMeters>
            <DistanceMeters>9397.9106231511</DistanceMeters>
          </Trackpoint>
          <Trackpoint>
            <Time>2019-04-08T05:47:09.000Z</Time>
            <Position>
              <LatitudeDegrees>28.27386729419231414794921875</LatitudeDegrees>
              <LongitudeDegrees>-16.63867450319230556488037109375</LongitudeDegrees>
            </Position>
            <AltitudeMeters>3480.800048828125</AltitudeMeters>
            <DistanceMeters>9405.9092537592</DistanceMeters>
          </Trackpoint>
          <Trackpoint>
            <Time>2019-04-08T05:47:11.000Z</Time>
            <Position>
              <LatitudeDegrees>28.2738848961889743804931640625</LatitudeDegrees>
              <LongitudeDegrees>-16.638684980571269989013671875</LongitudeDegrees>
            </Position>
            <AltitudeMeters>3480.60009765625</AltitudeMeters>
            <DistanceMeters>9408.1236005047</DistanceMeters>
          </Trackpoint>
          <Trackpoint>
            <Time>2019-04-08T05:47:15.000Z</Time>
            <Position>
              <LatitudeDegrees>28.27391783706843852996826171875</LatitudeDegrees>
              <LongitudeDegrees>-16.63871691562235355377197265625</LongitudeDegrees>
            </Position>
            <AltitudeMeters>3480.39990234375</AltitudeMeters>
            <DistanceMeters>9412.9447431873</DistanceMeters>
          </Trackpoint>
          <Trackpoint>
            <Time>2019-04-08T05:47:21.000Z</Time>
            <Position>
              <LatitudeDegrees>28.2738952897489070892333984375</LatitudeDegrees>
              <LongitudeDegrees>-16.63876670412719249725341796875</LongitudeDegrees>
            </Position>
            <AltitudeMeters>3481</AltitudeMeters>
            <DistanceMeters>9418.4324845206</DistanceMeters>
          </Trackpoint>
          <Trackpoint>
            <Time>2019-04-08T05:47:29.000Z</Time>
            <Position>
              <LatitudeDegrees>28.27385111711919307708740234375</LatitudeDegrees>
              <LongitudeDegrees>-16.63881129585206508636474609375</LongitudeDegrees>
            </Position>
            <AltitudeMeters>3481.199951171875</AltitudeMeters>
            <DistanceMeters>9425.01132609</DistanceMeters>
          </Trackpoint>
          <Trackpoint>
            <Time>2019-04-08T05:47:33.000Z</Time>
            <Position>
              <LatitudeDegrees>28.27382479794323444366455078125</LatitudeDegrees>
              <LongitudeDegrees>-16.6388380341231822967529296875</LongitudeDegrees>
            </Position>
            <AltitudeMeters>3481.60009765625</AltitudeMeters>
            <DistanceMeters>9428.9420335067</DistanceMeters>
          </Trackpoint>
          <Trackpoint>
            <Time>2019-04-08T05:47:38.000Z</Time>
            <Position>
              <LatitudeDegrees>28.27379621565341949462890625</LatitudeDegrees>
              <LongitudeDegrees>-16.6388625092804431915283203125</LongitudeDegrees>
            </Position>
            <AltitudeMeters>3482.60009765625</AltitudeMeters>
            <DistanceMeters>9432.9286278605</DistanceMeters>
          </Trackpoint>
          <Trackpoint>
            <Time>2019-04-08T05:47:39.000Z</Time>
            <Position>
              <LatitudeDegrees>28.2737920247018337249755859375</LatitudeDegrees>
              <LongitudeDegrees>-16.63886594586074352264404296875</LongitudeDegrees>
            </Position>
            <AltitudeMeters>3482.800048828125</AltitudeMeters>
            <DistanceMeters>9433.4987881467</DistanceMeters>
          </Trackpoint>
          <Trackpoint>
            <Time>2019-04-08T05:47:44.000Z</Time>
            <Position>
              <LatitudeDegrees>28.27377283014357089996337890625</LatitudeDegrees>
              <LongitudeDegrees>-16.63888472132384777069091796875</LongitudeDegrees>
            </Position>
            <AltitudeMeters>3483.800048828125</AltitudeMeters>
            <DistanceMeters>9436.3209375799</DistanceMeters>
          </Trackpoint>
          <Trackpoint>
            <Time>2019-04-08T05:47:51.000Z</Time>
            <Position>
              <LatitudeDegrees>28.27373293228447437286376953125</LatitudeDegrees>
              <LongitudeDegrees>-16.638916321098804473876953125</LongitudeDegrees>
            </Position>
            <AltitudeMeters>3484.60009765625</AltitudeMeters>
            <DistanceMeters>9441.735792907</DistanceMeters>
          </Trackpoint>
          <Trackpoint>
            <Time>2019-04-08T05:47:57.000Z</Time>
            <Position>
              <LatitudeDegrees>28.2737162522971630096435546875</LatitudeDegrees>
              <LongitudeDegrees>-16.63892445154488086700439453125</LongitudeDegrees>
            </Position>
            <AltitudeMeters>3484.800048828125</AltitudeMeters>
            <DistanceMeters>9443.7583221724</DistanceMeters>
          </Trackpoint>
          <Trackpoint>
            <Time>2019-04-08T05:47:58.000Z</Time>
            <Position>
              <LatitudeDegrees>28.27371574938297271728515625</LatitudeDegrees>
              <LongitudeDegrees>-16.6389252059161663055419921875</LongitudeDegrees>
            </Position>
            <AltitudeMeters>3484.800048828125</AltitudeMeters>
            <DistanceMeters>9443.8533488867</DistanceMeters>
          </Trackpoint>
          <Trackpoint>
            <Time>2019-04-08T05:48:11.000Z</Time>
            <Position>
              <LatitudeDegrees>28.27371449209749698638916015625</LatitudeDegrees>
              <LongitudeDegrees>-16.638924367725849151611328125</LongitudeDegrees>
            </Position>
            <AltitudeMeters>3485.199951171875</AltitudeMeters>
            <DistanceMeters>9444.0179399841</DistanceMeters>
          </Trackpoint>
          <Trackpoint>
            <Time>2019-04-08T05:48:31.000Z</Time>
            <Position>
              <LatitudeDegrees>28.273713402450084686279296875</LatitudeDegrees>
              <LongitudeDegrees>-16.6389248706400394439697265625</LongitudeDegrees>
            </Position>
            <AltitudeMeters>3485.800048828125</AltitudeMeters>
            <DistanceMeters>9444.1129666985</DistanceMeters>
          </Trackpoint>
          <Trackpoint>
            <Time>2019-04-08T05:48:37.000Z</Time>
            <Position>
              <LatitudeDegrees>28.27369521372020244598388671875</LatitudeDegrees>
              <LongitudeDegrees>-16.638916321098804473876953125</LongitudeDegrees>
            </Position>
            <AltitudeMeters>3485.800048828125</AltitudeMeters>
            <DistanceMeters>9446.3027088275</DistanceMeters>
          </Trackpoint>
          <Trackpoint>
            <Time>2019-04-08T05:48:45.000Z</Time>
            <Position>
              <LatitudeDegrees>28.273675851523876190185546875</LatitudeDegrees>
              <LongitudeDegrees>-16.63890860974788665771484375</LongitudeDegrees>
            </Position>
            <AltitudeMeters>3486.60009765625</AltitudeMeters>
            <DistanceMeters>9448.5892814288</DistanceMeters>
          </Trackpoint>
          <Trackpoint>
            <Time>2019-04-08T05:48:56.000Z</Time>
            <Position>
              <LatitudeDegrees>28.27363251708447933197021484375</LatitudeDegrees>
              <LongitudeDegrees>-16.638906933367252349853515625</LongitudeDegrees>
            </Position>
            <AltitudeMeters>3486</AltitudeMeters>
            <DistanceMeters>9453.4160398882</DistanceMeters>
          </Trackpoint>
          <Trackpoint>
            <Time>2019-04-08T05:49:05.000Z</Time>
            <Position>
              <LatitudeDegrees>28.273576609790325164794921875</LatitudeDegrees>
              <LongitudeDegrees>-16.638894192874431610107421875</LongitudeDegrees>
            </Position>
            <AltitudeMeters>3486.800048828125</AltitudeMeters>
            <DistanceMeters>9459.7629423624</DistanceMeters>
          </Trackpoint>
          <Trackpoint>
            <Time>2019-04-08T05:49:06.000Z</Time>
            <Position>
              <LatitudeDegrees>28.27357082627713680267333984375</LatitudeDegrees>
              <LongitudeDegrees>-16.638892181217670440673828125</LongitudeDegrees>
            </Position>
            <AltitudeMeters>3487</AltitudeMeters>
            <DistanceMeters>9460.4415688419</DistanceMeters>
          </Trackpoint>
          <Trackpoint>
            <Time>2019-04-08T05:49:12.000Z</Time>
            <Position>
              <LatitudeDegrees>28.27355138026177883148193359375</LatitudeDegrees>
              <LongitudeDegrees>-16.63887952454388141632080078125</LongitudeDegrees>
            </Position>
            <AltitudeMeters>3488</AltitudeMeters>
            <DistanceMeters>9462.9377164229</DistanceMeters>
          </Trackpoint>
          <Trackpoint>
            <Time>2019-04-08T05:49:14.000Z</Time>
            <Position>
              <LatitudeDegrees>28.27354651875793933868408203125</LatitudeDegrees>
              <LongitudeDegrees>-16.63887650705873966217041015625</LongitudeDegrees>
            </Position>
            <AltitudeMeters>3488</AltitudeMeters>
            <DistanceMeters>9463.5461842809</DistanceMeters>
          </Trackpoint>
          <Trackpoint>
            <Time>2019-04-08T05:49:21.000Z</Time>
            <Position>
              <LatitudeDegrees>28.2735238038003444671630859375</LatitudeDegrees>
              <LongitudeDegrees>-16.63885421119630336761474609375</LongitudeDegrees>
            </Position>
            <AltitudeMeters>3489</AltitudeMeters>
            <DistanceMeters>9466.8883698773</DistanceMeters>
          </Trackpoint>
          <Trackpoint>
            <Time>2019-04-08T05:49:23.000Z</Time>
            <Position>
              <LatitudeDegrees>28.273516595363616943359375</LatitudeDegrees>
              <LongitudeDegrees>-16.63884884677827358245849609375</LongitudeDegrees>
            </Position>
            <AltitudeMeters>3489.39990234375</AltitudeMeters>
            <DistanceMeters>9467.8480926484</DistanceMeters>
          </Trackpoint>
          <Trackpoint>
            <Time>2019-04-08T05:49:25.000Z</Time>
            <Position>
              <LatitudeDegrees>28.27350712381303310394287109375</LatitudeDegrees>
              <LongitudeDegrees>-16.6388417221605777740478515625</LongitudeDegrees>
            </Position>
            <AltitudeMeters>3490.199951171875</AltitudeMeters>
            <DistanceMeters>9469.1159071486</DistanceMeters>
          </Trackpoint>
          <Trackpoint>
            <Time>2019-04-08T05:49:32.000Z</Time>
            <Position>
              <LatitudeDegrees>28.27347124926745891571044921875</LatitudeDegrees>
              <LongitudeDegrees>-16.63881666027009487152099609375</LongitudeDegrees>
            </Position>
            <AltitudeMeters>3491</AltitudeMeters>
            <DistanceMeters>9473.8041057435</DistanceMeters>
          </Trackpoint>
          <Trackpoint>
            <Time>2019-04-08T05:49:37.000Z</Time>
            <Position>
              <LatitudeDegrees>28.27344023622572422027587890625</LatitudeDegrees>
              <LongitudeDegrees>-16.638807356357574462890625</LongitudeDegrees>
            </Position>
            <AltitudeMeters>3491.199951171875</AltitudeMeters>
            <DistanceMeters>9477.3748854817</DistanceMeters>
          </Trackpoint>
          <Trackpoint>
            <Time>2019-04-08T05:49:42.000Z</Time>
            <Position>
              <LatitudeDegrees>28.2734094746410846710205078125</LatitudeDegrees>
              <LongitudeDegrees>-16.63880400359630584716796875</LongitudeDegrees>
            </Position>
            <AltitudeMeters>3491.60009765625</AltitudeMeters>
            <DistanceMeters>9480.8155874766</DistanceMeters>
          </Trackpoint>
          <Trackpoint>
            <Time>2019-04-08T05:49:49.000Z</Time>
            <Position>
              <LatitudeDegrees>28.2733776234090328216552734375</LatitudeDegrees>
              <LongitudeDegrees>-16.63878430612385272979736328125</LongitudeDegrees>
            </Position>
            <AltitudeMeters>3492.199951171875</AltitudeMeters>
            <DistanceMeters>9484.8517066405</DistanceMeters>
          </Trackpoint>
          <Trackpoint>
            <Time>2019-04-08T05:49:52.000Z</Time>
            <Position>
              <LatitudeDegrees>28.2733648829162120819091796875</LatitudeDegrees>
              <LongitudeDegrees>-16.63877642713487148284912109375</LongitudeDegrees>
            </Position>
            <AltitudeMeters>3492.39990234375</AltitudeMeters>
            <DistanceMeters>9486.4643634595</DistanceMeters>
          </Trackpoint>
          <Trackpoint>
            <Time>2019-04-08T05:49:58.000Z</Time>
            <Position>
              <LatitudeDegrees>28.27333143912255764007568359375</LatitudeDegrees>
              <LongitudeDegrees>-16.63876234553754329681396484375</LongitudeDegrees>
            </Position>
            <AltitudeMeters>3493.199951171875</AltitudeMeters>
            <DistanceMeters>9490.4339331332</DistanceMeters>
          </Trackpoint>
          <Trackpoint>
            <Time>2019-04-08T05:50:01.000Z</Time>
            <Position>
              <LatitudeDegrees>28.273323811590671539306640625</LatitudeDegrees>
              <LongitudeDegrees>-16.638742648065090179443359375</LongitudeDegrees>
            </Position>
            <AltitudeMeters>3494.39990234375</AltitudeMeters>
            <DistanceMeters>9492.546007413</DistanceMeters>
          </Trackpoint>
          <Trackpoint>
            <Time>2019-04-08T05:50:02.000Z</Time>
            <Position>
              <LatitudeDegrees>28.27332372777163982391357421875</LatitudeDegrees>
              <LongitudeDegrees>-16.6387362778186798095703125</LongitudeDegrees>
            </Position>
            <AltitudeMeters>3494.39990234375</AltitudeMeters>
            <DistanceMeters>9493.1763433263</DistanceMeters>
          </Trackpoint>
          <Trackpoint>
            <Time>2019-04-08T05:50:10.000Z</Time>
            <Position>
              <LatitudeDegrees>28.273305036127567291259765625</LatitudeDegrees>
              <LongitudeDegrees>-16.63869663141667842864990234375</LongitudeDegrees>
            </Position>
            <AltitudeMeters>3495.39990234375</AltitudeMeters>
            <DistanceMeters>9497.5845997285</DistanceMeters>
          </Trackpoint>
          <Trackpoint>
            <Time>2019-04-08T05:50:11.000Z</Time>
            <Position>
              <LatitudeDegrees>28.273300342261791229248046875</LatitudeDegrees>
              <LongitudeDegrees>-16.638691686093807220458984375</LongitudeDegrees>
            </Position>
            <AltitudeMeters>3495.800048828125</AltitudeMeters>
            <DistanceMeters>9498.295714544</DistanceMeters>
          </Trackpoint>
          <Trackpoint>
            <Time>2019-04-08T05:50:18.000Z</Time>
            <Position>
              <LatitudeDegrees>28.273265473544597625732421875</LatitudeDegrees>
              <LongitudeDegrees>-16.63868020288646221160888671875</LongitudeDegrees>
            </Position>
            <AltitudeMeters>3496.39990234375</AltitudeMeters>
            <DistanceMeters>9502.3363058634</DistanceMeters>
          </Trackpoint>
          <Trackpoint>
            <Time>2019-04-08T05:50:23.000Z</Time>
            <Position>
              <LatitudeDegrees>28.27323370613157749176025390625</LatitudeDegrees>
              <LongitudeDegrees>-16.638668216764926910400390625</LongitudeDegrees>
            </Position>
            <AltitudeMeters>3497</AltitudeMeters>
            <DistanceMeters>9506.0617893883</DistanceMeters>
          </Trackpoint>
          <Trackpoint>
            <Time>2019-04-08T05:50:27.000Z</Time>
            <Position>
              <LatitudeDegrees>28.27321350574493408203125</LatitudeDegrees>
              <LongitudeDegrees>-16.6386432386934757232666015625</LongitudeDegrees>
            </Position>
            <AltitudeMeters>3497.60009765625</AltitudeMeters>
            <DistanceMeters>9509.3850082332</DistanceMeters>
          </Trackpoint>
          <Trackpoint>
            <Time>2019-04-08T05:50:35.000Z</Time>
            <Position>
              <LatitudeDegrees>28.273174948990345001220703125</LatitudeDegrees>
              <LongitudeDegrees>-16.63858179934322834014892578125</LongitudeDegrees>
            </Position>
            <AltitudeMeters>3497.800048828125</AltitudeMeters>
            <DistanceMeters>9516.7800162078</DistanceMeters>
          </Trackpoint>
          <Trackpoint>
            <Time>2019-04-08T05:50:37.000Z</Time>
            <Position>
              <LatitudeDegrees>28.27316296286880970001220703125</LatitudeDegrees>
              <LongitudeDegrees>-16.63858012296259403228759765625</LongitudeDegrees>
            </Position>
            <AltitudeMeters>3498</AltitudeMeters>
            <DistanceMeters>9518.1272524029</DistanceMeters>
          </Trackpoint>
          <Trackpoint>
            <Time>2019-04-08T05:50:43.000Z</Time>
            <Position>
              <LatitudeDegrees>28.27312658540904521942138671875</LatitudeDegrees>
              <LongitudeDegrees>-16.6385664604604244232177734375</LongitudeDegrees>
            </Position>
            <AltitudeMeters>3498.199951171875</AltitudeMeters>
            <DistanceMeters>9522.3918243577</DistanceMeters>
          </Trackpoint>
          <Trackpoint>
            <Time>2019-04-08T05:50:53.000Z</Time>
            <Position>
              <LatitudeDegrees>28.27306992374360561370849609375</LatitudeDegrees>
              <LongitudeDegrees>-16.638558916747570037841796875</LongitudeDegrees>
            </Position>
            <AltitudeMeters>3498.800048828125</AltitudeMeters>
            <DistanceMeters>9528.7408606031</DistanceMeters>
          </Trackpoint>
          <Trackpoint>
            <Time>2019-04-08T05:51:00.000Z</Time>
            <Position>
              <LatitudeDegrees>28.27305215410888195037841796875</LatitudeDegrees>
              <LongitudeDegrees>-16.63859420455992221832275390625</LongitudeDegrees>
            </Position>
            <AltitudeMeters>3498.199951171875</AltitudeMeters>
            <DistanceMeters>9532.7251892026</DistanceMeters>
          </Trackpoint>
          <Trackpoint>
            <Time>2019-04-08T05:51:09.000Z</Time>
            <Position>
              <LatitudeDegrees>28.27303002588450908660888671875</LatitudeDegrees>
              <LongitudeDegrees>-16.63856972940266132354736328125</LongitudeDegrees>
            </Position>
            <AltitudeMeters>3497.800048828125</AltitudeMeters>
            <DistanceMeters>9536.1645787039</DistanceMeters>
          </Trackpoint>
          <Trackpoint>
            <Time>2019-04-08T05:51:12.000Z</Time>
            <Position>
              <LatitudeDegrees>28.27301166951656341552734375</LatitudeDegrees>
              <LongitudeDegrees>-16.63855950348079204559326171875</LongitudeDegrees>
            </Position>
            <AltitudeMeters>3497</AltitudeMeters>
            <DistanceMeters>9538.4412569593</DistanceMeters>
          </Trackpoint>
          <Trackpoint>
            <Time>2019-04-08T05:51:18.000Z</Time>
            <Position>
              <LatitudeDegrees>28.27296741306781768798828125</LatitudeDegrees>
              <LongitudeDegrees>-16.6385565698146820068359375</LongitudeDegrees>
            </Position>
            <AltitudeMeters>3496.60009765625</AltitudeMeters>
            <DistanceMeters>9543.3753309447</DistanceMeters>
          </Trackpoint>
          <Trackpoint>
            <Time>2019-04-08T05:51:26.000Z</Time>
            <Position>
              <LatitudeDegrees>28.272916786372661590576171875</LatitudeDegrees>
              <LongitudeDegrees>-16.6385671310126781463623046875</LongitudeDegrees>
            </Position>
            <AltitudeMeters>3496</AltitudeMeters>
            <DistanceMeters>9549.1045828918</DistanceMeters>
          </Trackpoint>
          <Trackpoint>
            <Time>2019-04-08T05:51:29.000Z</Time>
            <Position>
              <LatitudeDegrees>28.2728931494057178497314453125</LatitudeDegrees>
              <LongitudeDegrees>-16.63857928477227687835693359375</LongitudeDegrees>
            </Position>
            <AltitudeMeters>3495.60009765625</AltitudeMeters>
            <DistanceMeters>9551.9915814297</DistanceMeters>
          </Trackpoint>
          <Trackpoint>
            <Time>2019-04-08T05:51:36.000Z</Time>
            <Position>
              <LatitudeDegrees>28.27284461818635463714599609375</LatitudeDegrees>
              <LongitudeDegrees>-16.6386341862380504608154296875</LongitudeDegrees>
            </Position>
            <AltitudeMeters>3495.60009765625</AltitudeMeters>
            <DistanceMeters>9559.6162540224</DistanceMeters>
          </Trackpoint>
          <Trackpoint>
            <Time>2019-04-08T05:51:44.000Z</Time>
            <Position>
              <LatitudeDegrees>28.27279650606215000152587890625</LatitudeDegrees>
              <LongitudeDegrees>-16.63865740410983562469482421875</LongitudeDegrees>
            </Position>
            <AltitudeMeters>3494.800048828125</AltitudeMeters>
            <DistanceMeters>9565.4346521343</DistanceMeters>
          </Trackpoint>
          <Trackpoint>
            <Time>2019-04-08T05:51:49.000Z</Time>
            <Position>
              <LatitudeDegrees>28.272766582667827606201171875</LatitudeDegrees>
              <LongitudeDegrees>-16.63864298723638057708740234375</LongitudeDegrees>
            </Position>
            <AltitudeMeters>3494.800048828125</AltitudeMeters>
            <DistanceMeters>9569.0519136354</DistanceMeters>
          </Trackpoint>
          <Trackpoint>
            <Time>2019-04-08T05:51:50.000Z</Time>
            <Position>
              <LatitudeDegrees>28.2727566920220851898193359375</LatitudeDegrees>
              <LongitudeDegrees>-16.63864533416926860809326171875</LongitudeDegrees>
            </Position>
            <AltitudeMeters>3494.60009765625</AltitudeMeters>
            <DistanceMeters>9570.1762848829</DistanceMeters>
          </Trackpoint>
          <Trackpoint>
            <Time>2019-04-08T05:51:51.000Z</Time>
            <Position>
              <LatitudeDegrees>28.2727452926337718963623046875</LatitudeDegrees>
              <LongitudeDegrees>-16.6386462561786174774169921875</LongitudeDegrees>
            </Position>
            <AltitudeMeters>3494.39990234375</AltitudeMeters>
            <DistanceMeters>9571.447655672</DistanceMeters>
          </Trackpoint>
          <Trackpoint>
            <Time>2019-04-08T05:51:59.000Z</Time>
            <Position>
              <LatitudeDegrees>28.27267664484679698944091796875</LatitudeDegrees>
              <LongitudeDegrees>-16.63863980211317539215087890625</LongitudeDegrees>
            </Position>
            <AltitudeMeters>3493.800048828125</AltitudeMeters>
            <DistanceMeters>9579.1142564555</DistanceMeters>
          </Trackpoint>
          <Trackpoint>
            <Time>2019-04-08T05:52:03.000Z</Time>
            <Position>
              <LatitudeDegrees>28.2726497389376163482666015625</LatitudeDegrees>
              <LongitudeDegrees>-16.63863762281835079193115234375</LongitudeDegrees>
            </Position>
            <AltitudeMeters>3493.60009765625</AltitudeMeters>
            <DistanceMeters>9582.1162585027</DistanceMeters>
          </Trackpoint>
          <Trackpoint>
            <Time>2019-04-08T05:52:09.000Z</Time>
            <Position>
              <LatitudeDegrees>28.2726287841796875</LatitudeDegrees>
              <LongitudeDegrees>-16.638641394674777984619140625</LongitudeDegrees>
            </Position>
            <AltitudeMeters>3494.199951171875</AltitudeMeters>
            <DistanceMeters>9584.4804956564</DistanceMeters>
          </Trackpoint>
          <Trackpoint>
            <Time>2019-04-08T05:52:19.000Z</Time>
            <Position>
              <LatitudeDegrees>28.27256013639271259307861328125</LatitudeDegrees>
              <LongitudeDegrees>-16.63863527588546276092529296875</LongitudeDegrees>
            </Position>
            <AltitudeMeters>3494.39990234375</AltitudeMeters>
            <DistanceMeters>9592.1447403855</DistanceMeters>
          </Trackpoint>
          <Trackpoint>
            <Time>2019-04-08T05:52:28.000Z</Time>
            <Position>
              <LatitudeDegrees>28.27249802649021148681640625</LatitudeDegrees>
              <LongitudeDegrees>-16.6386375389993190765380859375</LongitudeDegrees>
            </Position>
            <AltitudeMeters>3495.199951171875</AltitudeMeters>
            <DistanceMeters>9599.0608314002</DistanceMeters>
          </Trackpoint>
          <Trackpoint>
            <Time>2019-04-08T05:52:32.000Z</Time>
            <Position>
              <LatitudeDegrees>28.2724676840007305145263671875</LatitudeDegrees>
              <LongitudeDegrees>-16.63865111768245697021484375</LongitudeDegrees>
            </Position>
            <AltitudeMeters>3495.60009765625</AltitudeMeters>
            <DistanceMeters>9602.691797058</DistanceMeters>
          </Trackpoint>
          <Trackpoint>
            <Time>2019-04-08T05:52:37.000Z</Time>
            <Position>
              <LatitudeDegrees>28.2724304683506488800048828125</LatitudeDegrees>
              <LongitudeDegrees>-16.63866092450916767120361328125</LongitudeDegrees>
            </Position>
            <AltitudeMeters>3496.199951171875</AltitudeMeters>
            <DistanceMeters>9606.9436452492</DistanceMeters>
          </Trackpoint>
          <Trackpoint>
            <Time>2019-04-08T05:52:40.000Z</Time>
            <Position>
              <LatitudeDegrees>28.27240926213562488555908203125</LatitudeDegrees>
              <LongitudeDegrees>-16.63865220732986927032470703125</LongitudeDegrees>
            </Position>
            <AltitudeMeters>3496.60009765625</AltitudeMeters>
            <DistanceMeters>9609.4542215491</DistanceMeters>
          </Trackpoint>
          <Trackpoint>
            <Time>2019-04-08T05:52:45.000Z</Time>
            <Position>
              <LatitudeDegrees>28.27237104065716266632080078125</LatitudeDegrees>
              <LongitudeDegrees>-16.6386227868497371673583984375</LongitudeDegrees>
            </Position>
            <AltitudeMeters>3497</AltitudeMeters>
            <DistanceMeters>9614.5926983197</DistanceMeters>
          </Trackpoint>
          <Trackpoint>
            <Time>2019-04-08T05:52:50.000Z</Time>
            <Position>
              <LatitudeDegrees>28.27234304510056972503662109375</LatitudeDegrees>
              <LongitudeDegrees>-16.63858884014189243316650390625</LongitudeDegrees>
            </Position>
            <AltitudeMeters>3497.60009765625</AltitudeMeters>
            <DistanceMeters>9619.1520004565</DistanceMeters>
          </Trackpoint>
          <Trackpoint>
            <Time>2019-04-08T05:52:52.000Z</Time>
            <Position>
              <LatitudeDegrees>28.27233080752193927764892578125</LatitudeDegrees>
              <LongitudeDegrees>-16.63857006467878818511962890625</LongitudeDegrees>
            </Position>
            <AltitudeMeters>3498.39990234375</AltitudeMeters>
            <DistanceMeters>9621.4425188288</DistanceMeters>
          </Trackpoint>
          <Trackpoint>
            <Time>2019-04-08T05:52:58.000Z</Time>
            <Position>
              <LatitudeDegrees>28.27227783389389514923095703125</LatitudeDegrees>
              <LongitudeDegrees>-16.63855715654790401458740234375</LongitudeDegrees>
            </Position>
            <AltitudeMeters>3498.39990234375</AltitudeMeters>
            <DistanceMeters>9627.473534325</DistanceMeters>
          </Trackpoint>
          <Trackpoint>
            <Time>2019-04-08T05:53:01.000Z</Time>
            <Position>
              <LatitudeDegrees>28.27225528657436370849609375</LatitudeDegrees>
              <LongitudeDegrees>-16.6385567374527454376220703125</LongitudeDegrees>
            </Position>
            <AltitudeMeters>3499</AltitudeMeters>
            <DistanceMeters>9629.9823115733</DistanceMeters>
          </Trackpoint>
          <Trackpoint>
            <Time>2019-04-08T05:53:07.000Z</Time>
            <Position>
              <LatitudeDegrees>28.27221882529556751251220703125</LatitudeDegrees>
              <LongitudeDegrees>-16.63855145685374736785888671875</LongitudeDegrees>
            </Position>
            <AltitudeMeters>3499.39990234375</AltitudeMeters>
            <DistanceMeters>9634.0739813702</DistanceMeters>
          </Trackpoint>
          <Trackpoint>
            <Time>2019-04-08T05:53:12.000Z</Time>
            <Position>
              <LatitudeDegrees>28.2721776701509952545166015625</LatitudeDegrees>
              <LongitudeDegrees>-16.63854139856994152069091796875</LongitudeDegrees>
            </Position>
            <AltitudeMeters>3500</AltitudeMeters>
            <DistanceMeters>9638.7592898804</DistanceMeters>
          </Trackpoint>
          <Trackpoint>
            <Time>2019-04-08T05:53:16.000Z</Time>
            <Position>
              <LatitudeDegrees>28.2721562124788761138916015625</LatitudeDegrees>
              <LongitudeDegrees>-16.63854106329381465911865234375</LongitudeDegrees>
            </Position>
            <AltitudeMeters>3500.199951171875</AltitudeMeters>
            <DistanceMeters>9641.1463337083</DistanceMeters>
          </Trackpoint>
          <Trackpoint>
            <Time>2019-04-08T05:53:21.000Z</Time>
            <Position>
              <LatitudeDegrees>28.27211120165884494781494140625</LatitudeDegrees>
              <LongitudeDegrees>-16.6385325975716114044189453125</LongitudeDegrees>
            </Position>
            <AltitudeMeters>3500.39990234375</AltitudeMeters>
            <DistanceMeters>9646.2238201186</DistanceMeters>
          </Trackpoint>
          <Trackpoint>
            <Time>2019-04-08T05:53:23.000Z</Time>
            <Position>
              <LatitudeDegrees>28.2720951922237873077392578125</LatitudeDegrees>
              <LongitudeDegrees>-16.638523377478122711181640625</LongitudeDegrees>
            </Position>
            <AltitudeMeters>3500.39990234375</AltitudeMeters>
            <DistanceMeters>9648.2239010832</DistanceMeters>
          </Trackpoint>
          <Trackpoint>
            <Time>2019-04-08T05:53:32.000Z</Time>
            <Position>
              <LatitudeDegrees>28.27201866544783115386962890625</LatitudeDegrees>
              <LongitudeDegrees>-16.63848306052386760711669921875</LongitudeDegrees>
            </Position>
            <AltitudeMeters>3500.199951171875</AltitudeMeters>
            <DistanceMeters>9657.6137714975</DistanceMeters>
          </Trackpoint>
          <Trackpoint>
            <Time>2019-04-08T05:53:39.000Z</Time>
            <Position>
              <LatitudeDegrees>28.27195697464048862457275390625</LatitudeDegrees>
              <LongitudeDegrees>-16.63843628950417041778564453125</LongitudeDegrees>
            </Position>
            <AltitudeMeters>3499.800048828125</AltitudeMeters>
            <DistanceMeters>9665.870165812</DistanceMeters>
          </Trackpoint>
          <Trackpoint>
            <Time>2019-04-08T05:53:44.000Z</Time>
            <Position>
              <LatitudeDegrees>28.2719193398952484130859375</LatitudeDegrees>
              <LongitudeDegrees>-16.63840946741402149200439453125</LongitudeDegrees>
            </Position>
            <AltitudeMeters>3499.39990234375</AltitudeMeters>
            <DistanceMeters>9670.8170342318</DistanceMeters>
          </Trackpoint>
          <Trackpoint>
            <Time>2019-04-08T05:53:51.000Z</Time>
            <Position>
              <LatitudeDegrees>28.27186577953398227691650390625</LatitudeDegrees>
              <LongitudeDegrees>-16.63839169777929782867431640625</LongitudeDegrees>
            </Position>
            <AltitudeMeters>3498.800048828125</AltitudeMeters>
            <DistanceMeters>9677.0273044749</DistanceMeters>
          </Trackpoint>
          <Trackpoint>
            <Time>2019-04-08T05:53:53.000Z</Time>
            <Position>
              <LatitudeDegrees>28.271848261356353759765625</LatitudeDegrees>
              <LongitudeDegrees>-16.63838918320834636688232421875</LongitudeDegrees>
            </Position>
            <AltitudeMeters>3498.800048828125</AltitudeMeters>
            <DistanceMeters>9678.9932324283</DistanceMeters>
          </Trackpoint>
          <Trackpoint>
            <Time>2019-04-08T05:54:00.000Z</Time>
            <Position>
              <LatitudeDegrees>28.27181314118206501007080078125</LatitudeDegrees>
              <LongitudeDegrees>-16.63836152292788028717041015625</LongitudeDegrees>
            </Position>
            <AltitudeMeters>3499.39990234375</AltitudeMeters>
            <DistanceMeters>9683.7502663328</DistanceMeters>
          </Trackpoint>
          <Trackpoint>
            <Time>2019-04-08T05:54:05.000Z</Time>
            <Position>
              <LatitudeDegrees>28.27177693136036396026611328125</LatitudeDegrees>
              <LongitudeDegrees>-16.63836973719298839569091796875</LongitudeDegrees>
            </Position>
            <AltitudeMeters>3499.800048828125</AltitudeMeters>
            <DistanceMeters>9687.8595537345</DistanceMeters>
          </Trackpoint>
          <Trackpoint>
            <Time>2019-04-08T05:54:08.000Z</Time>
            <Position>
              <LatitudeDegrees>28.271749354898929595947265625</LatitudeDegrees>
              <LongitudeDegrees>-16.6383619420230388641357421875</LongitudeDegrees>
            </Position>
            <AltitudeMeters>3500.39990234375</AltitudeMeters>
            <DistanceMeters>9691.0198171013</DistanceMeters>
          </Trackpoint>
          <Trackpoint>
            <Time>2019-04-08T05:54:10.000Z</Time>
            <Position>
              <LatitudeDegrees>28.27173921279609203338623046875</LatitudeDegrees>
              <LongitudeDegrees>-16.63835297338664531707763671875</LongitudeDegrees>
            </Position>
            <AltitudeMeters>3501</AltitudeMeters>
            <DistanceMeters>9692.4483818622</DistanceMeters>
          </Trackpoint>
          <Trackpoint>
            <Time>2019-04-08T05:54:15.000Z</Time>
            <Position>
              <LatitudeDegrees>28.27171289362013339996337890625</LatitudeDegrees>
              <LongitudeDegrees>-16.638367474079132080078125</LongitudeDegrees>
            </Position>
            <AltitudeMeters>3501.39990234375</AltitudeMeters>
            <DistanceMeters>9695.7029601251</DistanceMeters>
          </Trackpoint>
          <Trackpoint>
            <Time>2019-04-08T05:54:24.000Z</Time>
            <Position>
              <LatitudeDegrees>28.2716771028935909271240234375</LatitudeDegrees>
              <LongitudeDegrees>-16.63841784931719303131103515625</LongitudeDegrees>
            </Position>
            <AltitudeMeters>3501.800048828125</AltitudeMeters>
            <DistanceMeters>9702.0477281103</DistanceMeters>
          </Trackpoint>
          <Trackpoint>
            <Time>2019-04-08T05:54:26.000Z</Time>
            <Position>
              <LatitudeDegrees>28.27166712842881679534912109375</LatitudeDegrees>
              <LongitudeDegrees>-16.63843117654323577880859375</LongitudeDegrees>
            </Position>
            <AltitudeMeters>3502.199951171875</AltitudeMeters>
            <DistanceMeters>9703.7608465663</DistanceMeters>
          </Trackpoint>
          <Trackpoint>
            <Time>2019-04-08T05:54:31.000Z</Time>
            <Position>
              <LatitudeDegrees>28.27164885587990283966064453125</LatitudeDegrees>
              <LongitudeDegrees>-16.6384658776223659515380859375</LongitudeDegrees>
            </Position>
            <AltitudeMeters>3503</AltitudeMeters>
            <DistanceMeters>9707.7247250978</DistanceMeters>
          </Trackpoint>
          <Trackpoint>
            <Time>2019-04-08T05:54:36.000Z</Time>
            <Position>
              <LatitudeDegrees>28.27162572182714939117431640625</LatitudeDegrees>
              <LongitudeDegrees>-16.63850150071084499359130859375</LongitudeDegrees>
            </Position>
            <AltitudeMeters>3503.39990234375</AltitudeMeters>
            <DistanceMeters>9712.0627752715</DistanceMeters>
          </Trackpoint>
          <Trackpoint>
            <Time>2019-04-08T05:54:38.000Z</Time>
            <Position>
              <LatitudeDegrees>28.2716137357056140899658203125</LatitudeDegrees>
              <LongitudeDegrees>-16.6385165043175220489501953125</LongitudeDegrees>
            </Position>
            <AltitudeMeters>3504</AltitudeMeters>
            <DistanceMeters>9714.0515370678</DistanceMeters>
          </Trackpoint>
          <Trackpoint>
            <Time>2019-04-08T05:54:41.000Z</Time>
            <Position>
              <LatitudeDegrees>28.27159420587122440338134765625</LatitudeDegrees>
              <LongitudeDegrees>-16.63853586651384830474853515625</LongitudeDegrees>
            </Position>
            <AltitudeMeters>3505</AltitudeMeters>
            <DistanceMeters>9716.9385356057</DistanceMeters>
          </Trackpoint>
          <Trackpoint>
            <Time>2019-04-08T05:54:45.000Z</Time>
            <Position>
              <LatitudeDegrees>28.271548859775066375732421875</LatitudeDegrees>
              <LongitudeDegrees>-16.6385570727288722991943359375</LongitudeDegrees>
            </Position>
            <AltitudeMeters>3504.800048828125</AltitudeMeters>
            <DistanceMeters>9722.3974047436</DistanceMeters>
          </Trackpoint>
          <Trackpoint>
            <Time>2019-04-08T05:54:47.000Z</Time>
            <Position>
              <LatitudeDegrees>28.2715285755693912506103515625</LatitudeDegrees>
              <LongitudeDegrees>-16.6385708190500736236572265625</LongitudeDegrees>
            </Position>
            <AltitudeMeters>3504.39990234375</AltitudeMeters>
            <DistanceMeters>9725.027431085</DistanceMeters>
          </Trackpoint>
          <Trackpoint>
            <Time>2019-04-08T05:54:48.000Z</Time>
            <Position>
              <LatitudeDegrees>28.27152195386588573455810546875</LatitudeDegrees>
              <LongitudeDegrees>-16.6385753452777862548828125</LongitudeDegrees>
            </Position>
            <AltitudeMeters>3504</AltitudeMeters>
            <DistanceMeters>9725.887934582</DistanceMeters>
          </Trackpoint>
          <Trackpoint>
            <Time>2019-04-08T05:54:51.000Z</Time>
            <Position>
              <LatitudeDegrees>28.271502591669559478759765625</LatitudeDegrees>
              <LongitudeDegrees>-16.6385906003415584564208984375</LongitudeDegrees>
            </Position>
            <AltitudeMeters>3503.39990234375</AltitudeMeters>
            <DistanceMeters>9728.5110850257</DistanceMeters>
          </Trackpoint>
          <Trackpoint>
            <Time>2019-04-08T05:54:59.000Z</Time>
            <Position>
              <LatitudeDegrees>28.2714652083814144134521484375</LatitudeDegrees>
              <LongitudeDegrees>-16.6386281512677669525146484375</LongitudeDegrees>
            </Position>
            <AltitudeMeters>3503</AltitudeMeters>
            <DistanceMeters>9734.0666949189</DistanceMeters>
          </Trackpoint>
          <Trackpoint>
            <Time>2019-04-08T05:55:02.000Z</Time>
            <Position>
              <LatitudeDegrees>28.2714430801570415496826171875</LatitudeDegrees>
              <LongitudeDegrees>-16.63863544352352619171142578125</LongitudeDegrees>
            </Position>
            <AltitudeMeters>3503</AltitudeMeters>
            <DistanceMeters>9736.630655849</DistanceMeters>
          </Trackpoint>
          <Trackpoint>
            <Time>2019-04-08T05:55:09.000Z</Time>
            <Position>
              <LatitudeDegrees>28.27139622531831264495849609375</LatitudeDegrees>
              <LongitudeDegrees>-16.6386563144624233245849609375</LongitudeDegrees>
            </Position>
            <AltitudeMeters>3503</AltitudeMeters>
            <DistanceMeters>9742.2332039942</DistanceMeters>
          </Trackpoint>
          <Trackpoint>
            <Time>2019-04-08T05:55:11.000Z</Time>
            <Position>
              <LatitudeDegrees>28.27137677930295467376708984375</LatitudeDegrees>
              <LongitudeDegrees>-16.6386519558727741241455078125</LongitudeDegrees>
            </Position>
            <AltitudeMeters>3502.60009765625</AltitudeMeters>
            <DistanceMeters>9744.4393796906</DistanceMeters>
          </Trackpoint>
          <Trackpoint>
            <Time>2019-04-08T05:55:18.000Z</Time>
            <Position>
              <LatitudeDegrees>28.27135406434535980224609375</LatitudeDegrees>
              <LongitudeDegrees>-16.638652794063091278076171875</LongitudeDegrees>
            </Position>
            <AltitudeMeters>3502.199951171875</AltitudeMeters>
            <DistanceMeters>9746.9696611371</DistanceMeters>
          </Trackpoint>
          <Trackpoint>
            <Time>2019-04-08T05:55:29.000Z</Time>
            <Position>
              <LatitudeDegrees>28.27134660445153713226318359375</LatitudeDegrees>
              <LongitudeDegrees>-16.6386553086340427398681640625</LongitudeDegrees>
            </Position>
            <AltitudeMeters>3502</AltitudeMeters>
            <DistanceMeters>9747.8353957067</DistanceMeters>
          </Trackpoint>
          <Trackpoint>
            <Time>2019-04-08T05:55:34.000Z</Time>
            <Position>
              <LatitudeDegrees>28.27131919562816619873046875</LatitudeDegrees>
              <LongitudeDegrees>-16.63863544352352619171142578125</LongitudeDegrees>
            </Position>
            <AltitudeMeters>3502.199951171875</AltitudeMeters>
            <DistanceMeters>9751.4551527317</DistanceMeters>
          </Trackpoint>
          <Trackpoint>
            <Time>2019-04-08T05:55:41.000Z</Time>
            <Position>
              <LatitudeDegrees>28.27125892974436283111572265625</LatitudeDegrees>
              <LongitudeDegrees>-16.63863343186676502227783203125</LongitudeDegrees>
            </Position>
            <AltitudeMeters>3502</AltitudeMeters>
            <DistanceMeters>9758.1664880163</DistanceMeters>
          </Trackpoint>
          <Trackpoint>
            <Time>2019-04-08T05:55:50.000Z</Time>
            <Position>
              <LatitudeDegrees>28.27118449844419956207275390625</LatitudeDegrees>
              <LongitudeDegrees>-16.63868271745741367340087890625</LongitudeDegrees>
            </Position>
            <AltitudeMeters>3501.60009765625</AltitudeMeters>
            <DistanceMeters>9767.7561855352</DistanceMeters>
          </Trackpoint>
          <Trackpoint>
            <Time>2019-04-08T05:55:51.000Z</Time>
            <Position>
              <LatitudeDegrees>28.27118164859712123870849609375</LatitudeDegrees>
              <LongitudeDegrees>-16.63868598639965057373046875</LongitudeDegrees>
            </Position>
            <AltitudeMeters>3501.39990234375</AltitudeMeters>
            <DistanceMeters>9768.2119176476</DistanceMeters>
          </Trackpoint>
          <Trackpoint>
            <Time>2019-04-08T05:55:55.000Z</Time>
            <Position>
              <LatitudeDegrees>28.2711790502071380615234375</LatitudeDegrees>
              <LongitudeDegrees>-16.638686656951904296875</LongitudeDegrees>
            </Position>
            <AltitudeMeters>3501.39990234375</AltitudeMeters>
            <DistanceMeters>9768.5124185036</DistanceMeters>
          </Trackpoint>
          <Trackpoint>
            <Time>2019-04-08T05:56:03.000Z</Time>
            <Position>
              <LatitudeDegrees>28.27113655395805835723876953125</LatitudeDegrees>
              <LongitudeDegrees>-16.63874273188412189483642578125</LongitudeDegrees>
            </Position>
            <AltitudeMeters>3501.199951171875</AltitudeMeters>
            <DistanceMeters>9775.7637725242</DistanceMeters>
          </Trackpoint>
          <Trackpoint>
            <Time>2019-04-08T05:56:08.000Z</Time>
            <Position>
              <LatitudeDegrees>28.2711054570972919464111328125</LatitudeDegrees>
              <LongitudeDegrees>-16.63877441547811031341552734375</LongitudeDegrees>
            </Position>
            <AltitudeMeters>3500.199951171875</AltitudeMeters>
            <DistanceMeters>9780.4132889514</DistanceMeters>
          </Trackpoint>
          <Trackpoint>
            <Time>2019-04-08T05:56:10.000Z</Time>
            <Position>
              <LatitudeDegrees>28.27110470272600650787353515625</LatitudeDegrees>
              <LongitudeDegrees>-16.63879729807376861572265625</LongitudeDegrees>
            </Position>
            <AltitudeMeters>3500.199951171875</AltitudeMeters>
            <DistanceMeters>9782.658012243</DistanceMeters>
          </Trackpoint>
          <Trackpoint>
            <Time>2019-04-08T05:56:16.000Z</Time>
            <Position>
              <LatitudeDegrees>28.27109078876674175262451171875</LatitudeDegrees>
              <LongitudeDegrees>-16.63884884677827358245849609375</LongitudeDegrees>
            </Position>
            <AltitudeMeters>3499.39990234375</AltitudeMeters>
            <DistanceMeters>9787.94204445</DistanceMeters>
          </Trackpoint>
          <Trackpoint>
            <Time>2019-04-08T05:56:17.000Z</Time>
            <Position>
              <LatitudeDegrees>28.271088190376758575439453125</LatitudeDegrees>
              <LongitudeDegrees>-16.6388534568250179290771484375</LongitudeDegrees>
            </Position>
            <AltitudeMeters>3499.199951171875</AltitudeMeters>
            <DistanceMeters>9788.4711308038</DistanceMeters>
          </Trackpoint>
          <Trackpoint>
            <Time>2019-04-08T05:56:19.000Z</Time>
            <Position>
              <LatitudeDegrees>28.2710873521864414215087890625</LatitudeDegrees>
              <LongitudeDegrees>-16.63888053037226200103759765625</LongitudeDegrees>
            </Position>
            <AltitudeMeters>3498.800048828125</AltitudeMeters>
            <DistanceMeters>9791.1250825039</DistanceMeters>
          </Trackpoint>
          <Trackpoint>
            <Time>2019-04-08T05:56:21.000Z</Time>
            <Position>
              <LatitudeDegrees>28.271091543138027191162109375</LatitudeDegrees>
              <LongitudeDegrees>-16.63890190422534942626953125</LongitudeDegrees>
            </Position>
            <AltitudeMeters>3498</AltitudeMeters>
            <DistanceMeters>9793.2689829003</DistanceMeters>
          </Trackpoint>
          <Trackpoint>
            <Time>2019-04-08T05:56:22.000Z</Time>
            <Position>
              <LatitudeDegrees>28.27109363861382007598876953125</LatitudeDegrees>
              <LongitudeDegrees>-16.6389104537665843963623046875</LongitudeDegrees>
            </Position>
            <AltitudeMeters>3497.800048828125</AltitudeMeters>
            <DistanceMeters>9794.1347174698</DistanceMeters>
          </Trackpoint>
          <Trackpoint>
            <Time>2019-04-08T05:56:29.000Z</Time>
            <Position>
              <LatitudeDegrees>28.27105944044888019561767578125</LatitudeDegrees>
              <LongitudeDegrees>-16.63894188590347766876220703125</LongitudeDegrees>
            </Position>
            <AltitudeMeters>3497.800048828125</AltitudeMeters>
            <DistanceMeters>9799.0320517483</DistanceMeters>
          </Trackpoint>
          <Trackpoint>
            <Time>2019-04-08T05:56:35.000Z</Time>
            <Position>
              <LatitudeDegrees>28.27100445516407489776611328125</LatitudeDegrees>
              <LongitudeDegrees>-16.6389855556190013885498046875</LongitudeDegrees>
            </Position>
            <AltitudeMeters>3496.60009765625</AltitudeMeters>
            <DistanceMeters>9806.5011756776</DistanceMeters>
          </Trackpoint>
          <Trackpoint>
            <Time>2019-04-08T05:56:44.000Z</Time>
            <Position>
              <LatitudeDegrees>28.27096891589462757110595703125</LatitudeDegrees>
              <LongitudeDegrees>-16.63902134634554386138916015625</LongitudeDegrees>
            </Position>
            <AltitudeMeters>3496.39990234375</AltitudeMeters>
            <DistanceMeters>9811.7877706681</DistanceMeters>
          </Trackpoint>
          <Trackpoint>
            <Time>2019-04-08T05:56:49.000Z</Time>
            <Position>
              <LatitudeDegrees>28.27095441520214080810546875</LatitudeDegrees>
              <LongitudeDegrees>-16.63904431276023387908935546875</LongitudeDegrees>
            </Position>
            <AltitudeMeters>3494.800048828125</AltitudeMeters>
            <DistanceMeters>9814.5582516692</DistanceMeters>
          </Trackpoint>
          <Trackpoint>
            <Time>2019-04-08T05:56:52.000Z</Time>
            <Position>
              <LatitudeDegrees>28.2709505595266819000244140625</LatitudeDegrees>
              <LongitudeDegrees>-16.63906241767108440399169921875</LongitudeDegrees>
            </Position>
            <AltitudeMeters>3493.60009765625</AltitudeMeters>
            <DistanceMeters>9816.3836552432</DistanceMeters>
          </Trackpoint>
          <Trackpoint>
            <Time>2019-04-08T05:57:01.000Z</Time>
            <Position>
              <LatitudeDegrees>28.2709606178104877471923828125</LatitudeDegrees>
              <LongitudeDegrees>-16.6391062550246715545654296875</LongitudeDegrees>
            </Position>
            <AltitudeMeters>3492.39990234375</AltitudeMeters>
            <DistanceMeters>9820.8245658428</DistanceMeters>
          </Trackpoint>
          <Trackpoint>
            <Time>2019-04-08T05:57:08.000Z</Time>
            <Position>
              <LatitudeDegrees>28.270948044955730438232421875</LatitudeDegrees>
              <LongitudeDegrees>-16.63915243931114673614501953125</LongitudeDegrees>
            </Position>
            <AltitudeMeters>3491.39990234375</AltitudeMeters>
            <DistanceMeters>9825.563531987</DistanceMeters>
          </Trackpoint>
          <Trackpoint>
            <Time>2019-04-08T05:57:12.000Z</Time>
            <Position>
              <LatitudeDegrees>28.27092918567359447479248046875</LatitudeDegrees>
              <LongitudeDegrees>-16.6391635872423648834228515625</LongitudeDegrees>
            </Position>
            <AltitudeMeters>3491.199951171875</AltitudeMeters>
            <DistanceMeters>9827.9296780931</DistanceMeters>
          </Trackpoint>
          <Trackpoint>
            <Time>2019-04-08T05:57:16.000Z</Time>
            <Position>
              <LatitudeDegrees>28.27090680599212646484375</LatitudeDegrees>
              <LongitudeDegrees>-16.63914556615054607391357421875</LongitudeDegrees>
            </Position>
            <AltitudeMeters>3491.199951171875</AltitudeMeters>
            <DistanceMeters>9830.9838668506</DistanceMeters>
          </Trackpoint>
          <Trackpoint>
            <Time>2019-04-08T05:57:23.000Z</Time>
            <Position>
              <LatitudeDegrees>28.27084570191800594329833984375</LatitudeDegrees>
              <LongitudeDegrees>-16.63911136798560619354248046875</LongitudeDegrees>
            </Position>
            <AltitudeMeters>3490.39990234375</AltitudeMeters>
            <DistanceMeters>9838.5657839328</DistanceMeters>
          </Trackpoint>
          <Trackpoint>
            <Time>2019-04-08T05:57:30.000Z</Time>
            <Position>
              <LatitudeDegrees>28.27082273550331592559814453125</LatitudeDegrees>
              <LongitudeDegrees>-16.63913190364837646484375</LongitudeDegrees>
            </Position>
            <AltitudeMeters>3490.800048828125</AltitudeMeters>
            <DistanceMeters>9841.8203621956</DistanceMeters>
          </Trackpoint>
          <Trackpoint>
            <Time>2019-04-08T05:57:36.000Z</Time>
            <Position>
              <LatitudeDegrees>28.27082072384655475616455078125</LatitudeDegrees>
              <LongitudeDegrees>-16.6391495056450366973876953125</LongitudeDegrees>
            </Position>
            <AltitudeMeters>3492.199951171875</AltitudeMeters>
            <DistanceMeters>9843.5622306422</DistanceMeters>
          </Trackpoint>
          <Trackpoint>
            <Time>2019-04-08T05:57:39.000Z</Time>
            <Position>
              <LatitudeDegrees>28.2708110846579074859619140625</LatitudeDegrees>
              <LongitudeDegrees>-16.6391600668430328369140625</LongitudeDegrees>
            </Position>
            <AltitudeMeters>3492.199951171875</AltitudeMeters>
            <DistanceMeters>9845.0526664192</DistanceMeters>
          </Trackpoint>
          <Trackpoint>
            <Time>2019-04-08T05:57:43.000Z</Time>
            <Position>
              <LatitudeDegrees>28.27079809270799160003662109375</LatitudeDegrees>
              <LongitudeDegrees>-16.639161743223667144775390625</LongitudeDegrees>
            </Position>
            <AltitudeMeters>3493</AltitudeMeters>
            <DistanceMeters>9846.5093983658</DistanceMeters>
          </Trackpoint>
          <Trackpoint>
            <Time>2019-04-08T05:57:50.000Z</Time>
            <Position>
              <LatitudeDegrees>28.27078518457710742950439453125</LatitudeDegrees>
              <LongitudeDegrees>-16.63916300050914287567138671875</LongitudeDegrees>
            </Position>
            <AltitudeMeters>3493.39990234375</AltitudeMeters>
            <DistanceMeters>9847.9536793837</DistanceMeters>
          </Trackpoint>
          <Trackpoint>
            <Time>2019-04-08T05:57:59.000Z</Time>
            <Position>
              <LatitudeDegrees>28.2707302831113338470458984375</LatitudeDegrees>
              <LongitudeDegrees>-16.63915931247174739837646484375</LongitudeDegrees>
            </Position>
            <AltitudeMeters>3493.800048828125</AltitudeMeters>
            <DistanceMeters>9854.0753472318</DistanceMeters>
          </Trackpoint>
          <Trackpoint>
            <Time>2019-04-08T05:58:00.000Z</Time>
            <Position>
              <LatitudeDegrees>28.27072374522686004638671875</LatitudeDegrees>
              <LongitudeDegrees>-16.63915805518627166748046875</LongitudeDegrees>
            </Position>
            <AltitudeMeters>3494</AltitudeMeters>
            <DistanceMeters>9854.8175295969</DistanceMeters>
          </Trackpoint>
          <Trackpoint>
            <Time>2019-04-08T05:58:09.000Z</Time>
            <Position>
              <LatitudeDegrees>28.27068091370165348052978515625</LatitudeDegrees>
              <LongitudeDegrees>-16.63913785479962825775146484375</LongitudeDegrees>
            </Position>
            <AltitudeMeters>3494.60009765625</AltitudeMeters>
            <DistanceMeters>9859.9796760096</DistanceMeters>
          </Trackpoint>
          <Trackpoint>
            <Time>2019-04-08T05:58:12.000Z</Time>
            <Position>
              <LatitudeDegrees>28.2706722803413867950439453125</LatitudeDegrees>
              <LongitudeDegrees>-16.63912880234420299530029296875</LongitudeDegrees>
            </Position>
            <AltitudeMeters>3494.800048828125</AltitudeMeters>
            <DistanceMeters>9861.2860773445</DistanceMeters>
          </Trackpoint>
          <Trackpoint>
            <Time>2019-04-08T05:58:16.000Z</Time>
            <Position>
              <LatitudeDegrees>28.27066029421985149383544921875</LatitudeDegrees>
              <LongitudeDegrees>-16.63911740295588970184326171875</LongitudeDegrees>
            </Position>
            <AltitudeMeters>3496.199951171875</AltitudeMeters>
            <DistanceMeters>9863.0279457911</DistanceMeters>
          </Trackpoint>
          <Trackpoint>
            <Time>2019-04-08T05:58:18.000Z</Time>
            <Position>
              <LatitudeDegrees>28.27065610326826572418212890625</LatitudeDegrees>
              <LongitudeDegrees>-16.63911405019462108612060546875</LongitudeDegrees>
            </Position>
            <AltitudeMeters>3496.39990234375</AltitudeMeters>
            <DistanceMeters>9863.5981060773</DistanceMeters>
          </Trackpoint>
          <Trackpoint>
            <Time>2019-04-08T05:58:21.000Z</Time>
            <Position>
              <LatitudeDegrees>28.27064939774572849273681640625</LatitudeDegrees>
              <LongitudeDegrees>-16.63910533301532268524169921875</LongitudeDegrees>
            </Position>
            <AltitudeMeters>3497.199951171875</AltitudeMeters>
            <DistanceMeters>9864.7344603053</DistanceMeters>
          </Trackpoint>
          <Trackpoint>
            <Time>2019-04-08T05:58:26.000Z</Time>
            <Position>
              <LatitudeDegrees>28.2706330530345439910888671875</LatitudeDegrees>
              <LongitudeDegrees>-16.639094017446041107177734375</LongitudeDegrees>
            </Position>
            <AltitudeMeters>3497.800048828125</AltitudeMeters>
            <DistanceMeters>9866.8678047519</DistanceMeters>
          </Trackpoint>
          <Trackpoint>
            <Time>2019-04-08T05:58:35.000Z</Time>
            <Position>
              <LatitudeDegrees>28.2706015370786190032958984375</LatitudeDegrees>
              <LongitudeDegrees>-16.63905856199562549591064453125</LongitudeDegrees>
            </Position>
            <AltitudeMeters>3498.199951171875</AltitudeMeters>
            <DistanceMeters>9871.8064519832</DistanceMeters>
          </Trackpoint>
          <Trackpoint>
            <Time>2019-04-08T05:58:45.000Z</Time>
            <Position>
              <LatitudeDegrees>28.27058569528162479400634765625</LatitudeDegrees>
              <LongitudeDegrees>-16.63900894112884998321533203125</LongitudeDegrees>
            </Position>
            <AltitudeMeters>3498.60009765625</AltitudeMeters>
            <DistanceMeters>9876.9808289173</DistanceMeters>
          </Trackpoint>
          <Trackpoint>
            <Time>2019-04-08T05:59:00.000Z</Time>
            <Position>
              <LatitudeDegrees>28.27057915739715099334716796875</LatitudeDegrees>
              <LongitudeDegrees>-16.63899871520698070526123046875</LongitudeDegrees>
            </Position>
            <AltitudeMeters>3498.800048828125</AltitudeMeters>
            <DistanceMeters>9878.219825687</DistanceMeters>
          </Trackpoint>
          <Trackpoint>
            <Time>2019-04-08T05:59:08.000Z</Time>
            <Position>
              <LatitudeDegrees>28.27056490816175937652587890625</LatitudeDegrees>
              <LongitudeDegrees>-16.6389428079128265380859375</LongitudeDegrees>
            </Position>
            <AltitudeMeters>3498.800048828125</AltitudeMeters>
            <DistanceMeters>9883.924595227</DistanceMeters>
          </Trackpoint>
          <Trackpoint>
            <Time>2019-04-08T05:59:17.000Z</Time>
            <Position>
              <LatitudeDegrees>28.2705331407487392425537109375</LatitudeDegrees>
              <LongitudeDegrees>-16.63888740353286266326904296875</LongitudeDegrees>
            </Position>
            <AltitudeMeters>3497.60009765625</AltitudeMeters>
            <DistanceMeters>9890.4045532102</DistanceMeters>
          </Trackpoint>
          <Trackpoint>
            <Time>2019-04-08T05:59:23.000Z</Time>
            <Position>
              <LatitudeDegrees>28.27052467502653598785400390625</LatitudeDegrees>
              <LongitudeDegrees>-16.63883895613253116607666015625</LongitudeDegrees>
            </Position>
            <AltitudeMeters>3497</AltitudeMeters>
            <DistanceMeters>9895.24625523</DistanceMeters>
          </Trackpoint>
          <Trackpoint>
            <Time>2019-04-08T05:59:24.000Z</Time>
            <Position>
              <LatitudeDegrees>28.27052299864590167999267578125</LatitudeDegrees>
              <LongitudeDegrees>-16.63883191533386707305908203125</LongitudeDegrees>
            </Position>
            <AltitudeMeters>3497</AltitudeMeters>
            <DistanceMeters>9895.9573700455</DistanceMeters>
          </Trackpoint>
          <Trackpoint>
            <Time>2019-04-08T05:59:31.000Z</Time>
            <Position>
              <LatitudeDegrees>28.2705234177410602569580078125</LatitudeDegrees>
              <LongitudeDegrees>-16.6388102062046527862548828125</LongitudeDegrees>
            </Position>
            <AltitudeMeters>3496.39990234375</AltitudeMeters>
            <DistanceMeters>9898.0864774583</DistanceMeters>
          </Trackpoint>
          <Trackpoint>
            <Time>2019-04-08T05:59:35.000Z</Time>
            <Position>
              <LatitudeDegrees>28.2705244235694408416748046875</LatitudeDegrees>
              <LongitudeDegrees>-16.6387820430099964141845703125</LongitudeDegrees>
            </Position>
            <AltitudeMeters>3495.60009765625</AltitudeMeters>
            <DistanceMeters>9900.8487979674</DistanceMeters>
          </Trackpoint>
          <Trackpoint>
            <Time>2019-04-08T05:59:38.000Z</Time>
            <Position>
              <LatitudeDegrees>28.270507156848907470703125</LatitudeDegrees>
              <LongitudeDegrees>-16.63877961225807666778564453125</LongitudeDegrees>
            </Position>
            <AltitudeMeters>3494.39990234375</AltitudeMeters>
            <DistanceMeters>9902.7846393153</DistanceMeters>
          </Trackpoint>
          <Trackpoint>
            <Time>2019-04-08T05:59:40.000Z</Time>
            <Position>
              <LatitudeDegrees>28.27049802057445049285888671875</LatitudeDegrees>
              <LongitudeDegrees>-16.6387699730694293975830078125</LongitudeDegrees>
            </Position>
            <AltitudeMeters>3494</AltitudeMeters>
            <DistanceMeters>9904.1682491613</DistanceMeters>
          </Trackpoint>
          <Trackpoint>
            <Time>2019-04-08T05:59:44.000Z</Time>
            <Position>
              <LatitudeDegrees>28.27047790400683879852294921875</LatitudeDegrees>
              <LongitudeDegrees>-16.6387384571135044097900390625</LongitudeDegrees>
            </Position>
            <AltitudeMeters>3494</AltitudeMeters>
            <DistanceMeters>9907.9823615288</DistanceMeters>
          </Trackpoint>
          <Trackpoint>
            <Time>2019-04-08T05:59:47.000Z</Time>
            <Position>
              <LatitudeDegrees>28.27046357095241546630859375</LatitudeDegrees>
              <LongitudeDegrees>-16.6387223638594150543212890625</LongitudeDegrees>
            </Position>
            <AltitudeMeters>3494</AltitudeMeters>
            <DistanceMeters>9910.2250725176</DistanceMeters>
          </Trackpoint>
          <Trackpoint>
            <Time>2019-04-08T05:59:53.000Z</Time>
            <Position>
              <LatitudeDegrees>28.27043314464390277862548828125</LatitudeDegrees>
              <LongitudeDegrees>-16.63871255703270435333251953125</LongitudeDegrees>
            </Position>
            <AltitudeMeters>3493.800048828125</AltitudeMeters>
            <DistanceMeters>9913.7449112754</DistanceMeters>
          </Trackpoint>
          <Trackpoint>
            <Time>2019-04-08T06:00:05.000Z</Time>
            <Position>
              <LatitudeDegrees>28.270433731377124786376953125</LatitudeDegrees>
              <LongitudeDegrees>-16.638708449900150299072265625</LongitudeDegrees>
            </Position>
            <AltitudeMeters>3494.199951171875</AltitudeMeters>
            <DistanceMeters>9914.1480754801</DistanceMeters>
          </Trackpoint>
          <Trackpoint>
            <Time>2019-04-08T06:00:12.000Z</Time>
            <Position>
              <LatitudeDegrees>28.2704338990151882171630859375</LatitudeDegrees>
              <LongitudeDegrees>-16.63870786316692829132080078125</LongitudeDegrees>
            </Position>
            <AltitudeMeters>3493.199951171875</AltitudeMeters>
            <DistanceMeters>9914.2431021945</DistanceMeters>
          </Trackpoint>
          <Trackpoint>
            <Time>2019-04-08T06:00:15.000Z</Time>
            <Position>
              <LatitudeDegrees>28.27043431811034679412841796875</LatitudeDegrees>
              <LongitudeDegrees>-16.63870752789080142974853515625</LongitudeDegrees>
            </Position>
            <AltitudeMeters>3492</AltitudeMeters>
            <DistanceMeters>9914.2431021945</DistanceMeters>
          </Trackpoint>
          <Trackpoint>
            <Time>2019-04-08T06:00:19.000Z</Time>
            <Position>
              <LatitudeDegrees>28.27043473720550537109375</LatitudeDegrees>
              <LongitudeDegrees>-16.63870702497661113739013671875</LongitudeDegrees>
            </Position>
            <AltitudeMeters>3493.60009765625</AltitudeMeters>
            <DistanceMeters>9914.3381289089</DistanceMeters>
          </Trackpoint>
          <Trackpoint>
            <Time>2019-04-08T06:00:23.000Z</Time>
            <Position>
              <LatitudeDegrees>28.27043264172971248626708984375</LatitudeDegrees>
              <LongitudeDegrees>-16.6387106291949748992919921875</LongitudeDegrees>
            </Position>
            <AltitudeMeters>3494.39990234375</AltitudeMeters>
            <DistanceMeters>9914.7631012949</DistanceMeters>
          </Trackpoint>
          <Trackpoint>
            <Time>2019-04-08T06:00:30.000Z</Time>
            <Position>
              <LatitudeDegrees>28.2704295404255390167236328125</LatitudeDegrees>
              <LongitudeDegrees>-16.63871540687978267669677734375</LongitudeDegrees>
            </Position>
            <AltitudeMeters>3492.60009765625</AltitudeMeters>
            <DistanceMeters>9915.3411262324</DistanceMeters>
          </Trackpoint>
          <Trackpoint>
            <Time>2019-04-08T06:00:35.000Z</Time>
            <Position>
              <LatitudeDegrees>28.27043046243488788604736328125</LatitudeDegrees>
              <LongitudeDegrees>-16.63871741853654384613037109375</LongitudeDegrees>
            </Position>
            <AltitudeMeters>3494.39990234375</AltitudeMeters>
            <DistanceMeters>9915.5738931946</DistanceMeters>
          </Trackpoint>
          <Trackpoint>
            <Time>2019-04-08T06:00:38.000Z</Time>
            <Position>
              <LatitudeDegrees>28.27042828314006328582763671875</LatitudeDegrees>
              <LongitudeDegrees>-16.63870551623404026031494140625</LongitudeDegrees>
            </Position>
            <AltitudeMeters>3495.199951171875</AltitudeMeters>
            <DistanceMeters>9916.7607764766</DistanceMeters>
          </Trackpoint>
          <Trackpoint>
            <Time>2019-04-08T06:00:46.000Z</Time>
            <Position>
              <LatitudeDegrees>28.27043272554874420166015625</LatitudeDegrees>
              <LongitudeDegrees>-16.63870467804372310638427734375</LongitudeDegrees>
            </Position>
            <AltitudeMeters>3493.199951171875</AltitudeMeters>
            <DistanceMeters>9917.2636105849</DistanceMeters>
          </Trackpoint>
          <Trackpoint>
            <Time>2019-04-08T06:00:47.000Z</Time>
            <Position>
              <LatitudeDegrees>28.2704328931868076324462890625</LatitudeDegrees>
              <LongitudeDegrees>-16.63870484568178653717041015625</LongitudeDegrees>
            </Position>
            <AltitudeMeters>3492.800048828125</AltitudeMeters>
            <DistanceMeters>9917.2636105849</DistanceMeters>
          </Trackpoint>
          <Trackpoint>
            <Time>2019-04-08T06:00:54.000Z</Time>
            <Position>
              <LatitudeDegrees>28.2704090885818004608154296875</LatitudeDegrees>
              <LongitudeDegrees>-16.638694368302822113037109375</LongitudeDegrees>
            </Position>
            <AltitudeMeters>3494.800048828125</AltitudeMeters>
            <DistanceMeters>9920.106482094</DistanceMeters>
          </Trackpoint>
          <Trackpoint>
            <Time>2019-04-08T06:00:56.000Z</Time>
            <Position>
              <LatitudeDegrees>28.2704000361263751983642578125</LatitudeDegrees>
              <LongitudeDegrees>-16.638696379959583282470703125</LongitudeDegrees>
            </Position>
            <AltitudeMeters>3495.39990234375</AltitudeMeters>
            <DistanceMeters>9921.138736433</DistanceMeters>
          </Trackpoint>
          <Trackpoint>
            <Time>2019-04-08T06:01:02.000Z</Time>
            <Position>
              <LatitudeDegrees>28.27039542607963085174560546875</LatitudeDegrees>
              <LongitudeDegrees>-16.6386992298066616058349609375</LongitudeDegrees>
            </Position>
            <AltitudeMeters>3493.60009765625</AltitudeMeters>
            <DistanceMeters>9921.739738145</DistanceMeters>
          </Trackpoint>
          <Trackpoint>
            <Time>2019-04-08T06:01:05.000Z</Time>
            <Position>
              <LatitudeDegrees>28.2703970186412334442138671875</LatitudeDegrees>
              <LongitudeDegrees>-16.63869847543537616729736328125</LongitudeDegrees>
            </Position>
            <AltitudeMeters>3493.199951171875</AltitudeMeters>
            <DistanceMeters>9921.9725051071</DistanceMeters>
          </Trackpoint>
          <Trackpoint>
            <Time>2019-04-08T06:01:15.000Z</Time>
            <Position>
              <LatitudeDegrees>28.270398862659931182861328125</LatitudeDegrees>
              <LongitudeDegrees>-16.6386987268924713134765625</LongitudeDegrees>
            </Position>
            <AltitudeMeters>3492.199951171875</AltitudeMeters>
            <DistanceMeters>9922.1849913001</DistanceMeters>
          </Trackpoint>
          <Trackpoint>
            <Time>2019-04-08T06:01:24.000Z</Time>
            <Position>
              <LatitudeDegrees>28.2703970186412334442138671875</LatitudeDegrees>
              <LongitudeDegrees>-16.63869814015924930572509765625</LongitudeDegrees>
            </Position>
            <AltitudeMeters>3492.800048828125</AltitudeMeters>
            <DistanceMeters>9922.3974774931</DistanceMeters>
          </Trackpoint>
          <Trackpoint>
            <Time>2019-04-08T06:01:25.000Z</Time>
            <Position>
              <LatitudeDegrees>28.27039743773639202117919921875</LatitudeDegrees>
              <LongitudeDegrees>-16.63869797252118587493896484375</LongitudeDegrees>
            </Position>
            <AltitudeMeters>3493.60009765625</AltitudeMeters>
            <DistanceMeters>9922.3974774931</DistanceMeters>
          </Trackpoint>
          <Trackpoint>
            <Time>2019-04-08T06:01:27.000Z</Time>
            <Position>
              <LatitudeDegrees>28.270397186279296875</LatitudeDegrees>
              <LongitudeDegrees>-16.6386975534260272979736328125</LongitudeDegrees>
            </Position>
            <AltitudeMeters>3494.60009765625</AltitudeMeters>
            <DistanceMeters>9922.3974774931</DistanceMeters>
          </Trackpoint>
          <Trackpoint>
            <Time>2019-04-08T06:01:35.000Z</Time>
            <Position>
              <LatitudeDegrees>28.27040188014507293701171875</LatitudeDegrees>
              <LongitudeDegrees>-16.6387401334941387176513671875</LongitudeDegrees>
            </Position>
            <AltitudeMeters>3493.199951171875</AltitudeMeters>
            <DistanceMeters>9926.6044894767</DistanceMeters>
          </Trackpoint>
          <Trackpoint>
            <Time>2019-04-08T06:01:38.000Z</Time>
            <Position>
              <LatitudeDegrees>28.270419649779796600341796875</LatitudeDegrees>
              <LongitudeDegrees>-16.63876586593687534332275390625</LongitudeDegrees>
            </Position>
            <AltitudeMeters>3492</AltitudeMeters>
            <DistanceMeters>9929.8101449469</DistanceMeters>
          </Trackpoint>
          <Trackpoint>
            <Time>2019-04-08T06:01:40.000Z</Time>
            <Position>
              <LatitudeDegrees>28.270431719720363616943359375</LatitudeDegrees>
              <LongitudeDegrees>-16.6387786902487277984619140625</LongitudeDegrees>
            </Position>
            <AltitudeMeters>3492</AltitudeMeters>
            <DistanceMeters>9931.6503293579</DistanceMeters>
          </Trackpoint>
          <Trackpoint>
            <Time>2019-04-08T06:01:42.000Z</Time>
            <Position>
              <LatitudeDegrees>28.2704441249370574951171875</LatitudeDegrees>
              <LongitudeDegrees>-16.63879687897861003875732421875</LongitudeDegrees>
            </Position>
            <AltitudeMeters>3492</AltitudeMeters>
            <DistanceMeters>9933.9050872247</DistanceMeters>
          </Trackpoint>
          <Trackpoint>
            <Time>2019-04-08T06:01:50.000Z</Time>
            <Position>
              <LatitudeDegrees>28.2704969309270381927490234375</LatitudeDegrees>
              <LongitudeDegrees>-16.6388464160263538360595703125</LongitudeDegrees>
            </Position>
            <AltitudeMeters>3493.199951171875</AltitudeMeters>
            <DistanceMeters>9941.5285754022</DistanceMeters>
          </Trackpoint>
          <Trackpoint>
            <Time>2019-04-08T06:01:57.000Z</Time>
            <Position>
              <LatitudeDegrees>28.2705314643681049346923828125</LatitudeDegrees>
              <LongitudeDegrees>-16.6388926841318607330322265625</LongitudeDegrees>
            </Position>
            <AltitudeMeters>3494.39990234375</AltitudeMeters>
            <DistanceMeters>9947.4743931995</DistanceMeters>
          </Trackpoint>
          <Trackpoint>
            <Time>2019-04-08T06:02:02.000Z</Time>
            <Position>
              <LatitudeDegrees>28.270546384155750274658203125</LatitudeDegrees>
              <LongitudeDegrees>-16.6389178298413753509521484375</LongitudeDegrees>
            </Position>
            <AltitudeMeters>3495.39990234375</AltitudeMeters>
            <DistanceMeters>9950.4476817557</DistanceMeters>
          </Trackpoint>
          <Trackpoint>
            <Time>2019-04-08T06:02:06.000Z</Time>
            <Position>
              <LatitudeDegrees>28.270546384155750274658203125</LatitudeDegrees>
              <LongitudeDegrees>-16.6389526985585689544677734375</LongitudeDegrees>
            </Position>
            <AltitudeMeters>3495.60009765625</AltitudeMeters>
            <DistanceMeters>9953.8660028229</DistanceMeters>
          </Trackpoint>
          <Trackpoint>
            <Time>2019-04-08T06:02:14.000Z</Time>
            <Position>
              <LatitudeDegrees>28.27055049128830432891845703125</LatitudeDegrees>
              <LongitudeDegrees>-16.639021933078765869140625</LongitudeDegrees>
            </Position>
            <AltitudeMeters>3495.39990234375</AltitudeMeters>
            <DistanceMeters>9960.6682165581</DistanceMeters>
          </Trackpoint>
          <Trackpoint>
            <Time>2019-04-08T06:02:20.000Z</Time>
            <Position>
              <LatitudeDegrees>28.270538337528705596923828125</LatitudeDegrees>
              <LongitudeDegrees>-16.6390824504196643829345703125</LongitudeDegrees>
            </Position>
            <AltitudeMeters>3496.199951171875</AltitudeMeters>
            <DistanceMeters>9966.7528951379</DistanceMeters>
          </Trackpoint>
          <Trackpoint>
            <Time>2019-04-08T06:02:21.000Z</Time>
            <Position>
              <LatitudeDegrees>28.2705344818532466888427734375</LatitudeDegrees>
              <LongitudeDegrees>-16.63909309543669223785400390625</LongitudeDegrees>
            </Position>
            <AltitudeMeters>3496.199951171875</AltitudeMeters>
            <DistanceMeters>9967.8772663854</DistanceMeters>
          </Trackpoint>
          <Trackpoint>
            <Time>2019-04-08T06:02:23.000Z</Time>
            <Position>
              <LatitudeDegrees>28.27053003944456577301025390625</LatitudeDegrees>
              <LongitudeDegrees>-16.6391153074800968170166015625</LongitudeDegrees>
            </Position>
            <AltitudeMeters>3496.199951171875</AltitudeMeters>
            <DistanceMeters>9970.1119100423</DistanceMeters>
          </Trackpoint>
          <Trackpoint>
            <Time>2019-04-08T06:02:27.000Z</Time>
            <Position>
              <LatitudeDegrees>28.2705317996442317962646484375</LatitudeDegrees>
              <LongitudeDegrees>-16.63915143348276615142822265625</LongitudeDegrees>
            </Position>
            <AltitudeMeters>3496.60009765625</AltitudeMeters>
            <DistanceMeters>9973.6585840458</DistanceMeters>
          </Trackpoint>
          <Trackpoint>
            <Time>2019-04-08T06:02:30.000Z</Time>
            <Position>
              <LatitudeDegrees>28.27052769251167774200439453125</LatitudeDegrees>
              <LongitudeDegrees>-16.63917859084904193878173828125</LongitudeDegrees>
            </Position>
            <AltitudeMeters>3497.199951171875</AltitudeMeters>
            <DistanceMeters>9976.3614217847</DistanceMeters>
          </Trackpoint>
          <Trackpoint>
            <Time>2019-04-08T06:02:35.000Z</Time>
            <Position>
              <LatitudeDegrees>28.2705257646739482879638671875</LatitudeDegrees>
              <LongitudeDegrees>-16.6392190754413604736328125</LongitudeDegrees>
            </Position>
            <AltitudeMeters>3498.39990234375</AltitudeMeters>
            <DistanceMeters>9980.3355385042</DistanceMeters>
          </Trackpoint>
          <Trackpoint>
            <Time>2019-04-08T06:02:36.000Z</Time>
            <Position>
              <LatitudeDegrees>28.27052501030266284942626953125</LatitudeDegrees>
              <LongitudeDegrees>-16.63922913372516632080078125</LongitudeDegrees>
            </Position>
            <AltitudeMeters>3498.39990234375</AltitudeMeters>
            <DistanceMeters>9981.3230850884</DistanceMeters>
          </Trackpoint>
          <Trackpoint>
            <Time>2019-04-08T06:02:42.000Z</Time>
            <Position>
              <LatitudeDegrees>28.27052065171301364898681640625</LatitudeDegrees>
              <LongitudeDegrees>-16.63928219117224216461181640625</LongitudeDegrees>
            </Position>
            <AltitudeMeters>3499.39990234375</AltitudeMeters>
            <DistanceMeters>9986.5460977188</DistanceMeters>
          </Trackpoint>
          <Trackpoint>
            <Time>2019-04-08T06:02:45.000Z</Time>
            <Position>
              <LatitudeDegrees>28.27052232809364795684814453125</LatitudeDegrees>
              <LongitudeDegrees>-16.63931136019527912139892578125</LongitudeDegrees>
            </Position>
            <AltitudeMeters>3499.60009765625</AltitudeMeters>
            <DistanceMeters>9989.4111176991</DistanceMeters>
          </Trackpoint>
          <Trackpoint>
            <Time>2019-04-08T06:02:55.000Z</Time>
            <Position>
              <LatitudeDegrees>28.27052400447428226470947265625</LatitudeDegrees>
              <LongitudeDegrees>-16.63940842263400554656982421875</LongitudeDegrees>
            </Position>
            <AltitudeMeters>3500.39990234375</AltitudeMeters>
            <DistanceMeters>9998.9280324688</DistanceMeters>
          </Trackpoint>
          <Trackpoint>
            <Time>2019-04-08T06:03:03.000Z</Time>
            <Position>
              <LatitudeDegrees>28.2705220766365528106689453125</LatitudeDegrees>
              <LongitudeDegrees>-16.6394854523241519927978515625</LongitudeDegrees>
            </Position>
            <AltitudeMeters>3500.800048828125</AltitudeMeters>
            <DistanceMeters>10006.481311424</DistanceMeters>
          </Trackpoint>
          <Trackpoint>
            <Time>2019-04-08T06:03:04.000Z</Time>
            <Position>
              <LatitudeDegrees>28.27051897533237934112548828125</LatitudeDegrees>
              <LongitudeDegrees>-16.63949676789343357086181640625</LongitudeDegrees>
            </Position>
            <AltitudeMeters>3500.800048828125</AltitudeMeters>
            <DistanceMeters>10007.645146235</DistanceMeters>
          </Trackpoint>
          <Trackpoint>
            <Time>2019-04-08T06:03:09.000Z</Time>
            <Position>
              <LatitudeDegrees>28.27051327563822269439697265625</LatitudeDegrees>
              <LongitudeDegrees>-16.6395568661391735076904296875</LongitudeDegrees>
            </Position>
            <AltitudeMeters>3500</AltitudeMeters>
            <DistanceMeters>10013.57042574</DistanceMeters>
          </Trackpoint>
          <Trackpoint>
            <Time>2019-04-08T06:03:11.000Z</Time>
            <Position>
              <LatitudeDegrees>28.2705187238752841949462890625</LatitudeDegrees>
              <LongitudeDegrees>-16.63957874290645122528076171875</LongitudeDegrees>
            </Position>
            <AltitudeMeters>3499.800048828125</AltitudeMeters>
            <DistanceMeters>10015.801024789</DistanceMeters>
          </Trackpoint>
          <Trackpoint>
            <Time>2019-04-08T06:03:20.000Z</Time>
            <Position>
              <LatitudeDegrees>28.27055719681084156036376953125</LatitudeDegrees>
              <LongitudeDegrees>-16.63964412175118923187255859375</LongitudeDegrees>
            </Position>
            <AltitudeMeters>3500</AltitudeMeters>
            <DistanceMeters>10023.509325705</DistanceMeters>
          </Trackpoint>
          <Trackpoint>
            <Time>2019-04-08T06:03:29.000Z</Time>
            <Position>
              <LatitudeDegrees>28.27057831920683383941650390625</LatitudeDegrees>
              <LongitudeDegrees>-16.6396996937692165374755859375</LongitudeDegrees>
            </Position>
            <AltitudeMeters>3501.199951171875</AltitudeMeters>
            <DistanceMeters>10029.443742115</DistanceMeters>
          </Trackpoint>
          <Trackpoint>
            <Time>2019-04-08T06:03:37.000Z</Time>
            <Position>
              <LatitudeDegrees>28.2706005312502384185791015625</LatitudeDegrees>
              <LongitudeDegrees>-16.63974336348474025726318359375</LongitudeDegrees>
            </Position>
            <AltitudeMeters>3501.60009765625</AltitudeMeters>
            <DistanceMeters>10034.386958361</DistanceMeters>
          </Trackpoint>
          <Trackpoint>
            <Time>2019-04-08T06:03:39.000Z</Time>
            <Position>
              <LatitudeDegrees>28.270608074963092803955078125</LatitudeDegrees>
              <LongitudeDegrees>-16.63975141011178493499755859375</LongitudeDegrees>
            </Position>
            <AltitudeMeters>3502</AltitudeMeters>
            <DistanceMeters>10035.53517052</DistanceMeters>
          </Trackpoint>
          <Trackpoint>
            <Time>2019-04-08T06:03:44.000Z</Time>
            <Position>
              <LatitudeDegrees>28.270619474351406097412109375</LatitudeDegrees>
              <LongitudeDegrees>-16.6397754661738872528076171875</LongitudeDegrees>
            </Position>
            <AltitudeMeters>3503.199951171875</AltitudeMeters>
            <DistanceMeters>10038.21283381</DistanceMeters>
          </Trackpoint>
          <Trackpoint>
            <Time>2019-04-08T06:03:48.000Z</Time>
            <Position>
              <LatitudeDegrees>28.27063255012035369873046875</LatitudeDegrees>
              <LongitudeDegrees>-16.63978979922831058502197265625</LongitudeDegrees>
            </Position>
            <AltitudeMeters>3503.800048828125</AltitudeMeters>
            <DistanceMeters>10040.237594217</DistanceMeters>
          </Trackpoint>
          <Trackpoint>
            <Time>2019-04-08T06:03:51.000Z</Time>
            <Position>
              <LatitudeDegrees>28.27063565142452716827392578125</LatitudeDegrees>
              <LongitudeDegrees>-16.63980991579592227935791015625</LongitudeDegrees>
            </Position>
            <AltitudeMeters>3504.39990234375</AltitudeMeters>
            <DistanceMeters>10042.237675182</DistanceMeters>
          </Trackpoint>
          <Trackpoint>
            <Time>2019-04-08T06:03:55.000Z</Time>
            <Position>
              <LatitudeDegrees>28.27063095755875110626220703125</LatitudeDegrees>
              <LongitudeDegrees>-16.63983020000159740447998046875</LongitudeDegrees>
            </Position>
            <AltitudeMeters>3505.39990234375</AltitudeMeters>
            <DistanceMeters>10044.291219849</DistanceMeters>
          </Trackpoint>
          <Trackpoint>
            <Time>2019-04-08T06:03:58.000Z</Time>
            <Position>
              <LatitudeDegrees>28.27063850127160549163818359375</LatitudeDegrees>
              <LongitudeDegrees>-16.63984335958957672119140625</LongitudeDegrees>
            </Position>
            <AltitudeMeters>3506.60009765625</AltitudeMeters>
            <DistanceMeters>10045.832294183</DistanceMeters>
          </Trackpoint>
          <Trackpoint>
            <Time>2019-04-08T06:04:09.000Z</Time>
            <Position>
              <LatitudeDegrees>28.27065191231667995452880859375</LatitudeDegrees>
              <LongitudeDegrees>-16.63992558605968952178955078125</LongitudeDegrees>
            </Position>
            <AltitudeMeters>3507</AltitudeMeters>
            <DistanceMeters>10054.029415557</DistanceMeters>
          </Trackpoint>
          <Trackpoint>
            <Time>2019-04-08T06:04:14.000Z</Time>
            <Position>
              <LatitudeDegrees>28.2706578634679317474365234375</LatitudeDegrees>
              <LongitudeDegrees>-16.63995676673948764801025390625</LongitudeDegrees>
            </Position>
            <AltitudeMeters>3507.60009765625</AltitudeMeters>
            <DistanceMeters>10057.156646407</DistanceMeters>
          </Trackpoint>
          <Trackpoint>
            <Time>2019-04-08T06:04:17.000Z</Time>
            <Position>
              <LatitudeDegrees>28.27066062949597835540771484375</LatitudeDegrees>
              <LongitudeDegrees>-16.63997319526970386505126953125</LongitudeDegrees>
            </Position>
            <AltitudeMeters>3508.39990234375</AltitudeMeters>
            <DistanceMeters>10058.794307149</DistanceMeters>
          </Trackpoint>
          <Trackpoint>
            <Time>2019-04-08T06:04:19.000Z</Time>
            <Position>
              <LatitudeDegrees>28.27066607773303985595703125</LatitudeDegrees>
              <LongitudeDegrees>-16.6399830020964145660400390625</LongitudeDegrees>
            </Position>
            <AltitudeMeters>3509</AltitudeMeters>
            <DistanceMeters>10059.930661377</DistanceMeters>
          </Trackpoint>
          <Trackpoint>
            <Time>2019-04-08T06:04:23.000Z</Time>
            <Position>
              <LatitudeDegrees>28.270678482949733734130859375</LatitudeDegrees>
              <LongitudeDegrees>-16.64000563323497772216796875</LongitudeDegrees>
            </Position>
            <AltitudeMeters>3509.60009765625</AltitudeMeters>
            <DistanceMeters>10062.543464046</DistanceMeters>
          </Trackpoint>
          <Trackpoint>
            <Time>2019-04-08T06:04:32.000Z</Time>
            <Position>
              <LatitudeDegrees>28.27070572413504123687744140625</LatitudeDegrees>
              <LongitudeDegrees>-16.640073023736476898193359375</LongitudeDegrees>
            </Position>
            <AltitudeMeters>3510.60009765625</AltitudeMeters>
            <DistanceMeters>10069.81161011</DistanceMeters>
          </Trackpoint>
          <Trackpoint>
            <Time>2019-04-08T06:04:37.000Z</Time>
            <Position>
              <LatitudeDegrees>28.2707145251333713531494140625</LatitudeDegrees>
              <LongitudeDegrees>-16.64011292159557342529296875</LongitudeDegrees>
            </Position>
            <AltitudeMeters>3510.60009765625</AltitudeMeters>
            <DistanceMeters>10073.843252157</DistanceMeters>
          </Trackpoint>
          <Trackpoint>
            <Time>2019-04-08T06:04:42.000Z</Time>
            <Position>
              <LatitudeDegrees>28.27072466723620891571044921875</LatitudeDegrees>
              <LongitudeDegrees>-16.64014636538922786712646484375</LongitudeDegrees>
            </Position>
            <AltitudeMeters>3511.60009765625</AltitudeMeters>
            <DistanceMeters>10077.31009968</DistanceMeters>
          </Trackpoint>
          <Trackpoint>
            <Time>2019-04-08T06:04:43.000Z</Time>
            <Position>
              <LatitudeDegrees>28.27072684653103351593017578125</LatitudeDegrees>
              <LongitudeDegrees>-16.64015449583530426025390625</LongitudeDegrees>
            </Position>
            <AltitudeMeters>3511.800048828125</AltitudeMeters>
            <DistanceMeters>10078.149352897</DistanceMeters>
          </Trackpoint>
          <Trackpoint>
            <Time>2019-04-08T06:04:49.000Z</Time>
            <Position>
              <LatitudeDegrees>28.27074612490832805633544921875</LatitudeDegrees>
              <LongitudeDegrees>-16.640197075903415679931640625</LongitudeDegrees>
            </Position>
            <AltitudeMeters>3512.800048828125</AltitudeMeters>
            <DistanceMeters>10082.843326323</DistanceMeters>
          </Trackpoint>
          <Trackpoint>
            <Time>2019-04-08T06:04:59.000Z</Time>
            <Position>
              <LatitudeDegrees>28.27077395282685756683349609375</LatitudeDegrees>
              <LongitudeDegrees>-16.64024929516017436981201171875</LongitudeDegrees>
            </Position>
            <AltitudeMeters>3513.60009765625</AltitudeMeters>
            <DistanceMeters>10088.826991847</DistanceMeters>
          </Trackpoint>
          <Trackpoint>
            <Time>2019-04-08T06:05:00.000Z</Time>
            <Position>
              <LatitudeDegrees>28.2707809098064899444580078125</LatitudeDegrees>
              <LongitudeDegrees>-16.64025130681693553924560546875</LongitudeDegrees>
            </Position>
            <AltitudeMeters>3513.800048828125</AltitudeMeters>
            <DistanceMeters>10089.633320256</DistanceMeters>
          </Trackpoint>
          <Trackpoint>
            <Time>2019-04-08T06:05:06.000Z</Time>
            <Position>
              <LatitudeDegrees>28.27080194838345050811767578125</LatitudeDegrees>
              <LongitudeDegrees>-16.64027477614581584930419921875</LongitudeDegrees>
            </Position>
            <AltitudeMeters>3514.800048828125</AltitudeMeters>
            <DistanceMeters>10092.915527014</DistanceMeters>
          </Trackpoint>
          <Trackpoint>
            <Time>2019-04-08T06:05:11.000Z</Time>
            <Position>
              <LatitudeDegrees>28.2708238251507282257080078125</LatitudeDegrees>
              <LongitudeDegrees>-16.64029153995215892791748046875</LongitudeDegrees>
            </Position>
            <AltitudeMeters>3515.60009765625</AltitudeMeters>
            <DistanceMeters>10095.85368172</DistanceMeters>
          </Trackpoint>
          <Trackpoint>
            <Time>2019-04-08T06:05:13.000Z</Time>
            <Position>
              <LatitudeDegrees>28.27082969248294830322265625</LatitudeDegrees>
              <LongitudeDegrees>-16.64029824547469615936279296875</LongitudeDegrees>
            </Position>
            <AltitudeMeters>3516</AltitudeMeters>
            <DistanceMeters>10096.784749569</DistanceMeters>
          </Trackpoint>
          <Trackpoint>
            <Time>2019-04-08T06:05:22.000Z</Time>
            <Position>
              <LatitudeDegrees>28.27084117569029331207275390625</LatitudeDegrees>
              <LongitudeDegrees>-16.6403209604322910308837890625</LongitudeDegrees>
            </Position>
            <AltitudeMeters>3516.199951171875</AltitudeMeters>
            <DistanceMeters>10099.352230008</DistanceMeters>
          </Trackpoint>
          <Trackpoint>
            <Time>2019-04-08T06:05:25.000Z</Time>
            <Position>
              <LatitudeDegrees>28.27084855176508426666259765625</LatitudeDegrees>
              <LongitudeDegrees>-16.6403350420296192169189453125</LongitudeDegrees>
            </Position>
            <AltitudeMeters>3516.800048828125</AltitudeMeters>
            <DistanceMeters>10100.959277569</DistanceMeters>
          </Trackpoint>
          <Trackpoint>
            <Time>2019-04-08T06:05:30.000Z</Time>
            <Position>
              <LatitudeDegrees>28.27085810713469982147216796875</LatitudeDegrees>
              <LongitudeDegrees>-16.6403581760823726654052734375</LongitudeDegrees>
            </Position>
            <AltitudeMeters>3517.800048828125</AltitudeMeters>
            <DistanceMeters>10103.464452838</DistanceMeters>
          </Trackpoint>
          <Trackpoint>
            <Time>2019-04-08T06:05:37.000Z</Time>
            <Position>
              <LatitudeDegrees>28.27087202109396457672119140625</LatitudeDegrees>
              <LongitudeDegrees>-16.64038256742060184478759765625</LongitudeDegrees>
            </Position>
            <AltitudeMeters>3519</AltitudeMeters>
            <DistanceMeters>10106.31208495</DistanceMeters>
          </Trackpoint>
          <Trackpoint>
            <Time>2019-04-08T06:05:39.000Z</Time>
            <Position>
              <LatitudeDegrees>28.270871937274932861328125</LatitudeDegrees>
              <LongitudeDegrees>-16.64038809947669506072998046875</LongitudeDegrees>
            </Position>
            <AltitudeMeters>3519.60009765625</AltitudeMeters>
            <DistanceMeters>10106.849637223</DistanceMeters>
          </Trackpoint>
          <Trackpoint>
            <Time>2019-04-08T06:05:42.000Z</Time>
            <Position>
              <LatitudeDegrees>28.2708759605884552001953125</LatitudeDegrees>
              <LongitudeDegrees>-16.64039279334247112274169921875</LongitudeDegrees>
            </Position>
            <AltitudeMeters>3520.199951171875</AltitudeMeters>
            <DistanceMeters>10107.487095802</DistanceMeters>
          </Trackpoint>
          <Trackpoint>
            <Time>2019-04-08T06:05:49.000Z</Time>
            <Position>
              <LatitudeDegrees>28.27089247293770313262939453125</LatitudeDegrees>
              <LongitudeDegrees>-16.64041441865265369415283203125</LongitudeDegrees>
            </Position>
            <AltitudeMeters>3521.199951171875</AltitudeMeters>
            <DistanceMeters>10110.293201049</DistanceMeters>
          </Trackpoint>
          <Trackpoint>
            <Time>2019-04-08T06:05:50.000Z</Time>
            <Position>
              <LatitudeDegrees>28.2708965800702571868896484375</LatitudeDegrees>
              <LongitudeDegrees>-16.64041869342327117919921875</LongitudeDegrees>
            </Position>
            <AltitudeMeters>3521.39990234375</AltitudeMeters>
            <DistanceMeters>10110.909044545</DistanceMeters>
          </Trackpoint>
          <Trackpoint>
            <Time>2019-04-08T06:05:54.000Z</Time>
            <Position>
              <LatitudeDegrees>28.270906470715999603271484375</LatitudeDegrees>
              <LongitudeDegrees>-16.640432439744472503662109375</LongitudeDegrees>
            </Position>
            <AltitudeMeters>3522.60009765625</AltitudeMeters>
            <DistanceMeters>10112.645721121</DistanceMeters>
          </Trackpoint>
          <Trackpoint>
            <Time>2019-04-08T06:05:59.000Z</Time>
            <Position>
              <LatitudeDegrees>28.27091074548661708831787109375</LatitudeDegrees>
              <LongitudeDegrees>-16.6404547356069087982177734375</LongitudeDegrees>
            </Position>
            <AltitudeMeters>3523</AltitudeMeters>
            <DistanceMeters>10114.884402078</DistanceMeters>
          </Trackpoint>
          <Trackpoint>
            <Time>2019-04-08T06:06:05.000Z</Time>
            <Position>
              <LatitudeDegrees>28.27090202830731868743896484375</LatitudeDegrees>
              <LongitudeDegrees>-16.6404743492603302001953125</LongitudeDegrees>
            </Position>
            <AltitudeMeters>3523.800048828125</AltitudeMeters>
            <DistanceMeters>10117.038806704</DistanceMeters>
          </Trackpoint>
          <Trackpoint>
            <Time>2019-04-08T06:06:09.000Z</Time>
            <Position>
              <LatitudeDegrees>28.270889036357402801513671875</LatitudeDegrees>
              <LongitudeDegrees>-16.640489101409912109375</LongitudeDegrees>
            </Position>
            <AltitudeMeters>3524.39990234375</AltitudeMeters>
            <DistanceMeters>10119.085744776</DistanceMeters>
          </Trackpoint>
          <Trackpoint>
            <Time>2019-04-08T06:06:14.000Z</Time>
            <Position>
              <LatitudeDegrees>28.2708974182605743408203125</LatitudeDegrees>
              <LongitudeDegrees>-16.64050494320690631866455078125</LongitudeDegrees>
            </Position>
            <AltitudeMeters>3524.800048828125</AltitudeMeters>
            <DistanceMeters>10120.898738936</DistanceMeters>
          </Trackpoint>
          <Trackpoint>
            <Time>2019-04-08T06:06:18.000Z</Time>
            <Position>
              <LatitudeDegrees>28.27091275714337825775146484375</LatitudeDegrees>
              <LongitudeDegrees>-16.6405063681304454803466796875</LongitudeDegrees>
            </Position>
            <AltitudeMeters>3525.39990234375</AltitudeMeters>
            <DistanceMeters>10122.614490935</DistanceMeters>
          </Trackpoint>
          <Trackpoint>
            <Time>2019-04-08T06:06:25.000Z</Time>
            <Position>
              <LatitudeDegrees>28.2709537446498870849609375</LatitudeDegrees>
              <LongitudeDegrees>-16.640502512454986572265625</LongitudeDegrees>
            </Position>
            <AltitudeMeters>3525.800048828125</AltitudeMeters>
            <DistanceMeters>10127.192569945</DistanceMeters>
          </Trackpoint>
          <Trackpoint>
            <Time>2019-04-08T06:06:26.000Z</Time>
            <Position>
              <LatitudeDegrees>28.2709539122879505157470703125</LatitudeDegrees>
              <LongitudeDegrees>-16.6405010037124156951904296875</LongitudeDegrees>
            </Position>
            <AltitudeMeters>3525.800048828125</AltitudeMeters>
            <DistanceMeters>10127.357161043</DistanceMeters>
          </Trackpoint>
          <Trackpoint>
            <Time>2019-04-08T06:06:34.000Z</Time>
            <Position>
              <LatitudeDegrees>28.2709472067654132843017578125</LatitudeDegrees>
              <LongitudeDegrees>-16.64054433815181255340576171875</LongitudeDegrees>
            </Position>
            <AltitudeMeters>3526.800048828125</AltitudeMeters>
            <DistanceMeters>10131.670159707</DistanceMeters>
          </Trackpoint>
          <Trackpoint>
            <Time>2019-04-08T06:06:42.000Z</Time>
            <Position>
              <LatitudeDegrees>28.27093102969229221343994140625</LatitudeDegrees>
              <LongitudeDegrees>-16.64057803340256214141845703125</LongitudeDegrees>
            </Position>
            <AltitudeMeters>3527.39990234375</AltitudeMeters>
            <DistanceMeters>10135.431825533</DistanceMeters>
          </Trackpoint>
          <Trackpoint>
            <Time>2019-04-08T06:06:49.000Z</Time>
            <Position>
              <LatitudeDegrees>28.27090370468795299530029296875</LatitudeDegrees>
              <LongitudeDegrees>-16.64061407558619976043701171875</LongitudeDegrees>
            </Position>
            <AltitudeMeters>3528</AltitudeMeters>
            <DistanceMeters>10140.093948869</DistanceMeters>
          </Trackpoint>
          <Trackpoint>
            <Time>2019-04-08T06:06:51.000Z</Time>
            <Position>
              <LatitudeDegrees>28.2709009386599063873291015625</LatitudeDegrees>
              <LongitudeDegrees>-16.64062513969838619232177734375</LongitudeDegrees>
            </Position>
            <AltitudeMeters>3528.39990234375</AltitudeMeters>
            <DistanceMeters>10141.222328583</DistanceMeters>
          </Trackpoint>
          <Trackpoint>
            <Time>2019-04-08T06:06:59.000Z</Time>
            <Position>
              <LatitudeDegrees>28.27088274993002414703369140625</LatitudeDegrees>
              <LongitudeDegrees>-16.64065732620656490325927734375</LongitudeDegrees>
            </Position>
            <AltitudeMeters>3528.800048828125</AltitudeMeters>
            <DistanceMeters>10144.970768118</DistanceMeters>
          </Trackpoint>
          <Trackpoint>
            <Time>2019-04-08T06:07:05.000Z</Time>
            <Position>
              <LatitudeDegrees>28.27085777185857295989990234375</LatitudeDegrees>
              <LongitudeDegrees>-16.64067241363227367401123046875</LongitudeDegrees>
            </Position>
            <AltitudeMeters>3529</AltitudeMeters>
            <DistanceMeters>10148.119581217</DistanceMeters>
          </Trackpoint>
          <Trackpoint>
            <Time>2019-04-08T06:07:07.000Z</Time>
            <Position>
              <LatitudeDegrees>28.27084989286959171295166015625</LatitudeDegrees>
              <LongitudeDegrees>-16.64067308418452739715576171875</LongitudeDegrees>
            </Position>
            <AltitudeMeters>3529.800048828125</AltitudeMeters>
            <DistanceMeters>10149.000822713</DistanceMeters>
          </Trackpoint>
          <Trackpoint>
            <Time>2019-04-08T06:07:09.000Z</Time>
            <Position>
              <LatitudeDegrees>28.2708437740802764892578125</LatitudeDegrees>
              <LongitudeDegrees>-16.6406753472983837127685546875</LongitudeDegrees>
            </Position>
            <AltitudeMeters>3530.199951171875</AltitudeMeters>
            <DistanceMeters>10149.718258674</DistanceMeters>
          </Trackpoint>
          <Trackpoint>
            <Time>2019-04-08T06:07:16.000Z</Time>
            <Position>
              <LatitudeDegrees>28.270826674997806549072265625</LatitudeDegrees>
              <LongitudeDegrees>-16.6406803764402866363525390625</LongitudeDegrees>
            </Position>
            <AltitudeMeters>3531</AltitudeMeters>
            <DistanceMeters>10151.684186627</DistanceMeters>
          </Trackpoint>
          <Trackpoint>
            <Time>2019-04-08T06:07:27.000Z</Time>
            <Position>
              <LatitudeDegrees>28.27082240022718906402587890625</LatitudeDegrees>
              <LongitudeDegrees>-16.6406971402466297149658203125</LongitudeDegrees>
            </Position>
            <AltitudeMeters>3530.800048828125</AltitudeMeters>
            <DistanceMeters>10153.394667486</DistanceMeters>
          </Trackpoint>
          <Trackpoint>
            <Time>2019-04-08T06:07:30.000Z</Time>
            <Position>
              <LatitudeDegrees>28.270817287266254425048828125</LatitudeDegrees>
              <LongitudeDegrees>-16.64070644415915012359619140625</LongitudeDegrees>
            </Position>
            <AltitudeMeters>3531.39990234375</AltitudeMeters>
            <DistanceMeters>10154.469772032</DistanceMeters>
          </Trackpoint>
          <Trackpoint>
            <Time>2019-04-08T06:07:38.000Z</Time>
            <Position>
              <LatitudeDegrees>28.27083170413970947265625</LatitudeDegrees>
              <LongitudeDegrees>-16.64072136394679546356201171875</LongitudeDegrees>
            </Position>
            <AltitudeMeters>3532.39990234375</AltitudeMeters>
            <DistanceMeters>10156.640877719</DistanceMeters>
          </Trackpoint>
          <Trackpoint>
            <Time>2019-04-08T06:07:45.000Z</Time>
            <Position>
              <LatitudeDegrees>28.27084553427994251251220703125</LatitudeDegrees>
              <LongitudeDegrees>-16.64074466563761234283447265625</LongitudeDegrees>
            </Position>
            <AltitudeMeters>3533.39990234375</AltitudeMeters>
            <DistanceMeters>10159.395013556</DistanceMeters>
          </Trackpoint>
          <Trackpoint>
            <Time>2019-04-08T06:07:51.000Z</Time>
            <Position>
              <LatitudeDegrees>28.2708529941737651824951171875</LatitudeDegrees>
              <LongitudeDegrees>-16.6407641954720020294189453125</LongitudeDegrees>
            </Position>
            <AltitudeMeters>3534.60009765625</AltitudeMeters>
            <DistanceMeters>10161.481277405</DistanceMeters>
          </Trackpoint>
          <Trackpoint>
            <Time>2019-04-08T06:07:59.000Z</Time>
            <Position>
              <LatitudeDegrees>28.2708652317523956298828125</LatitudeDegrees>
              <LongitudeDegrees>-16.64077718742191791534423828125</LongitudeDegrees>
            </Position>
            <AltitudeMeters>3535.800048828125</AltitudeMeters>
            <DistanceMeters>10163.343413102</DistanceMeters>
          </Trackpoint>
          <Trackpoint>
            <Time>2019-04-08T06:08:00.000Z</Time>
            <Position>
              <LatitudeDegrees>28.27086565084755420684814453125</LatitudeDegrees>
              <LongitudeDegrees>-16.6407766006886959075927734375</LongitudeDegrees>
            </Position>
            <AltitudeMeters>3536</AltitudeMeters>
            <DistanceMeters>10163.343413102</DistanceMeters>
          </Trackpoint>
          <Trackpoint>
            <Time>2019-04-08T06:08:09.000Z</Time>
            <Position>
              <LatitudeDegrees>28.2708831690251827239990234375</LatitudeDegrees>
              <LongitudeDegrees>-16.640809290111064910888671875</LongitudeDegrees>
            </Position>
            <AltitudeMeters>3536.800048828125</AltitudeMeters>
            <DistanceMeters>10167.094260886</DistanceMeters>
          </Trackpoint>
          <Trackpoint>
            <Time>2019-04-08T06:08:10.000Z</Time>
            <Position>
              <LatitudeDegrees>28.2708858512341976165771484375</LatitudeDegrees>
              <LongitudeDegrees>-16.64081339724361896514892578125</LongitudeDegrees>
            </Position>
            <AltitudeMeters>3537</AltitudeMeters>
            <DistanceMeters>10167.597094994</DistanceMeters>
          </Trackpoint>
          <Trackpoint>
            <Time>2019-04-08T06:08:18.000Z</Time>
            <Position>
              <LatitudeDegrees>28.27089297585189342498779296875</LatitudeDegrees>
              <LongitudeDegrees>-16.64083502255380153656005859375</LongitudeDegrees>
            </Position>
            <AltitudeMeters>3538.199951171875</AltitudeMeters>
            <DistanceMeters>10169.861842976</DistanceMeters>
          </Trackpoint>
          <Trackpoint>
            <Time>2019-04-08T06:08:24.000Z</Time>
            <Position>
              <LatitudeDegrees>28.2709059678018093109130859375</LatitudeDegrees>
              <LongitudeDegrees>-16.64085480384528636932373046875</LongitudeDegrees>
            </Position>
            <AltitudeMeters>3538.60009765625</AltitudeMeters>
            <DistanceMeters>10172.280828204</DistanceMeters>
          </Trackpoint>
          <Trackpoint>
            <Time>2019-04-08T06:08:28.000Z</Time>
            <Position>
              <LatitudeDegrees>28.27091686427593231201171875</LatitudeDegrees>
              <LongitudeDegrees>-16.640861593186855316162109375</LongitudeDegrees>
            </Position>
            <AltitudeMeters>3539.199951171875</AltitudeMeters>
            <DistanceMeters>10173.664438051</DistanceMeters>
          </Trackpoint>
          <Trackpoint>
            <Time>2019-04-08T06:08:33.000Z</Time>
            <Position>
              <LatitudeDegrees>28.27092281542718410491943359375</LatitudeDegrees>
              <LongitudeDegrees>-16.6408718191087245941162109375</LongitudeDegrees>
            </Position>
            <AltitudeMeters>3540.199951171875</AltitudeMeters>
            <DistanceMeters>10174.858905329</DistanceMeters>
          </Trackpoint>
          <Trackpoint>
            <Time>2019-04-08T06:08:34.000Z</Time>
            <Position>
              <LatitudeDegrees>28.2709227316081523895263671875</LatitudeDegrees>
              <LongitudeDegrees>-16.6408718191087245941162109375</LongitudeDegrees>
            </Position>
            <AltitudeMeters>3540.39990234375</AltitudeMeters>
            <DistanceMeters>10174.858905329</DistanceMeters>
          </Trackpoint>
          <Trackpoint>
            <Time>2019-04-08T06:08:48.000Z</Time>
            <Position>
              <LatitudeDegrees>28.270934633910655975341796875</LatitudeDegrees>
              <LongitudeDegrees>-16.64088916964828968048095703125</LongitudeDegrees>
            </Position>
            <AltitudeMeters>3540.800048828125</AltitudeMeters>
            <DistanceMeters>10177.013309954</DistanceMeters>
          </Trackpoint>
          <Trackpoint>
            <Time>2019-04-08T06:08:57.000Z</Time>
            <Position>
              <LatitudeDegrees>28.270958773791790008544921875</LatitudeDegrees>
              <LongitudeDegrees>-16.6409127227962017059326171875</LongitudeDegrees>
            </Position>
            <AltitudeMeters>3541.39990234375</AltitudeMeters>
            <DistanceMeters>10180.556162796</DistanceMeters>
          </Trackpoint>
          <Trackpoint>
            <Time>2019-04-08T06:09:00.000Z</Time>
            <Position>
              <LatitudeDegrees>28.2709693349897861480712890625</LatitudeDegrees>
              <LongitudeDegrees>-16.6409214399755001068115234375</LongitudeDegrees>
            </Position>
            <AltitudeMeters>3542.60009765625</AltitudeMeters>
            <DistanceMeters>10182.009792009</DistanceMeters>
          </Trackpoint>
          <Trackpoint>
            <Time>2019-04-08T06:09:04.000Z</Time>
            <Position>
              <LatitudeDegrees>28.27097763307392597198486328125</LatitudeDegrees>
              <LongitudeDegrees>-16.6409321688115596771240234375</LongitudeDegrees>
            </Position>
            <AltitudeMeters>3543.60009765625</AltitudeMeters>
            <DistanceMeters>10183.409622923</DistanceMeters>
          </Trackpoint>
          <Trackpoint>
            <Time>2019-04-08T06:09:06.000Z</Time>
            <Position>
              <LatitudeDegrees>28.270982243120670318603515625</LatitudeDegrees>
              <LongitudeDegrees>-16.6409368626773357391357421875</LongitudeDegrees>
            </Position>
            <AltitudeMeters>3544</AltitudeMeters>
            <DistanceMeters>10184.094870305</DistanceMeters>
          </Trackpoint>
          <Trackpoint>
            <Time>2019-04-08T06:09:13.000Z</Time>
            <Position>
              <LatitudeDegrees>28.27100378461182117462158203125</LatitudeDegrees>
              <LongitudeDegrees>-16.64097567088901996612548828125</LongitudeDegrees>
            </Position>
            <AltitudeMeters>3544.800048828125</AltitudeMeters>
            <DistanceMeters>10188.592355295</DistanceMeters>
          </Trackpoint>
          <Trackpoint>
            <Time>2019-04-08T06:09:24.000Z</Time>
            <Position>
              <LatitudeDegrees>28.27102256007492542266845703125</LatitudeDegrees>
              <LongitudeDegrees>-16.6410407982766628265380859375</LongitudeDegrees>
            </Position>
            <AltitudeMeters>3545.39990234375</AltitudeMeters>
            <DistanceMeters>10195.310414693</DistanceMeters>
          </Trackpoint>
          <Trackpoint>
            <Time>2019-04-08T06:09:29.000Z</Time>
            <Position>
              <LatitudeDegrees>28.27102842740714550018310546875</LatitudeDegrees>
              <LongitudeDegrees>-16.64106871001422405242919921875</LongitudeDegrees>
            </Position>
            <AltitudeMeters>3546.199951171875</AltitudeMeters>
            <DistanceMeters>10198.124553467</DistanceMeters>
          </Trackpoint>
          <Trackpoint>
            <Time>2019-04-08T06:09:42.000Z</Time>
            <Position>
              <LatitudeDegrees>28.27103094197809696197509765625</LatitudeDegrees>
              <LongitudeDegrees>-16.641147918999195098876953125</LongitudeDegrees>
            </Position>
            <AltitudeMeters>3547.39990234375</AltitudeMeters>
            <DistanceMeters>10205.894113366</DistanceMeters>
          </Trackpoint>
          <Trackpoint>
            <Time>2019-04-08T06:09:45.000Z</Time>
            <Position>
              <LatitudeDegrees>28.27103261835873126983642578125</LatitudeDegrees>
              <LongitudeDegrees>-16.64115051738917827606201171875</LongitudeDegrees>
            </Position>
            <AltitudeMeters>3548.60009765625</AltitudeMeters>
            <DistanceMeters>10206.194614222</DistanceMeters>
          </Trackpoint>
          <Trackpoint>
            <Time>2019-04-08T06:09:52.000Z</Time>
            <Position>
              <LatitudeDegrees>28.27104301191866397857666015625</LatitudeDegrees>
              <LongitudeDegrees>-16.64115454070270061492919921875</LongitudeDegrees>
            </Position>
            <AltitudeMeters>3549.60009765625</AltitudeMeters>
            <DistanceMeters>10207.415254469</DistanceMeters>
          </Trackpoint>
          <Trackpoint>
            <Time>2019-04-08T06:09:53.000Z</Time>
            <Position>
              <LatitudeDegrees>28.27104552648961544036865234375</LatitudeDegrees>
              <LongitudeDegrees>-16.64115303196012973785400390625</LongitudeDegrees>
            </Position>
            <AltitudeMeters>3549.60009765625</AltitudeMeters>
            <DistanceMeters>10207.744436664</DistanceMeters>
          </Trackpoint>
          <Trackpoint>
            <Time>2019-04-08T06:10:05.000Z</Time>
            <Position>
              <LatitudeDegrees>28.27107033692300319671630859375</LatitudeDegrees>
              <LongitudeDegrees>-16.64115202613174915313720703125</LongitudeDegrees>
            </Position>
            <AltitudeMeters>3549.800048828125</AltitudeMeters>
            <DistanceMeters>10210.508391199</DistanceMeters>
          </Trackpoint>
          <Trackpoint>
            <Time>2019-04-08T06:10:13.000Z</Time>
            <Position>
              <LatitudeDegrees>28.2710816524922847747802734375</LatitudeDegrees>
              <LongitudeDegrees>-16.64115428924560546875</LongitudeDegrees>
            </Position>
            <AltitudeMeters>3550.800048828125</AltitudeMeters>
            <DistanceMeters>10211.783308357</DistanceMeters>
          </Trackpoint>
          <Trackpoint>
            <Time>2019-04-08T06:10:17.000Z</Time>
            <Position>
              <LatitudeDegrees>28.27108106575906276702880859375</LatitudeDegrees>
              <LongitudeDegrees>-16.64117465727031230926513671875</LongitudeDegrees>
            </Position>
            <AltitudeMeters>3551.800048828125</AltitudeMeters>
            <DistanceMeters>10213.778869359</DistanceMeters>
          </Trackpoint>
          <Trackpoint>
            <Time>2019-04-08T06:10:18.000Z</Time>
            <Position>
              <LatitudeDegrees>28.2710824906826019287109375</LatitudeDegrees>
              <LongitudeDegrees>-16.6411792673170566558837890625</LongitudeDegrees>
            </Position>
            <AltitudeMeters>3552.199951171875</AltitudeMeters>
            <DistanceMeters>10214.244403283</DistanceMeters>
          </Trackpoint>
          <Trackpoint>
            <Time>2019-04-08T06:10:22.000Z</Time>
            <Position>
              <LatitudeDegrees>28.27108316123485565185546875</LatitudeDegrees>
              <LongitudeDegrees>-16.64119376800954341888427734375</LongitudeDegrees>
            </Position>
            <AltitudeMeters>3552.800048828125</AltitudeMeters>
            <DistanceMeters>10215.666632914</DistanceMeters>
          </Trackpoint>
          <Trackpoint>
            <Time>2019-04-08T06:10:30.000Z</Time>
            <Position>
              <LatitudeDegrees>28.27108475379645824432373046875</LatitudeDegrees>
              <LongitudeDegrees>-16.64121891371905803680419921875</LongitudeDegrees>
            </Position>
            <AltitudeMeters>3554</AltitudeMeters>
            <DistanceMeters>10218.135499375</DistanceMeters>
          </Trackpoint>
          <Trackpoint>
            <Time>2019-04-08T06:10:32.000Z</Time>
            <Position>
              <LatitudeDegrees>28.27108919620513916015625</LatitudeDegrees>
              <LongitudeDegrees>-16.641212962567806243896484375</LongitudeDegrees>
            </Position>
            <AltitudeMeters>3554.39990234375</AltitudeMeters>
            <DistanceMeters>10218.901629239</DistanceMeters>
          </Trackpoint>
          <Trackpoint>
            <Time>2019-04-08T06:10:39.000Z</Time>
            <Position>
              <LatitudeDegrees>28.27110822312533855438232421875</LatitudeDegrees>
              <LongitudeDegrees>-16.6412020660936832427978515625</LongitudeDegrees>
            </Position>
            <AltitudeMeters>3555</AltitudeMeters>
            <DistanceMeters>10221.273492984</DistanceMeters>
          </Trackpoint>
          <Trackpoint>
            <Time>2019-04-08T06:10:40.000Z</Time>
            <Position>
              <LatitudeDegrees>28.27111057005822658538818359375</LatitudeDegrees>
              <LongitudeDegrees>-16.64120432920753955841064453125</LongitudeDegrees>
            </Position>
            <AltitudeMeters>3555.199951171875</AltitudeMeters>
            <DistanceMeters>10221.629050392</DistanceMeters>
          </Trackpoint>
          <Trackpoint>
            <Time>2019-04-08T06:10:46.000Z</Time>
            <Position>
              <LatitudeDegrees>28.271110318601131439208984375</LatitudeDegrees>
              <LongitudeDegrees>-16.6412285529077053070068359375</LongitudeDegrees>
            </Position>
            <AltitudeMeters>3556</AltitudeMeters>
            <DistanceMeters>10224.002816956</DistanceMeters>
          </Trackpoint>
          <Trackpoint>
            <Time>2019-04-08T06:10:49.000Z</Time>
            <Position>
              <LatitudeDegrees>28.27111174352467060089111328125</LatitudeDegrees>
              <LongitudeDegrees>-16.6412469930946826934814453125</LongitudeDegrees>
            </Position>
            <AltitudeMeters>3556.39990234375</AltitudeMeters>
            <DistanceMeters>10225.815811116</DistanceMeters>
          </Trackpoint>
          <Trackpoint>
            <Time>2019-04-08T06:10:53.000Z</Time>
            <Position>
              <LatitudeDegrees>28.2711171917617321014404296875</LatitudeDegrees>
              <LongitudeDegrees>-16.641259230673313140869140625</LongitudeDegrees>
            </Position>
            <AltitudeMeters>3557</AltitudeMeters>
            <DistanceMeters>10227.156327887</DistanceMeters>
          </Trackpoint>
          <Trackpoint>
            <Time>2019-04-08T06:10:58.000Z</Time>
            <Position>
              <LatitudeDegrees>28.2711218856275081634521484375</LatitudeDegrees>
              <LongitudeDegrees>-16.64128295145928859710693359375</LongitudeDegrees>
            </Position>
            <AltitudeMeters>3557.39990234375</AltitudeMeters>
            <DistanceMeters>10229.539585759</DistanceMeters>
          </Trackpoint>
          <Trackpoint>
            <Time>2019-04-08T06:11:01.000Z</Time>
            <Position>
              <LatitudeDegrees>28.2711265794932842254638671875</LatitudeDegrees>
              <LongitudeDegrees>-16.64128839969635009765625</LongitudeDegrees>
            </Position>
            <AltitudeMeters>3557.800048828125</AltitudeMeters>
            <DistanceMeters>10230.293836921</DistanceMeters>
          </Trackpoint>
          <Trackpoint>
            <Time>2019-04-08T06:11:07.000Z</Time>
            <Position>
              <LatitudeDegrees>28.2711409963667392730712890625</LatitudeDegrees>
              <LongitudeDegrees>-16.64128663949668407440185546875</LongitudeDegrees>
            </Position>
            <AltitudeMeters>3558.800048828125</AltitudeMeters>
            <DistanceMeters>10231.909291065</DistanceMeters>
          </Trackpoint>
          <Trackpoint>
            <Time>2019-04-08T06:11:08.000Z</Time>
            <Position>
              <LatitudeDegrees>28.2711426727473735809326171875</LatitudeDegrees>
              <LongitudeDegrees>-16.64128295145928859710693359375</LongitudeDegrees>
            </Position>
            <AltitudeMeters>3559</AltitudeMeters>
            <DistanceMeters>10232.32350291</DistanceMeters>
          </Trackpoint>
          <Trackpoint>
            <Time>2019-04-08T06:11:18.000Z</Time>
            <Position>
              <LatitudeDegrees>28.27115289866924285888671875</LatitudeDegrees>
              <LongitudeDegrees>-16.641260571777820587158203125</LongitudeDegrees>
            </Position>
            <AltitudeMeters>3559.800048828125</AltitudeMeters>
            <DistanceMeters>10234.796024245</DistanceMeters>
          </Trackpoint>
          <Trackpoint>
            <Time>2019-04-08T06:11:20.000Z</Time>
            <Position>
              <LatitudeDegrees>28.27115583233535289764404296875</LatitudeDegrees>
              <LongitudeDegrees>-16.64125579409301280975341796875</LongitudeDegrees>
            </Position>
            <AltitudeMeters>3560</AltitudeMeters>
            <DistanceMeters>10235.366184532</DistanceMeters>
          </Trackpoint>
          <Trackpoint>
            <Time>2019-04-08T06:11:27.000Z</Time>
            <Position>
              <LatitudeDegrees>28.27116538770496845245361328125</LatitudeDegrees>
              <LongitudeDegrees>-16.64123131893575191497802734375</LongitudeDegrees>
            </Position>
            <AltitudeMeters>3560.800048828125</AltitudeMeters>
            <DistanceMeters>10237.992775174</DistanceMeters>
          </Trackpoint>
          <Trackpoint>
            <Time>2019-04-08T06:11:28.000Z</Time>
            <Position>
              <LatitudeDegrees>28.271166644990444183349609375</LatitudeDegrees>
              <LongitudeDegrees>-16.64122737944126129150390625</LongitudeDegrees>
            </Position>
            <AltitudeMeters>3561</AltitudeMeters>
            <DistanceMeters>10238.395939379</DistanceMeters>
          </Trackpoint>
          <Trackpoint>
            <Time>2019-04-08T06:11:35.000Z</Time>
            <Position>
              <LatitudeDegrees>28.271189443767070770263671875</LatitudeDegrees>
              <LongitudeDegrees>-16.6412091068923473358154296875</LongitudeDegrees>
            </Position>
            <AltitudeMeters>3562</AltitudeMeters>
            <DistanceMeters>10241.501437993</DistanceMeters>
          </Trackpoint>
          <Trackpoint>
            <Time>2019-04-08T06:11:37.000Z</Time>
            <Position>
              <LatitudeDegrees>28.27119405381381511688232421875</LatitudeDegrees>
              <LongitudeDegrees>-16.64121455512940883636474609375</LongitudeDegrees>
            </Position>
            <AltitudeMeters>3562.199951171875</AltitudeMeters>
            <DistanceMeters>10242.24967909</DistanceMeters>
          </Trackpoint>
          <Trackpoint>
            <Time>2019-04-08T06:11:42.000Z</Time>
            <Position>
              <LatitudeDegrees>28.27120629139244556427001953125</LatitudeDegrees>
              <LongitudeDegrees>-16.6412315703928470611572265625</LongitudeDegrees>
            </Position>
            <AltitudeMeters>3563.199951171875</AltitudeMeters>
            <DistanceMeters>10244.404083716</DistanceMeters>
          </Trackpoint>
          <Trackpoint>
            <Time>2019-04-08T06:11:47.000Z</Time>
            <Position>
              <LatitudeDegrees>28.2712120749056339263916015625</LatitudeDegrees>
              <LongitudeDegrees>-16.6412513516843318939208984375</LongitudeDegrees>
            </Position>
            <AltitudeMeters>3564</AltitudeMeters>
            <DistanceMeters>10246.448814846</DistanceMeters>
          </Trackpoint>
          <Trackpoint>
            <Time>2019-04-08T06:11:52.000Z</Time>
            <Position>
              <LatitudeDegrees>28.27121324837207794189453125</LatitudeDegrees>
              <LongitudeDegrees>-16.64127054624259471893310546875</LongitudeDegrees>
            </Position>
            <AltitudeMeters>3564.39990234375</AltitudeMeters>
            <DistanceMeters>10248.335041269</DistanceMeters>
          </Trackpoint>
          <Trackpoint>
            <Time>2019-04-08T06:11:56.000Z</Time>
            <Position>
              <LatitudeDegrees>28.2712192833423614501953125</LatitudeDegrees>
              <LongitudeDegrees>-16.64126987569034099578857421875</LongitudeDegrees>
            </Position>
            <AltitudeMeters>3565.199951171875</AltitudeMeters>
            <DistanceMeters>10249.00698161</DistanceMeters>
          </Trackpoint>
          <Trackpoint>
            <Time>2019-04-08T06:12:06.000Z</Time>
            <Position>
              <LatitudeDegrees>28.271223641932010650634765625</LatitudeDegrees>
              <LongitudeDegrees>-16.64131245575845241546630859375</LongitudeDegrees>
            </Position>
            <AltitudeMeters>3565.60009765625</AltitudeMeters>
            <DistanceMeters>10253.20862408</DistanceMeters>
          </Trackpoint>
          <Trackpoint>
            <Time>2019-04-08T06:12:10.000Z</Time>
            <Position>
              <LatitudeDegrees>28.27122825197875499725341796875</LatitudeDegrees>
              <LongitudeDegrees>-16.64133089594542980194091796875</LongitudeDegrees>
            </Position>
            <AltitudeMeters>3566.60009765625</AltitudeMeters>
            <DistanceMeters>10255.085251324</DistanceMeters>
          </Trackpoint>
          <Trackpoint>
            <Time>2019-04-08T06:12:14.000Z</Time>
            <Position>
              <LatitudeDegrees>28.2712325267493724822998046875</LatitudeDegrees>
              <LongitudeDegrees>-16.64135076105594635009765625</LongitudeDegrees>
            </Position>
            <AltitudeMeters>3567.39990234375</AltitudeMeters>
            <DistanceMeters>10257.087588444</DistanceMeters>
          </Trackpoint>
          <Trackpoint>
            <Time>2019-04-08T06:12:18.000Z</Time>
            <Position>
              <LatitudeDegrees>28.27122942544519901275634765625</LatitudeDegrees>
              <LongitudeDegrees>-16.64136953651905059814453125</LongitudeDegrees>
            </Position>
            <AltitudeMeters>3567.60009765625</AltitudeMeters>
            <DistanceMeters>10258.959397639</DistanceMeters>
          </Trackpoint>
          <Trackpoint>
            <Time>2019-04-08T06:12:21.000Z</Time>
            <Position>
              <LatitudeDegrees>28.27122406102716922760009765625</LatitudeDegrees>
              <LongitudeDegrees>-16.6413827799260616302490234375</LongitudeDegrees>
            </Position>
            <AltitudeMeters>3568.199951171875</AltitudeMeters>
            <DistanceMeters>10260.391119453</DistanceMeters>
          </Trackpoint>
          <Trackpoint>
            <Time>2019-04-08T06:12:24.000Z</Time>
            <Position>
              <LatitudeDegrees>28.27122221700847148895263671875</LatitudeDegrees>
              <LongitudeDegrees>-16.64139325730502605438232421875</LongitudeDegrees>
            </Position>
            <AltitudeMeters>3568.60009765625</AltitudeMeters>
            <DistanceMeters>10261.440723819</DistanceMeters>
          </Trackpoint>
          <Trackpoint>
            <Time>2019-04-08T06:12:29.000Z</Time>
            <Position>
              <LatitudeDegrees>28.2712335325777530670166015625</LatitudeDegrees>
              <LongitudeDegrees>-16.641390658915042877197265625</LongitudeDegrees>
            </Position>
            <AltitudeMeters>3569.60009765625</AltitudeMeters>
            <DistanceMeters>10262.722704284</DistanceMeters>
          </Trackpoint>
          <Trackpoint>
            <Time>2019-04-08T06:12:30.000Z</Time>
            <Position>
              <LatitudeDegrees>28.271236382424831390380859375</LatitudeDegrees>
              <LongitudeDegrees>-16.64138856343924999237060546875</LongitudeDegrees>
            </Position>
            <AltitudeMeters>3569.800048828125</AltitudeMeters>
            <DistanceMeters>10263.102811142</DistanceMeters>
          </Trackpoint>
          <Trackpoint>
            <Time>2019-04-08T06:12:38.000Z</Time>
            <Position>
              <LatitudeDegrees>28.2712684012949466705322265625</LatitudeDegrees>
              <LongitudeDegrees>-16.6413703747093677520751953125</LongitudeDegrees>
            </Position>
            <AltitudeMeters>3570.39990234375</AltitudeMeters>
            <DistanceMeters>10267.088272779</DistanceMeters>
          </Trackpoint>
          <Trackpoint>
            <Time>2019-04-08T06:12:41.000Z</Time>
            <Position>
              <LatitudeDegrees>28.271268568933010101318359375</LatitudeDegrees>
              <LongitudeDegrees>-16.64137967862188816070556640625</LongitudeDegrees>
            </Position>
            <AltitudeMeters>3570.800048828125</AltitudeMeters>
            <DistanceMeters>10267.999737004</DistanceMeters>
          </Trackpoint>
          <Trackpoint>
            <Time>2019-04-08T06:12:47.000Z</Time>
            <Position>
              <LatitudeDegrees>28.27126412652432918548583984375</LatitudeDegrees>
              <LongitudeDegrees>-16.64140230976045131683349609375</LongitudeDegrees>
            </Position>
            <AltitudeMeters>3570.800048828125</AltitudeMeters>
            <DistanceMeters>10270.270457958</DistanceMeters>
          </Trackpoint>
          <Trackpoint>
            <Time>2019-04-08T06:12:51.000Z</Time>
            <Position>
              <LatitudeDegrees>28.27126152813434600830078125</LatitudeDegrees>
              <LongitudeDegrees>-16.6414169780910015106201171875</LongitudeDegrees>
            </Position>
            <AltitudeMeters>3572.199951171875</AltitudeMeters>
            <DistanceMeters>10271.736458706</DistanceMeters>
          </Trackpoint>
          <Trackpoint>
            <Time>2019-04-08T06:12:57.000Z</Time>
            <Position>
              <LatitudeDegrees>28.2712657190859317779541015625</LatitudeDegrees>
              <LongitudeDegrees>-16.64142695255577564239501953125</LongitudeDegrees>
            </Position>
            <AltitudeMeters>3572.800048828125</AltitudeMeters>
            <DistanceMeters>10272.81992995</DistanceMeters>
          </Trackpoint>
          <Trackpoint>
            <Time>2019-04-08T06:13:04.000Z</Time>
            <Position>
              <LatitudeDegrees>28.27126999385654926300048828125</LatitudeDegrees>
              <LongitudeDegrees>-16.6414444707334041595458984375</LongitudeDegrees>
            </Position>
            <AltitudeMeters>3573.199951171875</AltitudeMeters>
            <DistanceMeters>10274.605319819</DistanceMeters>
          </Trackpoint>
          <Trackpoint>
            <Time>2019-04-08T06:13:05.000Z</Time>
            <Position>
              <LatitudeDegrees>28.27127116732299327850341796875</LatitudeDegrees>
              <LongitudeDegrees>-16.64145000278949737548828125</LongitudeDegrees>
            </Position>
            <AltitudeMeters>3573.39990234375</AltitudeMeters>
            <DistanceMeters>10275.175480106</DistanceMeters>
          </Trackpoint>
          <Trackpoint>
            <Time>2019-04-08T06:13:10.000Z</Time>
            <Position>
              <LatitudeDegrees>28.27127653174102306365966796875</LatitudeDegrees>
              <LongitudeDegrees>-16.64145695976912975311279296875</LongitudeDegrees>
            </Position>
            <AltitudeMeters>3574.199951171875</AltitudeMeters>
            <DistanceMeters>10276.081977186</DistanceMeters>
          </Trackpoint>
          <Trackpoint>
            <Time>2019-04-08T06:13:14.000Z</Time>
            <Position>
              <LatitudeDegrees>28.2712798006832599639892578125</LatitudeDegrees>
              <LongitudeDegrees>-16.64145268499851226806640625</LongitudeDegrees>
            </Position>
            <AltitudeMeters>3574.39990234375</AltitudeMeters>
            <DistanceMeters>10276.636073386</DistanceMeters>
          </Trackpoint>
          <Trackpoint>
            <Time>2019-04-08T06:13:20.000Z</Time>
            <Position>
              <LatitudeDegrees>28.271286003291606903076171875</LatitudeDegrees>
              <LongitudeDegrees>-16.64143868722021579742431640625</LongitudeDegrees>
            </Position>
            <AltitudeMeters>3575.199951171875</AltitudeMeters>
            <DistanceMeters>10278.174215131</DistanceMeters>
          </Trackpoint>
          <Trackpoint>
            <Time>2019-04-08T06:13:22.000Z</Time>
            <Position>
              <LatitudeDegrees>28.27128960750997066497802734375</LatitudeDegrees>
              <LongitudeDegrees>-16.6414300538599491119384765625</LongitudeDegrees>
            </Position>
            <AltitudeMeters>3575.60009765625</AltitudeMeters>
            <DistanceMeters>10279.110119728</DistanceMeters>
          </Trackpoint>
          <Trackpoint>
            <Time>2019-04-08T06:13:30.000Z</Time>
            <Position>
              <LatitudeDegrees>28.2713129930198192596435546875</LatitudeDegrees>
              <LongitudeDegrees>-16.641425192356109619140625</LongitudeDegrees>
            </Position>
            <AltitudeMeters>3575.800048828125</AltitudeMeters>
            <DistanceMeters>10281.757257677</DistanceMeters>
          </Trackpoint>
          <Trackpoint>
            <Time>2019-04-08T06:13:37.000Z</Time>
            <Position>
              <LatitudeDegrees>28.271309472620487213134765625</LatitudeDegrees>
              <LongitudeDegrees>-16.6414474882185459136962890625</LongitudeDegrees>
            </Position>
            <AltitudeMeters>3576.39990234375</AltitudeMeters>
            <DistanceMeters>10283.977712977</DistanceMeters>
          </Trackpoint>
          <Trackpoint>
            <Time>2019-04-08T06:13:40.000Z</Time>
            <Position>
              <LatitudeDegrees>28.27130553312599658966064453125</LatitudeDegrees>
              <LongitudeDegrees>-16.64146232418715953826904296875</LongitudeDegrees>
            </Position>
            <AltitudeMeters>3576.39990234375</AltitudeMeters>
            <DistanceMeters>10285.492189592</DistanceMeters>
          </Trackpoint>
          <Trackpoint>
            <Time>2019-04-08T06:13:48.000Z</Time>
            <Position>
              <LatitudeDegrees>28.2713079638779163360595703125</LatitudeDegrees>
              <LongitudeDegrees>-16.641501970589160919189453125</LongitudeDegrees>
            </Position>
            <AltitudeMeters>3577.39990234375</AltitudeMeters>
            <DistanceMeters>10289.387125846</DistanceMeters>
          </Trackpoint>
          <Trackpoint>
            <Time>2019-04-08T06:13:53.000Z</Time>
            <Position>
              <LatitudeDegrees>28.27131911180913448333740234375</LatitudeDegrees>
              <LongitudeDegrees>-16.64152753539383411407470703125</LongitudeDegrees>
            </Position>
            <AltitudeMeters>3578.39990234375</AltitudeMeters>
            <DistanceMeters>10292.183560398</DistanceMeters>
          </Trackpoint>
          <Trackpoint>
            <Time>2019-04-08T06:13:58.000Z</Time>
            <Position>
              <LatitudeDegrees>28.2713300921022891998291015625</LatitudeDegrees>
              <LongitudeDegrees>-16.64154245518147945404052734375</LongitudeDegrees>
            </Position>
            <AltitudeMeters>3579.39990234375</AltitudeMeters>
            <DistanceMeters>10294.091208376</DistanceMeters>
          </Trackpoint>
          <Trackpoint>
            <Time>2019-04-08T06:14:00.000Z</Time>
            <Position>
              <LatitudeDegrees>28.2713341154158115386962890625</LatitudeDegrees>
              <LongitudeDegrees>-16.64154647849500179290771484375</LongitudeDegrees>
            </Position>
            <AltitudeMeters>3579.60009765625</AltitudeMeters>
            <DistanceMeters>10294.692210087</DistanceMeters>
          </Trackpoint>
          <Trackpoint>
            <Time>2019-04-08T06:14:06.000Z</Time>
            <Position>
              <LatitudeDegrees>28.27134626917541027069091796875</LatitudeDegrees>
              <LongitudeDegrees>-16.64156994782388210296630859375</LongitudeDegrees>
            </Position>
            <AltitudeMeters>3580.60009765625</AltitudeMeters>
            <DistanceMeters>10297.361429133</DistanceMeters>
          </Trackpoint>
          <Trackpoint>
            <Time>2019-04-08T06:14:16.000Z</Time>
            <Position>
              <LatitudeDegrees>28.27135180123150348663330078125</LatitudeDegrees>
              <LongitudeDegrees>-16.64160347543656826019287109375</LongitudeDegrees>
            </Position>
            <AltitudeMeters>3581.39990234375</AltitudeMeters>
            <DistanceMeters>10300.704965381</DistanceMeters>
          </Trackpoint>
          <Trackpoint>
            <Time>2019-04-08T06:14:17.000Z</Time>
            <Position>
              <LatitudeDegrees>28.2713533937931060791015625</LatitudeDegrees>
              <LongitudeDegrees>-16.6416070796549320220947265625</LongitudeDegrees>
            </Position>
            <AltitudeMeters>3581.60009765625</AltitudeMeters>
            <DistanceMeters>10301.096770561</DistanceMeters>
          </Trackpoint>
          <Trackpoint>
            <Time>2019-04-08T06:14:25.000Z</Time>
            <Position>
              <LatitudeDegrees>28.27136437408626079559326171875</LatitudeDegrees>
              <LongitudeDegrees>-16.641607247292995452880859375</LongitudeDegrees>
            </Position>
            <AltitudeMeters>3582.800048828125</AltitudeMeters>
            <DistanceMeters>10302.317410808</DistanceMeters>
          </Trackpoint>
          <Trackpoint>
            <Time>2019-04-08T06:14:30.000Z</Time>
            <Position>
              <LatitudeDegrees>28.27137493528425693511962890625</LatitudeDegrees>
              <LongitudeDegrees>-16.64160230197012424468994140625</LongitudeDegrees>
            </Position>
            <AltitudeMeters>3584</AltitudeMeters>
            <DistanceMeters>10303.592327967</DistanceMeters>
          </Trackpoint>
          <Trackpoint>
            <Time>2019-04-08T06:14:46.000Z</Time>
            <Position>
              <LatitudeDegrees>28.271412067115306854248046875</LatitudeDegrees>
              <LongitudeDegrees>-16.641587801277637481689453125</LongitudeDegrees>
            </Position>
            <AltitudeMeters>3585.39990234375</AltitudeMeters>
            <DistanceMeters>10307.961490541</DistanceMeters>
          </Trackpoint>
          <Trackpoint>
            <Time>2019-04-08T06:14:49.000Z</Time>
            <Position>
              <LatitudeDegrees>28.2714182697236537933349609375</LatitudeDegrees>
              <LongitudeDegrees>-16.64158704690635204315185546875</LongitudeDegrees>
            </Position>
            <AltitudeMeters>3586.39990234375</AltitudeMeters>
            <DistanceMeters>10308.659791427</DistanceMeters>
          </Trackpoint>
          <Trackpoint>
            <Time>2019-04-08T06:14:59.000Z</Time>
            <Position>
              <LatitudeDegrees>28.27143880538642406463623046875</LatitudeDegrees>
              <LongitudeDegrees>-16.64160263724625110626220703125</LongitudeDegrees>
            </Position>
            <AltitudeMeters>3587.60009765625</AltitudeMeters>
            <DistanceMeters>10311.407361974</DistanceMeters>
          </Trackpoint>
          <Trackpoint>
            <Time>2019-04-08T06:15:00.000Z</Time>
            <Position>
              <LatitudeDegrees>28.271438889205455780029296875</LatitudeDegrees>
              <LongitudeDegrees>-16.64160548709332942962646484375</LongitudeDegrees>
            </Position>
            <AltitudeMeters>3587.800048828125</AltitudeMeters>
            <DistanceMeters>10311.70786283</DistanceMeters>
          </Trackpoint>
          <Trackpoint>
            <Time>2019-04-08T06:15:05.000Z</Time>
            <Position>
              <LatitudeDegrees>28.2714387215673923492431640625</LatitudeDegrees>
              <LongitudeDegrees>-16.6416255198419094085693359375</LongitudeDegrees>
            </Position>
            <AltitudeMeters>3588.60009765625</AltitudeMeters>
            <DistanceMeters>10313.671492795</DistanceMeters>
          </Trackpoint>
          <Trackpoint>
            <Time>2019-04-08T06:15:11.000Z</Time>
            <Position>
              <LatitudeDegrees>28.271440565586090087890625</LatitudeDegrees>
              <LongitudeDegrees>-16.64163172245025634765625</LongitudeDegrees>
            </Position>
            <AltitudeMeters>3589</AltitudeMeters>
            <DistanceMeters>10314.315995329</DistanceMeters>
          </Trackpoint>
          <Trackpoint>
            <Time>2019-04-08T06:15:16.000Z</Time>
            <Position>
              <LatitudeDegrees>28.27144148759543895721435546875</LatitudeDegrees>
              <LongitudeDegrees>-16.6416453011333942413330078125</LongitudeDegrees>
            </Position>
            <AltitudeMeters>3589.60009765625</AltitudeMeters>
            <DistanceMeters>10315.649758824</DistanceMeters>
          </Trackpoint>
          <Trackpoint>
            <Time>2019-04-08T06:15:20.000Z</Time>
            <Position>
              <LatitudeDegrees>28.271448276937007904052734375</LatitudeDegrees>
              <LongitudeDegrees>-16.64166298694908618927001953125</LongitudeDegrees>
            </Position>
            <AltitudeMeters>3590</AltitudeMeters>
            <DistanceMeters>10317.540766564</DistanceMeters>
          </Trackpoint>
          <Trackpoint>
            <Time>2019-04-08T06:15:26.000Z</Time>
            <Position>
              <LatitudeDegrees>28.27145473100244998931884765625</LatitudeDegrees>
              <LongitudeDegrees>-16.64168980903923511505126953125</LongitudeDegrees>
            </Position>
            <AltitudeMeters>3590.800048828125</AltitudeMeters>
            <DistanceMeters>10320.265234005</DistanceMeters>
          </Trackpoint>
          <Trackpoint>
            <Time>2019-04-08T06:15:29.000Z</Time>
            <Position>
              <LatitudeDegrees>28.27146780677139759063720703125</LatitudeDegrees>
              <LongitudeDegrees>-16.64168612100183963775634765625</LongitudeDegrees>
            </Position>
            <AltitudeMeters>3591.39990234375</AltitudeMeters>
            <DistanceMeters>10321.761716199</DistanceMeters>
          </Trackpoint>
          <Trackpoint>
            <Time>2019-04-08T06:15:38.000Z</Time>
            <Position>
              <LatitudeDegrees>28.27148809097707271575927734375</LatitudeDegrees>
              <LongitudeDegrees>-16.64167673327028751373291015625</LongitudeDegrees>
            </Position>
            <AltitudeMeters>3591.60009765625</AltitudeMeters>
            <DistanceMeters>10324.199294977</DistanceMeters>
          </Trackpoint>
          <Trackpoint>
            <Time>2019-04-08T06:15:43.000Z</Time>
            <Position>
              <LatitudeDegrees>28.2714982330799102783203125</LatitudeDegrees>
              <LongitudeDegrees>-16.6416630707681179046630859375</LongitudeDegrees>
            </Position>
            <AltitudeMeters>3592</AltitudeMeters>
            <DistanceMeters>10325.951501013</DistanceMeters>
          </Trackpoint>
          <Trackpoint>
            <Time>2019-04-08T06:15:47.000Z</Time>
            <Position>
              <LatitudeDegrees>28.2715114764869213104248046875</LatitudeDegrees>
              <LongitudeDegrees>-16.64165812544524669647216796875</LongitudeDegrees>
            </Position>
            <AltitudeMeters>3593</AltitudeMeters>
            <DistanceMeters>10327.501339822</DistanceMeters>
          </Trackpoint>
          <Trackpoint>
            <Time>2019-04-08T06:15:48.000Z</Time>
            <Position>
              <LatitudeDegrees>28.2715124823153018951416015625</LatitudeDegrees>
              <LongitudeDegrees>-16.64166047237813472747802734375</LongitudeDegrees>
            </Position>
            <AltitudeMeters>3593</AltitudeMeters>
            <DistanceMeters>10327.752756876</DistanceMeters>
          </Trackpoint>
          <Trackpoint>
            <Time>2019-04-08T06:15:52.000Z</Time>
            <Position>
              <LatitudeDegrees>28.2715124823153018951416015625</LatitudeDegrees>
              <LongitudeDegrees>-16.641678325831890106201171875</LongitudeDegrees>
            </Position>
            <AltitudeMeters>3594.199951171875</AltitudeMeters>
            <DistanceMeters>10329.502384241</DistanceMeters>
          </Trackpoint>
          <Trackpoint>
            <Time>2019-04-08T06:15:59.000Z</Time>
            <Position>
              <LatitudeDegrees>28.2715087942779064178466796875</LatitudeDegrees>
              <LongitudeDegrees>-16.64169542491436004638671875</LongitudeDegrees>
            </Position>
            <AltitudeMeters>3595</AltitudeMeters>
            <DistanceMeters>10331.226012724</DistanceMeters>
          </Trackpoint>
          <Trackpoint>
            <Time>2019-04-08T06:16:05.000Z</Time>
            <Position>
              <LatitudeDegrees>28.27150753699243068695068359375</LatitudeDegrees>
              <LongitudeDegrees>-16.641701124608516693115234375</LongitudeDegrees>
            </Position>
            <AltitudeMeters>3595.39990234375</AltitudeMeters>
            <DistanceMeters>10331.796173011</DistanceMeters>
          </Trackpoint>
          <Trackpoint>
            <Time>2019-04-08T06:16:10.000Z</Time>
            <Position>
              <LatitudeDegrees>28.2715062797069549560546875</LatitudeDegrees>
              <LongitudeDegrees>-16.6417012922465801239013671875</LongitudeDegrees>
            </Position>
            <AltitudeMeters>3595.800048828125</AltitudeMeters>
            <DistanceMeters>10331.930561079</DistanceMeters>
          </Trackpoint>
          <Trackpoint>
            <Time>2019-04-08T06:16:27.000Z</Time>
            <Position>
              <LatitudeDegrees>28.27151097357273101806640625</LatitudeDegrees>
              <LongitudeDegrees>-16.6417183913290500640869140625</LongitudeDegrees>
            </Position>
            <AltitudeMeters>3596.39990234375</AltitudeMeters>
            <DistanceMeters>10333.685341996</DistanceMeters>
          </Trackpoint>
          <Trackpoint>
            <Time>2019-04-08T06:16:33.000Z</Time>
            <Position>
              <LatitudeDegrees>28.27151860110461711883544921875</LatitudeDegrees>
              <LongitudeDegrees>-16.64172534830868244171142578125</LongitudeDegrees>
            </Position>
            <AltitudeMeters>3597.60009765625</AltitudeMeters>
            <DistanceMeters>10334.772972454</DistanceMeters>
          </Trackpoint>
          <Trackpoint>
            <Time>2019-04-08T06:16:42.000Z</Time>
            <Position>
              <LatitudeDegrees>28.2715411484241485595703125</LatitudeDegrees>
              <LongitudeDegrees>-16.6417147032916545867919921875</LongitudeDegrees>
            </Position>
            <AltitudeMeters>3598.60009765625</AltitudeMeters>
            <DistanceMeters>10337.490802937</DistanceMeters>
          </Trackpoint>
          <Trackpoint>
            <Time>2019-04-08T06:16:43.000Z</Time>
            <Position>
              <LatitudeDegrees>28.2715429924428462982177734375</LatitudeDegrees>
              <LongitudeDegrees>-16.641714535653591156005859375</LongitudeDegrees>
            </Position>
            <AltitudeMeters>3598.800048828125</AltitudeMeters>
            <DistanceMeters>10337.70328913</DistanceMeters>
          </Trackpoint>
          <Trackpoint>
            <Time>2019-04-08T06:16:48.000Z</Time>
            <Position>
              <LatitudeDegrees>28.27154408209025859832763671875</LatitudeDegrees>
              <LongitudeDegrees>-16.64170891977846622467041015625</LongitudeDegrees>
            </Position>
            <AltitudeMeters>3599.800048828125</AltitudeMeters>
            <DistanceMeters>10338.265474754</DistanceMeters>
          </Trackpoint>
          <Trackpoint>
            <Time>2019-04-08T06:16:55.000Z</Time>
            <Position>
              <LatitudeDegrees>28.2715614326298236846923828125</LatitudeDegrees>
              <LongitudeDegrees>-16.64167338050901889801025390625</LongitudeDegrees>
            </Position>
            <AltitudeMeters>3599.800048828125</AltitudeMeters>
            <DistanceMeters>10342.248669993</DistanceMeters>
          </Trackpoint>
          <Trackpoint>
            <Time>2019-04-08T06:17:04.000Z</Time>
            <Position>
              <LatitudeDegrees>28.271585740149021148681640625</LatitudeDegrees>
              <LongitudeDegrees>-16.6416617296636104583740234375</LongitudeDegrees>
            </Position>
            <AltitudeMeters>3600.60009765625</AltitudeMeters>
            <DistanceMeters>10345.183749707</DistanceMeters>
          </Trackpoint>
          <Trackpoint>
            <Time>2019-04-08T06:17:06.000Z</Time>
            <Position>
              <LatitudeDegrees>28.27159219421446323394775390625</LatitudeDegrees>
              <LongitudeDegrees>-16.641668267548084259033203125</LongitudeDegrees>
            </Position>
            <AltitudeMeters>3601.199951171875</AltitudeMeters>
            <DistanceMeters>10346.148165527</DistanceMeters>
          </Trackpoint>
          <Trackpoint>
            <Time>2019-04-08T06:17:09.000Z</Time>
            <Position>
              <LatitudeDegrees>28.2716003246605396270751953125</LatitudeDegrees>
              <LongitudeDegrees>-16.6416744701564311981201171875</LongitudeDegrees>
            </Position>
            <AltitudeMeters>3601.800048828125</AltitudeMeters>
            <DistanceMeters>10347.239939354</DistanceMeters>
          </Trackpoint>
          <Trackpoint>
            <Time>2019-04-08T06:17:16.000Z</Time>
            <Position>
              <LatitudeDegrees>28.2716113887727260589599609375</LatitudeDegrees>
              <LongitudeDegrees>-16.64168830029666423797607421875</LongitudeDegrees>
            </Position>
            <AltitudeMeters>3602.800048828125</AltitudeMeters>
            <DistanceMeters>10349.070283136</DistanceMeters>
          </Trackpoint>
          <Trackpoint>
            <Time>2019-04-08T06:17:18.000Z</Time>
            <Position>
              <LatitudeDegrees>28.2716127298772335052490234375</LatitudeDegrees>
              <LongitudeDegrees>-16.64168645627796649932861328125</LongitudeDegrees>
            </Position>
            <AltitudeMeters>3603.60009765625</AltitudeMeters>
            <DistanceMeters>10349.303050098</DistanceMeters>
          </Trackpoint>
          <Trackpoint>
            <Time>2019-04-08T06:17:19.000Z</Time>
            <Position>
              <LatitudeDegrees>28.27161331661045551300048828125</LatitudeDegrees>
              <LongitudeDegrees>-16.641685701906681060791015625</LongitudeDegrees>
            </Position>
            <AltitudeMeters>3604</AltitudeMeters>
            <DistanceMeters>10349.398076813</DistanceMeters>
          </Trackpoint>
          <Trackpoint>
            <Time>2019-04-08T06:17:27.000Z</Time>
            <Position>
              <LatitudeDegrees>28.27162018977105617523193359375</LatitudeDegrees>
              <LongitudeDegrees>-16.64169752039015293121337890625</LongitudeDegrees>
            </Position>
            <AltitudeMeters>3603.800048828125</AltitudeMeters>
            <DistanceMeters>10350.7881978</DistanceMeters>
          </Trackpoint>
          <Trackpoint>
            <Time>2019-04-08T06:17:36.000Z</Time>
            <Position>
              <LatitudeDegrees>28.27162773348391056060791015625</LatitudeDegrees>
              <LongitudeDegrees>-16.64170104078948497772216796875</LongitudeDegrees>
            </Position>
            <AltitudeMeters>3605.199951171875</AltitudeMeters>
            <DistanceMeters>10351.69469488</DistanceMeters>
          </Trackpoint>
          <Trackpoint>
            <Time>2019-04-08T06:17:38.000Z</Time>
            <Position>
              <LatitudeDegrees>28.27162940986454486846923828125</LatitudeDegrees>
              <LongitudeDegrees>-16.641703806817531585693359375</LongitudeDegrees>
            </Position>
            <AltitudeMeters>3605.39990234375</AltitudeMeters>
            <DistanceMeters>10352.023877075</DistanceMeters>
          </Trackpoint>
          <Trackpoint>
            <Time>2019-04-08T06:17:49.000Z</Time>
            <Position>
              <LatitudeDegrees>28.2716430723667144775390625</LatitudeDegrees>
              <LongitudeDegrees>-16.6417197324335575103759765625</LongitudeDegrees>
            </Position>
            <AltitudeMeters>3605.800048828125</AltitudeMeters>
            <DistanceMeters>10354.205355997</DistanceMeters>
          </Trackpoint>
          <Trackpoint>
            <Time>2019-04-08T06:17:55.000Z</Time>
            <Position>
              <LatitudeDegrees>28.2716539688408374786376953125</LatitudeDegrees>
              <LongitudeDegrees>-16.6417462192475795745849609375</LongitudeDegrees>
            </Position>
            <AltitudeMeters>3606</AltitudeMeters>
            <DistanceMeters>10357.070375977</DistanceMeters>
          </Trackpoint>
          <Trackpoint>
            <Time>2019-04-08T06:17:58.000Z</Time>
            <Position>
              <LatitudeDegrees>28.2716563157737255096435546875</LatitudeDegrees>
              <LongitudeDegrees>-16.641757786273956298828125</LongitudeDegrees>
            </Position>
            <AltitudeMeters>3606.60009765625</AltitudeMeters>
            <DistanceMeters>10358.234210788</DistanceMeters>
          </Trackpoint>
          <Trackpoint>
            <Time>2019-04-08T06:18:01.000Z</Time>
            <Position>
              <LatitudeDegrees>28.2716613449156284332275390625</LatitudeDegrees>
              <LongitudeDegrees>-16.64176859892904758453369140625</LongitudeDegrees>
            </Position>
            <AltitudeMeters>3607.199951171875</AltitudeMeters>
            <DistanceMeters>10359.432452063</DistanceMeters>
          </Trackpoint>
          <Trackpoint>
            <Time>2019-04-08T06:18:05.000Z</Time>
            <Position>
              <LatitudeDegrees>28.27166788280010223388671875</LatitudeDegrees>
              <LongitudeDegrees>-16.6417805850505828857421875</LongitudeDegrees>
            </Position>
            <AltitudeMeters>3607.800048828125</AltitudeMeters>
            <DistanceMeters>10360.812794821</DistanceMeters>
          </Trackpoint>
          <Trackpoint>
            <Time>2019-04-08T06:18:12.000Z</Time>
            <Position>
              <LatitudeDegrees>28.2716754265129566192626953125</LatitudeDegrees>
              <LongitudeDegrees>-16.6418045572936534881591796875</LongitudeDegrees>
            </Position>
            <AltitudeMeters>3608.199951171875</AltitudeMeters>
            <DistanceMeters>10363.307132944</DistanceMeters>
          </Trackpoint>
          <Trackpoint>
            <Time>2019-04-08T06:18:14.000Z</Time>
            <Position>
              <LatitudeDegrees>28.27167995274066925048828125</LatitudeDegrees>
              <LongitudeDegrees>-16.641813106834888458251953125</LongitudeDegrees>
            </Position>
            <AltitudeMeters>3608.60009765625</AltitudeMeters>
            <DistanceMeters>10364.285492849</DistanceMeters>
          </Trackpoint>
          <Trackpoint>
            <Time>2019-04-08T06:18:18.000Z</Time>
            <Position>
              <LatitudeDegrees>28.27168808318674564361572265625</LatitudeDegrees>
              <LongitudeDegrees>-16.64183397777378559112548828125</LongitudeDegrees>
            </Position>
            <AltitudeMeters>3609.39990234375</AltitudeMeters>
            <DistanceMeters>10366.524173805</DistanceMeters>
          </Trackpoint>
          <Trackpoint>
            <Time>2019-04-08T06:18:23.000Z</Time>
            <Position>
              <LatitudeDegrees>28.27168975956737995147705078125</LatitudeDegrees>
              <LongitudeDegrees>-16.6418501548469066619873046875</LongitudeDegrees>
            </Position>
            <AltitudeMeters>3609.800048828125</AltitudeMeters>
            <DistanceMeters>10368.1199437</DistanceMeters>
          </Trackpoint>
          <Trackpoint>
            <Time>2019-04-08T06:18:30.000Z</Time>
            <Position>
              <LatitudeDegrees>28.2716958783566951751708984375</LatitudeDegrees>
              <LongitudeDegrees>-16.64186633192002773284912109375</LongitudeDegrees>
            </Position>
            <AltitudeMeters>3610.60009765625</AltitudeMeters>
            <DistanceMeters>10369.846189693</DistanceMeters>
          </Trackpoint>
          <Trackpoint>
            <Time>2019-04-08T06:18:32.000Z</Time>
            <Position>
              <LatitudeDegrees>28.27169872820377349853515625</LatitudeDegrees>
              <LongitudeDegrees>-16.64187119342386722564697265625</LongitudeDegrees>
            </Position>
            <AltitudeMeters>3611.39990234375</AltitudeMeters>
            <DistanceMeters>10370.416349979</DistanceMeters>
          </Trackpoint>
          <Trackpoint>
            <Time>2019-04-08T06:18:38.000Z</Time>
            <Position>
              <LatitudeDegrees>28.2717029191553592681884765625</LatitudeDegrees>
              <LongitudeDegrees>-16.64189214818179607391357421875</LongitudeDegrees>
            </Position>
            <AltitudeMeters>3611.800048828125</AltitudeMeters>
            <DistanceMeters>10372.524144468</DistanceMeters>
          </Trackpoint>
          <Trackpoint>
            <Time>2019-04-08T06:18:43.000Z</Time>
            <Position>
              <LatitudeDegrees>28.271715156733989715576171875</LatitudeDegrees>
              <LongitudeDegrees>-16.6419093310832977294921875</LongitudeDegrees>
            </Position>
            <AltitudeMeters>3613</AltitudeMeters>
            <DistanceMeters>10374.689002356</DistanceMeters>
          </Trackpoint>
          <Trackpoint>
            <Time>2019-04-08T06:18:52.000Z</Time>
            <Position>
              <LatitudeDegrees>28.27172244898974895477294921875</LatitudeDegrees>
              <LongitudeDegrees>-16.64191226474940776824951171875</LongitudeDegrees>
            </Position>
            <AltitudeMeters>3613.60009765625</AltitudeMeters>
            <DistanceMeters>10375.549505853</DistanceMeters>
          </Trackpoint>
          <Trackpoint>
            <Time>2019-04-08T06:18:58.000Z</Time>
            <Position>
              <LatitudeDegrees>28.27173586003482341766357421875</LatitudeDegrees>
              <LongitudeDegrees>-16.64188359864056110382080078125</LongitudeDegrees>
            </Position>
            <AltitudeMeters>3614</AltitudeMeters>
            <DistanceMeters>10378.731127404</DistanceMeters>
          </Trackpoint>
          <Trackpoint>
            <Time>2019-04-08T06:19:02.000Z</Time>
            <Position>
              <LatitudeDegrees>28.27174541540443897247314453125</LatitudeDegrees>
              <LongitudeDegrees>-16.6418665833771228790283203125</LongitudeDegrees>
            </Position>
            <AltitudeMeters>3615</AltitudeMeters>
            <DistanceMeters>10380.710787268</DistanceMeters>
          </Trackpoint>
          <Trackpoint>
            <Time>2019-04-08T06:19:03.000Z</Time>
            <Position>
              <LatitudeDegrees>28.27174725942313671112060546875</LatitudeDegrees>
              <LongitudeDegrees>-16.64186130277812480926513671875</LongitudeDegrees>
            </Position>
            <AltitudeMeters>3615.199951171875</AltitudeMeters>
            <DistanceMeters>10381.264883468</DistanceMeters>
          </Trackpoint>
          <Trackpoint>
            <Time>2019-04-08T06:19:09.000Z</Time>
            <Position>
              <LatitudeDegrees>28.271758072078227996826171875</LatitudeDegrees>
              <LongitudeDegrees>-16.64182660169899463653564453125</LongitudeDegrees>
            </Position>
            <AltitudeMeters>3616.199951171875</AltitudeMeters>
            <DistanceMeters>10384.873397045</DistanceMeters>
          </Trackpoint>
          <Trackpoint>
            <Time>2019-04-08T06:19:16.000Z</Time>
            <Position>
              <LatitudeDegrees>28.27176804654300212860107421875</LatitudeDegrees>
              <LongitudeDegrees>-16.64183028973639011383056640625</LongitudeDegrees>
            </Position>
            <AltitudeMeters>3616.800048828125</AltitudeMeters>
            <DistanceMeters>10386.041104861</DistanceMeters>
          </Trackpoint>
          <Trackpoint>
            <Time>2019-04-08T06:19:29.000Z</Time>
            <Position>
              <LatitudeDegrees>28.2717770151793956756591796875</LatitudeDegrees>
              <LongitudeDegrees>-16.6418404318392276763916015625</LongitudeDegrees>
            </Position>
            <AltitudeMeters>3617</AltitudeMeters>
            <DistanceMeters>10387.447371813</DistanceMeters>
          </Trackpoint>
          <Trackpoint>
            <Time>2019-04-08T06:19:37.000Z</Time>
            <Position>
              <LatitudeDegrees>28.27178455889225006103515625</LatitudeDegrees>
              <LongitudeDegrees>-16.64185141213238239288330078125</LongitudeDegrees>
            </Position>
            <AltitudeMeters>3616.800048828125</AltitudeMeters>
            <DistanceMeters>10388.811261745</DistanceMeters>
          </Trackpoint>
          <Trackpoint>
            <Time>2019-04-08T06:19:41.000Z</Time>
            <Position>
              <LatitudeDegrees>28.27178430743515491485595703125</LatitudeDegrees>
              <LongitudeDegrees>-16.6418528370559215545654296875</LongitudeDegrees>
            </Position>
            <AltitudeMeters>3617.199951171875</AltitudeMeters>
            <DistanceMeters>10388.975852843</DistanceMeters>
          </Trackpoint>
          <Trackpoint>
            <Time>2019-04-08T06:19:51.000Z</Time>
            <Position>
              <LatitudeDegrees>28.2717860676348209381103515625</LatitudeDegrees>
              <LongitudeDegrees>-16.6418548487126827239990234375</LongitudeDegrees>
            </Position>
            <AltitudeMeters>3617.199951171875</AltitudeMeters>
            <DistanceMeters>10389.260932986</DistanceMeters>
          </Trackpoint>
          <Trackpoint>
            <Time>2019-04-08T06:19:59.000Z</Time>
            <Position>
              <LatitudeDegrees>28.271792270243167877197265625</LatitudeDegrees>
              <LongitudeDegrees>-16.64187555201351642608642578125</LongitudeDegrees>
            </Position>
            <AltitudeMeters>3618.39990234375</AltitudeMeters>
            <DistanceMeters>10391.402726354</DistanceMeters>
          </Trackpoint>
          <Trackpoint>
            <Time>2019-04-08T06:20:07.000Z</Time>
            <Position>
              <LatitudeDegrees>28.27180593274533748626708984375</LatitudeDegrees>
              <LongitudeDegrees>-16.64190270937979221343994140625</LongitudeDegrees>
            </Position>
            <AltitudeMeters>3619.39990234375</AltitudeMeters>
            <DistanceMeters>10394.468718784</DistanceMeters>
          </Trackpoint>
          <Trackpoint>
            <Time>2019-04-08T06:20:17.000Z</Time>
            <Position>
              <LatitudeDegrees>28.271815069019794464111328125</LatitudeDegrees>
              <LongitudeDegrees>-16.64194093085825443267822265625</LongitudeDegrees>
            </Position>
            <AltitudeMeters>3620.39990234375</AltitudeMeters>
            <DistanceMeters>10398.348556078</DistanceMeters>
          </Trackpoint>
          <Trackpoint>
            <Time>2019-04-08T06:20:18.000Z</Time>
            <Position>
              <LatitudeDegrees>28.27181498520076274871826171875</LatitudeDegrees>
              <LongitudeDegrees>-16.64194487035274505615234375</LongitudeDegrees>
            </Position>
            <AltitudeMeters>3620.800048828125</AltitudeMeters>
            <DistanceMeters>10398.716592961</DistanceMeters>
          </Trackpoint>
          <Trackpoint>
            <Time>2019-04-08T06:20:22.000Z</Time>
            <Position>
              <LatitudeDegrees>28.271813057363033294677734375</LatitudeDegrees>
              <LongitudeDegrees>-16.64195769466459751129150390625</LongitudeDegrees>
            </Position>
            <AltitudeMeters>3621.800048828125</AltitudeMeters>
            <DistanceMeters>10399.991510119</DistanceMeters>
          </Trackpoint>
          <Trackpoint>
            <Time>2019-04-08T06:20:32.000Z</Time>
            <Position>
              <LatitudeDegrees>28.27182118780910968780517578125</LatitudeDegrees>
              <LongitudeDegrees>-16.64197177626192569732666015625</LongitudeDegrees>
            </Position>
            <AltitudeMeters>3622.800048828125</AltitudeMeters>
            <DistanceMeters>10401.642898349</DistanceMeters>
          </Trackpoint>
          <Trackpoint>
            <Time>2019-04-08T06:20:37.000Z</Time>
            <Position>
              <LatitudeDegrees>28.2718320004642009735107421875</LatitudeDegrees>
              <LongitudeDegrees>-16.64197093807160854339599609375</LongitudeDegrees>
            </Position>
            <AltitudeMeters>3623.60009765625</AltitudeMeters>
            <DistanceMeters>10402.848652182</DistanceMeters>
          </Trackpoint>
          <Trackpoint>
            <Time>2019-04-08T06:20:40.000Z</Time>
            <Position>
              <LatitudeDegrees>28.27184021472930908203125</LatitudeDegrees>
              <LongitudeDegrees>-16.6419732011854648590087890625</LongitudeDegrees>
            </Position>
            <AltitudeMeters>3624</AltitudeMeters>
            <DistanceMeters>10403.78936866</DistanceMeters>
          </Trackpoint>
          <Trackpoint>
            <Time>2019-04-08T06:20:48.000Z</Time>
            <Position>
              <LatitudeDegrees>28.2718551345169544219970703125</LatitudeDegrees>
              <LongitudeDegrees>-16.6419651545584201812744140625</LongitudeDegrees>
            </Position>
            <AltitudeMeters>3624.199951171875</AltitudeMeters>
            <DistanceMeters>10405.629553071</DistanceMeters>
          </Trackpoint>
          <Trackpoint>
            <Time>2019-04-08T06:20:55.000Z</Time>
            <Position>
              <LatitudeDegrees>28.2718755863606929779052734375</LatitudeDegrees>
              <LongitudeDegrees>-16.64196155034005641937255859375</LongitudeDegrees>
            </Position>
            <AltitudeMeters>3624.800048828125</AltitudeMeters>
            <DistanceMeters>10407.933828434</DistanceMeters>
          </Trackpoint>
          <Trackpoint>
            <Time>2019-04-08T06:20:57.000Z</Time>
            <Position>
              <LatitudeDegrees>28.27188237570226192474365234375</LatitudeDegrees>
              <LongitudeDegrees>-16.64197077043354511260986328125</LongitudeDegrees>
            </Position>
            <AltitudeMeters>3625.199951171875</AltitudeMeters>
            <DistanceMeters>10409.116901487</DistanceMeters>
          </Trackpoint>
          <Trackpoint>
            <Time>2019-04-08T06:21:02.000Z</Time>
            <Position>
              <LatitudeDegrees>28.27187198214232921600341796875</LatitudeDegrees>
              <LongitudeDegrees>-16.64199725724756717681884765625</LongitudeDegrees>
            </Position>
            <AltitudeMeters>3626</AltitudeMeters>
            <DistanceMeters>10411.958184356</DistanceMeters>
          </Trackpoint>
          <Trackpoint>
            <Time>2019-04-08T06:21:06.000Z</Time>
            <Position>
              <LatitudeDegrees>28.2718682102859020233154296875</LatitudeDegrees>
              <LongitudeDegrees>-16.6420219838619232177734375</LongitudeDegrees>
            </Position>
            <AltitudeMeters>3626.199951171875</AltitudeMeters>
            <DistanceMeters>10414.419724787</DistanceMeters>
          </Trackpoint>
          <Trackpoint>
            <Time>2019-04-08T06:21:11.000Z</Time>
            <Position>
              <LatitudeDegrees>28.27186929993331432342529296875</LatitudeDegrees>
              <LongitudeDegrees>-16.64203346706926822662353515625</LongitudeDegrees>
            </Position>
            <AltitudeMeters>3626.39990234375</AltitudeMeters>
            <DistanceMeters>10415.552098778</DistanceMeters>
          </Trackpoint>
          <Trackpoint>
            <Time>2019-04-08T06:21:14.000Z</Time>
            <Position>
              <LatitudeDegrees>28.2718725688755512237548828125</LatitudeDegrees>
              <LongitudeDegrees>-16.642041094601154327392578125</LongitudeDegrees>
            </Position>
            <AltitudeMeters>3628</AltitudeMeters>
            <DistanceMeters>10416.380522468</DistanceMeters>
          </Trackpoint>
          <Trackpoint>
            <Time>2019-04-08T06:21:19.000Z</Time>
            <Position>
              <LatitudeDegrees>28.2718755863606929779052734375</LatitudeDegrees>
              <LongitudeDegrees>-16.64205224253237247467041015625</LongitudeDegrees>
            </Position>
            <AltitudeMeters>3629</AltitudeMeters>
            <DistanceMeters>10417.524795636</DistanceMeters>
          </Trackpoint>
          <Trackpoint>
            <Time>2019-04-08T06:21:20.000Z</Time>
            <Position>
              <LatitudeDegrees>28.2718752510845661163330078125</LatitudeDegrees>
              <LongitudeDegrees>-16.64205215871334075927734375</LongitudeDegrees>
            </Position>
            <AltitudeMeters>3629</AltitudeMeters>
            <DistanceMeters>10417.619822351</DistanceMeters>
          </Trackpoint>
          <Trackpoint>
            <Time>2019-04-08T06:21:32.000Z</Time>
            <Position>
              <LatitudeDegrees>28.271880447864532470703125</LatitudeDegrees>
              <LongitudeDegrees>-16.6420613788068294525146484375</LongitudeDegrees>
            </Position>
            <AltitudeMeters>3629.800048828125</AltitudeMeters>
            <DistanceMeters>10418.694926897</DistanceMeters>
          </Trackpoint>
          <Trackpoint>
            <Time>2019-04-08T06:21:38.000Z</Time>
            <Position>
              <LatitudeDegrees>28.27189897187054157257080078125</LatitudeDegrees>
              <LongitudeDegrees>-16.64206950925290584564208984375</LongitudeDegrees>
            </Position>
            <AltitudeMeters>3630</AltitudeMeters>
            <DistanceMeters>10420.907233709</DistanceMeters>
          </Trackpoint>
          <Trackpoint>
            <Time>2019-04-08T06:21:41.000Z</Time>
            <Position>
              <LatitudeDegrees>28.2719030790030956268310546875</LatitudeDegrees>
              <LongitudeDegrees>-16.64206816814839839935302734375</LongitudeDegrees>
            </Position>
            <AltitudeMeters>3630.60009765625</AltitudeMeters>
            <DistanceMeters>10421.382367281</DistanceMeters>
          </Trackpoint>
          <Trackpoint>
            <Time>2019-04-08T06:21:47.000Z</Time>
            <Position>
              <LatitudeDegrees>28.27192311175167560577392578125</LatitudeDegrees>
              <LongitudeDegrees>-16.64205961860716342926025390625</LongitudeDegrees>
            </Position>
            <AltitudeMeters>3631.199951171875</AltitudeMeters>
            <DistanceMeters>10423.763729918</DistanceMeters>
          </Trackpoint>
          <Trackpoint>
            <Time>2019-04-08T06:21:49.000Z</Time>
            <Position>
              <LatitudeDegrees>28.27192403376102447509765625</LatitudeDegrees>
              <LongitudeDegrees>-16.64205978624522686004638671875</LongitudeDegrees>
            </Position>
            <AltitudeMeters>3631.39990234375</AltitudeMeters>
            <DistanceMeters>10423.763729918</DistanceMeters>
          </Trackpoint>
          <Trackpoint>
            <Time>2019-04-08T06:21:58.000Z</Time>
            <Position>
              <LatitudeDegrees>28.27193803153932094573974609375</LatitudeDegrees>
              <LongitudeDegrees>-16.64205760695040225982666015625</LongitudeDegrees>
            </Position>
            <AltitudeMeters>3632.199951171875</AltitudeMeters>
            <DistanceMeters>10425.336701928</DistanceMeters>
          </Trackpoint>
          <Trackpoint>
            <Time>2019-04-08T06:21:59.000Z</Time>
            <Position>
              <LatitudeDegrees>28.2719413004815578460693359375</LatitudeDegrees>
              <LongitudeDegrees>-16.6420603729784488677978515625</LongitudeDegrees>
            </Position>
            <AltitudeMeters>3632.199951171875</AltitudeMeters>
            <DistanceMeters>10425.79243404</DistanceMeters>
          </Trackpoint>
          <Trackpoint>
            <Time>2019-04-08T06:22:07.000Z</Time>
            <Position>
              <LatitudeDegrees>28.27196292579174041748046875</LatitudeDegrees>
              <LongitudeDegrees>-16.64206883870065212249755859375</LongitudeDegrees>
            </Position>
            <AltitudeMeters>3633.199951171875</AltitudeMeters>
            <DistanceMeters>10428.338724457</DistanceMeters>
          </Trackpoint>
          <Trackpoint>
            <Time>2019-04-08T06:22:08.000Z</Time>
            <Position>
              <LatitudeDegrees>28.27196720056235790252685546875</LatitudeDegrees>
              <LongitudeDegrees>-16.64206682704389095306396484375</LongitudeDegrees>
            </Position>
            <AltitudeMeters>3633.39990234375</AltitudeMeters>
            <DistanceMeters>10428.859207207</DistanceMeters>
          </Trackpoint>
          <Trackpoint>
            <Time>2019-04-08T06:22:13.000Z</Time>
            <Position>
              <LatitudeDegrees>28.27198195271193981170654296875</LatitudeDegrees>
              <LongitudeDegrees>-16.6420648992061614990234375</LongitudeDegrees>
            </Position>
            <AltitudeMeters>3634.60009765625</AltitudeMeters>
            <DistanceMeters>10430.513327264</DistanceMeters>
          </Trackpoint>
          <Trackpoint>
            <Time>2019-04-08T06:22:17.000Z</Time>
            <Position>
              <LatitudeDegrees>28.27198631130158901214599609375</LatitudeDegrees>
              <LongitudeDegrees>-16.64206313900649547576904296875</LongitudeDegrees>
            </Position>
            <AltitudeMeters>3635</AltitudeMeters>
            <DistanceMeters>10431.033810015</DistanceMeters>
          </Trackpoint>
          <Trackpoint>
            <Time>2019-04-08T06:22:25.000Z</Time>
            <Position>
              <LatitudeDegrees>28.27200877480208873748779296875</LatitudeDegrees>
              <LongitudeDegrees>-16.6420503146946430206298828125</LongitudeDegrees>
            </Position>
            <AltitudeMeters>3635.39990234375</AltitudeMeters>
            <DistanceMeters>10433.83185867</DistanceMeters>
          </Trackpoint>
          <Trackpoint>
            <Time>2019-04-08T06:22:26.000Z</Time>
            <Position>
              <LatitudeDegrees>28.27201095409691333770751953125</LatitudeDegrees>
              <LongitudeDegrees>-16.6420523263514041900634765625</LongitudeDegrees>
            </Position>
            <AltitudeMeters>3635.60009765625</AltitudeMeters>
            <DistanceMeters>10434.161040865</DistanceMeters>
          </Trackpoint>
          <Trackpoint>
            <Time>2019-04-08T06:22:35.000Z</Time>
            <Position>
              <LatitudeDegrees>28.2720427215099334716796875</LatitudeDegrees>
              <LongitudeDegrees>-16.642041765153408050537109375</LongitudeDegrees>
            </Position>
            <AltitudeMeters>3636.199951171875</AltitudeMeters>
            <DistanceMeters>10437.846313578</DistanceMeters>
          </Trackpoint>
          <Trackpoint>
            <Time>2019-04-08T06:22:40.000Z</Time>
            <Position>
              <LatitudeDegrees>28.27206308953464031219482421875</LatitudeDegrees>
              <LongitudeDegrees>-16.6420362330973148345947265625</LongitudeDegrees>
            </Position>
            <AltitudeMeters>3636.60009765625</AltitudeMeters>
            <DistanceMeters>10440.179795118</DistanceMeters>
          </Trackpoint>
          <Trackpoint>
            <Time>2019-04-08T06:22:44.000Z</Time>
            <Position>
              <LatitudeDegrees>28.2720747403800487518310546875</LatitudeDegrees>
              <LongitudeDegrees>-16.64204453118145465850830078125</LongitudeDegrees>
            </Position>
            <AltitudeMeters>3636.800048828125</AltitudeMeters>
            <DistanceMeters>10441.709105354</DistanceMeters>
          </Trackpoint>
          <Trackpoint>
            <Time>2019-04-08T06:22:52.000Z</Time>
            <Position>
              <LatitudeDegrees>28.27206945978105068206787109375</LatitudeDegrees>
              <LongitudeDegrees>-16.64204017259180545806884765625</LongitudeDegrees>
            </Position>
            <AltitudeMeters>3635.800048828125</AltitudeMeters>
            <DistanceMeters>10442.432807249</DistanceMeters>
          </Trackpoint>
          <Trackpoint>
            <Time>2019-04-08T06:22:54.000Z</Time>
            <Position>
              <LatitudeDegrees>28.2720700465142726898193359375</LatitudeDegrees>
              <LongitudeDegrees>-16.64204000495374202728271484375</LongitudeDegrees>
            </Position>
            <AltitudeMeters>3635.39990234375</AltitudeMeters>
            <DistanceMeters>10442.527833964</DistanceMeters>
          </Trackpoint>
          <Trackpoint>
            <Time>2019-04-08T06:22:58.000Z</Time>
            <Position>
              <LatitudeDegrees>28.27207046560943126678466796875</LatitudeDegrees>
              <LongitudeDegrees>-16.64204101078212261199951171875</LongitudeDegrees>
            </Position>
            <AltitudeMeters>3636.39990234375</AltitudeMeters>
            <DistanceMeters>10442.662222032</DistanceMeters>
          </Trackpoint>
          <Trackpoint>
            <Time>2019-04-08T06:23:00.000Z</Time>
            <Position>
              <LatitudeDegrees>28.27207013033330440521240234375</LatitudeDegrees>
              <LongitudeDegrees>-16.64204142987728118896484375</LongitudeDegrees>
            </Position>
            <AltitudeMeters>3637.39990234375</AltitudeMeters>
            <DistanceMeters>10442.662222032</DistanceMeters>
          </Trackpoint>
          <Trackpoint>
            <Time>2019-04-08T06:23:04.000Z</Time>
            <Position>
              <LatitudeDegrees>28.2720683701336383819580078125</LatitudeDegrees>
              <LongitudeDegrees>-16.64204017259180545806884765625</LongitudeDegrees>
            </Position>
            <AltitudeMeters>3638.60009765625</AltitudeMeters>
            <DistanceMeters>10442.894988994</DistanceMeters>
          </Trackpoint>
          <Trackpoint>
            <Time>2019-04-08T06:23:10.000Z</Time>
            <Position>
              <LatitudeDegrees>28.27207088470458984375</LatitudeDegrees>
              <LongitudeDegrees>-16.64204008877277374267578125</LongitudeDegrees>
            </Position>
            <AltitudeMeters>3637.199951171875</AltitudeMeters>
            <DistanceMeters>10443.180069137</DistanceMeters>
          </Trackpoint>
          <Trackpoint>
            <Time>2019-04-08T06:23:19.000Z</Time>
            <Position>
              <LatitudeDegrees>28.2720680348575115203857421875</LatitudeDegrees>
              <LongitudeDegrees>-16.6420372389256954193115234375</LongitudeDegrees>
            </Position>
            <AltitudeMeters>3638.199951171875</AltitudeMeters>
            <DistanceMeters>10443.594280982</DistanceMeters>
          </Trackpoint>
          <Trackpoint>
            <Time>2019-04-08T06:23:22.000Z</Time>
            <Position>
              <LatitudeDegrees>28.27206342481076717376708984375</LatitudeDegrees>
              <LongitudeDegrees>-16.64203480817377567291259765625</LongitudeDegrees>
            </Position>
            <AltitudeMeters>3638.199951171875</AltitudeMeters>
            <DistanceMeters>10444.156466606</DistanceMeters>
          </Trackpoint>
          <Trackpoint>
            <Time>2019-04-08T06:23:35.000Z</Time>
            <Position>
              <LatitudeDegrees>28.27206082642078399658203125</LatitudeDegrees>
              <LongitudeDegrees>-16.64202994666993618011474609375</LongitudeDegrees>
            </Position>
            <AltitudeMeters>3638.60009765625</AltitudeMeters>
            <DistanceMeters>10444.710562806</DistanceMeters>
          </Trackpoint>
          <Trackpoint>
            <Time>2019-04-08T06:23:49.000Z</Time>
            <Position>
              <LatitudeDegrees>28.27206057496368885040283203125</LatitudeDegrees>
              <LongitudeDegrees>-16.642029024660587310791015625</LongitudeDegrees>
            </Position>
            <AltitudeMeters>3639.199951171875</AltitudeMeters>
            <DistanceMeters>10444.805589521</DistanceMeters>
          </Trackpoint>
          <Trackpoint>
            <Time>2019-04-08T06:24:05.000Z</Time>
            <Position>
              <LatitudeDegrees>28.27206082642078399658203125</LatitudeDegrees>
              <LongitudeDegrees>-16.6420295275747776031494140625</LongitudeDegrees>
            </Position>
            <AltitudeMeters>3638.39990234375</AltitudeMeters>
            <DistanceMeters>10444.805589521</DistanceMeters>
          </Trackpoint>
          <Trackpoint>
            <Time>2019-04-08T06:24:28.000Z</Time>
            <Position>
              <LatitudeDegrees>28.272061161696910858154296875</LatitudeDegrees>
              <LongitudeDegrees>-16.64202961139380931854248046875</LongitudeDegrees>
            </Position>
            <AltitudeMeters>3638.800048828125</AltitudeMeters>
            <DistanceMeters>10444.805589521</DistanceMeters>
          </Trackpoint>
          <Trackpoint>
            <Time>2019-04-08T06:24:39.000Z</Time>
            <Position>
              <LatitudeDegrees>28.27207935042679309844970703125</LatitudeDegrees>
              <LongitudeDegrees>-16.6420513205230236053466796875</LongitudeDegrees>
            </Position>
            <AltitudeMeters>3639.39990234375</AltitudeMeters>
            <DistanceMeters>10447.743744227</DistanceMeters>
          </Trackpoint>
          <Trackpoint>
            <Time>2019-04-08T06:24:44.000Z</Time>
            <Position>
              <LatitudeDegrees>28.27209225855767726898193359375</LatitudeDegrees>
              <LongitudeDegrees>-16.64205752313137054443359375</LongitudeDegrees>
            </Position>
            <AltitudeMeters>3638</AltitudeMeters>
            <DistanceMeters>10449.302298225</DistanceMeters>
          </Trackpoint>
          <Trackpoint>
            <Time>2019-04-08T06:24:48.000Z</Time>
            <Position>
              <LatitudeDegrees>28.27210349030792713165283203125</LatitudeDegrees>
              <LongitudeDegrees>-16.64205743931233882904052734375</LongitudeDegrees>
            </Position>
            <AltitudeMeters>3637.39990234375</AltitudeMeters>
            <DistanceMeters>10450.5485619</DistanceMeters>
          </Trackpoint>
          <Trackpoint>
            <Time>2019-04-08T06:24:52.000Z</Time>
            <Position>
              <LatitudeDegrees>28.2721143029630184173583984375</LatitudeDegrees>
              <LongitudeDegrees>-16.64205760695040225982666015625</LongitudeDegrees>
            </Position>
            <AltitudeMeters>3636.60009765625</AltitudeMeters>
            <DistanceMeters>10451.750565324</DistanceMeters>
          </Trackpoint>
          <Trackpoint>
            <Time>2019-04-08T06:24:58.000Z</Time>
            <Position>
              <LatitudeDegrees>28.27212880365550518035888671875</LatitudeDegrees>
              <LongitudeDegrees>-16.64203740656375885009765625</LongitudeDegrees>
            </Position>
            <AltitudeMeters>3636.199951171875</AltitudeMeters>
            <DistanceMeters>10454.305706273</DistanceMeters>
          </Trackpoint>
          <Trackpoint>
            <Time>2019-04-08T06:25:01.000Z</Time>
            <Position>
              <LatitudeDegrees>28.2721364311873912811279296875</LatitudeDegrees>
              <LongitudeDegrees>-16.6420365683734416961669921875</LongitudeDegrees>
            </Position>
            <AltitudeMeters>3637.60009765625</AltitudeMeters>
            <DistanceMeters>10455.16620977</DistanceMeters>
          </Trackpoint>
          <Trackpoint>
            <Time>2019-04-08T06:25:08.000Z</Time>
            <Position>
              <LatitudeDegrees>28.27217842452228069305419921875</LatitudeDegrees>
              <LongitudeDegrees>-16.64203061722218990325927734375</LongitudeDegrees>
            </Position>
            <AltitudeMeters>3638</AltitudeMeters>
            <DistanceMeters>10459.876506769</DistanceMeters>
          </Trackpoint>
          <Trackpoint>
            <Time>2019-04-08T06:25:14.000Z</Time>
            <Position>
              <LatitudeDegrees>28.2722117006778717041015625</LatitudeDegrees>
              <LongitudeDegrees>-16.642020642757415771484375</LongitudeDegrees>
            </Position>
            <AltitudeMeters>3638.800048828125</AltitudeMeters>
            <DistanceMeters>10463.705977248</DistanceMeters>
          </Trackpoint>
          <Trackpoint>
            <Time>2019-04-08T06:25:19.000Z</Time>
            <Position>
              <LatitudeDegrees>28.27223642729222774505615234375</LatitudeDegrees>
              <LongitudeDegrees>-16.64201854728162288665771484375</LongitudeDegrees>
            </Position>
            <AltitudeMeters>3639.39990234375</AltitudeMeters>
            <DistanceMeters>10466.466662764</DistanceMeters>
          </Trackpoint>
          <Trackpoint>
            <Time>2019-04-08T06:25:21.000Z</Time>
            <Position>
              <LatitudeDegrees>28.2722453959286212921142578125</LatitudeDegrees>
              <LongitudeDegrees>-16.6420193016529083251953125</LongitudeDegrees>
            </Position>
            <AltitudeMeters>3640</AltitudeMeters>
            <DistanceMeters>10467.467831324</DistanceMeters>
          </Trackpoint>
          <Trackpoint>
            <Time>2019-04-08T06:25:27.000Z</Time>
            <Position>
              <LatitudeDegrees>28.27225704677402973175048828125</LatitudeDegrees>
              <LongitudeDegrees>-16.64201326668262481689453125</LongitudeDegrees>
            </Position>
            <AltitudeMeters>3640.60009765625</AltitudeMeters>
            <DistanceMeters>10468.893232039</DistanceMeters>
          </Trackpoint>
          <Trackpoint>
            <Time>2019-04-08T06:25:32.000Z</Time>
            <Position>
              <LatitudeDegrees>28.272268362343311309814453125</LatitudeDegrees>
              <LongitudeDegrees>-16.64200647734105587005615234375</LongitudeDegrees>
            </Position>
            <AltitudeMeters>3640.800048828125</AltitudeMeters>
            <DistanceMeters>10470.318632755</DistanceMeters>
          </Trackpoint>
          <Trackpoint>
            <Time>2019-04-08T06:25:36.000Z</Time>
            <Position>
              <LatitudeDegrees>28.2722608186304569244384765625</LatitudeDegrees>
              <LongitudeDegrees>-16.64199340157210826873779296875</LongitudeDegrees>
            </Position>
            <AltitudeMeters>3642</AltitudeMeters>
            <DistanceMeters>10471.850892483</DistanceMeters>
          </Trackpoint>
          <Trackpoint>
            <Time>2019-04-08T06:25:46.000Z</Time>
            <Position>
              <LatitudeDegrees>28.27224883250892162322998046875</LatitudeDegrees>
              <LongitudeDegrees>-16.6419705189764499664306640625</LongitudeDegrees>
            </Position>
            <AltitudeMeters>3643</AltitudeMeters>
            <DistanceMeters>10474.460236776</DistanceMeters>
          </Trackpoint>
          <Trackpoint>
            <Time>2019-04-08T06:25:52.000Z</Time>
            <Position>
              <LatitudeDegrees>28.27226257883012294769287109375</LatitudeDegrees>
              <LongitudeDegrees>-16.64195266552269458770751953125</LongitudeDegrees>
            </Position>
            <AltitudeMeters>3643</AltitudeMeters>
            <DistanceMeters>10476.78402371</DistanceMeters>
          </Trackpoint>
          <Trackpoint>
            <Time>2019-04-08T06:25:55.000Z</Time>
            <Position>
              <LatitudeDegrees>28.272274397313594818115234375</LatitudeDegrees>
              <LongitudeDegrees>-16.64194880984723567962646484375</LongitudeDegrees>
            </Position>
            <AltitudeMeters>3644.39990234375</AltitudeMeters>
            <DistanceMeters>10478.151220047</DistanceMeters>
          </Trackpoint>
          <Trackpoint>
            <Time>2019-04-08T06:26:02.000Z</Time>
            <Position>
              <LatitudeDegrees>28.2723047398030757904052734375</LatitudeDegrees>
              <LongitudeDegrees>-16.64194176904857158660888671875</LongitudeDegrees>
            </Position>
            <AltitudeMeters>3645.199951171875</AltitudeMeters>
            <DistanceMeters>10481.598477014</DistanceMeters>
          </Trackpoint>
          <Trackpoint>
            <Time>2019-04-08T06:26:03.000Z</Time>
            <Position>
              <LatitudeDegrees>28.272309936583042144775390625</LatitudeDegrees>
              <LongitudeDegrees>-16.6419457085430622100830078125</LongitudeDegrees>
            </Position>
            <AltitudeMeters>3646</AltitudeMeters>
            <DistanceMeters>10482.290281938</DistanceMeters>
          </Trackpoint>
          <Trackpoint>
            <Time>2019-04-08T06:26:11.000Z</Time>
            <Position>
              <LatitudeDegrees>28.27235184609889984130859375</LatitudeDegrees>
              <LongitudeDegrees>-16.64196775294840335845947265625</LongitudeDegrees>
            </Position>
            <AltitudeMeters>3646.800048828125</AltitudeMeters>
            <DistanceMeters>10487.430515753</DistanceMeters>
          </Trackpoint>
          <Trackpoint>
            <Time>2019-04-08T06:26:12.000Z</Time>
            <Position>
              <LatitudeDegrees>28.2723523490130901336669921875</LatitudeDegrees>
              <LongitudeDegrees>-16.64196942932903766632080078125</LongitudeDegrees>
            </Position>
            <AltitudeMeters>3647.199951171875</AltitudeMeters>
            <DistanceMeters>10487.620569181</DistanceMeters>
          </Trackpoint>
          <Trackpoint>
            <Time>2019-04-08T06:26:18.000Z</Time>
            <Position>
              <LatitudeDegrees>28.27235989272594451904296875</LatitudeDegrees>
              <LongitudeDegrees>-16.64196020923554897308349609375</LongitudeDegrees>
            </Position>
            <AltitudeMeters>3648.60009765625</AltitudeMeters>
            <DistanceMeters>10488.859565951</DistanceMeters>
          </Trackpoint>
          <Trackpoint>
            <Time>2019-04-08T06:26:25.000Z</Time>
            <Position>
              <LatitudeDegrees>28.27237942256033420562744140625</LatitudeDegrees>
              <LongitudeDegrees>-16.6419549286365509033203125</LongitudeDegrees>
            </Position>
            <AltitudeMeters>3649</AltitudeMeters>
            <DistanceMeters>10491.09218822</DistanceMeters>
          </Trackpoint>
          <Trackpoint>
            <Time>2019-04-08T06:26:33.000Z</Time>
            <Position>
              <LatitudeDegrees>28.27239811420440673828125</LatitudeDegrees>
              <LongitudeDegrees>-16.64196490310132503509521484375</LongitudeDegrees>
            </Position>
            <AltitudeMeters>3649</AltitudeMeters>
            <DistanceMeters>10493.388612537</DistanceMeters>
          </Trackpoint>
          <Trackpoint>
            <Time>2019-04-08T06:26:36.000Z</Time>
            <Position>
              <LatitudeDegrees>28.2724080048501491546630859375</LatitudeDegrees>
              <LongitudeDegrees>-16.6419725306332111358642578125</LongitudeDegrees>
            </Position>
            <AltitudeMeters>3649.39990234375</AltitudeMeters>
            <DistanceMeters>10494.722376032</DistanceMeters>
          </Trackpoint>
          <Trackpoint>
            <Time>2019-04-08T06:26:43.000Z</Time>
            <Position>
              <LatitudeDegrees>28.27242937870323657989501953125</LatitudeDegrees>
              <LongitudeDegrees>-16.64200228638947010040283203125</LongitudeDegrees>
            </Position>
            <AltitudeMeters>3650.39990234375</AltitudeMeters>
            <DistanceMeters>10498.486441645</DistanceMeters>
          </Trackpoint>
          <Trackpoint>
            <Time>2019-04-08T06:26:51.000Z</Time>
            <Position>
              <LatitudeDegrees>28.2724425382912158966064453125</LatitudeDegrees>
              <LongitudeDegrees>-16.6420040465891361236572265625</LongitudeDegrees>
            </Position>
            <AltitudeMeters>3650</AltitudeMeters>
            <DistanceMeters>10499.96165296</DistanceMeters>
          </Trackpoint>
          <Trackpoint>
            <Time>2019-04-08T06:26:58.000Z</Time>
            <Position>
              <LatitudeDegrees>28.27245150692760944366455078125</LatitudeDegrees>
              <LongitudeDegrees>-16.64201184175908565521240234375</LongitudeDegrees>
            </Position>
            <AltitudeMeters>3650.60009765625</AltitudeMeters>
            <DistanceMeters>10501.21873823</DistanceMeters>
          </Trackpoint>
          <Trackpoint>
            <Time>2019-04-08T06:26:59.000Z</Time>
            <Position>
              <LatitudeDegrees>28.2724556140601634979248046875</LatitudeDegrees>
              <LongitudeDegrees>-16.64201653562486171722412109375</LongitudeDegrees>
            </Position>
            <AltitudeMeters>3651</AltitudeMeters>
            <DistanceMeters>10501.863240765</DistanceMeters>
          </Trackpoint>
          <Trackpoint>
            <Time>2019-04-08T06:27:02.000Z</Time>
            <Position>
              <LatitudeDegrees>28.27246827073395252227783203125</LatitudeDegrees>
              <LongitudeDegrees>-16.64202759973704814910888671875</LongitudeDegrees>
            </Position>
            <AltitudeMeters>3651.800048828125</AltitudeMeters>
            <DistanceMeters>10503.641027803</DistanceMeters>
          </Trackpoint>
          <Trackpoint>
            <Time>2019-04-08T06:27:09.000Z</Time>
            <Position>
              <LatitudeDegrees>28.27248872257769107818603515625</LatitudeDegrees>
              <LongitudeDegrees>-16.6420466266572475433349609375</LongitudeDegrees>
            </Position>
            <AltitudeMeters>3652.800048828125</AltitudeMeters>
            <DistanceMeters>10506.583788974</DistanceMeters>
          </Trackpoint>
          <Trackpoint>
            <Time>2019-04-08T06:27:11.000Z</Time>
            <Position>
              <LatitudeDegrees>28.272497355937957763671875</LatitudeDegrees>
              <LongitudeDegrees>-16.6420452855527400970458984375</LongitudeDegrees>
            </Position>
            <AltitudeMeters>3653.199951171875</AltitudeMeters>
            <DistanceMeters>10507.552875116</DistanceMeters>
          </Trackpoint>
          <Trackpoint>
            <Time>2019-04-08T06:27:15.000Z</Time>
            <Position>
              <LatitudeDegrees>28.27251537702977657318115234375</LatitudeDegrees>
              <LongitudeDegrees>-16.64203966967761516571044921875</LongitudeDegrees>
            </Position>
            <AltitudeMeters>3654</AltitudeMeters>
            <DistanceMeters>10509.630464233</DistanceMeters>
          </Trackpoint>
          <Trackpoint>
            <Time>2019-04-08T06:27:21.000Z</Time>
            <Position>
              <LatitudeDegrees>28.2725308835506439208984375</LatitudeDegrees>
              <LongitudeDegrees>-16.64204277098178863525390625</LongitudeDegrees>
            </Position>
            <AltitudeMeters>3654</AltitudeMeters>
            <DistanceMeters>10511.385245151</DistanceMeters>
          </Trackpoint>
          <Trackpoint>
            <Time>2019-04-08T06:27:33.000Z</Time>
            <Position>
              <LatitudeDegrees>28.27255577780306339263916015625</LatitudeDegrees>
              <LongitudeDegrees>-16.64205660112202167510986328125</LongitudeDegrees>
            </Position>
            <AltitudeMeters>3654.60009765625</AltitudeMeters>
            <DistanceMeters>10514.470322228</DistanceMeters>
          </Trackpoint>
          <Trackpoint>
            <Time>2019-04-08T06:27:35.000Z</Time>
            <Position>
              <LatitudeDegrees>28.27255762182176113128662109375</LatitudeDegrees>
              <LongitudeDegrees>-16.642071940004825592041015625</LongitudeDegrees>
            </Position>
            <AltitudeMeters>3654.800048828125</AltitudeMeters>
            <DistanceMeters>10515.990749658</DistanceMeters>
          </Trackpoint>
          <Trackpoint>
            <Time>2019-04-08T06:27:36.000Z</Time>
            <Position>
              <LatitudeDegrees>28.2725565321743488311767578125</LatitudeDegrees>
              <LongitudeDegrees>-16.6420794837176799774169921875</LongitudeDegrees>
            </Position>
            <AltitudeMeters>3655</AltitudeMeters>
            <DistanceMeters>10516.738990755</DistanceMeters>
          </Trackpoint>
          <Trackpoint>
            <Time>2019-04-08T06:27:40.000Z</Time>
            <Position>
              <LatitudeDegrees>28.2725471444427967071533203125</LatitudeDegrees>
              <LongitudeDegrees>-16.642095409333705902099609375</LongitudeDegrees>
            </Position>
            <AltitudeMeters>3655.60009765625</AltitudeMeters>
            <DistanceMeters>10518.615617999</DistanceMeters>
          </Trackpoint>
          <Trackpoint>
            <Time>2019-04-08T06:27:48.000Z</Time>
            <Position>
              <LatitudeDegrees>28.27255032956600189208984375</LatitudeDegrees>
              <LongitudeDegrees>-16.64212164469063282012939453125</LongitudeDegrees>
            </Position>
            <AltitudeMeters>3656.199951171875</AltitudeMeters>
            <DistanceMeters>10521.211082702</DistanceMeters>
          </Trackpoint>
          <Trackpoint>
            <Time>2019-04-08T06:27:56.000Z</Time>
            <Position>
              <LatitudeDegrees>28.27257572673261165618896484375</LatitudeDegrees>
              <LongitudeDegrees>-16.64215718396008014678955078125</LongitudeDegrees>
            </Position>
            <AltitudeMeters>3657.199951171875</AltitudeMeters>
            <DistanceMeters>10525.69751117</DistanceMeters>
          </Trackpoint>
          <Trackpoint>
            <Time>2019-04-08T06:27:57.000Z</Time>
            <Position>
              <LatitudeDegrees>28.2725786603987216949462890625</LatitudeDegrees>
              <LongitudeDegrees>-16.642161123454570770263671875</LongitudeDegrees>
            </Position>
            <AltitudeMeters>3657.800048828125</AltitudeMeters>
            <DistanceMeters>10526.200345278</DistanceMeters>
          </Trackpoint>
          <Trackpoint>
            <Time>2019-04-08T06:28:01.000Z</Time>
            <Position>
              <LatitudeDegrees>28.27259718440473079681396484375</LatitudeDegrees>
              <LongitudeDegrees>-16.64217419922351837158203125</LongitudeDegrees>
            </Position>
            <AltitudeMeters>3658.60009765625</AltitudeMeters>
            <DistanceMeters>10528.628645078</DistanceMeters>
          </Trackpoint>
          <Trackpoint>
            <Time>2019-04-08T06:28:04.000Z</Time>
            <Position>
              <LatitudeDegrees>28.272618390619754791259765625</LatitudeDegrees>
              <LongitudeDegrees>-16.64218886755406856536865234375</LongitudeDegrees>
            </Position>
            <AltitudeMeters>3658.800048828125</AltitudeMeters>
            <DistanceMeters>10531.392599613</DistanceMeters>
          </Trackpoint>
          <Trackpoint>
            <Time>2019-04-08T06:28:09.000Z</Time>
            <Position>
              <LatitudeDegrees>28.272636495530605316162109375</LatitudeDegrees>
              <LongitudeDegrees>-16.64220781065523624420166015625</LongitudeDegrees>
            </Position>
            <AltitudeMeters>3659.60009765625</AltitudeMeters>
            <DistanceMeters>10534.133589143</DistanceMeters>
          </Trackpoint>
          <Trackpoint>
            <Time>2019-04-08T06:28:13.000Z</Time>
            <Position>
              <LatitudeDegrees>28.27264730818569660186767578125</LatitudeDegrees>
              <LongitudeDegrees>-16.6422129236161708831787109375</LongitudeDegrees>
            </Position>
            <AltitudeMeters>3660.39990234375</AltitudeMeters>
            <DistanceMeters>10535.439990478</DistanceMeters>
          </Trackpoint>
          <Trackpoint>
            <Time>2019-04-08T06:28:21.000Z</Time>
            <Position>
              <LatitudeDegrees>28.27267630957067012786865234375</LatitudeDegrees>
              <LongitudeDegrees>-16.64222323335707187652587890625</LongitudeDegrees>
            </Position>
            <AltitudeMeters>3660.39990234375</AltitudeMeters>
            <DistanceMeters>10538.822461003</DistanceMeters>
          </Trackpoint>
          <Trackpoint>
            <Time>2019-04-08T06:28:29.000Z</Time>
            <Position>
              <LatitudeDegrees>28.272681422531604766845703125</LatitudeDegrees>
              <LongitudeDegrees>-16.642264388501644134521484375</LongitudeDegrees>
            </Position>
            <AltitudeMeters>3660.800048828125</AltitudeMeters>
            <DistanceMeters>10542.897545122</DistanceMeters>
          </Trackpoint>
          <Trackpoint>
            <Time>2019-04-08T06:28:33.000Z</Time>
            <Position>
              <LatitudeDegrees>28.2726866193115711212158203125</LatitudeDegrees>
              <LongitudeDegrees>-16.64227386005222797393798828125</LongitudeDegrees>
            </Position>
            <AltitudeMeters>3661.800048828125</AltitudeMeters>
            <DistanceMeters>10543.98931895</DistanceMeters>
          </Trackpoint>
          <Trackpoint>
            <Time>2019-04-08T06:28:39.000Z</Time>
            <Position>
              <LatitudeDegrees>28.2727107591927051544189453125</LatitudeDegrees>
              <LongitudeDegrees>-16.6422813199460506439208984375</LongitudeDegrees>
            </Position>
            <AltitudeMeters>3661.800048828125</AltitudeMeters>
            <DistanceMeters>10546.772806976</DistanceMeters>
          </Trackpoint>
          <Trackpoint>
            <Time>2019-04-08T06:28:44.000Z</Time>
            <Position>
              <LatitudeDegrees>28.27272056601941585540771484375</LatitudeDegrees>
              <LongitudeDegrees>-16.64229598827660083770751953125</LongitudeDegrees>
            </Position>
            <AltitudeMeters>3660.60009765625</AltitudeMeters>
            <DistanceMeters>10548.575812111</DistanceMeters>
          </Trackpoint>
          <Trackpoint>
            <Time>2019-04-08T06:28:45.000Z</Time>
            <Position>
              <LatitudeDegrees>28.2727201469242572784423828125</LatitudeDegrees>
              <LongitudeDegrees>-16.6422950662672519683837890625</LongitudeDegrees>
            </Position>
            <AltitudeMeters>3659.60009765625</AltitudeMeters>
            <DistanceMeters>10548.670838826</DistanceMeters>
          </Trackpoint>
          <Trackpoint>
            <Time>2019-04-08T06:28:47.000Z</Time>
            <Position>
              <LatitudeDegrees>28.27271956019103527069091796875</LatitudeDegrees>
              <LongitudeDegrees>-16.64229347370564937591552734375</LongitudeDegrees>
            </Position>
            <AltitudeMeters>3658.199951171875</AltitudeMeters>
            <DistanceMeters>10548.805226894</DistanceMeters>
          </Trackpoint>
          <Trackpoint>
            <Time>2019-04-08T06:28:54.000Z</Time>
            <Position>
              <LatitudeDegrees>28.27273548580706119537353515625</LatitudeDegrees>
              <LongitudeDegrees>-16.6423084773123264312744140625</LongitudeDegrees>
            </Position>
            <AltitudeMeters>3658.60009765625</AltitudeMeters>
            <DistanceMeters>10551.109502257</DistanceMeters>
          </Trackpoint>
          <Trackpoint>
            <Time>2019-04-08T06:28:58.000Z</Time>
            <Position>
              <LatitudeDegrees>28.27273900620639324188232421875</LatitudeDegrees>
              <LongitudeDegrees>-16.64231157861649990081787109375</LongitudeDegrees>
            </Position>
            <AltitudeMeters>3660.39990234375</AltitudeMeters>
            <DistanceMeters>10551.612336365</DistanceMeters>
          </Trackpoint>
          <Trackpoint>
            <Time>2019-04-08T06:28:59.000Z</Time>
            <Position>
              <LatitudeDegrees>28.2727409340441226959228515625</LatitudeDegrees>
              <LongitudeDegrees>-16.64231308735907077789306640625</LongitudeDegrees>
            </Position>
            <AltitudeMeters>3661.39990234375</AltitudeMeters>
            <DistanceMeters>10551.863753419</DistanceMeters>
          </Trackpoint>
          <Trackpoint>
            <Time>2019-04-08T06:29:03.000Z</Time>
            <Position>
              <LatitudeDegrees>28.27275392599403858184814453125</LatitudeDegrees>
              <LongitudeDegrees>-16.64232415147125720977783203125</LongitudeDegrees>
            </Position>
            <AltitudeMeters>3660.39990234375</AltitudeMeters>
            <DistanceMeters>10553.671759966</DistanceMeters>
          </Trackpoint>
          <Trackpoint>
            <Time>2019-04-08T06:29:05.000Z</Time>
            <Position>
              <LatitudeDegrees>28.27275778166949748992919921875</LatitudeDegrees>
              <LongitudeDegrees>-16.64233337156474590301513671875</LongitudeDegrees>
            </Position>
            <AltitudeMeters>3658.800048828125</AltitudeMeters>
            <DistanceMeters>10554.677428183</DistanceMeters>
          </Trackpoint>
          <Trackpoint>
            <Time>2019-04-08T06:29:07.000Z</Time>
            <Position>
              <LatitudeDegrees>28.27275979332625865936279296875</LatitudeDegrees>
              <LongitudeDegrees>-16.64234929718077182769775390625</LongitudeDegrees>
            </Position>
            <AltitudeMeters>3657.39990234375</AltitudeMeters>
            <DistanceMeters>10556.256130529</DistanceMeters>
          </Trackpoint>
          <Trackpoint>
            <Time>2019-04-08T06:29:09.000Z</Time>
            <Position>
              <LatitudeDegrees>28.27276197262108325958251953125</LatitudeDegrees>
              <LongitudeDegrees>-16.64235516451299190521240234375</LongitudeDegrees>
            </Position>
            <AltitudeMeters>3656.39990234375</AltitudeMeters>
            <DistanceMeters>10556.871974024</DistanceMeters>
          </Trackpoint>
          <Trackpoint>
            <Time>2019-04-08T06:29:11.000Z</Time>
            <Position>
              <LatitudeDegrees>28.272759877145290374755859375</LatitudeDegrees>
              <LongitudeDegrees>-16.6423624567687511444091796875</LongitudeDegrees>
            </Position>
            <AltitudeMeters>3656</AltitudeMeters>
            <DistanceMeters>10557.626225187</DistanceMeters>
          </Trackpoint>
          <Trackpoint>
            <Time>2019-04-08T06:29:14.000Z</Time>
            <Position>
              <LatitudeDegrees>28.27275359071791172027587890625</LatitudeDegrees>
              <LongitudeDegrees>-16.6423654742538928985595703125</LongitudeDegrees>
            </Position>
            <AltitudeMeters>3658.39990234375</AltitudeMeters>
            <DistanceMeters>10558.380476349</DistanceMeters>
          </Trackpoint>
          <Trackpoint>
            <Time>2019-04-08T06:29:15.000Z</Time>
            <Position>
              <LatitudeDegrees>28.2727530039846897125244140625</LatitudeDegrees>
              <LongitudeDegrees>-16.642364971339702606201171875</LongitudeDegrees>
            </Position>
            <AltitudeMeters>3662.60009765625</AltitudeMeters>
            <DistanceMeters>10558.380476349</DistanceMeters>
          </Trackpoint>
          <Trackpoint>
            <Time>2019-04-08T06:29:16.000Z</Time>
            <Position>
              <LatitudeDegrees>28.27275342307984828948974609375</LatitudeDegrees>
              <LongitudeDegrees>-16.64236572571098804473876953125</LongitudeDegrees>
            </Position>
            <AltitudeMeters>3664</AltitudeMeters>
            <DistanceMeters>10558.475503063</DistanceMeters>
          </Trackpoint>
          <Trackpoint>
            <Time>2019-04-08T06:29:18.000Z</Time>
            <Position>
              <LatitudeDegrees>28.2727530039846897125244140625</LatitudeDegrees>
              <LongitudeDegrees>-16.64236589334905147552490234375</LongitudeDegrees>
            </Position>
            <AltitudeMeters>3665</AltitudeMeters>
            <DistanceMeters>10558.475503063</DistanceMeters>
          </Trackpoint>
          <Trackpoint>
            <Time>2019-04-08T06:29:19.000Z</Time>
            <Position>
              <LatitudeDegrees>28.27275258488953113555908203125</LatitudeDegrees>
              <LongitudeDegrees>-16.642366312444210052490234375</LongitudeDegrees>
            </Position>
            <AltitudeMeters>3665.199951171875</AltitudeMeters>
            <DistanceMeters>10558.570529778</DistanceMeters>
          </Trackpoint>
          <Trackpoint>
            <Time>2019-04-08T06:29:21.000Z</Time>
            <Position>
              <LatitudeDegrees>28.27274654991924762725830078125</LatitudeDegrees>
              <LongitudeDegrees>-16.64237813092768192291259765625</LongitudeDegrees>
            </Position>
            <AltitudeMeters>3663.800048828125</AltitudeMeters>
            <DistanceMeters>10559.911046548</DistanceMeters>
          </Trackpoint>
          <Trackpoint>
            <Time>2019-04-08T06:29:22.000Z</Time>
            <Position>
              <LatitudeDegrees>28.272742442786693572998046875</LatitudeDegrees>
              <LongitudeDegrees>-16.64238533936440944671630859375</LongitudeDegrees>
            </Position>
            <AltitudeMeters>3661.199951171875</AltitudeMeters>
            <DistanceMeters>10560.750299766</DistanceMeters>
          </Trackpoint>
          <Trackpoint>
            <Time>2019-04-08T06:29:23.000Z</Time>
            <Position>
              <LatitudeDegrees>28.272744454443454742431640625</LatitudeDegrees>
              <LongitudeDegrees>-16.64239455945789813995361328125</LongitudeDegrees>
            </Position>
            <AltitudeMeters>3657.199951171875</AltitudeMeters>
            <DistanceMeters>10561.681367614</DistanceMeters>
          </Trackpoint>
          <Trackpoint>
            <Time>2019-04-08T06:29:24.000Z</Time>
            <Position>
              <LatitudeDegrees>28.27274235896766185760498046875</LatitudeDegrees>
              <LongitudeDegrees>-16.64240059442818164825439453125</LongitudeDegrees>
            </Position>
            <AltitudeMeters>3655.60009765625</AltitudeMeters>
            <DistanceMeters>10562.325870148</DistanceMeters>
          </Trackpoint>
          <Trackpoint>
            <Time>2019-04-08T06:29:25.000Z</Time>
            <Position>
              <LatitudeDegrees>28.27273800037801265716552734375</LatitudeDegrees>
              <LongitudeDegrees>-16.64240411482751369476318359375</LongitudeDegrees>
            </Position>
            <AltitudeMeters>3655</AltitudeMeters>
            <DistanceMeters>10562.919311789</DistanceMeters>
          </Trackpoint>
          <Trackpoint>
            <Time>2019-04-08T06:29:28.000Z</Time>
            <Position>
              <LatitudeDegrees>28.27273598872125148773193359375</LatitudeDegrees>
              <LongitudeDegrees>-16.64241232909262180328369140625</LongitudeDegrees>
            </Position>
            <AltitudeMeters>3657.60009765625</AltitudeMeters>
            <DistanceMeters>10563.753167824</DistanceMeters>
          </Trackpoint>
          <Trackpoint>
            <Time>2019-04-08T06:29:33.000Z</Time>
            <Position>
              <LatitudeDegrees>28.2727328874170780181884765625</LatitudeDegrees>
              <LongitudeDegrees>-16.6424110718071460723876953125</LongitudeDegrees>
            </Position>
            <AltitudeMeters>3656.199951171875</AltitudeMeters>
            <DistanceMeters>10564.121204706</DistanceMeters>
          </Trackpoint>
          <Trackpoint>
            <Time>2019-04-08T06:29:34.000Z</Time>
            <Position>
              <LatitudeDegrees>28.27273414470255374908447265625</LatitudeDegrees>
              <LongitudeDegrees>-16.64241216145455837249755859375</LongitudeDegrees>
            </Position>
            <AltitudeMeters>3655.60009765625</AltitudeMeters>
            <DistanceMeters>10564.311258135</DistanceMeters>
          </Trackpoint>
          <Trackpoint>
            <Time>2019-04-08T06:29:37.000Z</Time>
            <Position>
              <LatitudeDegrees>28.27273330651223659515380859375</LatitudeDegrees>
              <LongitudeDegrees>-16.642412245273590087890625</LongitudeDegrees>
            </Position>
            <AltitudeMeters>3655</AltitudeMeters>
            <DistanceMeters>10564.406284849</DistanceMeters>
          </Trackpoint>
          <Trackpoint>
            <Time>2019-04-08T06:29:40.000Z</Time>
            <Position>
              <LatitudeDegrees>28.27273447997868061065673828125</LatitudeDegrees>
              <LongitudeDegrees>-16.642411909997463226318359375</LongitudeDegrees>
            </Position>
            <AltitudeMeters>3656</AltitudeMeters>
            <DistanceMeters>10564.540672917</DistanceMeters>
          </Trackpoint>
          <Trackpoint>
            <Time>2019-04-08T06:29:41.000Z</Time>
            <Position>
              <LatitudeDegrees>28.27273213304579257965087890625</LatitudeDegrees>
              <LongitudeDegrees>-16.64240998215973377227783203125</LongitudeDegrees>
            </Position>
            <AltitudeMeters>3657</AltitudeMeters>
            <DistanceMeters>10564.841173773</DistanceMeters>
          </Trackpoint>
          <Trackpoint>
            <Time>2019-04-08T06:29:42.000Z</Time>
            <Position>
              <LatitudeDegrees>28.27273095957934856414794921875</LatitudeDegrees>
              <LongitudeDegrees>-16.64240998215973377227783203125</LongitudeDegrees>
            </Position>
            <AltitudeMeters>3658.39990234375</AltitudeMeters>
            <DistanceMeters>10564.936200488</DistanceMeters>
          </Trackpoint>
          <Trackpoint>
            <Time>2019-04-08T06:29:43.000Z</Time>
            <Position>
              <LatitudeDegrees>28.27273146249353885650634765625</LatitudeDegrees>
              <LongitudeDegrees>-16.6424090601503849029541015625</LongitudeDegrees>
            </Position>
            <AltitudeMeters>3660.800048828125</AltitudeMeters>
            <DistanceMeters>10565.031227202</DistanceMeters>
          </Trackpoint>
          <Trackpoint>
            <Time>2019-04-08T06:29:44.000Z</Time>
            <Position>
              <LatitudeDegrees>28.27273163013160228729248046875</LatitudeDegrees>
              <LongitudeDegrees>-16.64240713231265544891357421875</LongitudeDegrees>
            </Position>
            <AltitudeMeters>3662.60009765625</AltitudeMeters>
            <DistanceMeters>10565.221280631</DistanceMeters>
          </Trackpoint>
          <Trackpoint>
            <Time>2019-04-08T06:29:46.000Z</Time>
            <Position>
              <LatitudeDegrees>28.27273271977901458740234375</LatitudeDegrees>
              <LongitudeDegrees>-16.642409227788448333740234375</LongitudeDegrees>
            </Position>
            <AltitudeMeters>3663.800048828125</AltitudeMeters>
            <DistanceMeters>10565.472697685</DistanceMeters>
          </Trackpoint>
          <Trackpoint>
            <Time>2019-04-08T06:29:50.000Z</Time>
            <Position>
              <LatitudeDegrees>28.27273917384445667266845703125</LatitudeDegrees>
              <LongitudeDegrees>-16.64239623583853244781494140625</LongitudeDegrees>
            </Position>
            <AltitudeMeters>3664.39990234375</AltitudeMeters>
            <DistanceMeters>10566.935615358</DistanceMeters>
          </Trackpoint>
          <Trackpoint>
            <Time>2019-04-08T06:29:57.000Z</Time>
            <Position>
              <LatitudeDegrees>28.27273070812225341796875</LatitudeDegrees>
              <LongitudeDegrees>-16.642385087907314300537109375</LongitudeDegrees>
            </Position>
            <AltitudeMeters>3663.60009765625</AltitudeMeters>
            <DistanceMeters>10568.376766836</DistanceMeters>
          </Trackpoint>
          <Trackpoint>
            <Time>2019-04-08T06:30:03.000Z</Time>
            <Position>
              <LatitudeDegrees>28.27272978611290454864501953125</LatitudeDegrees>
              <LongitudeDegrees>-16.6423867642879486083984375</LongitudeDegrees>
            </Position>
            <AltitudeMeters>3663</AltitudeMeters>
            <DistanceMeters>10568.566820264</DistanceMeters>
          </Trackpoint>
          <Trackpoint>
            <Time>2019-04-08T06:30:09.000Z</Time>
            <Position>
              <LatitudeDegrees>28.272727690637111663818359375</LatitudeDegrees>
              <LongitudeDegrees>-16.6423822380602359771728515625</LongitudeDegrees>
            </Position>
            <AltitudeMeters>3662.39990234375</AltitudeMeters>
            <DistanceMeters>10569.069654373</DistanceMeters>
          </Trackpoint>
          <Trackpoint>
            <Time>2019-04-08T06:30:11.000Z</Time>
            <Position>
              <LatitudeDegrees>28.27272710390388965606689453125</LatitudeDegrees>
              <LongitudeDegrees>-16.64238198660314083099365234375</LongitudeDegrees>
            </Position>
            <AltitudeMeters>3662</AltitudeMeters>
            <DistanceMeters>10569.164681087</DistanceMeters>
          </Trackpoint>
          <Trackpoint>
            <Time>2019-04-08T06:30:18.000Z</Time>
            <Position>
              <LatitudeDegrees>28.27272995375096797943115234375</LatitudeDegrees>
              <LongitudeDegrees>-16.64240461774170398712158203125</LongitudeDegrees>
            </Position>
            <AltitudeMeters>3661</AltitudeMeters>
            <DistanceMeters>10571.407392076</DistanceMeters>
          </Trackpoint>
          <Trackpoint>
            <Time>2019-04-08T06:30:19.000Z</Time>
            <Position>
              <LatitudeDegrees>28.27272928319871425628662109375</LatitudeDegrees>
              <LongitudeDegrees>-16.64240612648427486419677734375</LongitudeDegrees>
            </Position>
            <AltitudeMeters>3660.199951171875</AltitudeMeters>
            <DistanceMeters>10571.541780144</DistanceMeters>
          </Trackpoint>
          <Trackpoint>
            <Time>2019-04-08T06:30:20.000Z</Time>
            <Position>
              <LatitudeDegrees>28.272728361189365386962890625</LatitudeDegrees>
              <LongitudeDegrees>-16.6424070484936237335205078125</LongitudeDegrees>
            </Position>
            <AltitudeMeters>3659.800048828125</AltitudeMeters>
            <DistanceMeters>10571.676168212</DistanceMeters>
          </Trackpoint>
          <Trackpoint>
            <Time>2019-04-08T06:30:25.000Z</Time>
            <Position>
              <LatitudeDegrees>28.2727151177823543548583984375</LatitudeDegrees>
              <LongitudeDegrees>-16.6424162685871124267578125</LongitudeDegrees>
            </Position>
            <AltitudeMeters>3662.199951171875</AltitudeMeters>
            <DistanceMeters>10573.407637351</DistanceMeters>
          </Trackpoint>
          <Trackpoint>
            <Time>2019-04-08T06:30:27.000Z</Time>
            <Position>
              <LatitudeDegrees>28.27271570451557636260986328125</LatitudeDegrees>
              <LongitudeDegrees>-16.64242037571966648101806640625</LongitudeDegrees>
            </Position>
            <AltitudeMeters>3663.39990234375</AltitudeMeters>
            <DistanceMeters>10573.810801556</DistanceMeters>
          </Trackpoint>
          <Trackpoint>
            <Time>2019-04-08T06:30:29.000Z</Time>
            <Position>
              <LatitudeDegrees>28.27271754853427410125732421875</LatitudeDegrees>
              <LongitudeDegrees>-16.6424191184341907501220703125</LongitudeDegrees>
            </Position>
            <AltitudeMeters>3663.60009765625</AltitudeMeters>
            <DistanceMeters>10574.043568518</DistanceMeters>
          </Trackpoint>
          <Trackpoint>
            <Time>2019-04-08T06:30:43.000Z</Time>
            <Position>
              <LatitudeDegrees>28.27271662652492523193359375</LatitudeDegrees>
              <LongitudeDegrees>-16.642420291900634765625</LongitudeDegrees>
            </Position>
            <AltitudeMeters>3664.800048828125</AltitudeMeters>
            <DistanceMeters>10574.177956586</DistanceMeters>
          </Trackpoint>
          <Trackpoint>
            <Time>2019-04-08T06:30:45.000Z</Time>
            <Position>
              <LatitudeDegrees>28.2727171294391155242919921875</LatitudeDegrees>
              <LongitudeDegrees>-16.6424201242625713348388671875</LongitudeDegrees>
            </Position>
            <AltitudeMeters>3664.800048828125</AltitudeMeters>
            <DistanceMeters>10574.177956586</DistanceMeters>
          </Trackpoint>
          <Trackpoint>
            <Time>2019-04-08T06:30:56.000Z</Time>
            <Position>
              <LatitudeDegrees>28.27271855436265468597412109375</LatitudeDegrees>
              <LongitudeDegrees>-16.642419286072254180908203125</LongitudeDegrees>
            </Position>
            <AltitudeMeters>3664.800048828125</AltitudeMeters>
            <DistanceMeters>10574.368010015</DistanceMeters>
          </Trackpoint>
          <Trackpoint>
            <Time>2019-04-08T06:31:00.000Z</Time>
            <Position>
              <LatitudeDegrees>28.27271805144846439361572265625</LatitudeDegrees>
              <LongitudeDegrees>-16.64241920225322246551513671875</LongitudeDegrees>
            </Position>
            <AltitudeMeters>3664.800048828125</AltitudeMeters>
            <DistanceMeters>10574.368010015</DistanceMeters>
          </Trackpoint>
          <Trackpoint>
            <Time>2019-04-08T06:31:12.000Z</Time>
            <Position>
              <LatitudeDegrees>28.2727204822003841400146484375</LatitudeDegrees>
              <LongitudeDegrees>-16.6424184478819370269775390625</LongitudeDegrees>
            </Position>
            <AltitudeMeters>3663.800048828125</AltitudeMeters>
            <DistanceMeters>10574.668510871</DistanceMeters>
          </Trackpoint>
          <Trackpoint>
            <Time>2019-04-08T06:31:16.000Z</Time>
            <Position>
              <LatitudeDegrees>28.27271989546716213226318359375</LatitudeDegrees>
              <LongitudeDegrees>-16.64241920225322246551513671875</LongitudeDegrees>
            </Position>
            <AltitudeMeters>3663</AltitudeMeters>
            <DistanceMeters>10574.802898939</DistanceMeters>
          </Trackpoint>
          <Trackpoint>
            <Time>2019-04-08T06:31:18.000Z</Time>
            <Position>
              <LatitudeDegrees>28.27271989546716213226318359375</LatitudeDegrees>
              <LongitudeDegrees>-16.642419286072254180908203125</LongitudeDegrees>
            </Position>
            <AltitudeMeters>3662.60009765625</AltitudeMeters>
            <DistanceMeters>10574.802898939</DistanceMeters>
          </Trackpoint>
          <Trackpoint>
            <Time>2019-04-08T06:31:56.000Z</Time>
            <Position>
              <LatitudeDegrees>28.27272375114262104034423828125</LatitudeDegrees>
              <LongitudeDegrees>-16.64242104627192020416259765625</LongitudeDegrees>
            </Position>
            <AltitudeMeters>3663.39990234375</AltitudeMeters>
            <DistanceMeters>10575.258631052</DistanceMeters>
          </Trackpoint>
          <Trackpoint>
            <Time>2019-04-08T06:32:24.000Z</Time>
            <Position>
              <LatitudeDegrees>28.272719644010066986083984375</LatitudeDegrees>
              <LongitudeDegrees>-16.642422638833522796630859375</LongitudeDegrees>
            </Position>
            <AltitudeMeters>3663</AltitudeMeters>
            <DistanceMeters>10575.733764624</DistanceMeters>
          </Trackpoint>
          <Trackpoint>
            <Time>2019-04-08T06:33:02.000Z</Time>
            <Position>
              <LatitudeDegrees>28.27272039838135242462158203125</LatitudeDegrees>
              <LongitudeDegrees>-16.64242473430931568145751953125</LongitudeDegrees>
            </Position>
            <AltitudeMeters>3663</AltitudeMeters>
            <DistanceMeters>10575.966531586</DistanceMeters>
          </Trackpoint>
          <Trackpoint>
            <Time>2019-04-08T06:33:31.000Z</Time>
            <Position>
              <LatitudeDegrees>28.27271997928619384765625</LatitudeDegrees>
              <LongitudeDegrees>-16.64242632687091827392578125</LongitudeDegrees>
            </Position>
            <AltitudeMeters>3663.800048828125</AltitudeMeters>
            <DistanceMeters>10576.100919654</DistanceMeters>
          </Trackpoint>
          <Trackpoint>
            <Time>2019-04-08T06:34:01.000Z</Time>
            <Position>
              <LatitudeDegrees>28.27272140420973300933837890625</LatitudeDegrees>
              <LongitudeDegrees>-16.6424251534044742584228515625</LongitudeDegrees>
            </Position>
            <AltitudeMeters>3663.39990234375</AltitudeMeters>
            <DistanceMeters>10576.313405847</DistanceMeters>
          </Trackpoint>
          <Trackpoint>
            <Time>2019-04-08T06:34:55.000Z</Time>
            <Position>
              <LatitudeDegrees>28.272723667323589324951171875</LatitudeDegrees>
              <LongitudeDegrees>-16.6424248181283473968505859375</LongitudeDegrees>
            </Position>
            <AltitudeMeters>3662.60009765625</AltitudeMeters>
            <DistanceMeters>10576.564822901</DistanceMeters>
          </Trackpoint>
          <Trackpoint>
            <Time>2019-04-08T06:35:01.000Z</Time>
            <Position>
              <LatitudeDegrees>28.272723667323589324951171875</LatitudeDegrees>
              <LongitudeDegrees>-16.6424248181283473968505859375</LongitudeDegrees>
            </Position>
            <AltitudeMeters>3662.800048828125</AltitudeMeters>
            <DistanceMeters>10576.564822901</DistanceMeters>
          </Trackpoint>
          <Trackpoint>
            <Time>2019-04-08T06:35:05.000Z</Time>
            <Position>
              <LatitudeDegrees>28.27272375114262104034423828125</LatitudeDegrees>
              <LongitudeDegrees>-16.64242339320480823516845703125</LongitudeDegrees>
            </Position>
            <AltitudeMeters>3663.60009765625</AltitudeMeters>
            <DistanceMeters>10576.699210969</DistanceMeters>
          </Trackpoint>
          <Trackpoint>
            <Time>2019-04-08T06:35:06.000Z</Time>
            <Position>
              <LatitudeDegrees>28.2727238349616527557373046875</LatitudeDegrees>
              <LongitudeDegrees>-16.64242364466190338134765625</LongitudeDegrees>
            </Position>
            <AltitudeMeters>3663.800048828125</AltitudeMeters>
            <DistanceMeters>10576.699210969</DistanceMeters>
          </Trackpoint>
          <Trackpoint>
            <Time>2019-04-08T06:51:00.000Z</Time>
            <Position>
              <LatitudeDegrees>28.27268620021641254425048828125</LatitudeDegrees>
              <LongitudeDegrees>-16.64234980009496212005615234375</LongitudeDegrees>
            </Position>
            <AltitudeMeters>3705</AltitudeMeters>
            <DistanceMeters>10585.062641613</DistanceMeters>
          </Trackpoint>
          <Trackpoint>
            <Time>2019-04-08T06:51:03.000Z</Time>
            <Position>
              <LatitudeDegrees>28.27269810251891613006591796875</LatitudeDegrees>
              <LongitudeDegrees>-16.64231233298778533935546875</LongitudeDegrees>
            </Position>
            <AltitudeMeters>3704.39990234375</AltitudeMeters>
            <DistanceMeters>10588.966840511</DistanceMeters>
          </Trackpoint>
          <Trackpoint>
            <Time>2019-04-08T06:51:06.000Z</Time>
            <Position>
              <LatitudeDegrees>28.2727060653269290924072265625</LatitudeDegrees>
              <LongitudeDegrees>-16.642320714890956878662109375</LongitudeDegrees>
            </Position>
            <AltitudeMeters>3705.800048828125</AltitudeMeters>
            <DistanceMeters>10590.176333126</DistanceMeters>
          </Trackpoint>
          <Trackpoint>
            <Time>2019-04-08T06:51:08.000Z</Time>
            <Position>
              <LatitudeDegrees>28.272707574069499969482421875</LatitudeDegrees>
              <LongitudeDegrees>-16.642322726547718048095703125</LongitudeDegrees>
            </Position>
            <AltitudeMeters>3706.39990234375</AltitudeMeters>
            <DistanceMeters>10590.445109262</DistanceMeters>
          </Trackpoint>
          <Trackpoint>
            <Time>2019-04-08T06:51:10.000Z</Time>
            <Position>
              <LatitudeDegrees>28.27270589768886566162109375</LatitudeDegrees>
              <LongitudeDegrees>-16.64232666604220867156982421875</LongitudeDegrees>
            </Position>
            <AltitudeMeters>3706.800048828125</AltitudeMeters>
            <DistanceMeters>10590.870081648</DistanceMeters>
          </Trackpoint>
          <Trackpoint>
            <Time>2019-04-08T06:51:12.000Z</Time>
            <Position>
              <LatitudeDegrees>28.27270246110856533050537109375</LatitudeDegrees>
              <LongitudeDegrees>-16.64233135990798473358154296875</LongitudeDegrees>
            </Position>
            <AltitudeMeters>3707.199951171875</AltitudeMeters>
            <DistanceMeters>10591.47108336</DistanceMeters>
          </Trackpoint>
          <Trackpoint>
            <Time>2019-04-08T06:51:14.000Z</Time>
            <Position>
              <LatitudeDegrees>28.272697515785694122314453125</LatitudeDegrees>
              <LongitudeDegrees>-16.642337478697299957275390625</LongitudeDegrees>
            </Position>
            <AltitudeMeters>3707.800048828125</AltitudeMeters>
            <DistanceMeters>10592.288534066</DistanceMeters>
          </Trackpoint>
          <Trackpoint>
            <Time>2019-04-08T06:51:15.000Z</Time>
            <Position>
              <LatitudeDegrees>28.272694833576679229736328125</LatitudeDegrees>
              <LongitudeDegrees>-16.64233982563018798828125</LongitudeDegrees>
            </Position>
            <AltitudeMeters>3707.800048828125</AltitudeMeters>
            <DistanceMeters>10592.668640924</DistanceMeters>
          </Trackpoint>
          <Trackpoint>
            <Time>2019-04-08T06:51:22.000Z</Time>
            <Position>
              <LatitudeDegrees>28.2726862840354442596435546875</LatitudeDegrees>
              <LongitudeDegrees>-16.6423433460295200347900390625</LongitudeDegrees>
            </Position>
            <AltitudeMeters>3705</AltitudeMeters>
            <DistanceMeters>10593.678788754</DistanceMeters>
          </Trackpoint>
          <Trackpoint>
            <Time>2019-04-08T06:51:23.000Z</Time>
            <Position>
              <LatitudeDegrees>28.2726846076548099517822265625</LatitudeDegrees>
              <LongitudeDegrees>-16.64234326221048831939697265625</LongitudeDegrees>
            </Position>
            <AltitudeMeters>3706</AltitudeMeters>
            <DistanceMeters>10593.843379851</DistanceMeters>
          </Trackpoint>
          <Trackpoint>
            <Time>2019-04-08T06:51:25.000Z</Time>
            <Position>
              <LatitudeDegrees>28.2726815901696681976318359375</LatitudeDegrees>
              <LongitudeDegrees>-16.64234586060047149658203125</LongitudeDegrees>
            </Position>
            <AltitudeMeters>3707.60009765625</AltitudeMeters>
            <DistanceMeters>10594.257591696</DistanceMeters>
          </Trackpoint>
          <Trackpoint>
            <Time>2019-04-08T06:51:26.000Z</Time>
            <Position>
              <LatitudeDegrees>28.27268385328352451324462890625</LatitudeDegrees>
              <LongitudeDegrees>-16.64234560914337635040283203125</LongitudeDegrees>
            </Position>
            <AltitudeMeters>3708.39990234375</AltitudeMeters>
            <DistanceMeters>10594.490358658</DistanceMeters>
          </Trackpoint>
          <Trackpoint>
            <Time>2019-04-08T06:51:28.000Z</Time>
            <Position>
              <LatitudeDegrees>28.27268444001674652099609375</LatitudeDegrees>
              <LongitudeDegrees>-16.64234762080013751983642578125</LongitudeDegrees>
            </Position>
            <AltitudeMeters>3709.60009765625</AltitudeMeters>
            <DistanceMeters>10594.72312562</DistanceMeters>
          </Trackpoint>
          <Trackpoint>
            <Time>2019-04-08T06:51:30.000Z</Time>
            <Position>
              <LatitudeDegrees>28.272685445845127105712890625</LatitudeDegrees>
              <LongitudeDegrees>-16.64234929718077182769775390625</LongitudeDegrees>
            </Position>
            <AltitudeMeters>3711.199951171875</AltitudeMeters>
            <DistanceMeters>10594.913179049</DistanceMeters>
          </Trackpoint>
          <Trackpoint>
            <Time>2019-04-08T06:51:31.000Z</Time>
            <Position>
              <LatitudeDegrees>28.27269072644412517547607421875</LatitudeDegrees>
              <LongitudeDegrees>-16.6423518955707550048828125</LongitudeDegrees>
            </Position>
            <AltitudeMeters>3713.39990234375</AltitudeMeters>
            <DistanceMeters>10595.557681583</DistanceMeters>
          </Trackpoint>
          <Trackpoint>
            <Time>2019-04-08T06:51:33.000Z</Time>
            <Position>
              <LatitudeDegrees>28.2726966775953769683837890625</LatitudeDegrees>
              <LongitudeDegrees>-16.64235650561749935150146484375</LongitudeDegrees>
            </Position>
            <AltitudeMeters>3714.199951171875</AltitudeMeters>
            <DistanceMeters>10596.352732117</DistanceMeters>
          </Trackpoint>
          <Trackpoint>
            <Time>2019-04-08T06:51:36.000Z</Time>
            <Position>
              <LatitudeDegrees>28.2727038860321044921875</LatitudeDegrees>
              <LongitudeDegrees>-16.6423624567687511444091796875</LongitudeDegrees>
            </Position>
            <AltitudeMeters>3713.199951171875</AltitudeMeters>
            <DistanceMeters>10597.344840141</DistanceMeters>
          </Trackpoint>
          <Trackpoint>
            <Time>2019-04-08T06:51:46.000Z</Time>
            <Position>
              <LatitudeDegrees>28.272723667323589324951171875</LatitudeDegrees>
              <LongitudeDegrees>-16.642343513667583465576171875</LongitudeDegrees>
            </Position>
            <AltitudeMeters>3710.60009765625</AltitudeMeters>
            <DistanceMeters>10600.225576202</DistanceMeters>
          </Trackpoint>
          <Trackpoint>
            <Time>2019-04-08T06:51:51.000Z</Time>
            <Position>
              <LatitudeDegrees>28.27272064983844757080078125</LatitudeDegrees>
              <LongitudeDegrees>-16.642336808145046234130859375</LongitudeDegrees>
            </Position>
            <AltitudeMeters>3712.39990234375</AltitudeMeters>
            <DistanceMeters>10600.961649966</DistanceMeters>
          </Trackpoint>
          <Trackpoint>
            <Time>2019-04-08T06:51:55.000Z</Time>
            <Position>
              <LatitudeDegrees>28.2727218233048915863037109375</LatitudeDegrees>
              <LongitudeDegrees>-16.64232918061316013336181640625</LongitudeDegrees>
            </Position>
            <AltitudeMeters>3711.199951171875</AltitudeMeters>
            <DistanceMeters>10601.721863681</DistanceMeters>
          </Trackpoint>
          <Trackpoint>
            <Time>2019-04-08T06:51:57.000Z</Time>
            <Position>
              <LatitudeDegrees>28.2727186381816864013671875</LatitudeDegrees>
              <LongitudeDegrees>-16.64233135990798473358154296875</LongitudeDegrees>
            </Position>
            <AltitudeMeters>3710.800048828125</AltitudeMeters>
            <DistanceMeters>10602.136075526</DistanceMeters>
          </Trackpoint>
          <Trackpoint>
            <Time>2019-04-08T06:52:02.000Z</Time>
            <Position>
              <LatitudeDegrees>28.27271201647818088531494140625</LatitudeDegrees>
              <LongitudeDegrees>-16.64231769740581512451171875</LongitudeDegrees>
            </Position>
            <AltitudeMeters>3711.60009765625</AltitudeMeters>
            <DistanceMeters>10603.668335255</DistanceMeters>
          </Trackpoint>
          <Trackpoint>
            <Time>2019-04-08T06:52:03.000Z</Time>
            <Position>
              <LatitudeDegrees>28.2727107591927051544189453125</LatitudeDegrees>
              <LongitudeDegrees>-16.64231476373970508575439453125</LongitudeDegrees>
            </Position>
            <AltitudeMeters>3711.39990234375</AltitudeMeters>
            <DistanceMeters>10603.983503211</DistanceMeters>
          </Trackpoint>
          <Trackpoint>
            <Time>2019-04-08T06:52:11.000Z</Time>
            <Position>
              <LatitudeDegrees>28.2726946659386157989501953125</LatitudeDegrees>
              <LongitudeDegrees>-16.64229297079145908355712890625</LongitudeDegrees>
            </Position>
            <AltitudeMeters>3710.800048828125</AltitudeMeters>
            <DistanceMeters>10606.771853228</DistanceMeters>
          </Trackpoint>
          <Trackpoint>
            <Time>2019-04-08T06:52:15.000Z</Time>
            <Position>
              <LatitudeDegrees>28.27268770895898342132568359375</LatitudeDegrees>
              <LongitudeDegrees>-16.64228978566825389862060546875</LongitudeDegrees>
            </Position>
            <AltitudeMeters>3709.199951171875</AltitudeMeters>
            <DistanceMeters>10607.605709263</DistanceMeters>
          </Trackpoint>
          <Trackpoint>
            <Time>2019-04-08T06:52:21.000Z</Time>
            <Position>
              <LatitudeDegrees>28.27267480082809925079345703125</LatitudeDegrees>
              <LongitudeDegrees>-16.6422672383487224578857421875</LongitudeDegrees>
            </Position>
            <AltitudeMeters>3707.800048828125</AltitudeMeters>
            <DistanceMeters>10610.242593572</DistanceMeters>
          </Trackpoint>
          <Trackpoint>
            <Time>2019-04-08T06:52:25.000Z</Time>
            <Position>
              <LatitudeDegrees>28.27266725711524486541748046875</LatitudeDegrees>
              <LongitudeDegrees>-16.6422477923333644866943359375</LongitudeDegrees>
            </Position>
            <AltitudeMeters>3707.199951171875</AltitudeMeters>
            <DistanceMeters>10612.324524573</DistanceMeters>
          </Trackpoint>
          <Trackpoint>
            <Time>2019-04-08T06:52:29.000Z</Time>
            <Position>
              <LatitudeDegrees>28.27266055159270763397216796875</LatitudeDegrees>
              <LongitudeDegrees>-16.64223480038344860076904296875</LongitudeDegrees>
            </Position>
            <AltitudeMeters>3706.800048828125</AltitudeMeters>
            <DistanceMeters>10613.799735888</DistanceMeters>
          </Trackpoint>
          <Trackpoint>
            <Time>2019-04-08T06:52:36.000Z</Time>
            <Position>
              <LatitudeDegrees>28.2726259343326091766357421875</LatitudeDegrees>
              <LongitudeDegrees>-16.6422233171761035919189453125</LongitudeDegrees>
            </Position>
            <AltitudeMeters>3706</AltitudeMeters>
            <DistanceMeters>10617.81341953</DistanceMeters>
          </Trackpoint>
          <Trackpoint>
            <Time>2019-04-08T06:52:44.000Z</Time>
            <Position>
              <LatitudeDegrees>28.27259416691958904266357421875</LatitudeDegrees>
              <LongitudeDegrees>-16.6422042064368724822998046875</LongitudeDegrees>
            </Position>
            <AltitudeMeters>3704.39990234375</AltitudeMeters>
            <DistanceMeters>10621.814710014</DistanceMeters>
          </Trackpoint>
          <Trackpoint>
            <Time>2019-04-08T06:52:51.000Z</Time>
            <Position>
              <LatitudeDegrees>28.2725753076374530792236328125</LatitudeDegrees>
              <LongitudeDegrees>-16.642170846462249755859375</LongitudeDegrees>
            </Position>
            <AltitudeMeters>3704.60009765625</AltitudeMeters>
            <DistanceMeters>10625.699199393</DistanceMeters>
          </Trackpoint>
          <Trackpoint>
            <Time>2019-04-08T06:52:58.000Z</Time>
            <Position>
              <LatitudeDegrees>28.2725675962865352630615234375</LatitudeDegrees>
              <LongitudeDegrees>-16.64216573350131511688232421875</LongitudeDegrees>
            </Position>
            <AltitudeMeters>3705.39990234375</AltitudeMeters>
            <DistanceMeters>10626.695847981</DistanceMeters>
          </Trackpoint>
          <Trackpoint>
            <Time>2019-04-08T06:52:59.000Z</Time>
            <Position>
              <LatitudeDegrees>28.27256533317267894744873046875</LatitudeDegrees>
              <LongitudeDegrees>-16.6421636380255222320556640625</LongitudeDegrees>
            </Position>
            <AltitudeMeters>3704.800048828125</AltitudeMeters>
            <DistanceMeters>10627.025030176</DistanceMeters>
          </Trackpoint>
          <Trackpoint>
            <Time>2019-04-08T06:53:02.000Z</Time>
            <Position>
              <LatitudeDegrees>28.27255577780306339263916015625</LatitudeDegrees>
              <LongitudeDegrees>-16.6421502269804477691650390625</LongitudeDegrees>
            </Position>
            <AltitudeMeters>3704.39990234375</AltitudeMeters>
            <DistanceMeters>10628.716932724</DistanceMeters>
          </Trackpoint>
          <Trackpoint>
            <Time>2019-04-08T06:53:09.000Z</Time>
            <Position>
              <LatitudeDegrees>28.2725380919873714447021484375</LatitudeDegrees>
              <LongitudeDegrees>-16.642132960259914398193359375</LongitudeDegrees>
            </Position>
            <AltitudeMeters>3703.60009765625</AltitudeMeters>
            <DistanceMeters>10631.312397428</DistanceMeters>
          </Trackpoint>
          <Trackpoint>
            <Time>2019-04-08T06:53:11.000Z</Time>
            <Position>
              <LatitudeDegrees>28.2725344039499759674072265625</LatitudeDegrees>
              <LongitudeDegrees>-16.642128936946392059326171875</LongitudeDegrees>
            </Position>
            <AltitudeMeters>3703.39990234375</AltitudeMeters>
            <DistanceMeters>10631.890422365</DistanceMeters>
          </Trackpoint>
          <Trackpoint>
            <Time>2019-04-08T06:53:19.000Z</Time>
            <Position>
              <LatitudeDegrees>28.27252225019037723541259765625</LatitudeDegrees>
              <LongitudeDegrees>-16.64212499745190143585205078125</LongitudeDegrees>
            </Position>
            <AltitudeMeters>3702.60009765625</AltitudeMeters>
            <DistanceMeters>10633.296689318</DistanceMeters>
          </Trackpoint>
          <Trackpoint>
            <Time>2019-04-08T06:53:22.000Z</Time>
            <Position>
              <LatitudeDegrees>28.27251671813428401947021484375</LatitudeDegrees>
              <LongitudeDegrees>-16.64212214760482311248779296875</LongitudeDegrees>
            </Position>
            <AltitudeMeters>3702.199951171875</AltitudeMeters>
            <DistanceMeters>10633.968629659</DistanceMeters>
          </Trackpoint>
          <Trackpoint>
            <Time>2019-04-08T06:53:30.000Z</Time>
            <Position>
              <LatitudeDegrees>28.27251185663044452667236328125</LatitudeDegrees>
              <LongitudeDegrees>-16.64211678318679332733154296875</LongitudeDegrees>
            </Position>
            <AltitudeMeters>3702</AltitudeMeters>
            <DistanceMeters>10634.716870756</DistanceMeters>
          </Trackpoint>
          <Trackpoint>
            <Time>2019-04-08T06:53:44.000Z</Time>
            <Position>
              <LatitudeDegrees>28.27250431291759014129638671875</LatitudeDegrees>
              <LongitudeDegrees>-16.6421156935393810272216796875</LongitudeDegrees>
            </Position>
            <AltitudeMeters>3701.199951171875</AltitudeMeters>
            <DistanceMeters>10635.566815528</DistanceMeters>
          </Trackpoint>
          <Trackpoint>
            <Time>2019-04-08T06:53:55.000Z</Time>
            <Position>
              <LatitudeDegrees>28.272521160542964935302734375</LatitudeDegrees>
              <LongitudeDegrees>-16.64211376570165157318115234375</LongitudeDegrees>
            </Position>
            <AltitudeMeters>3702</AltitudeMeters>
            <DistanceMeters>10637.453041951</DistanceMeters>
          </Trackpoint>
          <Trackpoint>
            <Time>2019-04-08T06:53:58.000Z</Time>
            <Position>
              <LatitudeDegrees>28.27252216637134552001953125</LatitudeDegrees>
              <LongitudeDegrees>-16.6421140171587467193603515625</LongitudeDegrees>
            </Position>
            <AltitudeMeters>3702.199951171875</AltitudeMeters>
            <DistanceMeters>10637.548068666</DistanceMeters>
          </Trackpoint>
          <Trackpoint>
            <Time>2019-04-08T06:54:08.000Z</Time>
            <Position>
              <LatitudeDegrees>28.27252208255231380462646484375</LatitudeDegrees>
              <LongitudeDegrees>-16.64211594499647617340087890625</LongitudeDegrees>
            </Position>
            <AltitudeMeters>3702.39990234375</AltitudeMeters>
            <DistanceMeters>10637.738122094</DistanceMeters>
          </Trackpoint>
          <Trackpoint>
            <Time>2019-04-08T06:54:23.000Z</Time>
            <Position>
              <LatitudeDegrees>28.27251185663044452667236328125</LatitudeDegrees>
              <LongitudeDegrees>-16.64210823364555835723876953125</LongitudeDegrees>
            </Position>
            <AltitudeMeters>3702.199951171875</AltitudeMeters>
            <DistanceMeters>10639.108616859</DistanceMeters>
          </Trackpoint>
          <Trackpoint>
            <Time>2019-04-08T06:54:34.000Z</Time>
            <Position>
              <LatitudeDegrees>28.27250096015632152557373046875</LatitudeDegrees>
              <LongitudeDegrees>-16.6421036235988140106201171875</LongitudeDegrees>
            </Position>
            <AltitudeMeters>3702</AltitudeMeters>
            <DistanceMeters>10640.401119912</DistanceMeters>
          </Trackpoint>
          <Trackpoint>
            <Time>2019-04-08T06:54:46.000Z</Time>
            <Position>
              <LatitudeDegrees>28.272502720355987548828125</LatitudeDegrees>
              <LongitudeDegrees>-16.64210974238812923431396484375</LongitudeDegrees>
            </Position>
            <AltitudeMeters>3701.800048828125</AltitudeMeters>
            <DistanceMeters>10641.031455825</DistanceMeters>
          </Trackpoint>
          <Trackpoint>
            <Time>2019-04-08T06:55:00.000Z</Time>
            <Position>
              <LatitudeDegrees>28.27250984497368335723876953125</LatitudeDegrees>
              <LongitudeDegrees>-16.64211519062519073486328125</LongitudeDegrees>
            </Position>
            <AltitudeMeters>3701.800048828125</AltitudeMeters>
            <DistanceMeters>10641.991178596</DistanceMeters>
          </Trackpoint>
          <Trackpoint>
            <Time>2019-04-08T06:55:18.000Z</Time>
            <Position>
              <LatitudeDegrees>28.27251118607819080352783203125</LatitudeDegrees>
              <LongitudeDegrees>-16.642119549214839935302734375</LongitudeDegrees>
            </Position>
            <AltitudeMeters>3701.800048828125</AltitudeMeters>
            <DistanceMeters>10642.446910709</DistanceMeters>
          </Trackpoint>
          <Trackpoint>
            <Time>2019-04-08T06:55:29.000Z</Time>
            <Position>
              <LatitudeDegrees>28.27250749804079532623291015625</LatitudeDegrees>
              <LongitudeDegrees>-16.64212030358612537384033203125</LongitudeDegrees>
            </Position>
            <AltitudeMeters>3701.39990234375</AltitudeMeters>
            <DistanceMeters>10642.871883095</DistanceMeters>
          </Trackpoint>
          <Trackpoint>
            <Time>2019-04-08T06:55:39.000Z</Time>
            <Position>
              <LatitudeDegrees>28.27251554466784000396728515625</LatitudeDegrees>
              <LongitudeDegrees>-16.64210714399814605712890625</LongitudeDegrees>
            </Position>
            <AltitudeMeters>3702.199951171875</AltitudeMeters>
            <DistanceMeters>10644.444855105</DistanceMeters>
          </Trackpoint>
          <Trackpoint>
            <Time>2019-04-08T06:55:50.000Z</Time>
            <Position>
              <LatitudeDegrees>28.27252828516066074371337890625</LatitudeDegrees>
              <LongitudeDegrees>-16.64207629859447479248046875</LongitudeDegrees>
            </Position>
            <AltitudeMeters>3702</AltitudeMeters>
            <DistanceMeters>10647.78298547</DistanceMeters>
          </Trackpoint>
          <Trackpoint>
            <Time>2019-04-08T06:55:58.000Z</Time>
            <Position>
              <LatitudeDegrees>28.272511102259159088134765625</LatitudeDegrees>
              <LongitudeDegrees>-16.64205995388329029083251953125</LongitudeDegrees>
            </Position>
            <AltitudeMeters>3701.39990234375</AltitudeMeters>
            <DistanceMeters>10650.279133051</DistanceMeters>
          </Trackpoint>
          <Trackpoint>
            <Time>2019-04-08T06:56:00.000Z</Time>
            <Position>
              <LatitudeDegrees>28.27250246889889240264892578125</LatitudeDegrees>
              <LongitudeDegrees>-16.642057187855243682861328125</LongitudeDegrees>
            </Position>
            <AltitudeMeters>3700.800048828125</AltitudeMeters>
            <DistanceMeters>10651.280301611</DistanceMeters>
          </Trackpoint>
          <Trackpoint>
            <Time>2019-04-08T06:56:07.000Z</Time>
            <Position>
              <LatitudeDegrees>28.272481597959995269775390625</LatitudeDegrees>
              <LongitudeDegrees>-16.64205878041684627532958984375</LongitudeDegrees>
            </Position>
            <AltitudeMeters>3700.800048828125</AltitudeMeters>
            <DistanceMeters>10653.607971232</DistanceMeters>
          </Trackpoint>
          <Trackpoint>
            <Time>2019-04-08T06:56:12.000Z</Time>
            <Position>
              <LatitudeDegrees>28.27247195877134799957275390625</LatitudeDegrees>
              <LongitudeDegrees>-16.64206179790198802947998046875</LongitudeDegrees>
            </Position>
            <AltitudeMeters>3699.800048828125</AltitudeMeters>
            <DistanceMeters>10654.716163633</DistanceMeters>
          </Trackpoint>
          <Trackpoint>
            <Time>2019-04-08T06:56:22.000Z</Time>
            <Position>
              <LatitudeDegrees>28.27247078530490398406982421875</LatitudeDegrees>
              <LongitudeDegrees>-16.6420637257397174835205078125</LongitudeDegrees>
            </Position>
            <AltitudeMeters>3700</AltitudeMeters>
            <DistanceMeters>10654.948930595</DistanceMeters>
          </Trackpoint>
          <Trackpoint>
            <Time>2019-04-08T06:56:41.000Z</Time>
            <Position>
              <LatitudeDegrees>28.272459805011749267578125</LatitudeDegrees>
              <LongitudeDegrees>-16.6420633904635906219482421875</LongitudeDegrees>
            </Position>
            <AltitudeMeters>3699.800048828125</AltitudeMeters>
            <DistanceMeters>10656.169570842</DistanceMeters>
          </Trackpoint>
          <Trackpoint>
            <Time>2019-04-08T06:56:51.000Z</Time>
            <Position>
              <LatitudeDegrees>28.27244547195732593536376953125</LatitudeDegrees>
              <LongitudeDegrees>-16.642054505646228790283203125</LongitudeDegrees>
            </Position>
            <AltitudeMeters>3698.800048828125</AltitudeMeters>
            <DistanceMeters>10657.985053671</DistanceMeters>
          </Trackpoint>
          <Trackpoint>
            <Time>2019-04-08T06:56:54.000Z</Time>
            <Position>
              <LatitudeDegrees>28.27244346030056476593017578125</LatitudeDegrees>
              <LongitudeDegrees>-16.64204671047627925872802734375</LongitudeDegrees>
            </Position>
            <AltitudeMeters>3698.800048828125</AltitudeMeters>
            <DistanceMeters>10658.780104205</DistanceMeters>
          </Trackpoint>
          <Trackpoint>
            <Time>2019-04-08T06:57:12.000Z</Time>
            <Position>
              <LatitudeDegrees>28.2724034786224365234375</LatitudeDegrees>
              <LongitudeDegrees>-16.64201938547194004058837890625</LongitudeDegrees>
            </Position>
            <AltitudeMeters>3698.39990234375</AltitudeMeters>
            <DistanceMeters>10663.973642338</DistanceMeters>
          </Trackpoint>
          <Trackpoint>
            <Time>2019-04-08T06:57:21.000Z</Time>
            <Position>
              <LatitudeDegrees>28.27237087301909923553466796875</LatitudeDegrees>
              <LongitudeDegrees>-16.6420027054846286773681640625</LongitudeDegrees>
            </Position>
            <AltitudeMeters>3697.800048828125</AltitudeMeters>
            <DistanceMeters>10667.953435559</DistanceMeters>
          </Trackpoint>
          <Trackpoint>
            <Time>2019-04-08T06:57:22.000Z</Time>
            <Position>
              <LatitudeDegrees>28.272366262972354888916015625</LatitudeDegrees>
              <LongitudeDegrees>-16.64200262166559696197509765625</LongitudeDegrees>
            </Position>
            <AltitudeMeters>3697.199951171875</AltitudeMeters>
            <DistanceMeters>10668.465170077</DistanceMeters>
          </Trackpoint>
          <Trackpoint>
            <Time>2019-04-08T06:57:26.000Z</Time>
            <Position>
              <LatitudeDegrees>28.27235293574631214141845703125</LatitudeDegrees>
              <LongitudeDegrees>-16.64199055172502994537353515625</LongitudeDegrees>
            </Position>
            <AltitudeMeters>3696.199951171875</AltitudeMeters>
            <DistanceMeters>10670.36332721</DistanceMeters>
          </Trackpoint>
          <Trackpoint>
            <Time>2019-04-08T06:57:29.000Z</Time>
            <Position>
              <LatitudeDegrees>28.27235243283212184906005859375</LatitudeDegrees>
              <LongitudeDegrees>-16.64198837243020534515380859375</LongitudeDegrees>
            </Position>
            <AltitudeMeters>3695</AltitudeMeters>
            <DistanceMeters>10670.596094172</DistanceMeters>
          </Trackpoint>
          <Trackpoint>
            <Time>2019-04-08T06:57:32.000Z</Time>
            <Position>
              <LatitudeDegrees>28.2723546959459781646728515625</LatitudeDegrees>
              <LongitudeDegrees>-16.64198434911668300628662109375</LongitudeDegrees>
            </Position>
            <AltitudeMeters>3695.39990234375</AltitudeMeters>
            <DistanceMeters>10671.061628096</DistanceMeters>
          </Trackpoint>
          <Trackpoint>
            <Time>2019-04-08T06:57:43.000Z</Time>
            <Position>
              <LatitudeDegrees>28.27235452830791473388671875</LatitudeDegrees>
              <LongitudeDegrees>-16.6419809125363826751708984375</LongitudeDegrees>
            </Position>
            <AltitudeMeters>3695.60009765625</AltitudeMeters>
            <DistanceMeters>10671.390810291</DistanceMeters>
          </Trackpoint>
          <Trackpoint>
            <Time>2019-04-08T06:57:54.000Z</Time>
            <Position>
              <LatitudeDegrees>28.27234405092895030975341796875</LatitudeDegrees>
              <LongitudeDegrees>-16.6419832594692707061767578125</LongitudeDegrees>
            </Position>
            <AltitudeMeters>3695.39990234375</AltitudeMeters>
            <DistanceMeters>10672.577693573</DistanceMeters>
          </Trackpoint>
          <Trackpoint>
            <Time>2019-04-08T06:57:56.000Z</Time>
            <Position>
              <LatitudeDegrees>28.27234405092895030975341796875</LatitudeDegrees>
              <LongitudeDegrees>-16.64198284037411212921142578125</LongitudeDegrees>
            </Position>
            <AltitudeMeters>3696.199951171875</AltitudeMeters>
            <DistanceMeters>10672.577693573</DistanceMeters>
          </Trackpoint>
          <Trackpoint>
            <Time>2019-04-08T06:58:01.000Z</Time>
            <Position>
              <LatitudeDegrees>28.27232343144714832305908203125</LatitudeDegrees>
              <LongitudeDegrees>-16.6419933177530765533447265625</LongitudeDegrees>
            </Position>
            <AltitudeMeters>3694.39990234375</AltitudeMeters>
            <DistanceMeters>10675.091864114</DistanceMeters>
          </Trackpoint>
          <Trackpoint>
            <Time>2019-04-08T06:58:03.000Z</Time>
            <Position>
              <LatitudeDegrees>28.27230884693562984466552734375</LatitudeDegrees>
              <LongitudeDegrees>-16.641989462077617645263671875</LongitudeDegrees>
            </Position>
            <AltitudeMeters>3693</AltitudeMeters>
            <DistanceMeters>10676.759576183</DistanceMeters>
          </Trackpoint>
          <Trackpoint>
            <Time>2019-04-08T06:58:08.000Z</Time>
            <Position>
              <LatitudeDegrees>28.27228990383446216583251953125</LatitudeDegrees>
              <LongitudeDegrees>-16.6419839300215244293212890625</LongitudeDegrees>
            </Position>
            <AltitudeMeters>3692.800048828125</AltitudeMeters>
            <DistanceMeters>10678.938984408</DistanceMeters>
          </Trackpoint>
          <Trackpoint>
            <Time>2019-04-08T06:58:12.000Z</Time>
            <Position>
              <LatitudeDegrees>28.272270374000072479248046875</LatitudeDegrees>
              <LongitudeDegrees>-16.6419882886111736297607421875</LongitudeDegrees>
            </Position>
            <AltitudeMeters>3691.800048828125</AltitudeMeters>
            <DistanceMeters>10681.153331153</DistanceMeters>
          </Trackpoint>
          <Trackpoint>
            <Time>2019-04-08T06:58:16.000Z</Time>
            <Position>
              <LatitudeDegrees>28.2722571305930614471435546875</LatitudeDegrees>
              <LongitudeDegrees>-16.641988456249237060546875</LongitudeDegrees>
            </Position>
            <AltitudeMeters>3691</AltitudeMeters>
            <DistanceMeters>10682.628542468</DistanceMeters>
          </Trackpoint>
          <Trackpoint>
            <Time>2019-04-08T06:58:17.000Z</Time>
            <Position>
              <LatitudeDegrees>28.27225151471793651580810546875</LatitudeDegrees>
              <LongitudeDegrees>-16.64199088700115680694580078125</LongitudeDegrees>
            </Position>
            <AltitudeMeters>3690.800048828125</AltitudeMeters>
            <DistanceMeters>10683.300482809</DistanceMeters>
          </Trackpoint>
          <Trackpoint>
            <Time>2019-04-08T06:58:24.000Z</Time>
            <Position>
              <LatitudeDegrees>28.27224262990057468414306640625</LatitudeDegrees>
              <LongitudeDegrees>-16.642011590301990509033203125</LongitudeDegrees>
            </Position>
            <AltitudeMeters>3689.60009765625</AltitudeMeters>
            <DistanceMeters>10685.557242237</DistanceMeters>
          </Trackpoint>
          <Trackpoint>
            <Time>2019-04-08T06:58:25.000Z</Time>
            <Position>
              <LatitudeDegrees>28.27224564738571643829345703125</LatitudeDegrees>
              <LongitudeDegrees>-16.64202039130032062530517578125</LongitudeDegrees>
            </Position>
            <AltitudeMeters>3689.39990234375</AltitudeMeters>
            <DistanceMeters>10686.483448079</DistanceMeters>
          </Trackpoint>
          <Trackpoint>
            <Time>2019-04-08T06:58:33.000Z</Time>
            <Position>
              <LatitudeDegrees>28.272254951298236846923828125</LatitudeDegrees>
              <LongitudeDegrees>-16.6420595347881317138671875</LongitudeDegrees>
            </Position>
            <AltitudeMeters>3688.199951171875</AltitudeMeters>
            <DistanceMeters>10690.457564798</DistanceMeters>
          </Trackpoint>
          <Trackpoint>
            <Time>2019-04-08T06:58:34.000Z</Time>
            <Position>
              <LatitudeDegrees>28.2722500897943973541259765625</LatitudeDegrees>
              <LongitudeDegrees>-16.64206095971167087554931640625</LongitudeDegrees>
            </Position>
            <AltitudeMeters>3688</AltitudeMeters>
            <DistanceMeters>10691.019750422</DistanceMeters>
          </Trackpoint>
          <Trackpoint>
            <Time>2019-04-08T06:58:41.000Z</Time>
            <Position>
              <LatitudeDegrees>28.27222620137035846710205078125</LatitudeDegrees>
              <LongitudeDegrees>-16.642061211168766021728515625</LongitudeDegrees>
            </Position>
            <AltitudeMeters>3688.199951171875</AltitudeMeters>
            <DistanceMeters>10693.678800977</DistanceMeters>
          </Trackpoint>
          <Trackpoint>
            <Time>2019-04-08T06:58:43.000Z</Time>
            <Position>
              <LatitudeDegrees>28.27221639454364776611328125</LatitudeDegrees>
              <LongitudeDegrees>-16.642061881721019744873046875</LongitudeDegrees>
            </Position>
            <AltitudeMeters>3686.800048828125</AltitudeMeters>
            <DistanceMeters>10694.774702509</DistanceMeters>
          </Trackpoint>
          <Trackpoint>
            <Time>2019-04-08T06:58:48.000Z</Time>
            <Position>
              <LatitudeDegrees>28.27219099737703800201416015625</LatitudeDegrees>
              <LongitudeDegrees>-16.6420690901577472686767578125</LongitudeDegrees>
            </Position>
            <AltitudeMeters>3685.800048828125</AltitudeMeters>
            <DistanceMeters>10697.688166402</DistanceMeters>
          </Trackpoint>
          <Trackpoint>
            <Time>2019-04-08T06:58:49.000Z</Time>
            <Position>
              <LatitudeDegrees>28.27218697406351566314697265625</LatitudeDegrees>
              <LongitudeDegrees>-16.64207168854773044586181640625</LongitudeDegrees>
            </Position>
            <AltitudeMeters>3685.800048828125</AltitudeMeters>
            <DistanceMeters>10698.208649153</DistanceMeters>
          </Trackpoint>
          <Trackpoint>
            <Time>2019-04-08T06:58:58.000Z</Time>
            <Position>
              <LatitudeDegrees>28.272143304347991943359375</LatitudeDegrees>
              <LongitudeDegrees>-16.6420918889343738555908203125</LongitudeDegrees>
            </Position>
            <AltitudeMeters>3685.60009765625</AltitudeMeters>
            <DistanceMeters>10703.457531246</DistanceMeters>
          </Trackpoint>
          <Trackpoint>
            <Time>2019-04-08T06:59:03.000Z</Time>
            <Position>
              <LatitudeDegrees>28.272112123668193817138671875</LatitudeDegrees>
              <LongitudeDegrees>-16.6421051323413848876953125</LongitudeDegrees>
            </Position>
            <AltitudeMeters>3684.800048828125</AltitudeMeters>
            <DistanceMeters>10707.164791197</DistanceMeters>
          </Trackpoint>
          <Trackpoint>
            <Time>2019-04-08T06:59:05.000Z</Time>
            <Position>
              <LatitudeDegrees>28.2721008919179439544677734375</LatitudeDegrees>
              <LongitudeDegrees>-16.64211745373904705047607421875</LongitudeDegrees>
            </Position>
            <AltitudeMeters>3683.60009765625</AltitudeMeters>
            <DistanceMeters>10708.901467774</DistanceMeters>
          </Trackpoint>
          <Trackpoint>
            <Time>2019-04-08T06:59:06.000Z</Time>
            <Position>
              <LatitudeDegrees>28.2720938511192798614501953125</LatitudeDegrees>
              <LongitudeDegrees>-16.64212063886225223541259765625</LongitudeDegrees>
            </Position>
            <AltitudeMeters>3683.39990234375</AltitudeMeters>
            <DistanceMeters>10709.740720991</DistanceMeters>
          </Trackpoint>
          <Trackpoint>
            <Time>2019-04-08T06:59:09.000Z</Time>
            <Position>
              <LatitudeDegrees>28.2720650173723697662353515625</LatitudeDegrees>
              <LongitudeDegrees>-16.64212231524288654327392578125</LongitudeDegrees>
            </Position>
            <AltitudeMeters>3683.199951171875</AltitudeMeters>
            <DistanceMeters>10712.953411044</DistanceMeters>
          </Trackpoint>
          <Trackpoint>
            <Time>2019-04-08T06:59:12.000Z</Time>
            <Position>
              <LatitudeDegrees>28.2720455713570117950439453125</LatitudeDegrees>
              <LongitudeDegrees>-16.642101109027862548828125</LongitudeDegrees>
            </Position>
            <AltitudeMeters>3683.39990234375</AltitudeMeters>
            <DistanceMeters>10715.955413091</DistanceMeters>
          </Trackpoint>
          <Trackpoint>
            <Time>2019-04-08T06:59:14.000Z</Time>
            <Position>
              <LatitudeDegrees>28.27203677035868167877197265625</LatitudeDegrees>
              <LongitudeDegrees>-16.642085351049900054931640625</LongitudeDegrees>
            </Position>
            <AltitudeMeters>3684.60009765625</AltitudeMeters>
            <DistanceMeters>10717.783288438</DistanceMeters>
          </Trackpoint>
          <Trackpoint>
            <Time>2019-04-08T06:59:19.000Z</Time>
            <Position>
              <LatitudeDegrees>28.27201313339173793792724609375</LatitudeDegrees>
              <LongitudeDegrees>-16.6420657373964786529541015625</LongitudeDegrees>
            </Position>
            <AltitudeMeters>3685.199951171875</AltitudeMeters>
            <DistanceMeters>10721.043411132</DistanceMeters>
          </Trackpoint>
          <Trackpoint>
            <Time>2019-04-08T06:59:26.000Z</Time>
            <Position>
              <LatitudeDegrees>28.27198429964482784271240234375</LatitudeDegrees>
              <LongitudeDegrees>-16.6420637257397174835205078125</LongitudeDegrees>
            </Position>
            <AltitudeMeters>3683.60009765625</AltitudeMeters>
            <DistanceMeters>10724.258910708</DistanceMeters>
          </Trackpoint>
          <Trackpoint>
            <Time>2019-04-08T06:59:36.000Z</Time>
            <Position>
              <LatitudeDegrees>28.2719407975673675537109375</LatitudeDegrees>
              <LongitudeDegrees>-16.6420586965978145599365234375</LongitudeDegrees>
            </Position>
            <AltitudeMeters>3682.39990234375</AltitudeMeters>
            <DistanceMeters>10729.125725941</DistanceMeters>
          </Trackpoint>
          <Trackpoint>
            <Time>2019-04-08T06:59:37.000Z</Time>
            <Position>
              <LatitudeDegrees>28.2719366066157817840576171875</LatitudeDegrees>
              <LongitudeDegrees>-16.64206582121551036834716796875</LongitudeDegrees>
            </Position>
            <AltitudeMeters>3681.800048828125</AltitudeMeters>
            <DistanceMeters>10729.964979159</DistanceMeters>
          </Trackpoint>
          <Trackpoint>
            <Time>2019-04-08T06:59:46.000Z</Time>
            <Position>
              <LatitudeDegrees>28.27190785668790340423583984375</LatitudeDegrees>
              <LongitudeDegrees>-16.64206431247293949127197265625</LongitudeDegrees>
            </Position>
            <AltitudeMeters>3680.199951171875</AltitudeMeters>
            <DistanceMeters>10733.16781647</DistanceMeters>
          </Trackpoint>
          <Trackpoint>
            <Time>2019-04-08T06:59:47.000Z</Time>
            <Position>
              <LatitudeDegrees>28.27190768904983997344970703125</LatitudeDegrees>
              <LongitudeDegrees>-16.6420633904635906219482421875</LongitudeDegrees>
            </Position>
            <AltitudeMeters>3679.60009765625</AltitudeMeters>
            <DistanceMeters>10733.302204538</DistanceMeters>
          </Trackpoint>
          <Trackpoint>
            <Time>2019-04-08T06:59:49.000Z</Time>
            <Position>
              <LatitudeDegrees>28.2719020731747150421142578125</LatitudeDegrees>
              <LongitudeDegrees>-16.642061211168766021728515625</LongitudeDegrees>
            </Position>
            <AltitudeMeters>3679.199951171875</AltitudeMeters>
            <DistanceMeters>10733.967391538</DistanceMeters>
          </Trackpoint>
          <Trackpoint>
            <Time>2019-04-08T06:59:57.000Z</Time>
            <Position>
              <LatitudeDegrees>28.2718963734805583953857421875</LatitudeDegrees>
              <LongitudeDegrees>-16.6420590318739414215087890625</LongitudeDegrees>
            </Position>
            <AltitudeMeters>3678.39990234375</AltitudeMeters>
            <DistanceMeters>10734.632578539</DistanceMeters>
          </Trackpoint>
          <Trackpoint>
            <Time>2019-04-08T07:00:02.000Z</Time>
            <Position>
              <LatitudeDegrees>28.27188874594867229461669921875</LatitudeDegrees>
              <LongitudeDegrees>-16.64206883870065212249755859375</LongitudeDegrees>
            </Position>
            <AltitudeMeters>3678.199951171875</AltitudeMeters>
            <DistanceMeters>10735.914559004</DistanceMeters>
          </Trackpoint>
          <Trackpoint>
            <Time>2019-04-08T07:00:06.000Z</Time>
            <Position>
              <LatitudeDegrees>28.27187717892229557037353515625</LatitudeDegrees>
              <LongitudeDegrees>-16.64207822643220424652099609375</LongitudeDegrees>
            </Position>
            <AltitudeMeters>3677.60009765625</AltitudeMeters>
            <DistanceMeters>10737.498970962</DistanceMeters>
          </Trackpoint>
          <Trackpoint>
            <Time>2019-04-08T07:00:10.000Z</Time>
            <Position>
              <LatitudeDegrees>28.27186594717204570770263671875</LatitudeDegrees>
              <LongitudeDegrees>-16.6420825012028217315673828125</LongitudeDegrees>
            </Position>
            <AltitudeMeters>3677</AltitudeMeters>
            <DistanceMeters>10738.815699741</DistanceMeters>
          </Trackpoint>
          <Trackpoint>
            <Time>2019-04-08T07:00:12.000Z</Time>
            <Position>
              <LatitudeDegrees>28.2718604989349842071533203125</LatitudeDegrees>
              <LongitudeDegrees>-16.64207772351801395416259765625</LongitudeDegrees>
            </Position>
            <AltitudeMeters>3676</AltitudeMeters>
            <DistanceMeters>10739.581829605</DistanceMeters>
          </Trackpoint>
          <Trackpoint>
            <Time>2019-04-08T07:00:18.000Z</Time>
            <Position>
              <LatitudeDegrees>28.271841891109943389892578125</LatitudeDegrees>
              <LongitudeDegrees>-16.6420543380081653594970703125</LongitudeDegrees>
            </Position>
            <AltitudeMeters>3675.199951171875</AltitudeMeters>
            <DistanceMeters>10742.671294089</DistanceMeters>
          </Trackpoint>
          <Trackpoint>
            <Time>2019-04-08T07:00:19.000Z</Time>
            <Position>
              <LatitudeDegrees>28.271842561662197113037109375</LatitudeDegrees>
              <LongitudeDegrees>-16.64204721339046955108642578125</LongitudeDegrees>
            </Position>
            <AltitudeMeters>3674.800048828125</AltitudeMeters>
            <DistanceMeters>10743.369594976</DistanceMeters>
          </Trackpoint>
          <Trackpoint>
            <Time>2019-04-08T07:00:22.000Z</Time>
            <Position>
              <LatitudeDegrees>28.27184231020510196685791015625</LatitudeDegrees>
              <LongitudeDegrees>-16.6420358978211879730224609375</LongitudeDegrees>
            </Position>
            <AltitudeMeters>3673.800048828125</AltitudeMeters>
            <DistanceMeters>10744.477787376</DistanceMeters>
          </Trackpoint>
          <Trackpoint>
            <Time>2019-04-08T07:00:29.000Z</Time>
            <Position>
              <LatitudeDegrees>28.271833173930644989013671875</LatitudeDegrees>
              <LongitudeDegrees>-16.64202173240482807159423828125</LongitudeDegrees>
            </Position>
            <AltitudeMeters>3673.39990234375</AltitudeMeters>
            <DistanceMeters>10746.19879437</DistanceMeters>
          </Trackpoint>
          <Trackpoint>
            <Time>2019-04-08T07:00:35.000Z</Time>
            <Position>
              <LatitudeDegrees>28.27183275483548641204833984375</LatitudeDegrees>
              <LongitudeDegrees>-16.6420107521116733551025390625</LongitudeDegrees>
            </Position>
            <AltitudeMeters>3672.60009765625</AltitudeMeters>
            <DistanceMeters>10747.273898916</DistanceMeters>
          </Trackpoint>
          <Trackpoint>
            <Time>2019-04-08T07:00:42.000Z</Time>
            <Position>
              <LatitudeDegrees>28.27184348367154598236083984375</LatitudeDegrees>
              <LongitudeDegrees>-16.6419718600809574127197265625</LongitudeDegrees>
            </Position>
            <AltitudeMeters>3671.39990234375</AltitudeMeters>
            <DistanceMeters>10751.268413289</DistanceMeters>
          </Trackpoint>
          <Trackpoint>
            <Time>2019-04-08T07:00:43.000Z</Time>
            <Position>
              <LatitudeDegrees>28.27184499241411685943603515625</LatitudeDegrees>
              <LongitudeDegrees>-16.6419671662151813507080078125</LongitudeDegrees>
            </Position>
            <AltitudeMeters>3671.199951171875</AltitudeMeters>
            <DistanceMeters>10751.75295636</DistanceMeters>
          </Trackpoint>
          <Trackpoint>
            <Time>2019-04-08T07:00:50.000Z</Time>
            <Position>
              <LatitudeDegrees>28.27183258719742298126220703125</LatitudeDegrees>
              <LongitudeDegrees>-16.64195719175040721893310546875</LongitudeDegrees>
            </Position>
            <AltitudeMeters>3671.39990234375</AltitudeMeters>
            <DistanceMeters>10753.444858908</DistanceMeters>
          </Trackpoint>
          <Trackpoint>
            <Time>2019-04-08T07:00:58.000Z</Time>
            <Position>
              <LatitudeDegrees>28.2718209363520145416259765625</LatitudeDegrees>
              <LongitudeDegrees>-16.64195434190332889556884765625</LongitudeDegrees>
            </Position>
            <AltitudeMeters>3670</AltitudeMeters>
            <DistanceMeters>10754.771834758</DistanceMeters>
          </Trackpoint>
          <Trackpoint>
            <Time>2019-04-08T07:01:01.000Z</Time>
            <Position>
              <LatitudeDegrees>28.2718169130384922027587890625</LatitudeDegrees>
              <LongitudeDegrees>-16.6419557668268680572509765625</LongitudeDegrees>
            </Position>
            <AltitudeMeters>3669.60009765625</AltitudeMeters>
            <DistanceMeters>10755.237368683</DistanceMeters>
          </Trackpoint>
          <Trackpoint>
            <Time>2019-04-08T07:01:12.000Z</Time>
            <Position>
              <LatitudeDegrees>28.271808363497257232666015625</LatitudeDegrees>
              <LongitudeDegrees>-16.6419602930545806884765625</LongitudeDegrees>
            </Position>
            <AltitudeMeters>3669.60009765625</AltitudeMeters>
            <DistanceMeters>10756.286973049</DistanceMeters>
          </Trackpoint>
          <Trackpoint>
            <Time>2019-04-08T07:01:19.000Z</Time>
            <Position>
              <LatitudeDegrees>28.2717967964708805084228515625</LatitudeDegrees>
              <LongitudeDegrees>-16.64197437465190887451171875</LongitudeDegrees>
            </Position>
            <AltitudeMeters>3669.199951171875</AltitudeMeters>
            <DistanceMeters>10758.173199472</DistanceMeters>
          </Trackpoint>
          <Trackpoint>
            <Time>2019-04-08T07:01:23.000Z</Time>
            <Position>
              <LatitudeDegrees>28.2717817090451717376708984375</LatitudeDegrees>
              <LongitudeDegrees>-16.64197730831801891326904296875</LongitudeDegrees>
            </Position>
            <AltitudeMeters>3668.800048828125</AltitudeMeters>
            <DistanceMeters>10759.875743022</DistanceMeters>
          </Trackpoint>
          <Trackpoint>
            <Time>2019-04-08T07:01:26.000Z</Time>
            <Position>
              <LatitudeDegrees>28.27177626080811023712158203125</LatitudeDegrees>
              <LongitudeDegrees>-16.64197848178446292877197265625</LongitudeDegrees>
            </Position>
            <AltitudeMeters>3668.39990234375</AltitudeMeters>
            <DistanceMeters>10760.491586517</DistanceMeters>
          </Trackpoint>
          <Trackpoint>
            <Time>2019-04-08T07:01:33.000Z</Time>
            <Position>
              <LatitudeDegrees>28.27177324332296848297119140625</LatitudeDegrees>
              <LongitudeDegrees>-16.64196289144456386566162109375</LongitudeDegrees>
            </Position>
            <AltitudeMeters>3667.60009765625</AltitudeMeters>
            <DistanceMeters>10762.055923666</DistanceMeters>
          </Trackpoint>
          <Trackpoint>
            <Time>2019-04-08T07:01:44.000Z</Time>
            <Position>
              <LatitudeDegrees>28.27176938764750957489013671875</LatitudeDegrees>
              <LongitudeDegrees>-16.64193707518279552459716796875</LongitudeDegrees>
            </Position>
            <AltitudeMeters>3668</AltitudeMeters>
            <DistanceMeters>10764.623404105</DistanceMeters>
          </Trackpoint>
          <Trackpoint>
            <Time>2019-04-08T07:01:48.000Z</Time>
            <Position>
              <LatitudeDegrees>28.2717622630298137664794921875</LatitudeDegrees>
              <LongitudeDegrees>-16.6419165395200252532958984375</LongitudeDegrees>
            </Position>
            <AltitudeMeters>3666.39990234375</AltitudeMeters>
            <DistanceMeters>10766.788261993</DistanceMeters>
          </Trackpoint>
          <Trackpoint>
            <Time>2019-04-08T07:01:54.000Z</Time>
            <Position>
              <LatitudeDegrees>28.27175430022180080413818359375</LatitudeDegrees>
              <LongitudeDegrees>-16.641894243657588958740234375</LongitudeDegrees>
            </Position>
            <AltitudeMeters>3665.39990234375</AltitudeMeters>
            <DistanceMeters>10769.146763019</DistanceMeters>
          </Trackpoint>
          <Trackpoint>
            <Time>2019-04-08T07:02:02.000Z</Time>
            <Position>
              <LatitudeDegrees>28.27174164354801177978515625</LatitudeDegrees>
              <LongitudeDegrees>-16.64188024587929248809814453125</LongitudeDegrees>
            </Position>
            <AltitudeMeters>3664.199951171875</AltitudeMeters>
            <DistanceMeters>10771.112690972</DistanceMeters>
          </Trackpoint>
          <Trackpoint>
            <Time>2019-04-08T07:02:03.000Z</Time>
            <Position>
              <LatitudeDegrees>28.27174088917672634124755859375</LatitudeDegrees>
              <LongitudeDegrees>-16.64187270216643810272216796875</LongitudeDegrees>
            </Position>
            <AltitudeMeters>3663.800048828125</AltitudeMeters>
            <DistanceMeters>10771.86093207</DistanceMeters>
          </Trackpoint>
          <Trackpoint>
            <Time>2019-04-08T07:02:11.000Z</Time>
            <Position>
              <LatitudeDegrees>28.2717384584248065948486328125</LatitudeDegrees>
              <LongitudeDegrees>-16.64184604771435260772705078125</LongitudeDegrees>
            </Position>
            <AltitudeMeters>3663</AltitudeMeters>
            <DistanceMeters>10774.487522712</DistanceMeters>
          </Trackpoint>
          <Trackpoint>
            <Time>2019-04-08T07:02:12.000Z</Time>
            <Position>
              <LatitudeDegrees>28.2717357762157917022705078125</LatitudeDegrees>
              <LongitudeDegrees>-16.641843952238559722900390625</LongitudeDegrees>
            </Position>
            <AltitudeMeters>3662.800048828125</AltitudeMeters>
            <DistanceMeters>10774.84308012</DistanceMeters>
          </Trackpoint>
          <Trackpoint>
            <Time>2019-04-08T07:02:16.000Z</Time>
            <Position>
              <LatitudeDegrees>28.2717181742191314697265625</LatitudeDegrees>
              <LongitudeDegrees>-16.64183179847896099090576171875</LongitudeDegrees>
            </Position>
            <AltitudeMeters>3662</AltitudeMeters>
            <DistanceMeters>10777.133598492</DistanceMeters>
          </Trackpoint>
          <Trackpoint>
            <Time>2019-04-08T07:02:19.000Z</Time>
            <Position>
              <LatitudeDegrees>28.2717082835733890533447265625</LatitudeDegrees>
              <LongitudeDegrees>-16.6418310441076755523681640625</LongitudeDegrees>
            </Position>
            <AltitudeMeters>3661.39990234375</AltitudeMeters>
            <DistanceMeters>10778.237709139</DistanceMeters>
          </Trackpoint>
          <Trackpoint>
            <Time>2019-04-08T07:02:22.000Z</Time>
            <Position>
              <LatitudeDegrees>28.271703086793422698974609375</LatitudeDegrees>
              <LongitudeDegrees>-16.64184470660984516143798828125</LongitudeDegrees>
            </Position>
            <AltitudeMeters>3661</AltitudeMeters>
            <DistanceMeters>10779.697537225</DistanceMeters>
          </Trackpoint>
          <Trackpoint>
            <Time>2019-04-08T07:02:23.000Z</Time>
            <Position>
              <LatitudeDegrees>28.27169747091829776763916015625</LatitudeDegrees>
              <LongitudeDegrees>-16.64184940047562122344970703125</LongitudeDegrees>
            </Position>
            <AltitudeMeters>3660.800048828125</AltitudeMeters>
            <DistanceMeters>10780.475364405</DistanceMeters>
          </Trackpoint>
          <Trackpoint>
            <Time>2019-04-08T07:02:27.000Z</Time>
            <Position>
              <LatitudeDegrees>28.27168171294033527374267578125</LatitudeDegrees>
              <LongitudeDegrees>-16.64186633192002773284912109375</LongitudeDegrees>
            </Position>
            <AltitudeMeters>3660.199951171875</AltitudeMeters>
            <DistanceMeters>10782.890613746</DistanceMeters>
          </Trackpoint>
          <Trackpoint>
            <Time>2019-04-08T07:02:29.000Z</Time>
            <Position>
              <LatitudeDegrees>28.27167450450360774993896484375</LatitudeDegrees>
              <LongitudeDegrees>-16.64188007824122905731201171875</LongitudeDegrees>
            </Position>
            <AltitudeMeters>3658.60009765625</AltitudeMeters>
            <DistanceMeters>10784.460712746</DistanceMeters>
          </Trackpoint>
          <Trackpoint>
            <Time>2019-04-08T07:02:34.000Z</Time>
            <Position>
              <LatitudeDegrees>28.2716593332588672637939453125</LatitudeDegrees>
              <LongitudeDegrees>-16.64187840186059474945068359375</LongitudeDegrees>
            </Position>
            <AltitudeMeters>3657.800048828125</AltitudeMeters>
            <DistanceMeters>10786.155281809</DistanceMeters>
          </Trackpoint>
          <Trackpoint>
            <Time>2019-04-08T07:02:40.000Z</Time>
            <Position>
              <LatitudeDegrees>28.271650783717632293701171875</LatitudeDegrees>
              <LongitudeDegrees>-16.64187102578580379486083984375</LongitudeDegrees>
            </Position>
            <AltitudeMeters>3657.39990234375</AltitudeMeters>
            <DistanceMeters>10787.349749087</DistanceMeters>
          </Trackpoint>
          <Trackpoint>
            <Time>2019-04-08T07:02:44.000Z</Time>
            <Position>
              <LatitudeDegrees>28.2716486044228076934814453125</LatitudeDegrees>
              <LongitudeDegrees>-16.6418833471834659576416015625</LongitudeDegrees>
            </Position>
            <AltitudeMeters>3656.800048828125</AltitudeMeters>
            <DistanceMeters>10788.581436078</DistanceMeters>
          </Trackpoint>
          <Trackpoint>
            <Time>2019-04-08T07:02:49.000Z</Time>
            <Position>
              <LatitudeDegrees>28.27163997106254100799560546875</LatitudeDegrees>
              <LongitudeDegrees>-16.6418637335300445556640625</LongitudeDegrees>
            </Position>
            <AltitudeMeters>3656.39990234375</AltitudeMeters>
            <DistanceMeters>10790.73164517</DistanceMeters>
          </Trackpoint>
          <Trackpoint>
            <Time>2019-04-08T07:02:53.000Z</Time>
            <Position>
              <LatitudeDegrees>28.271628320217132568359375</LatitudeDegrees>
              <LongitudeDegrees>-16.64184353314340114593505859375</LongitudeDegrees>
            </Position>
            <AltitudeMeters>3655.39990234375</AltitudeMeters>
            <DistanceMeters>10793.097791276</DistanceMeters>
          </Trackpoint>
          <Trackpoint>
            <Time>2019-04-08T07:02:55.000Z</Time>
            <Position>
              <LatitudeDegrees>28.27163008041679859161376953125</LatitudeDegrees>
              <LongitudeDegrees>-16.64183892309665679931640625</LongitudeDegrees>
            </Position>
            <AltitudeMeters>3655</AltitudeMeters>
            <DistanceMeters>10793.591564568</DistanceMeters>
          </Trackpoint>
          <Trackpoint>
            <Time>2019-04-08T07:03:03.000Z</Time>
            <Position>
              <LatitudeDegrees>28.27162270434200763702392578125</LatitudeDegrees>
              <LongitudeDegrees>-16.64180832915008068084716796875</LongitudeDegrees>
            </Position>
            <AltitudeMeters>3654</AltitudeMeters>
            <DistanceMeters>10796.702873287</DistanceMeters>
          </Trackpoint>
          <Trackpoint>
            <Time>2019-04-08T07:03:05.000Z</Time>
            <Position>
              <LatitudeDegrees>28.271621279418468475341796875</LatitudeDegrees>
              <LongitudeDegrees>-16.6418069042265415191650390625</LongitudeDegrees>
            </Position>
            <AltitudeMeters>3653.800048828125</AltitudeMeters>
            <DistanceMeters>10796.91535948</DistanceMeters>
          </Trackpoint>
          <Trackpoint>
            <Time>2019-04-08T07:03:20.000Z</Time>
            <Position>
              <LatitudeDegrees>28.27160074375569820404052734375</LatitudeDegrees>
              <LongitudeDegrees>-16.6417318023741245269775390625</LongitudeDegrees>
            </Position>
            <AltitudeMeters>3652.60009765625</AltitudeMeters>
            <DistanceMeters>10804.623660396</DistanceMeters>
          </Trackpoint>
          <Trackpoint>
            <Time>2019-04-08T07:03:22.000Z</Time>
            <Position>
              <LatitudeDegrees>28.27159923501312732696533203125</LatitudeDegrees>
              <LongitudeDegrees>-16.64172568358480930328369140625</LongitudeDegrees>
            </Position>
            <AltitudeMeters>3651.800048828125</AltitudeMeters>
            <DistanceMeters>10805.246792233</DistanceMeters>
          </Trackpoint>
          <Trackpoint>
            <Time>2019-04-08T07:03:24.000Z</Time>
            <Position>
              <LatitudeDegrees>28.27159814536571502685546875</LatitudeDegrees>
              <LongitudeDegrees>-16.641724593937397003173828125</LongitudeDegrees>
            </Position>
            <AltitudeMeters>3651.39990234375</AltitudeMeters>
            <DistanceMeters>10805.436845662</DistanceMeters>
          </Trackpoint>
          <Trackpoint>
            <Time>2019-04-08T07:03:28.000Z</Time>
            <Position>
              <LatitudeDegrees>28.27159688808023929595947265625</LatitudeDegrees>
              <LongitudeDegrees>-16.64172015152871608734130859375</LongitudeDegrees>
            </Position>
            <AltitudeMeters>3650.39990234375</AltitudeMeters>
            <DistanceMeters>10805.902379586</DistanceMeters>
          </Trackpoint>
          <Trackpoint>
            <Time>2019-04-08T07:03:34.000Z</Time>
            <Position>
              <LatitudeDegrees>28.27158607542514801025390625</LatitudeDegrees>
              <LongitudeDegrees>-16.64169936440885066986083984375</LongitudeDegrees>
            </Position>
            <AltitudeMeters>3649.39990234375</AltitudeMeters>
            <DistanceMeters>10808.268525692</DistanceMeters>
          </Trackpoint>
          <Trackpoint>
            <Time>2019-04-08T07:03:35.000Z</Time>
            <Position>
              <LatitudeDegrees>28.271583728492259979248046875</LatitudeDegrees>
              <LongitudeDegrees>-16.6416959278285503387451171875</LongitudeDegrees>
            </Position>
            <AltitudeMeters>3649</AltitudeMeters>
            <DistanceMeters>10808.682737537</DistanceMeters>
          </Trackpoint>
          <Trackpoint>
            <Time>2019-04-08T07:03:40.000Z</Time>
            <Position>
              <LatitudeDegrees>28.27157811261713504791259765625</LatitudeDegrees>
              <LongitudeDegrees>-16.64168779738247394561767578125</LongitudeDegrees>
            </Position>
            <AltitudeMeters>3647.800048828125</AltitudeMeters>
            <DistanceMeters>10809.697345203</DistanceMeters>
          </Trackpoint>
          <Trackpoint>
            <Time>2019-04-08T07:03:45.000Z</Time>
            <Position>
              <LatitudeDegrees>28.2715728320181369781494140625</LatitudeDegrees>
              <LongitudeDegrees>-16.64167405106127262115478515625</LongitudeDegrees>
            </Position>
            <AltitudeMeters>3646.800048828125</AltitudeMeters>
            <DistanceMeters>10811.169492731</DistanceMeters>
          </Trackpoint>
          <Trackpoint>
            <Time>2019-04-08T07:03:53.000Z</Time>
            <Position>
              <LatitudeDegrees>28.27155732549726963043212890625</LatitudeDegrees>
              <LongitudeDegrees>-16.64167505688965320587158203125</LongitudeDegrees>
            </Position>
            <AltitudeMeters>3646</AltitudeMeters>
            <DistanceMeters>10812.89835227</DistanceMeters>
          </Trackpoint>
          <Trackpoint>
            <Time>2019-04-08T07:03:56.000Z</Time>
            <Position>
              <LatitudeDegrees>28.27155313454568386077880859375</LatitudeDegrees>
              <LongitudeDegrees>-16.64169408380985260009765625</LongitudeDegrees>
            </Position>
            <AltitudeMeters>3645.60009765625</AltitudeMeters>
            <DistanceMeters>10814.822496584</DistanceMeters>
          </Trackpoint>
          <Trackpoint>
            <Time>2019-04-08T07:04:00.000Z</Time>
            <Position>
              <LatitudeDegrees>28.27154492028057575225830078125</LatitudeDegrees>
              <LongitudeDegrees>-16.64171612821519374847412109375</LongitudeDegrees>
            </Position>
            <AltitudeMeters>3644.199951171875</AltitudeMeters>
            <DistanceMeters>10817.169483297</DistanceMeters>
          </Trackpoint>
          <Trackpoint>
            <Time>2019-04-08T07:04:01.000Z</Time>
            <Position>
              <LatitudeDegrees>28.271546177566051483154296875</LatitudeDegrees>
              <LongitudeDegrees>-16.641720570623874664306640625</LongitudeDegrees>
            </Position>
            <AltitudeMeters>3644</AltitudeMeters>
            <DistanceMeters>10817.615198096</DistanceMeters>
          </Trackpoint>
          <Trackpoint>
            <Time>2019-04-08T07:04:10.000Z</Time>
            <Position>
              <LatitudeDegrees>28.27151834964752197265625</LatitudeDegrees>
              <LongitudeDegrees>-16.6417428664863109588623046875</LongitudeDegrees>
            </Position>
            <AltitudeMeters>3644</AltitudeMeters>
            <DistanceMeters>10821.405561089</DistanceMeters>
          </Trackpoint>
          <Trackpoint>
            <Time>2019-04-08T07:04:15.000Z</Time>
            <Position>
              <LatitudeDegrees>28.27150334604084491729736328125</LatitudeDegrees>
              <LongitudeDegrees>-16.6417344845831394195556640625</LongitudeDegrees>
            </Position>
            <AltitudeMeters>3643.199951171875</AltitudeMeters>
            <DistanceMeters>10823.262841144</DistanceMeters>
          </Trackpoint>
          <Trackpoint>
            <Time>2019-04-08T07:04:20.000Z</Time>
            <Position>
              <LatitudeDegrees>28.27148876152932643890380859375</LatitudeDegrees>
              <LongitudeDegrees>-16.64171579293906688690185546875</LongitudeDegrees>
            </Position>
            <AltitudeMeters>3642</AltitudeMeters>
            <DistanceMeters>10825.711508283</DistanceMeters>
          </Trackpoint>
          <Trackpoint>
            <Time>2019-04-08T07:04:22.000Z</Time>
            <Position>
              <LatitudeDegrees>28.2714846543967723846435546875</LatitudeDegrees>
              <LongitudeDegrees>-16.64170238189399242401123046875</LongitudeDegrees>
            </Position>
            <AltitudeMeters>3641.800048828125</AltitudeMeters>
            <DistanceMeters>10827.104873431</DistanceMeters>
          </Trackpoint>
          <Trackpoint>
            <Time>2019-04-08T07:04:26.000Z</Time>
            <Position>
              <LatitudeDegrees>28.2714796252548694610595703125</LatitudeDegrees>
              <LongitudeDegrees>-16.641678325831890106201171875</LongitudeDegrees>
            </Position>
            <AltitudeMeters>3640.800048828125</AltitudeMeters>
            <DistanceMeters>10829.527588785</DistanceMeters>
          </Trackpoint>
          <Trackpoint>
            <Time>2019-04-08T07:04:31.000Z</Time>
            <Position>
              <LatitudeDegrees>28.271483480930328369140625</LatitudeDegrees>
              <LongitudeDegrees>-16.641672290861606597900390625</LongitudeDegrees>
            </Position>
            <AltitudeMeters>3639.800048828125</AltitudeMeters>
            <DistanceMeters>10830.257502828</DistanceMeters>
          </Trackpoint>
          <Trackpoint>
            <Time>2019-04-08T07:04:35.000Z</Time>
            <Position>
              <LatitudeDegrees>28.2714807987213134765625</LatitudeDegrees>
              <LongitudeDegrees>-16.64166432805359363555908203125</LongitudeDegrees>
            </Position>
            <AltitudeMeters>3639.39990234375</AltitudeMeters>
            <DistanceMeters>10831.091358863</DistanceMeters>
          </Trackpoint>
          <Trackpoint>
            <Time>2019-04-08T07:04:42.000Z</Time>
            <Position>
              <LatitudeDegrees>28.271469734609127044677734375</LatitudeDegrees>
              <LongitudeDegrees>-16.6416597180068492889404296875</LongitudeDegrees>
            </Position>
            <AltitudeMeters>3638.60009765625</AltitudeMeters>
            <DistanceMeters>10832.401211726</DistanceMeters>
          </Trackpoint>
          <Trackpoint>
            <Time>2019-04-08T07:04:45.000Z</Time>
            <Position>
              <LatitudeDegrees>28.271459005773067474365234375</LatitudeDegrees>
              <LongitudeDegrees>-16.6416741348803043365478515625</LongitudeDegrees>
            </Position>
            <AltitudeMeters>3637.199951171875</AltitudeMeters>
            <DistanceMeters>10834.248742212</DistanceMeters>
          </Trackpoint>
          <Trackpoint>
            <Time>2019-04-08T07:04:56.000Z</Time>
            <Position>
              <LatitudeDegrees>28.2714216224849224090576171875</LatitudeDegrees>
              <LongitudeDegrees>-16.64169802330434322357177734375</LongitudeDegrees>
            </Position>
            <AltitudeMeters>3636</AltitudeMeters>
            <DistanceMeters>10839.022829868</DistanceMeters>
          </Trackpoint>
          <Trackpoint>
            <Time>2019-04-08T07:04:57.000Z</Time>
            <Position>
              <LatitudeDegrees>28.2714189402759075164794921875</LatitudeDegrees>
              <LongitudeDegrees>-16.64169450290501117706298828125</LongitudeDegrees>
            </Position>
            <AltitudeMeters>3636</AltitudeMeters>
            <DistanceMeters>10839.47856198</DistanceMeters>
          </Trackpoint>
          <Trackpoint>
            <Time>2019-04-08T07:05:07.000Z</Time>
            <Position>
              <LatitudeDegrees>28.27141466550529003143310546875</LatitudeDegrees>
              <LongitudeDegrees>-16.64163901470601558685302734375</LongitudeDegrees>
            </Position>
            <AltitudeMeters>3635</AltitudeMeters>
            <DistanceMeters>10844.937431118</DistanceMeters>
          </Trackpoint>
          <Trackpoint>
            <Time>2019-04-08T07:05:14.000Z</Time>
            <Position>
              <LatitudeDegrees>28.27140745706856250762939453125</LatitudeDegrees>
              <LongitudeDegrees>-16.64159542880952358245849609375</LongitudeDegrees>
            </Position>
            <AltitudeMeters>3633.800048828125</AltitudeMeters>
            <DistanceMeters>10849.283799708</DistanceMeters>
          </Trackpoint>
          <Trackpoint>
            <Time>2019-04-08T07:05:18.000Z</Time>
            <Position>
              <LatitudeDegrees>28.27140511013567447662353515625</LatitudeDegrees>
              <LongitudeDegrees>-16.64158754982054233551025390625</LongitudeDegrees>
            </Position>
            <AltitudeMeters>3632.800048828125</AltitudeMeters>
            <DistanceMeters>10850.095708312</DistanceMeters>
          </Trackpoint>
          <Trackpoint>
            <Time>2019-04-08T07:05:25.000Z</Time>
            <Position>
              <LatitudeDegrees>28.271408379077911376953125</LatitudeDegrees>
              <LongitudeDegrees>-16.641579084098339080810546875</LongitudeDegrees>
            </Position>
            <AltitudeMeters>3632.60009765625</AltitudeMeters>
            <DistanceMeters>10850.99721088</DistanceMeters>
          </Trackpoint>
          <Trackpoint>
            <Time>2019-04-08T07:05:35.000Z</Time>
            <Position>
              <LatitudeDegrees>28.2713773660361766815185546875</LatitudeDegrees>
              <LongitudeDegrees>-16.64158017374575138092041015625</LongitudeDegrees>
            </Position>
            <AltitudeMeters>3632</AltitudeMeters>
            <DistanceMeters>10854.451010379</DistanceMeters>
          </Trackpoint>
          <Trackpoint>
            <Time>2019-04-08T07:05:36.000Z</Time>
            <Position>
              <LatitudeDegrees>28.27137283980846405029296875</LatitudeDegrees>
              <LongitudeDegrees>-16.64158084429800510406494140625</LongitudeDegrees>
            </Position>
            <AltitudeMeters>3631.60009765625</AltitudeMeters>
            <DistanceMeters>10854.962744897</DistanceMeters>
          </Trackpoint>
          <Trackpoint>
            <Time>2019-04-08T07:05:42.000Z</Time>
            <Position>
              <LatitudeDegrees>28.27134962193667888641357421875</LatitudeDegrees>
              <LongitudeDegrees>-16.64159442298114299774169921875</LongitudeDegrees>
            </Position>
            <AltitudeMeters>3630.60009765625</AltitudeMeters>
            <DistanceMeters>10857.870003322</DistanceMeters>
          </Trackpoint>
          <Trackpoint>
            <Time>2019-04-08T07:05:43.000Z</Time>
            <Position>
              <LatitudeDegrees>28.2713498733937740325927734375</LatitudeDegrees>
              <LongitudeDegrees>-16.6415936686098575592041015625</LongitudeDegrees>
            </Position>
            <AltitudeMeters>3630.199951171875</AltitudeMeters>
            <DistanceMeters>10857.965030037</DistanceMeters>
          </Trackpoint>
          <Trackpoint>
            <Time>2019-04-08T07:05:47.000Z</Time>
            <Position>
              <LatitudeDegrees>28.27133520506322383880615234375</LatitudeDegrees>
              <LongitudeDegrees>-16.64160347543656826019287109375</LongitudeDegrees>
            </Position>
            <AltitudeMeters>3629.39990234375</AltitudeMeters>
            <DistanceMeters>10859.856037777</DistanceMeters>
          </Trackpoint>
          <Trackpoint>
            <Time>2019-04-08T07:05:50.000Z</Time>
            <Position>
              <LatitudeDegrees>28.27132456004619598388671875</LatitudeDegrees>
              <LongitudeDegrees>-16.64160381071269512176513671875</LongitudeDegrees>
            </Position>
            <AltitudeMeters>3628.60009765625</AltitudeMeters>
            <DistanceMeters>10861.03911083</DistanceMeters>
          </Trackpoint>
          <Trackpoint>
            <Time>2019-04-08T07:05:52.000Z</Time>
            <Position>
              <LatitudeDegrees>28.27132564969360828399658203125</LatitudeDegrees>
              <LongitudeDegrees>-16.64159375242888927459716796875</LongitudeDegrees>
            </Position>
            <AltitudeMeters>3628.39990234375</AltitudeMeters>
            <DistanceMeters>10862.035759418</DistanceMeters>
          </Trackpoint>
          <Trackpoint>
            <Time>2019-04-08T07:06:00.000Z</Time>
            <Position>
              <LatitudeDegrees>28.27131383121013641357421875</LatitudeDegrees>
              <LongitudeDegrees>-16.64155083708465099334716796875</LongitudeDegrees>
            </Position>
            <AltitudeMeters>3627.800048828125</AltitudeMeters>
            <DistanceMeters>10866.44401582</DistanceMeters>
          </Trackpoint>
          <Trackpoint>
            <Time>2019-04-08T07:06:04.000Z</Time>
            <Position>
              <LatitudeDegrees>28.271304108202457427978515625</LatitudeDegrees>
              <LongitudeDegrees>-16.64152468554675579071044921875</LongitudeDegrees>
            </Position>
            <AltitudeMeters>3626.60009765625</AltitudeMeters>
            <DistanceMeters>10869.225881294</DistanceMeters>
          </Trackpoint>
          <Trackpoint>
            <Time>2019-04-08T07:06:07.000Z</Time>
            <Position>
              <LatitudeDegrees>28.27128910459578037261962890625</LatitudeDegrees>
              <LongitudeDegrees>-16.641503311693668365478515625</LongitudeDegrees>
            </Position>
            <AltitudeMeters>3625.39990234375</AltitudeMeters>
            <DistanceMeters>10871.903544584</DistanceMeters>
          </Trackpoint>
          <Trackpoint>
            <Time>2019-04-08T07:06:09.000Z</Time>
            <Position>
              <LatitudeDegrees>28.27128491364419460296630859375</LatitudeDegrees>
              <LongitudeDegrees>-16.64150004275143146514892578125</LongitudeDegrees>
            </Position>
            <AltitudeMeters>3624.199951171875</AltitudeMeters>
            <DistanceMeters>10872.465730208</DistanceMeters>
          </Trackpoint>
          <Trackpoint>
            <Time>2019-04-08T07:06:10.000Z</Time>
            <Position>
              <LatitudeDegrees>28.27128541655838489532470703125</LatitudeDegrees>
              <LongitudeDegrees>-16.64150054566562175750732421875</LongitudeDegrees>
            </Position>
            <AltitudeMeters>3624</AltitudeMeters>
            <DistanceMeters>10872.465730208</DistanceMeters>
          </Trackpoint>
          <Trackpoint>
            <Time>2019-04-08T07:06:20.000Z</Time>
            <Position>
              <LatitudeDegrees>28.27127787284553050994873046875</LatitudeDegrees>
              <LongitudeDegrees>-16.64146467112004756927490234375</LongitudeDegrees>
            </Position>
            <AltitudeMeters>3623.199951171875</AltitudeMeters>
            <DistanceMeters>10876.081743301</DistanceMeters>
          </Trackpoint>
          <Trackpoint>
            <Time>2019-04-08T07:06:21.000Z</Time>
            <Position>
              <LatitudeDegrees>28.2712767831981182098388671875</LatitudeDegrees>
              <LongitudeDegrees>-16.64145712740719318389892578125</LongitudeDegrees>
            </Position>
            <AltitudeMeters>3623</AltitudeMeters>
            <DistanceMeters>10876.829984398</DistanceMeters>
          </Trackpoint>
          <Trackpoint>
            <Time>2019-04-08T07:06:29.000Z</Time>
            <Position>
              <LatitudeDegrees>28.271272592246532440185546875</LatitudeDegrees>
              <LongitudeDegrees>-16.64140901528298854827880859375</LongitudeDegrees>
            </Position>
            <AltitudeMeters>3622</AltitudeMeters>
            <DistanceMeters>10881.568950542</DistanceMeters>
          </Trackpoint>
          <Trackpoint>
            <Time>2019-04-08T07:06:31.000Z</Time>
            <Position>
              <LatitudeDegrees>28.2712675631046295166015625</LatitudeDegrees>
              <LongitudeDegrees>-16.6413961909711360931396484375</LongitudeDegrees>
            </Position>
            <AltitudeMeters>3622</AltitudeMeters>
            <DistanceMeters>10882.946018461</DistanceMeters>
          </Trackpoint>
          <Trackpoint>
            <Time>2019-04-08T07:06:37.000Z</Time>
            <Position>
              <LatitudeDegrees>28.27125406824052333831787109375</LatitudeDegrees>
              <LongitudeDegrees>-16.6414280422031879425048828125</LongitudeDegrees>
            </Position>
            <AltitudeMeters>3621.199951171875</AltitudeMeters>
            <DistanceMeters>10886.411563393</DistanceMeters>
          </Trackpoint>
          <Trackpoint>
            <Time>2019-04-08T07:06:41.000Z</Time>
            <Position>
              <LatitudeDegrees>28.2712385617196559906005859375</LatitudeDegrees>
              <LongitudeDegrees>-16.641449667513370513916015625</LongitudeDegrees>
            </Position>
            <AltitudeMeters>3620.800048828125</AltitudeMeters>
            <DistanceMeters>10889.144304364</DistanceMeters>
          </Trackpoint>
          <Trackpoint>
            <Time>2019-04-08T07:06:46.000Z</Time>
            <Position>
              <LatitudeDegrees>28.271221630275249481201171875</LatitudeDegrees>
              <LongitudeDegrees>-16.64146073162555694580078125</LongitudeDegrees>
            </Position>
            <AltitudeMeters>3620</AltitudeMeters>
            <DistanceMeters>10891.315410051</DistanceMeters>
          </Trackpoint>
          <Trackpoint>
            <Time>2019-04-08T07:06:52.000Z</Time>
            <Position>
              <LatitudeDegrees>28.27121165581047534942626953125</LatitudeDegrees>
              <LongitudeDegrees>-16.64142041467130184173583984375</LongitudeDegrees>
            </Position>
            <AltitudeMeters>3619.60009765625</AltitudeMeters>
            <DistanceMeters>10895.420300141</DistanceMeters>
          </Trackpoint>
          <Trackpoint>
            <Time>2019-04-08T07:06:54.000Z</Time>
            <Position>
              <LatitudeDegrees>28.2712114043533802032470703125</LatitudeDegrees>
              <LongitudeDegrees>-16.641402728855609893798828125</LongitudeDegrees>
            </Position>
            <AltitudeMeters>3619</AltitudeMeters>
            <DistanceMeters>10897.156976717</DistanceMeters>
          </Trackpoint>
          <Trackpoint>
            <Time>2019-04-08T07:06:56.000Z</Time>
            <Position>
              <LatitudeDegrees>28.2712117396295070648193359375</LatitudeDegrees>
              <LongitudeDegrees>-16.64139593951404094696044921875</LongitudeDegrees>
            </Position>
            <AltitudeMeters>3618.39990234375</AltitudeMeters>
            <DistanceMeters>10897.828917059</DistanceMeters>
          </Trackpoint>
          <Trackpoint>
            <Time>2019-04-08T07:07:02.000Z</Time>
            <Position>
              <LatitudeDegrees>28.27121593058109283447265625</LatitudeDegrees>
              <LongitudeDegrees>-16.64138403721153736114501953125</LongitudeDegrees>
            </Position>
            <AltitudeMeters>3617.39990234375</AltitudeMeters>
            <DistanceMeters>10899.086002329</DistanceMeters>
          </Trackpoint>
          <Trackpoint>
            <Time>2019-04-08T07:07:10.000Z</Time>
            <Position>
              <LatitudeDegrees>28.271217606961727142333984375</LatitudeDegrees>
              <LongitudeDegrees>-16.64133626036345958709716796875</LongitudeDegrees>
            </Position>
            <AltitudeMeters>3617</AltitudeMeters>
            <DistanceMeters>10903.77323776</DistanceMeters>
          </Trackpoint>
          <Trackpoint>
            <Time>2019-04-08T07:07:12.000Z</Time>
            <Position>
              <LatitudeDegrees>28.271210901439189910888671875</LatitudeDegrees>
              <LongitudeDegrees>-16.64133240468800067901611328125</LongitudeDegrees>
            </Position>
            <AltitudeMeters>3616.199951171875</AltitudeMeters>
            <DistanceMeters>10904.612490978</DistanceMeters>
          </Trackpoint>
          <Trackpoint>
            <Time>2019-04-08T07:07:13.000Z</Time>
            <Position>
              <LatitudeDegrees>28.2712087221443653106689453125</LatitudeDegrees>
              <LongitudeDegrees>-16.6413326561450958251953125</LongitudeDegrees>
            </Position>
            <AltitudeMeters>3616</AltitudeMeters>
            <DistanceMeters>10904.863908032</DistanceMeters>
          </Trackpoint>
          <Trackpoint>
            <Time>2019-04-08T07:07:16.000Z</Time>
            <Position>
              <LatitudeDegrees>28.27119288034737110137939453125</LatitudeDegrees>
              <LongitudeDegrees>-16.64133776910603046417236328125</LongitudeDegrees>
            </Position>
            <AltitudeMeters>3614.800048828125</AltitudeMeters>
            <DistanceMeters>10906.696716925</DistanceMeters>
          </Trackpoint>
          <Trackpoint>
            <Time>2019-04-08T07:07:21.000Z</Time>
            <Position>
              <LatitudeDegrees>28.2711852528154850006103515625</LatitudeDegrees>
              <LongitudeDegrees>-16.641345061361789703369140625</LongitudeDegrees>
            </Position>
            <AltitudeMeters>3613.800048828125</AltitudeMeters>
            <DistanceMeters>10907.804909325</DistanceMeters>
          </Trackpoint>
          <Trackpoint>
            <Time>2019-04-08T07:07:22.000Z</Time>
            <Position>
              <LatitudeDegrees>28.27118282206356525421142578125</LatitudeDegrees>
              <LongitudeDegrees>-16.64134564809501171112060546875</LongitudeDegrees>
            </Position>
            <AltitudeMeters>3613.60009765625</AltitudeMeters>
            <DistanceMeters>10908.073685461</DistanceMeters>
          </Trackpoint>
          <Trackpoint>
            <Time>2019-04-08T07:07:27.000Z</Time>
            <Position>
              <LatitudeDegrees>28.27115750871598720550537109375</LatitudeDegrees>
              <LongitudeDegrees>-16.64133709855377674102783203125</LongitudeDegrees>
            </Position>
            <AltitudeMeters>3613.39990234375</AltitudeMeters>
            <DistanceMeters>10911.013376458</DistanceMeters>
          </Trackpoint>
          <Trackpoint>
            <Time>2019-04-08T07:07:34.000Z</Time>
            <Position>
              <LatitudeDegrees>28.2711741887032985687255859375</LatitudeDegrees>
              <LongitudeDegrees>-16.64129451848566532135009765625</LongitudeDegrees>
            </Position>
            <AltitudeMeters>3613</AltitudeMeters>
            <DistanceMeters>10915.580594056</DistanceMeters>
          </Trackpoint>
          <Trackpoint>
            <Time>2019-04-08T07:07:37.000Z</Time>
            <Position>
              <LatitudeDegrees>28.271176032721996307373046875</LatitudeDegrees>
              <LongitudeDegrees>-16.64129116572439670562744140625</LongitudeDegrees>
            </Position>
            <AltitudeMeters>3612.60009765625</AltitudeMeters>
            <DistanceMeters>10915.960700914</DistanceMeters>
          </Trackpoint>
          <Trackpoint>
            <Time>2019-04-08T07:07:44.000Z</Time>
            <Position>
              <LatitudeDegrees>28.27116991393268108367919921875</LatitudeDegrees>
              <LongitudeDegrees>-16.64126266725361347198486328125</LongitudeDegrees>
            </Position>
            <AltitudeMeters>3611.60009765625</AltitudeMeters>
            <DistanceMeters>10918.835160853</DistanceMeters>
          </Trackpoint>
          <Trackpoint>
            <Time>2019-04-08T07:07:45.000Z</Time>
            <Position>
              <LatitudeDegrees>28.27117008157074451446533203125</LatitudeDegrees>
              <LongitudeDegrees>-16.641261242330074310302734375</LongitudeDegrees>
            </Position>
            <AltitudeMeters>3611.39990234375</AltitudeMeters>
            <DistanceMeters>10918.969548922</DistanceMeters>
          </Trackpoint>
          <Trackpoint>
            <Time>2019-04-08T07:07:52.000Z</Time>
            <Position>
              <LatitudeDegrees>28.2711674831807613372802734375</LatitudeDegrees>
              <LongitudeDegrees>-16.64122293703258037567138671875</LongitudeDegrees>
            </Position>
            <AltitudeMeters>3610.199951171875</AltitudeMeters>
            <DistanceMeters>10922.736012793</DistanceMeters>
          </Trackpoint>
          <Trackpoint>
            <Time>2019-04-08T07:07:56.000Z</Time>
            <Position>
              <LatitudeDegrees>28.27116957865655422210693359375</LatitudeDegrees>
              <LongitudeDegrees>-16.64120256900787353515625</LongitudeDegrees>
            </Position>
            <AltitudeMeters>3609</AltitudeMeters>
            <DistanceMeters>10924.745103177</DistanceMeters>
          </Trackpoint>
          <Trackpoint>
            <Time>2019-04-08T07:08:03.000Z</Time>
            <Position>
              <LatitudeDegrees>28.2711631245911121368408203125</LatitudeDegrees>
              <LongitudeDegrees>-16.64118186570703983306884765625</LongitudeDegrees>
            </Position>
            <AltitudeMeters>3608</AltitudeMeters>
            <DistanceMeters>10926.897411058</DistanceMeters>
          </Trackpoint>
          <Trackpoint>
            <Time>2019-04-08T07:08:04.000Z</Time>
            <Position>
              <LatitudeDegrees>28.271158598363399505615234375</LatitudeDegrees>
              <LongitudeDegrees>-16.6411789320409297943115234375</LongitudeDegrees>
            </Position>
            <AltitudeMeters>3607.800048828125</AltitudeMeters>
            <DistanceMeters>10927.475435996</DistanceMeters>
          </Trackpoint>
          <Trackpoint>
            <Time>2019-04-08T07:08:08.000Z</Time>
            <Position>
              <LatitudeDegrees>28.2711456902325153350830078125</LatitudeDegrees>
              <LongitudeDegrees>-16.64118580520153045654296875</LongitudeDegrees>
            </Position>
            <AltitudeMeters>3607</AltitudeMeters>
            <DistanceMeters>10929.062695057</DistanceMeters>
          </Trackpoint>
          <Trackpoint>
            <Time>2019-04-08T07:08:12.000Z</Time>
            <Position>
              <LatitudeDegrees>28.2711456902325153350830078125</LatitudeDegrees>
              <LongitudeDegrees>-16.6411973722279071807861328125</LongitudeDegrees>
            </Position>
            <AltitudeMeters>3605.800048828125</AltitudeMeters>
            <DistanceMeters>10930.203015629</DistanceMeters>
          </Trackpoint>
          <Trackpoint>
            <Time>2019-04-08T07:08:13.000Z</Time>
            <Position>
              <LatitudeDegrees>28.27114359475672245025634765625</LatitudeDegrees>
              <LongitudeDegrees>-16.641202233731746673583984375</LongitudeDegrees>
            </Position>
            <AltitudeMeters>3605.60009765625</AltitudeMeters>
            <DistanceMeters>10930.740567902</DistanceMeters>
          </Trackpoint>
          <Trackpoint>
            <Time>2019-04-08T07:08:19.000Z</Time>
            <Position>
              <LatitudeDegrees>28.27112515456974506378173828125</LatitudeDegrees>
              <LongitudeDegrees>-16.6412543691694736480712890625</LongitudeDegrees>
            </Position>
            <AltitudeMeters>3605</AltitudeMeters>
            <DistanceMeters>10936.247199967</DistanceMeters>
          </Trackpoint>
          <Trackpoint>
            <Time>2019-04-08T07:08:21.000Z</Time>
            <Position>
              <LatitudeDegrees>28.2711101509630680084228515625</LatitudeDegrees>
              <LongitudeDegrees>-16.641263253986835479736328125</LongitudeDegrees>
            </Position>
            <AltitudeMeters>3604.60009765625</AltitudeMeters>
            <DistanceMeters>10938.131031181</DistanceMeters>
          </Trackpoint>
          <Trackpoint>
            <Time>2019-04-08T07:08:22.000Z</Time>
            <Position>
              <LatitudeDegrees>28.27110235579311847686767578125</LatitudeDegrees>
              <LongitudeDegrees>-16.64127171970903873443603515625</LongitudeDegrees>
            </Position>
            <AltitudeMeters>3604.39990234375</AltitudeMeters>
            <DistanceMeters>10939.329272457</DistanceMeters>
          </Trackpoint>
          <Trackpoint>
            <Time>2019-04-08T07:08:25.000Z</Time>
            <Position>
              <LatitudeDegrees>28.27108039520680904388427734375</LatitudeDegrees>
              <LongitudeDegrees>-16.64127557538449764251708984375</LongitudeDegrees>
            </Position>
            <AltitudeMeters>3603.800048828125</AltitudeMeters>
            <DistanceMeters>10941.801793792</DistanceMeters>
          </Trackpoint>
          <Trackpoint>
            <Time>2019-04-08T07:08:32.000Z</Time>
            <Position>
              <LatitudeDegrees>28.27107637189328670501708984375</LatitudeDegrees>
              <LongitudeDegrees>-16.64124892093241214752197265625</LongitudeDegrees>
            </Position>
            <AltitudeMeters>3603.199951171875</AltitudeMeters>
            <DistanceMeters>10944.452340806</DistanceMeters>
          </Trackpoint>
          <Trackpoint>
            <Time>2019-04-08T07:08:36.000Z</Time>
            <Position>
              <LatitudeDegrees>28.27107402496039867401123046875</LatitudeDegrees>
              <LongitudeDegrees>-16.6412252001464366912841796875</LongitudeDegrees>
            </Position>
            <AltitudeMeters>3602.199951171875</AltitudeMeters>
            <DistanceMeters>10946.793549127</DistanceMeters>
          </Trackpoint>
          <Trackpoint>
            <Time>2019-04-08T07:08:43.000Z</Time>
            <Position>
              <LatitudeDegrees>28.271076120436191558837890625</LatitudeDegrees>
              <LongitudeDegrees>-16.64119007997214794158935546875</LongitudeDegrees>
            </Position>
            <AltitudeMeters>3601.199951171875</AltitudeMeters>
            <DistanceMeters>10950.243424596</DistanceMeters>
          </Trackpoint>
          <Trackpoint>
            <Time>2019-04-08T07:08:44.000Z</Time>
            <Position>
              <LatitudeDegrees>28.2710732705891132354736328125</LatitudeDegrees>
              <LongitudeDegrees>-16.64119225926697254180908203125</LongitudeDegrees>
            </Position>
            <AltitudeMeters>3601</AltitudeMeters>
            <DistanceMeters>10950.623531454</DistanceMeters>
          </Trackpoint>
          <Trackpoint>
            <Time>2019-04-08T07:08:50.000Z</Time>
            <Position>
              <LatitudeDegrees>28.27105189673602581024169921875</LatitudeDegrees>
              <LongitudeDegrees>-16.6412131302058696746826171875</LongitudeDegrees>
            </Position>
            <AltitudeMeters>3599.60009765625</AltitudeMeters>
            <DistanceMeters>10953.760852496</DistanceMeters>
          </Trackpoint>
          <Trackpoint>
            <Time>2019-04-08T07:08:57.000Z</Time>
            <Position>
              <LatitudeDegrees>28.2710476219654083251953125</LatitudeDegrees>
              <LongitudeDegrees>-16.64117247797548770904541015625</LongitudeDegrees>
            </Position>
            <AltitudeMeters>3598.60009765625</AltitudeMeters>
            <DistanceMeters>10957.773411069</DistanceMeters>
          </Trackpoint>
          <Trackpoint>
            <Time>2019-04-08T07:09:02.000Z</Time>
            <Position>
              <LatitudeDegrees>28.2710437662899494171142578125</LatitudeDegrees>
              <LongitudeDegrees>-16.6411682032048702239990234375</LongitudeDegrees>
            </Position>
            <AltitudeMeters>3597.60009765625</AltitudeMeters>
            <DistanceMeters>10958.374412781</DistanceMeters>
          </Trackpoint>
          <Trackpoint>
            <Time>2019-04-08T07:09:06.000Z</Time>
            <Position>
              <LatitudeDegrees>28.2710417546331882476806640625</LatitudeDegrees>
              <LongitudeDegrees>-16.6411477513611316680908203125</LongitudeDegrees>
            </Position>
            <AltitudeMeters>3597.39990234375</AltitudeMeters>
            <DistanceMeters>10960.392472363</DistanceMeters>
          </Trackpoint>
          <Trackpoint>
            <Time>2019-04-08T07:09:10.000Z</Time>
            <Position>
              <LatitudeDegrees>28.27102281153202056884765625</LatitudeDegrees>
              <LongitudeDegrees>-16.64114230312407016754150390625</LongitudeDegrees>
            </Position>
            <AltitudeMeters>3596.800048828125</AltitudeMeters>
            <DistanceMeters>10962.56773328</DistanceMeters>
          </Trackpoint>
          <Trackpoint>
            <Time>2019-04-08T07:09:12.000Z</Time>
            <Position>
              <LatitudeDegrees>28.2710105739533901214599609375</LatitudeDegrees>
              <LongitudeDegrees>-16.64114465005695819854736328125</LongitudeDegrees>
            </Position>
            <AltitudeMeters>3596.60009765625</AltitudeMeters>
            <DistanceMeters>10963.951343126</DistanceMeters>
          </Trackpoint>
          <Trackpoint>
            <Time>2019-04-08T07:09:14.000Z</Time>
            <Position>
              <LatitudeDegrees>28.27100127004086971282958984375</LatitudeDegrees>
              <LongitudeDegrees>-16.64113928563892841339111328125</LongitudeDegrees>
            </Position>
            <AltitudeMeters>3596.199951171875</AltitudeMeters>
            <DistanceMeters>10965.111292</DistanceMeters>
          </Trackpoint>
          <Trackpoint>
            <Time>2019-04-08T07:09:18.000Z</Time>
            <Position>
              <LatitudeDegrees>28.270982913672924041748046875</LatitudeDegrees>
              <LongitudeDegrees>-16.64112939499318599700927734375</LongitudeDegrees>
            </Position>
            <AltitudeMeters>3595.39990234375</AltitudeMeters>
            <DistanceMeters>10967.372049233</DistanceMeters>
          </Trackpoint>
          <Trackpoint>
            <Time>2019-04-08T07:09:21.000Z</Time>
            <Position>
              <LatitudeDegrees>28.2709683291614055633544921875</LatitudeDegrees>
              <LongitudeDegrees>-16.64114129729568958282470703125</LongitudeDegrees>
            </Position>
            <AltitudeMeters>3595</AltitudeMeters>
            <DistanceMeters>10969.369871494</DistanceMeters>
          </Trackpoint>
          <Trackpoint>
            <Time>2019-04-08T07:09:26.000Z</Time>
            <Position>
              <LatitudeDegrees>28.2709653116762638092041015625</LatitudeDegrees>
              <LongitudeDegrees>-16.64113408885896205902099609375</LongitudeDegrees>
            </Position>
            <AltitudeMeters>3594.199951171875</AltitudeMeters>
            <DistanceMeters>10970.153481855</DistanceMeters>
          </Trackpoint>
          <Trackpoint>
            <Time>2019-04-08T07:09:28.000Z</Time>
            <Position>
              <LatitudeDegrees>28.27096757479012012481689453125</LatitudeDegrees>
              <LongitudeDegrees>-16.64113157428801059722900390625</LongitudeDegrees>
            </Position>
            <AltitudeMeters>3593.800048828125</AltitudeMeters>
            <DistanceMeters>10970.509039263</DistanceMeters>
          </Trackpoint>
          <Trackpoint>
            <Time>2019-04-08T07:09:36.000Z</Time>
            <Position>
              <LatitudeDegrees>28.2709693349897861480712890625</LatitudeDegrees>
              <LongitudeDegrees>-16.64107893593609333038330078125</LongitudeDegrees>
            </Position>
            <AltitudeMeters>3593.199951171875</AltitudeMeters>
            <DistanceMeters>10975.672060245</DistanceMeters>
          </Trackpoint>
          <Trackpoint>
            <Time>2019-04-08T07:09:37.000Z</Time>
            <Position>
              <LatitudeDegrees>28.27096757479012012481689453125</LatitudeDegrees>
              <LongitudeDegrees>-16.64107072167098522186279296875</LongitudeDegrees>
            </Position>
            <AltitudeMeters>3593</AltitudeMeters>
            <DistanceMeters>10976.500483935</DistanceMeters>
          </Trackpoint>
          <Trackpoint>
            <Time>2019-04-08T07:09:42.000Z</Time>
            <Position>
              <LatitudeDegrees>28.270964138209819793701171875</LatitudeDegrees>
              <LongitudeDegrees>-16.641026549041271209716796875</LongitudeDegrees>
            </Position>
            <AltitudeMeters>3592</AltitudeMeters>
            <DistanceMeters>10980.846852525</DistanceMeters>
          </Trackpoint>
          <Trackpoint>
            <Time>2019-04-08T07:09:47.000Z</Time>
            <Position>
              <LatitudeDegrees>28.2709532417356967926025390625</LatitudeDegrees>
              <LongitudeDegrees>-16.640984974801540374755859375</LongitudeDegrees>
            </Position>
            <AltitudeMeters>3591</AltitudeMeters>
            <DistanceMeters>10985.098700716</DistanceMeters>
          </Trackpoint>
          <Trackpoint>
            <Time>2019-04-08T07:09:53.000Z</Time>
            <Position>
              <LatitudeDegrees>28.270931281149387359619140625</LatitudeDegrees>
              <LongitudeDegrees>-16.6409573145210742950439453125</LongitudeDegrees>
            </Position>
            <AltitudeMeters>3589.60009765625</AltitudeMeters>
            <DistanceMeters>10988.749507864</DistanceMeters>
          </Trackpoint>
          <Trackpoint>
            <Time>2019-04-08T07:09:57.000Z</Time>
            <Position>
              <LatitudeDegrees>28.27091460116207599639892578125</LatitudeDegrees>
              <LongitudeDegrees>-16.64094038307666778564453125</LongitudeDegrees>
            </Position>
            <AltitudeMeters>3588.60009765625</AltitudeMeters>
            <DistanceMeters>10991.238409719</DistanceMeters>
          </Trackpoint>
          <Trackpoint>
            <Time>2019-04-08T07:09:58.000Z</Time>
            <Position>
              <LatitudeDegrees>28.27091476880013942718505859375</LatitudeDegrees>
              <LongitudeDegrees>-16.640936695039272308349609375</LongitudeDegrees>
            </Position>
            <AltitudeMeters>3588.199951171875</AltitudeMeters>
            <DistanceMeters>10991.606446601</DistanceMeters>
          </Trackpoint>
          <Trackpoint>
            <Time>2019-04-08T07:10:04.000Z</Time>
            <Position>
              <LatitudeDegrees>28.2708959095180034637451171875</LatitudeDegrees>
              <LongitudeDegrees>-16.64093661122024059295654296875</LongitudeDegrees>
            </Position>
            <AltitudeMeters>3587.60009765625</AltitudeMeters>
            <DistanceMeters>10993.705655334</DistanceMeters>
          </Trackpoint>
          <Trackpoint>
            <Time>2019-04-08T07:10:07.000Z</Time>
            <Position>
              <LatitudeDegrees>28.27088459394872188568115234375</LatitudeDegrees>
              <LongitudeDegrees>-16.6409234516322612762451171875</LongitudeDegrees>
            </Position>
            <AltitudeMeters>3587.199951171875</AltitudeMeters>
            <DistanceMeters>10995.51366188</DistanceMeters>
          </Trackpoint>
          <Trackpoint>
            <Time>2019-04-08T07:10:11.000Z</Time>
            <Position>
              <LatitudeDegrees>28.27086783014237880706787109375</LatitudeDegrees>
              <LongitudeDegrees>-16.64090023376047611236572265625</LongitudeDegrees>
            </Position>
            <AltitudeMeters>3586.39990234375</AltitudeMeters>
            <DistanceMeters>10998.457956938</DistanceMeters>
          </Trackpoint>
          <Trackpoint>
            <Time>2019-04-08T07:10:15.000Z</Time>
            <Position>
              <LatitudeDegrees>28.27085659839212894439697265625</LatitudeDegrees>
              <LongitudeDegrees>-16.64087844081223011016845703125</LongitudeDegrees>
            </Position>
            <AltitudeMeters>3585.39990234375</AltitudeMeters>
            <DistanceMeters>11000.934127753</DistanceMeters>
          </Trackpoint>
          <Trackpoint>
            <Time>2019-04-08T07:10:17.000Z</Time>
            <Position>
              <LatitudeDegrees>28.27085374854505062103271484375</LatitudeDegrees>
              <LongitudeDegrees>-16.64087156765162944793701171875</LongitudeDegrees>
            </Position>
            <AltitudeMeters>3584.800048828125</AltitudeMeters>
            <DistanceMeters>11001.676310118</DistanceMeters>
          </Trackpoint>
          <Trackpoint>
            <Time>2019-04-08T07:10:19.000Z</Time>
            <Position>
              <LatitudeDegrees>28.27084871940314769744873046875</LatitudeDegrees>
              <LongitudeDegrees>-16.64086352102458477020263671875</LongitudeDegrees>
            </Position>
            <AltitudeMeters>3584.39990234375</AltitudeMeters>
            <DistanceMeters>11002.64539626</DistanceMeters>
          </Trackpoint>
          <Trackpoint>
            <Time>2019-04-08T07:10:25.000Z</Time>
            <Position>
              <LatitudeDegrees>28.27083698473870754241943359375</LatitudeDegrees>
              <LongitudeDegrees>-16.6408506967127323150634765625</LongitudeDegrees>
            </Position>
            <AltitudeMeters>3583.199951171875</AltitudeMeters>
            <DistanceMeters>11004.45839042</DistanceMeters>
          </Trackpoint>
          <Trackpoint>
            <Time>2019-04-08T07:10:27.000Z</Time>
            <Position>
              <LatitudeDegrees>28.270837403833866119384765625</LatitudeDegrees>
              <LongitudeDegrees>-16.64085078053176403045654296875</LongitudeDegrees>
            </Position>
            <AltitudeMeters>3583.199951171875</AltitudeMeters>
            <DistanceMeters>11004.553417135</DistanceMeters>
          </Trackpoint>
          <Trackpoint>
            <Time>2019-04-08T07:10:34.000Z</Time>
            <Position>
              <LatitudeDegrees>28.27082164585590362548828125</LatitudeDegrees>
              <LongitudeDegrees>-16.64082705974578857421875</LongitudeDegrees>
            </Position>
            <AltitudeMeters>3582.60009765625</AltitudeMeters>
            <DistanceMeters>11007.465330901</DistanceMeters>
          </Trackpoint>
          <Trackpoint>
            <Time>2019-04-08T07:10:37.000Z</Time>
            <Position>
              <LatitudeDegrees>28.2708087377250194549560546875</LatitudeDegrees>
              <LongitudeDegrees>-16.6408015787601470947265625</LongitudeDegrees>
            </Position>
            <AltitudeMeters>3581.800048828125</AltitudeMeters>
            <DistanceMeters>11010.346066962</DistanceMeters>
          </Trackpoint>
          <Trackpoint>
            <Time>2019-04-08T07:10:43.000Z</Time>
            <Position>
              <LatitudeDegrees>28.270782418549060821533203125</LatitudeDegrees>
              <LongitudeDegrees>-16.64076746441423892974853515625</LongitudeDegrees>
            </Position>
            <AltitudeMeters>3580.60009765625</AltitudeMeters>
            <DistanceMeters>11014.793073529</DistanceMeters>
          </Trackpoint>
          <Trackpoint>
            <Time>2019-04-08T07:10:44.000Z</Time>
            <Position>
              <LatitudeDegrees>28.27077831141650676727294921875</LatitudeDegrees>
              <LongitudeDegrees>-16.64076377637684345245361328125</LongitudeDegrees>
            </Position>
            <AltitudeMeters>3580.60009765625</AltitudeMeters>
            <DistanceMeters>11015.378857538</DistanceMeters>
          </Trackpoint>
          <Trackpoint>
            <Time>2019-04-08T07:10:50.000Z</Time>
            <Position>
              <LatitudeDegrees>28.270760960876941680908203125</LatitudeDegrees>
              <LongitudeDegrees>-16.640728153288364410400390625</LongitudeDegrees>
            </Position>
            <AltitudeMeters>3579.60009765625</AltitudeMeters>
            <DistanceMeters>11019.368848111</DistanceMeters>
          </Trackpoint>
          <Trackpoint>
            <Time>2019-04-08T07:10:53.000Z</Time>
            <Position>
              <LatitudeDegrees>28.27075249515473842620849609375</LatitudeDegrees>
              <LongitudeDegrees>-16.640717089176177978515625</LongitudeDegrees>
            </Position>
            <AltitudeMeters>3578</AltitudeMeters>
            <DistanceMeters>11020.803720031</DistanceMeters>
          </Trackpoint>
          <Trackpoint>
            <Time>2019-04-08T07:10:54.000Z</Time>
            <Position>
              <LatitudeDegrees>28.27075249515473842620849609375</LatitudeDegrees>
              <LongitudeDegrees>-16.6407045163214206695556640625</LongitudeDegrees>
            </Position>
            <AltitudeMeters>3577.60009765625</AltitudeMeters>
            <DistanceMeters>11022.039067318</DistanceMeters>
          </Trackpoint>
          <Trackpoint>
            <Time>2019-04-08T07:10:56.000Z</Time>
            <Position>
              <LatitudeDegrees>28.27076087705790996551513671875</LatitudeDegrees>
              <LongitudeDegrees>-16.640688590705394744873046875</LongitudeDegrees>
            </Position>
            <AltitudeMeters>3576.800048828125</AltitudeMeters>
            <DistanceMeters>11023.859517278</DistanceMeters>
          </Trackpoint>
          <Trackpoint>
            <Time>2019-04-08T07:11:01.000Z</Time>
            <Position>
              <LatitudeDegrees>28.270772360265254974365234375</LatitudeDegrees>
              <LongitudeDegrees>-16.640666462481021881103515625</LongitudeDegrees>
            </Position>
            <AltitudeMeters>3575.800048828125</AltitudeMeters>
            <DistanceMeters>11026.377276929</DistanceMeters>
          </Trackpoint>
          <Trackpoint>
            <Time>2019-04-08T07:11:02.000Z</Time>
            <Position>
              <LatitudeDegrees>28.270777054131031036376953125</LatitudeDegrees>
              <LongitudeDegrees>-16.64066118188202381134033203125</LongitudeDegrees>
            </Position>
            <AltitudeMeters>3575.60009765625</AltitudeMeters>
            <DistanceMeters>11027.107190972</DistanceMeters>
          </Trackpoint>
          <Trackpoint>
            <Time>2019-04-08T07:11:05.000Z</Time>
            <Position>
              <LatitudeDegrees>28.2707876153290271759033203125</LatitudeDegrees>
              <LongitudeDegrees>-16.64065430872142314910888671875</LongitudeDegrees>
            </Position>
            <AltitudeMeters>3574.39990234375</AltitudeMeters>
            <DistanceMeters>11028.461113244</DistanceMeters>
          </Trackpoint>
          <Trackpoint>
            <Time>2019-04-08T07:11:10.000Z</Time>
            <Position>
              <LatitudeDegrees>28.2708169519901275634765625</LatitudeDegrees>
              <LongitudeDegrees>-16.64062430150806903839111328125</LongitudeDegrees>
            </Position>
            <AltitudeMeters>3573.60009765625</AltitudeMeters>
            <DistanceMeters>11032.855007125</DistanceMeters>
          </Trackpoint>
          <Trackpoint>
            <Time>2019-04-08T07:11:15.000Z</Time>
            <Position>
              <LatitudeDegrees>28.2708362303674221038818359375</LatitudeDegrees>
              <LongitudeDegrees>-16.6405797936022281646728515625</LongitudeDegrees>
            </Position>
            <AltitudeMeters>3573.39990234375</AltitudeMeters>
            <DistanceMeters>11037.717181549</DistanceMeters>
          </Trackpoint>
          <Trackpoint>
            <Time>2019-04-08T07:11:16.000Z</Time>
            <Position>
              <LatitudeDegrees>28.27084385789930820465087890625</LatitudeDegrees>
              <LongitudeDegrees>-16.64057183079421520233154296875</LongitudeDegrees>
            </Position>
            <AltitudeMeters>3573.199951171875</AltitudeMeters>
            <DistanceMeters>11038.869319231</DistanceMeters>
          </Trackpoint>
          <Trackpoint>
            <Time>2019-04-08T07:11:18.000Z</Time>
            <Position>
              <LatitudeDegrees>28.27085710130631923675537109375</LatitudeDegrees>
              <LongitudeDegrees>-16.64055808447301387786865234375</LongitudeDegrees>
            </Position>
            <AltitudeMeters>3572.39990234375</AltitudeMeters>
            <DistanceMeters>11040.864880233</DistanceMeters>
          </Trackpoint>
          <Trackpoint>
            <Time>2019-04-08T07:11:23.000Z</Time>
            <Position>
              <LatitudeDegrees>28.2708799839019775390625</LatitudeDegrees>
              <LongitudeDegrees>-16.64051500149071216583251953125</LongitudeDegrees>
            </Position>
            <AltitudeMeters>3571.60009765625</AltitudeMeters>
            <DistanceMeters>11045.797123732</DistanceMeters>
          </Trackpoint>
          <Trackpoint>
            <Time>2019-04-08T07:11:25.000Z</Time>
            <Position>
              <LatitudeDegrees>28.27088333666324615478515625</LatitudeDegrees>
              <LongitudeDegrees>-16.64049823768436908721923828125</LongitudeDegrees>
            </Position>
            <AltitudeMeters>3571.199951171875</AltitudeMeters>
            <DistanceMeters>11047.483680604</DistanceMeters>
          </Trackpoint>
          <Trackpoint>
            <Time>2019-04-08T07:11:29.000Z</Time>
            <Position>
              <LatitudeDegrees>28.27088710851967334747314453125</LatitudeDegrees>
              <LongitudeDegrees>-16.64048750884830951690673828125</LongitudeDegrees>
            </Position>
            <AltitudeMeters>3570</AltitudeMeters>
            <DistanceMeters>11048.616054594</DistanceMeters>
          </Trackpoint>
          <Trackpoint>
            <Time>2019-04-08T07:11:39.000Z</Time>
            <Position>
              <LatitudeDegrees>28.27089364640414714813232421875</LatitudeDegrees>
              <LongitudeDegrees>-16.64049488492310047149658203125</LongitudeDegrees>
            </Position>
            <AltitudeMeters>3569.800048828125</AltitudeMeters>
            <DistanceMeters>11049.643925668</DistanceMeters>
          </Trackpoint>
          <Trackpoint>
            <Time>2019-04-08T07:11:53.000Z</Time>
            <Position>
              <LatitudeDegrees>28.270893730223178863525390625</LatitudeDegrees>
              <LongitudeDegrees>-16.6404953040182590484619140625</LongitudeDegrees>
            </Position>
            <AltitudeMeters>3570</AltitudeMeters>
            <DistanceMeters>11049.738952382</DistanceMeters>
          </Trackpoint>
          <Trackpoint>
            <Time>2019-04-08T07:12:04.000Z</Time>
            <Position>
              <LatitudeDegrees>28.27089138329029083251953125</LatitudeDegrees>
              <LongitudeDegrees>-16.64049522019922733306884765625</LongitudeDegrees>
            </Position>
            <AltitudeMeters>3570</AltitudeMeters>
            <DistanceMeters>11050.007728519</DistanceMeters>
          </Trackpoint>
          <Trackpoint>
            <Time>2019-04-08T07:12:07.000Z</Time>
            <Position>
              <LatitudeDegrees>28.270864896476268768310546875</LatitudeDegrees>
              <LongitudeDegrees>-16.640494801104068756103515625</LongitudeDegrees>
            </Position>
            <AltitudeMeters>3569.60009765625</AltitudeMeters>
            <DistanceMeters>11052.955088955</DistanceMeters>
          </Trackpoint>
          <Trackpoint>
            <Time>2019-04-08T07:12:14.000Z</Time>
            <Position>
              <LatitudeDegrees>28.2708496414124965667724609375</LatitudeDegrees>
              <LongitudeDegrees>-16.64047711528837680816650390625</LongitudeDegrees>
            </Position>
            <AltitudeMeters>3569.199951171875</AltitudeMeters>
            <DistanceMeters>11055.383388755</DistanceMeters>
          </Trackpoint>
          <Trackpoint>
            <Time>2019-04-08T07:12:18.000Z</Time>
            <Position>
              <LatitudeDegrees>28.270847797393798828125</LatitudeDegrees>
              <LongitudeDegrees>-16.64045951329171657562255859375</LongitudeDegrees>
            </Position>
            <AltitudeMeters>3568.800048828125</AltitudeMeters>
            <DistanceMeters>11057.120065331</DistanceMeters>
          </Trackpoint>
          <Trackpoint>
            <Time>2019-04-08T07:12:22.000Z</Time>
            <Position>
              <LatitudeDegrees>28.2708456180989742279052734375</LatitudeDegrees>
              <LongitudeDegrees>-16.6404520533978939056396484375</LongitudeDegrees>
            </Position>
            <AltitudeMeters>3567.800048828125</AltitudeMeters>
            <DistanceMeters>11057.886195196</DistanceMeters>
          </Trackpoint>
          <Trackpoint>
            <Time>2019-04-08T07:12:30.000Z</Time>
            <Position>
              <LatitudeDegrees>28.2708459533751010894775390625</LatitudeDegrees>
              <LongitudeDegrees>-16.6404198668897151947021484375</LongitudeDegrees>
            </Position>
            <AltitudeMeters>3567.39990234375</AltitudeMeters>
            <DistanceMeters>11061.04216958</DistanceMeters>
          </Trackpoint>
          <Trackpoint>
            <Time>2019-04-08T07:12:36.000Z</Time>
            <Position>
              <LatitudeDegrees>28.2708241604268550872802734375</LatitudeDegrees>
              <LongitudeDegrees>-16.64038994349539279937744140625</LongitudeDegrees>
            </Position>
            <AltitudeMeters>3566.199951171875</AltitudeMeters>
            <DistanceMeters>11064.847986525</DistanceMeters>
          </Trackpoint>
          <Trackpoint>
            <Time>2019-04-08T07:12:38.000Z</Time>
            <Position>
              <LatitudeDegrees>28.27081519179046154022216796875</LatitudeDegrees>
              <LongitudeDegrees>-16.6403806395828723907470703125</LongitudeDegrees>
            </Position>
            <AltitudeMeters>3565.39990234375</AltitudeMeters>
            <DistanceMeters>11066.198569896</DistanceMeters>
          </Trackpoint>
          <Trackpoint>
            <Time>2019-04-08T07:12:40.000Z</Time>
            <Position>
              <LatitudeDegrees>28.27080647461116313934326171875</LatitudeDegrees>
              <LongitudeDegrees>-16.640368066728115081787109375</LongitudeDegrees>
            </Position>
            <AltitudeMeters>3565</AltitudeMeters>
            <DistanceMeters>11067.765790618</DistanceMeters>
          </Trackpoint>
          <Trackpoint>
            <Time>2019-04-08T07:12:44.000Z</Time>
            <Position>
              <LatitudeDegrees>28.27079507522284984588623046875</LatitudeDegrees>
              <LongitudeDegrees>-16.64035566151142120361328125</LongitudeDegrees>
            </Position>
            <AltitudeMeters>3563.800048828125</AltitudeMeters>
            <DistanceMeters>11069.523142644</DistanceMeters>
          </Trackpoint>
          <Trackpoint>
            <Time>2019-04-08T07:12:47.000Z</Time>
            <Position>
              <LatitudeDegrees>28.27078803442418575286865234375</LatitudeDegrees>
              <LongitudeDegrees>-16.640353985130786895751953125</LongitudeDegrees>
            </Position>
            <AltitudeMeters>3563.199951171875</AltitudeMeters>
            <DistanceMeters>11070.323851972</DistanceMeters>
          </Trackpoint>
          <Trackpoint>
            <Time>2019-04-08T07:12:51.000Z</Time>
            <Position>
              <LatitudeDegrees>28.270772360265254974365234375</LatitudeDegrees>
              <LongitudeDegrees>-16.6403387300670146942138671875</LongitudeDegrees>
            </Position>
            <AltitudeMeters>3562.60009765625</AltitudeMeters>
            <DistanceMeters>11072.620276289</DistanceMeters>
          </Trackpoint>
          <Trackpoint>
            <Time>2019-04-08T07:12:56.000Z</Time>
            <Position>
              <LatitudeDegrees>28.27075668610632419586181640625</LatitudeDegrees>
              <LongitudeDegrees>-16.64032791741192340850830078125</LongitudeDegrees>
            </Position>
            <AltitudeMeters>3561.39990234375</AltitudeMeters>
            <DistanceMeters>11074.660586373</DistanceMeters>
          </Trackpoint>
          <Trackpoint>
            <Time>2019-04-08T07:13:01.000Z</Time>
            <Position>
              <LatitudeDegrees>28.27073221094906330108642578125</LatitudeDegrees>
              <LongitudeDegrees>-16.6403098963201045989990234375</LongitudeDegrees>
            </Position>
            <AltitudeMeters>3560.39990234375</AltitudeMeters>
            <DistanceMeters>11077.908220787</DistanceMeters>
          </Trackpoint>
          <Trackpoint>
            <Time>2019-04-08T07:13:03.000Z</Time>
            <Position>
              <LatitudeDegrees>28.27072081156075000762939453125</LatitudeDegrees>
              <LongitudeDegrees>-16.6403001733124256134033203125</LongitudeDegrees>
            </Position>
            <AltitudeMeters>3559.800048828125</AltitudeMeters>
            <DistanceMeters>11079.495479849</DistanceMeters>
          </Trackpoint>
          <Trackpoint>
            <Time>2019-04-08T07:13:06.000Z</Time>
            <Position>
              <LatitudeDegrees>28.27070807106792926788330078125</LatitudeDegrees>
              <LongitudeDegrees>-16.64028265513479709625244140625</LongitudeDegrees>
            </Position>
            <AltitudeMeters>3559.199951171875</AltitudeMeters>
            <DistanceMeters>11081.724053842</DistanceMeters>
          </Trackpoint>
          <Trackpoint>
            <Time>2019-04-08T07:13:13.000Z</Time>
            <Position>
              <LatitudeDegrees>28.27068409882485866546630859375</LatitudeDegrees>
              <LongitudeDegrees>-16.64022364653646945953369140625</LongitudeDegrees>
            </Position>
            <AltitudeMeters>3558</AltitudeMeters>
            <DistanceMeters>11088.092970813</DistanceMeters>
          </Trackpoint>
          <Trackpoint>
            <Time>2019-04-08T07:13:14.000Z</Time>
            <Position>
              <LatitudeDegrees>28.270681835711002349853515625</LatitudeDegrees>
              <LongitudeDegrees>-16.6402153484523296356201171875</LongitudeDegrees>
            </Position>
            <AltitudeMeters>3558</AltitudeMeters>
            <DistanceMeters>11088.942915585</DistanceMeters>
          </Trackpoint>
          <Trackpoint>
            <Time>2019-04-08T07:13:20.000Z</Time>
            <Position>
              <LatitudeDegrees>28.27065140940248966217041015625</LatitudeDegrees>
              <LongitudeDegrees>-16.640154160559177398681640625</LongitudeDegrees>
            </Position>
            <AltitudeMeters>3556.800048828125</AltitudeMeters>
            <DistanceMeters>11095.830877667</DistanceMeters>
          </Trackpoint>
          <Trackpoint>
            <Time>2019-04-08T07:13:23.000Z</Time>
            <Position>
              <LatitudeDegrees>28.2706374116241931915283203125</LatitudeDegrees>
              <LongitudeDegrees>-16.64012809284031391143798828125</LongitudeDegrees>
            </Position>
            <AltitudeMeters>3556</AltitudeMeters>
            <DistanceMeters>11098.823842056</DistanceMeters>
          </Trackpoint>
          <Trackpoint>
            <Time>2019-04-08T07:13:25.000Z</Time>
            <Position>
              <LatitudeDegrees>28.270632885396480560302734375</LatitudeDegrees>
              <LongitudeDegrees>-16.64010747335851192474365234375</LongitudeDegrees>
            </Position>
            <AltitudeMeters>3555.39990234375</AltitudeMeters>
            <DistanceMeters>11100.905773057</DistanceMeters>
          </Trackpoint>
          <Trackpoint>
            <Time>2019-04-08T07:13:28.000Z</Time>
            <Position>
              <LatitudeDegrees>28.27062592841684818267822265625</LatitudeDegrees>
              <LongitudeDegrees>-16.64007662795484066009521484375</LongitudeDegrees>
            </Position>
            <AltitudeMeters>3555.199951171875</AltitudeMeters>
            <DistanceMeters>11104.025776648</DistanceMeters>
          </Trackpoint>
          <Trackpoint>
            <Time>2019-04-08T07:13:34.000Z</Time>
            <Position>
              <LatitudeDegrees>28.2706132717430591583251953125</LatitudeDegrees>
              <LongitudeDegrees>-16.6400175355374813079833984375</LongitudeDegrees>
            </Position>
            <AltitudeMeters>3554.39990234375</AltitudeMeters>
            <DistanceMeters>11109.986004892</DistanceMeters>
          </Trackpoint>
          <Trackpoint>
            <Time>2019-04-08T07:13:35.000Z</Time>
            <Position>
              <LatitudeDegrees>28.27061268500983715057373046875</LatitudeDegrees>
              <LongitudeDegrees>-16.64000890217721462249755859375</LongitudeDegrees>
            </Position>
            <AltitudeMeters>3554.199951171875</AltitudeMeters>
            <DistanceMeters>11110.82525811</DistanceMeters>
          </Trackpoint>
          <Trackpoint>
            <Time>2019-04-08T07:13:40.000Z</Time>
            <Position>
              <LatitudeDegrees>28.27060296200215816497802734375</LatitudeDegrees>
              <LongitudeDegrees>-16.6399672441184520721435546875</LongitudeDegrees>
            </Position>
            <AltitudeMeters>3553.39990234375</AltitudeMeters>
            <DistanceMeters>11115.050475398</DistanceMeters>
          </Trackpoint>
          <Trackpoint>
            <Time>2019-04-08T07:13:46.000Z</Time>
            <Position>
              <LatitudeDegrees>28.27058837749063968658447265625</LatitudeDegrees>
              <LongitudeDegrees>-16.6399156115949153900146484375</LongitudeDegrees>
            </Position>
            <AltitudeMeters>3552</AltitudeMeters>
            <DistanceMeters>11120.366878248</DistanceMeters>
          </Trackpoint>
          <Trackpoint>
            <Time>2019-04-08T07:13:48.000Z</Time>
            <Position>
              <LatitudeDegrees>28.27058167196810245513916015625</LatitudeDegrees>
              <LongitudeDegrees>-16.6399008594453334808349609375</LongitudeDegrees>
            </Position>
            <AltitudeMeters>3551.800048828125</AltitudeMeters>
            <DistanceMeters>11121.996246983</DistanceMeters>
          </Trackpoint>
          <Trackpoint>
            <Time>2019-04-08T07:13:53.000Z</Time>
            <Position>
              <LatitudeDegrees>28.27056884765625</LatitudeDegrees>
              <LongitudeDegrees>-16.63987831212580204010009765625</LongitudeDegrees>
            </Position>
            <AltitudeMeters>3551</AltitudeMeters>
            <DistanceMeters>11124.627989492</DistanceMeters>
          </Trackpoint>
          <Trackpoint>
            <Time>2019-04-08T07:13:57.000Z</Time>
            <Position>
              <LatitudeDegrees>28.27055635862052440643310546875</LatitudeDegrees>
              <LongitudeDegrees>-16.6398559324443340301513671875</LongitudeDegrees>
            </Position>
            <AltitudeMeters>3550</AltitudeMeters>
            <DistanceMeters>11127.2251932</DistanceMeters>
          </Trackpoint>
          <Trackpoint>
            <Time>2019-04-08T07:13:58.000Z</Time>
            <Position>
              <LatitudeDegrees>28.27055334113538265228271484375</LatitudeDegrees>
              <LongitudeDegrees>-16.63985182531177997589111328125</LongitudeDegrees>
            </Position>
            <AltitudeMeters>3549.800048828125</AltitudeMeters>
            <DistanceMeters>11127.745675951</DistanceMeters>
          </Trackpoint>
          <Trackpoint>
            <Time>2019-04-08T07:14:02.000Z</Time>
            <Position>
              <LatitudeDegrees>28.27053406275808811187744140625</LatitudeDegrees>
              <LongitudeDegrees>-16.63981745950877666473388671875</LongitudeDegrees>
            </Position>
            <AltitudeMeters>3549.199951171875</AltitudeMeters>
            <DistanceMeters>11131.740190324</DistanceMeters>
          </Trackpoint>
          <Trackpoint>
            <Time>2019-04-08T07:14:05.000Z</Time>
            <Position>
              <LatitudeDegrees>28.27052668668329715728759765625</LatitudeDegrees>
              <LongitudeDegrees>-16.639797426760196685791015625</LongitudeDegrees>
            </Position>
            <AltitudeMeters>3548.60009765625</AltitudeMeters>
            <DistanceMeters>11133.869297736</DistanceMeters>
          </Trackpoint>
          <Trackpoint>
            <Time>2019-04-08T07:14:08.000Z</Time>
            <Position>
              <LatitudeDegrees>28.27051193453371524810791015625</LatitudeDegrees>
              <LongitudeDegrees>-16.63977236486971378326416015625</LongitudeDegrees>
            </Position>
            <AltitudeMeters>3548</AltitudeMeters>
            <DistanceMeters>11136.825835238</DistanceMeters>
          </Trackpoint>
          <Trackpoint>
            <Time>2019-04-08T07:14:12.000Z</Time>
            <Position>
              <LatitudeDegrees>28.27050204388797283172607421875</LatitudeDegrees>
              <LongitudeDegrees>-16.63974277675151824951171875</LongitudeDegrees>
            </Position>
            <AltitudeMeters>3547.60009765625</AltitudeMeters>
            <DistanceMeters>11139.929879626</DistanceMeters>
          </Trackpoint>
          <Trackpoint>
            <Time>2019-04-08T07:14:17.000Z</Time>
            <Position>
              <LatitudeDegrees>28.270474635064601898193359375</LatitudeDegrees>
              <LongitudeDegrees>-16.63970732130110263824462890625</LongitudeDegrees>
            </Position>
            <AltitudeMeters>3547</AltitudeMeters>
            <DistanceMeters>11144.554079127</DistanceMeters>
          </Trackpoint>
          <Trackpoint>
            <Time>2019-04-08T07:14:21.000Z</Time>
            <Position>
              <LatitudeDegrees>28.27047203667461872100830078125</LatitudeDegrees>
              <LongitudeDegrees>-16.639679409563541412353515625</LongitudeDegrees>
            </Position>
            <AltitudeMeters>3546.39990234375</AltitudeMeters>
            <DistanceMeters>11147.304934277</DistanceMeters>
          </Trackpoint>
          <Trackpoint>
            <Time>2019-04-08T07:14:24.000Z</Time>
            <Position>
              <LatitudeDegrees>28.270464576780796051025390625</LatitudeDegrees>
              <LongitudeDegrees>-16.63964780978858470916748046875</LongitudeDegrees>
            </Position>
            <AltitudeMeters>3546.199951171875</AltitudeMeters>
            <DistanceMeters>11150.513405431</DistanceMeters>
          </Trackpoint>
          <Trackpoint>
            <Time>2019-04-08T07:14:32.000Z</Time>
            <Position>
              <LatitudeDegrees>28.2704818435013294219970703125</LatitudeDegrees>
              <LongitudeDegrees>-16.6395360790193080902099609375</LongitudeDegrees>
            </Position>
            <AltitudeMeters>3546.39990234375</AltitudeMeters>
            <DistanceMeters>11161.633155282</DistanceMeters>
          </Trackpoint>
          <Trackpoint>
            <Time>2019-04-08T07:14:36.000Z</Time>
            <Position>
              <LatitudeDegrees>28.27049131505191326141357421875</LatitudeDegrees>
              <LongitudeDegrees>-16.63948486559092998504638671875</LongitudeDegrees>
            </Position>
            <AltitudeMeters>3546.60009765625</AltitudeMeters>
            <DistanceMeters>11166.762837803</DistanceMeters>
          </Trackpoint>
          <Trackpoint>
            <Time>2019-04-08T07:14:40.000Z</Time>
            <Position>
              <LatitudeDegrees>28.27049349434673786163330078125</LatitudeDegrees>
              <LongitudeDegrees>-16.6394336521625518798828125</LongitudeDegrees>
            </Position>
            <AltitudeMeters>3546.800048828125</AltitudeMeters>
            <DistanceMeters>11171.788484409</DistanceMeters>
          </Trackpoint>
          <Trackpoint>
            <Time>2019-04-08T07:14:46.000Z</Time>
            <Position>
              <LatitudeDegrees>28.27048947103321552276611328125</LatitudeDegrees>
              <LongitudeDegrees>-16.6393620707094669342041015625</LongitudeDegrees>
            </Position>
            <AltitudeMeters>3546.39990234375</AltitudeMeters>
            <DistanceMeters>11178.818534791</DistanceMeters>
          </Trackpoint>
          <Trackpoint>
            <Time>2019-04-08T07:14:54.000Z</Time>
            <Position>
              <LatitudeDegrees>28.270486705005168914794921875</LatitudeDegrees>
              <LongitudeDegrees>-16.639271043241024017333984375</LongitudeDegrees>
            </Position>
            <AltitudeMeters>3545.800048828125</AltitudeMeters>
            <DistanceMeters>11187.745989899</DistanceMeters>
          </Trackpoint>
          <Trackpoint>
            <Time>2019-04-08T07:14:58.000Z</Time>
            <Position>
              <LatitudeDegrees>28.27049064449965953826904296875</LatitudeDegrees>
              <LongitudeDegrees>-16.6392299719154834747314453125</LongitudeDegrees>
            </Position>
            <AltitudeMeters>3545.39990234375</AltitudeMeters>
            <DistanceMeters>11191.795510713</DistanceMeters>
          </Trackpoint>
          <Trackpoint>
            <Time>2019-04-08T07:15:01.000Z</Time>
            <Position>
              <LatitudeDegrees>28.27049014158546924591064453125</LatitudeDegrees>
              <LongitudeDegrees>-16.63920004852116107940673828125</LongitudeDegrees>
            </Position>
            <AltitudeMeters>3544.800048828125</AltitudeMeters>
            <DistanceMeters>11194.727512209</DistanceMeters>
          </Trackpoint>
          <Trackpoint>
            <Time>2019-04-08T07:15:04.000Z</Time>
            <Position>
              <LatitudeDegrees>28.2704924046993255615234375</LatitudeDegrees>
              <LongitudeDegrees>-16.63917104713618755340576171875</LongitudeDegrees>
            </Position>
            <AltitudeMeters>3544.199951171875</AltitudeMeters>
            <DistanceMeters>11197.581479439</DistanceMeters>
          </Trackpoint>
          <Trackpoint>
            <Time>2019-04-08T07:15:08.000Z</Time>
            <Position>
              <LatitudeDegrees>28.27050589956343173980712890625</LatitudeDegrees>
              <LongitudeDegrees>-16.639114804565906524658203125</LongitudeDegrees>
            </Position>
            <AltitudeMeters>3543.39990234375</AltitudeMeters>
            <DistanceMeters>11203.294948293</DistanceMeters>
          </Trackpoint>
          <Trackpoint>
            <Time>2019-04-08T07:15:10.000Z</Time>
            <Position>
              <LatitudeDegrees>28.270514197647571563720703125</LatitudeDegrees>
              <LongitudeDegrees>-16.639093346893787384033203125</LongitudeDegrees>
            </Position>
            <AltitudeMeters>3543</AltitudeMeters>
            <DistanceMeters>11205.59137261</DistanceMeters>
          </Trackpoint>
          <Trackpoint>
            <Time>2019-04-08T07:15:13.000Z</Time>
            <Position>
              <LatitudeDegrees>28.27051629312336444854736328125</LatitudeDegrees>
              <LongitudeDegrees>-16.63905680179595947265625</LongitudeDegrees>
            </Position>
            <AltitudeMeters>3542.60009765625</AltitudeMeters>
            <DistanceMeters>11209.182326406</DistanceMeters>
          </Trackpoint>
          <Trackpoint>
            <Time>2019-04-08T07:15:15.000Z</Time>
            <Position>
              <LatitudeDegrees>28.270516209304332733154296875</LatitudeDegrees>
              <LongitudeDegrees>-16.6390324942767620086669921875</LongitudeDegrees>
            </Position>
            <AltitudeMeters>3542.39990234375</AltitudeMeters>
            <DistanceMeters>11211.565584278</DistanceMeters>
          </Trackpoint>
          <Trackpoint>
            <Time>2019-04-08T07:15:21.000Z</Time>
            <Position>
              <LatitudeDegrees>28.27051646076142787933349609375</LatitudeDegrees>
              <LongitudeDegrees>-16.6389681212604045867919921875</LongitudeDegrees>
            </Position>
            <AltitudeMeters>3542</AltitudeMeters>
            <DistanceMeters>11217.876102253</DistanceMeters>
          </Trackpoint>
          <Trackpoint>
            <Time>2019-04-08T07:15:22.000Z</Time>
            <Position>
              <LatitudeDegrees>28.2705160416662693023681640625</LatitudeDegrees>
              <LongitudeDegrees>-16.638960577547550201416015625</LongitudeDegrees>
            </Position>
            <AltitudeMeters>3542</AltitudeMeters>
            <DistanceMeters>11218.612176017</DistanceMeters>
          </Trackpoint>
          <Trackpoint>
            <Time>2019-04-08T07:15:27.000Z</Time>
            <Position>
              <LatitudeDegrees>28.27051009051501750946044921875</LatitudeDegrees>
              <LongitudeDegrees>-16.63892327807843685150146484375</LongitudeDegrees>
            </Position>
            <AltitudeMeters>3543</AltitudeMeters>
            <DistanceMeters>11222.327951425</DistanceMeters>
          </Trackpoint>
          <Trackpoint>
            <Time>2019-04-08T07:15:32.000Z</Time>
            <Position>
              <LatitudeDegrees>28.2704791612923145294189453125</LatitudeDegrees>
              <LongitudeDegrees>-16.63888849318027496337890625</LongitudeDegrees>
            </Position>
            <AltitudeMeters>3543.199951171875</AltitudeMeters>
            <DistanceMeters>11227.173382134</DistanceMeters>
          </Trackpoint>
          <Trackpoint>
            <Time>2019-04-08T07:15:34.000Z</Time>
            <Position>
              <LatitudeDegrees>28.270467929542064666748046875</LatitudeDegrees>
              <LongitudeDegrees>-16.63887416012585163116455078125</LongitudeDegrees>
            </Position>
            <AltitudeMeters>3541.800048828125</AltitudeMeters>
            <DistanceMeters>11229.05481509</DistanceMeters>
          </Trackpoint>
          <Trackpoint>
            <Time>2019-04-08T07:15:37.000Z</Time>
            <Position>
              <LatitudeDegrees>28.27044957317411899566650390625</LatitudeDegrees>
              <LongitudeDegrees>-16.63885102607309818267822265625</LongitudeDegrees>
            </Position>
            <AltitudeMeters>3540.800048828125</AltitudeMeters>
            <DistanceMeters>11232.106045795</DistanceMeters>
          </Trackpoint>
          <Trackpoint>
            <Time>2019-04-08T07:15:39.000Z</Time>
            <Position>
              <LatitudeDegrees>28.27043767087161540985107421875</LatitudeDegrees>
              <LongitudeDegrees>-16.63883753120899200439453125</LongitudeDegrees>
            </Position>
            <AltitudeMeters>3540.60009765625</AltitudeMeters>
            <DistanceMeters>11233.977854989</DistanceMeters>
          </Trackpoint>
          <Trackpoint>
            <Time>2019-04-08T07:15:42.000Z</Time>
            <Position>
              <LatitudeDegrees>28.2704201526939868927001953125</LatitudeDegrees>
              <LongitudeDegrees>-16.63881900720298290252685546875</LongitudeDegrees>
            </Position>
            <AltitudeMeters>3540.60009765625</AltitudeMeters>
            <DistanceMeters>11236.641994641</DistanceMeters>
          </Trackpoint>
          <Trackpoint>
            <Time>2019-04-08T07:15:44.000Z</Time>
            <Position>
              <LatitudeDegrees>28.27040196396410465240478515625</LatitudeDegrees>
              <LongitudeDegrees>-16.63880266249179840087890625</LongitudeDegrees>
            </Position>
            <AltitudeMeters>3540.39990234375</AltitudeMeters>
            <DistanceMeters>11239.223505132</DistanceMeters>
          </Trackpoint>
          <Trackpoint>
            <Time>2019-04-08T07:15:47.000Z</Time>
            <Position>
              <LatitudeDegrees>28.27039249241352081298828125</LatitudeDegrees>
              <LongitudeDegrees>-16.6387743316590785980224609375</LongitudeDegrees>
            </Position>
            <AltitudeMeters>3539.60009765625</AltitudeMeters>
            <DistanceMeters>11242.195274767</DistanceMeters>
          </Trackpoint>
          <Trackpoint>
            <Time>2019-04-08T07:15:50.000Z</Time>
            <Position>
              <LatitudeDegrees>28.27038972638547420501708984375</LatitudeDegrees>
              <LongitudeDegrees>-16.63875631056725978851318359375</LongitudeDegrees>
            </Position>
            <AltitudeMeters>3539.39990234375</AltitudeMeters>
            <DistanceMeters>11243.988235228</DistanceMeters>
          </Trackpoint>
          <Trackpoint>
            <Time>2019-04-08T07:15:54.000Z</Time>
            <Position>
              <LatitudeDegrees>28.27038318850100040435791015625</LatitudeDegrees>
              <LongitudeDegrees>-16.63872797973453998565673828125</LongitudeDegrees>
            </Position>
            <AltitudeMeters>3540.800048828125</AltitudeMeters>
            <DistanceMeters>11246.857979069</DistanceMeters>
          </Trackpoint>
          <Trackpoint>
            <Time>2019-04-08T07:15:55.000Z</Time>
            <Position>
              <LatitudeDegrees>28.27037614770233631134033203125</LatitudeDegrees>
              <LongitudeDegrees>-16.638725213706493377685546875</LongitudeDegrees>
            </Position>
            <AltitudeMeters>3542</AltitudeMeters>
            <DistanceMeters>11247.680934556</DistanceMeters>
          </Trackpoint>
          <Trackpoint>
            <Time>2019-04-08T07:15:57.000Z</Time>
            <Position>
              <LatitudeDegrees>28.27037371695041656494140625</LatitudeDegrees>
              <LongitudeDegrees>-16.63871875964105129241943359375</LongitudeDegrees>
            </Position>
            <AltitudeMeters>3543.199951171875</AltitudeMeters>
            <DistanceMeters>11248.366181938</DistanceMeters>
          </Trackpoint>
          <Trackpoint>
            <Time>2019-04-08T07:15:58.000Z</Time>
            <Position>
              <LatitudeDegrees>28.27037782408297061920166015625</LatitudeDegrees>
              <LongitudeDegrees>-16.6387188434600830078125</LongitudeDegrees>
            </Position>
            <AltitudeMeters>3543.60009765625</AltitudeMeters>
            <DistanceMeters>11248.831715863</DistanceMeters>
          </Trackpoint>
          <Trackpoint>
            <Time>2019-04-08T07:16:06.000Z</Time>
            <Position>
              <LatitudeDegrees>28.27031311579048633575439453125</LatitudeDegrees>
              <LongitudeDegrees>-16.6387255489826202392578125</LongitudeDegrees>
            </Position>
            <AltitudeMeters>3542.60009765625</AltitudeMeters>
            <DistanceMeters>11256.063742049</DistanceMeters>
          </Trackpoint>
          <Trackpoint>
            <Time>2019-04-08T07:16:15.000Z</Time>
            <Position>
              <LatitudeDegrees>28.2702327333390712738037109375</LatitudeDegrees>
              <LongitudeDegrees>-16.638707108795642852783203125</LongitudeDegrees>
            </Position>
            <AltitudeMeters>3542.199951171875</AltitudeMeters>
            <DistanceMeters>11265.190759919</DistanceMeters>
          </Trackpoint>
          <Trackpoint>
            <Time>2019-04-08T07:16:20.000Z</Time>
            <Position>
              <LatitudeDegrees>28.270197026431560516357421875</LatitudeDegrees>
              <LongitudeDegrees>-16.638699062168598175048828125</LongitudeDegrees>
            </Position>
            <AltitudeMeters>3541.199951171875</AltitudeMeters>
            <DistanceMeters>11269.242510032</DistanceMeters>
          </Trackpoint>
          <Trackpoint>
            <Time>2019-04-08T07:16:25.000Z</Time>
            <Position>
              <LatitudeDegrees>28.27017364092171192169189453125</LatitudeDegrees>
              <LongitudeDegrees>-16.63869830779731273651123046875</LongitudeDegrees>
            </Position>
            <AltitudeMeters>3541.39990234375</AltitudeMeters>
            <DistanceMeters>11271.846658148</DistanceMeters>
          </Trackpoint>
          <Trackpoint>
            <Time>2019-04-08T07:16:31.000Z</Time>
            <Position>
              <LatitudeDegrees>28.2701683603227138519287109375</LatitudeDegrees>
              <LongitudeDegrees>-16.63871641270816326141357421875</LongitudeDegrees>
            </Position>
            <AltitudeMeters>3542.39990234375</AltitudeMeters>
            <DistanceMeters>11273.718467342</DistanceMeters>
          </Trackpoint>
          <Trackpoint>
            <Time>2019-04-08T07:16:33.000Z</Time>
            <Position>
              <LatitudeDegrees>28.27016559429466724395751953125</LatitudeDegrees>
              <LongitudeDegrees>-16.63872177712619304656982421875</LongitudeDegrees>
            </Position>
            <AltitudeMeters>3542.60009765625</AltitudeMeters>
            <DistanceMeters>11274.334310837</DistanceMeters>
          </Trackpoint>
          <Trackpoint>
            <Time>2019-04-08T07:16:39.000Z</Time>
            <Position>
              <LatitudeDegrees>28.2701194100081920623779296875</LatitudeDegrees>
              <LongitudeDegrees>-16.638754047453403472900390625</LongitudeDegrees>
            </Position>
            <AltitudeMeters>3543.199951171875</AltitudeMeters>
            <DistanceMeters>11280.369816481</DistanceMeters>
          </Trackpoint>
          <Trackpoint>
            <Time>2019-04-08T07:16:48.000Z</Time>
            <Position>
              <LatitudeDegrees>28.27008009888231754302978515625</LatitudeDegrees>
              <LongitudeDegrees>-16.6388088651001453399658203125</LongitudeDegrees>
            </Position>
            <AltitudeMeters>3543.199951171875</AltitudeMeters>
            <DistanceMeters>11287.298951813</DistanceMeters>
          </Trackpoint>
          <Trackpoint>
            <Time>2019-04-08T07:16:55.000Z</Time>
            <Position>
              <LatitudeDegrees>28.270056545734405517578125</LatitudeDegrees>
              <LongitudeDegrees>-16.63882118649780750274658203125</LongitudeDegrees>
            </Position>
            <AltitudeMeters>3542.800048828125</AltitudeMeters>
            <DistanceMeters>11290.184386006</DistanceMeters>
          </Trackpoint>
          <Trackpoint>
            <Time>2019-04-08T07:17:03.000Z</Time>
            <Position>
              <LatitudeDegrees>28.27002234756946563720703125</LatitudeDegrees>
              <LongitudeDegrees>-16.63883644156157970428466796875</LongitudeDegrees>
            </Position>
            <AltitudeMeters>3542.60009765625</AltitudeMeters>
            <DistanceMeters>11294.273848266</DistanceMeters>
          </Trackpoint>
          <Trackpoint>
            <Time>2019-04-08T07:17:06.000Z</Time>
            <Position>
              <LatitudeDegrees>28.2700015604496002197265625</LatitudeDegrees>
              <LongitudeDegrees>-16.63882520981132984161376953125</LongitudeDegrees>
            </Position>
            <AltitudeMeters>3543.60009765625</AltitudeMeters>
            <DistanceMeters>11296.836047629</DistanceMeters>
          </Trackpoint>
          <Trackpoint>
            <Time>2019-04-08T07:17:11.000Z</Time>
            <Position>
              <LatitudeDegrees>28.26996861957013607025146484375</LatitudeDegrees>
              <LongitudeDegrees>-16.63881749846041202545166015625</LongitudeDegrees>
            </Position>
            <AltitudeMeters>3543.39990234375</AltitudeMeters>
            <DistanceMeters>11300.580871886</DistanceMeters>
          </Trackpoint>
          <Trackpoint>
            <Time>2019-04-08T07:17:20.000Z</Time>
            <Position>
              <LatitudeDegrees>28.2699407078325748443603515625</LatitudeDegrees>
              <LongitudeDegrees>-16.63883560337126255035400390625</LongitudeDegrees>
            </Position>
            <AltitudeMeters>3543.800048828125</AltitudeMeters>
            <DistanceMeters>11304.159230224</DistanceMeters>
          </Trackpoint>
          <Trackpoint>
            <Time>2019-04-08T07:17:28.000Z</Time>
            <Position>
              <LatitudeDegrees>28.26993249356746673583984375</LatitudeDegrees>
              <LongitudeDegrees>-16.63883878849446773529052734375</LongitudeDegrees>
            </Position>
            <AltitudeMeters>3542.800048828125</AltitudeMeters>
            <DistanceMeters>11305.128316366</DistanceMeters>
          </Trackpoint>
          <Trackpoint>
            <Time>2019-04-08T07:17:32.000Z</Time>
            <Position>
              <LatitudeDegrees>28.2699122093617916107177734375</LatitudeDegrees>
              <LongitudeDegrees>-16.63884465582668781280517578125</LongitudeDegrees>
            </Position>
            <AltitudeMeters>3541.60009765625</AltitudeMeters>
            <DistanceMeters>11307.455985987</DistanceMeters>
          </Trackpoint>
          <Trackpoint>
            <Time>2019-04-08T07:17:36.000Z</Time>
            <Position>
              <LatitudeDegrees>28.269884884357452392578125</LatitudeDegrees>
              <LongitudeDegrees>-16.63886410184204578399658203125</LongitudeDegrees>
            </Position>
            <AltitudeMeters>3540.199951171875</AltitudeMeters>
            <DistanceMeters>11311.046939783</DistanceMeters>
          </Trackpoint>
          <Trackpoint>
            <Time>2019-04-08T07:17:38.000Z</Time>
            <Position>
              <LatitudeDegrees>28.26987423934042453765869140625</LatitudeDegrees>
              <LongitudeDegrees>-16.6388849727809429168701171875</LongitudeDegrees>
            </Position>
            <AltitudeMeters>3539.60009765625</AltitudeMeters>
            <DistanceMeters>11313.413085889</DistanceMeters>
          </Trackpoint>
          <Trackpoint>
            <Time>2019-04-08T07:17:39.000Z</Time>
            <Position>
              <LatitudeDegrees>28.2698729820549488067626953125</LatitudeDegrees>
              <LongitudeDegrees>-16.63889779709279537200927734375</LongitudeDegrees>
            </Position>
            <AltitudeMeters>3539.39990234375</AltitudeMeters>
            <DistanceMeters>11314.677334097</DistanceMeters>
          </Trackpoint>
          <Trackpoint>
            <Time>2019-04-08T07:17:40.000Z</Time>
            <Position>
              <LatitudeDegrees>28.2698666118085384368896484375</LatitudeDegrees>
              <LongitudeDegrees>-16.63890659809112548828125</LongitudeDegrees>
            </Position>
            <AltitudeMeters>3539</AltitudeMeters>
            <DistanceMeters>11315.793645231</DistanceMeters>
          </Trackpoint>
          <Trackpoint>
            <Time>2019-04-08T07:17:43.000Z</Time>
            <Position>
              <LatitudeDegrees>28.2698602415621280670166015625</LatitudeDegrees>
              <LongitudeDegrees>-16.6389334201812744140625</LongitudeDegrees>
            </Position>
            <AltitudeMeters>3538.800048828125</AltitudeMeters>
            <DistanceMeters>11318.516454949</DistanceMeters>
          </Trackpoint>
          <Trackpoint>
            <Time>2019-04-08T07:17:44.000Z</Time>
            <Position>
              <LatitudeDegrees>28.2698552124202251434326171875</LatitudeDegrees>
              <LongitudeDegrees>-16.63893937133252620697021484375</LongitudeDegrees>
            </Position>
            <AltitudeMeters>3538.800048828125</AltitudeMeters>
            <DistanceMeters>11319.328363553</DistanceMeters>
          </Trackpoint>
          <Trackpoint>
            <Time>2019-04-08T07:17:49.000Z</Time>
            <Position>
              <LatitudeDegrees>28.26983132399618625640869140625</LatitudeDegrees>
              <LongitudeDegrees>-16.63894674740731716156005859375</LongitudeDegrees>
            </Position>
            <AltitudeMeters>3538.60009765625</AltitudeMeters>
            <DistanceMeters>11322.08413827</DistanceMeters>
          </Trackpoint>
          <Trackpoint>
            <Time>2019-04-08T07:17:58.000Z</Time>
            <Position>
              <LatitudeDegrees>28.26981321908533573150634765625</LatitudeDegrees>
              <LongitudeDegrees>-16.63895563222467899322509765625</LongitudeDegrees>
            </Position>
            <AltitudeMeters>3539.199951171875</AltitudeMeters>
            <DistanceMeters>11324.280057399</DistanceMeters>
          </Trackpoint>
          <Trackpoint>
            <Time>2019-04-08T07:18:04.000Z</Time>
            <Position>
              <LatitudeDegrees>28.26976309530436992645263671875</LatitudeDegrees>
              <LongitudeDegrees>-16.63897708989679813385009765625</LongitudeDegrees>
            </Position>
            <AltitudeMeters>3539.800048828125</AltitudeMeters>
            <DistanceMeters>11330.242557793</DistanceMeters>
          </Trackpoint>
          <Trackpoint>
            <Time>2019-04-08T07:18:09.000Z</Time>
            <Position>
              <LatitudeDegrees>28.26974339783191680908203125</LatitudeDegrees>
              <LongitudeDegrees>-16.6389775089919567108154296875</LongitudeDegrees>
            </Position>
            <AltitudeMeters>3539.39990234375</AltitudeMeters>
            <DistanceMeters>11332.436419855</DistanceMeters>
          </Trackpoint>
          <Trackpoint>
            <Time>2019-04-08T07:18:21.000Z</Time>
            <Position>
              <LatitudeDegrees>28.2697440683841705322265625</LatitudeDegrees>
              <LongitudeDegrees>-16.6389788500964641571044921875</LongitudeDegrees>
            </Position>
            <AltitudeMeters>3539.39990234375</AltitudeMeters>
            <DistanceMeters>11332.601010952</DistanceMeters>
          </Trackpoint>
          <Trackpoint>
            <Time>2019-04-08T07:18:27.000Z</Time>
            <Position>
              <LatitudeDegrees>28.26975814998149871826171875</LatitudeDegrees>
              <LongitudeDegrees>-16.63898563943803310394287109375</LongitudeDegrees>
            </Position>
            <AltitudeMeters>3539.199951171875</AltitudeMeters>
            <DistanceMeters>11334.303554502</DistanceMeters>
          </Trackpoint>
          <Trackpoint>
            <Time>2019-04-08T07:18:38.000Z</Time>
            <Position>
              <LatitudeDegrees>28.26975823380053043365478515625</LatitudeDegrees>
              <LongitudeDegrees>-16.63898044265806674957275390625</LongitudeDegrees>
            </Position>
            <AltitudeMeters>3539</AltitudeMeters>
            <DistanceMeters>11334.81528902</DistanceMeters>
          </Trackpoint>
          <Trackpoint>
            <Time>2019-04-08T07:18:44.000Z</Time>
            <Position>
              <LatitudeDegrees>28.2697586528956890106201171875</LatitudeDegrees>
              <LongitudeDegrees>-16.6389768384397029876708984375</LongitudeDegrees>
            </Position>
            <AltitudeMeters>3539</AltitudeMeters>
            <DistanceMeters>11335.183325902</DistanceMeters>
          </Trackpoint>
          <Trackpoint>
            <Time>2019-04-08T08:04:23.000Z</Time>
            <Position>
              <LatitudeDegrees>28.26992855407297611236572265625</LatitudeDegrees>
              <LongitudeDegrees>-16.63893065415322780609130859375</LongitudeDegrees>
            </Position>
            <AltitudeMeters>3540</AltitudeMeters>
            <DistanceMeters>11354.628308825</DistanceMeters>
          </Trackpoint>
          <Trackpoint>
            <Time>2019-04-08T08:04:33.000Z</Time>
            <Position>
              <LatitudeDegrees>28.2699430547654628753662109375</LatitudeDegrees>
              <LongitudeDegrees>-16.63889260031282901763916015625</LongitudeDegrees>
            </Position>
            <AltitudeMeters>3539.39990234375</AltitudeMeters>
            <DistanceMeters>11358.693409056</DistanceMeters>
          </Trackpoint>
          <Trackpoint>
            <Time>2019-04-08T08:04:39.000Z</Time>
            <Position>
              <LatitudeDegrees>28.2699407078325748443603515625</LatitudeDegrees>
              <LongitudeDegrees>-16.638847254216670989990234375</LongitudeDegrees>
            </Position>
            <AltitudeMeters>3539.199951171875</AltitudeMeters>
            <DistanceMeters>11363.146503247</DistanceMeters>
          </Trackpoint>
          <Trackpoint>
            <Time>2019-04-08T08:05:19.000Z</Time>
            <Position>
              <LatitudeDegrees>28.26995554380118846893310546875</LatitudeDegrees>
              <LongitudeDegrees>-16.63885806687176227569580078125</LongitudeDegrees>
            </Position>
            <AltitudeMeters>3538.800048828125</AltitudeMeters>
            <DistanceMeters>11365.107832532</DistanceMeters>
          </Trackpoint>
          <Trackpoint>
            <Time>2019-04-08T08:05:47.000Z</Time>
            <Position>
              <LatitudeDegrees>28.26993559487164020538330078125</LatitudeDegrees>
              <LongitudeDegrees>-16.63883811794221401214599609375</LongitudeDegrees>
            </Position>
            <AltitudeMeters>3539.199951171875</AltitudeMeters>
            <DistanceMeters>11368.067422732</DistanceMeters>
          </Trackpoint>
          <Trackpoint>
            <Time>2019-04-08T08:06:11.000Z</Time>
            <Position>
              <LatitudeDegrees>28.26993911527097225189208984375</LatitudeDegrees>
              <LongitudeDegrees>-16.63883493281900882720947265625</LongitudeDegrees>
            </Position>
            <AltitudeMeters>3538.199951171875</AltitudeMeters>
            <DistanceMeters>11368.57025684</DistanceMeters>
          </Trackpoint>
          <Trackpoint>
            <Time>2019-04-08T08:06:31.000Z</Time>
            <Position>
              <LatitudeDegrees>28.2699303142726421356201171875</LatitudeDegrees>
              <LongitudeDegrees>-16.6388319991528987884521484375</LongitudeDegrees>
            </Position>
            <AltitudeMeters>3539.199951171875</AltitudeMeters>
            <DistanceMeters>11369.593725876</DistanceMeters>
          </Trackpoint>
          <Trackpoint>
            <Time>2019-04-08T08:06:46.000Z</Time>
            <Position>
              <LatitudeDegrees>28.26990273781120777130126953125</LatitudeDegrees>
              <LongitudeDegrees>-16.63883107714354991912841796875</LongitudeDegrees>
            </Position>
            <AltitudeMeters>3538.39990234375</AltitudeMeters>
            <DistanceMeters>11372.664132984</DistanceMeters>
          </Trackpoint>
          <Trackpoint>
            <Time>2019-04-08T08:06:51.000Z</Time>
            <Position>
              <LatitudeDegrees>28.2698669470846652984619140625</LatitudeDegrees>
              <LongitudeDegrees>-16.63877206854522228240966796875</LongitudeDegrees>
            </Position>
            <AltitudeMeters>3537.39990234375</AltitudeMeters>
            <DistanceMeters>11379.687757946</DistanceMeters>
          </Trackpoint>
          <Trackpoint>
            <Time>2019-04-08T08:06:53.000Z</Time>
            <Position>
              <LatitudeDegrees>28.26983283273875713348388671875</LatitudeDegrees>
              <LongitudeDegrees>-16.6387270577251911163330078125</LongitudeDegrees>
            </Position>
            <AltitudeMeters>3536.60009765625</AltitudeMeters>
            <DistanceMeters>11385.509259204</DistanceMeters>
          </Trackpoint>
          <Trackpoint>
            <Time>2019-04-08T08:06:54.000Z</Time>
            <Position>
              <LatitudeDegrees>28.26981673948466777801513671875</LatitudeDegrees>
              <LongitudeDegrees>-16.63871406577527523040771484375</LongitudeDegrees>
            </Position>
            <AltitudeMeters>3535.800048828125</AltitudeMeters>
            <DistanceMeters>11387.709286698</DistanceMeters>
          </Trackpoint>
          <Trackpoint>
            <Time>2019-04-08T08:06:56.000Z</Time>
            <Position>
              <LatitudeDegrees>28.269783295691013336181640625</LatitudeDegrees>
              <LongitudeDegrees>-16.63869176991283893585205078125</LongitudeDegrees>
            </Position>
            <AltitudeMeters>3534.199951171875</AltitudeMeters>
            <DistanceMeters>11392.026470709</DistanceMeters>
          </Trackpoint>
          <Trackpoint>
            <Time>2019-04-08T08:06:58.000Z</Time>
            <Position>
              <LatitudeDegrees>28.2697371952235698699951171875</LatitudeDegrees>
              <LongitudeDegrees>-16.6386657021939754486083984375</LongitudeDegrees>
            </Position>
            <AltitudeMeters>3533</AltitudeMeters>
            <DistanceMeters>11397.758086371</DistanceMeters>
          </Trackpoint>
          <Trackpoint>
            <Time>2019-04-08T08:07:00.000Z</Time>
            <Position>
              <LatitudeDegrees>28.26968573033809661865234375</LatitudeDegrees>
              <LongitudeDegrees>-16.63862966001033782958984375</LongitudeDegrees>
            </Position>
            <AltitudeMeters>3531.199951171875</AltitudeMeters>
            <DistanceMeters>11404.488232242</DistanceMeters>
          </Trackpoint>
          <Trackpoint>
            <Time>2019-04-08T08:07:01.000Z</Time>
            <Position>
              <LatitudeDegrees>28.26965513639152050018310546875</LatitudeDegrees>
              <LongitudeDegrees>-16.63860325701534748077392578125</LongitudeDegrees>
            </Position>
            <AltitudeMeters>3530.199951171875</AltitudeMeters>
            <DistanceMeters>11408.765490111</DistanceMeters>
          </Trackpoint>
          <Trackpoint>
            <Time>2019-04-08T08:07:03.000Z</Time>
            <Position>
              <LatitudeDegrees>28.26959445141255855560302734375</LatitudeDegrees>
              <LongitudeDegrees>-16.638553552329540252685546875</LongitudeDegrees>
            </Position>
            <AltitudeMeters>3528</AltitudeMeters>
            <DistanceMeters>11417.093756267</DistanceMeters>
          </Trackpoint>
          <Trackpoint>
            <Time>2019-04-08T08:07:04.000Z</Time>
            <Position>
              <LatitudeDegrees>28.2695643603801727294921875</LatitudeDegrees>
              <LongitudeDegrees>-16.63852882571518421173095703125</LongitudeDegrees>
            </Position>
            <AltitudeMeters>3526.800048828125</AltitudeMeters>
            <DistanceMeters>11421.228237456</DistanceMeters>
          </Trackpoint>
          <Trackpoint>
            <Time>2019-04-08T08:07:05.000Z</Time>
            <Position>
              <LatitudeDegrees>28.269535861909389495849609375</LatitudeDegrees>
              <LongitudeDegrees>-16.63850652985274791717529296875</LongitudeDegrees>
            </Position>
            <AltitudeMeters>3525.39990234375</AltitudeMeters>
            <DistanceMeters>11425.078871887</DistanceMeters>
          </Trackpoint>
          <Trackpoint>
            <Time>2019-04-08T08:07:07.000Z</Time>
            <Position>
              <LatitudeDegrees>28.2694704830646514892578125</LatitudeDegrees>
              <LongitudeDegrees>-16.63845908828079700469970703125</LongitudeDegrees>
            </Position>
            <AltitudeMeters>3523.199951171875</AltitudeMeters>
            <DistanceMeters>11433.714285674</DistanceMeters>
          </Trackpoint>
          <Trackpoint>
            <Time>2019-04-08T08:07:08.000Z</Time>
            <Position>
              <LatitudeDegrees>28.2694341056048870086669921875</LatitudeDegrees>
              <LongitudeDegrees>-16.63843159563839435577392578125</LongitudeDegrees>
            </Position>
            <AltitudeMeters>3521.800048828125</AltitudeMeters>
            <DistanceMeters>11438.577388615</DistanceMeters>
          </Trackpoint>
          <Trackpoint>
            <Time>2019-04-08T08:07:10.000Z</Time>
            <Position>
              <LatitudeDegrees>28.26936093159019947052001953125</LatitudeDegrees>
              <LongitudeDegrees>-16.6383673064410686492919921875</LongitudeDegrees>
            </Position>
            <AltitudeMeters>3520</AltitudeMeters>
            <DistanceMeters>11448.874970257</DistanceMeters>
          </Trackpoint>
          <Trackpoint>
            <Time>2019-04-08T08:07:11.000Z</Time>
            <Position>
              <LatitudeDegrees>28.26932203955948352813720703125</LatitudeDegrees>
              <LongitudeDegrees>-16.63833721540868282318115234375</LongitudeDegrees>
            </Position>
            <AltitudeMeters>3518.60009765625</AltitudeMeters>
            <DistanceMeters>11454.112657937</DistanceMeters>
          </Trackpoint>
          <Trackpoint>
            <Time>2019-04-08T08:07:12.000Z</Time>
            <Position>
              <LatitudeDegrees>28.2692813873291015625</LatitudeDegrees>
              <LongitudeDegrees>-16.6383042745292186737060546875</LongitudeDegrees>
            </Position>
            <AltitudeMeters>3517.199951171875</AltitudeMeters>
            <DistanceMeters>11459.671517676</DistanceMeters>
          </Trackpoint>
          <Trackpoint>
            <Time>2019-04-08T08:07:13.000Z</Time>
            <Position>
              <LatitudeDegrees>28.26923838816583156585693359375</LatitudeDegrees>
              <LongitudeDegrees>-16.6382714174687862396240234375</LongitudeDegrees>
            </Position>
            <AltitudeMeters>3515.199951171875</AltitudeMeters>
            <DistanceMeters>11465.44082108</DistanceMeters>
          </Trackpoint>
          <Trackpoint>
            <Time>2019-04-08T08:07:14.000Z</Time>
            <Position>
              <LatitudeDegrees>28.26919161714613437652587890625</LatitudeDegrees>
              <LongitudeDegrees>-16.63823428563773632049560546875</LongitudeDegrees>
            </Position>
            <AltitudeMeters>3514</AltitudeMeters>
            <DistanceMeters>11471.793412018</DistanceMeters>
          </Trackpoint>
          <Trackpoint>
            <Time>2019-04-08T08:07:16.000Z</Time>
            <Position>
              <LatitudeDegrees>28.26909103430807590484619140625</LatitudeDegrees>
              <LongitudeDegrees>-16.6381530649960041046142578125</LongitudeDegrees>
            </Position>
            <AltitudeMeters>3512.199951171875</AltitudeMeters>
            <DistanceMeters>11485.530936089</DistanceMeters>
          </Trackpoint>
          <Trackpoint>
            <Time>2019-04-08T08:07:17.000Z</Time>
            <Position>
              <LatitudeDegrees>28.26904091052711009979248046875</LatitudeDegrees>
              <LongitudeDegrees>-16.6381128318607807159423828125</LongitudeDegrees>
            </Position>
            <AltitudeMeters>3510.800048828125</AltitudeMeters>
            <DistanceMeters>11492.36361457</DistanceMeters>
          </Trackpoint>
          <Trackpoint>
            <Time>2019-04-08T08:07:18.000Z</Time>
            <Position>
              <LatitudeDegrees>28.26898701488971710205078125</LatitudeDegrees>
              <LongitudeDegrees>-16.63807134144008159637451171875</LongitudeDegrees>
            </Position>
            <AltitudeMeters>3509.60009765625</AltitudeMeters>
            <DistanceMeters>11499.611231742</DistanceMeters>
          </Trackpoint>
          <Trackpoint>
            <Time>2019-04-08T08:07:19.000Z</Time>
            <Position>
              <LatitudeDegrees>28.2689335383474826812744140625</LatitudeDegrees>
              <LongitudeDegrees>-16.63802775554358959197998046875</LongitudeDegrees>
            </Position>
            <AltitudeMeters>3508.39990234375</AltitudeMeters>
            <DistanceMeters>11506.93753875</DistanceMeters>
          </Trackpoint>
          <Trackpoint>
            <Time>2019-04-08T08:07:20.000Z</Time>
            <Position>
              <LatitudeDegrees>28.2688805647194385528564453125</LatitudeDegrees>
              <LongitudeDegrees>-16.637982912361621856689453125</LongitudeDegrees>
            </Position>
            <AltitudeMeters>3507</AltitudeMeters>
            <DistanceMeters>11514.292139888</DistanceMeters>
          </Trackpoint>
          <Trackpoint>
            <Time>2019-04-08T08:07:21.000Z</Time>
            <Position>
              <LatitudeDegrees>28.268828094005584716796875</LatitudeDegrees>
              <LongitudeDegrees>-16.637943349778652191162109375</LongitudeDegrees>
            </Position>
            <AltitudeMeters>3504.800048828125</AltitudeMeters>
            <DistanceMeters>11521.302252299</DistanceMeters>
          </Trackpoint>
          <Trackpoint>
            <Time>2019-04-08T08:07:22.000Z</Time>
            <Position>
              <LatitudeDegrees>28.2687759585678577423095703125</LatitudeDegrees>
              <LongitudeDegrees>-16.63790001533925533294677734375</LongitudeDegrees>
            </Position>
            <AltitudeMeters>3503.60009765625</AltitudeMeters>
            <DistanceMeters>11528.49421155</DistanceMeters>
          </Trackpoint>
          <Trackpoint>
            <Time>2019-04-08T08:07:23.000Z</Time>
            <Position>
              <LatitudeDegrees>28.26872206293046474456787109375</LatitudeDegrees>
              <LongitudeDegrees>-16.63785517215728759765625</LongitudeDegrees>
            </Position>
            <AltitudeMeters>3502.60009765625</AltitudeMeters>
            <DistanceMeters>11535.931835384</DistanceMeters>
          </Trackpoint>
          <Trackpoint>
            <Time>2019-04-08T08:07:25.000Z</Time>
            <Position>
              <LatitudeDegrees>28.26862986199557781219482421875</LatitudeDegrees>
              <LongitudeDegrees>-16.637773700058460235595703125</LongitudeDegrees>
            </Position>
            <AltitudeMeters>3501.199951171875</AltitudeMeters>
            <DistanceMeters>11548.93557375</DistanceMeters>
          </Trackpoint>
          <Trackpoint>
            <Time>2019-04-08T08:07:26.000Z</Time>
            <Position>
              <LatitudeDegrees>28.2685811631381511688232421875</LatitudeDegrees>
              <LongitudeDegrees>-16.63773707114160060882568359375</LongitudeDegrees>
            </Position>
            <AltitudeMeters>3500.199951171875</AltitudeMeters>
            <DistanceMeters>11555.437095713</DistanceMeters>
          </Trackpoint>
          <Trackpoint>
            <Time>2019-04-08T08:07:27.000Z</Time>
            <Position>
              <LatitudeDegrees>28.2685345597565174102783203125</LatitudeDegrees>
              <LongitudeDegrees>-16.63770320825278759002685546875</LongitudeDegrees>
            </Position>
            <AltitudeMeters>3497.60009765625</AltitudeMeters>
            <DistanceMeters>11561.594797475</DistanceMeters>
          </Trackpoint>
          <Trackpoint>
            <Time>2019-04-08T08:07:28.000Z</Time>
            <Position>
              <LatitudeDegrees>28.26848636381328105926513671875</LatitudeDegrees>
              <LongitudeDegrees>-16.6376652382314205169677734375</LongitudeDegrees>
            </Position>
            <AltitudeMeters>3494.60009765625</AltitudeMeters>
            <DistanceMeters>11568.124038694</DistanceMeters>
          </Trackpoint>
          <Trackpoint>
            <Time>2019-04-08T08:07:29.000Z</Time>
            <Position>
              <LatitudeDegrees>28.268433474004268646240234375</LatitudeDegrees>
              <LongitudeDegrees>-16.6376253403723239898681640625</LongitudeDegrees>
            </Position>
            <AltitudeMeters>3490.60009765625</AltitudeMeters>
            <DistanceMeters>11575.191880152</DistanceMeters>
          </Trackpoint>
          <Trackpoint>
            <Time>2019-04-08T08:07:30.000Z</Time>
            <Position>
              <LatitudeDegrees>28.268385194242000579833984375</LatitudeDegrees>
              <LongitudeDegrees>-16.6375881247222423553466796875</LongitudeDegrees>
            </Position>
            <AltitudeMeters>3488</AltitudeMeters>
            <DistanceMeters>11581.68784407</DistanceMeters>
          </Trackpoint>
          <Trackpoint>
            <Time>2019-04-08T08:07:31.000Z</Time>
            <Position>
              <LatitudeDegrees>28.268340267241001129150390625</LatitudeDegrees>
              <LongitudeDegrees>-16.6375556029379367828369140625</LongitudeDegrees>
            </Position>
            <AltitudeMeters>3484.800048828125</AltitudeMeters>
            <DistanceMeters>11587.618455148</DistanceMeters>
          </Trackpoint>
          <Trackpoint>
            <Time>2019-04-08T08:07:32.000Z</Time>
            <Position>
              <LatitudeDegrees>28.26830129139125347137451171875</LatitudeDegrees>
              <LongitudeDegrees>-16.63751629181206226348876953125</LongitudeDegrees>
            </Position>
            <AltitudeMeters>3481.800048828125</AltitudeMeters>
            <DistanceMeters>11593.421312638</DistanceMeters>
          </Trackpoint>
          <Trackpoint>
            <Time>2019-04-08T08:07:33.000Z</Time>
            <Position>
              <LatitudeDegrees>28.268261142075061798095703125</LatitudeDegrees>
              <LongitudeDegrees>-16.63747622631490230560302734375</LongitudeDegrees>
            </Position>
            <AltitudeMeters>3479.199951171875</AltitudeMeters>
            <DistanceMeters>11599.370926043</DistanceMeters>
          </Trackpoint>
          <Trackpoint>
            <Time>2019-04-08T08:07:34.000Z</Time>
            <Position>
              <LatitudeDegrees>28.26821562834084033966064453125</LatitudeDegrees>
              <LongitudeDegrees>-16.63742962293326854705810546875</LongitudeDegrees>
            </Position>
            <AltitudeMeters>3476.39990234375</AltitudeMeters>
            <DistanceMeters>11606.19302352</DistanceMeters>
          </Trackpoint>
          <Trackpoint>
            <Time>2019-04-08T08:07:35.000Z</Time>
            <Position>
              <LatitudeDegrees>28.2681771554052829742431640625</LatitudeDegrees>
              <LongitudeDegrees>-16.63738704286515712738037109375</LongitudeDegrees>
            </Position>
            <AltitudeMeters>3473.60009765625</AltitudeMeters>
            <DistanceMeters>11612.172915051</DistanceMeters>
          </Trackpoint>
          <Trackpoint>
            <Time>2019-04-08T08:07:36.000Z</Time>
            <Position>
              <LatitudeDegrees>28.26813750900328159332275390625</LatitudeDegrees>
              <LongitudeDegrees>-16.63734530098736286163330078125</LongitudeDegrees>
            </Position>
            <AltitudeMeters>3470.60009765625</AltitudeMeters>
            <DistanceMeters>11618.190440002</DistanceMeters>
          </Trackpoint>
          <Trackpoint>
            <Time>2019-04-08T08:07:37.000Z</Time>
            <Position>
              <LatitudeDegrees>28.268094174563884735107421875</LatitudeDegrees>
              <LongitudeDegrees>-16.63730439729988574981689453125</LongitudeDegrees>
            </Position>
            <AltitudeMeters>3466.39990234375</AltitudeMeters>
            <DistanceMeters>11624.46148321</DistanceMeters>
          </Trackpoint>
          <Trackpoint>
            <Time>2019-04-08T08:07:38.000Z</Time>
            <Position>
              <LatitudeDegrees>28.2680500857532024383544921875</LatitudeDegrees>
              <LongitudeDegrees>-16.63726399652659893035888671875</LongitudeDegrees>
            </Position>
            <AltitudeMeters>3463.60009765625</AltitudeMeters>
            <DistanceMeters>11630.767706855</DistanceMeters>
          </Trackpoint>
          <Trackpoint>
            <Time>2019-04-08T08:07:39.000Z</Time>
            <Position>
              <LatitudeDegrees>28.26800809241831302642822265625</LatitudeDegrees>
              <LongitudeDegrees>-16.63722493685781955718994140625</LongitudeDegrees>
            </Position>
            <AltitudeMeters>3460.39990234375</AltitudeMeters>
            <DistanceMeters>11636.810688663</DistanceMeters>
          </Trackpoint>
          <Trackpoint>
            <Time>2019-04-08T08:07:40.000Z</Time>
            <Position>
              <LatitudeDegrees>28.26796651817858219146728515625</LatitudeDegrees>
              <LongitudeDegrees>-16.63718336261808872222900390625</LongitudeDegrees>
            </Position>
            <AltitudeMeters>3457.39990234375</AltitudeMeters>
            <DistanceMeters>11642.97718296</DistanceMeters>
          </Trackpoint>
          <Trackpoint>
            <Time>2019-04-08T08:07:41.000Z</Time>
            <Position>
              <LatitudeDegrees>28.26792745850980281829833984375</LatitudeDegrees>
              <LongitudeDegrees>-16.63714614696800708770751953125</LongitudeDegrees>
            </Position>
            <AltitudeMeters>3454.39990234375</AltitudeMeters>
            <DistanceMeters>11648.652593313</DistanceMeters>
          </Trackpoint>
          <Trackpoint>
            <Time>2019-04-08T08:07:42.000Z</Time>
            <Position>
              <LatitudeDegrees>28.26788596808910369873046875</LatitudeDegrees>
              <LongitudeDegrees>-16.6371095180511474609375</LongitudeDegrees>
            </Position>
            <AltitudeMeters>3451.60009765625</AltitudeMeters>
            <DistanceMeters>11654.502720638</DistanceMeters>
          </Trackpoint>
          <Trackpoint>
            <Time>2019-04-08T08:07:43.000Z</Time>
            <Position>
              <LatitudeDegrees>28.267841376364231109619140625</LatitudeDegrees>
              <LongitudeDegrees>-16.63706903345882892608642578125</LongitudeDegrees>
            </Position>
            <AltitudeMeters>3449</AltitudeMeters>
            <DistanceMeters>11660.858153899</DistanceMeters>
          </Trackpoint>
          <Trackpoint>
            <Time>2019-04-08T08:07:44.000Z</Time>
            <Position>
              <LatitudeDegrees>28.26779284514486789703369140625</LatitudeDegrees>
              <LongitudeDegrees>-16.63702896796166896820068359375</LongitudeDegrees>
            </Position>
            <AltitudeMeters>3446</AltitudeMeters>
            <DistanceMeters>11667.536443168</DistanceMeters>
          </Trackpoint>
          <Trackpoint>
            <Time>2019-04-08T08:07:45.000Z</Time>
            <Position>
              <LatitudeDegrees>28.2677459903061389923095703125</LatitudeDegrees>
              <LongitudeDegrees>-16.636990495026111602783203125</LongitudeDegrees>
            </Position>
            <AltitudeMeters>3442.39990234375</AltitudeMeters>
            <DistanceMeters>11673.971653387</DistanceMeters>
          </Trackpoint>
          <Trackpoint>
            <Time>2019-04-08T08:07:46.000Z</Time>
            <Position>
              <LatitudeDegrees>28.26769712381064891815185546875</LatitudeDegrees>
              <LongitudeDegrees>-16.63694791495800018310546875</LongitudeDegrees>
            </Position>
            <AltitudeMeters>3440</AltitudeMeters>
            <DistanceMeters>11680.826762272</DistanceMeters>
          </Trackpoint>
          <Trackpoint>
            <Time>2019-04-08T08:07:47.000Z</Time>
            <Position>
              <LatitudeDegrees>28.2676477544009685516357421875</LatitudeDegrees>
              <LongitudeDegrees>-16.63690709508955478668212890625</LongitudeDegrees>
            </Position>
            <AltitudeMeters>3437.199951171875</AltitudeMeters>
            <DistanceMeters>11687.624328098</DistanceMeters>
          </Trackpoint>
          <Trackpoint>
            <Time>2019-04-08T08:07:48.000Z</Time>
            <Position>
              <LatitudeDegrees>28.2675951160490512847900390625</LatitudeDegrees>
              <LongitudeDegrees>-16.63687172345817089080810546875</LongitudeDegrees>
            </Position>
            <AltitudeMeters>3434.60009765625</AltitudeMeters>
            <DistanceMeters>11694.431849843</DistanceMeters>
          </Trackpoint>
          <Trackpoint>
            <Time>2019-04-08T08:07:49.000Z</Time>
            <Position>
              <LatitudeDegrees>28.26754624955356121063232421875</LatitudeDegrees>
              <LongitudeDegrees>-16.63683769293129444122314453125</LongitudeDegrees>
            </Position>
            <AltitudeMeters>3431.39990234375</AltitudeMeters>
            <DistanceMeters>11700.812099416</DistanceMeters>
          </Trackpoint>
          <Trackpoint>
            <Time>2019-04-08T08:07:50.000Z</Time>
            <Position>
              <LatitudeDegrees>28.2674978859722614288330078125</LatitudeDegrees>
              <LongitudeDegrees>-16.6368050873279571533203125</LongitudeDegrees>
            </Position>
            <AltitudeMeters>3428.800048828125</AltitudeMeters>
            <DistanceMeters>11707.072333578</DistanceMeters>
          </Trackpoint>
          <Trackpoint>
            <Time>2019-04-08T08:07:51.000Z</Time>
            <Position>
              <LatitudeDegrees>28.2674496062099933624267578125</LatitudeDegrees>
              <LongitudeDegrees>-16.63676711730659008026123046875</LongitudeDegrees>
            </Position>
            <AltitudeMeters>3426.39990234375</AltitudeMeters>
            <DistanceMeters>11713.609176985</DistanceMeters>
          </Trackpoint>
          <Trackpoint>
            <Time>2019-04-08T08:07:52.000Z</Time>
            <Position>
              <LatitudeDegrees>28.26740107499063014984130859375</LatitudeDegrees>
              <LongitudeDegrees>-16.63672705180943012237548828125</LongitudeDegrees>
            </Position>
            <AltitudeMeters>3424</AltitudeMeters>
            <DistanceMeters>11720.287466254</DistanceMeters>
          </Trackpoint>
          <Trackpoint>
            <Time>2019-04-08T08:07:53.000Z</Time>
            <Position>
              <LatitudeDegrees>28.26735011301934719085693359375</LatitudeDegrees>
              <LongitudeDegrees>-16.63668815977871417999267578125</LongitudeDegrees>
            </Position>
            <AltitudeMeters>3420.39990234375</AltitudeMeters>
            <DistanceMeters>11727.122126849</DistanceMeters>
          </Trackpoint>
          <Trackpoint>
            <Time>2019-04-08T08:07:54.000Z</Time>
            <Position>
              <LatitudeDegrees>28.2672973908483982086181640625</LatitudeDegrees>
              <LongitudeDegrees>-16.636653207242488861083984375</LongitudeDegrees>
            </Position>
            <AltitudeMeters>3418.199951171875</AltitudeMeters>
            <DistanceMeters>11733.917699741</DistanceMeters>
          </Trackpoint>
          <Trackpoint>
            <Time>2019-04-08T08:07:55.000Z</Time>
            <Position>
              <LatitudeDegrees>28.26724827289581298828125</LatitudeDegrees>
              <LongitudeDegrees>-16.6366128064692020416259765625</LongitudeDegrees>
            </Position>
            <AltitudeMeters>3415.800048828125</AltitudeMeters>
            <DistanceMeters>11740.667941643</DistanceMeters>
          </Trackpoint>
          <Trackpoint>
            <Time>2019-04-08T08:07:56.000Z</Time>
            <Position>
              <LatitudeDegrees>28.2671991549432277679443359375</LatitudeDegrees>
              <LongitudeDegrees>-16.63657374680042266845703125</LongitudeDegrees>
            </Position>
            <AltitudeMeters>3413.199951171875</AltitudeMeters>
            <DistanceMeters>11747.342173217</DistanceMeters>
          </Trackpoint>
          <Trackpoint>
            <Time>2019-04-08T08:07:57.000Z</Time>
            <Position>
              <LatitudeDegrees>28.26715062372386455535888671875</LatitudeDegrees>
              <LongitudeDegrees>-16.63653158582746982574462890625</LongitudeDegrees>
            </Position>
            <AltitudeMeters>3410.800048828125</AltitudeMeters>
            <DistanceMeters>11754.143059302</DistanceMeters>
          </Trackpoint>
          <Trackpoint>
            <Time>2019-04-08T08:07:58.000Z</Time>
            <Position>
              <LatitudeDegrees>28.2671009190380573272705078125</LatitudeDegrees>
              <LongitudeDegrees>-16.6364912688732147216796875</LongitudeDegrees>
            </Position>
            <AltitudeMeters>3408.60009765625</AltitudeMeters>
            <DistanceMeters>11760.941953427</DistanceMeters>
          </Trackpoint>
          <Trackpoint>
            <Time>2019-04-08T08:07:59.000Z</Time>
            <Position>
              <LatitudeDegrees>28.2670506276190280914306640625</LatitudeDegrees>
              <LongitudeDegrees>-16.63645195774734020233154296875</LongitudeDegrees>
            </Position>
            <AltitudeMeters>3405.60009765625</AltitudeMeters>
            <DistanceMeters>11767.737526319</DistanceMeters>
          </Trackpoint>
          <Trackpoint>
            <Time>2019-04-08T08:08:00.000Z</Time>
            <Position>
              <LatitudeDegrees>28.26700142584741115570068359375</LatitudeDegrees>
              <LongitudeDegrees>-16.6364113055169582366943359375</LongitudeDegrees>
            </Position>
            <AltitudeMeters>3403</AltitudeMeters>
            <DistanceMeters>11774.510471641</DistanceMeters>
          </Trackpoint>
          <Trackpoint>
            <Time>2019-04-08T08:08:01.000Z</Time>
            <Position>
              <LatitudeDegrees>28.266949541866779327392578125</LatitudeDegrees>
              <LongitudeDegrees>-16.636375598609447479248046875</LongitudeDegrees>
            </Position>
            <AltitudeMeters>3400</AltitudeMeters>
            <DistanceMeters>11781.263388495</DistanceMeters>
          </Trackpoint>
          <Trackpoint>
            <Time>2019-04-08T08:08:02.000Z</Time>
            <Position>
              <LatitudeDegrees>28.2669010944664478302001953125</LatitudeDegrees>
              <LongitudeDegrees>-16.63633209653198719024658203125</LongitudeDegrees>
            </Position>
            <AltitudeMeters>3397.800048828125</AltitudeMeters>
            <DistanceMeters>11788.138228138</DistanceMeters>
          </Trackpoint>
          <Trackpoint>
            <Time>2019-04-08T08:08:03.000Z</Time>
            <Position>
              <LatitudeDegrees>28.26686002314090728759765625</LatitudeDegrees>
              <LongitudeDegrees>-16.63629471324384212493896484375</LongitudeDegrees>
            </Position>
            <AltitudeMeters>3395.60009765625</AltitudeMeters>
            <DistanceMeters>11793.996838943</DistanceMeters>
          </Trackpoint>
          <Trackpoint>
            <Time>2019-04-08T08:08:04.000Z</Time>
            <Position>
              <LatitudeDegrees>28.26682238839566707611083984375</LatitudeDegrees>
              <LongitudeDegrees>-16.6362600959837436676025390625</LongitudeDegrees>
            </Position>
            <AltitudeMeters>3393.60009765625</AltitudeMeters>
            <DistanceMeters>11799.387459129</DistanceMeters>
          </Trackpoint>
          <Trackpoint>
            <Time>2019-04-08T08:08:05.000Z</Time>
            <Position>
              <LatitudeDegrees>28.26678332872688770294189453125</LatitudeDegrees>
              <LongitudeDegrees>-16.63622698746621608734130859375</LongitudeDegrees>
            </Position>
            <AltitudeMeters>3391.800048828125</AltitudeMeters>
            <DistanceMeters>11804.813143345</DistanceMeters>
          </Trackpoint>
          <Trackpoint>
            <Time>2019-04-08T08:08:06.000Z</Time>
            <Position>
              <LatitudeDegrees>28.26674007810652256011962890625</LatitudeDegrees>
              <LongitudeDegrees>-16.6361930407583713531494140625</LongitudeDegrees>
            </Position>
            <AltitudeMeters>3388.800048828125</AltitudeMeters>
            <DistanceMeters>11810.664814036</DistanceMeters>
          </Trackpoint>
          <Trackpoint>
            <Time>2019-04-08T08:08:07.000Z</Time>
            <Position>
              <LatitudeDegrees>28.2666999287903308868408203125</LatitudeDegrees>
              <LongitudeDegrees>-16.63615406490862369537353515625</LongitudeDegrees>
            </Position>
            <AltitudeMeters>3384.199951171875</AltitudeMeters>
            <DistanceMeters>11816.544196029</DistanceMeters>
          </Trackpoint>
          <Trackpoint>
            <Time>2019-04-08T08:08:08.000Z</Time>
            <Position>
              <LatitudeDegrees>28.26665927655994892120361328125</LatitudeDegrees>
              <LongitudeDegrees>-16.6361186094582080841064453125</LongitudeDegrees>
            </Position>
            <AltitudeMeters>3379.39990234375</AltitudeMeters>
            <DistanceMeters>11822.250548249</DistanceMeters>
          </Trackpoint>
          <Trackpoint>
            <Time>2019-04-08T08:08:09.000Z</Time>
            <Position>
              <LatitudeDegrees>28.266619630157947540283203125</LatitudeDegrees>
              <LongitudeDegrees>-16.6360837407410144805908203125</LongitudeDegrees>
            </Position>
            <AltitudeMeters>3374.199951171875</AltitudeMeters>
            <DistanceMeters>11827.832912785</DistanceMeters>
          </Trackpoint>
          <Trackpoint>
            <Time>2019-04-08T08:08:10.000Z</Time>
            <Position>
              <LatitudeDegrees>28.26658216305077075958251953125</LatitudeDegrees>
              <LongitudeDegrees>-16.6360478661954402923583984375</LongitudeDegrees>
            </Position>
            <AltitudeMeters>3370.39990234375</AltitudeMeters>
            <DistanceMeters>11833.287644848</DistanceMeters>
          </Trackpoint>
          <Trackpoint>
            <Time>2019-04-08T08:08:11.000Z</Time>
            <Position>
              <LatitudeDegrees>28.2665453664958477020263671875</LatitudeDegrees>
              <LongitudeDegrees>-16.63601106964051723480224609375</LongitudeDegrees>
            </Position>
            <AltitudeMeters>3366.800048828125</AltitudeMeters>
            <DistanceMeters>11838.744859533</DistanceMeters>
          </Trackpoint>
          <Trackpoint>
            <Time>2019-04-08T08:08:12.000Z</Time>
            <Position>
              <LatitudeDegrees>28.2665093243122100830078125</LatitudeDegrees>
              <LongitudeDegrees>-16.6359710879623889923095703125</LongitudeDegrees>
            </Position>
            <AltitudeMeters>3362.800048828125</AltitudeMeters>
            <DistanceMeters>11844.353046071</DistanceMeters>
          </Trackpoint>
          <Trackpoint>
            <Time>2019-04-08T08:08:13.000Z</Time>
            <Position>
              <LatitudeDegrees>28.2664682529866695404052734375</LatitudeDegrees>
              <LongitudeDegrees>-16.63594032637774944305419921875</LongitudeDegrees>
            </Position>
            <AltitudeMeters>3358.800048828125</AltitudeMeters>
            <DistanceMeters>11849.829256793</DistanceMeters>
          </Trackpoint>
          <Trackpoint>
            <Time>2019-04-08T08:08:14.000Z</Time>
            <Position>
              <LatitudeDegrees>28.26642424799501895904541015625</LatitudeDegrees>
              <LongitudeDegrees>-16.63591048680245876312255859375</LongitudeDegrees>
            </Position>
            <AltitudeMeters>3355.199951171875</AltitudeMeters>
            <DistanceMeters>11855.534026333</DistanceMeters>
          </Trackpoint>
          <Trackpoint>
            <Time>2019-04-08T08:08:15.000Z</Time>
            <Position>
              <LatitudeDegrees>28.26638099737465381622314453125</LatitudeDegrees>
              <LongitudeDegrees>-16.63587771356105804443359375</LongitudeDegrees>
            </Position>
            <AltitudeMeters>3351.39990234375</AltitudeMeters>
            <DistanceMeters>11861.321301472</DistanceMeters>
          </Trackpoint>
          <Trackpoint>
            <Time>2019-04-08T08:08:16.000Z</Time>
            <Position>
              <LatitudeDegrees>28.2663378305733203887939453125</LatitudeDegrees>
              <LongitudeDegrees>-16.63584443740546703338623046875</LongitudeDegrees>
            </Position>
            <AltitudeMeters>3347.199951171875</AltitudeMeters>
            <DistanceMeters>11867.127270415</DistanceMeters>
          </Trackpoint>
          <Trackpoint>
            <Time>2019-04-08T08:08:17.000Z</Time>
            <Position>
              <LatitudeDegrees>28.2662975974380970001220703125</LatitudeDegrees>
              <LongitudeDegrees>-16.6358054615557193756103515625</LongitudeDegrees>
            </Position>
            <AltitudeMeters>3341.60009765625</AltitudeMeters>
            <DistanceMeters>11873.01355985</DistanceMeters>
          </Trackpoint>
          <Trackpoint>
            <Time>2019-04-08T08:08:18.000Z</Time>
            <Position>
              <LatitudeDegrees>28.26625342480838298797607421875</LatitudeDegrees>
              <LongitudeDegrees>-16.63577168248593807220458984375</LongitudeDegrees>
            </Position>
            <AltitudeMeters>3337.60009765625</AltitudeMeters>
            <DistanceMeters>11878.941124902</DistanceMeters>
          </Trackpoint>
          <Trackpoint>
            <Time>2019-04-08T08:08:19.000Z</Time>
            <Position>
              <LatitudeDegrees>28.26621092855930328369140625</LatitudeDegrees>
              <LongitudeDegrees>-16.635738909244537353515625</LongitudeDegrees>
            </Position>
            <AltitudeMeters>3333.800048828125</AltitudeMeters>
            <DistanceMeters>11884.659333258</DistanceMeters>
          </Trackpoint>
          <Trackpoint>
            <Time>2019-04-08T08:08:20.000Z</Time>
            <Position>
              <LatitudeDegrees>28.26616960577666759490966796875</LatitudeDegrees>
              <LongitudeDegrees>-16.63570496253669261932373046875</LongitudeDegrees>
            </Position>
            <AltitudeMeters>3330.199951171875</AltitudeMeters>
            <DistanceMeters>11890.336334476</DistanceMeters>
          </Trackpoint>
          <Trackpoint>
            <Time>2019-04-08T08:08:21.000Z</Time>
            <Position>
              <LatitudeDegrees>28.26613046228885650634765625</LatitudeDegrees>
              <LongitudeDegrees>-16.6356669925153255462646484375</LongitudeDegrees>
            </Position>
            <AltitudeMeters>3326.800048828125</AltitudeMeters>
            <DistanceMeters>11896.066374436</DistanceMeters>
          </Trackpoint>
          <Trackpoint>
            <Time>2019-04-08T08:08:22.000Z</Time>
            <Position>
              <LatitudeDegrees>28.26609157025814056396484375</LatitudeDegrees>
              <LongitudeDegrees>-16.63563053123652935028076171875</LongitudeDegrees>
            </Position>
            <AltitudeMeters>3323</AltitudeMeters>
            <DistanceMeters>11901.680193706</DistanceMeters>
          </Trackpoint>
          <Trackpoint>
            <Time>2019-04-08T08:08:23.000Z</Time>
            <Position>
              <LatitudeDegrees>28.2660525105893611907958984375</LatitudeDegrees>
              <LongitudeDegrees>-16.63559448905289173126220703125</LongitudeDegrees>
            </Position>
            <AltitudeMeters>3319</AltitudeMeters>
            <DistanceMeters>11907.281935903</DistanceMeters>
          </Trackpoint>
          <Trackpoint>
            <Time>2019-04-08T08:08:24.000Z</Time>
            <Position>
              <LatitudeDegrees>28.26601219363510608673095703125</LatitudeDegrees>
              <LongitudeDegrees>-16.6355617158114910125732421875</LongitudeDegrees>
            </Position>
            <AltitudeMeters>3314.800048828125</AltitudeMeters>
            <DistanceMeters>11912.801671216</DistanceMeters>
          </Trackpoint>
          <Trackpoint>
            <Time>2019-04-08T08:08:25.000Z</Time>
            <Position>
              <LatitudeDegrees>28.2659700326621532440185546875</LatitudeDegrees>
              <LongitudeDegrees>-16.63552760146558284759521484375</LongitudeDegrees>
            </Position>
            <AltitudeMeters>3310</AltitudeMeters>
            <DistanceMeters>11918.564710445</DistanceMeters>
          </Trackpoint>
          <Trackpoint>
            <Time>2019-04-08T08:08:26.000Z</Time>
            <Position>
              <LatitudeDegrees>28.26592334546148777008056640625</LatitudeDegrees>
              <LongitudeDegrees>-16.6354983486235141754150390625</LongitudeDegrees>
            </Position>
            <AltitudeMeters>3306.60009765625</AltitudeMeters>
            <DistanceMeters>11924.500648306</DistanceMeters>
          </Trackpoint>
          <Trackpoint>
            <Time>2019-04-08T08:08:27.000Z</Time>
            <Position>
              <LatitudeDegrees>28.2658816874027252197265625</LatitudeDegrees>
              <LongitudeDegrees>-16.63545786403119564056396484375</LongitudeDegrees>
            </Position>
            <AltitudeMeters>3303</AltitudeMeters>
            <DistanceMeters>11930.604589279</DistanceMeters>
          </Trackpoint>
          <Trackpoint>
            <Time>2019-04-08T08:08:28.000Z</Time>
            <Position>
              <LatitudeDegrees>28.26583919115364551544189453125</LatitudeDegrees>
              <LongitudeDegrees>-16.6354185529053211212158203125</LongitudeDegrees>
            </Position>
            <AltitudeMeters>3298.800048828125</AltitudeMeters>
            <DistanceMeters>11936.705570766</DistanceMeters>
          </Trackpoint>
          <Trackpoint>
            <Time>2019-04-08T08:08:29.000Z</Time>
            <Position>
              <LatitudeDegrees>28.26579677872359752655029296875</LatitudeDegrees>
              <LongitudeDegrees>-16.63537739776074886322021484375</LongitudeDegrees>
            </Position>
            <AltitudeMeters>3294.800048828125</AltitudeMeters>
            <DistanceMeters>11942.915841009</DistanceMeters>
          </Trackpoint>
          <Trackpoint>
            <Time>2019-04-08T08:08:30.000Z</Time>
            <Position>
              <LatitudeDegrees>28.2657578028738498687744140625</LatitudeDegrees>
              <LongitudeDegrees>-16.635337583720684051513671875</LongitudeDegrees>
            </Position>
            <AltitudeMeters>3291</AltitudeMeters>
            <DistanceMeters>11948.751286002</DistanceMeters>
          </Trackpoint>
          <Trackpoint>
            <Time>2019-04-08T08:08:31.000Z</Time>
            <Position>
              <LatitudeDegrees>28.2657189108431339263916015625</LatitudeDegrees>
              <LongitudeDegrees>-16.635296344757080078125</LongitudeDegrees>
            </Position>
            <AltitudeMeters>3287.199951171875</AltitudeMeters>
            <DistanceMeters>11954.674279079</DistanceMeters>
          </Trackpoint>
          <Trackpoint>
            <Time>2019-04-08T08:08:32.000Z</Time>
            <Position>
              <LatitudeDegrees>28.26567985117435455322265625</LatitudeDegrees>
              <LongitudeDegrees>-16.63525518961250782012939453125</LongitudeDegrees>
            </Position>
            <AltitudeMeters>3283.60009765625</AltitudeMeters>
            <DistanceMeters>11960.605651418</DistanceMeters>
          </Trackpoint>
          <Trackpoint>
            <Time>2019-04-08T08:08:33.000Z</Time>
            <Position>
              <LatitudeDegrees>28.26563869602978229522705078125</LatitudeDegrees>
              <LongitudeDegrees>-16.63521730341017246246337890625</LongitudeDegrees>
            </Position>
            <AltitudeMeters>3278.39990234375</AltitudeMeters>
            <DistanceMeters>11966.501903983</DistanceMeters>
          </Trackpoint>
          <Trackpoint>
            <Time>2019-04-08T08:08:34.000Z</Time>
            <Position>
              <LatitudeDegrees>28.26559745706617832183837890625</LatitudeDegrees>
              <LongitudeDegrees>-16.6351801715791225433349609375</LongitudeDegrees>
            </Position>
            <AltitudeMeters>3274.800048828125</AltitudeMeters>
            <DistanceMeters>11972.361285404</DistanceMeters>
          </Trackpoint>
          <Trackpoint>
            <Time>2019-04-08T08:08:35.000Z</Time>
            <Position>
              <LatitudeDegrees>28.26555705629289150238037109375</LatitudeDegrees>
              <LongitudeDegrees>-16.63514371030032634735107421875</LongitudeDegrees>
            </Position>
            <AltitudeMeters>3271.199951171875</AltitudeMeters>
            <DistanceMeters>11978.105491122</DistanceMeters>
          </Trackpoint>
          <Trackpoint>
            <Time>2019-04-08T08:08:36.000Z</Time>
            <Position>
              <LatitudeDegrees>28.265512548387050628662109375</LatitudeDegrees>
              <LongitudeDegrees>-16.63511236198246479034423828125</LongitudeDegrees>
            </Position>
            <AltitudeMeters>3267.800048828125</AltitudeMeters>
            <DistanceMeters>11983.934743017</DistanceMeters>
          </Trackpoint>
          <Trackpoint>
            <Time>2019-04-08T08:08:37.000Z</Time>
            <Position>
              <LatitudeDegrees>28.265469968318939208984375</LatitudeDegrees>
              <LongitudeDegrees>-16.63507640361785888671875</LongitudeDegrees>
            </Position>
            <AltitudeMeters>3264.60009765625</AltitudeMeters>
            <DistanceMeters>11989.840941905</DistanceMeters>
          </Trackpoint>
          <Trackpoint>
            <Time>2019-04-08T08:08:38.000Z</Time>
            <Position>
              <LatitudeDegrees>28.26542596332728862762451171875</LatitudeDegrees>
              <LongitudeDegrees>-16.63504295982420444488525390625</LongitudeDegrees>
            </Position>
            <AltitudeMeters>3261</AltitudeMeters>
            <DistanceMeters>11995.734130686</DistanceMeters>
          </Trackpoint>
          <Trackpoint>
            <Time>2019-04-08T08:08:39.000Z</Time>
            <Position>
              <LatitudeDegrees>28.26538405381143093109130859375</LatitudeDegrees>
              <LongitudeDegrees>-16.63500373251736164093017578125</LongitudeDegrees>
            </Position>
            <AltitudeMeters>3257.199951171875</AltitudeMeters>
            <DistanceMeters>12001.780100372</DistanceMeters>
          </Trackpoint>
          <Trackpoint>
            <Time>2019-04-08T08:08:40.000Z</Time>
            <Position>
              <LatitudeDegrees>28.26533879153430461883544921875</LatitudeDegrees>
              <LongitudeDegrees>-16.634968779981136322021484375</LongitudeDegrees>
            </Position>
            <AltitudeMeters>3253.39990234375</AltitudeMeters>
            <DistanceMeters>12007.872194772</DistanceMeters>
          </Trackpoint>
          <Trackpoint>
            <Time>2019-04-08T08:08:41.000Z</Time>
            <Position>
              <LatitudeDegrees>28.26529520563781261444091796875</LatitudeDegrees>
              <LongitudeDegrees>-16.63493223488330841064453125</LongitudeDegrees>
            </Position>
            <AltitudeMeters>3248.800048828125</AltitudeMeters>
            <DistanceMeters>12013.903210268</DistanceMeters>
          </Trackpoint>
          <Trackpoint>
            <Time>2019-04-08T08:08:42.000Z</Time>
            <Position>
              <LatitudeDegrees>28.26525069773197174072265625</LatitudeDegrees>
              <LongitudeDegrees>-16.63490046747028827667236328125</LongitudeDegrees>
            </Position>
            <AltitudeMeters>3245</AltitudeMeters>
            <DistanceMeters>12019.754880959</DistanceMeters>
          </Trackpoint>
          <Trackpoint>
            <Time>2019-04-08T08:08:43.000Z</Time>
            <Position>
              <LatitudeDegrees>28.26520753093063831329345703125</LatitudeDegrees>
              <LongitudeDegrees>-16.63486710749566555023193359375</LongitudeDegrees>
            </Position>
            <AltitudeMeters>3241.60009765625</AltitudeMeters>
            <DistanceMeters>12025.567067809</DistanceMeters>
          </Trackpoint>
          <Trackpoint>
            <Time>2019-04-08T08:08:44.000Z</Time>
            <Position>
              <LatitudeDegrees>28.2651657052338123321533203125</LatitudeDegrees>
              <LongitudeDegrees>-16.63483039475977420806884765625</LongitudeDegrees>
            </Position>
            <AltitudeMeters>3238</AltitudeMeters>
            <DistanceMeters>12031.450288272</DistanceMeters>
          </Trackpoint>
          <Trackpoint>
            <Time>2019-04-08T08:08:45.000Z</Time>
            <Position>
              <LatitudeDegrees>28.26512287370860576629638671875</LatitudeDegrees>
              <LongitudeDegrees>-16.63479276001453399658203125</LongitudeDegrees>
            </Position>
            <AltitudeMeters>3234</AltitudeMeters>
            <DistanceMeters>12037.478308478</DistanceMeters>
          </Trackpoint>
          <Trackpoint>
            <Time>2019-04-08T08:08:46.000Z</Time>
            <Position>
              <LatitudeDegrees>28.26507073827087879180908203125</LatitudeDegrees>
              <LongitudeDegrees>-16.634762585163116455078125</LongitudeDegrees>
            </Position>
            <AltitudeMeters>3230</AltitudeMeters>
            <DistanceMeters>12043.992318703</DistanceMeters>
          </Trackpoint>
          <Trackpoint>
            <Time>2019-04-08T08:08:47.000Z</Time>
            <Position>
              <LatitudeDegrees>28.2650220394134521484375</LatitudeDegrees>
              <LongitudeDegrees>-16.63473081775009632110595703125</LongitudeDegrees>
            </Position>
            <AltitudeMeters>3226.39990234375</AltitudeMeters>
            <DistanceMeters>12050.243892173</DistanceMeters>
          </Trackpoint>
          <Trackpoint>
            <Time>2019-04-08T08:08:48.000Z</Time>
            <Position>
              <LatitudeDegrees>28.26497845351696014404296875</LatitudeDegrees>
              <LongitudeDegrees>-16.634695865213871002197265625</LongitudeDegrees>
            </Position>
            <AltitudeMeters>3222.800048828125</AltitudeMeters>
            <DistanceMeters>12056.182871765</DistanceMeters>
          </Trackpoint>
          <Trackpoint>
            <Time>2019-04-08T08:08:49.000Z</Time>
            <Position>
              <LatitudeDegrees>28.26493226923048496246337890625</LatitudeDegrees>
              <LongitudeDegrees>-16.63466510362923145294189453125</LongitudeDegrees>
            </Position>
            <AltitudeMeters>3218</AltitudeMeters>
            <DistanceMeters>12062.142342434</DistanceMeters>
          </Trackpoint>
          <Trackpoint>
            <Time>2019-04-08T08:08:50.000Z</Time>
            <Position>
              <LatitudeDegrees>28.2648911140859127044677734375</LatitudeDegrees>
              <LongitudeDegrees>-16.63462788797914981842041015625</LongitudeDegrees>
            </Position>
            <AltitudeMeters>3214.39990234375</AltitudeMeters>
            <DistanceMeters>12067.998640781</DistanceMeters>
          </Trackpoint>
          <Trackpoint>
            <Time>2019-04-08T08:08:51.000Z</Time>
            <Position>
              <LatitudeDegrees>28.2648488692939281463623046875</LatitudeDegrees>
              <LongitudeDegrees>-16.63459050469100475311279296875</LongitudeDegrees>
            </Position>
            <AltitudeMeters>3211</AltitudeMeters>
            <DistanceMeters>12073.958869026</DistanceMeters>
          </Trackpoint>
          <Trackpoint>
            <Time>2019-04-08T08:08:52.000Z</Time>
            <Position>
              <LatitudeDegrees>28.26480419375002384185791015625</LatitudeDegrees>
              <LongitudeDegrees>-16.63455672562122344970703125</LongitudeDegrees>
            </Position>
            <AltitudeMeters>3207.60009765625</AltitudeMeters>
            <DistanceMeters>12079.93196136</DistanceMeters>
          </Trackpoint>
          <Trackpoint>
            <Time>2019-04-08T08:08:53.000Z</Time>
            <Position>
              <LatitudeDegrees>28.26476613990962505340576171875</LatitudeDegrees>
              <LongitudeDegrees>-16.63451959379017353057861328125</LongitudeDegrees>
            </Position>
            <AltitudeMeters>3204</AltitudeMeters>
            <DistanceMeters>12085.51675178</DistanceMeters>
          </Trackpoint>
          <Trackpoint>
            <Time>2019-04-08T08:08:54.000Z</Time>
            <Position>
              <LatitudeDegrees>28.26472490094602108001708984375</LatitudeDegrees>
              <LongitudeDegrees>-16.6344841383397579193115234375</LongitudeDegrees>
            </Position>
            <AltitudeMeters>3200.60009765625</AltitudeMeters>
            <DistanceMeters>12091.274304266</DistanceMeters>
          </Trackpoint>
          <Trackpoint>
            <Time>2019-04-08T08:08:55.000Z</Time>
            <Position>
              <LatitudeDegrees>28.264686428010463714599609375</LatitudeDegrees>
              <LongitudeDegrees>-16.6344455815851688385009765625</LongitudeDegrees>
            </Position>
            <AltitudeMeters>3197.199951171875</AltitudeMeters>
            <DistanceMeters>12096.986192412</DistanceMeters>
          </Trackpoint>
          <Trackpoint>
            <Time>2019-04-08T08:08:56.000Z</Time>
            <Position>
              <LatitudeDegrees>28.26464376412332057952880859375</LatitudeDegrees>
              <LongitudeDegrees>-16.634410209953784942626953125</LongitudeDegrees>
            </Position>
            <AltitudeMeters>3193.39990234375</AltitudeMeters>
            <DistanceMeters>12102.865574405</DistanceMeters>
          </Trackpoint>
          <Trackpoint>
            <Time>2019-04-08T08:08:57.000Z</Time>
            <Position>
              <LatitudeDegrees>28.26460638083517551422119140625</LatitudeDegrees>
              <LongitudeDegrees>-16.6343691386282444000244140625</LongitudeDegrees>
            </Position>
            <AltitudeMeters>3188.60009765625</AltitudeMeters>
            <DistanceMeters>12108.65518957</DistanceMeters>
          </Trackpoint>
          <Trackpoint>
            <Time>2019-04-08T08:08:58.000Z</Time>
            <Position>
              <LatitudeDegrees>28.264565058052539825439453125</LatitudeDegrees>
              <LongitudeDegrees>-16.634332425892353057861328125</LongitudeDegrees>
            </Position>
            <AltitudeMeters>3185.199951171875</AltitudeMeters>
            <DistanceMeters>12114.495275077</DistanceMeters>
          </Trackpoint>
          <Trackpoint>
            <Time>2019-04-08T08:08:59.000Z</Time>
            <Position>
              <LatitudeDegrees>28.26452122069895267486572265625</LatitudeDegrees>
              <LongitudeDegrees>-16.63429697044193744659423828125</LongitudeDegrees>
            </Position>
            <AltitudeMeters>3181.800048828125</AltitudeMeters>
            <DistanceMeters>12120.486481455</DistanceMeters>
          </Trackpoint>
          <Trackpoint>
            <Time>2019-04-08T08:09:00.000Z</Time>
            <Position>
              <LatitudeDegrees>28.26447797007858753204345703125</LatitudeDegrees>
              <LongitudeDegrees>-16.6342611797153949737548828125</LongitudeDegrees>
            </Position>
            <AltitudeMeters>3178.39990234375</AltitudeMeters>
            <DistanceMeters>12126.442920857</DistanceMeters>
          </Trackpoint>
          <Trackpoint>
            <Time>2019-04-08T08:09:01.000Z</Time>
            <Position>
              <LatitudeDegrees>28.26443656347692012786865234375</LatitudeDegrees>
              <LongitudeDegrees>-16.63422656245529651641845703125</LongitudeDegrees>
            </Position>
            <AltitudeMeters>3175</AltitudeMeters>
            <DistanceMeters>12132.165864791</DistanceMeters>
          </Trackpoint>
          <Trackpoint>
            <Time>2019-04-08T08:09:02.000Z</Time>
            <Position>
              <LatitudeDegrees>28.2643918879330158233642578125</LatitudeDegrees>
              <LongitudeDegrees>-16.634194962680339813232421875</LongitudeDegrees>
            </Position>
            <AltitudeMeters>3171</AltitudeMeters>
            <DistanceMeters>12138.025246212</DistanceMeters>
          </Trackpoint>
          <Trackpoint>
            <Time>2019-04-08T08:09:03.000Z</Time>
            <Position>
              <LatitudeDegrees>28.26434754766523838043212890625</LatitudeDegrees>
              <LongitudeDegrees>-16.6341626085340976715087890625</LongitudeDegrees>
            </Position>
            <AltitudeMeters>3167.39990234375</AltitudeMeters>
            <DistanceMeters>12143.89232823</DistanceMeters>
          </Trackpoint>
          <Trackpoint>
            <Time>2019-04-08T08:09:04.000Z</Time>
            <Position>
              <LatitudeDegrees>28.2643072307109832763671875</LatitudeDegrees>
              <LongitudeDegrees>-16.6341255605220794677734375</LongitudeDegrees>
            </Position>
            <AltitudeMeters>3164.199951171875</AltitudeMeters>
            <DistanceMeters>12149.665543292</DistanceMeters>
          </Trackpoint>
          <Trackpoint>
            <Time>2019-04-08T08:09:05.000Z</Time>
            <Position>
              <LatitudeDegrees>28.26426775194704532623291015625</LatitudeDegrees>
              <LongitudeDegrees>-16.63408809341490268707275390625</LongitudeDegrees>
            </Position>
            <AltitudeMeters>3160</AltitudeMeters>
            <DistanceMeters>12155.393218887</DistanceMeters>
          </Trackpoint>
          <Trackpoint>
            <Time>2019-04-08T08:09:06.000Z</Time>
            <Position>
              <LatitudeDegrees>28.26422718353569507598876953125</LatitudeDegrees>
              <LongitudeDegrees>-16.63405054248869419097900390625</LongitudeDegrees>
            </Position>
            <AltitudeMeters>3156.39990234375</AltitudeMeters>
            <DistanceMeters>12161.218596752</DistanceMeters>
          </Trackpoint>
          <Trackpoint>
            <Time>2019-04-08T08:09:07.000Z</Time>
            <Position>
              <LatitudeDegrees>28.26418192125856876373291015625</LatitudeDegrees>
              <LongitudeDegrees>-16.63401818834245204925537109375</LongitudeDegrees>
            </Position>
            <AltitudeMeters>3153.199951171875</AltitudeMeters>
            <DistanceMeters>12167.172003344</DistanceMeters>
          </Trackpoint>
          <Trackpoint>
            <Time>2019-04-08T08:09:08.000Z</Time>
            <Position>
              <LatitudeDegrees>28.26414068229496479034423828125</LatitudeDegrees>
              <LongitudeDegrees>-16.6339822299778461456298828125</LongitudeDegrees>
            </Position>
            <AltitudeMeters>3149.60009765625</AltitudeMeters>
            <DistanceMeters>12172.960058596</DistanceMeters>
          </Trackpoint>
          <Trackpoint>
            <Time>2019-04-08T08:09:09.000Z</Time>
            <Position>
              <LatitudeDegrees>28.26409064233303070068359375</LatitudeDegrees>
              <LongitudeDegrees>-16.63395465351641178131103515625</LongitudeDegrees>
            </Position>
            <AltitudeMeters>3146.199951171875</AltitudeMeters>
            <DistanceMeters>12179.150667971</DistanceMeters>
          </Trackpoint>
          <Trackpoint>
            <Time>2019-04-08T08:09:10.000Z</Time>
            <Position>
              <LatitudeDegrees>28.26403875835239887237548828125</LatitudeDegrees>
              <LongitudeDegrees>-16.63392917253077030181884765625</LongitudeDegrees>
            </Position>
            <AltitudeMeters>3142.39990234375</AltitudeMeters>
            <DistanceMeters>12185.442556013</DistanceMeters>
          </Trackpoint>
          <Trackpoint>
            <Time>2019-04-08T08:09:11.000Z</Time>
            <Position>
              <LatitudeDegrees>28.2639895565807819366455078125</LatitudeDegrees>
              <LongitudeDegrees>-16.63389782421290874481201171875</LongitudeDegrees>
            </Position>
            <AltitudeMeters>3139.39990234375</AltitudeMeters>
            <DistanceMeters>12191.722233061</DistanceMeters>
          </Trackpoint>
          <Trackpoint>
            <Time>2019-04-08T08:09:12.000Z</Time>
            <Position>
              <LatitudeDegrees>28.26394655741751194000244140625</LatitudeDegrees>
              <LongitudeDegrees>-16.6338591836392879486083984375</LongitudeDegrees>
            </Position>
            <AltitudeMeters>3136</AltitudeMeters>
            <DistanceMeters>12197.826174034</DistanceMeters>
          </Trackpoint>
          <Trackpoint>
            <Time>2019-04-08T08:09:13.000Z</Time>
            <Position>
              <LatitudeDegrees>28.2639080844819545745849609375</LatitudeDegrees>
              <LongitudeDegrees>-16.6338189505040645599365234375</LongitudeDegrees>
            </Position>
            <AltitudeMeters>3131</AltitudeMeters>
            <DistanceMeters>12203.647675292</DistanceMeters>
          </Trackpoint>
          <Trackpoint>
            <Time>2019-04-08T08:09:14.000Z</Time>
            <Position>
              <LatitudeDegrees>28.263867683708667755126953125</LatitudeDegrees>
              <LongitudeDegrees>-16.63377997465431690216064453125</LongitudeDegrees>
            </Position>
            <AltitudeMeters>3127.199951171875</AltitudeMeters>
            <DistanceMeters>12209.548520551</DistanceMeters>
          </Trackpoint>
          <Trackpoint>
            <Time>2019-04-08T08:09:15.000Z</Time>
            <Position>
              <LatitudeDegrees>28.26381680555641651153564453125</LatitudeDegrees>
              <LongitudeDegrees>-16.63375499658286571502685546875</LongitudeDegrees>
            </Position>
            <AltitudeMeters>3124</AltitudeMeters>
            <DistanceMeters>12215.717211023</DistanceMeters>
          </Trackpoint>
          <Trackpoint>
            <Time>2019-04-08T08:09:16.000Z</Time>
            <Position>
              <LatitudeDegrees>28.26376517303287982940673828125</LatitudeDegrees>
              <LongitudeDegrees>-16.63372884504497051239013671875</LongitudeDegrees>
            </Position>
            <AltitudeMeters>3121</AltitudeMeters>
            <DistanceMeters>12222.00981662</DistanceMeters>
          </Trackpoint>
          <Trackpoint>
            <Time>2019-04-08T08:09:17.000Z</Time>
            <Position>
              <LatitudeDegrees>28.2637142948806285858154296875</LatitudeDegrees>
              <LongitudeDegrees>-16.63369665853679180145263671875</LongitudeDegrees>
            </Position>
            <AltitudeMeters>3117.800048828125</AltitudeMeters>
            <DistanceMeters>12228.491864575</DistanceMeters>
          </Trackpoint>
          <Trackpoint>
            <Time>2019-04-08T08:09:18.000Z</Time>
            <Position>
              <LatitudeDegrees>28.26366978697478771209716796875</LatitudeDegrees>
              <LongitudeDegrees>-16.63365977816283702850341796875</LongitudeDegrees>
            </Position>
            <AltitudeMeters>3114.60009765625</AltitudeMeters>
            <DistanceMeters>12234.625321877</DistanceMeters>
          </Trackpoint>
          <Trackpoint>
            <Time>2019-04-08T08:09:19.000Z</Time>
            <Position>
              <LatitudeDegrees>28.26362838037312030792236328125</LatitudeDegrees>
              <LongitudeDegrees>-16.6336239874362945556640625</LongitudeDegrees>
            </Position>
            <AltitudeMeters>3111.39990234375</AltitudeMeters>
            <DistanceMeters>12240.418055607</DistanceMeters>
          </Trackpoint>
          <Trackpoint>
            <Time>2019-04-08T08:09:20.000Z</Time>
            <Position>
              <LatitudeDegrees>28.263574652373790740966796875</LatitudeDegrees>
              <LongitudeDegrees>-16.63360361941158771514892578125</LongitudeDegrees>
            </Position>
            <AltitudeMeters>3107.800048828125</AltitudeMeters>
            <DistanceMeters>12246.722130989</DistanceMeters>
          </Trackpoint>
          <Trackpoint>
            <Time>2019-04-08T08:09:21.000Z</Time>
            <Position>
              <LatitudeDegrees>28.2635267078876495361328125</LatitudeDegrees>
              <LongitudeDegrees>-16.63357193581759929656982421875</LongitudeDegrees>
            </Position>
            <AltitudeMeters>3103.39990234375</AltitudeMeters>
            <DistanceMeters>12252.895942832</DistanceMeters>
          </Trackpoint>
          <Trackpoint>
            <Time>2019-04-08T08:09:22.000Z</Time>
            <Position>
              <LatitudeDegrees>28.26347750611603260040283203125</LatitudeDegrees>
              <LongitudeDegrees>-16.633534468710422515869140625</LongitudeDegrees>
            </Position>
            <AltitudeMeters>3100.199951171875</AltitudeMeters>
            <DistanceMeters>12259.489180883</DistanceMeters>
          </Trackpoint>
          <Trackpoint>
            <Time>2019-04-08T08:09:23.000Z</Time>
            <Position>
              <LatitudeDegrees>28.263422437012195587158203125</LatitudeDegrees>
              <LongitudeDegrees>-16.63350890390574932098388671875</LongitudeDegrees>
            </Position>
            <AltitudeMeters>3097.39990234375</AltitudeMeters>
            <DistanceMeters>12266.111118003</DistanceMeters>
          </Trackpoint>
          <Trackpoint>
            <Time>2019-04-08T08:09:24.000Z</Time>
            <Position>
              <LatitudeDegrees>28.2633810304105281829833984375</LatitudeDegrees>
              <LongitudeDegrees>-16.63346506655216217041015625</LongitudeDegrees>
            </Position>
            <AltitudeMeters>3094.199951171875</AltitudeMeters>
            <DistanceMeters>12272.412327896</DistanceMeters>
          </Trackpoint>
          <Trackpoint>
            <Time>2019-04-08T08:09:25.000Z</Time>
            <Position>
              <LatitudeDegrees>28.26333736069500446319580078125</LatitudeDegrees>
              <LongitudeDegrees>-16.63343044929206371307373046875</LongitudeDegrees>
            </Position>
            <AltitudeMeters>3090.39990234375</AltitudeMeters>
            <DistanceMeters>12278.339892948</DistanceMeters>
          </Trackpoint>
          <Trackpoint>
            <Time>2019-04-08T08:09:26.000Z</Time>
            <Position>
              <LatitudeDegrees>28.263293020427227020263671875</LatitudeDegrees>
              <LongitudeDegrees>-16.6333991847932338714599609375</LongitudeDegrees>
            </Position>
            <AltitudeMeters>3087</AltitudeMeters>
            <DistanceMeters>12284.148194386</DistanceMeters>
          </Trackpoint>
          <Trackpoint>
            <Time>2019-04-08T08:09:27.000Z</Time>
            <Position>
              <LatitudeDegrees>28.263249099254608154296875</LatitudeDegrees>
              <LongitudeDegrees>-16.633368842303752899169921875</LongitudeDegrees>
            </Position>
            <AltitudeMeters>3084</AltitudeMeters>
            <DistanceMeters>12289.869560229</DistanceMeters>
          </Trackpoint>
          <Trackpoint>
            <Time>2019-04-08T08:09:28.000Z</Time>
            <Position>
              <LatitudeDegrees>28.26320509426295757293701171875</LatitudeDegrees>
              <LongitudeDegrees>-16.63333372212946414947509765625</LongitudeDegrees>
            </Position>
            <AltitudeMeters>3080.800048828125</AltitudeMeters>
            <DistanceMeters>12295.856243234</DistanceMeters>
          </Trackpoint>
          <Trackpoint>
            <Time>2019-04-08T08:09:29.000Z</Time>
            <Position>
              <LatitudeDegrees>28.26316528022289276123046875</LatitudeDegrees>
              <LongitudeDegrees>-16.63329466246068477630615234375</LongitudeDegrees>
            </Position>
            <AltitudeMeters>3076.60009765625</AltitudeMeters>
            <DistanceMeters>12301.713312502</DistanceMeters>
          </Trackpoint>
          <Trackpoint>
            <Time>2019-04-08T08:09:30.000Z</Time>
            <Position>
              <LatitudeDegrees>28.26313217170536518096923828125</LatitudeDegrees>
              <LongitudeDegrees>-16.633248813450336456298828125</LongitudeDegrees>
            </Position>
            <AltitudeMeters>3073.60009765625</AltitudeMeters>
            <DistanceMeters>12307.524722478</DistanceMeters>
          </Trackpoint>
          <Trackpoint>
            <Time>2019-04-08T08:09:31.000Z</Time>
            <Position>
              <LatitudeDegrees>28.26309445314109325408935546875</LatitudeDegrees>
              <LongitudeDegrees>-16.63321637548506259918212890625</LongitudeDegrees>
            </Position>
            <AltitudeMeters>3070.60009765625</AltitudeMeters>
            <DistanceMeters>12312.791637593</DistanceMeters>
          </Trackpoint>
          <Trackpoint>
            <Time>2019-04-08T08:09:32.000Z</Time>
            <Position>
              <LatitudeDegrees>28.2630521245300769805908203125</LatitudeDegrees>
              <LongitudeDegrees>-16.6331867873668670654296875</LongitudeDegrees>
            </Position>
            <AltitudeMeters>3067.199951171875</AltitudeMeters>
            <DistanceMeters>12318.324445122</DistanceMeters>
          </Trackpoint>
          <Trackpoint>
            <Time>2019-04-08T08:09:33.000Z</Time>
            <Position>
              <LatitudeDegrees>28.26301013119518756866455078125</LatitudeDegrees>
              <LongitudeDegrees>-16.63313926197588443756103515625</LongitudeDegrees>
            </Position>
            <AltitudeMeters>3064</AltitudeMeters>
            <DistanceMeters>12324.924527603</DistanceMeters>
          </Trackpoint>
          <Trackpoint>
            <Time>2019-04-08T08:09:34.000Z</Time>
            <Position>
              <LatitudeDegrees>28.26296746730804443359375</LatitudeDegrees>
              <LongitudeDegrees>-16.63310162723064422607421875</LongitudeDegrees>
            </Position>
            <AltitudeMeters>3060.800048828125</AltitudeMeters>
            <DistanceMeters>12330.93754898</DistanceMeters>
          </Trackpoint>
          <Trackpoint>
            <Time>2019-04-08T08:09:35.000Z</Time>
            <Position>
              <LatitudeDegrees>28.26292044483125209808349609375</LatitudeDegrees>
              <LongitudeDegrees>-16.63306835107505321502685546875</LongitudeDegrees>
            </Position>
            <AltitudeMeters>3057.60009765625</AltitudeMeters>
            <DistanceMeters>12337.104775422</DistanceMeters>
          </Trackpoint>
          <Trackpoint>
            <Time>2019-04-08T08:09:36.000Z</Time>
            <Position>
              <LatitudeDegrees>28.26286914758384227752685546875</LatitudeDegrees>
              <LongitudeDegrees>-16.63303951732814311981201171875</LongitudeDegrees>
            </Position>
            <AltitudeMeters>3054.800048828125</AltitudeMeters>
            <DistanceMeters>12343.475818791</DistanceMeters>
          </Trackpoint>
          <Trackpoint>
            <Time>2019-04-08T08:09:37.000Z</Time>
            <Position>
              <LatitudeDegrees>28.26282572932541370391845703125</LatitudeDegrees>
              <LongitudeDegrees>-16.6330028884112834930419921875</LongitudeDegrees>
            </Position>
            <AltitudeMeters>3050.800048828125</AltitudeMeters>
            <DistanceMeters>12349.496344254</DistanceMeters>
          </Trackpoint>
          <Trackpoint>
            <Time>2019-04-08T08:09:38.000Z</Time>
            <Position>
              <LatitudeDegrees>28.26278381980955600738525390625</LatitudeDegrees>
              <LongitudeDegrees>-16.63296483457088470458984375</LongitudeDegrees>
            </Position>
            <AltitudeMeters>3047.60009765625</AltitudeMeters>
            <DistanceMeters>12355.468680644</DistanceMeters>
          </Trackpoint>
          <Trackpoint>
            <Time>2019-04-08T08:09:39.000Z</Time>
            <Position>
              <LatitudeDegrees>28.26274308376014232635498046875</LatitudeDegrees>
              <LongitudeDegrees>-16.63292434997856616973876953125</LongitudeDegrees>
            </Position>
            <AltitudeMeters>3044.39990234375</AltitudeMeters>
            <DistanceMeters>12361.495202647</DistanceMeters>
          </Trackpoint>
          <Trackpoint>
            <Time>2019-04-08T08:09:40.000Z</Time>
            <Position>
              <LatitudeDegrees>28.262702263891696929931640625</LatitudeDegrees>
              <LongitudeDegrees>-16.6328828595578670501708984375</LongitudeDegrees>
            </Position>
            <AltitudeMeters>3041.39990234375</AltitudeMeters>
            <DistanceMeters>12367.593223211</DistanceMeters>
          </Trackpoint>
          <Trackpoint>
            <Time>2019-04-08T08:09:41.000Z</Time>
            <Position>
              <LatitudeDegrees>28.26265490613877773284912109375</LatitudeDegrees>
              <LongitudeDegrees>-16.6328486613929271697998046875</LongitudeDegrees>
            </Position>
            <AltitudeMeters>3038.39990234375</AltitudeMeters>
            <DistanceMeters>12373.839739065</DistanceMeters>
          </Trackpoint>
          <Trackpoint>
            <Time>2019-04-08T08:09:42.000Z</Time>
            <Position>
              <LatitudeDegrees>28.26260746456682682037353515625</LatitudeDegrees>
              <LongitudeDegrees>-16.63280247710645198822021484375</LongitudeDegrees>
            </Position>
            <AltitudeMeters>3035.39990234375</AltitudeMeters>
            <DistanceMeters>12380.795538774</DistanceMeters>
          </Trackpoint>
          <Trackpoint>
            <Time>2019-04-08T08:09:43.000Z</Time>
            <Position>
              <LatitudeDegrees>28.2625596038997173309326171875</LatitudeDegrees>
              <LongitudeDegrees>-16.6327671892940998077392578125</LongitudeDegrees>
            </Position>
            <AltitudeMeters>3033.199951171875</AltitudeMeters>
            <DistanceMeters>12387.146708074</DistanceMeters>
          </Trackpoint>
          <Trackpoint>
            <Time>2019-04-08T08:09:44.000Z</Time>
            <Position>
              <LatitudeDegrees>28.2625150121748447418212890625</LatitudeDegrees>
              <LongitudeDegrees>-16.63272033445537090301513671875</LongitudeDegrees>
            </Position>
            <AltitudeMeters>3030.39990234375</AltitudeMeters>
            <DistanceMeters>12393.910314158</DistanceMeters>
          </Trackpoint>
          <Trackpoint>
            <Time>2019-04-08T08:09:45.000Z</Time>
            <Position>
              <LatitudeDegrees>28.2624653913080692291259765625</LatitudeDegrees>
              <LongitudeDegrees>-16.632686220109462738037109375</LongitudeDegrees>
            </Position>
            <AltitudeMeters>3026</AltitudeMeters>
            <DistanceMeters>12400.367937019</DistanceMeters>
          </Trackpoint>
          <Trackpoint>
            <Time>2019-04-08T08:09:46.000Z</Time>
            <Position>
              <LatitudeDegrees>28.26243395917117595672607421875</LatitudeDegrees>
              <LongitudeDegrees>-16.63264623843133449554443359375</LongitudeDegrees>
            </Position>
            <AltitudeMeters>3022.800048828125</AltitudeMeters>
            <DistanceMeters>12405.62197772</DistanceMeters>
          </Trackpoint>
          <Trackpoint>
            <Time>2019-04-08T08:09:47.000Z</Time>
            <Position>
              <LatitudeDegrees>28.2623948156833648681640625</LatitudeDegrees>
              <LongitudeDegrees>-16.6326414607465267181396484375</LongitudeDegrees>
            </Position>
            <AltitudeMeters>3019.800048828125</AltitudeMeters>
            <DistanceMeters>12410.004553743</DistanceMeters>
          </Trackpoint>
          <Trackpoint>
            <Time>2019-04-08T08:09:48.000Z</Time>
            <Position>
              <LatitudeDegrees>28.2623545825481414794921875</LatitudeDegrees>
              <LongitudeDegrees>-16.63262276910245418548583984375</LongitudeDegrees>
            </Position>
            <AltitudeMeters>3016.800048828125</AltitudeMeters>
            <DistanceMeters>12414.843457361</DistanceMeters>
          </Trackpoint>
          <Trackpoint>
            <Time>2019-04-08T08:09:49.000Z</Time>
            <Position>
              <LatitudeDegrees>28.26231275685131549835205078125</LatitudeDegrees>
              <LongitudeDegrees>-16.6326141357421875</LongitudeDegrees>
            </Position>
            <AltitudeMeters>3014.39990234375</AltitudeMeters>
            <DistanceMeters>12419.574795386</DistanceMeters>
          </Trackpoint>
          <Trackpoint>
            <Time>2019-04-08T08:09:50.000Z</Time>
            <Position>
              <LatitudeDegrees>28.2622716017067432403564453125</LatitudeDegrees>
              <LongitudeDegrees>-16.63259494118392467498779296875</LongitudeDegrees>
            </Position>
            <AltitudeMeters>3010.60009765625</AltitudeMeters>
            <DistanceMeters>12424.526225234</DistanceMeters>
          </Trackpoint>
          <Trackpoint>
            <Time>2019-04-08T08:09:51.000Z</Time>
            <Position>
              <LatitudeDegrees>28.262240588665008544921875</LatitudeDegrees>
              <LongitudeDegrees>-16.6325770877301692962646484375</LongitudeDegrees>
            </Position>
            <AltitudeMeters>3006.60009765625</AltitudeMeters>
            <DistanceMeters>12428.395574888</DistanceMeters>
          </Trackpoint>
          <Trackpoint>
            <Time>2019-04-08T08:09:52.000Z</Time>
            <Position>
              <LatitudeDegrees>28.26218417845666408538818359375</LatitudeDegrees>
              <LongitudeDegrees>-16.6325231082737445831298828125</LongitudeDegrees>
            </Position>
            <AltitudeMeters>3002.800048828125</AltitudeMeters>
            <DistanceMeters>12436.60645491</DistanceMeters>
          </Trackpoint>
          <Trackpoint>
            <Time>2019-04-08T08:09:53.000Z</Time>
            <Position>
              <LatitudeDegrees>28.262132294476032257080078125</LatitudeDegrees>
              <LongitudeDegrees>-16.63248295895755290985107421875</LongitudeDegrees>
            </Position>
            <AltitudeMeters>2997.39990234375</AltitudeMeters>
            <DistanceMeters>12443.594634459</DistanceMeters>
          </Trackpoint>
          <Trackpoint>
            <Time>2019-04-08T08:09:54.000Z</Time>
            <Position>
              <LatitudeDegrees>28.2620781473815441131591796875</LatitudeDegrees>
              <LongitudeDegrees>-16.6324396245181560516357421875</LongitudeDegrees>
            </Position>
            <AltitudeMeters>2993.800048828125</AltitudeMeters>
            <DistanceMeters>12450.967629792</DistanceMeters>
          </Trackpoint>
          <Trackpoint>
            <Time>2019-04-08T08:09:55.000Z</Time>
            <Position>
              <LatitudeDegrees>28.26203213073313236236572265625</LatitudeDegrees>
              <LongitudeDegrees>-16.63239696063101291656494140625</LongitudeDegrees>
            </Position>
            <AltitudeMeters>2990.199951171875</AltitudeMeters>
            <DistanceMeters>12457.580014396</DistanceMeters>
          </Trackpoint>
          <Trackpoint>
            <Time>2019-04-08T08:09:56.000Z</Time>
            <Position>
              <LatitudeDegrees>28.26198720373213291168212890625</LatitudeDegrees>
              <LongitudeDegrees>-16.6323581524193286895751953125</LongitudeDegrees>
            </Position>
            <AltitudeMeters>2986.39990234375</AltitudeMeters>
            <DistanceMeters>12463.864003916</DistanceMeters>
          </Trackpoint>
          <Trackpoint>
            <Time>2019-04-08T08:09:57.000Z</Time>
            <Position>
              <LatitudeDegrees>28.2619426958262920379638671875</LatitudeDegrees>
              <LongitudeDegrees>-16.63231976330280303955078125</LongitudeDegrees>
            </Position>
            <AltitudeMeters>2982.800048828125</AltitudeMeters>
            <DistanceMeters>12470.085895728</DistanceMeters>
          </Trackpoint>
          <Trackpoint>
            <Time>2019-04-08T08:09:58.000Z</Time>
            <Position>
              <LatitudeDegrees>28.2619017921388149261474609375</LatitudeDegrees>
              <LongitudeDegrees>-16.6322775185108184814453125</LongitudeDegrees>
            </Position>
            <AltitudeMeters>2979</AltitudeMeters>
            <DistanceMeters>12476.239930226</DistanceMeters>
          </Trackpoint>
          <Trackpoint>
            <Time>2019-04-08T08:09:59.000Z</Time>
            <Position>
              <LatitudeDegrees>28.2618729583919048309326171875</LatitudeDegrees>
              <LongitudeDegrees>-16.63222647272050380706787109375</LongitudeDegrees>
            </Position>
            <AltitudeMeters>2975.39990234375</AltitudeMeters>
            <DistanceMeters>12482.184988611</DistanceMeters>
          </Trackpoint>
          <Trackpoint>
            <Time>2019-04-08T08:10:00.000Z</Time>
            <Position>
              <LatitudeDegrees>28.26182845048606395721435546875</LatitudeDegrees>
              <LongitudeDegrees>-16.63219177164137363433837890625</LongitudeDegrees>
            </Position>
            <AltitudeMeters>2971.800048828125</AltitudeMeters>
            <DistanceMeters>12488.19500573</DistanceMeters>
          </Trackpoint>
          <Trackpoint>
            <Time>2019-04-08T08:10:01.000Z</Time>
            <Position>
              <LatitudeDegrees>28.26178151182830333709716796875</LatitudeDegrees>
              <LongitudeDegrees>-16.6321593336760997772216796875</LongitudeDegrees>
            </Position>
            <AltitudeMeters>2966.199951171875</AltitudeMeters>
            <DistanceMeters>12494.311508547</DistanceMeters>
          </Trackpoint>
          <Trackpoint>
            <Time>2019-04-08T08:10:02.000Z</Time>
            <Position>
              <LatitudeDegrees>28.261737339198589324951171875</LatitudeDegrees>
              <LongitudeDegrees>-16.632120944559574127197265625</LongitudeDegrees>
            </Position>
            <AltitudeMeters>2962.39990234375</AltitudeMeters>
            <DistanceMeters>12500.503576423</DistanceMeters>
          </Trackpoint>
          <Trackpoint>
            <Time>2019-04-08T08:10:03.000Z</Time>
            <Position>
              <LatitudeDegrees>28.26168729923665523529052734375</LatitudeDegrees>
              <LongitudeDegrees>-16.6320855729281902313232421875</LongitudeDegrees>
            </Position>
            <AltitudeMeters>2958.60009765625</AltitudeMeters>
            <DistanceMeters>12507.063861808</DistanceMeters>
          </Trackpoint>
          <Trackpoint>
            <Time>2019-04-08T08:10:04.000Z</Time>
            <Position>
              <LatitudeDegrees>28.261635415256023406982421875</LatitudeDegrees>
              <LongitudeDegrees>-16.632046513259410858154296875</LongitudeDegrees>
            </Position>
            <AltitudeMeters>2955</AltitudeMeters>
            <DistanceMeters>12513.99299714</DistanceMeters>
          </Trackpoint>
          <Trackpoint>
            <Time>2019-04-08T08:10:05.000Z</Time>
            <Position>
              <LatitudeDegrees>28.261578418314456939697265625</LatitudeDegrees>
              <LongitudeDegrees>-16.63201935589313507080078125</LongitudeDegrees>
            </Position>
            <AltitudeMeters>2951.800048828125</AltitudeMeters>
            <DistanceMeters>12520.872432484</DistanceMeters>
          </Trackpoint>
          <Trackpoint>
            <Time>2019-04-08T08:10:06.000Z</Time>
            <Position>
              <LatitudeDegrees>28.26153592206537723541259765625</LatitudeDegrees>
              <LongitudeDegrees>-16.631984151899814605712890625</LongitudeDegrees>
            </Position>
            <AltitudeMeters>2948.39990234375</AltitudeMeters>
            <DistanceMeters>12526.727959809</DistanceMeters>
          </Trackpoint>
          <Trackpoint>
            <Time>2019-04-08T08:10:07.000Z</Time>
            <Position>
              <LatitudeDegrees>28.261494599282741546630859375</LatitudeDegrees>
              <LongitudeDegrees>-16.63194366730749607086181640625</LongitudeDegrees>
            </Position>
            <AltitudeMeters>2945</AltitudeMeters>
            <DistanceMeters>12532.803727456</DistanceMeters>
          </Trackpoint>
          <Trackpoint>
            <Time>2019-04-08T08:10:08.000Z</Time>
            <Position>
              <LatitudeDegrees>28.261449337005615234375</LatitudeDegrees>
              <LongitudeDegrees>-16.631905697286128997802734375</LongitudeDegrees>
            </Position>
            <AltitudeMeters>2941.39990234375</AltitudeMeters>
            <DistanceMeters>12539.067566706</DistanceMeters>
          </Trackpoint>
          <Trackpoint>
            <Time>2019-04-08T08:10:09.000Z</Time>
            <Position>
              <LatitudeDegrees>28.2614008896052837371826171875</LatitudeDegrees>
              <LongitudeDegrees>-16.63187761791050434112548828125</LongitudeDegrees>
            </Position>
            <AltitudeMeters>2936.60009765625</AltitudeMeters>
            <DistanceMeters>12545.121745452</DistanceMeters>
          </Trackpoint>
          <Trackpoint>
            <Time>2019-04-08T08:10:10.000Z</Time>
            <Position>
              <LatitudeDegrees>28.261363171041011810302734375</LatitudeDegrees>
              <LongitudeDegrees>-16.63183688186109066009521484375</LongitudeDegrees>
            </Position>
            <AltitudeMeters>2933.39990234375</AltitudeMeters>
            <DistanceMeters>12550.916817004</DistanceMeters>
          </Trackpoint>
          <Trackpoint>
            <Time>2019-04-08T08:10:11.000Z</Time>
            <Position>
              <LatitudeDegrees>28.26132436282932758331298828125</LatitudeDegrees>
              <LongitudeDegrees>-16.63179983384907245635986328125</LongitudeDegrees>
            </Position>
            <AltitudeMeters>2930.39990234375</AltitudeMeters>
            <DistanceMeters>12556.560315885</DistanceMeters>
          </Trackpoint>
          <Trackpoint>
            <Time>2019-04-08T08:10:12.000Z</Time>
            <Position>
              <LatitudeDegrees>28.26128915883600711822509765625</LatitudeDegrees>
              <LongitudeDegrees>-16.6317563317716121673583984375</LongitudeDegrees>
            </Position>
            <AltitudeMeters>2927.199951171875</AltitudeMeters>
            <DistanceMeters>12562.351490542</DistanceMeters>
          </Trackpoint>
          <Trackpoint>
            <Time>2019-04-08T08:10:13.000Z</Time>
            <Position>
              <LatitudeDegrees>28.2612543739378452301025390625</LatitudeDegrees>
              <LongitudeDegrees>-16.63170754909515380859375</LongitudeDegrees>
            </Position>
            <AltitudeMeters>2923.39990234375</AltitudeMeters>
            <DistanceMeters>12568.504791325</DistanceMeters>
          </Trackpoint>
          <Trackpoint>
            <Time>2019-04-08T08:10:14.000Z</Time>
            <Position>
              <LatitudeDegrees>28.26121799647808074951171875</LatitudeDegrees>
              <LongitudeDegrees>-16.63166396319866180419921875</LongitudeDegrees>
            </Position>
            <AltitudeMeters>2920.199951171875</AltitudeMeters>
            <DistanceMeters>12574.391847754</DistanceMeters>
          </Trackpoint>
          <Trackpoint>
            <Time>2019-04-08T08:10:15.000Z</Time>
            <Position>
              <LatitudeDegrees>28.2611873187124729156494140625</LatitudeDegrees>
              <LongitudeDegrees>-16.63161559961736202239990234375</LongitudeDegrees>
            </Position>
            <AltitudeMeters>2917.199951171875</AltitudeMeters>
            <DistanceMeters>12580.235024889</DistanceMeters>
          </Trackpoint>
          <Trackpoint>
            <Time>2019-04-08T08:10:16.000Z</Time>
            <Position>
              <LatitudeDegrees>28.26115555129945278167724609375</LatitudeDegrees>
              <LongitudeDegrees>-16.6315669007599353790283203125</LongitudeDegrees>
            </Position>
            <AltitudeMeters>2913.60009765625</AltitudeMeters>
            <DistanceMeters>12586.176284757</DistanceMeters>
          </Trackpoint>
          <Trackpoint>
            <Time>2019-04-08T08:10:17.000Z</Time>
            <Position>
              <LatitudeDegrees>28.261113725602626800537109375</LatitudeDegrees>
              <LongitudeDegrees>-16.63152758963406085968017578125</LongitudeDegrees>
            </Position>
            <AltitudeMeters>2908.800048828125</AltitudeMeters>
            <DistanceMeters>12592.220760689</DistanceMeters>
          </Trackpoint>
          <Trackpoint>
            <Time>2019-04-08T08:10:18.000Z</Time>
            <Position>
              <LatitudeDegrees>28.26106854714453220367431640625</LatitudeDegrees>
              <LongitudeDegrees>-16.631489284336566925048828125</LongitudeDegrees>
            </Position>
            <AltitudeMeters>2904.199951171875</AltitudeMeters>
            <DistanceMeters>12598.496841747</DistanceMeters>
          </Trackpoint>
          <Trackpoint>
            <Time>2019-04-08T08:10:19.000Z</Time>
            <Position>
              <LatitudeDegrees>28.261009119451045989990234375</LatitudeDegrees>
              <LongitudeDegrees>-16.63146774284541606903076171875</LongitudeDegrees>
            </Position>
            <AltitudeMeters>2900.199951171875</AltitudeMeters>
            <DistanceMeters>12605.440297525</DistanceMeters>
          </Trackpoint>
          <Trackpoint>
            <Time>2019-04-08T08:10:20.000Z</Time>
            <Position>
              <LatitudeDegrees>28.26096184551715850830078125</LatitudeDegrees>
              <LongitudeDegrees>-16.6314344666898250579833984375</LongitudeDegrees>
            </Position>
            <AltitudeMeters>2896.39990234375</AltitudeMeters>
            <DistanceMeters>12611.630906899</DistanceMeters>
          </Trackpoint>
          <Trackpoint>
            <Time>2019-04-08T08:10:21.000Z</Time>
            <Position>
              <LatitudeDegrees>28.2609154097735881805419921875</LatitudeDegrees>
              <LongitudeDegrees>-16.6313975863158702850341796875</LongitudeDegrees>
            </Position>
            <AltitudeMeters>2893</AltitudeMeters>
            <DistanceMeters>12617.938562313</DistanceMeters>
          </Trackpoint>
          <Trackpoint>
            <Time>2019-04-08T08:10:22.000Z</Time>
            <Position>
              <LatitudeDegrees>28.26087190769612789154052734375</LatitudeDegrees>
              <LongitudeDegrees>-16.63135911338031291961669921875</LongitudeDegrees>
            </Position>
            <AltitudeMeters>2889.60009765625</AltitudeMeters>
            <DistanceMeters>12624.076434821</DistanceMeters>
          </Trackpoint>
          <Trackpoint>
            <Time>2019-04-08T08:10:23.000Z</Time>
            <Position>
              <LatitudeDegrees>28.26080937869846820831298828125</LatitudeDegrees>
              <LongitudeDegrees>-16.63133916445076465606689453125</LongitudeDegrees>
            </Position>
            <AltitudeMeters>2886.800048828125</AltitudeMeters>
            <DistanceMeters>12631.305963329</DistanceMeters>
          </Trackpoint>
          <Trackpoint>
            <Time>2019-04-08T08:10:24.000Z</Time>
            <Position>
              <LatitudeDegrees>28.26076260767877101898193359375</LatitudeDegrees>
              <LongitudeDegrees>-16.6313038766384124755859375</LongitudeDegrees>
            </Position>
            <AltitudeMeters>2883</AltitudeMeters>
            <DistanceMeters>12637.555369751</DistanceMeters>
          </Trackpoint>
          <Trackpoint>
            <Time>2019-04-08T08:10:25.000Z</Time>
            <Position>
              <LatitudeDegrees>28.260721452534198760986328125</LatitudeDegrees>
              <LongitudeDegrees>-16.63126607425510883331298828125</LongitudeDegrees>
            </Position>
            <AltitudeMeters>2878.39990234375</AltitudeMeters>
            <DistanceMeters>12643.446259647</DistanceMeters>
          </Trackpoint>
          <Trackpoint>
            <Time>2019-04-08T08:10:26.000Z</Time>
            <Position>
              <LatitudeDegrees>28.26068063266575336456298828125</LatitudeDegrees>
              <LongitudeDegrees>-16.631225086748600006103515625</LongitudeDegrees>
            </Position>
            <AltitudeMeters>2875.39990234375</AltitudeMeters>
            <DistanceMeters>12649.510870217</DistanceMeters>
          </Trackpoint>
          <Trackpoint>
            <Time>2019-04-08T08:10:27.000Z</Time>
            <Position>
              <LatitudeDegrees>28.26061961241066455841064453125</LatitudeDegrees>
              <LongitudeDegrees>-16.63120237179100513458251953125</LongitudeDegrees>
            </Position>
            <AltitudeMeters>2871.60009765625</AltitudeMeters>
            <DistanceMeters>12656.65811741</DistanceMeters>
          </Trackpoint>
          <Trackpoint>
            <Time>2019-04-08T08:10:28.000Z</Time>
            <Position>
              <LatitudeDegrees>28.2605613581836223602294921875</LatitudeDegrees>
              <LongitudeDegrees>-16.63117714226245880126953125</LongitudeDegrees>
            </Position>
            <AltitudeMeters>2868.39990234375</AltitudeMeters>
            <DistanceMeters>12663.597670542</DistanceMeters>
          </Trackpoint>
          <Trackpoint>
            <Time>2019-04-08T08:10:29.000Z</Time>
            <Position>
              <LatitudeDegrees>28.26051257550716400146484375</LatitudeDegrees>
              <LongitudeDegrees>-16.63114353083074092864990234375</LongitudeDegrees>
            </Position>
            <AltitudeMeters>2865</AltitudeMeters>
            <DistanceMeters>12669.949550701</DistanceMeters>
          </Trackpoint>
          <Trackpoint>
            <Time>2019-04-08T08:10:30.000Z</Time>
            <Position>
              <LatitudeDegrees>28.26046429574489593505859375</LatitudeDegrees>
              <LongitudeDegrees>-16.63111134432256221771240234375</LongitudeDegrees>
            </Position>
            <AltitudeMeters>2862</AltitudeMeters>
            <DistanceMeters>12676.180869078</DistanceMeters>
          </Trackpoint>
          <Trackpoint>
            <Time>2019-04-08T08:10:31.000Z</Time>
            <Position>
              <LatitudeDegrees>28.26041274704039096832275390625</LatitudeDegrees>
              <LongitudeDegrees>-16.63107966072857379913330078125</LongitudeDegrees>
            </Position>
            <AltitudeMeters>2859</AltitudeMeters>
            <DistanceMeters>12682.704575867</DistanceMeters>
          </Trackpoint>
          <Trackpoint>
            <Time>2019-04-08T08:10:32.000Z</Time>
            <Position>
              <LatitudeDegrees>28.26035977341234683990478515625</LatitudeDegrees>
              <LongitudeDegrees>-16.63104898296296596527099609375</LongitudeDegrees>
            </Position>
            <AltitudeMeters>2856.199951171875</AltitudeMeters>
            <DistanceMeters>12689.323785103</DistanceMeters>
          </Trackpoint>
          <Trackpoint>
            <Time>2019-04-08T08:10:33.000Z</Time>
            <Position>
              <LatitudeDegrees>28.26030713506042957305908203125</LatitudeDegrees>
              <LongitudeDegrees>-16.63101847283542156219482421875</LongitudeDegrees>
            </Position>
            <AltitudeMeters>2852.39990234375</AltitudeMeters>
            <DistanceMeters>12695.902626673</DistanceMeters>
          </Trackpoint>
          <Trackpoint>
            <Time>2019-04-08T08:10:34.000Z</Time>
            <Position>
              <LatitudeDegrees>28.260252736508846282958984375</LatitudeDegrees>
              <LongitudeDegrees>-16.630989052355289459228515625</LongitudeDegrees>
            </Position>
            <AltitudeMeters>2849.60009765625</AltitudeMeters>
            <DistanceMeters>12702.608577812</DistanceMeters>
          </Trackpoint>
          <Trackpoint>
            <Time>2019-04-08T08:10:35.000Z</Time>
            <Position>
              <LatitudeDegrees>28.26018911786377429962158203125</LatitudeDegrees>
              <LongitudeDegrees>-16.6309634037315845489501953125</LongitudeDegrees>
            </Position>
            <AltitudeMeters>2846.60009765625</AltitudeMeters>
            <DistanceMeters>12710.122301119</DistanceMeters>
          </Trackpoint>
          <Trackpoint>
            <Time>2019-04-08T08:10:36.000Z</Time>
            <Position>
              <LatitudeDegrees>28.26013262383639812469482421875</LatitudeDegrees>
              <LongitudeDegrees>-16.63093498907983303070068359375</LongitudeDegrees>
            </Position>
            <AltitudeMeters>2842.800048828125</AltitudeMeters>
            <DistanceMeters>12717.000423718</DistanceMeters>
          </Trackpoint>
          <Trackpoint>
            <Time>2019-04-08T08:10:37.000Z</Time>
            <Position>
              <LatitudeDegrees>28.2600765489041805267333984375</LatitudeDegrees>
              <LongitudeDegrees>-16.6309064067900180816650390625</LongitudeDegrees>
            </Position>
            <AltitudeMeters>2839.39990234375</AltitudeMeters>
            <DistanceMeters>12723.841687213</DistanceMeters>
          </Trackpoint>
          <Trackpoint>
            <Time>2019-04-08T08:10:38.000Z</Time>
            <Position>
              <LatitudeDegrees>28.260024078190326690673828125</LatitudeDegrees>
              <LongitudeDegrees>-16.63087463937699794769287109375</LongitudeDegrees>
            </Position>
            <AltitudeMeters>2835.60009765625</AltitudeMeters>
            <DistanceMeters>12730.460214302</DistanceMeters>
          </Trackpoint>
          <Trackpoint>
            <Time>2019-04-08T08:10:39.000Z</Time>
            <Position>
              <LatitudeDegrees>28.259983174502849578857421875</LatitudeDegrees>
              <LongitudeDegrees>-16.63083784282207489013671875</LongitudeDegrees>
            </Position>
            <AltitudeMeters>2832.39990234375</AltitudeMeters>
            <DistanceMeters>12736.269293031</DistanceMeters>
          </Trackpoint>
          <Trackpoint>
            <Time>2019-04-08T08:10:40.000Z</Time>
            <Position>
              <LatitudeDegrees>28.2599330507218837738037109375</LatitudeDegrees>
              <LongitudeDegrees>-16.630803979933261871337890625</LongitudeDegrees>
            </Position>
            <AltitudeMeters>2828.800048828125</AltitudeMeters>
            <DistanceMeters>12742.761085292</DistanceMeters>
          </Trackpoint>
          <Trackpoint>
            <Time>2019-04-08T08:10:41.000Z</Time>
            <Position>
              <LatitudeDegrees>28.259884603321552276611328125</LatitudeDegrees>
              <LongitudeDegrees>-16.63077070377767086029052734375</LongitudeDegrees>
            </Position>
            <AltitudeMeters>2824.39990234375</AltitudeMeters>
            <DistanceMeters>12749.06301168</DistanceMeters>
          </Trackpoint>
          <Trackpoint>
            <Time>2019-04-08T08:10:42.000Z</Time>
            <Position>
              <LatitudeDegrees>28.259822912514209747314453125</LatitudeDegrees>
              <LongitudeDegrees>-16.63074262440204620361328125</LongitudeDegrees>
            </Position>
            <AltitudeMeters>2821.199951171875</AltitudeMeters>
            <DistanceMeters>12756.46046146</DistanceMeters>
          </Trackpoint>
          <Trackpoint>
            <Time>2019-04-08T08:10:43.000Z</Time>
            <Position>
              <LatitudeDegrees>28.25976281426846981048583984375</LatitudeDegrees>
              <LongitudeDegrees>-16.630712114274501800537109375</LongitudeDegrees>
            </Position>
            <AltitudeMeters>2817.60009765625</AltitudeMeters>
            <DistanceMeters>12763.78800092</DistanceMeters>
          </Trackpoint>
          <Trackpoint>
            <Time>2019-04-08T08:10:44.000Z</Time>
            <Position>
              <LatitudeDegrees>28.25970657169818878173828125</LatitudeDegrees>
              <LongitudeDegrees>-16.6306787542998790740966796875</LongitudeDegrees>
            </Position>
            <AltitudeMeters>2814.60009765625</AltitudeMeters>
            <DistanceMeters>12770.851369263</DistanceMeters>
          </Trackpoint>
          <Trackpoint>
            <Time>2019-04-08T08:10:45.000Z</Time>
            <Position>
              <LatitudeDegrees>28.25965284369885921478271484375</LatitudeDegrees>
              <LongitudeDegrees>-16.63064665161073207855224609375</LongitudeDegrees>
            </Position>
            <AltitudeMeters>2811.60009765625</AltitudeMeters>
            <DistanceMeters>12777.608964736</DistanceMeters>
          </Trackpoint>
          <Trackpoint>
            <Time>2019-04-08T08:10:46.000Z</Time>
            <Position>
              <LatitudeDegrees>28.2595945894718170166015625</LatitudeDegrees>
              <LongitudeDegrees>-16.63061647675931453704833984375</LongitudeDegrees>
            </Position>
            <AltitudeMeters>2808.60009765625</AltitudeMeters>
            <DistanceMeters>12784.735334775</DistanceMeters>
          </Trackpoint>
          <Trackpoint>
            <Time>2019-04-08T08:10:47.000Z</Time>
            <Position>
              <LatitudeDegrees>28.25953834690153598785400390625</LatitudeDegrees>
              <LongitudeDegrees>-16.63058529607951641082763671875</LongitudeDegrees>
            </Position>
            <AltitudeMeters>2805.39990234375</AltitudeMeters>
            <DistanceMeters>12791.701512407</DistanceMeters>
          </Trackpoint>
          <Trackpoint>
            <Time>2019-04-08T08:10:48.000Z</Time>
            <Position>
              <LatitudeDegrees>28.2594908215105533599853515625</LatitudeDegrees>
              <LongitudeDegrees>-16.630548499524593353271484375</LongitudeDegrees>
            </Position>
            <AltitudeMeters>2802</AltitudeMeters>
            <DistanceMeters>12798.104367009</DistanceMeters>
          </Trackpoint>
          <Trackpoint>
            <Time>2019-04-08T08:10:49.000Z</Time>
            <Position>
              <LatitudeDegrees>28.25943910516798496246337890625</LatitudeDegrees>
              <LongitudeDegrees>-16.6305148042738437652587890625</LongitudeDegrees>
            </Position>
            <AltitudeMeters>2797.199951171875</AltitudeMeters>
            <DistanceMeters>12804.741287447</DistanceMeters>
          </Trackpoint>
          <Trackpoint>
            <Time>2019-04-08T08:10:50.000Z</Time>
            <Position>
              <LatitudeDegrees>28.25939065776765346527099609375</LatitudeDegrees>
              <LongitudeDegrees>-16.63047918118536472320556640625</LongitudeDegrees>
            </Position>
            <AltitudeMeters>2793.60009765625</AltitudeMeters>
            <DistanceMeters>12811.165964826</DistanceMeters>
          </Trackpoint>
          <Trackpoint>
            <Time>2019-04-08T08:10:51.000Z</Time>
            <Position>
              <LatitudeDegrees>28.25934422202408313751220703125</LatitudeDegrees>
              <LongitudeDegrees>-16.63044464774429798126220703125</LongitudeDegrees>
            </Position>
            <AltitudeMeters>2790.800048828125</AltitudeMeters>
            <DistanceMeters>12817.344163036</DistanceMeters>
          </Trackpoint>
          <Trackpoint>
            <Time>2019-04-08T08:10:52.000Z</Time>
            <Position>
              <LatitudeDegrees>28.25929041020572185516357421875</LatitudeDegrees>
              <LongitudeDegrees>-16.63041363470256328582763671875</LongitudeDegrees>
            </Position>
            <AltitudeMeters>2788.199951171875</AltitudeMeters>
            <DistanceMeters>12824.060205907</DistanceMeters>
          </Trackpoint>
          <Trackpoint>
            <Time>2019-04-08T08:10:53.000Z</Time>
            <Position>
              <LatitudeDegrees>28.2592433877289295196533203125</LatitudeDegrees>
              <LongitudeDegrees>-16.6303770057857036590576171875</LongitudeDegrees>
            </Position>
            <AltitudeMeters>2785.39990234375</AltitudeMeters>
            <DistanceMeters>12830.407819718</DistanceMeters>
          </Trackpoint>
          <Trackpoint>
            <Time>2019-04-08T08:10:54.000Z</Time>
            <Position>
              <LatitudeDegrees>28.25921094976365566253662109375</LatitudeDegrees>
              <LongitudeDegrees>-16.6303304024040699005126953125</LongitudeDegrees>
            </Position>
            <AltitudeMeters>2782.199951171875</AltitudeMeters>
            <DistanceMeters>12836.230871928</DistanceMeters>
          </Trackpoint>
          <Trackpoint>
            <Time>2019-04-08T08:10:55.000Z</Time>
            <Position>
              <LatitudeDegrees>28.25916099362075328826904296875</LatitudeDegrees>
              <LongitudeDegrees>-16.63029310293495655059814453125</LongitudeDegrees>
            </Position>
            <AltitudeMeters>2778.800048828125</AltitudeMeters>
            <DistanceMeters>12842.88613488</DistanceMeters>
          </Trackpoint>
          <Trackpoint>
            <Time>2019-04-08T08:10:56.000Z</Time>
            <Position>
              <LatitudeDegrees>28.25909947045147418975830078125</LatitudeDegrees>
              <LongitudeDegrees>-16.6302633471786975860595703125</LongitudeDegrees>
            </Position>
            <AltitudeMeters>2775.800048828125</AltitudeMeters>
            <DistanceMeters>12850.329826777</DistanceMeters>
          </Trackpoint>
          <Trackpoint>
            <Time>2019-04-08T08:10:57.000Z</Time>
            <Position>
              <LatitudeDegrees>28.25905052013695240020751953125</LatitudeDegrees>
              <LongitudeDegrees>-16.6302254609763622283935546875</LongitudeDegrees>
            </Position>
            <AltitudeMeters>2772.199951171875</AltitudeMeters>
            <DistanceMeters>12856.924434283</DistanceMeters>
          </Trackpoint>
          <Trackpoint>
            <Time>2019-04-08T08:10:58.000Z</Time>
            <Position>
              <LatitudeDegrees>28.25900006107985973358154296875</LatitudeDegrees>
              <LongitudeDegrees>-16.63019008934497833251953125</LongitudeDegrees>
            </Position>
            <AltitudeMeters>2769.60009765625</AltitudeMeters>
            <DistanceMeters>12863.524516765</DistanceMeters>
          </Trackpoint>
          <Trackpoint>
            <Time>2019-04-08T08:10:59.000Z</Time>
            <Position>
              <LatitudeDegrees>28.25894708745181560516357421875</LatitudeDegrees>
              <LongitudeDegrees>-16.63015664555132389068603515625</LongitudeDegrees>
            </Position>
            <AltitudeMeters>2766.60009765625</AltitudeMeters>
            <DistanceMeters>12870.27074425</DistanceMeters>
          </Trackpoint>
          <Trackpoint>
            <Time>2019-04-08T08:11:00.000Z</Time>
            <Position>
              <LatitudeDegrees>28.25890014879405498504638671875</LatitudeDegrees>
              <LongitudeDegrees>-16.63011926226317882537841796875</LongitudeDegrees>
            </Position>
            <AltitudeMeters>2763.800048828125</AltitudeMeters>
            <DistanceMeters>12876.652408983</DistanceMeters>
          </Trackpoint>
          <Trackpoint>
            <Time>2019-04-08T08:11:01.000Z</Time>
            <Position>
              <LatitudeDegrees>28.25885421596467494964599609375</LatitudeDegrees>
              <LongitudeDegrees>-16.63008104078471660614013671875</LongitudeDegrees>
            </Position>
            <AltitudeMeters>2760.60009765625</AltitudeMeters>
            <DistanceMeters>12882.991481484</DistanceMeters>
          </Trackpoint>
          <Trackpoint>
            <Time>2019-04-08T08:11:02.000Z</Time>
            <Position>
              <LatitudeDegrees>28.2588078640401363372802734375</LatitudeDegrees>
              <LongitudeDegrees>-16.63004214875400066375732421875</LongitudeDegrees>
            </Position>
            <AltitudeMeters>2757.800048828125</AltitudeMeters>
            <DistanceMeters>12889.407016413</DistanceMeters>
          </Trackpoint>
          <Trackpoint>
            <Time>2019-04-08T08:11:03.000Z</Time>
            <Position>
              <LatitudeDegrees>28.2587495259940624237060546875</LatitudeDegrees>
              <LongitudeDegrees>-16.63001440465450286865234375</LongitudeDegrees>
            </Position>
            <AltitudeMeters>2754.800048828125</AltitudeMeters>
            <DistanceMeters>12896.446693929</DistanceMeters>
          </Trackpoint>
          <Trackpoint>
            <Time>2019-04-08T08:11:04.000Z</Time>
            <Position>
              <LatitudeDegrees>28.25870099477469921112060546875</LatitudeDegrees>
              <LongitudeDegrees>-16.6299783624708652496337890625</LongitudeDegrees>
            </Position>
            <AltitudeMeters>2752</AltitudeMeters>
            <DistanceMeters>12902.901519466</DistanceMeters>
          </Trackpoint>
          <Trackpoint>
            <Time>2019-04-08T08:11:05.000Z</Time>
            <Position>
              <LatitudeDegrees>28.25865154154598712921142578125</LatitudeDegrees>
              <LongitudeDegrees>-16.62993921898305416107177734375</LongitudeDegrees>
            </Position>
            <AltitudeMeters>2748.39990234375</AltitudeMeters>
            <DistanceMeters>12909.611509119</DistanceMeters>
          </Trackpoint>
          <Trackpoint>
            <Time>2019-04-08T08:11:06.000Z</Time>
            <Position>
              <LatitudeDegrees>28.25861432589590549468994140625</LatitudeDegrees>
              <LongitudeDegrees>-16.62988875992596149444580078125</LongitudeDegrees>
            </Position>
            <AltitudeMeters>2745.800048828125</AltitudeMeters>
            <DistanceMeters>12916.063536119</DistanceMeters>
          </Trackpoint>
          <Trackpoint>
            <Time>2019-04-08T08:11:07.000Z</Time>
            <Position>
              <LatitudeDegrees>28.25857711024582386016845703125</LatitudeDegrees>
              <LongitudeDegrees>-16.62984953261911869049072265625</LongitudeDegrees>
            </Position>
            <AltitudeMeters>2743.199951171875</AltitudeMeters>
            <DistanceMeters>12921.715828615</DistanceMeters>
          </Trackpoint>
          <Trackpoint>
            <Time>2019-04-08T08:11:08.000Z</Time>
            <Position>
              <LatitudeDegrees>28.258532099425792694091796875</LatitudeDegrees>
              <LongitudeDegrees>-16.629824303090572357177734375</LongitudeDegrees>
            </Position>
            <AltitudeMeters>2740.39990234375</AltitudeMeters>
            <DistanceMeters>12927.302235706</DistanceMeters>
          </Trackpoint>
          <Trackpoint>
            <Time>2019-04-08T08:11:09.000Z</Time>
            <Position>
              <LatitudeDegrees>28.25848356820642948150634765625</LatitudeDegrees>
              <LongitudeDegrees>-16.629790104925632476806640625</LongitudeDegrees>
            </Position>
            <AltitudeMeters>2737.39990234375</AltitudeMeters>
            <DistanceMeters>12933.659089652</DistanceMeters>
          </Trackpoint>
          <Trackpoint>
            <Time>2019-04-08T08:11:10.000Z</Time>
            <Position>
              <LatitudeDegrees>28.258437551558017730712890625</LatitudeDegrees>
              <LongitudeDegrees>-16.62975867278873920440673828125</LongitudeDegrees>
            </Position>
            <AltitudeMeters>2734</AltitudeMeters>
            <DistanceMeters>12939.635960272</DistanceMeters>
          </Trackpoint>
          <Trackpoint>
            <Time>2019-04-08T08:11:11.000Z</Time>
            <Position>
              <LatitudeDegrees>28.25838969089090824127197265625</LatitudeDegrees>
              <LongitudeDegrees>-16.6297326050698757171630859375</LongitudeDegrees>
            </Position>
            <AltitudeMeters>2730.60009765625</AltitudeMeters>
            <DistanceMeters>12945.543687877</DistanceMeters>
          </Trackpoint>
          <Trackpoint>
            <Time>2019-04-08T08:11:12.000Z</Time>
            <Position>
              <LatitudeDegrees>28.258340992033481597900390625</LatitudeDegrees>
              <LongitudeDegrees>-16.629704944789409637451171875</LongitudeDegrees>
            </Position>
            <AltitudeMeters>2727</AltitudeMeters>
            <DistanceMeters>12951.604574857</DistanceMeters>
          </Trackpoint>
          <Trackpoint>
            <Time>2019-04-08T08:11:13.000Z</Time>
            <Position>
              <LatitudeDegrees>28.25828592292964458465576171875</LatitudeDegrees>
              <LongitudeDegrees>-16.62967887707054615020751953125</LongitudeDegrees>
            </Position>
            <AltitudeMeters>2721.800048828125</AltitudeMeters>
            <DistanceMeters>12958.244895879</DistanceMeters>
          </Trackpoint>
          <Trackpoint>
            <Time>2019-04-08T08:11:14.000Z</Time>
            <Position>
              <LatitudeDegrees>28.258230686187744140625</LatitudeDegrees>
              <LongitudeDegrees>-16.629654653370380401611328125</LongitudeDegrees>
            </Position>
            <AltitudeMeters>2717.800048828125</AltitudeMeters>
            <DistanceMeters>12964.836079215</DistanceMeters>
          </Trackpoint>
          <Trackpoint>
            <Time>2019-04-08T08:11:15.000Z</Time>
            <Position>
              <LatitudeDegrees>28.25817528180778026580810546875</LatitudeDegrees>
              <LongitudeDegrees>-16.62962959147989749908447265625</LongitudeDegrees>
            </Position>
            <AltitudeMeters>2713.800048828125</AltitudeMeters>
            <DistanceMeters>12971.474360095</DistanceMeters>
          </Trackpoint>
          <Trackpoint>
            <Time>2019-04-08T08:11:16.000Z</Time>
            <Position>
              <LatitudeDegrees>28.258117027580738067626953125</LatitudeDegrees>
              <LongitudeDegrees>-16.62960763089358806610107421875</LongitudeDegrees>
            </Position>
            <AltitudeMeters>2709.800048828125</AltitudeMeters>
            <DistanceMeters>12978.307038576</DistanceMeters>
          </Trackpoint>
          <Trackpoint>
            <Time>2019-04-08T08:11:17.000Z</Time>
            <Position>
              <LatitudeDegrees>28.2580534927546977996826171875</LatitudeDegrees>
              <LongitudeDegrees>-16.6295904479920864105224609375</LongitudeDegrees>
            </Position>
            <AltitudeMeters>2706.199951171875</AltitudeMeters>
            <DistanceMeters>12985.576426951</DistanceMeters>
          </Trackpoint>
          <Trackpoint>
            <Time>2019-04-08T08:11:18.000Z</Time>
            <Position>
              <LatitudeDegrees>28.25799188576638698577880859375</LatitudeDegrees>
              <LongitudeDegrees>-16.6295711696147918701171875</LongitudeDegrees>
            </Position>
            <AltitudeMeters>2702.60009765625</AltitudeMeters>
            <DistanceMeters>12992.689479623</DistanceMeters>
          </Trackpoint>
          <Trackpoint>
            <Time>2019-04-08T08:11:19.000Z</Time>
            <Position>
              <LatitudeDegrees>28.25793069787323474884033203125</LatitudeDegrees>
              <LongitudeDegrees>-16.62954711355268955230712890625</LongitudeDegrees>
            </Position>
            <AltitudeMeters>2698.60009765625</AltitudeMeters>
            <DistanceMeters>12999.896490078</DistanceMeters>
          </Trackpoint>
          <Trackpoint>
            <Time>2019-04-08T08:11:20.000Z</Time>
            <Position>
              <LatitudeDegrees>28.2578680850565433502197265625</LatitudeDegrees>
              <LongitudeDegrees>-16.62952247075736522674560546875</LongitudeDegrees>
            </Position>
            <AltitudeMeters>2694.800048828125</AltitudeMeters>
            <DistanceMeters>13007.271934505</DistanceMeters>
          </Trackpoint>
          <Trackpoint>
            <Time>2019-04-08T08:11:21.000Z</Time>
            <Position>
              <LatitudeDegrees>28.25780765153467655181884765625</LatitudeDegrees>
              <LongitudeDegrees>-16.62950000725686550140380859375</LongitudeDegrees>
            </Position>
            <AltitudeMeters>2690</AltitudeMeters>
            <DistanceMeters>13014.349351692</DistanceMeters>
          </Trackpoint>
          <Trackpoint>
            <Time>2019-04-08T08:11:22.000Z</Time>
            <Position>
              <LatitudeDegrees>28.2577487267553806304931640625</LatitudeDegrees>
              <LongitudeDegrees>-16.62947687320411205291748046875</LongitudeDegrees>
            </Position>
            <AltitudeMeters>2686</AltitudeMeters>
            <DistanceMeters>13021.28825417</DistanceMeters>
          </Trackpoint>
          <Trackpoint>
            <Time>2019-04-08T08:11:23.000Z</Time>
            <Position>
              <LatitudeDegrees>28.2576913945376873016357421875</LatitudeDegrees>
              <LongitudeDegrees>-16.629454158246517181396484375</LongitudeDegrees>
            </Position>
            <AltitudeMeters>2682.199951171875</AltitudeMeters>
            <DistanceMeters>13028.047185797</DistanceMeters>
          </Trackpoint>
          <Trackpoint>
            <Time>2019-04-08T08:11:24.000Z</Time>
            <Position>
              <LatitudeDegrees>28.2576343975961208343505859375</LatitudeDegrees>
              <LongitudeDegrees>-16.62943127565085887908935546875</LongitudeDegrees>
            </Position>
            <AltitudeMeters>2678</AltitudeMeters>
            <DistanceMeters>13034.775989798</DistanceMeters>
          </Trackpoint>
          <Trackpoint>
            <Time>2019-04-08T08:11:25.000Z</Time>
            <Position>
              <LatitudeDegrees>28.2575693540275096893310546875</LatitudeDegrees>
              <LongitudeDegrees>-16.6294104047119617462158203125</LongitudeDegrees>
            </Position>
            <AltitudeMeters>2674.199951171875</AltitudeMeters>
            <DistanceMeters>13042.299921565</DistanceMeters>
          </Trackpoint>
          <Trackpoint>
            <Time>2019-04-08T08:11:26.000Z</Time>
            <Position>
              <LatitudeDegrees>28.2575073279440402984619140625</LatitudeDegrees>
              <LongitudeDegrees>-16.62938986904919147491455078125</LongitudeDegrees>
            </Position>
            <AltitudeMeters>2670.60009765625</AltitudeMeters>
            <DistanceMeters>13049.491880816</DistanceMeters>
          </Trackpoint>
          <Trackpoint>
            <Time>2019-04-08T08:11:27.000Z</Time>
            <Position>
              <LatitudeDegrees>28.2574560306966304779052734375</LatitudeDegrees>
              <LongitudeDegrees>-16.62936237640678882598876953125</LongitudeDegrees>
            </Position>
            <AltitudeMeters>2667.199951171875</AltitudeMeters>
            <DistanceMeters>13055.805975169</DistanceMeters>
          </Trackpoint>
          <Trackpoint>
            <Time>2019-04-08T08:11:28.000Z</Time>
            <Position>
              <LatitudeDegrees>28.25741085223853588104248046875</LatitudeDegrees>
              <LongitudeDegrees>-16.6293306089937686920166015625</LongitudeDegrees>
            </Position>
            <AltitudeMeters>2663.39990234375</AltitudeMeters>
            <DistanceMeters>13061.720577112</DistanceMeters>
          </Trackpoint>
          <Trackpoint>
            <Time>2019-04-08T08:11:29.000Z</Time>
            <Position>
              <LatitudeDegrees>28.25746399350464344024658203125</LatitudeDegrees>
              <LongitudeDegrees>-16.62922223098576068878173828125</LongitudeDegrees>
            </Position>
            <AltitudeMeters>2658.199951171875</AltitudeMeters>
            <DistanceMeters>13073.881397887</DistanceMeters>
          </Trackpoint>
          <Trackpoint>
            <Time>2019-04-08T08:11:30.000Z</Time>
            <Position>
              <LatitudeDegrees>28.25755351223051548004150390625</LatitudeDegrees>
              <LongitudeDegrees>-16.6290935687720775604248046875</LongitudeDegrees>
            </Position>
            <AltitudeMeters>2654.60009765625</AltitudeMeters>
            <DistanceMeters>13089.955806348</DistanceMeters>
          </Trackpoint>
          <Trackpoint>
            <Time>2019-04-08T08:11:31.000Z</Time>
            <Position>
              <LatitudeDegrees>28.25756558217108249664306640625</LatitudeDegrees>
              <LongitudeDegrees>-16.62902927957475185394287109375</LongitudeDegrees>
            </Position>
            <AltitudeMeters>2651.199951171875</AltitudeMeters>
            <DistanceMeters>13096.400131104</DistanceMeters>
          </Trackpoint>
          <Trackpoint>
            <Time>2019-04-08T08:11:32.000Z</Time>
            <Position>
              <LatitudeDegrees>28.25756105594336986541748046875</LatitudeDegrees>
              <LongitudeDegrees>-16.6289745457470417022705078125</LongitudeDegrees>
            </Position>
            <AltitudeMeters>2648</AltitudeMeters>
            <DistanceMeters>13101.789913653</DistanceMeters>
          </Trackpoint>
          <Trackpoint>
            <Time>2019-04-08T08:11:33.000Z</Time>
            <Position>
              <LatitudeDegrees>28.257536999881267547607421875</LatitudeDegrees>
              <LongitudeDegrees>-16.6289274394512176513671875</LongitudeDegrees>
            </Position>
            <AltitudeMeters>2644.39990234375</AltitudeMeters>
            <DistanceMeters>13107.127505917</DistanceMeters>
          </Trackpoint>
          <Trackpoint>
            <Time>2019-04-08T08:11:34.000Z</Time>
            <Position>
              <LatitudeDegrees>28.2574855349957942962646484375</LatitudeDegrees>
              <LongitudeDegrees>-16.628895588219165802001953125</LongitudeDegrees>
            </Position>
            <AltitudeMeters>2640.199951171875</AltitudeMeters>
            <DistanceMeters>13113.651212707</DistanceMeters>
          </Trackpoint>
          <Trackpoint>
            <Time>2019-04-08T08:11:35.000Z</Time>
            <Position>
              <LatitudeDegrees>28.2574255205690860748291015625</LatitudeDegrees>
              <LongitudeDegrees>-16.62887119688093662261962890625</LongitudeDegrees>
            </Position>
            <AltitudeMeters>2636.800048828125</AltitudeMeters>
            <DistanceMeters>13120.745197202</DistanceMeters>
          </Trackpoint>
          <Trackpoint>
            <Time>2019-04-08T08:11:36.000Z</Time>
            <Position>
              <LatitudeDegrees>28.25737564824521541595458984375</LatitudeDegrees>
              <LongitudeDegrees>-16.628840267658233642578125</LongitudeDegrees>
            </Position>
            <AltitudeMeters>2633.199951171875</AltitudeMeters>
            <DistanceMeters>13127.070008555</DistanceMeters>
          </Trackpoint>
          <Trackpoint>
            <Time>2019-04-08T08:11:37.000Z</Time>
            <Position>
              <LatitudeDegrees>28.2573396898806095123291015625</LatitudeDegrees>
              <LongitudeDegrees>-16.62879936397075653076171875</LongitudeDegrees>
            </Position>
            <AltitudeMeters>2628.60009765625</AltitudeMeters>
            <DistanceMeters>13132.735864338</DistanceMeters>
          </Trackpoint>
          <Trackpoint>
            <Time>2019-04-08T08:11:38.000Z</Time>
            <Position>
              <LatitudeDegrees>28.25729392468929290771484375</LatitudeDegrees>
              <LongitudeDegrees>-16.62876374088227748870849609375</LongitudeDegrees>
            </Position>
            <AltitudeMeters>2624.800048828125</AltitudeMeters>
            <DistanceMeters>13138.911869755</DistanceMeters>
          </Trackpoint>
          <Trackpoint>
            <Time>2019-04-08T08:11:39.000Z</Time>
            <Position>
              <LatitudeDegrees>28.25723759829998016357421875</LatitudeDegrees>
              <LongitudeDegrees>-16.62874010391533374786376953125</LongitudeDegrees>
            </Position>
            <AltitudeMeters>2621.39990234375</AltitudeMeters>
            <DistanceMeters>13145.594889887</DistanceMeters>
          </Trackpoint>
          <Trackpoint>
            <Time>2019-04-08T08:11:40.000Z</Time>
            <Position>
              <LatitudeDegrees>28.257231228053569793701171875</LatitudeDegrees>
              <LongitudeDegrees>-16.62867422215640544891357421875</LongitudeDegrees>
            </Position>
            <AltitudeMeters>2617.60009765625</AltitudeMeters>
            <DistanceMeters>13152.092243762</DistanceMeters>
          </Trackpoint>
          <Trackpoint>
            <Time>2019-04-08T08:11:41.000Z</Time>
            <Position>
              <LatitudeDegrees>28.25719476677477359771728515625</LatitudeDegrees>
              <LongitudeDegrees>-16.6286325640976428985595703125</LongitudeDegrees>
            </Position>
            <AltitudeMeters>2613.60009765625</AltitudeMeters>
            <DistanceMeters>13157.849012</DistanceMeters>
          </Trackpoint>
          <Trackpoint>
            <Time>2019-04-08T08:11:42.000Z</Time>
            <Position>
              <LatitudeDegrees>28.25715989805757999420166015625</LatitudeDegrees>
              <LongitudeDegrees>-16.6285894811153411865234375</LongitudeDegrees>
            </Position>
            <AltitudeMeters>2610</AltitudeMeters>
            <DistanceMeters>13163.583777768</DistanceMeters>
          </Trackpoint>
          <Trackpoint>
            <Time>2019-04-08T08:11:43.000Z</Time>
            <Position>
              <LatitudeDegrees>28.2571274600923061370849609375</LatitudeDegrees>
              <LongitudeDegrees>-16.6285453923046588897705078125</LongitudeDegrees>
            </Position>
            <AltitudeMeters>2606.800048828125</AltitudeMeters>
            <DistanceMeters>13169.215263226</DistanceMeters>
          </Trackpoint>
          <Trackpoint>
            <Time>2019-04-08T08:11:44.000Z</Time>
            <Position>
              <LatitudeDegrees>28.257101811468601226806640625</LatitudeDegrees>
              <LongitudeDegrees>-16.62849183194339275360107421875</LongitudeDegrees>
            </Position>
            <AltitudeMeters>2603.39990234375</AltitudeMeters>
            <DistanceMeters>13175.193644493</DistanceMeters>
          </Trackpoint>
          <Trackpoint>
            <Time>2019-04-08T08:11:45.000Z</Time>
            <Position>
              <LatitudeDegrees>28.2570604048669338226318359375</LatitudeDegrees>
              <LongitudeDegrees>-16.6284545324742794036865234375</LongitudeDegrees>
            </Position>
            <AltitudeMeters>2598.800048828125</AltitudeMeters>
            <DistanceMeters>13181.077632348</DistanceMeters>
          </Trackpoint>
          <Trackpoint>
            <Time>2019-04-08T08:11:46.000Z</Time>
            <Position>
              <LatitudeDegrees>28.25702863745391368865966796875</LatitudeDegrees>
              <LongitudeDegrees>-16.62841019220650196075439453125</LongitudeDegrees>
            </Position>
            <AltitudeMeters>2595.199951171875</AltitudeMeters>
            <DistanceMeters>13186.681792042</DistanceMeters>
          </Trackpoint>
          <Trackpoint>
            <Time>2019-04-08T08:11:47.000Z</Time>
            <Position>
              <LatitudeDegrees>28.25698656029999256134033203125</LatitudeDegrees>
              <LongitudeDegrees>-16.62837482057511806488037109375</LongitudeDegrees>
            </Position>
            <AltitudeMeters>2591.800048828125</AltitudeMeters>
            <DistanceMeters>13192.508719829</DistanceMeters>
          </Trackpoint>
          <Trackpoint>
            <Time>2019-04-08T08:11:48.000Z</Time>
            <Position>
              <LatitudeDegrees>28.25694783590734004974365234375</LatitudeDegrees>
              <LongitudeDegrees>-16.6283368505537509918212890625</LongitudeDegrees>
            </Position>
            <AltitudeMeters>2588.60009765625</AltitudeMeters>
            <DistanceMeters>13198.203984053</DistanceMeters>
          </Trackpoint>
          <Trackpoint>
            <Time>2019-04-08T08:11:49.000Z</Time>
            <Position>
              <LatitudeDegrees>28.2569070160388946533203125</LatitudeDegrees>
              <LongitudeDegrees>-16.62830038927495479583740234375</LongitudeDegrees>
            </Position>
            <AltitudeMeters>2585.199951171875</AltitudeMeters>
            <DistanceMeters>13203.985795447</DistanceMeters>
          </Trackpoint>
          <Trackpoint>
            <Time>2019-04-08T08:11:50.000Z</Time>
            <Position>
              <LatitudeDegrees>28.2568642683327198028564453125</LatitudeDegrees>
              <LongitudeDegrees>-16.62826426327228546142578125</LongitudeDegrees>
            </Position>
            <AltitudeMeters>2581.60009765625</AltitudeMeters>
            <DistanceMeters>13209.917167786</DistanceMeters>
          </Trackpoint>
          <Trackpoint>
            <Time>2019-04-08T08:11:51.000Z</Time>
            <Position>
              <LatitudeDegrees>28.25683233328163623809814453125</LatitudeDegrees>
              <LongitudeDegrees>-16.62822226993739604949951171875</LongitudeDegrees>
            </Position>
            <AltitudeMeters>2578.199951171875</AltitudeMeters>
            <DistanceMeters>13215.356150267</DistanceMeters>
          </Trackpoint>
          <Trackpoint>
            <Time>2019-04-08T08:11:52.000Z</Time>
            <Position>
              <LatitudeDegrees>28.2567915134131908416748046875</LatitudeDegrees>
              <LongitudeDegrees>-16.628183461725711822509765625</LongitudeDegrees>
            </Position>
            <AltitudeMeters>2574.60009765625</AltitudeMeters>
            <DistanceMeters>13221.282191719</DistanceMeters>
          </Trackpoint>
          <Trackpoint>
            <Time>2019-04-08T08:11:53.000Z</Time>
            <Position>
              <LatitudeDegrees>28.2567418925464153289794921875</LatitudeDegrees>
              <LongitudeDegrees>-16.6281517781317234039306640625</LongitudeDegrees>
            </Position>
            <AltitudeMeters>2570.199951171875</AltitudeMeters>
            <DistanceMeters>13227.618414559</DistanceMeters>
          </Trackpoint>
          <Trackpoint>
            <Time>2019-04-08T08:11:54.000Z</Time>
            <Position>
              <LatitudeDegrees>28.2566969655454158782958984375</LatitudeDegrees>
              <LongitudeDegrees>-16.62811942398548126220703125</LongitudeDegrees>
            </Position>
            <AltitudeMeters>2566.800048828125</AltitudeMeters>
            <DistanceMeters>13233.540645296</DistanceMeters>
          </Trackpoint>
          <Trackpoint>
            <Time>2019-04-08T08:11:55.000Z</Time>
            <Position>
              <LatitudeDegrees>28.2566600851714611053466796875</LatitudeDegrees>
              <LongitudeDegrees>-16.628080867230892181396484375</LongitudeDegrees>
            </Position>
            <AltitudeMeters>2562.800048828125</AltitudeMeters>
            <DistanceMeters>13239.120582893</DistanceMeters>
          </Trackpoint>
          <Trackpoint>
            <Time>2019-04-08T08:11:56.000Z</Time>
            <Position>
              <LatitudeDegrees>28.25661457143723964691162109375</LatitudeDegrees>
              <LongitudeDegrees>-16.62804608233273029327392578125</LongitudeDegrees>
            </Position>
            <AltitudeMeters>2559.199951171875</AltitudeMeters>
            <DistanceMeters>13245.227481919</DistanceMeters>
          </Trackpoint>
          <Trackpoint>
            <Time>2019-04-08T08:11:57.000Z</Time>
            <Position>
              <LatitudeDegrees>28.25656428001821041107177734375</LatitudeDegrees>
              <LongitudeDegrees>-16.62801506929099559783935546875</LongitudeDegrees>
            </Position>
            <AltitudeMeters>2556</AltitudeMeters>
            <DistanceMeters>13251.597816567</DistanceMeters>
          </Trackpoint>
          <Trackpoint>
            <Time>2019-04-08T08:11:58.000Z</Time>
            <Position>
              <LatitudeDegrees>28.256517089903354644775390625</LatitudeDegrees>
              <LongitudeDegrees>-16.6279848106205463409423828125</LongitudeDegrees>
            </Position>
            <AltitudeMeters>2553</AltitudeMeters>
            <DistanceMeters>13257.630329151</DistanceMeters>
          </Trackpoint>
          <Trackpoint>
            <Time>2019-04-08T08:11:59.000Z</Time>
            <Position>
              <LatitudeDegrees>28.25647325254976749420166015625</LatitudeDegrees>
              <LongitudeDegrees>-16.62795186974108219146728515625</LongitudeDegrees>
            </Position>
            <AltitudeMeters>2549.800048828125</AltitudeMeters>
            <DistanceMeters>13263.481999842</DistanceMeters>
          </Trackpoint>
          <Trackpoint>
            <Time>2019-04-08T08:12:00.000Z</Time>
            <Position>
              <LatitudeDegrees>28.2564280740916728973388671875</LatitudeDegrees>
              <LongitudeDegrees>-16.6279189288616180419921875</LongitudeDegrees>
            </Position>
            <AltitudeMeters>2546.60009765625</AltitudeMeters>
            <DistanceMeters>13269.458870462</DistanceMeters>
          </Trackpoint>
          <Trackpoint>
            <Time>2019-04-08T08:12:01.000Z</Time>
            <Position>
              <LatitudeDegrees>28.256382979452610015869140625</LatitudeDegrees>
              <LongitudeDegrees>-16.6278827190399169921875</LongitudeDegrees>
            </Position>
            <AltitudeMeters>2542.199951171875</AltitudeMeters>
            <DistanceMeters>13275.606298373</DistanceMeters>
          </Trackpoint>
          <Trackpoint>
            <Time>2019-04-08T08:12:02.000Z</Time>
            <Position>
              <LatitudeDegrees>28.25633461587131023406982421875</LatitudeDegrees>
              <LongitudeDegrees>-16.62785120308399200439453125</LongitudeDegrees>
            </Position>
            <AltitudeMeters>2538.60009765625</AltitudeMeters>
            <DistanceMeters>13281.812932413</DistanceMeters>
          </Trackpoint>
          <Trackpoint>
            <Time>2019-04-08T08:12:03.000Z</Time>
            <Position>
              <LatitudeDegrees>28.256297148764133453369140625</LatitudeDegrees>
              <LongitudeDegrees>-16.62780803628265857696533203125</LongitudeDegrees>
            </Position>
            <AltitudeMeters>2535</AltitudeMeters>
            <DistanceMeters>13287.754192281</DistanceMeters>
          </Trackpoint>
          <Trackpoint>
            <Time>2019-04-08T08:12:04.000Z</Time>
            <Position>
              <LatitudeDegrees>28.256262280046939849853515625</LatitudeDegrees>
              <LongitudeDegrees>-16.627765037119388580322265625</LongitudeDegrees>
            </Position>
            <AltitudeMeters>2531.199951171875</AltitudeMeters>
            <DistanceMeters>13293.485020147</DistanceMeters>
          </Trackpoint>
          <Trackpoint>
            <Time>2019-04-08T08:12:05.000Z</Time>
            <Position>
              <LatitudeDegrees>28.25621777214109897613525390625</LatitudeDegrees>
              <LongitudeDegrees>-16.6277310065925121307373046875</LongitudeDegrees>
            </Position>
            <AltitudeMeters>2528</AltitudeMeters>
            <DistanceMeters>13299.458112481</DistanceMeters>
          </Trackpoint>
          <Trackpoint>
            <Time>2019-04-08T08:12:06.000Z</Time>
            <Position>
              <LatitudeDegrees>28.2561722584068775177001953125</LatitudeDegrees>
              <LongitudeDegrees>-16.627694629132747650146484375</LongitudeDegrees>
            </Position>
            <AltitudeMeters>2524.800048828125</AltitudeMeters>
            <DistanceMeters>13305.653825108</DistanceMeters>
          </Trackpoint>
          <Trackpoint>
            <Time>2019-04-08T08:12:07.000Z</Time>
            <Position>
              <LatitudeDegrees>28.2561399042606353759765625</LatitudeDegrees>
              <LongitudeDegrees>-16.6276485286653041839599609375</LongitudeDegrees>
            </Position>
            <AltitudeMeters>2521.39990234375</AltitudeMeters>
            <DistanceMeters>13311.432512043</DistanceMeters>
          </Trackpoint>
          <Trackpoint>
            <Time>2019-04-08T08:12:08.000Z</Time>
            <Position>
              <LatitudeDegrees>28.2560844160616397857666015625</LatitudeDegrees>
              <LongitudeDegrees>-16.627617515623569488525390625</LongitudeDegrees>
            </Position>
            <AltitudeMeters>2518.199951171875</AltitudeMeters>
            <DistanceMeters>13318.315884117</DistanceMeters>
          </Trackpoint>
          <Trackpoint>
            <Time>2019-04-08T08:12:09.000Z</Time>
            <Position>
              <LatitudeDegrees>28.25603253208100795745849609375</LatitudeDegrees>
              <LongitudeDegrees>-16.62758407182991504669189453125</LongitudeDegrees>
            </Position>
            <AltitudeMeters>2514</AltitudeMeters>
            <DistanceMeters>13324.956885047</DistanceMeters>
          </Trackpoint>
          <Trackpoint>
            <Time>2019-04-08T08:12:10.000Z</Time>
            <Position>
              <LatitudeDegrees>28.25598458759486675262451171875</LatitudeDegrees>
              <LongitudeDegrees>-16.6275479458272457122802734375</LongitudeDegrees>
            </Position>
            <AltitudeMeters>2510.800048828125</AltitudeMeters>
            <DistanceMeters>13331.36185478</DistanceMeters>
          </Trackpoint>
          <Trackpoint>
            <Time>2019-04-08T08:12:11.000Z</Time>
            <Position>
              <LatitudeDegrees>28.25593806803226470947265625</LatitudeDegrees>
              <LongitudeDegrees>-16.6275097243487834930419921875</LongitudeDegrees>
            </Position>
            <AltitudeMeters>2508</AltitudeMeters>
            <DistanceMeters>13337.753416861</DistanceMeters>
          </Trackpoint>
          <Trackpoint>
            <Time>2019-04-08T08:12:12.000Z</Time>
            <Position>
              <LatitudeDegrees>28.255900852382183074951171875</LatitudeDegrees>
              <LongitudeDegrees>-16.62746655754745006561279296875</LongitudeDegrees>
            </Position>
            <AltitudeMeters>2505</AltitudeMeters>
            <DistanceMeters>13343.674885161</DistanceMeters>
          </Trackpoint>
          <Trackpoint>
            <Time>2019-04-08T08:12:13.000Z</Time>
            <Position>
              <LatitudeDegrees>28.255860619246959686279296875</LatitudeDegrees>
              <LongitudeDegrees>-16.627427749335765838623046875</LongitudeDegrees>
            </Position>
            <AltitudeMeters>2501.800048828125</AltitudeMeters>
            <DistanceMeters>13349.550426178</DistanceMeters>
          </Trackpoint>
          <Trackpoint>
            <Time>2019-04-08T08:12:14.000Z</Time>
            <Position>
              <LatitudeDegrees>28.25581678189337253570556640625</LatitudeDegrees>
              <LongitudeDegrees>-16.62738986313343048095703125</LongitudeDegrees>
            </Position>
            <AltitudeMeters>2498.39990234375</AltitudeMeters>
            <DistanceMeters>13355.682411037</DistanceMeters>
          </Trackpoint>
          <Trackpoint>
            <Time>2019-04-08T08:12:15.000Z</Time>
            <Position>
              <LatitudeDegrees>28.255774118006229400634765625</LatitudeDegrees>
              <LongitudeDegrees>-16.62734954617917537689208984375</LongitudeDegrees>
            </Position>
            <AltitudeMeters>2495.39990234375</AltitudeMeters>
            <DistanceMeters>13361.861340007</DistanceMeters>
          </Trackpoint>
          <Trackpoint>
            <Time>2019-04-08T08:12:16.000Z</Time>
            <Position>
              <LatitudeDegrees>28.25573698617517948150634765625</LatitudeDegrees>
              <LongitudeDegrees>-16.627309061586856842041015625</LongitudeDegrees>
            </Position>
            <AltitudeMeters>2492.39990234375</AltitudeMeters>
            <DistanceMeters>13367.591379967</DistanceMeters>
          </Trackpoint>
          <Trackpoint>
            <Time>2019-04-08T08:12:17.000Z</Time>
            <Position>
              <LatitudeDegrees>28.2557008601725101470947265625</LatitudeDegrees>
              <LongitudeDegrees>-16.6272666491568088531494140625</LongitudeDegrees>
            </Position>
            <AltitudeMeters>2488.39990234375</AltitudeMeters>
            <DistanceMeters>13373.375533598</DistanceMeters>
          </Trackpoint>
          <Trackpoint>
            <Time>2019-04-08T08:12:18.000Z</Time>
            <Position>
              <LatitudeDegrees>28.25566121377050876617431640625</LatitudeDegrees>
              <LongitudeDegrees>-16.62722532637417316436767578125</LongitudeDegrees>
            </Position>
            <AltitudeMeters>2485.39990234375</AltitudeMeters>
            <DistanceMeters>13379.365986318</DistanceMeters>
          </Trackpoint>
          <Trackpoint>
            <Time>2019-04-08T08:12:19.000Z</Time>
            <Position>
              <LatitudeDegrees>28.25561997480690479278564453125</LatitudeDegrees>
              <LongitudeDegrees>-16.627185344696044921875</LongitudeDegrees>
            </Position>
            <AltitudeMeters>2482</AltitudeMeters>
            <DistanceMeters>13385.402239995</DistanceMeters>
          </Trackpoint>
          <Trackpoint>
            <Time>2019-04-08T08:12:20.000Z</Time>
            <Position>
              <LatitudeDegrees>28.255595751106739044189453125</LatitudeDegrees>
              <LongitudeDegrees>-16.6271335445344448089599609375</LongitudeDegrees>
            </Position>
            <AltitudeMeters>2478.800048828125</AltitudeMeters>
            <DistanceMeters>13391.151159875</DistanceMeters>
          </Trackpoint>
          <Trackpoint>
            <Time>2019-04-08T08:12:21.000Z</Time>
            <Position>
              <LatitudeDegrees>28.2555560208857059478759765625</LatitudeDegrees>
              <LongitudeDegrees>-16.62709138356149196624755859375</LongitudeDegrees>
            </Position>
            <AltitudeMeters>2475.800048828125</AltitudeMeters>
            <DistanceMeters>13397.204592802</DistanceMeters>
          </Trackpoint>
          <Trackpoint>
            <Time>2019-04-08T08:12:22.000Z</Time>
            <Position>
              <LatitudeDegrees>28.25550329871475696563720703125</LatitudeDegrees>
              <LongitudeDegrees>-16.6270577721297740936279296875</LongitudeDegrees>
            </Position>
            <AltitudeMeters>2472.60009765625</AltitudeMeters>
            <DistanceMeters>13403.934738673</DistanceMeters>
          </Trackpoint>
          <Trackpoint>
            <Time>2019-04-08T08:12:23.000Z</Time>
            <Position>
              <LatitudeDegrees>28.2554586231708526611328125</LatitudeDegrees>
              <LongitudeDegrees>-16.62701896391808986663818359375</LongitudeDegrees>
            </Position>
            <AltitudeMeters>2470</AltitudeMeters>
            <DistanceMeters>13410.195694019</DistanceMeters>
          </Trackpoint>
          <Trackpoint>
            <Time>2019-04-08T08:12:24.000Z</Time>
            <Position>
              <LatitudeDegrees>28.25541445054113864898681640625</LatitudeDegrees>
              <LongitudeDegrees>-16.62697889842092990875244140625</LongitudeDegrees>
            </Position>
            <AltitudeMeters>2467.199951171875</AltitudeMeters>
            <DistanceMeters>13416.48901709</DistanceMeters>
          </Trackpoint>
          <Trackpoint>
            <Time>2019-04-08T08:12:25.000Z</Time>
            <Position>
              <LatitudeDegrees>28.25545099563896656036376953125</LatitudeDegrees>
              <LongitudeDegrees>-16.6268782317638397216796875</LongitudeDegrees>
            </Position>
            <AltitudeMeters>2463.39990234375</AltitudeMeters>
            <DistanceMeters>13427.163355692</DistanceMeters>
          </Trackpoint>
          <Trackpoint>
            <Time>2019-04-08T08:12:26.000Z</Time>
            <Position>
              <LatitudeDegrees>28.25545887462794780731201171875</LatitudeDegrees>
              <LongitudeDegrees>-16.62679483182728290557861328125</LongitudeDegrees>
            </Position>
            <AltitudeMeters>2460.39990234375</AltitudeMeters>
            <DistanceMeters>13435.386873338</DistanceMeters>
          </Trackpoint>
          <Trackpoint>
            <Time>2019-04-08T08:12:27.000Z</Time>
            <Position>
              <LatitudeDegrees>28.255436830222606658935546875</LatitudeDegrees>
              <LongitudeDegrees>-16.6267332248389720916748046875</LongitudeDegrees>
            </Position>
            <AltitudeMeters>2457.39990234375</AltitudeMeters>
            <DistanceMeters>13441.906426224</DistanceMeters>
          </Trackpoint>
          <Trackpoint>
            <Time>2019-04-08T08:12:28.000Z</Time>
            <Position>
              <LatitudeDegrees>28.25539198704063892364501953125</LatitudeDegrees>
              <LongitudeDegrees>-16.626694165170192718505859375</LongitudeDegrees>
            </Position>
            <AltitudeMeters>2454</AltitudeMeters>
            <DistanceMeters>13448.196878908</DistanceMeters>
          </Trackpoint>
          <Trackpoint>
            <Time>2019-04-08T08:12:29.000Z</Time>
            <Position>
              <LatitudeDegrees>28.25536164455115795135498046875</LatitudeDegrees>
              <LongitudeDegrees>-16.62664764560759067535400390625</LongitudeDegrees>
            </Position>
            <AltitudeMeters>2451</AltitudeMeters>
            <DistanceMeters>13453.873084749</DistanceMeters>
          </Trackpoint>
          <Trackpoint>
            <Time>2019-04-08T08:12:30.000Z</Time>
            <Position>
              <LatitudeDegrees>28.2553300447762012481689453125</LatitudeDegrees>
              <LongitudeDegrees>-16.62659366615116596221923828125</LongitudeDegrees>
            </Position>
            <AltitudeMeters>2448.199951171875</AltitudeMeters>
            <DistanceMeters>13460.227807549</DistanceMeters>
          </Trackpoint>
          <Trackpoint>
            <Time>2019-04-08T08:12:31.000Z</Time>
            <Position>
              <LatitudeDegrees>28.2552821002900600433349609375</LatitudeDegrees>
              <LongitudeDegrees>-16.6265538521111011505126953125</LongitudeDegrees>
            </Position>
            <AltitudeMeters>2445.199951171875</AltitudeMeters>
            <DistanceMeters>13466.840192152</DistanceMeters>
          </Trackpoint>
          <Trackpoint>
            <Time>2019-04-08T08:12:32.000Z</Time>
            <Position>
              <LatitudeDegrees>28.25523692183196544647216796875</LatitudeDegrees>
              <LongitudeDegrees>-16.626514457166194915771484375</LongitudeDegrees>
            </Position>
            <AltitudeMeters>2442.39990234375</AltitudeMeters>
            <DistanceMeters>13473.180689004</DistanceMeters>
          </Trackpoint>
          <Trackpoint>
            <Time>2019-04-08T08:12:33.000Z</Time>
            <Position>
              <LatitudeDegrees>28.25518830679357051849365234375</LatitudeDegrees>
              <LongitudeDegrees>-16.62648436613380908966064453125</LongitudeDegrees>
            </Position>
            <AltitudeMeters>2437.800048828125</AltitudeMeters>
            <DistanceMeters>13479.343521269</DistanceMeters>
          </Trackpoint>
          <Trackpoint>
            <Time>2019-04-08T08:12:34.000Z</Time>
            <Position>
              <LatitudeDegrees>28.2551449723541736602783203125</LatitudeDegrees>
              <LongitudeDegrees>-16.62644983269274234771728515625</LongitudeDegrees>
            </Position>
            <AltitudeMeters>2435.199951171875</AltitudeMeters>
            <DistanceMeters>13485.235943854</DistanceMeters>
          </Trackpoint>
          <Trackpoint>
            <Time>2019-04-08T08:12:35.000Z</Time>
            <Position>
              <LatitudeDegrees>28.25510390102863311767578125</LatitudeDegrees>
              <LongitudeDegrees>-16.62641580216586589813232421875</LongitudeDegrees>
            </Position>
            <AltitudeMeters>2432.199951171875</AltitudeMeters>
            <DistanceMeters>13490.895420963</DistanceMeters>
          </Trackpoint>
          <Trackpoint>
            <Time>2019-04-08T08:12:36.000Z</Time>
            <Position>
              <LatitudeDegrees>28.25506500899791717529296875</LatitudeDegrees>
              <LongitudeDegrees>-16.62638260982930660247802734375</LongitudeDegrees>
            </Position>
            <AltitudeMeters>2429.60009765625</AltitudeMeters>
            <DistanceMeters>13496.31027629</DistanceMeters>
          </Trackpoint>
          <Trackpoint>
            <Time>2019-04-08T08:12:37.000Z</Time>
            <Position>
              <LatitudeDegrees>28.255037181079387664794921875</LatitudeDegrees>
              <LongitudeDegrees>-16.62633843719959259033203125</LongitudeDegrees>
            </Position>
            <AltitudeMeters>2427</AltitudeMeters>
            <DistanceMeters>13501.634317045</DistanceMeters>
          </Trackpoint>
          <Trackpoint>
            <Time>2019-04-08T08:12:38.000Z</Time>
            <Position>
              <LatitudeDegrees>28.25500457547605037689208984375</LatitudeDegrees>
              <LongitudeDegrees>-16.62630247883498668670654296875</LongitudeDegrees>
            </Position>
            <AltitudeMeters>2424.800048828125</AltitudeMeters>
            <DistanceMeters>13506.693987659</DistanceMeters>
          </Trackpoint>
          <Trackpoint>
            <Time>2019-04-08T08:12:39.000Z</Time>
            <Position>
              <LatitudeDegrees>28.25497523881494998931884765625</LatitudeDegrees>
              <LongitudeDegrees>-16.62626425735652446746826171875</LongitudeDegrees>
            </Position>
            <AltitudeMeters>2422.39990234375</AltitudeMeters>
            <DistanceMeters>13511.664529797</DistanceMeters>
          </Trackpoint>
          <Trackpoint>
            <Time>2019-04-08T08:12:40.000Z</Time>
            <Position>
              <LatitudeDegrees>28.25494472868740558624267578125</LatitudeDegrees>
              <LongitudeDegrees>-16.6262279637157917022705078125</LongitudeDegrees>
            </Position>
            <AltitudeMeters>2420</AltitudeMeters>
            <DistanceMeters>13516.583940826</DistanceMeters>
          </Trackpoint>
          <Trackpoint>
            <Time>2019-04-08T08:12:41.000Z</Time>
            <Position>
              <LatitudeDegrees>28.25491656549274921417236328125</LatitudeDegrees>
              <LongitudeDegrees>-16.6261927597224712371826171875</LongitudeDegrees>
            </Position>
            <AltitudeMeters>2417</AltitudeMeters>
            <DistanceMeters>13521.247032512</DistanceMeters>
          </Trackpoint>
          <Trackpoint>
            <Time>2019-04-08T08:12:42.000Z</Time>
            <Position>
              <LatitudeDegrees>28.254888989031314849853515625</LatitudeDegrees>
              <LongitudeDegrees>-16.6261595673859119415283203125</LongitudeDegrees>
            </Position>
            <AltitudeMeters>2414.800048828125</AltitudeMeters>
            <DistanceMeters>13525.71934951</DistanceMeters>
          </Trackpoint>
          <Trackpoint>
            <Time>2019-04-08T08:12:43.000Z</Time>
            <Position>
              <LatitudeDegrees>28.254864178597927093505859375</LatitudeDegrees>
              <LongitudeDegrees>-16.62612578831613063812255859375</LongitudeDegrees>
            </Position>
            <AltitudeMeters>2412.800048828125</AltitudeMeters>
            <DistanceMeters>13530.030253976</DistanceMeters>
          </Trackpoint>
          <Trackpoint>
            <Time>2019-04-08T08:12:44.000Z</Time>
            <Position>
              <LatitudeDegrees>28.25483676977455615997314453125</LatitudeDegrees>
              <LongitudeDegrees>-16.62609812803566455841064453125</LongitudeDegrees>
            </Position>
            <AltitudeMeters>2410.800048828125</AltitudeMeters>
            <DistanceMeters>13534.113086463</DistanceMeters>
          </Trackpoint>
          <Trackpoint>
            <Time>2019-04-08T08:12:45.000Z</Time>
            <Position>
              <LatitudeDegrees>28.2548070140182971954345703125</LatitudeDegrees>
              <LongitudeDegrees>-16.62607499398291110992431640625</LongitudeDegrees>
            </Position>
            <AltitudeMeters>2409</AltitudeMeters>
            <DistanceMeters>13538.127894859</DistanceMeters>
          </Trackpoint>
          <Trackpoint>
            <Time>2019-04-08T08:12:46.000Z</Time>
            <Position>
              <LatitudeDegrees>28.2547822035849094390869140625</LatitudeDegrees>
              <LongitudeDegrees>-16.62604783661663532257080078125</LongitudeDegrees>
            </Position>
            <AltitudeMeters>2407.199951171875</AltitudeMeters>
            <DistanceMeters>13541.963255927</DistanceMeters>
          </Trackpoint>
          <Trackpoint>
            <Time>2019-04-08T08:12:47.000Z</Time>
            <Position>
              <LatitudeDegrees>28.2547577284276485443115234375</LatitudeDegrees>
              <LongitudeDegrees>-16.6260234452784061431884765625</LongitudeDegrees>
            </Position>
            <AltitudeMeters>2405.60009765625</AltitudeMeters>
            <DistanceMeters>13545.586753016</DistanceMeters>
          </Trackpoint>
          <Trackpoint>
            <Time>2019-04-08T08:12:48.000Z</Time>
            <Position>
              <LatitudeDegrees>28.25473300181329250335693359375</LatitudeDegrees>
              <LongitudeDegrees>-16.6260063461959362030029296875</LongitudeDegrees>
            </Position>
            <AltitudeMeters>2403.800048828125</AltitudeMeters>
            <DistanceMeters>13548.809265686</DistanceMeters>
          </Trackpoint>
          <Trackpoint>
            <Time>2019-04-08T08:12:49.000Z</Time>
            <Position>
              <LatitudeDegrees>28.25471238233149051666259765625</LatitudeDegrees>
              <LongitudeDegrees>-16.625984050333499908447265625</LongitudeDegrees>
            </Position>
            <AltitudeMeters>2401.800048828125</AltitudeMeters>
            <DistanceMeters>13551.979514112</DistanceMeters>
          </Trackpoint>
          <Trackpoint>
            <Time>2019-04-08T08:12:50.000Z</Time>
            <Position>
              <LatitudeDegrees>28.2546968758106231689453125</LatitudeDegrees>
              <LongitudeDegrees>-16.625958569347858428955078125</LongitudeDegrees>
            </Position>
            <AltitudeMeters>2400.39990234375</AltitudeMeters>
            <DistanceMeters>13555.015911327</DistanceMeters>
          </Trackpoint>
          <Trackpoint>
            <Time>2019-04-08T08:12:51.000Z</Time>
            <Position>
              <LatitudeDegrees>28.2546819560229778289794921875</LatitudeDegrees>
              <LongitudeDegrees>-16.6259372793138027191162109375</LongitudeDegrees>
            </Position>
            <AltitudeMeters>2398.60009765625</AltitudeMeters>
            <DistanceMeters>13557.683438317</DistanceMeters>
          </Trackpoint>
          <Trackpoint>
            <Time>2019-04-08T08:12:52.000Z</Time>
            <Position>
              <LatitudeDegrees>28.25466343201696872711181640625</LatitudeDegrees>
              <LongitudeDegrees>-16.6259178332984447479248046875</LongitudeDegrees>
            </Position>
            <AltitudeMeters>2397</AltitudeMeters>
            <DistanceMeters>13560.492759731</DistanceMeters>
          </Trackpoint>
          <Trackpoint>
            <Time>2019-04-08T08:12:53.000Z</Time>
            <Position>
              <LatitudeDegrees>28.25464264489710330963134765625</LatitudeDegrees>
              <LongitudeDegrees>-16.6259064339101314544677734375</LongitudeDegrees>
            </Position>
            <AltitudeMeters>2395.800048828125</AltitudeMeters>
            <DistanceMeters>13563.061998117</DistanceMeters>
          </Trackpoint>
          <Trackpoint>
            <Time>2019-04-08T08:12:54.000Z</Time>
            <Position>
              <LatitudeDegrees>28.25463526882231235504150390625</LatitudeDegrees>
              <LongitudeDegrees>-16.62589411251246929168701171875</LongitudeDegrees>
            </Position>
            <AltitudeMeters>2394.800048828125</AltitudeMeters>
            <DistanceMeters>13564.518730063</DistanceMeters>
          </Trackpoint>
          <Trackpoint>
            <Time>2019-04-08T08:12:55.000Z</Time>
            <Position>
              <LatitudeDegrees>28.2546242885291576385498046875</LatitudeDegrees>
              <LongitudeDegrees>-16.62588288076221942901611328125</LongitudeDegrees>
            </Position>
            <AltitudeMeters>2393.60009765625</AltitudeMeters>
            <DistanceMeters>13566.161895562</DistanceMeters>
          </Trackpoint>
          <Trackpoint>
            <Time>2019-04-08T08:12:57.000Z</Time>
            <Position>
              <LatitudeDegrees>28.254602663218975067138671875</LatitudeDegrees>
              <LongitudeDegrees>-16.6258554719388484954833984375</LongitudeDegrees>
            </Position>
            <AltitudeMeters>2391.800048828125</AltitudeMeters>
            <DistanceMeters>13569.769157703</DistanceMeters>
          </Trackpoint>
          <Trackpoint>
            <Time>2019-04-08T08:12:59.000Z</Time>
            <Position>
              <LatitudeDegrees>28.2545796968042850494384765625</LatitudeDegrees>
              <LongitudeDegrees>-16.62583954632282257080078125</LongitudeDegrees>
            </Position>
            <AltitudeMeters>2390</AltitudeMeters>
            <DistanceMeters>13572.765137674</DistanceMeters>
          </Trackpoint>
          <Trackpoint>
            <Time>2019-04-08T08:13:01.000Z</Time>
            <Position>
              <LatitudeDegrees>28.25455999933183193206787109375</LatitudeDegrees>
              <LongitudeDegrees>-16.625825129449367523193359375</LongitudeDegrees>
            </Position>
            <AltitudeMeters>2388.60009765625</AltitudeMeters>
            <DistanceMeters>13575.374481967</DistanceMeters>
          </Trackpoint>
          <Trackpoint>
            <Time>2019-04-08T08:13:03.000Z</Time>
            <Position>
              <LatitudeDegrees>28.2545547187328338623046875</LatitudeDegrees>
              <LongitudeDegrees>-16.6258024983108043670654296875</LongitudeDegrees>
            </Position>
            <AltitudeMeters>2387.800048828125</AltitudeMeters>
            <DistanceMeters>13577.668939325</DistanceMeters>
          </Trackpoint>
          <Trackpoint>
            <Time>2019-04-08T08:13:04.000Z</Time>
            <Position>
              <LatitudeDegrees>28.25455245561897754669189453125</LatitudeDegrees>
              <LongitudeDegrees>-16.6257994808256626129150390625</LongitudeDegrees>
            </Position>
            <AltitudeMeters>2387.39990234375</AltitudeMeters>
            <DistanceMeters>13578.049046182</DistanceMeters>
          </Trackpoint>
          <Trackpoint>
            <Time>2019-04-08T08:13:09.000Z</Time>
            <Position>
              <LatitudeDegrees>28.25455295853316783905029296875</LatitudeDegrees>
              <LongitudeDegrees>-16.6257743351161479949951171875</LongitudeDegrees>
            </Position>
            <AltitudeMeters>2386.199951171875</AltitudeMeters>
            <DistanceMeters>13580.516083175</DistanceMeters>
          </Trackpoint>
          <Trackpoint>
            <Time>2019-04-08T08:13:12.000Z</Time>
            <Position>
              <LatitudeDegrees>28.254548348486423492431640625</LatitudeDegrees>
              <LongitudeDegrees>-16.625754050910472869873046875</LongitudeDegrees>
            </Position>
            <AltitudeMeters>2385.60009765625</AltitudeMeters>
            <DistanceMeters>13582.571825322</DistanceMeters>
          </Trackpoint>
          <Trackpoint>
            <Time>2019-04-08T08:13:16.000Z</Time>
            <Position>
              <LatitudeDegrees>28.2545555569231510162353515625</LatitudeDegrees>
              <LongitudeDegrees>-16.62573720328509807586669921875</LongitudeDegrees>
            </Position>
            <AltitudeMeters>2385.199951171875</AltitudeMeters>
            <DistanceMeters>13584.407096014</DistanceMeters>
          </Trackpoint>
          <Trackpoint>
            <Time>2019-04-08T08:13:22.000Z</Time>
            <Position>
              <LatitudeDegrees>28.2545522041618824005126953125</LatitudeDegrees>
              <LongitudeDegrees>-16.6257307492196559906005859375</LongitudeDegrees>
            </Position>
            <AltitudeMeters>2384.39990234375</AltitudeMeters>
            <DistanceMeters>13585.137010057</DistanceMeters>
          </Trackpoint>
          <Trackpoint>
            <Time>2019-04-08T08:13:32.000Z</Time>
            <Position>
              <LatitudeDegrees>28.254539966583251953125</LatitudeDegrees>
              <LongitudeDegrees>-16.625715158879756927490234375</LongitudeDegrees>
            </Position>
            <AltitudeMeters>2383.60009765625</AltitudeMeters>
            <DistanceMeters>13587.183948129</DistanceMeters>
          </Trackpoint>
          <Trackpoint>
            <Time>2019-04-08T08:13:34.000Z</Time>
            <Position>
              <LatitudeDegrees>28.25453460216522216796875</LatitudeDegrees>
              <LongitudeDegrees>-16.6257086209952831268310546875</LongitudeDegrees>
            </Position>
            <AltitudeMeters>2383.39990234375</AltitudeMeters>
            <DistanceMeters>13588.060051147</DistanceMeters>
          </Trackpoint>
          <Trackpoint>
            <Time>2019-04-08T08:13:43.000Z</Time>
            <Position>
              <LatitudeDegrees>28.254525549709796905517578125</LatitudeDegrees>
              <LongitudeDegrees>-16.6256911866366863250732421875</LongitudeDegrees>
            </Position>
            <AltitudeMeters>2382.60009765625</AltitudeMeters>
            <DistanceMeters>13590.044267196</DistanceMeters>
          </Trackpoint>
          <Trackpoint>
            <Time>2019-04-08T08:13:44.000Z</Time>
            <Position>
              <LatitudeDegrees>28.25452412478625774383544921875</LatitudeDegrees>
              <LongitudeDegrees>-16.62568942643702030181884765625</LongitudeDegrees>
            </Position>
            <AltitudeMeters>2382.60009765625</AltitudeMeters>
            <DistanceMeters>13590.277034158</DistanceMeters>
          </Trackpoint>
          <Trackpoint>
            <Time>2019-04-08T08:13:51.000Z</Time>
            <Position>
              <LatitudeDegrees>28.25452144257724285125732421875</LatitudeDegrees>
              <LongitudeDegrees>-16.6256740875542163848876953125</LongitudeDegrees>
            </Position>
            <AltitudeMeters>2381.39990234375</AltitudeMeters>
            <DistanceMeters>13591.809293887</DistanceMeters>
          </Trackpoint>
          <Trackpoint>
            <Time>2019-04-08T08:13:58.000Z</Time>
            <Position>
              <LatitudeDegrees>28.254518844187259674072265625</LatitudeDegrees>
              <LongitudeDegrees>-16.62566662766039371490478515625</LongitudeDegrees>
            </Position>
            <AltitudeMeters>2380.39990234375</AltitudeMeters>
            <DistanceMeters>13592.59864506</DistanceMeters>
          </Trackpoint>
          <Trackpoint>
            <Time>2019-04-08T08:14:04.000Z</Time>
            <Position>
              <LatitudeDegrees>28.254515826702117919921875</LatitudeDegrees>
              <LongitudeDegrees>-16.62566210143268108367919921875</LongitudeDegrees>
            </Position>
            <AltitudeMeters>2380</AltitudeMeters>
            <DistanceMeters>13593.15274126</DistanceMeters>
          </Trackpoint>
          <Trackpoint>
            <Time>2019-04-08T08:14:07.000Z</Time>
            <Position>
              <LatitudeDegrees>28.25450853444635868072509765625</LatitudeDegrees>
              <LongitudeDegrees>-16.6256519593298435211181640625</LongitudeDegrees>
            </Position>
            <AltitudeMeters>2380</AltitudeMeters>
            <DistanceMeters>13594.434721725</DistanceMeters>
          </Trackpoint>
          <Trackpoint>
            <Time>2019-04-08T08:14:13.000Z</Time>
            <Position>
              <LatitudeDegrees>28.2545092888176441192626953125</LatitudeDegrees>
              <LongitudeDegrees>-16.62565489299595355987548828125</LongitudeDegrees>
            </Position>
            <AltitudeMeters>2379.60009765625</AltitudeMeters>
            <DistanceMeters>13594.735222581</DistanceMeters>
          </Trackpoint>
          <Trackpoint>
            <Time>2019-04-08T08:14:18.000Z</Time>
            <Position>
              <LatitudeDegrees>28.254498727619647979736328125</LatitudeDegrees>
              <LongitudeDegrees>-16.625646091997623443603515625</LongitudeDegrees>
            </Position>
            <AltitudeMeters>2378.39990234375</AltitudeMeters>
            <DistanceMeters>13596.195050667</DistanceMeters>
          </Trackpoint>
          <Trackpoint>
            <Time>2019-04-08T08:14:26.000Z</Time>
            <Position>
              <LatitudeDegrees>28.25449093244969844818115234375</LatitudeDegrees>
              <LongitudeDegrees>-16.625627987086772918701171875</LongitudeDegrees>
            </Position>
            <AltitudeMeters>2378.199951171875</AltitudeMeters>
            <DistanceMeters>13598.172428502</DistanceMeters>
          </Trackpoint>
          <Trackpoint>
            <Time>2019-04-08T08:14:37.000Z</Time>
            <Position>
              <LatitudeDegrees>28.254498057067394256591796875</LatitudeDegrees>
              <LongitudeDegrees>-16.625593118369579315185546875</LongitudeDegrees>
            </Position>
            <AltitudeMeters>2378.39990234375</AltitudeMeters>
            <DistanceMeters>13601.681990336</DistanceMeters>
          </Trackpoint>
          <Trackpoint>
            <Time>2019-04-08T08:14:57.000Z</Time>
            <Position>
              <LatitudeDegrees>28.25432002544403076171875</LatitudeDegrees>
              <LongitudeDegrees>-16.625560931861400604248046875</LongitudeDegrees>
            </Position>
            <AltitudeMeters>2379.199951171875</AltitudeMeters>
            <DistanceMeters>13621.747033527</DistanceMeters>
          </Trackpoint>
          <Trackpoint>
            <Time>2019-04-08T08:15:15.000Z</Time>
            <Position>
              <LatitudeDegrees>28.25427736155688762664794921875</LatitudeDegrees>
              <LongitudeDegrees>-16.62585966289043426513671875</LongitudeDegrees>
            </Position>
            <AltitudeMeters>2379.800048828125</AltitudeMeters>
            <DistanceMeters>13651.417289548</DistanceMeters>
          </Trackpoint>
          <Trackpoint>
            <Time>2019-04-08T08:15:33.000Z</Time>
            <Position>
              <LatitudeDegrees>28.254344500601291656494140625</LatitudeDegrees>
              <LongitudeDegrees>-16.62578321993350982666015625</LongitudeDegrees>
            </Position>
            <AltitudeMeters>2379</AltitudeMeters>
            <DistanceMeters>13662.000723217</DistanceMeters>
          </Trackpoint>
          <Trackpoint>
            <Time>2019-04-08T08:16:15.000Z</Time>
            <Position>
              <LatitudeDegrees>28.2544519565999507904052734375</LatitudeDegrees>
              <LongitudeDegrees>-16.62588137201964855194091796875</LongitudeDegrees>
            </Position>
            <AltitudeMeters>2378.39990234375</AltitudeMeters>
            <DistanceMeters>13677.351288184</DistanceMeters>
          </Trackpoint>
          <Trackpoint>
            <Time>2019-04-08T08:18:16.000Z</Time>
            <Position>
              <LatitudeDegrees>28.25449948199093341827392578125</LatitudeDegrees>
              <LongitudeDegrees>-16.6260308213531970977783203125</LongitudeDegrees>
            </Position>
            <AltitudeMeters>2378.800048828125</AltitudeMeters>
            <DistanceMeters>13692.929004457</DistanceMeters>
          </Trackpoint>
          <Trackpoint>
            <Time>2019-04-08T08:18:26.000Z</Time>
            <Position>
              <LatitudeDegrees>28.254456482827663421630859375</LatitudeDegrees>
              <LongitudeDegrees>-16.6259654425084590911865234375</LongitudeDegrees>
            </Position>
            <AltitudeMeters>2378.800048828125</AltitudeMeters>
            <DistanceMeters>13700.928763938</DistanceMeters>
          </Trackpoint>
          <Trackpoint>
            <Time>2019-04-08T08:20:30.000Z</Time>
            <Position>
              <LatitudeDegrees>28.25470500625669956207275390625</LatitudeDegrees>
              <LongitudeDegrees>-16.62592328153550624847412109375</LongitudeDegrees>
            </Position>
            <AltitudeMeters>2377.800048828125</AltitudeMeters>
            <DistanceMeters>13728.897145585</DistanceMeters>
          </Trackpoint>
          <Trackpoint>
            <Time>2019-04-08T08:20:53.000Z</Time>
            <Position>
              <LatitudeDegrees>28.25466460548341274261474609375</LatitudeDegrees>
              <LongitudeDegrees>-16.62580777890980243682861328125</LongitudeDegrees>
            </Position>
            <AltitudeMeters>2378</AltitudeMeters>
            <DistanceMeters>13741.081334386</DistanceMeters>
          </Trackpoint>
          <Trackpoint>
            <Time>2019-04-08T08:21:03.000Z</Time>
            <Position>
              <LatitudeDegrees>28.25466938316822052001953125</LatitudeDegrees>
              <LongitudeDegrees>-16.62577190436422824859619140625</LongitudeDegrees>
            </Position>
            <AltitudeMeters>2377.60009765625</AltitudeMeters>
            <DistanceMeters>13744.636908464</DistanceMeters>
          </Trackpoint>
          <Trackpoint>
            <Time>2019-04-08T08:21:06.000Z</Time>
            <Position>
              <LatitudeDegrees>28.25467265211045742034912109375</LatitudeDegrees>
              <LongitudeDegrees>-16.62575765512883663177490234375</LongitudeDegrees>
            </Position>
            <AltitudeMeters>2377.39990234375</AltitudeMeters>
            <DistanceMeters>13746.078059941</DistanceMeters>
          </Trackpoint>
          <Trackpoint>
            <Time>2019-04-08T08:21:12.000Z</Time>
            <Position>
              <LatitudeDegrees>28.254679776728153228759765625</LatitudeDegrees>
              <LongitudeDegrees>-16.6257114708423614501953125</LongitudeDegrees>
            </Position>
            <AltitudeMeters>2376.800048828125</AltitudeMeters>
            <DistanceMeters>13750.673856804</DistanceMeters>
          </Trackpoint>
          <Trackpoint>
            <Time>2019-04-08T08:21:18.000Z</Time>
            <Position>
              <LatitudeDegrees>28.2546943612396717071533203125</LatitudeDegrees>
              <LongitudeDegrees>-16.62566159851849079132080078125</LongitudeDegrees>
            </Position>
            <AltitudeMeters>2376.60009765625</AltitudeMeters>
            <DistanceMeters>13755.825496802</DistanceMeters>
          </Trackpoint>
          <Trackpoint>
            <Time>2019-04-08T08:21:24.000Z</Time>
            <Position>
              <LatitudeDegrees>28.2547319121658802032470703125</LatitudeDegrees>
              <LongitudeDegrees>-16.62562924437224864959716796875</LongitudeDegrees>
            </Position>
            <AltitudeMeters>2376.60009765625</AltitudeMeters>
            <DistanceMeters>13761.071797689</DistanceMeters>
          </Trackpoint>
          <Trackpoint>
            <Time>2019-04-08T08:21:26.000Z</Time>
            <Position>
              <LatitudeDegrees>28.25475110672414302825927734375</LatitudeDegrees>
              <LongitudeDegrees>-16.625625304877758026123046875</LongitudeDegrees>
            </Position>
            <AltitudeMeters>2376.60009765625</AltitudeMeters>
            <DistanceMeters>13763.240822776</DistanceMeters>
          </Trackpoint>
          <Trackpoint>
            <Time>2019-04-08T08:21:28.000Z</Time>
            <Position>
              <LatitudeDegrees>28.254767619073390960693359375</LatitudeDegrees>
              <LongitudeDegrees>-16.62561784498393535614013671875</LongitudeDegrees>
            </Position>
            <AltitudeMeters>2376.39990234375</AltitudeMeters>
            <DistanceMeters>13765.215915945</DistanceMeters>
          </Trackpoint>
          <Trackpoint>
            <Time>2019-04-08T08:21:36.000Z</Time>
            <Position>
              <LatitudeDegrees>28.25482419691979885101318359375</LatitudeDegrees>
              <LongitudeDegrees>-16.6255802102386951446533203125</LongitudeDegrees>
            </Position>
            <AltitudeMeters>2376.199951171875</AltitudeMeters>
            <DistanceMeters>13772.515056375</DistanceMeters>
          </Trackpoint>
          <Trackpoint>
            <Time>2019-04-08T08:21:45.000Z</Time>
            <Position>
              <LatitudeDegrees>28.25488572008907794952392578125</LatitudeDegrees>
              <LongitudeDegrees>-16.62553888745605945587158203125</LongitudeDegrees>
            </Position>
            <AltitudeMeters>2376.39990234375</AltitudeMeters>
            <DistanceMeters>13780.471806085</DistanceMeters>
          </Trackpoint>
          <Trackpoint>
            <Time>2019-04-08T08:21:54.000Z</Time>
            <Position>
              <LatitudeDegrees>28.25498512946069240570068359375</LatitudeDegrees>
              <LongitudeDegrees>-16.6255108080804347991943359375</LongitudeDegrees>
            </Position>
            <AltitudeMeters>2376</AltitudeMeters>
            <DistanceMeters>13791.873427921</DistanceMeters>
          </Trackpoint>
          <Trackpoint>
            <Time>2019-04-08T08:21:57.000Z</Time>
            <Position>
              <LatitudeDegrees>28.2550132088363170623779296875</LatitudeDegrees>
              <LongitudeDegrees>-16.62549999542534351348876953125</LongitudeDegrees>
            </Position>
            <AltitudeMeters>2375.800048828125</AltitudeMeters>
            <DistanceMeters>13795.172100702</DistanceMeters>
          </Trackpoint>
          <Trackpoint>
            <Time>2019-04-08T08:21:59.000Z</Time>
            <Position>
              <LatitudeDegrees>28.255031816661357879638671875</LatitudeDegrees>
              <LongitudeDegrees>-16.625489182770252227783203125</LongitudeDegrees>
            </Position>
            <AltitudeMeters>2375.39990234375</AltitudeMeters>
            <DistanceMeters>13797.495887635</DistanceMeters>
          </Trackpoint>
          <Trackpoint>
            <Time>2019-04-08T08:22:02.000Z</Time>
            <Position>
              <LatitudeDegrees>28.255059309303760528564453125</LatitudeDegrees>
              <LongitudeDegrees>-16.62547342479228973388671875</LongitudeDegrees>
            </Position>
            <AltitudeMeters>2374.800048828125</AltitudeMeters>
            <DistanceMeters>13800.924759101</DistanceMeters>
          </Trackpoint>
          <Trackpoint>
            <Time>2019-04-08T08:22:04.000Z</Time>
            <Position>
              <LatitudeDegrees>28.255078084766864776611328125</LatitudeDegrees>
              <LongitudeDegrees>-16.62546277977526187896728515625</LongitudeDegrees>
            </Position>
            <AltitudeMeters>2374.60009765625</AltitudeMeters>
            <DistanceMeters>13803.260174733</DistanceMeters>
          </Trackpoint>
          <Trackpoint>
            <Time>2019-04-08T08:22:10.000Z</Time>
            <Position>
              <LatitudeDegrees>28.25514681637287139892578125</LatitudeDegrees>
              <LongitudeDegrees>-16.62545624189078807830810546875</LongitudeDegrees>
            </Position>
            <AltitudeMeters>2374.199951171875</AltitudeMeters>
            <DistanceMeters>13810.937956901</DistanceMeters>
          </Trackpoint>
          <Trackpoint>
            <Time>2019-04-08T08:22:13.000Z</Time>
            <Position>
              <LatitudeDegrees>28.2551743090152740478515625</LatitudeDegrees>
              <LongitudeDegrees>-16.625439561903476715087890625</LongitudeDegrees>
            </Position>
            <AltitudeMeters>2373.800048828125</AltitudeMeters>
            <DistanceMeters>13814.40740814</DistanceMeters>
          </Trackpoint>
          <Trackpoint>
            <Time>2019-04-08T08:22:17.000Z</Time>
            <Position>
              <LatitudeDegrees>28.25521144084632396697998046875</LatitudeDegrees>
              <LongitudeDegrees>-16.62541248835623264312744140625</LongitudeDegrees>
            </Position>
            <AltitudeMeters>2373.60009765625</AltitudeMeters>
            <DistanceMeters>13819.320390364</DistanceMeters>
          </Trackpoint>
          <Trackpoint>
            <Time>2019-04-08T08:22:19.000Z</Time>
            <Position>
              <LatitudeDegrees>28.25522996485233306884765625</LatitudeDegrees>
              <LongitudeDegrees>-16.625399328768253326416015625</LongitudeDegrees>
            </Position>
            <AltitudeMeters>2373.199951171875</AltitudeMeters>
            <DistanceMeters>13821.756116175</DistanceMeters>
          </Trackpoint>
          <Trackpoint>
            <Time>2019-04-08T08:22:22.000Z</Time>
            <Position>
              <LatitudeDegrees>28.2552566193044185638427734375</LatitudeDegrees>
              <LongitudeDegrees>-16.62538482807576656341552734375</LongitudeDegrees>
            </Position>
            <AltitudeMeters>2373.39990234375</AltitudeMeters>
            <DistanceMeters>13825.045193793</DistanceMeters>
          </Trackpoint>
          <Trackpoint>
            <Time>2019-04-08T08:22:24.000Z</Time>
            <Position>
              <LatitudeDegrees>28.2552693597972393035888671875</LatitudeDegrees>
              <LongitudeDegrees>-16.62537426687777042388916015625</LongitudeDegrees>
            </Position>
            <AltitudeMeters>2373.39990234375</AltitudeMeters>
            <DistanceMeters>13826.79997471</DistanceMeters>
          </Trackpoint>
          <Trackpoint>
            <Time>2019-04-08T08:22:26.000Z</Time>
            <Position>
              <LatitudeDegrees>28.255279920995235443115234375</LatitudeDegrees>
              <LongitudeDegrees>-16.62536873482167720794677734375</LongitudeDegrees>
            </Position>
            <AltitudeMeters>2373.39990234375</AltitudeMeters>
            <DistanceMeters>13828.095966307</DistanceMeters>
          </Trackpoint>
          <Trackpoint>
            <Time>2019-04-08T08:22:28.000Z</Time>
            <Position>
              <LatitudeDegrees>28.25529031455516815185546875</LatitudeDegrees>
              <LongitudeDegrees>-16.62536353804171085357666015625</LongitudeDegrees>
            </Position>
            <AltitudeMeters>2373</AltitudeMeters>
            <DistanceMeters>13829.360214515</DistanceMeters>
          </Trackpoint>
          <Trackpoint>
            <Time>2019-04-08T08:22:36.000Z</Time>
            <Position>
              <LatitudeDegrees>28.255313448607921600341796875</LatitudeDegrees>
              <LongitudeDegrees>-16.62532590329647064208984375</LongitudeDegrees>
            </Position>
            <AltitudeMeters>2372.39990234375</AltitudeMeters>
            <DistanceMeters>13833.859706862</DistanceMeters>
          </Trackpoint>
          <Trackpoint>
            <Time>2019-04-08T08:22:39.000Z</Time>
            <Position>
              <LatitudeDegrees>28.2553270272910594940185546875</LatitudeDegrees>
              <LongitudeDegrees>-16.62530788220465183258056640625</LongitudeDegrees>
            </Position>
            <AltitudeMeters>2372</AltitudeMeters>
            <DistanceMeters>13836.18543595</DistanceMeters>
          </Trackpoint>
          <Trackpoint>
            <Time>2019-04-08T08:22:45.000Z</Time>
            <Position>
              <LatitudeDegrees>28.2553779892623424530029296875</LatitudeDegrees>
              <LongitudeDegrees>-16.6252576746046543121337890625</LongitudeDegrees>
            </Position>
            <AltitudeMeters>2371</AltitudeMeters>
            <DistanceMeters>13843.695552958</DistanceMeters>
          </Trackpoint>
          <Trackpoint>
            <Time>2019-04-08T08:22:46.000Z</Time>
            <Position>
              <LatitudeDegrees>28.25537807308137416839599609375</LatitudeDegrees>
              <LongitudeDegrees>-16.6252486221492290496826171875</LongitudeDegrees>
            </Position>
            <AltitudeMeters>2371</AltitudeMeters>
            <DistanceMeters>13844.586982555</DistanceMeters>
          </Trackpoint>
          <Trackpoint>
            <Time>2019-04-08T08:22:55.000Z</Time>
            <Position>
              <LatitudeDegrees>28.2554148696362972259521484375</LatitudeDegrees>
              <LongitudeDegrees>-16.625160276889801025390625</LongitudeDegrees>
            </Position>
            <AltitudeMeters>2370.199951171875</AltitudeMeters>
            <DistanceMeters>13854.168201535</DistanceMeters>
          </Trackpoint>
          <Trackpoint>
            <Time>2019-04-08T08:22:56.000Z</Time>
            <Position>
              <LatitudeDegrees>28.25542065314948558807373046875</LatitudeDegrees>
              <LongitudeDegrees>-16.62515097297728061676025390625</LongitudeDegrees>
            </Position>
            <AltitudeMeters>2370</AltitudeMeters>
            <DistanceMeters>13855.284512669</DistanceMeters>
          </Trackpoint>
          <Trackpoint>
            <Time>2019-04-08T08:23:06.000Z</Time>
            <Position>
              <LatitudeDegrees>28.2554929889738559722900390625</LatitudeDegrees>
              <LongitudeDegrees>-16.625052653253078460693359375</LongitudeDegrees>
            </Position>
            <AltitudeMeters>2369.199951171875</AltitudeMeters>
            <DistanceMeters>13867.843866766</DistanceMeters>
          </Trackpoint>
          <Trackpoint>
            <Time>2019-04-08T08:23:14.000Z</Time>
            <Position>
              <LatitudeDegrees>28.25554621405899524688720703125</LatitudeDegrees>
              <LongitudeDegrees>-16.62496472708880901336669921875</LongitudeDegrees>
            </Position>
            <AltitudeMeters>2368.199951171875</AltitudeMeters>
            <DistanceMeters>13878.303282434</DistanceMeters>
          </Trackpoint>
          <Trackpoint>
            <Time>2019-04-08T08:23:16.000Z</Time>
            <Position>
              <LatitudeDegrees>28.25555593706667423248291015625</LatitudeDegrees>
              <LongitudeDegrees>-16.62494075484573841094970703125</LongitudeDegrees>
            </Position>
            <AltitudeMeters>2367.800048828125</AltitudeMeters>
            <DistanceMeters>13880.88828854</DistanceMeters>
          </Trackpoint>
          <Trackpoint>
            <Time>2019-04-08T08:23:18.000Z</Time>
            <Position>
              <LatitudeDegrees>28.255568929016590118408203125</LatitudeDegrees>
              <LongitudeDegrees>-16.624921895563602447509765625</LongitudeDegrees>
            </Position>
            <AltitudeMeters>2367.199951171875</AltitudeMeters>
            <DistanceMeters>13883.235275253</DistanceMeters>
          </Trackpoint>
          <Trackpoint>
            <Time>2019-04-08T08:23:25.000Z</Time>
            <Position>
              <LatitudeDegrees>28.25561477802693843841552734375</LatitudeDegrees>
              <LongitudeDegrees>-16.6248737834393978118896484375</LongitudeDegrees>
            </Position>
            <AltitudeMeters>2366.199951171875</AltitudeMeters>
            <DistanceMeters>13890.184580889</DistanceMeters>
          </Trackpoint>
          <Trackpoint>
            <Time>2019-04-08T08:23:27.000Z</Time>
            <Position>
              <LatitudeDegrees>28.2556277699768543243408203125</LatitudeDegrees>
              <LongitudeDegrees>-16.6248610429465770721435546875</LongitudeDegrees>
            </Position>
            <AltitudeMeters>2366</AltitudeMeters>
            <DistanceMeters>13892.094594209</DistanceMeters>
          </Trackpoint>
          <Trackpoint>
            <Time>2019-04-08T08:23:34.000Z</Time>
            <Position>
              <LatitudeDegrees>28.25567563064396381378173828125</LatitudeDegrees>
              <LongitudeDegrees>-16.62478166632354259490966796875</LongitudeDegrees>
            </Position>
            <AltitudeMeters>2365.39990234375</AltitudeMeters>
            <DistanceMeters>13901.525726324</DistanceMeters>
          </Trackpoint>
          <Trackpoint>
            <Time>2019-04-08T08:23:38.000Z</Time>
            <Position>
              <LatitudeDegrees>28.255708403885364532470703125</LatitudeDegrees>
              <LongitudeDegrees>-16.62472835741937160491943359375</LongitudeDegrees>
            </Position>
            <AltitudeMeters>2365.199951171875</AltitudeMeters>
            <DistanceMeters>13907.899603788</DistanceMeters>
          </Trackpoint>
          <Trackpoint>
            <Time>2019-04-08T08:23:43.000Z</Time>
            <Position>
              <LatitudeDegrees>28.25574419461190700531005859375</LatitudeDegrees>
              <LongitudeDegrees>-16.624663062393665313720703125</LongitudeDegrees>
            </Position>
            <AltitudeMeters>2364.800048828125</AltitudeMeters>
            <DistanceMeters>13915.439720584</DistanceMeters>
          </Trackpoint>
          <Trackpoint>
            <Time>2019-04-08T08:23:45.000Z</Time>
            <Position>
              <LatitudeDegrees>28.25575609691441059112548828125</LatitudeDegrees>
              <LongitudeDegrees>-16.6246370784938335418701171875</LongitudeDegrees>
            </Position>
            <AltitudeMeters>2364.60009765625</AltitudeMeters>
            <DistanceMeters>13918.309464425</DistanceMeters>
          </Trackpoint>
          <Trackpoint>
            <Time>2019-04-08T08:23:47.000Z</Time>
            <Position>
              <LatitudeDegrees>28.25576917268335819244384765625</LatitudeDegrees>
              <LongitudeDegrees>-16.624614112079143524169921875</LongitudeDegrees>
            </Position>
            <AltitudeMeters>2364.39990234375</AltitudeMeters>
            <DistanceMeters>13920.990497966</DistanceMeters>
          </Trackpoint>
          <Trackpoint>
            <Time>2019-04-08T08:23:52.000Z</Time>
            <Position>
              <LatitudeDegrees>28.2558011077344417572021484375</LatitudeDegrees>
              <LongitudeDegrees>-16.624549068510532379150390625</LongitudeDegrees>
            </Position>
            <AltitudeMeters>2363.800048828125</AltitudeMeters>
            <DistanceMeters>13928.290875434</DistanceMeters>
          </Trackpoint>
          <Trackpoint>
            <Time>2019-04-08T08:23:53.000Z</Time>
            <Position>
              <LatitudeDegrees>28.25580756179988384246826171875</LatitudeDegrees>
              <LongitudeDegrees>-16.62453423254191875457763671875</LongitudeDegrees>
            </Position>
            <AltitudeMeters>2363.60009765625</AltitudeMeters>
            <DistanceMeters>13929.914692641</DistanceMeters>
          </Trackpoint>
          <Trackpoint>
            <Time>2019-04-08T08:24:00.000Z</Time>
            <Position>
              <LatitudeDegrees>28.25585198588669300079345703125</LatitudeDegrees>
              <LongitudeDegrees>-16.624458543956279754638671875</LongitudeDegrees>
            </Position>
            <AltitudeMeters>2363</AltitudeMeters>
            <DistanceMeters>13938.832027062</DistanceMeters>
          </Trackpoint>
          <Trackpoint>
            <Time>2019-04-08T08:24:01.000Z</Time>
            <Position>
              <LatitudeDegrees>28.2558587752282619476318359375</LatitudeDegrees>
              <LongitudeDegrees>-16.62444789893925189971923828125</LongitudeDegrees>
            </Position>
            <AltitudeMeters>2362.800048828125</AltitudeMeters>
            <DistanceMeters>13940.117524626</DistanceMeters>
          </Trackpoint>
          <Trackpoint>
            <Time>2019-04-08T08:24:07.000Z</Time>
            <Position>
              <LatitudeDegrees>28.25589247047901153564453125</LatitudeDegrees>
              <LongitudeDegrees>-16.6243757307529449462890625</LongitudeDegrees>
            </Position>
            <AltitudeMeters>2362</AltitudeMeters>
            <DistanceMeters>13948.125181764</DistanceMeters>
          </Trackpoint>
          <Trackpoint>
            <Time>2019-04-08T08:24:08.000Z</Time>
            <Position>
              <LatitudeDegrees>28.255897499620914459228515625</LatitudeDegrees>
              <LongitudeDegrees>-16.6243623197078704833984375</LongitudeDegrees>
            </Position>
            <AltitudeMeters>2361.800048828125</AltitudeMeters>
            <DistanceMeters>13949.560053685</DistanceMeters>
          </Trackpoint>
          <Trackpoint>
            <Time>2019-04-08T08:24:16.000Z</Time>
            <Position>
              <LatitudeDegrees>28.25593831948935985565185546875</LatitudeDegrees>
              <LongitudeDegrees>-16.624275147914886474609375</LongitudeDegrees>
            </Position>
            <AltitudeMeters>2361</AltitudeMeters>
            <DistanceMeters>13959.239260424</DistanceMeters>
          </Trackpoint>
          <Trackpoint>
            <Time>2019-04-08T08:24:21.000Z</Time>
            <Position>
              <LatitudeDegrees>28.25597385875880718231201171875</LatitudeDegrees>
              <LongitudeDegrees>-16.62422024644911289215087890625</LongitudeDegrees>
            </Position>
            <AltitudeMeters>2360.199951171875</AltitudeMeters>
            <DistanceMeters>13965.918225736</DistanceMeters>
          </Trackpoint>
          <Trackpoint>
            <Time>2019-04-08T08:24:23.000Z</Time>
            <Position>
              <LatitudeDegrees>28.2559858448803424835205078125</LatitudeDegrees>
              <LongitudeDegrees>-16.6241971962153911590576171875</LongitudeDegrees>
            </Position>
            <AltitudeMeters>2360.199951171875</AltitudeMeters>
            <DistanceMeters>13968.543096842</DistanceMeters>
          </Trackpoint>
          <Trackpoint>
            <Time>2019-04-08T08:24:25.000Z</Time>
            <Position>
              <LatitudeDegrees>28.25599716044962406158447265625</LatitudeDegrees>
              <LongitudeDegrees>-16.6241740621626377105712890625</LongitudeDegrees>
            </Position>
            <AltitudeMeters>2360.199951171875</AltitudeMeters>
            <DistanceMeters>13971.136821375</DistanceMeters>
          </Trackpoint>
          <Trackpoint>
            <Time>2019-04-08T08:24:32.000Z</Time>
            <Position>
              <LatitudeDegrees>28.256033957004547119140625</LatitudeDegrees>
              <LongitudeDegrees>-16.62409334443509578704833984375</LongitudeDegrees>
            </Position>
            <AltitudeMeters>2359.800048828125</AltitudeMeters>
            <DistanceMeters>13980.047064475</DistanceMeters>
          </Trackpoint>
          <Trackpoint>
            <Time>2019-04-08T08:24:35.000Z</Time>
            <Position>
              <LatitudeDegrees>28.2560502178966999053955078125</LatitudeDegrees>
              <LongitudeDegrees>-16.6240550391376018524169921875</LongitudeDegrees>
            </Position>
            <AltitudeMeters>2359.39990234375</AltitudeMeters>
            <DistanceMeters>13984.216344647</DistanceMeters>
          </Trackpoint>
          <Trackpoint>
            <Time>2019-04-08T08:24:40.000Z</Time>
            <Position>
              <LatitudeDegrees>28.25608332641422748565673828125</LatitudeDegrees>
              <LongitudeDegrees>-16.623996533453464508056640625</LongitudeDegrees>
            </Position>
            <AltitudeMeters>2358.800048828125</AltitudeMeters>
            <DistanceMeters>13991.034470015</DistanceMeters>
          </Trackpoint>
          <Trackpoint>
            <Time>2019-04-08T08:24:43.000Z</Time>
            <Position>
              <LatitudeDegrees>28.25610302388668060302734375</LatitudeDegrees>
              <LongitudeDegrees>-16.62396443076431751251220703125</LongitudeDegrees>
            </Position>
            <AltitudeMeters>2358.39990234375</AltitudeMeters>
            <DistanceMeters>13994.871008116</DistanceMeters>
          </Trackpoint>
          <Trackpoint>
            <Time>2019-04-08T08:24:49.000Z</Time>
            <Position>
              <LatitudeDegrees>28.25613613240420818328857421875</LatitudeDegrees>
              <LongitudeDegrees>-16.62390190176665782928466796875</LongitudeDegrees>
            </Position>
            <AltitudeMeters>2357.800048828125</AltitudeMeters>
            <DistanceMeters>14002.023938504</DistanceMeters>
          </Trackpoint>
          <Trackpoint>
            <Time>2019-04-08T08:24:51.000Z</Time>
            <Position>
              <LatitudeDegrees>28.25615038163959980010986328125</LatitudeDegrees>
              <LongitudeDegrees>-16.62387809716165065765380859375</LongitudeDegrees>
            </Position>
            <AltitudeMeters>2357.39990234375</AltitudeMeters>
            <DistanceMeters>14004.844487626</DistanceMeters>
          </Trackpoint>
          <Trackpoint>
            <Time>2019-04-08T08:24:57.000Z</Time>
            <Position>
              <LatitudeDegrees>28.2561881840229034423828125</LatitudeDegrees>
              <LongitudeDegrees>-16.62382009439170360565185546875</LongitudeDegrees>
            </Position>
            <AltitudeMeters>2356.60009765625</AltitudeMeters>
            <DistanceMeters>14011.918714343</DistanceMeters>
          </Trackpoint>
          <Trackpoint>
            <Time>2019-04-08T08:24:58.000Z</Time>
            <Position>
              <LatitudeDegrees>28.25619396753609180450439453125</LatitudeDegrees>
              <LongitudeDegrees>-16.62380668334662914276123046875</LongitudeDegrees>
            </Position>
            <AltitudeMeters>2356.39990234375</AltitudeMeters>
            <DistanceMeters>14013.384715091</DistanceMeters>
          </Trackpoint>
          <Trackpoint>
            <Time>2019-04-08T08:25:03.000Z</Time>
            <Position>
              <LatitudeDegrees>28.256223388016223907470703125</LatitudeDegrees>
              <LongitudeDegrees>-16.62375974468886852264404296875</LongitudeDegrees>
            </Position>
            <AltitudeMeters>2356</AltitudeMeters>
            <DistanceMeters>14019.032212767</DistanceMeters>
          </Trackpoint>
          <Trackpoint>
            <Time>2019-04-08T08:25:07.000Z</Time>
            <Position>
              <LatitudeDegrees>28.25624040327966213226318359375</LatitudeDegrees>
              <LongitudeDegrees>-16.623712219297885894775390625</LongitudeDegrees>
            </Position>
            <AltitudeMeters>2355.39990234375</AltitudeMeters>
            <DistanceMeters>14024.062349365</DistanceMeters>
          </Trackpoint>
          <Trackpoint>
            <Time>2019-04-08T08:25:10.000Z</Time>
            <Position>
              <LatitudeDegrees>28.2562520541250705718994140625</LatitudeDegrees>
              <LongitudeDegrees>-16.6236771829426288604736328125</LongitudeDegrees>
            </Position>
            <AltitudeMeters>2354.800048828125</AltitudeMeters>
            <DistanceMeters>14027.735350074</DistanceMeters>
          </Trackpoint>
          <Trackpoint>
            <Time>2019-04-08T08:25:12.000Z</Time>
            <Position>
              <LatitudeDegrees>28.25625515542924404144287109375</LatitudeDegrees>
              <LongitudeDegrees>-16.62365094758570194244384765625</LongitudeDegrees>
            </Position>
            <AltitudeMeters>2354.60009765625</AltitudeMeters>
            <DistanceMeters>14030.329074607</DistanceMeters>
          </Trackpoint>
          <Trackpoint>
            <Time>2019-04-08T08:25:17.000Z</Time>
            <Position>
              <LatitudeDegrees>28.25626471079885959625244140625</LatitudeDegrees>
              <LongitudeDegrees>-16.623579449951648712158203125</LongitudeDegrees>
            </Position>
            <AltitudeMeters>2353.39990234375</AltitudeMeters>
            <DistanceMeters>14037.418602482</DistanceMeters>
          </Trackpoint>
          <Trackpoint>
            <Time>2019-04-08T08:25:23.000Z</Time>
            <Position>
              <LatitudeDegrees>28.25626320205628871917724609375</LatitudeDegrees>
              <LongitudeDegrees>-16.6235199384391307830810546875</LongitudeDegrees>
            </Position>
            <AltitudeMeters>2353</AltitudeMeters>
            <DistanceMeters>14043.255594723</DistanceMeters>
          </Trackpoint>
          <Trackpoint>
            <Time>2019-04-08T08:25:26.000Z</Time>
            <Position>
              <LatitudeDegrees>28.25625699944794178009033203125</LatitudeDegrees>
              <LongitudeDegrees>-16.62347509525716304779052734375</LongitudeDegrees>
            </Position>
            <AltitudeMeters>2352.60009765625</AltitudeMeters>
            <DistanceMeters>14047.705646143</DistanceMeters>
          </Trackpoint>
          <Trackpoint>
            <Time>2019-04-08T08:25:30.000Z</Time>
            <Position>
              <LatitudeDegrees>28.25624425895512104034423828125</LatitudeDegrees>
              <LongitudeDegrees>-16.62342161871492862701416015625</LongitudeDegrees>
            </Position>
            <AltitudeMeters>2351.60009765625</AltitudeMeters>
            <DistanceMeters>14053.136321024</DistanceMeters>
          </Trackpoint>
          <Trackpoint>
            <Time>2019-04-08T08:25:32.000Z</Time>
            <Position>
              <LatitudeDegrees>28.2562383078038692474365234375</LatitudeDegrees>
              <LongitudeDegrees>-16.62339471280574798583984375</LongitudeDegrees>
            </Position>
            <AltitudeMeters>2351.39990234375</AltitudeMeters>
            <DistanceMeters>14055.854151507</DistanceMeters>
          </Trackpoint>
          <Trackpoint>
            <Time>2019-04-08T08:25:39.000Z</Time>
            <Position>
              <LatitudeDegrees>28.2562000863254070281982421875</LatitudeDegrees>
              <LongitudeDegrees>-16.62329387851059436798095703125</LongitudeDegrees>
            </Position>
            <AltitudeMeters>2350.60009765625</AltitudeMeters>
            <DistanceMeters>14066.616949499</DistanceMeters>
          </Trackpoint>
          <Trackpoint>
            <Time>2019-04-08T08:25:44.000Z</Time>
            <Position>
              <LatitudeDegrees>28.25616496615111827850341796875</LatitudeDegrees>
              <LongitudeDegrees>-16.623227410018444061279296875</LongitudeDegrees>
            </Position>
            <AltitudeMeters>2349.800048828125</AltitudeMeters>
            <DistanceMeters>14074.216710609</DistanceMeters>
          </Trackpoint>
          <Trackpoint>
            <Time>2019-04-08T08:25:45.000Z</Time>
            <Position>
              <LatitudeDegrees>28.25615742243826389312744140625</LatitudeDegrees>
              <LongitudeDegrees>-16.623216010630130767822265625</LongitudeDegrees>
            </Position>
            <AltitudeMeters>2349.800048828125</AltitudeMeters>
            <DistanceMeters>14075.616541523</DistanceMeters>
          </Trackpoint>
          <Trackpoint>
            <Time>2019-04-08T08:25:51.000Z</Time>
            <Position>
              <LatitudeDegrees>28.2561065442860126495361328125</LatitudeDegrees>
              <LongitudeDegrees>-16.623144932091236114501953125</LongitudeDegrees>
            </Position>
            <AltitudeMeters>2348.800048828125</AltitudeMeters>
            <DistanceMeters>14084.595937526</DistanceMeters>
          </Trackpoint>
          <Trackpoint>
            <Time>2019-04-08T08:25:55.000Z</Time>
            <Position>
              <LatitudeDegrees>28.2560703344643115997314453125</LatitudeDegrees>
              <LongitudeDegrees>-16.623110733926296234130859375</LongitudeDegrees>
            </Position>
            <AltitudeMeters>2348</AltitudeMeters>
            <DistanceMeters>14089.837933579</DistanceMeters>
          </Trackpoint>
          <Trackpoint>
            <Time>2019-04-08T08:25:56.000Z</Time>
            <Position>
              <LatitudeDegrees>28.25605868361890316009521484375</LatitudeDegrees>
              <LongitudeDegrees>-16.62309941835701465606689453125</LongitudeDegrees>
            </Position>
            <AltitudeMeters>2347.800048828125</AltitudeMeters>
            <DistanceMeters>14091.545772767</DistanceMeters>
          </Trackpoint>
          <Trackpoint>
            <Time>2019-04-08T08:26:02.000Z</Time>
            <Position>
              <LatitudeDegrees>28.2559992559254169464111328125</LatitudeDegrees>
              <LongitudeDegrees>-16.62305700592696666717529296875</LongitudeDegrees>
            </Position>
            <AltitudeMeters>2346.800048828125</AltitudeMeters>
            <DistanceMeters>14099.358795022</DistanceMeters>
          </Trackpoint>
          <Trackpoint>
            <Time>2019-04-08T08:26:08.000Z</Time>
            <Position>
              <LatitudeDegrees>28.25596933253109455108642578125</LatitudeDegrees>
              <LongitudeDegrees>-16.62303387187421321868896484375</LongitudeDegrees>
            </Position>
            <AltitudeMeters>2346</AltitudeMeters>
            <DistanceMeters>14103.388196646</DistanceMeters>
          </Trackpoint>
          <Trackpoint>
            <Time>2019-04-08T08:26:09.000Z</Time>
            <Position>
              <LatitudeDegrees>28.255967237055301666259765625</LatitudeDegrees>
              <LongitudeDegrees>-16.62302993237972259521484375</LongitudeDegrees>
            </Position>
            <AltitudeMeters>2346</AltitudeMeters>
            <DistanceMeters>14103.833911444</DistanceMeters>
          </Trackpoint>
          <Trackpoint>
            <Time>2019-04-08T08:26:22.000Z</Time>
            <Position>
              <LatitudeDegrees>28.25595592148602008819580078125</LatitudeDegrees>
              <LongitudeDegrees>-16.62302766926586627960205078125</LongitudeDegrees>
            </Position>
            <AltitudeMeters>2346.199951171875</AltitudeMeters>
            <DistanceMeters>14105.108828602</DistanceMeters>
          </Trackpoint>
          <Trackpoint>
            <Time>2019-04-08T08:26:23.000Z</Time>
            <Position>
              <LatitudeDegrees>28.25594879686832427978515625</LatitudeDegrees>
              <LongitudeDegrees>-16.62302364595234394073486328125</LongitudeDegrees>
            </Position>
            <AltitudeMeters>2346</AltitudeMeters>
            <DistanceMeters>14105.990070098</DistanceMeters>
          </Trackpoint>
          <Trackpoint>
            <Time>2019-04-08T08:26:28.000Z</Time>
            <Position>
              <LatitudeDegrees>28.25590428896248340606689453125</LatitudeDegrees>
              <LongitudeDegrees>-16.62301459349691867828369140625</LongitudeDegrees>
            </Position>
            <AltitudeMeters>2345.199951171875</AltitudeMeters>
            <DistanceMeters>14111.022001571</DistanceMeters>
          </Trackpoint>
          <Trackpoint>
            <Time>2019-04-08T08:26:33.000Z</Time>
            <Position>
              <LatitudeDegrees>28.25585098005831241607666015625</LatitudeDegrees>
              <LongitudeDegrees>-16.6230113245546817779541015625</LongitudeDegrees>
            </Position>
            <AltitudeMeters>2344.39990234375</AltitudeMeters>
            <DistanceMeters>14116.964781138</DistanceMeters>
          </Trackpoint>
          <Trackpoint>
            <Time>2019-04-08T08:26:35.000Z</Time>
            <Position>
              <LatitudeDegrees>28.25582918711006641387939453125</LatitudeDegrees>
              <LongitudeDegrees>-16.62300889380276203155517578125</LongitudeDegrees>
            </Position>
            <AltitudeMeters>2344.39990234375</AltitudeMeters>
            <DistanceMeters>14119.400506948</DistanceMeters>
          </Trackpoint>
          <Trackpoint>
            <Time>2019-04-08T08:26:41.000Z</Time>
            <Position>
              <LatitudeDegrees>28.25576816685497760772705078125</LatitudeDegrees>
              <LongitudeDegrees>-16.6229952313005924224853515625</LongitudeDegrees>
            </Position>
            <AltitudeMeters>2343.800048828125</AltitudeMeters>
            <DistanceMeters>14126.323123194</DistanceMeters>
          </Trackpoint>
          <Trackpoint>
            <Time>2019-04-08T08:26:44.000Z</Time>
            <Position>
              <LatitudeDegrees>28.2557360641658306121826171875</LatitudeDegrees>
              <LongitudeDegrees>-16.6229818202555179595947265625</LongitudeDegrees>
            </Position>
            <AltitudeMeters>2343.199951171875</AltitudeMeters>
            <DistanceMeters>14130.131312103</DistanceMeters>
          </Trackpoint>
          <Trackpoint>
            <Time>2019-04-08T08:26:50.000Z</Time>
            <Position>
              <LatitudeDegrees>28.25567521154880523681640625</LatitudeDegrees>
              <LongitudeDegrees>-16.62295541726052761077880859375</LongitudeDegrees>
            </Position>
            <AltitudeMeters>2342.39990234375</AltitudeMeters>
            <DistanceMeters>14137.38204345</DistanceMeters>
          </Trackpoint>
          <Trackpoint>
            <Time>2019-04-08T08:26:53.000Z</Time>
            <Position>
              <LatitudeDegrees>28.2556448690593242645263671875</LatitudeDegrees>
              <LongitudeDegrees>-16.62294209003448486328125</LongitudeDegrees>
            </Position>
            <AltitudeMeters>2342.199951171875</AltitudeMeters>
            <DistanceMeters>14141.003047592</DistanceMeters>
          </Trackpoint>
          <Trackpoint>
            <Time>2019-04-08T08:27:00.000Z</Time>
            <Position>
              <LatitudeDegrees>28.25557890348136425018310546875</LatitudeDegrees>
              <LongitudeDegrees>-16.62291987799108028411865234375</LongitudeDegrees>
            </Position>
            <AltitudeMeters>2341.60009765625</AltitudeMeters>
            <DistanceMeters>14148.660809433</DistanceMeters>
          </Trackpoint>
          <Trackpoint>
            <Time>2019-04-08T08:27:02.000Z</Time>
            <Position>
              <LatitudeDegrees>28.2555578649044036865234375</LatitudeDegrees>
              <LongitudeDegrees>-16.62291367538273334503173828125</LongitudeDegrees>
            </Position>
            <AltitudeMeters>2341.199951171875</AltitudeMeters>
            <DistanceMeters>14151.079794662</DistanceMeters>
          </Trackpoint>
          <Trackpoint>
            <Time>2019-04-08T08:27:09.000Z</Time>
            <Position>
              <LatitudeDegrees>28.255488462746143341064453125</LatitudeDegrees>
              <LongitudeDegrees>-16.62287210114300251007080078125</LongitudeDegrees>
            </Position>
            <AltitudeMeters>2340.60009765625</AltitudeMeters>
            <DistanceMeters>14159.813468329</DistanceMeters>
          </Trackpoint>
          <Trackpoint>
            <Time>2019-04-08T08:27:17.000Z</Time>
            <Position>
              <LatitudeDegrees>28.2554198987782001495361328125</LatitudeDegrees>
              <LongitudeDegrees>-16.6228151880204677581787109375</LongitudeDegrees>
            </Position>
            <AltitudeMeters>2339.39990234375</AltitudeMeters>
            <DistanceMeters>14169.267551925</DistanceMeters>
          </Trackpoint>
          <Trackpoint>
            <Time>2019-04-08T08:27:19.000Z</Time>
            <Position>
              <LatitudeDegrees>28.25539953075349330902099609375</LatitudeDegrees>
              <LongitudeDegrees>-16.6228024475276470184326171875</LongitudeDegrees>
            </Position>
            <AltitudeMeters>2339.199951171875</AltitudeMeters>
            <DistanceMeters>14171.857792608</DistanceMeters>
          </Trackpoint>
          <Trackpoint>
            <Time>2019-04-08T08:27:24.000Z</Time>
            <Position>
              <LatitudeDegrees>28.25535577721893787384033203125</LatitudeDegrees>
              <LongitudeDegrees>-16.6227798163890838623046875</LongitudeDegrees>
            </Position>
            <AltitudeMeters>2339</AltitudeMeters>
            <DistanceMeters>14177.209745755</DistanceMeters>
          </Trackpoint>
          <Trackpoint>
            <Time>2019-04-08T08:27:25.000Z</Time>
            <Position>
              <LatitudeDegrees>28.25534638948738574981689453125</LatitudeDegrees>
              <LongitudeDegrees>-16.6227736137807369232177734375</LongitudeDegrees>
            </Position>
            <AltitudeMeters>2338.60009765625</AltitudeMeters>
            <DistanceMeters>14178.419238369</DistanceMeters>
          </Trackpoint>
          <Trackpoint>
            <Time>2019-04-08T08:27:30.000Z</Time>
            <Position>
              <LatitudeDegrees>28.2552901469171047210693359375</LatitudeDegrees>
              <LongitudeDegrees>-16.62274000234901905059814453125</LongitudeDegrees>
            </Position>
            <AltitudeMeters>2338</AltitudeMeters>
            <DistanceMeters>14185.493465087</DistanceMeters>
          </Trackpoint>
          <Trackpoint>
            <Time>2019-04-08T08:27:33.000Z</Time>
            <Position>
              <LatitudeDegrees>28.25525452382862567901611328125</LatitudeDegrees>
              <LongitudeDegrees>-16.62271519191563129425048828125</LongitudeDegrees>
            </Position>
            <AltitudeMeters>2337.60009765625</AltitudeMeters>
            <DistanceMeters>14190.144923262</DistanceMeters>
          </Trackpoint>
          <Trackpoint>
            <Time>2019-04-08T08:27:38.000Z</Time>
            <Position>
              <LatitudeDegrees>28.25519911944866180419921875</LatitudeDegrees>
              <LongitudeDegrees>-16.62267898209393024444580078125</LongitudeDegrees>
            </Position>
            <AltitudeMeters>2337</AltitudeMeters>
            <DistanceMeters>14197.260514497</DistanceMeters>
          </Trackpoint>
          <Trackpoint>
            <Time>2019-04-08T08:27:40.000Z</Time>
            <Position>
              <LatitudeDegrees>28.2551751472055912017822265625</LatitudeDegrees>
              <LongitudeDegrees>-16.6226669959723949432373046875</LongitudeDegrees>
            </Position>
            <AltitudeMeters>2336.39990234375</AltitudeMeters>
            <DistanceMeters>14200.177076173</DistanceMeters>
          </Trackpoint>
          <Trackpoint>
            <Time>2019-04-08T08:27:43.000Z</Time>
            <Position>
              <LatitudeDegrees>28.2551422901451587677001953125</LatitudeDegrees>
              <LongitudeDegrees>-16.62265132181346416473388671875</LongitudeDegrees>
            </Position>
            <AltitudeMeters>2336.39990234375</AltitudeMeters>
            <DistanceMeters>14204.143232142</DistanceMeters>
          </Trackpoint>
          <Trackpoint>
            <Time>2019-04-08T08:27:44.000Z</Time>
            <Position>
              <LatitudeDegrees>28.25512938201427459716796875</LatitudeDegrees>
              <LongitudeDegrees>-16.62264159880578517913818359375</LongitudeDegrees>
            </Position>
            <AltitudeMeters>2336.199951171875</AltitudeMeters>
            <DistanceMeters>14205.866860625</DistanceMeters>
          </Trackpoint>
          <Trackpoint>
            <Time>2019-04-08T08:27:48.000Z</Time>
            <Position>
              <LatitudeDegrees>28.25508051551878452301025390625</LatitudeDegrees>
              <LongitudeDegrees>-16.62260991521179676055908203125</LongitudeDegrees>
            </Position>
            <AltitudeMeters>2335.60009765625</AltitudeMeters>
            <DistanceMeters>14212.129979024</DistanceMeters>
          </Trackpoint>
          <Trackpoint>
            <Time>2019-04-08T08:27:50.000Z</Time>
            <Position>
              <LatitudeDegrees>28.25506023131310939788818359375</LatitudeDegrees>
              <LongitudeDegrees>-16.6225875355303287506103515625</LongitudeDegrees>
            </Position>
            <AltitudeMeters>2335.199951171875</AltitudeMeters>
            <DistanceMeters>14215.278792123</DistanceMeters>
          </Trackpoint>
          <Trackpoint>
            <Time>2019-04-08T08:27:55.000Z</Time>
            <Position>
              <LatitudeDegrees>28.2550205849111080169677734375</LatitudeDegrees>
              <LongitudeDegrees>-16.622576303780078887939453125</LongitudeDegrees>
            </Position>
            <AltitudeMeters>2334.39990234375</AltitudeMeters>
            <DistanceMeters>14219.826195235</DistanceMeters>
          </Trackpoint>
          <Trackpoint>
            <Time>2019-04-08T08:28:01.000Z</Time>
            <Position>
              <LatitudeDegrees>28.25495906174182891845703125</LatitudeDegrees>
              <LongitudeDegrees>-16.62255761213600635528564453125</LongitudeDegrees>
            </Position>
            <AltitudeMeters>2333.60009765625</AltitudeMeters>
            <DistanceMeters>14226.914449274</DistanceMeters>
          </Trackpoint>
          <Trackpoint>
            <Time>2019-04-08T08:28:02.000Z</Time>
            <Position>
              <LatitudeDegrees>28.25494623742997646331787109375</LatitudeDegrees>
              <LongitudeDegrees>-16.6225546784698963165283203125</LongitudeDegrees>
            </Position>
            <AltitudeMeters>2333.39990234375</AltitudeMeters>
            <DistanceMeters>14228.371181221</DistanceMeters>
          </Trackpoint>
          <Trackpoint>
            <Time>2019-04-08T08:28:06.000Z</Time>
            <Position>
              <LatitudeDegrees>28.254901729524135589599609375</LatitudeDegrees>
              <LongitudeDegrees>-16.62252961657941341400146484375</LongitudeDegrees>
            </Position>
            <AltitudeMeters>2332.60009765625</AltitudeMeters>
            <DistanceMeters>14233.901540063</DistanceMeters>
          </Trackpoint>
          <Trackpoint>
            <Time>2019-04-08T08:28:12.000Z</Time>
            <Position>
              <LatitudeDegrees>28.25483140535652637481689453125</LatitudeDegrees>
              <LongitudeDegrees>-16.62247815169394016265869140625</LongitudeDegrees>
            </Position>
            <AltitudeMeters>2331.800048828125</AltitudeMeters>
            <DistanceMeters>14243.214158071</DistanceMeters>
          </Trackpoint>
          <Trackpoint>
            <Time>2019-04-08T08:28:13.000Z</Time>
            <Position>
              <LatitudeDegrees>28.25481891632080078125</LatitudeDegrees>
              <LongitudeDegrees>-16.62246641702950000762939453125</LongitudeDegrees>
            </Position>
            <AltitudeMeters>2331.60009765625</AltitudeMeters>
            <DistanceMeters>14245.019665644</DistanceMeters>
          </Trackpoint>
          <Trackpoint>
            <Time>2019-04-08T08:28:14.000Z</Time>
            <Position>
              <LatitudeDegrees>28.2548073492944240570068359375</LatitudeDegrees>
              <LongitudeDegrees>-16.622456945478916168212890625</LongitudeDegrees>
            </Position>
            <AltitudeMeters>2331.60009765625</AltitudeMeters>
            <DistanceMeters>14246.606924705</DistanceMeters>
          </Trackpoint>
          <Trackpoint>
            <Time>2019-04-08T08:28:17.000Z</Time>
            <Position>
              <LatitudeDegrees>28.2547758333384990692138671875</LatitudeDegrees>
              <LongitudeDegrees>-16.62243305705487728118896484375</LongitudeDegrees>
            </Position>
            <AltitudeMeters>2331</AltitudeMeters>
            <DistanceMeters>14250.824655208</DistanceMeters>
          </Trackpoint>
          <Trackpoint>
            <Time>2019-04-08T08:28:23.000Z</Time>
            <Position>
              <LatitudeDegrees>28.254705928266048431396484375</LatitudeDegrees>
              <LongitudeDegrees>-16.622381173074245452880859375</LongitudeDegrees>
            </Position>
            <AltitudeMeters>2330.60009765625</AltitudeMeters>
            <DistanceMeters>14260.120774375</DistanceMeters>
          </Trackpoint>
          <Trackpoint>
            <Time>2019-04-08T08:28:24.000Z</Time>
            <Position>
              <LatitudeDegrees>28.25469260104000568389892578125</LatitudeDegrees>
              <LongitudeDegrees>-16.62237052805721759796142578125</LongitudeDegrees>
            </Position>
            <AltitudeMeters>2330.60009765625</AltitudeMeters>
            <DistanceMeters>14261.933768536</DistanceMeters>
          </Trackpoint>
          <Trackpoint>
            <Time>2019-04-08T08:28:30.000Z</Time>
            <Position>
              <LatitudeDegrees>28.25462353415787220001220703125</LatitudeDegrees>
              <LongitudeDegrees>-16.62235896103084087371826171875</LongitudeDegrees>
            </Position>
            <AltitudeMeters>2329.800048828125</AltitudeMeters>
            <DistanceMeters>14269.704490586</DistanceMeters>
          </Trackpoint>
          <Trackpoint>
            <Time>2019-04-08T08:28:31.000Z</Time>
            <Position>
              <LatitudeDegrees>28.2546145655214786529541015625</LatitudeDegrees>
              <LongitudeDegrees>-16.62236030213534832000732421875</LongitudeDegrees>
            </Position>
            <AltitudeMeters>2329.60009765625</AltitudeMeters>
            <DistanceMeters>14270.714638416</DistanceMeters>
          </Trackpoint>
          <Trackpoint>
            <Time>2019-04-08T08:28:33.000Z</Time>
            <Position>
              <LatitudeDegrees>28.25459570623934268951416015625</LatitudeDegrees>
              <LongitudeDegrees>-16.6223699413239955902099609375</LongitudeDegrees>
            </Position>
            <AltitudeMeters>2329.39990234375</AltitudeMeters>
            <DistanceMeters>14273.016953527</DistanceMeters>
          </Trackpoint>
          <Trackpoint>
            <Time>2019-04-08T08:28:35.000Z</Time>
            <Position>
              <LatitudeDegrees>28.25457626022398471832275390625</LatitudeDegrees>
              <LongitudeDegrees>-16.6223855316638946533203125</LongitudeDegrees>
            </Position>
            <AltitudeMeters>2329.39990234375</AltitudeMeters>
            <DistanceMeters>14275.667500541</DistanceMeters>
          </Trackpoint>
          <Trackpoint>
            <Time>2019-04-08T08:28:37.000Z</Time>
            <Position>
              <LatitudeDegrees>28.25455614365637302398681640625</LatitudeDegrees>
              <LongitudeDegrees>-16.62239097990095615386962890625</LongitudeDegrees>
            </Position>
            <AltitudeMeters>2329.39990234375</AltitudeMeters>
            <DistanceMeters>14277.969815652</DistanceMeters>
          </Trackpoint>
          <Trackpoint>
            <Time>2019-04-08T08:28:39.000Z</Time>
            <Position>
              <LatitudeDegrees>28.25452814809978008270263671875</LatitudeDegrees>
              <LongitudeDegrees>-16.62238352000713348388671875</LongitudeDegrees>
            </Position>
            <AltitudeMeters>2329</AltitudeMeters>
            <DistanceMeters>14281.169832322</DistanceMeters>
          </Trackpoint>
          <Trackpoint>
            <Time>2019-04-08T08:28:41.000Z</Time>
            <Position>
              <LatitudeDegrees>28.2545056007802486419677734375</LatitudeDegrees>
              <LongitudeDegrees>-16.62237639538943767547607421875</LongitudeDegrees>
            </Position>
            <AltitudeMeters>2328.60009765625</AltitudeMeters>
            <DistanceMeters>14283.773980438</DistanceMeters>
          </Trackpoint>
          <Trackpoint>
            <Time>2019-04-08T08:28:43.000Z</Time>
            <Position>
              <LatitudeDegrees>28.2544895075261592864990234375</LatitudeDegrees>
              <LongitudeDegrees>-16.6223749704658985137939453125</LongitudeDegrees>
            </Position>
            <AltitudeMeters>2328.39990234375</AltitudeMeters>
            <DistanceMeters>14285.569457336</DistanceMeters>
          </Trackpoint>
          <Trackpoint>
            <Time>2019-04-08T08:28:44.000Z</Time>
            <Position>
              <LatitudeDegrees>28.2544824667274951934814453125</LatitudeDegrees>
              <LongitudeDegrees>-16.62237253971397876739501953125</LongitudeDegrees>
            </Position>
            <AltitudeMeters>2328.39990234375</AltitudeMeters>
            <DistanceMeters>14286.386908042</DistanceMeters>
          </Trackpoint>
          <Trackpoint>
            <Time>2019-04-08T08:28:49.000Z</Time>
            <Position>
              <LatitudeDegrees>28.25445556081831455230712890625</LatitudeDegrees>
              <LongitudeDegrees>-16.62235057912766933441162109375</LongitudeDegrees>
            </Position>
            <AltitudeMeters>2328.39990234375</AltitudeMeters>
            <DistanceMeters>14290.07707813</DistanceMeters>
          </Trackpoint>
          <Trackpoint>
            <Time>2019-04-08T08:28:56.000Z</Time>
            <Position>
              <LatitudeDegrees>28.25445790775120258331298828125</LatitudeDegrees>
              <LongitudeDegrees>-16.62230162881314754486083984375</LongitudeDegrees>
            </Position>
            <AltitudeMeters>2328.199951171875</AltitudeMeters>
            <DistanceMeters>14294.883213328</DistanceMeters>
          </Trackpoint>
          <Trackpoint>
            <Time>2019-04-08T08:29:05.000Z</Time>
            <Position>
              <LatitudeDegrees>28.254439719021320343017578125</LatitudeDegrees>
              <LongitudeDegrees>-16.62226290442049503326416015625</LongitudeDegrees>
            </Position>
            <AltitudeMeters>2328.60009765625</AltitudeMeters>
            <DistanceMeters>14299.18678008</DistanceMeters>
          </Trackpoint>
          <Trackpoint>
            <Time>2019-04-08T08:29:21.000Z</Time>
            <Position>
              <LatitudeDegrees>28.254440724849700927734375</LatitudeDegrees>
              <LongitudeDegrees>-16.62225804291665554046630859375</LongitudeDegrees>
            </Position>
            <AltitudeMeters>2328.39990234375</AltitudeMeters>
            <DistanceMeters>14299.680553372</DistanceMeters>
          </Trackpoint>
          <Trackpoint>
            <Time>2019-04-08T08:29:25.000Z</Time>
            <Position>
              <LatitudeDegrees>28.25444097630679607391357421875</LatitudeDegrees>
              <LongitudeDegrees>-16.62225720472633838653564453125</LongitudeDegrees>
            </Position>
            <AltitudeMeters>2328.199951171875</AltitudeMeters>
            <DistanceMeters>14299.775580086</DistanceMeters>
          </Trackpoint>
          <Trackpoint>
            <Time>2019-04-08T08:29:39.000Z</Time>
            <Position>
              <LatitudeDegrees>28.2544412277638912200927734375</LatitudeDegrees>
              <LongitudeDegrees>-16.6222529299557209014892578125</LongitudeDegrees>
            </Position>
            <AltitudeMeters>2328</AltitudeMeters>
            <DistanceMeters>14300.200552472</DistanceMeters>
          </Trackpoint>
          <Trackpoint>
            <Time>2019-04-08T08:29:52.000Z</Time>
            <Position>
              <LatitudeDegrees>28.25443142093718051910400390625</LatitudeDegrees>
              <LongitudeDegrees>-16.62226441316306591033935546875</LongitudeDegrees>
            </Position>
            <AltitudeMeters>2328.199951171875</AltitudeMeters>
            <DistanceMeters>14301.767773195</DistanceMeters>
          </Trackpoint>
          <Trackpoint>
            <Time>2019-04-08T08:30:00.000Z</Time>
            <Position>
              <LatitudeDegrees>28.2543838955461978912353515625</LatitudeDegrees>
              <LongitudeDegrees>-16.62233121693134307861328125</LongitudeDegrees>
            </Position>
            <AltitudeMeters>2327.800048828125</AltitudeMeters>
            <DistanceMeters>14310.186625255</DistanceMeters>
          </Trackpoint>
          <Trackpoint>
            <Time>2019-04-08T08:30:01.000Z</Time>
            <Position>
              <LatitudeDegrees>28.25437593273818492889404296875</LatitudeDegrees>
              <LongitudeDegrees>-16.62233917973935604095458984375</LongitudeDegrees>
            </Position>
            <AltitudeMeters>2327.800048828125</AltitudeMeters>
            <DistanceMeters>14311.369698308</DistanceMeters>
          </Trackpoint>
          <Trackpoint>
            <Time>2019-04-08T08:30:11.000Z</Time>
            <Position>
              <LatitudeDegrees>28.25429731048643589019775390625</LatitudeDegrees>
              <LongitudeDegrees>-16.62242869846522808074951171875</LongitudeDegrees>
            </Position>
            <AltitudeMeters>2326.800048828125</AltitudeMeters>
            <DistanceMeters>14323.763309578</DistanceMeters>
          </Trackpoint>
          <Trackpoint>
            <Time>2019-04-08T08:30:12.000Z</Time>
            <Position>
              <LatitudeDegrees>28.25429161079227924346923828125</LatitudeDegrees>
              <LongitudeDegrees>-16.62243674509227275848388671875</LongitudeDegrees>
            </Position>
            <AltitudeMeters>2326.60009765625</AltitudeMeters>
            <DistanceMeters>14324.777917243</DistanceMeters>
          </Trackpoint>
          <Trackpoint>
            <Time>2019-04-08T08:30:19.000Z</Time>
            <Position>
              <LatitudeDegrees>28.25425271876156330108642578125</LatitudeDegrees>
              <LongitudeDegrees>-16.6225196421146392822265625</LongitudeDegrees>
            </Position>
            <AltitudeMeters>2326</AltitudeMeters>
            <DistanceMeters>14333.985706757</DistanceMeters>
          </Trackpoint>
          <Trackpoint>
            <Time>2019-04-08T08:30:21.000Z</Time>
            <Position>
              <LatitudeDegrees>28.2542390562593936920166015625</LatitudeDegrees>
              <LongitudeDegrees>-16.62254101596772670745849609375</LongitudeDegrees>
            </Position>
            <AltitudeMeters>2325.800048828125</AltitudeMeters>
            <DistanceMeters>14336.575947441</DistanceMeters>
          </Trackpoint>
          <Trackpoint>
            <Time>2019-04-08T08:30:25.000Z</Time>
            <Position>
              <LatitudeDegrees>28.2542179338634014129638671875</LatitudeDegrees>
              <LongitudeDegrees>-16.622584350407123565673828125</LongitudeDegrees>
            </Position>
            <AltitudeMeters>2325.60009765625</AltitudeMeters>
            <DistanceMeters>14341.430687343</DistanceMeters>
          </Trackpoint>
          <Trackpoint>
            <Time>2019-04-08T08:30:28.000Z</Time>
            <Position>
              <LatitudeDegrees>28.25420963577926158905029296875</LatitudeDegrees>
              <LongitudeDegrees>-16.62263019941747188568115234375</LongitudeDegrees>
            </Position>
            <AltitudeMeters>2325</AltitudeMeters>
            <DistanceMeters>14346.019602058</DistanceMeters>
          </Trackpoint>
          <Trackpoint>
            <Time>2019-04-08T08:30:35.000Z</Time>
            <Position>
              <LatitudeDegrees>28.25420125387609004974365234375</LatitudeDegrees>
              <LongitudeDegrees>-16.6227343864738941192626953125</LongitudeDegrees>
            </Position>
            <AltitudeMeters>2324.60009765625</AltitudeMeters>
            <DistanceMeters>14356.276766416</DistanceMeters>
          </Trackpoint>
          <Trackpoint>
            <Time>2019-04-08T08:30:41.000Z</Time>
            <Position>
              <LatitudeDegrees>28.25420008040964603424072265625</LatitudeDegrees>
              <LongitudeDegrees>-16.62281845696270465850830078125</LongitudeDegrees>
            </Position>
            <AltitudeMeters>2324.199951171875</AltitudeMeters>
            <DistanceMeters>14364.520025798</DistanceMeters>
          </Trackpoint>
          <Trackpoint>
            <Time>2019-04-08T08:30:42.000Z</Time>
            <Position>
              <LatitudeDegrees>28.25419588945806026458740234375</LatitudeDegrees>
              <LongitudeDegrees>-16.622835136950016021728515625</LongitudeDegrees>
            </Position>
            <AltitudeMeters>2324</AltitudeMeters>
            <DistanceMeters>14366.222569347</DistanceMeters>
          </Trackpoint>
          <Trackpoint>
            <Time>2019-04-08T08:30:48.000Z</Time>
            <Position>
              <LatitudeDegrees>28.25416638515889644622802734375</LatitudeDegrees>
              <LongitudeDegrees>-16.6229157708585262298583984375</LongitudeDegrees>
            </Position>
            <AltitudeMeters>2323.800048828125</AltitudeMeters>
            <DistanceMeters>14374.782888871</DistanceMeters>
          </Trackpoint>
          <Trackpoint>
            <Time>2019-04-08T08:30:55.000Z</Time>
            <Position>
              <LatitudeDegrees>28.2541314326226711273193359375</LatitudeDegrees>
              <LongitudeDegrees>-16.62299833260476589202880859375</LongitudeDegrees>
            </Position>
            <AltitudeMeters>2323.60009765625</AltitudeMeters>
            <DistanceMeters>14383.763793213</DistanceMeters>
          </Trackpoint>
          <Trackpoint>
            <Time>2019-04-08T08:30:57.000Z</Time>
            <Position>
              <LatitudeDegrees>28.2541186921298503875732421875</LatitudeDegrees>
              <LongitudeDegrees>-16.62302616052329540252685546875</LongitudeDegrees>
            </Position>
            <AltitudeMeters>2323.199951171875</AltitudeMeters>
            <DistanceMeters>14386.837139916</DistanceMeters>
          </Trackpoint>
          <Trackpoint>
            <Time>2019-04-08T08:31:02.000Z</Time>
            <Position>
              <LatitudeDegrees>28.25408960692584514617919921875</LatitudeDegrees>
              <LongitudeDegrees>-16.62308500148355960845947265625</LongitudeDegrees>
            </Position>
            <AltitudeMeters>2322.60009765625</AltitudeMeters>
            <DistanceMeters>14393.452937716</DistanceMeters>
          </Trackpoint>
          <Trackpoint>
            <Time>2019-04-08T08:31:09.000Z</Time>
            <Position>
              <LatitudeDegrees>28.2540811412036418914794921875</LatitudeDegrees>
              <LongitudeDegrees>-16.62317150272428989410400390625</LongitudeDegrees>
            </Position>
            <AltitudeMeters>2322.60009765625</AltitudeMeters>
            <DistanceMeters>14401.985786382</DistanceMeters>
          </Trackpoint>
          <Trackpoint>
            <Time>2019-04-08T08:31:14.000Z</Time>
            <Position>
              <LatitudeDegrees>28.25408759526908397674560546875</LatitudeDegrees>
              <LongitudeDegrees>-16.623232103884220123291015625</LongitudeDegrees>
            </Position>
            <AltitudeMeters>2323</AltitudeMeters>
            <DistanceMeters>14407.970206419</DistanceMeters>
          </Trackpoint>
          <Trackpoint>
            <Time>2019-04-08T08:31:23.000Z</Time>
            <Position>
              <LatitudeDegrees>28.2540647126734256744384765625</LatitudeDegrees>
              <LongitudeDegrees>-16.62334215827286243438720703125</LongitudeDegrees>
            </Position>
            <AltitudeMeters>2322.60009765625</AltitudeMeters>
            <DistanceMeters>14419.056611178</DistanceMeters>
          </Trackpoint>
          <Trackpoint>
            <Time>2019-04-08T08:31:31.000Z</Time>
            <Position>
              <LatitudeDegrees>28.2540385611355304718017578125</LatitudeDegrees>
              <LongitudeDegrees>-16.62343494594097137451171875</LongitudeDegrees>
            </Position>
            <AltitudeMeters>2322.60009765625</AltitudeMeters>
            <DistanceMeters>14428.607623283</DistanceMeters>
          </Trackpoint>
          <Trackpoint>
            <Time>2019-04-08T08:31:37.000Z</Time>
            <Position>
              <LatitudeDegrees>28.2540335319936275482177734375</LatitudeDegrees>
              <LongitudeDegrees>-16.62351331673562526702880859375</LongitudeDegrees>
            </Position>
            <AltitudeMeters>2323</AltitudeMeters>
            <DistanceMeters>14436.311236876</DistanceMeters>
          </Trackpoint>
          <Trackpoint>
            <Time>2019-04-08T08:31:44.000Z</Time>
            <Position>
              <LatitudeDegrees>28.25400964356958866119384765625</LatitudeDegrees>
              <LongitudeDegrees>-16.62359043024480342864990234375</LongitudeDegrees>
            </Position>
            <AltitudeMeters>2322.60009765625</AltitudeMeters>
            <DistanceMeters>14444.326220583</DistanceMeters>
          </Trackpoint>
          <Trackpoint>
            <Time>2019-04-08T08:31:45.000Z</Time>
            <Position>
              <LatitudeDegrees>28.2540006749331951141357421875</LatitudeDegrees>
              <LongitudeDegrees>-16.62359395064413547515869140625</LongitudeDegrees>
            </Position>
            <AltitudeMeters>2322.60009765625</AltitudeMeters>
            <DistanceMeters>14445.384393291</DistanceMeters>
          </Trackpoint>
          <Trackpoint>
            <Time>2019-04-08T08:31:51.000Z</Time>
            <Position>
              <LatitudeDegrees>28.25397008098661899566650390625</LatitudeDegrees>
              <LongitudeDegrees>-16.6236413083970546722412109375</LongitudeDegrees>
            </Position>
            <AltitudeMeters>2322.39990234375</AltitudeMeters>
            <DistanceMeters>14451.141945776</DistanceMeters>
          </Trackpoint>
          <Trackpoint>
            <Time>2019-04-08T08:32:00.000Z</Time>
            <Position>
              <LatitudeDegrees>28.25395817868411540985107421875</LatitudeDegrees>
              <LongitudeDegrees>-16.62374583072960376739501953125</LongitudeDegrees>
            </Position>
            <AltitudeMeters>2322</AltitudeMeters>
            <DistanceMeters>14461.474544375</DistanceMeters>
          </Trackpoint>
          <Trackpoint>
            <Time>2019-04-08T08:32:08.000Z</Time>
            <Position>
              <LatitudeDegrees>28.25394594110548496246337890625</LatitudeDegrees>
              <LongitudeDegrees>-16.62381674163043498992919921875</LongitudeDegrees>
            </Position>
            <AltitudeMeters>2322.39990234375</AltitudeMeters>
            <DistanceMeters>14468.558338189</DistanceMeters>
          </Trackpoint>
          <Trackpoint>
            <Time>2019-04-08T08:32:17.000Z</Time>
            <Position>
              <LatitudeDegrees>28.25391568243503570556640625</LatitudeDegrees>
              <LongitudeDegrees>-16.62392444908618927001953125</LongitudeDegrees>
            </Position>
            <AltitudeMeters>2323</AltitudeMeters>
            <DistanceMeters>14479.642299124</DistanceMeters>
          </Trackpoint>
          <Trackpoint>
            <Time>2019-04-08T08:32:18.000Z</Time>
            <Position>
              <LatitudeDegrees>28.2539051212370395660400390625</LatitudeDegrees>
              <LongitudeDegrees>-16.62392352707684040069580078125</LongitudeDegrees>
            </Position>
            <AltitudeMeters>2323</AltitudeMeters>
            <DistanceMeters>14480.821549637</DistanceMeters>
          </Trackpoint>
          <Trackpoint>
            <Time>2019-04-08T08:32:23.000Z</Time>
            <Position>
              <LatitudeDegrees>28.25386379845440387725830078125</LatitudeDegrees>
              <LongitudeDegrees>-16.6239423863589763641357421875</LongitudeDegrees>
            </Position>
            <AltitudeMeters>2322.60009765625</AltitudeMeters>
            <DistanceMeters>14485.779358436</DistanceMeters>
          </Trackpoint>
          <Trackpoint>
            <Time>2019-04-08T08:32:34.000Z</Time>
            <Position>
              <LatitudeDegrees>28.25380981899797916412353515625</LatitudeDegrees>
              <LongitudeDegrees>-16.62402628920972347259521484375</LongitudeDegrees>
            </Position>
            <AltitudeMeters>2322.39990234375</AltitudeMeters>
            <DistanceMeters>14495.966293131</DistanceMeters>
          </Trackpoint>
          <Trackpoint>
            <Time>2019-04-08T08:32:44.000Z</Time>
            <Position>
              <LatitudeDegrees>28.253760449588298797607421875</LatitudeDegrees>
              <LongitudeDegrees>-16.6241301409900188446044921875</LongitudeDegrees>
            </Position>
            <AltitudeMeters>2321.800048828125</AltitudeMeters>
            <DistanceMeters>14507.535771215</DistanceMeters>
          </Trackpoint>
          <Trackpoint>
            <Time>2019-04-08T08:32:53.000Z</Time>
            <Position>
              <LatitudeDegrees>28.25372658669948577880859375</LatitudeDegrees>
              <LongitudeDegrees>-16.6242461465299129486083984375</LongitudeDegrees>
            </Position>
            <AltitudeMeters>2321.199951171875</AltitudeMeters>
            <DistanceMeters>14519.517430337</DistanceMeters>
          </Trackpoint>
          <Trackpoint>
            <Time>2019-04-08T08:32:54.000Z</Time>
            <Position>
              <LatitudeDegrees>28.25371677987277507781982421875</LatitudeDegrees>
              <LongitudeDegrees>-16.62425561808049678802490234375</LongitudeDegrees>
            </Position>
            <AltitudeMeters>2321</AltitudeMeters>
            <DistanceMeters>14520.945995098</DistanceMeters>
          </Trackpoint>
          <Trackpoint>
            <Time>2019-04-08T08:32:55.000Z</Time>
            <Position>
              <LatitudeDegrees>28.25370688922703266143798828125</LatitudeDegrees>
              <LongitudeDegrees>-16.6242603957653045654296875</LongitudeDegrees>
            </Position>
            <AltitudeMeters>2320.800048828125</AltitudeMeters>
            <DistanceMeters>14522.140462376</DistanceMeters>
          </Trackpoint>
          <Trackpoint>
            <Time>2019-04-08T08:32:59.000Z</Time>
            <Position>
              <LatitudeDegrees>28.25366632081568241119384765625</LatitudeDegrees>
              <LongitudeDegrees>-16.62427288480103015899658203125</LongitudeDegrees>
            </Position>
            <AltitudeMeters>2320</AltitudeMeters>
            <DistanceMeters>14526.819020412</DistanceMeters>
          </Trackpoint>
          <Trackpoint>
            <Time>2019-04-08T08:33:03.000Z</Time>
            <Position>
              <LatitudeDegrees>28.25361887924373149871826171875</LatitudeDegrees>
              <LongitudeDegrees>-16.62428210489451885223388671875</LongitudeDegrees>
            </Position>
            <AltitudeMeters>2319.60009765625</AltitudeMeters>
            <DistanceMeters>14532.176875675</DistanceMeters>
          </Trackpoint>
          <Trackpoint>
            <Time>2019-04-08T08:33:05.000Z</Time>
            <Position>
              <LatitudeDegrees>28.25359591282904148101806640625</LatitudeDegrees>
              <LongitudeDegrees>-16.62427389062941074371337890625</LongitudeDegrees>
            </Position>
            <AltitudeMeters>2319.39990234375</AltitudeMeters>
            <DistanceMeters>14534.857909216</DistanceMeters>
          </Trackpoint>
          <Trackpoint>
            <Time>2019-04-08T08:33:08.000Z</Time>
            <Position>
              <LatitudeDegrees>28.253584094345569610595703125</LatitudeDegrees>
              <LongitudeDegrees>-16.6242749802768230438232421875</LongitudeDegrees>
            </Position>
            <AltitudeMeters>2319.39990234375</AltitudeMeters>
            <DistanceMeters>14536.18147819</DistanceMeters>
          </Trackpoint>
          <Trackpoint>
            <Time>2019-04-08T08:33:10.000Z</Time>
            <Position>
              <LatitudeDegrees>28.25357680208981037139892578125</LatitudeDegrees>
              <LongitudeDegrees>-16.62429551593959331512451171875</LongitudeDegrees>
            </Position>
            <AltitudeMeters>2319.199951171875</AltitudeMeters>
            <DistanceMeters>14538.352583877</DistanceMeters>
          </Trackpoint>
          <Trackpoint>
            <Time>2019-04-08T08:33:16.000Z</Time>
            <Position>
              <LatitudeDegrees>28.25356875546276569366455078125</LatitudeDegrees>
              <LongitudeDegrees>-16.62437246181070804595947265625</LongitudeDegrees>
            </Position>
            <AltitudeMeters>2318.800048828125</AltitudeMeters>
            <DistanceMeters>14545.949968205</DistanceMeters>
          </Trackpoint>
          <Trackpoint>
            <Time>2019-04-08T08:33:18.000Z</Time>
            <Position>
              <LatitudeDegrees>28.25357529334723949432373046875</LatitudeDegrees>
              <LongitudeDegrees>-16.62438939325511455535888671875</LongitudeDegrees>
            </Position>
            <AltitudeMeters>2319</AltitudeMeters>
            <DistanceMeters>14547.762962366</DistanceMeters>
          </Trackpoint>
          <Trackpoint>
            <Time>2019-04-08T08:33:24.000Z</Time>
            <Position>
              <LatitudeDegrees>28.25360295362770557403564453125</LatitudeDegrees>
              <LongitudeDegrees>-16.62441822700202465057373046875</LongitudeDegrees>
            </Position>
            <AltitudeMeters>2319.39990234375</AltitudeMeters>
            <DistanceMeters>14551.941977542</DistanceMeters>
          </Trackpoint>
          <Trackpoint>
            <Time>2019-04-08T08:33:32.000Z</Time>
            <Position>
              <LatitudeDegrees>28.25358250178396701812744140625</LatitudeDegrees>
              <LongitudeDegrees>-16.62448368966579437255859375</LongitudeDegrees>
            </Position>
            <AltitudeMeters>2318.39990234375</AltitudeMeters>
            <DistanceMeters>14558.752151741</DistanceMeters>
          </Trackpoint>
          <Trackpoint>
            <Time>2019-04-08T08:33:39.000Z</Time>
            <Position>
              <LatitudeDegrees>28.25354754924774169921875</LatitudeDegrees>
              <LongitudeDegrees>-16.62453892640769481658935546875</LongitudeDegrees>
            </Position>
            <AltitudeMeters>2317.800048828125</AltitudeMeters>
            <DistanceMeters>14565.420292142</DistanceMeters>
          </Trackpoint>
          <Trackpoint>
            <Time>2019-04-08T08:33:42.000Z</Time>
            <Position>
              <LatitudeDegrees>28.2535292766988277435302734375</LatitudeDegrees>
              <LongitudeDegrees>-16.62456859834492206573486328125</LongitudeDegrees>
            </Position>
            <AltitudeMeters>2317.800048828125</AltitudeMeters>
            <DistanceMeters>14568.969511301</DistanceMeters>
          </Trackpoint>
          <Trackpoint>
            <Time>2019-04-08T08:33:45.000Z</Time>
            <Position>
              <LatitudeDegrees>28.25350488536059856414794921875</LatitudeDegrees>
              <LongitudeDegrees>-16.62459407933056354522705078125</LongitudeDegrees>
            </Position>
            <AltitudeMeters>2316.60009765625</AltitudeMeters>
            <DistanceMeters>14572.659681389</DistanceMeters>
          </Trackpoint>
          <Trackpoint>
            <Time>2019-04-08T08:33:49.000Z</Time>
            <Position>
              <LatitudeDegrees>28.25346096418797969818115234375</LatitudeDegrees>
              <LongitudeDegrees>-16.624611429870128631591796875</LongitudeDegrees>
            </Position>
            <AltitudeMeters>2316</AltitudeMeters>
            <DistanceMeters>14577.835803181</DistanceMeters>
          </Trackpoint>
          <Trackpoint>
            <Time>2019-04-08T08:33:54.000Z</Time>
            <Position>
              <LatitudeDegrees>28.2534089125692844390869140625</LatitudeDegrees>
              <LongitudeDegrees>-16.62463699467480182647705078125</LongitudeDegrees>
            </Position>
            <AltitudeMeters>2315.60009765625</AltitudeMeters>
            <DistanceMeters>14584.148467226</DistanceMeters>
          </Trackpoint>
          <Trackpoint>
            <Time>2019-04-08T08:33:59.000Z</Time>
            <Position>
              <LatitudeDegrees>28.25336960144340991973876953125</LatitudeDegrees>
              <LongitudeDegrees>-16.62468527443706989288330078125</LongitudeDegrees>
            </Position>
            <AltitudeMeters>2315.60009765625</AltitudeMeters>
            <DistanceMeters>14590.594193075</DistanceMeters>
          </Trackpoint>
          <Trackpoint>
            <Time>2019-04-08T08:34:07.000Z</Time>
            <Position>
              <LatitudeDegrees>28.2533287815749645233154296875</LatitudeDegrees>
              <LongitudeDegrees>-16.62474394775927066802978515625</LongitudeDegrees>
            </Position>
            <AltitudeMeters>2315.39990234375</AltitudeMeters>
            <DistanceMeters>14597.924812757</DistanceMeters>
          </Trackpoint>
          <Trackpoint>
            <Time>2019-04-08T08:34:18.000Z</Time>
            <Position>
              <LatitudeDegrees>28.25331763364374637603759765625</LatitudeDegrees>
              <LongitudeDegrees>-16.62473673932254314422607421875</LongitudeDegrees>
            </Position>
            <AltitudeMeters>2315.199951171875</AltitudeMeters>
            <DistanceMeters>14599.353377518</DistanceMeters>
          </Trackpoint>
          <Trackpoint>
            <Time>2019-04-08T08:34:19.000Z</Time>
            <Position>
              <LatitudeDegrees>28.253311850130558013916015625</LatitudeDegrees>
              <LongitudeDegrees>-16.62472735159099102020263671875</LongitudeDegrees>
            </Position>
            <AltitudeMeters>2315.199951171875</AltitudeMeters>
            <DistanceMeters>14600.477748765</DistanceMeters>
          </Trackpoint>
          <Trackpoint>
            <Time>2019-04-08T08:34:20.000Z</Time>
            <Position>
              <LatitudeDegrees>28.2533043064177036285400390625</LatitudeDegrees>
              <LongitudeDegrees>-16.62471746094524860382080078125</LongitudeDegrees>
            </Position>
            <AltitudeMeters>2315</AltitudeMeters>
            <DistanceMeters>14601.75972923</DistanceMeters>
          </Trackpoint>
          <Trackpoint>
            <Time>2019-04-08T08:34:27.000Z</Time>
            <Position>
              <LatitudeDegrees>28.25324554927647113800048828125</LatitudeDegrees>
              <LongitudeDegrees>-16.62466063164174556732177734375</LongitudeDegrees>
            </Position>
            <AltitudeMeters>2314.60009765625</AltitudeMeters>
            <DistanceMeters>14610.351111241</DistanceMeters>
          </Trackpoint>
          <Trackpoint>
            <Time>2019-04-08T08:34:31.000Z</Time>
            <Position>
              <LatitudeDegrees>28.25320917181670665740966796875</LatitudeDegrees>
              <LongitudeDegrees>-16.62462425418198108673095703125</LongitudeDegrees>
            </Position>
            <AltitudeMeters>2314</AltitudeMeters>
            <DistanceMeters>14615.746754526</DistanceMeters>
          </Trackpoint>
          <Trackpoint>
            <Time>2019-04-08T08:34:34.000Z</Time>
            <Position>
              <LatitudeDegrees>28.25318620540201663970947265625</LatitudeDegrees>
              <LongitudeDegrees>-16.6246058978140354156494140625</LongitudeDegrees>
            </Position>
            <AltitudeMeters>2313.800048828125</AltitudeMeters>
            <DistanceMeters>14618.872541261</DistanceMeters>
          </Trackpoint>
          <Trackpoint>
            <Time>2019-04-08T08:34:40.000Z</Time>
            <Position>
              <LatitudeDegrees>28.25313423760235309600830078125</LatitudeDegrees>
              <LongitudeDegrees>-16.62454881705343723297119140625</LongitudeDegrees>
            </Position>
            <AltitudeMeters>2313.39990234375</AltitudeMeters>
            <DistanceMeters>14626.920692498</DistanceMeters>
          </Trackpoint>
          <Trackpoint>
            <Time>2019-04-08T08:34:42.000Z</Time>
            <Position>
              <LatitudeDegrees>28.25311236083507537841796875</LatitudeDegrees>
              <LongitudeDegrees>-16.62452233023941516876220703125</LongitudeDegrees>
            </Position>
            <AltitudeMeters>2313.199951171875</AltitudeMeters>
            <DistanceMeters>14630.48007408</DistanceMeters>
          </Trackpoint>
          <Trackpoint>
            <Time>2019-04-08T08:34:46.000Z</Time>
            <Position>
              <LatitudeDegrees>28.2530729658901691436767578125</LatitudeDegrees>
              <LongitudeDegrees>-16.62448503077030181884765625</LongitudeDegrees>
            </Position>
            <AltitudeMeters>2313</AltitudeMeters>
            <DistanceMeters>14636.190381081</DistanceMeters>
          </Trackpoint>
          <Trackpoint>
            <Time>2019-04-08T08:34:54.000Z</Time>
            <Position>
              <LatitudeDegrees>28.25300565920770168304443359375</LatitudeDegrees>
              <LongitudeDegrees>-16.624434404075145721435546875</LongitudeDegrees>
            </Position>
            <AltitudeMeters>2312.800048828125</AltitudeMeters>
            <DistanceMeters>14645.176813835</DistanceMeters>
          </Trackpoint>
          <Trackpoint>
            <Time>2019-04-08T08:34:59.000Z</Time>
            <Position>
              <LatitudeDegrees>28.2529561221599578857421875</LatitudeDegrees>
              <LongitudeDegrees>-16.62440347485244274139404296875</LongitudeDegrees>
            </Position>
            <AltitudeMeters>2312.39990234375</AltitudeMeters>
            <DistanceMeters>14651.470136906</DistanceMeters>
          </Trackpoint>
          <Trackpoint>
            <Time>2019-04-08T08:35:01.000Z</Time>
            <Position>
              <LatitudeDegrees>28.252936340868473052978515625</LatitudeDegrees>
              <LongitudeDegrees>-16.62438821978867053985595703125</LongitudeDegrees>
            </Position>
            <AltitudeMeters>2312.39990234375</AltitudeMeters>
            <DistanceMeters>14654.132581273</DistanceMeters>
          </Trackpoint>
          <Trackpoint>
            <Time>2019-04-08T08:35:05.000Z</Time>
            <Position>
              <LatitudeDegrees>28.25289468280971050262451171875</LatitudeDegrees>
              <LongitudeDegrees>-16.62435100413858890533447265625</LongitudeDegrees>
            </Position>
            <AltitudeMeters>2312.199951171875</AltitudeMeters>
            <DistanceMeters>14660.031896031</DistanceMeters>
          </Trackpoint>
          <Trackpoint>
            <Time>2019-04-08T08:35:11.000Z</Time>
            <Position>
              <LatitudeDegrees>28.252840451896190643310546875</LatitudeDegrees>
              <LongitudeDegrees>-16.62430205382406711578369140625</LongitudeDegrees>
            </Position>
            <AltitudeMeters>2311.60009765625</AltitudeMeters>
            <DistanceMeters>14667.743125076</DistanceMeters>
          </Trackpoint>
          <Trackpoint>
            <Time>2019-04-08T08:35:12.000Z</Time>
            <Position>
              <LatitudeDegrees>28.25283165089786052703857421875</LatitudeDegrees>
              <LongitudeDegrees>-16.6242920793592929840087890625</LongitudeDegrees>
            </Position>
            <AltitudeMeters>2311.60009765625</AltitudeMeters>
            <DistanceMeters>14669.129994314</DistanceMeters>
          </Trackpoint>
          <Trackpoint>
            <Time>2019-04-08T08:35:22.000Z</Time>
            <Position>
              <LatitudeDegrees>28.25274489820003509521484375</LatitudeDegrees>
              <LongitudeDegrees>-16.62419535219669342041015625</LongitudeDegrees>
            </Position>
            <AltitudeMeters>2310.60009765625</AltitudeMeters>
            <DistanceMeters>14682.663880326</DistanceMeters>
          </Trackpoint>
          <Trackpoint>
            <Time>2019-04-08T08:35:29.000Z</Time>
            <Position>
              <LatitudeDegrees>28.25266485102474689483642578125</LatitudeDegrees>
              <LongitudeDegrees>-16.6241016425192356109619140625</LongitudeDegrees>
            </Position>
            <AltitudeMeters>2310.39990234375</AltitudeMeters>
            <DistanceMeters>14695.462183207</DistanceMeters>
          </Trackpoint>
          <Trackpoint>
            <Time>2019-04-08T08:35:33.000Z</Time>
            <Position>
              <LatitudeDegrees>28.2526233606040477752685546875</LatitudeDegrees>
              <LongitudeDegrees>-16.6240590624511241912841796875</LongitudeDegrees>
            </Position>
            <AltitudeMeters>2310</AltitudeMeters>
            <DistanceMeters>14701.687702309</DistanceMeters>
          </Trackpoint>
          <Trackpoint>
            <Time>2019-04-08T08:35:39.000Z</Time>
            <Position>
              <LatitudeDegrees>28.25256125070154666900634765625</LatitudeDegrees>
              <LongitudeDegrees>-16.62399418652057647705078125</LongitudeDegrees>
            </Position>
            <AltitudeMeters>2309.60009765625</AltitudeMeters>
            <DistanceMeters>14711.081418667</DistanceMeters>
          </Trackpoint>
          <Trackpoint>
            <Time>2019-04-08T08:35:45.000Z</Time>
            <Position>
              <LatitudeDegrees>28.2525001466274261474609375</LatitudeDegrees>
              <LongitudeDegrees>-16.6239504329860210418701171875</LongitudeDegrees>
            </Position>
            <AltitudeMeters>2309.199951171875</AltitudeMeters>
            <DistanceMeters>14719.122273556</DistanceMeters>
          </Trackpoint>
          <Trackpoint>
            <Time>2019-04-08T08:35:51.000Z</Time>
            <Position>
              <LatitudeDegrees>28.25244138948619365692138671875</LatitudeDegrees>
              <LongitudeDegrees>-16.62389720790088176727294921875</LongitudeDegrees>
            </Position>
            <AltitudeMeters>2308.60009765625</AltitudeMeters>
            <DistanceMeters>14727.488403038</DistanceMeters>
          </Trackpoint>
          <Trackpoint>
            <Time>2019-04-08T08:35:52.000Z</Time>
            <Position>
              <LatitudeDegrees>28.25243216939270496368408203125</LatitudeDegrees>
              <LongitudeDegrees>-16.6238904185593128204345703125</LongitudeDegrees>
            </Position>
            <AltitudeMeters>2308.60009765625</AltitudeMeters>
            <DistanceMeters>14728.712736608</DistanceMeters>
          </Trackpoint>
          <Trackpoint>
            <Time>2019-04-08T08:35:55.000Z</Time>
            <Position>
              <LatitudeDegrees>28.2524094544351100921630859375</LatitudeDegrees>
              <LongitudeDegrees>-16.623865775763988494873046875</LongitudeDegrees>
            </Position>
            <AltitudeMeters>2308.60009765625</AltitudeMeters>
            <DistanceMeters>14732.209409813</DistanceMeters>
          </Trackpoint>
          <Trackpoint>
            <Time>2019-04-08T08:36:02.000Z</Time>
            <Position>
              <LatitudeDegrees>28.2523487694561481475830078125</LatitudeDegrees>
              <LongitudeDegrees>-16.62379628978669643402099609375</LongitudeDegrees>
            </Position>
            <AltitudeMeters>2308.199951171875</AltitudeMeters>
            <DistanceMeters>14741.802873167</DistanceMeters>
          </Trackpoint>
          <Trackpoint>
            <Time>2019-04-08T08:36:04.000Z</Time>
            <Position>
              <LatitudeDegrees>28.25233007781207561492919921875</LatitudeDegrees>
              <LongitudeDegrees>-16.62377265281975269317626953125</LongitudeDegrees>
            </Position>
            <AltitudeMeters>2307.800048828125</AltitudeMeters>
            <DistanceMeters>14744.917082874</DistanceMeters>
          </Trackpoint>
          <Trackpoint>
            <Time>2019-04-08T08:36:12.000Z</Time>
            <Position>
              <LatitudeDegrees>28.2522431574761867523193359375</LatitudeDegrees>
              <LongitudeDegrees>-16.62369185127317905426025390625</LongitudeDegrees>
            </Position>
            <AltitudeMeters>2307.39990234375</AltitudeMeters>
            <DistanceMeters>14757.421313103</DistanceMeters>
          </Trackpoint>
          <Trackpoint>
            <Time>2019-04-08T08:36:15.000Z</Time>
            <Position>
              <LatitudeDegrees>28.25220719911158084869384765625</LatitudeDegrees>
              <LongitudeDegrees>-16.62365161813795566558837890625</LongitudeDegrees>
            </Position>
            <AltitudeMeters>2307</AltitudeMeters>
            <DistanceMeters>14763.040759457</DistanceMeters>
          </Trackpoint>
          <Trackpoint>
            <Time>2019-04-08T08:36:18.000Z</Time>
            <Position>
              <LatitudeDegrees>28.2521729171276092529296875</LatitudeDegrees>
              <LongitudeDegrees>-16.62360652349889278411865234375</LongitudeDegrees>
            </Position>
            <AltitudeMeters>2306.60009765625</AltitudeMeters>
            <DistanceMeters>14768.880844964</DistanceMeters>
          </Trackpoint>
          <Trackpoint>
            <Time>2019-04-08T08:36:24.000Z</Time>
            <Position>
              <LatitudeDegrees>28.252126313745975494384765625</LatitudeDegrees>
              <LongitudeDegrees>-16.62354198284447193145751953125</LongitudeDegrees>
            </Position>
            <AltitudeMeters>2306.39990234375</AltitudeMeters>
            <DistanceMeters>14777.063081013</DistanceMeters>
          </Trackpoint>
          <Trackpoint>
            <Time>2019-04-08T08:36:30.000Z</Time>
            <Position>
              <LatitudeDegrees>28.2520798780024051666259765625</LatitudeDegrees>
              <LongitudeDegrees>-16.62347626872360706329345703125</LongitudeDegrees>
            </Position>
            <AltitudeMeters>2306.800048828125</AltitudeMeters>
            <DistanceMeters>14785.322755796</DistanceMeters>
          </Trackpoint>
          <Trackpoint>
            <Time>2019-04-08T08:36:35.000Z</Time>
            <Position>
              <LatitudeDegrees>28.2520401477813720703125</LatitudeDegrees>
              <LongitudeDegrees>-16.62342614494264125823974609375</LongitudeDegrees>
            </Position>
            <AltitudeMeters>2306</AltitudeMeters>
            <DistanceMeters>14791.933774628</DistanceMeters>
          </Trackpoint>
          <Trackpoint>
            <Time>2019-04-08T08:36:37.000Z</Time>
            <Position>
              <LatitudeDegrees>28.25202330015599727630615234375</LatitudeDegrees>
              <LongitudeDegrees>-16.623401753604412078857421875</LongitudeDegrees>
            </Position>
            <AltitudeMeters>2306</AltitudeMeters>
            <DistanceMeters>14794.973144333</DistanceMeters>
          </Trackpoint>
          <Trackpoint>
            <Time>2019-04-08T08:36:43.000Z</Time>
            <Position>
              <LatitudeDegrees>28.25197736732661724090576171875</LatitudeDegrees>
              <LongitudeDegrees>-16.6233234666287899017333984375</LongitudeDegrees>
            </Position>
            <AltitudeMeters>2305.800048828125</AltitudeMeters>
            <DistanceMeters>14804.195143029</DistanceMeters>
          </Trackpoint>
          <Trackpoint>
            <Time>2019-04-08T08:36:47.000Z</Time>
            <Position>
              <LatitudeDegrees>28.2519585080444812774658203125</LatitudeDegrees>
              <LongitudeDegrees>-16.62327468395233154296875</LongitudeDegrees>
            </Position>
            <AltitudeMeters>2305.800048828125</AltitudeMeters>
            <DistanceMeters>14809.418155659</DistanceMeters>
          </Trackpoint>
          <Trackpoint>
            <Time>2019-04-08T08:36:51.000Z</Time>
            <Position>
              <LatitudeDegrees>28.25193780474364757537841796875</LatitudeDegrees>
              <LongitudeDegrees>-16.6232250630855560302734375</LongitudeDegrees>
            </Position>
            <AltitudeMeters>2305.800048828125</AltitudeMeters>
            <DistanceMeters>14814.800393598</DistanceMeters>
          </Trackpoint>
          <Trackpoint>
            <Time>2019-04-08T08:36:57.000Z</Time>
            <Position>
              <LatitudeDegrees>28.2519078813493251800537109375</LatitudeDegrees>
              <LongitudeDegrees>-16.62314719520509243011474609375</LongitudeDegrees>
            </Position>
            <AltitudeMeters>2306</AltitudeMeters>
            <DistanceMeters>14823.129743952</DistanceMeters>
          </Trackpoint>
          <Trackpoint>
            <Time>2019-04-08T08:37:03.000Z</Time>
            <Position>
              <LatitudeDegrees>28.251868821680545806884765625</LatitudeDegrees>
              <LongitudeDegrees>-16.623056419193744659423828125</LongitudeDegrees>
            </Position>
            <AltitudeMeters>2305.39990234375</AltitudeMeters>
            <DistanceMeters>14833.035338868</DistanceMeters>
          </Trackpoint>
          <Trackpoint>
            <Time>2019-04-08T08:37:05.000Z</Time>
            <Position>
              <LatitudeDegrees>28.25185851193964481353759765625</LatitudeDegrees>
              <LongitudeDegrees>-16.6230319440364837646484375</LongitudeDegrees>
            </Position>
            <AltitudeMeters>2305</AltitudeMeters>
            <DistanceMeters>14835.69608687</DistanceMeters>
          </Trackpoint>
          <Trackpoint>
            <Time>2019-04-08T08:37:09.000Z</Time>
            <Position>
              <LatitudeDegrees>28.2518351264297962188720703125</LatitudeDegrees>
              <LongitudeDegrees>-16.62297670729458332061767578125</LongitudeDegrees>
            </Position>
            <AltitudeMeters>2305</AltitudeMeters>
            <DistanceMeters>14841.704601298</DistanceMeters>
          </Trackpoint>
          <Trackpoint>
            <Time>2019-04-08T08:37:12.000Z</Time>
            <Position>
              <LatitudeDegrees>28.251817524433135986328125</LatitudeDegrees>
              <LongitudeDegrees>-16.62293245084583759307861328125</LongitudeDegrees>
            </Position>
            <AltitudeMeters>2305</AltitudeMeters>
            <DistanceMeters>14846.465430204</DistanceMeters>
          </Trackpoint>
          <Trackpoint>
            <Time>2019-04-08T08:37:16.000Z</Time>
            <Position>
              <LatitudeDegrees>28.25179916806519031524658203125</LatitudeDegrees>
              <LongitudeDegrees>-16.62288417108356952667236328125</LongitudeDegrees>
            </Position>
            <AltitudeMeters>2305.39990234375</AltitudeMeters>
            <DistanceMeters>14851.621450476</DistanceMeters>
          </Trackpoint>
          <Trackpoint>
            <Time>2019-04-08T08:37:21.000Z</Time>
            <Position>
              <LatitudeDegrees>28.251774609088897705078125</LatitudeDegrees>
              <LongitudeDegrees>-16.62281543947756290435791015625</LongitudeDegrees>
            </Position>
            <AltitudeMeters>2305.60009765625</AltitudeMeters>
            <DistanceMeters>14858.893943703</DistanceMeters>
          </Trackpoint>
          <Trackpoint>
            <Time>2019-04-08T08:37:30.000Z</Time>
            <Position>
              <LatitudeDegrees>28.25173504650592803955078125</LatitudeDegrees>
              <LongitudeDegrees>-16.6226965002715587615966796875</LongitudeDegrees>
            </Position>
            <AltitudeMeters>2305.199951171875</AltitudeMeters>
            <DistanceMeters>14871.358753982</DistanceMeters>
          </Trackpoint>
          <Trackpoint>
            <Time>2019-04-08T08:37:42.000Z</Time>
            <Position>
              <LatitudeDegrees>28.25168098323047161102294921875</LatitudeDegrees>
              <LongitudeDegrees>-16.6225281916558742523193359375</LongitudeDegrees>
            </Position>
            <AltitudeMeters>2305.60009765625</AltitudeMeters>
            <DistanceMeters>14888.923022587</DistanceMeters>
          </Trackpoint>
          <Trackpoint>
            <Time>2019-04-08T08:37:50.000Z</Time>
            <Position>
              <LatitudeDegrees>28.25164276175200939178466796875</LatitudeDegrees>
              <LongitudeDegrees>-16.6224286146461963653564453125</LongitudeDegrees>
            </Position>
            <AltitudeMeters>2305.60009765625</AltitudeMeters>
            <DistanceMeters>14899.572376092</DistanceMeters>
          </Trackpoint>
          <Trackpoint>
            <Time>2019-04-08T08:37:56.000Z</Time>
            <Position>
              <LatitudeDegrees>28.2516128383576869964599609375</LatitudeDegrees>
              <LongitudeDegrees>-16.6223444603383541107177734375</LongitudeDegrees>
            </Position>
            <AltitudeMeters>2305.39990234375</AltitudeMeters>
            <DistanceMeters>14908.470449493</DistanceMeters>
          </Trackpoint>
          <Trackpoint>
            <Time>2019-04-08T08:38:02.000Z</Time>
            <Position>
              <LatitudeDegrees>28.25158643536269664764404296875</LatitudeDegrees>
              <LongitudeDegrees>-16.62227162159979343414306640625</LongitudeDegrees>
            </Position>
            <AltitudeMeters>2305.199951171875</AltitudeMeters>
            <DistanceMeters>14916.192795305</DistanceMeters>
          </Trackpoint>
          <Trackpoint>
            <Time>2019-04-08T08:38:09.000Z</Time>
            <Position>
              <LatitudeDegrees>28.251540251076221466064453125</LatitudeDegrees>
              <LongitudeDegrees>-16.62216014228761196136474609375</LongitudeDegrees>
            </Position>
            <AltitudeMeters>2305.199951171875</AltitudeMeters>
            <DistanceMeters>14928.270911257</DistanceMeters>
          </Trackpoint>
          <Trackpoint>
            <Time>2019-04-08T08:38:15.000Z</Time>
            <Position>
              <LatitudeDegrees>28.2514943182468414306640625</LatitudeDegrees>
              <LongitudeDegrees>-16.6220718808472156524658203125</LongitudeDegrees>
            </Position>
            <AltitudeMeters>2305</AltitudeMeters>
            <DistanceMeters>14938.32175526</DistanceMeters>
          </Trackpoint>
          <Trackpoint>
            <Time>2019-04-08T08:38:18.000Z</Time>
            <Position>
              <LatitudeDegrees>28.2514736987650394439697265625</LatitudeDegrees>
              <LongitudeDegrees>-16.62202569656074047088623046875</LongitudeDegrees>
            </Position>
            <AltitudeMeters>2304.800048828125</AltitudeMeters>
            <DistanceMeters>14943.397462905</DistanceMeters>
          </Trackpoint>
          <Trackpoint>
            <Time>2019-04-08T08:38:25.000Z</Time>
            <Position>
              <LatitudeDegrees>28.251407146453857421875</LatitudeDegrees>
              <LongitudeDegrees>-16.62192226387560367584228515625</LongitudeDegrees>
            </Position>
            <AltitudeMeters>2304.60009765625</AltitudeMeters>
            <DistanceMeters>14955.956097989</DistanceMeters>
          </Trackpoint>
          <Trackpoint>
            <Time>2019-04-08T08:38:28.000Z</Time>
            <Position>
              <LatitudeDegrees>28.25137722305953502655029296875</LatitudeDegrees>
              <LongitudeDegrees>-16.62187381647527217864990234375</LongitudeDegrees>
            </Position>
            <AltitudeMeters>2304</AltitudeMeters>
            <DistanceMeters>14961.758177356</DistanceMeters>
          </Trackpoint>
          <Trackpoint>
            <Time>2019-04-08T08:38:31.000Z</Time>
            <Position>
              <LatitudeDegrees>28.2513516582548618316650390625</LatitudeDegrees>
              <LongitudeDegrees>-16.62184037268161773681640625</LongitudeDegrees>
            </Position>
            <AltitudeMeters>2303.800048828125</AltitudeMeters>
            <DistanceMeters>14966.099348804</DistanceMeters>
          </Trackpoint>
          <Trackpoint>
            <Time>2019-04-08T08:38:35.000Z</Time>
            <Position>
              <LatitudeDegrees>28.25131704099476337432861328125</LatitudeDegrees>
              <LongitudeDegrees>-16.6217946074903011322021484375</LongitudeDegrees>
            </Position>
            <AltitudeMeters>2303.199951171875</AltitudeMeters>
            <DistanceMeters>14972.012423807</DistanceMeters>
          </Trackpoint>
          <Trackpoint>
            <Time>2019-04-08T08:38:41.000Z</Time>
            <Position>
              <LatitudeDegrees>28.25126054696738719940185546875</LatitudeDegrees>
              <LongitudeDegrees>-16.621732749044895172119140625</LongitudeDegrees>
            </Position>
            <AltitudeMeters>2303</AltitudeMeters>
            <DistanceMeters>14980.748681936</DistanceMeters>
          </Trackpoint>
          <Trackpoint>
            <Time>2019-04-08T08:38:50.000Z</Time>
            <Position>
              <LatitudeDegrees>28.25116801075637340545654296875</LatitudeDegrees>
              <LongitudeDegrees>-16.621613390743732452392578125</LongitudeDegrees>
            </Position>
            <AltitudeMeters>2302</AltitudeMeters>
            <DistanceMeters>14996.338277101</DistanceMeters>
          </Trackpoint>
          <Trackpoint>
            <Time>2019-04-08T08:38:51.000Z</Time>
            <Position>
              <LatitudeDegrees>28.25115895830094814300537109375</LatitudeDegrees>
              <LongitudeDegrees>-16.6215991415083408355712890625</LongitudeDegrees>
            </Position>
            <AltitudeMeters>2302</AltitudeMeters>
            <DistanceMeters>14998.064523094</DistanceMeters>
          </Trackpoint>
          <Trackpoint>
            <Time>2019-04-08T08:38:57.000Z</Time>
            <Position>
              <LatitudeDegrees>28.25110833160579204559326171875</LatitudeDegrees>
              <LongitudeDegrees>-16.62152965553104877471923828125</LongitudeDegrees>
            </Position>
            <AltitudeMeters>2301.199951171875</AltitudeMeters>
            <DistanceMeters>15006.905583081</DistanceMeters>
          </Trackpoint>
          <Trackpoint>
            <Time>2019-04-08T08:39:01.000Z</Time>
            <Position>
              <LatitudeDegrees>28.25108201242983341217041015625</LatitudeDegrees>
              <LongitudeDegrees>-16.6214869916439056396484375</LongitudeDegrees>
            </Position>
            <AltitudeMeters>2301</AltitudeMeters>
            <DistanceMeters>15012.01321373</DistanceMeters>
          </Trackpoint>
          <Trackpoint>
            <Time>2019-04-08T08:39:02.000Z</Time>
            <Position>
              <LatitudeDegrees>28.251074217259883880615234375</LatitudeDegrees>
              <LongitudeDegrees>-16.62147249095141887664794921875</LongitudeDegrees>
            </Position>
            <AltitudeMeters>2300.800048828125</AltitudeMeters>
            <DistanceMeters>15013.678216273</DistanceMeters>
          </Trackpoint>
          <Trackpoint>
            <Time>2019-04-08T08:39:07.000Z</Time>
            <Position>
              <LatitudeDegrees>28.251041360199451446533203125</LatitudeDegrees>
              <LongitudeDegrees>-16.6214087046682834625244140625</LongitudeDegrees>
            </Position>
            <AltitudeMeters>2300.60009765625</AltitudeMeters>
            <DistanceMeters>15020.922717932</DistanceMeters>
          </Trackpoint>
          <Trackpoint>
            <Time>2019-04-08T08:39:13.000Z</Time>
            <Position>
              <LatitudeDegrees>28.25099517591297626495361328125</LatitudeDegrees>
              <LongitudeDegrees>-16.6213168390095233917236328125</LongitudeDegrees>
            </Position>
            <AltitudeMeters>2300.39990234375</AltitudeMeters>
            <DistanceMeters>15031.292827882</DistanceMeters>
          </Trackpoint>
          <Trackpoint>
            <Time>2019-04-08T08:39:22.000Z</Time>
            <Position>
              <LatitudeDegrees>28.25092242099344730377197265625</LatitudeDegrees>
              <LongitudeDegrees>-16.62120108492672443389892578125</LongitudeDegrees>
            </Position>
            <AltitudeMeters>2300</AltitudeMeters>
            <DistanceMeters>15045.234577968</DistanceMeters>
          </Trackpoint>
          <Trackpoint>
            <Time>2019-04-08T08:39:24.000Z</Time>
            <Position>
              <LatitudeDegrees>28.250905908644199371337890625</LatitudeDegrees>
              <LongitudeDegrees>-16.62116806022822856903076171875</LongitudeDegrees>
            </Position>
            <AltitudeMeters>2299.800048828125</AltitudeMeters>
            <DistanceMeters>15048.957636837</DistanceMeters>
          </Trackpoint>
          <Trackpoint>
            <Time>2019-04-08T08:39:28.000Z</Time>
            <Position>
              <LatitudeDegrees>28.25087531469762325286865234375</LatitudeDegrees>
              <LongitudeDegrees>-16.62112195976078510284423828125</LongitudeDegrees>
            </Position>
            <AltitudeMeters>2299.60009765625</AltitudeMeters>
            <DistanceMeters>15054.617113946</DistanceMeters>
          </Trackpoint>
          <Trackpoint>
            <Time>2019-04-08T08:39:32.000Z</Time>
            <Position>
              <LatitudeDegrees>28.250847570598125457763671875</LatitudeDegrees>
              <LongitudeDegrees>-16.62107837386429309844970703125</LongitudeDegrees>
            </Position>
            <AltitudeMeters>2299.39990234375</AltitudeMeters>
            <DistanceMeters>15059.888313546</DistanceMeters>
          </Trackpoint>
          <Trackpoint>
            <Time>2019-04-08T08:39:36.000Z</Time>
            <Position>
              <LatitudeDegrees>28.25081127695739269256591796875</LatitudeDegrees>
              <LongitudeDegrees>-16.6210338659584522247314453125</LongitudeDegrees>
            </Position>
            <AltitudeMeters>2299</AltitudeMeters>
            <DistanceMeters>15065.834890658</DistanceMeters>
          </Trackpoint>
          <Trackpoint>
            <Time>2019-04-08T08:39:37.000Z</Time>
            <Position>
              <LatitudeDegrees>28.25080272741615772247314453125</LatitudeDegrees>
              <LongitudeDegrees>-16.6210224665701389312744140625</LongitudeDegrees>
            </Position>
            <AltitudeMeters>2299</AltitudeMeters>
            <DistanceMeters>15067.300891406</DistanceMeters>
          </Trackpoint>
          <Trackpoint>
            <Time>2019-04-08T08:39:41.000Z</Time>
            <Position>
              <LatitudeDegrees>28.25076970271766185760498046875</LatitudeDegrees>
              <LongitudeDegrees>-16.620977036654949188232421875</LongitudeDegrees>
            </Position>
            <AltitudeMeters>2298.199951171875</AltitudeMeters>
            <DistanceMeters>15073.074888482</DistanceMeters>
          </Trackpoint>
          <Trackpoint>
            <Time>2019-04-08T08:39:43.000Z</Time>
            <Position>
              <LatitudeDegrees>28.25075327418744564056396484375</LatitudeDegrees>
              <LongitudeDegrees>-16.6209611110389232635498046875</LongitudeDegrees>
            </Position>
            <AltitudeMeters>2297.800048828125</AltitudeMeters>
            <DistanceMeters>15075.47889533</DistanceMeters>
          </Trackpoint>
          <Trackpoint>
            <Time>2019-04-08T08:39:45.000Z</Time>
            <Position>
              <LatitudeDegrees>28.2507352530956268310546875</LatitudeDegrees>
              <LongitudeDegrees>-16.620937474071979522705078125</LongitudeDegrees>
            </Position>
            <AltitudeMeters>2297.800048828125</AltitudeMeters>
            <DistanceMeters>15078.543414787</DistanceMeters>
          </Trackpoint>
          <Trackpoint>
            <Time>2019-04-08T08:39:51.000Z</Time>
            <Position>
              <LatitudeDegrees>28.25069191865622997283935546875</LatitudeDegrees>
              <LongitudeDegrees>-16.620868742465972900390625</LongitudeDegrees>
            </Position>
            <AltitudeMeters>2297.800048828125</AltitudeMeters>
            <DistanceMeters>15086.82983146</DistanceMeters>
          </Trackpoint>
          <Trackpoint>
            <Time>2019-04-08T08:39:56.000Z</Time>
            <Position>
              <LatitudeDegrees>28.2506391964852809906005859375</LatitudeDegrees>
              <LongitudeDegrees>-16.6207961551845073699951171875</LongitudeDegrees>
            </Position>
            <AltitudeMeters>2296.800048828125</AltitudeMeters>
            <DistanceMeters>15096.053788325</DistanceMeters>
          </Trackpoint>
          <Trackpoint>
            <Time>2019-04-08T08:39:59.000Z</Time>
            <Position>
              <LatitudeDegrees>28.2506093569099903106689453125</LatitudeDegrees>
              <LongitudeDegrees>-16.62075181491672992706298828125</LongitudeDegrees>
            </Position>
            <AltitudeMeters>2296.199951171875</AltitudeMeters>
            <DistanceMeters>15101.524224627</DistanceMeters>
          </Trackpoint>
          <Trackpoint>
            <Time>2019-04-08T08:40:03.000Z</Time>
            <Position>
              <LatitudeDegrees>28.25057390145957469940185546875</LatitudeDegrees>
              <LongitudeDegrees>-16.62069582380354404449462890625</LongitudeDegrees>
            </Position>
            <AltitudeMeters>2295.60009765625</AltitudeMeters>
            <DistanceMeters>15108.285159988</DistanceMeters>
          </Trackpoint>
          <Trackpoint>
            <Time>2019-04-08T08:40:06.000Z</Time>
            <Position>
              <LatitudeDegrees>28.25055043213069438934326171875</LatitudeDegrees>
              <LongitudeDegrees>-16.62065240554511547088623046875</LongitudeDegrees>
            </Position>
            <AltitudeMeters>2295.199951171875</AltitudeMeters>
            <DistanceMeters>15113.280167618</DistanceMeters>
          </Trackpoint>
          <Trackpoint>
            <Time>2019-04-08T08:40:09.000Z</Time>
            <Position>
              <LatitudeDegrees>28.25052595697343349456787109375</LatitudeDegrees>
              <LongitudeDegrees>-16.62060898728668689727783203125</LongitudeDegrees>
            </Position>
            <AltitudeMeters>2294.60009765625</AltitudeMeters>
            <DistanceMeters>15118.334481247</DistanceMeters>
          </Trackpoint>
          <Trackpoint>
            <Time>2019-04-08T08:40:13.000Z</Time>
            <Position>
              <LatitudeDegrees>28.2504940219223499298095703125</LatitudeDegrees>
              <LongitudeDegrees>-16.62056003697216510772705078125</LongitudeDegrees>
            </Position>
            <AltitudeMeters>2294</AltitudeMeters>
            <DistanceMeters>15124.306061597</DistanceMeters>
          </Trackpoint>
          <Trackpoint>
            <Time>2019-04-08T08:40:17.000Z</Time>
            <Position>
              <LatitudeDegrees>28.250459991395473480224609375</LatitudeDegrees>
              <LongitudeDegrees>-16.6205011121928691864013671875</LongitudeDegrees>
            </Position>
            <AltitudeMeters>2293.39990234375</AltitudeMeters>
            <DistanceMeters>15131.214314198</DistanceMeters>
          </Trackpoint>
          <Trackpoint>
            <Time>2019-04-08T08:40:19.000Z</Time>
            <Position>
              <LatitudeDegrees>28.25044892728328704833984375</LatitudeDegrees>
              <LongitudeDegrees>-16.6204783134162425994873046875</LongitudeDegrees>
            </Position>
            <AltitudeMeters>2293.199951171875</AltitudeMeters>
            <DistanceMeters>15133.765918618</DistanceMeters>
          </Trackpoint>
          <Trackpoint>
            <Time>2019-04-08T08:40:26.000Z</Time>
            <Position>
              <LatitudeDegrees>28.2503919303417205810546875</LatitudeDegrees>
              <LongitudeDegrees>-16.6204015351831912994384765625</LongitudeDegrees>
            </Position>
            <AltitudeMeters>2292.60009765625</AltitudeMeters>
            <DistanceMeters>15143.609787284</DistanceMeters>
          </Trackpoint>
          <Trackpoint>
            <Time>2019-04-08T08:40:28.000Z</Time>
            <Position>
              <LatitudeDegrees>28.25037181377410888671875</LatitudeDegrees>
              <LongitudeDegrees>-16.62038301117718219757080078125</LongitudeDegrees>
            </Position>
            <AltitudeMeters>2292.199951171875</AltitudeMeters>
            <DistanceMeters>15146.49209024</DistanceMeters>
          </Trackpoint>
          <Trackpoint>
            <Time>2019-04-08T08:40:30.000Z</Time>
            <Position>
              <LatitudeDegrees>28.25035345740616321563720703125</LatitudeDegrees>
              <LongitudeDegrees>-16.62036473862826824188232421875</LongitudeDegrees>
            </Position>
            <AltitudeMeters>2292</AltitudeMeters>
            <DistanceMeters>15149.208258949</DistanceMeters>
          </Trackpoint>
          <Trackpoint>
            <Time>2019-04-08T08:40:35.000Z</Time>
            <Position>
              <LatitudeDegrees>28.25032948516309261322021484375</LatitudeDegrees>
              <LongitudeDegrees>-16.62028661929070949554443359375</LongitudeDegrees>
            </Position>
            <AltitudeMeters>2291.199951171875</AltitudeMeters>
            <DistanceMeters>15157.318442474</DistanceMeters>
          </Trackpoint>
          <Trackpoint>
            <Time>2019-04-08T08:40:36.000Z</Time>
            <Position>
              <LatitudeDegrees>28.2503235340118408203125</LatitudeDegrees>
              <LongitudeDegrees>-16.62027262151241302490234375</LongitudeDegrees>
            </Position>
            <AltitudeMeters>2291</AltitudeMeters>
            <DistanceMeters>15158.844797519</DistanceMeters>
          </Trackpoint>
          <Trackpoint>
            <Time>2019-04-08T08:40:39.000Z</Time>
            <Position>
              <LatitudeDegrees>28.25030417181551456451416015625</LatitudeDegrees>
              <LongitudeDegrees>-16.62023683078587055206298828125</LongitudeDegrees>
            </Position>
            <AltitudeMeters>2290.60009765625</AltitudeMeters>
            <DistanceMeters>15162.96286546</DistanceMeters>
          </Trackpoint>
          <Trackpoint>
            <Time>2019-04-08T08:40:44.000Z</Time>
            <Position>
              <LatitudeDegrees>28.25027349404990673065185546875</LatitudeDegrees>
              <LongitudeDegrees>-16.62017916329205036163330078125</LongitudeDegrees>
            </Position>
            <AltitudeMeters>2290</AltitudeMeters>
            <DistanceMeters>15169.567734822</DistanceMeters>
          </Trackpoint>
          <Trackpoint>
            <Time>2019-04-08T08:40:45.000Z</Time>
            <Position>
              <LatitudeDegrees>28.250266872346401214599609375</LatitudeDegrees>
              <LongitudeDegrees>-16.62016675807535648345947265625</LongitudeDegrees>
            </Position>
            <AltitudeMeters>2290</AltitudeMeters>
            <DistanceMeters>15170.989964453</DistanceMeters>
          </Trackpoint>
          <Trackpoint>
            <Time>2019-04-08T08:40:49.000Z</Time>
            <Position>
              <LatitudeDegrees>28.25025849044322967529296875</LatitudeDegrees>
              <LongitudeDegrees>-16.62012250162661075592041015625</LongitudeDegrees>
            </Position>
            <AltitudeMeters>2289.800048828125</AltitudeMeters>
            <DistanceMeters>15175.428841203</DistanceMeters>
          </Trackpoint>
          <Trackpoint>
            <Time>2019-04-08T08:40:56.000Z</Time>
            <Position>
              <LatitudeDegrees>28.2502700574696063995361328125</LatitudeDegrees>
              <LongitudeDegrees>-16.62002208642661571502685546875</LongitudeDegrees>
            </Position>
            <AltitudeMeters>2289</AltitudeMeters>
            <DistanceMeters>15185.358109787</DistanceMeters>
          </Trackpoint>
          <Trackpoint>
            <Time>2019-04-08T08:40:59.000Z</Time>
            <Position>
              <LatitudeDegrees>28.25027181766927242279052734375</LatitudeDegrees>
              <LongitudeDegrees>-16.61997347138822078704833984375</LongitudeDegrees>
            </Position>
            <AltitudeMeters>2287.60009765625</AltitudeMeters>
            <DistanceMeters>15190.128412989</DistanceMeters>
          </Trackpoint>
          <Trackpoint>
            <Time>2019-04-08T08:41:03.000Z</Time>
            <Position>
              <LatitudeDegrees>28.25027500279247760772705078125</LatitudeDegrees>
              <LongitudeDegrees>-16.61991915665566921234130859375</LongitudeDegrees>
            </Position>
            <AltitudeMeters>2287.60009765625</AltitudeMeters>
            <DistanceMeters>15195.465159293</DistanceMeters>
          </Trackpoint>
          <Trackpoint>
            <Time>2019-04-08T08:41:07.000Z</Time>
            <Position>
              <LatitudeDegrees>28.2502754218876361846923828125</LatitudeDegrees>
              <LongitudeDegrees>-16.6198580525815486907958984375</LongitudeDegrees>
            </Position>
            <AltitudeMeters>2287.39990234375</AltitudeMeters>
            <DistanceMeters>15201.455612012</DistanceMeters>
          </Trackpoint>
          <Trackpoint>
            <Time>2019-04-08T08:41:12.000Z</Time>
            <Position>
              <LatitudeDegrees>28.25026477687060832977294921875</LatitudeDegrees>
              <LongitudeDegrees>-16.6197685338556766510009765625</LongitudeDegrees>
            </Position>
            <AltitudeMeters>2287.199951171875</AltitudeMeters>
            <DistanceMeters>15210.311979439</DistanceMeters>
          </Trackpoint>
          <Trackpoint>
            <Time>2019-04-08T08:41:18.000Z</Time>
            <Position>
              <LatitudeDegrees>28.2502631843090057373046875</LatitudeDegrees>
              <LongitudeDegrees>-16.6196840442717075347900390625</LongitudeDegrees>
            </Position>
            <AltitudeMeters>2287</AltitudeMeters>
            <DistanceMeters>15218.597851222</DistanceMeters>
          </Trackpoint>
          <Trackpoint>
            <Time>2019-04-08T08:41:19.000Z</Time>
            <Position>
              <LatitudeDegrees>28.25026595033705234527587890625</LatitudeDegrees>
              <LongitudeDegrees>-16.61966853775084018707275390625</LongitudeDegrees>
            </Position>
            <AltitudeMeters>2287</AltitudeMeters>
            <DistanceMeters>15220.147690031</DistanceMeters>
          </Trackpoint>
          <Trackpoint>
            <Time>2019-04-08T08:41:25.000Z</Time>
            <Position>
              <LatitudeDegrees>28.25026385486125946044921875</LatitudeDegrees>
              <LongitudeDegrees>-16.619595028460025787353515625</LongitudeDegrees>
            </Position>
            <AltitudeMeters>2286.39990234375</AltitudeMeters>
            <DistanceMeters>15227.357832199</DistanceMeters>
          </Trackpoint>
          <Trackpoint>
            <Time>2019-04-08T08:41:32.000Z</Time>
            <Position>
              <LatitudeDegrees>28.25027584098279476165771484375</LatitudeDegrees>
              <LongitudeDegrees>-16.6195043362677097320556640625</LongitudeDegrees>
            </Position>
            <AltitudeMeters>2286</AltitudeMeters>
            <DistanceMeters>15236.348785671</DistanceMeters>
          </Trackpoint>
          <Trackpoint>
            <Time>2019-04-08T08:41:33.000Z</Time>
            <Position>
              <LatitudeDegrees>28.25027332641184329986572265625</LatitudeDegrees>
              <LongitudeDegrees>-16.6194922663271427154541015625</LongitudeDegrees>
            </Position>
            <AltitudeMeters>2286</AltitudeMeters>
            <DistanceMeters>15237.565721387</DistanceMeters>
          </Trackpoint>
          <Trackpoint>
            <Time>2019-04-08T08:41:38.000Z</Time>
            <Position>
              <LatitudeDegrees>28.2502673752605915069580078125</LatitudeDegrees>
              <LongitudeDegrees>-16.619430072605609893798828125</LongitudeDegrees>
            </Position>
            <AltitudeMeters>2285.800048828125</AltitudeMeters>
            <DistanceMeters>15243.699178688</DistanceMeters>
          </Trackpoint>
          <Trackpoint>
            <Time>2019-04-08T08:41:45.000Z</Time>
            <Position>
              <LatitudeDegrees>28.250262178480625152587890625</LatitudeDegrees>
              <LongitudeDegrees>-16.61932471208274364471435546875</LongitudeDegrees>
            </Position>
            <AltitudeMeters>2286</AltitudeMeters>
            <DistanceMeters>15254.045314496</DistanceMeters>
          </Trackpoint>
          <Trackpoint>
            <Time>2019-04-08T08:41:49.000Z</Time>
            <Position>
              <LatitudeDegrees>28.2502650283277034759521484375</LatitudeDegrees>
              <LongitudeDegrees>-16.6192672960460186004638671875</LongitudeDegrees>
            </Position>
            <AltitudeMeters>2285.800048828125</AltitudeMeters>
            <DistanceMeters>15259.68401108</DistanceMeters>
          </Trackpoint>
          <Trackpoint>
            <Time>2019-04-08T08:41:52.000Z</Time>
            <Position>
              <LatitudeDegrees>28.25027919374406337738037109375</LatitudeDegrees>
              <LongitudeDegrees>-16.61923334933817386627197265625</LongitudeDegrees>
            </Position>
            <AltitudeMeters>2285.60009765625</AltitudeMeters>
            <DistanceMeters>15263.366832664</DistanceMeters>
          </Trackpoint>
          <Trackpoint>
            <Time>2019-04-08T08:41:58.000Z</Time>
            <Position>
              <LatitudeDegrees>28.25029226951301097869873046875</LatitudeDegrees>
              <LongitudeDegrees>-16.61916947923600673675537109375</LongitudeDegrees>
            </Position>
            <AltitudeMeters>2284.800048828125</AltitudeMeters>
            <DistanceMeters>15269.79572525</DistanceMeters>
          </Trackpoint>
          <Trackpoint>
            <Time>2019-04-08T08:42:04.000Z</Time>
            <Position>
              <LatitudeDegrees>28.2503049261868000030517578125</LatitudeDegrees>
              <LongitudeDegrees>-16.61909244954586029052734375</LongitudeDegrees>
            </Position>
            <AltitudeMeters>2284.800048828125</AltitudeMeters>
            <DistanceMeters>15277.478210501</DistanceMeters>
          </Trackpoint>
          <Trackpoint>
            <Time>2019-04-08T08:42:08.000Z</Time>
            <Position>
              <LatitudeDegrees>28.25030651874840259552001953125</LatitudeDegrees>
              <LongitudeDegrees>-16.619041152298450469970703125</LongitudeDegrees>
            </Position>
            <AltitudeMeters>2284.199951171875</AltitudeMeters>
            <DistanceMeters>15282.511039171</DistanceMeters>
          </Trackpoint>
          <Trackpoint>
            <Time>2019-04-08T08:42:10.000Z</Time>
            <Position>
              <LatitudeDegrees>28.25030467472970485687255859375</LatitudeDegrees>
              <LongitudeDegrees>-16.6190138272941112518310546875</LongitudeDegrees>
            </Position>
            <AltitudeMeters>2283.60009765625</AltitudeMeters>
            <DistanceMeters>15285.198800536</DistanceMeters>
          </Trackpoint>
          <Trackpoint>
            <Time>2019-04-08T08:42:18.000Z</Time>
            <Position>
              <LatitudeDegrees>28.25030534528195858001708984375</LatitudeDegrees>
              <LongitudeDegrees>-16.6189085505902767181396484375</LongitudeDegrees>
            </Position>
            <AltitudeMeters>2283</AltitudeMeters>
            <DistanceMeters>15295.521343926</DistanceMeters>
          </Trackpoint>
          <Trackpoint>
            <Time>2019-04-08T08:42:20.000Z</Time>
            <Position>
              <LatitudeDegrees>28.25030132196843624114990234375</LatitudeDegrees>
              <LongitudeDegrees>-16.61888684146106243133544921875</LongitudeDegrees>
            </Position>
            <AltitudeMeters>2282.800048828125</AltitudeMeters>
            <DistanceMeters>15297.696604843</DistanceMeters>
          </Trackpoint>
          <Trackpoint>
            <Time>2019-04-08T08:42:26.000Z</Time>
            <Position>
              <LatitudeDegrees>28.2503112964332103729248046875</LatitudeDegrees>
              <LongitudeDegrees>-16.6187940537929534912109375</LongitudeDegrees>
            </Position>
            <AltitudeMeters>2282.199951171875</AltitudeMeters>
            <DistanceMeters>15306.861141984</DistanceMeters>
          </Trackpoint>
          <Trackpoint>
            <Time>2019-04-08T08:42:29.000Z</Time>
            <Position>
              <LatitudeDegrees>28.250302411615848541259765625</LatitudeDegrees>
              <LongitudeDegrees>-16.618756838142871856689453125</LongitudeDegrees>
            </Position>
            <AltitudeMeters>2282.199951171875</AltitudeMeters>
            <DistanceMeters>15310.640769073</DistanceMeters>
          </Trackpoint>
          <Trackpoint>
            <Time>2019-04-08T08:42:32.000Z</Time>
            <Position>
              <LatitudeDegrees>28.2502819597721099853515625</LatitudeDegrees>
              <LongitudeDegrees>-16.6187288425862789154052734375</LongitudeDegrees>
            </Position>
            <AltitudeMeters>2281.199951171875</AltitudeMeters>
            <DistanceMeters>15314.205221003</DistanceMeters>
          </Trackpoint>
          <Trackpoint>
            <Time>2019-04-08T08:42:33.000Z</Time>
            <Position>
              <LatitudeDegrees>28.2502784393727779388427734375</LatitudeDegrees>
              <LongitudeDegrees>-16.61872020922601222991943359375</LongitudeDegrees>
            </Position>
            <AltitudeMeters>2280.800048828125</AltitudeMeters>
            <DistanceMeters>15315.136288851</DistanceMeters>
          </Trackpoint>
          <Trackpoint>
            <Time>2019-04-08T08:42:38.000Z</Time>
            <Position>
              <LatitudeDegrees>28.2502542994916439056396484375</LatitudeDegrees>
              <LongitudeDegrees>-16.6186322830617427825927734375</LongitudeDegrees>
            </Position>
            <AltitudeMeters>2280</AltitudeMeters>
            <DistanceMeters>15324.166327073</DistanceMeters>
          </Trackpoint>
          <Trackpoint>
            <Time>2019-04-08T08:42:41.000Z</Time>
            <Position>
              <LatitudeDegrees>28.25024197809398174285888671875</LatitudeDegrees>
              <LongitudeDegrees>-16.61857469938695430755615234375</LongitudeDegrees>
            </Position>
            <AltitudeMeters>2279</AltitudeMeters>
            <DistanceMeters>15329.976182988</DistanceMeters>
          </Trackpoint>
          <Trackpoint>
            <Time>2019-04-08T08:42:42.000Z</Time>
            <Position>
              <LatitudeDegrees>28.25023795478045940399169921875</LatitudeDegrees>
              <LongitudeDegrees>-16.6185575164854526519775390625</LongitudeDegrees>
            </Position>
            <AltitudeMeters>2278.60009765625</AltitudeMeters>
            <DistanceMeters>15331.718051434</DistanceMeters>
          </Trackpoint>
          <Trackpoint>
            <Time>2019-04-08T08:42:46.000Z</Time>
            <Position>
              <LatitudeDegrees>28.250217251479625701904296875</LatitudeDegrees>
              <LongitudeDegrees>-16.61849557422101497650146484375</LongitudeDegrees>
            </Position>
            <AltitudeMeters>2277.800048828125</AltitudeMeters>
            <DistanceMeters>15338.213320262</DistanceMeters>
          </Trackpoint>
          <Trackpoint>
            <Time>2019-04-08T08:42:50.000Z</Time>
            <Position>
              <LatitudeDegrees>28.25022940523922443389892578125</LatitudeDegrees>
              <LongitudeDegrees>-16.61844226531684398651123046875</LongitudeDegrees>
            </Position>
            <AltitudeMeters>2276.800048828125</AltitudeMeters>
            <DistanceMeters>15343.612309683</DistanceMeters>
          </Trackpoint>
          <Trackpoint>
            <Time>2019-04-08T08:42:55.000Z</Time>
            <Position>
              <LatitudeDegrees>28.25024348683655261993408203125</LatitudeDegrees>
              <LongitudeDegrees>-16.61836967803537845611572265625</LongitudeDegrees>
            </Position>
            <AltitudeMeters>2276</AltitudeMeters>
            <DistanceMeters>15350.899687782</DistanceMeters>
          </Trackpoint>
          <Trackpoint>
            <Time>2019-04-08T08:42:59.000Z</Time>
            <Position>
              <LatitudeDegrees>28.2502470910549163818359375</LatitudeDegrees>
              <LongitudeDegrees>-16.61831234581768512725830078125</LongitudeDegrees>
            </Position>
            <AltitudeMeters>2274.800048828125</AltitudeMeters>
            <DistanceMeters>15356.53518056</DistanceMeters>
          </Trackpoint>
          <Trackpoint>
            <Time>2019-04-08T08:43:01.000Z</Time>
            <Position>
              <LatitudeDegrees>28.25025103054940700531005859375</LatitudeDegrees>
              <LongitudeDegrees>-16.6182844340801239013671875</LongitudeDegrees>
            </Position>
            <AltitudeMeters>2274.39990234375</AltitudeMeters>
            <DistanceMeters>15359.308919036</DistanceMeters>
          </Trackpoint>
          <Trackpoint>
            <Time>2019-04-08T08:43:03.000Z</Time>
            <Position>
              <LatitudeDegrees>28.25025455094873905181884765625</LatitudeDegrees>
              <LongitudeDegrees>-16.6182638145983219146728515625</LongitudeDegrees>
            </Position>
            <AltitudeMeters>2274</AltitudeMeters>
            <DistanceMeters>15361.369049112</DistanceMeters>
          </Trackpoint>
          <Trackpoint>
            <Time>2019-04-08T08:43:06.000Z</Time>
            <Position>
              <LatitudeDegrees>28.25025605969130992889404296875</LatitudeDegrees>
              <LongitudeDegrees>-16.61821478046476840972900390625</LongitudeDegrees>
            </Position>
            <AltitudeMeters>2272.800048828125</AltitudeMeters>
            <DistanceMeters>15366.179879178</DistanceMeters>
          </Trackpoint>
          <Trackpoint>
            <Time>2019-04-08T08:43:11.000Z</Time>
            <Position>
              <LatitudeDegrees>28.25026729144155979156494140625</LatitudeDegrees>
              <LongitudeDegrees>-16.61814160645008087158203125</LongitudeDegrees>
            </Position>
            <AltitudeMeters>2271.800048828125</AltitudeMeters>
            <DistanceMeters>15373.462918999</DistanceMeters>
          </Trackpoint>
          <Trackpoint>
            <Time>2019-04-08T08:43:16.000Z</Time>
            <Position>
              <LatitudeDegrees>28.25028355233371257781982421875</LatitudeDegrees>
              <LongitudeDegrees>-16.6180817596614360809326171875</LongitudeDegrees>
            </Position>
            <AltitudeMeters>2271</AltitudeMeters>
            <DistanceMeters>15379.603733214</DistanceMeters>
          </Trackpoint>
          <Trackpoint>
            <Time>2019-04-08T08:43:21.000Z</Time>
            <Position>
              <LatitudeDegrees>28.250274248421192169189453125</LatitudeDegrees>
              <LongitudeDegrees>-16.61801881156861782073974609375</LongitudeDegrees>
            </Position>
            <AltitudeMeters>2270</AltitudeMeters>
            <DistanceMeters>15385.861803327</DistanceMeters>
          </Trackpoint>
          <Trackpoint>
            <Time>2019-04-08T08:43:26.000Z</Time>
            <Position>
              <LatitudeDegrees>28.250268213450908660888671875</LatitudeDegrees>
              <LongitudeDegrees>-16.617944128811359405517578125</LongitudeDegrees>
            </Position>
            <AltitudeMeters>2268.39990234375</AltitudeMeters>
            <DistanceMeters>15393.215790533</DistanceMeters>
          </Trackpoint>
          <Trackpoint>
            <Time>2019-04-08T08:43:32.000Z</Time>
            <Position>
              <LatitudeDegrees>28.25026511214673519134521484375</LatitudeDegrees>
              <LongitudeDegrees>-16.61785653792321681976318359375</LongitudeDegrees>
            </Position>
            <AltitudeMeters>2267.39990234375</AltitudeMeters>
            <DistanceMeters>15401.810325151</DistanceMeters>
          </Trackpoint>
          <Trackpoint>
            <Time>2019-04-08T08:43:37.000Z</Time>
            <Position>
              <LatitudeDegrees>28.2502797804772853851318359375</LatitudeDegrees>
              <LongitudeDegrees>-16.61778277717530727386474609375</LongitudeDegrees>
            </Position>
            <AltitudeMeters>2266.199951171875</AltitudeMeters>
            <DistanceMeters>15409.224845054</DistanceMeters>
          </Trackpoint>
          <Trackpoint>
            <Time>2019-04-08T08:43:41.000Z</Time>
            <Position>
              <LatitudeDegrees>28.2503002323210239410400390625</LatitudeDegrees>
              <LongitudeDegrees>-16.61773583851754665374755859375</LongitudeDegrees>
            </Position>
            <AltitudeMeters>2265.39990234375</AltitudeMeters>
            <DistanceMeters>15414.359805932</DistanceMeters>
          </Trackpoint>
          <Trackpoint>
            <Time>2019-04-08T08:43:43.000Z</Time>
            <Position>
              <LatitudeDegrees>28.25030534528195858001708984375</LatitudeDegrees>
              <LongitudeDegrees>-16.6177045740187168121337890625</LongitudeDegrees>
            </Position>
            <AltitudeMeters>2264.800048828125</AltitudeMeters>
            <DistanceMeters>15417.478362061</DistanceMeters>
          </Trackpoint>
          <Trackpoint>
            <Time>2019-04-08T08:43:46.000Z</Time>
            <Position>
              <LatitudeDegrees>28.2503109611570835113525390625</LatitudeDegrees>
              <LongitudeDegrees>-16.61765906028449535369873046875</LongitudeDegrees>
            </Position>
            <AltitudeMeters>2264.199951171875</AltitudeMeters>
            <DistanceMeters>15421.983871116</DistanceMeters>
          </Trackpoint>
          <Trackpoint>
            <Time>2019-04-08T08:43:51.000Z</Time>
            <Position>
              <LatitudeDegrees>28.25030467472970485687255859375</LatitudeDegrees>
              <LongitudeDegrees>-16.61759267561137676239013671875</LongitudeDegrees>
            </Position>
            <AltitudeMeters>2263.199951171875</AltitudeMeters>
            <DistanceMeters>15428.530377269</DistanceMeters>
          </Trackpoint>
          <Trackpoint>
            <Time>2019-04-08T08:43:53.000Z</Time>
            <Position>
              <LatitudeDegrees>28.2503034174442291259765625</LatitudeDegrees>
              <LongitudeDegrees>-16.61756266839802265167236328125</LongitudeDegrees>
            </Position>
            <AltitudeMeters>2262.800048828125</AltitudeMeters>
            <DistanceMeters>15431.474672326</DistanceMeters>
          </Trackpoint>
          <Trackpoint>
            <Time>2019-04-08T08:43:57.000Z</Time>
            <Position>
              <LatitudeDegrees>28.2502888329327106475830078125</LatitudeDegrees>
              <LongitudeDegrees>-16.617508269846439361572265625</LongitudeDegrees>
            </Position>
            <AltitudeMeters>2262</AltitudeMeters>
            <DistanceMeters>15437.049752875</DistanceMeters>
          </Trackpoint>
          <Trackpoint>
            <Time>2019-04-08T08:43:59.000Z</Time>
            <Position>
              <LatitudeDegrees>28.250284306704998016357421875</LatitudeDegrees>
              <LongitudeDegrees>-16.61747482605278491973876953125</LongitudeDegrees>
            </Position>
            <AltitudeMeters>2261.60009765625</AltitudeMeters>
            <DistanceMeters>15440.366171592</DistanceMeters>
          </Trackpoint>
          <Trackpoint>
            <Time>2019-04-08T08:44:01.000Z</Time>
            <Position>
              <LatitudeDegrees>28.2502846419811248779296875</LatitudeDegrees>
              <LongitudeDegrees>-16.61745118908584117889404296875</LongitudeDegrees>
            </Position>
            <AltitudeMeters>2261.39990234375</AltitudeMeters>
            <DistanceMeters>15442.682173623</DistanceMeters>
          </Trackpoint>
          <Trackpoint>
            <Time>2019-04-08T08:44:02.000Z</Time>
            <Position>
              <LatitudeDegrees>28.2502841390669345855712890625</LatitudeDegrees>
              <LongitudeDegrees>-16.61744196899235248565673828125</LongitudeDegrees>
            </Position>
            <AltitudeMeters>2261.199951171875</AltitudeMeters>
            <DistanceMeters>15443.593637848</DistanceMeters>
          </Trackpoint>
          <Trackpoint>
            <Time>2019-04-08T08:44:05.000Z</Time>
            <Position>
              <LatitudeDegrees>28.2502794452011585235595703125</LatitudeDegrees>
              <LongitudeDegrees>-16.617407687008380889892578125</LongitudeDegrees>
            </Position>
            <AltitudeMeters>2260</AltitudeMeters>
            <DistanceMeters>15446.994744715</DistanceMeters>
          </Trackpoint>
          <Trackpoint>
            <Time>2019-04-08T08:44:06.000Z</Time>
            <Position>
              <LatitudeDegrees>28.25028036721050739288330078125</LatitudeDegrees>
              <LongitudeDegrees>-16.61739704199135303497314453125</LongitudeDegrees>
            </Position>
            <AltitudeMeters>2259.800048828125</AltitudeMeters>
            <DistanceMeters>15448.040038573</DistanceMeters>
          </Trackpoint>
          <Trackpoint>
            <Time>2019-04-08T08:44:09.000Z</Time>
            <Position>
              <LatitudeDegrees>28.2502556405961513519287109375</LatitudeDegrees>
              <LongitudeDegrees>-16.6173698008060455322265625</LongitudeDegrees>
            </Position>
            <AltitudeMeters>2259.199951171875</AltitudeMeters>
            <DistanceMeters>15451.875399642</DistanceMeters>
          </Trackpoint>
          <Trackpoint>
            <Time>2019-04-08T08:44:12.000Z</Time>
            <Position>
              <LatitudeDegrees>28.25022856704890727996826171875</LatitudeDegrees>
              <LongitudeDegrees>-16.61735513247549533843994140625</LongitudeDegrees>
            </Position>
            <AltitudeMeters>2258.800048828125</AltitudeMeters>
            <DistanceMeters>15455.213530007</DistanceMeters>
          </Trackpoint>
          <Trackpoint>
            <Time>2019-04-08T08:44:15.000Z</Time>
            <Position>
              <LatitudeDegrees>28.25020459480583667755126953125</LatitudeDegrees>
              <LongitudeDegrees>-16.61733468063175678253173828125</LongitudeDegrees>
            </Position>
            <AltitudeMeters>2258.199951171875</AltitudeMeters>
            <DistanceMeters>15458.550307532</DistanceMeters>
          </Trackpoint>
          <Trackpoint>
            <Time>2019-04-08T08:44:16.000Z</Time>
            <Position>
              <LatitudeDegrees>28.2501934468746185302734375</LatitudeDegrees>
              <LongitudeDegrees>-16.617323867976665496826171875</LongitudeDegrees>
            </Position>
            <AltitudeMeters>2258</AltitudeMeters>
            <DistanceMeters>15460.179676267</DistanceMeters>
          </Trackpoint>
          <Trackpoint>
            <Time>2019-04-08T08:44:19.000Z</Time>
            <Position>
              <LatitudeDegrees>28.25016939081251621246337890625</LatitudeDegrees>
              <LongitudeDegrees>-16.61729394458234310150146484375</LongitudeDegrees>
            </Position>
            <AltitudeMeters>2257.60009765625</AltitudeMeters>
            <DistanceMeters>15464.151520115</DistanceMeters>
          </Trackpoint>
          <Trackpoint>
            <Time>2019-04-08T08:44:20.000Z</Time>
            <Position>
              <LatitudeDegrees>28.2501607574522495269775390625</LatitudeDegrees>
              <LongitudeDegrees>-16.61728422157466411590576171875</LongitudeDegrees>
            </Position>
            <AltitudeMeters>2257.199951171875</AltitudeMeters>
            <DistanceMeters>15465.508773074</DistanceMeters>
          </Trackpoint>
          <Trackpoint>
            <Time>2019-04-08T08:44:25.000Z</Time>
            <Position>
              <LatitudeDegrees>28.25011826120316982269287109375</LatitudeDegrees>
              <LongitudeDegrees>-16.61723024211823940277099609375</LongitudeDegrees>
            </Position>
            <AltitudeMeters>2256.60009765625</AltitudeMeters>
            <DistanceMeters>15472.607211392</DistanceMeters>
          </Trackpoint>
          <Trackpoint>
            <Time>2019-04-08T08:44:26.000Z</Time>
            <Position>
              <LatitudeDegrees>28.250107280910015106201171875</LatitudeDegrees>
              <LongitudeDegrees>-16.61722429096698760986328125</LongitudeDegrees>
            </Position>
            <AltitudeMeters>2256.199951171875</AltitudeMeters>
            <DistanceMeters>15473.964464351</DistanceMeters>
          </Trackpoint>
          <Trackpoint>
            <Time>2019-04-08T08:44:29.000Z</Time>
            <Position>
              <LatitudeDegrees>28.250083141028881072998046875</LatitudeDegrees>
              <LongitudeDegrees>-16.61719587631523609161376953125</LongitudeDegrees>
            </Position>
            <AltitudeMeters>2255.39990234375</AltitudeMeters>
            <DistanceMeters>15477.836147047</DistanceMeters>
          </Trackpoint>
          <Trackpoint>
            <Time>2019-04-08T08:44:32.000Z</Time>
            <Position>
              <LatitudeDegrees>28.25006403028964996337890625</LatitudeDegrees>
              <LongitudeDegrees>-16.61716997623443603515625</LongitudeDegrees>
            </Position>
            <AltitudeMeters>2254.800048828125</AltitudeMeters>
            <DistanceMeters>15481.148478986</DistanceMeters>
          </Trackpoint>
          <Trackpoint>
            <Time>2019-04-08T08:44:37.000Z</Time>
            <Position>
              <LatitudeDegrees>28.2500306703150272369384765625</LatitudeDegrees>
              <LongitudeDegrees>-16.6171238757669925689697265625</LongitudeDegrees>
            </Position>
            <AltitudeMeters>2254.39990234375</AltitudeMeters>
            <DistanceMeters>15486.998606312</DistanceMeters>
          </Trackpoint>
          <Trackpoint>
            <Time>2019-04-08T08:44:38.000Z</Time>
            <Position>
              <LatitudeDegrees>28.25002203695476055145263671875</LatitudeDegrees>
              <LongitudeDegrees>-16.6171176731586456298828125</LongitudeDegrees>
            </Position>
            <AltitudeMeters>2254</AltitudeMeters>
            <DistanceMeters>15488.13496054</DistanceMeters>
          </Trackpoint>
          <Trackpoint>
            <Time>2019-04-08T08:44:43.000Z</Time>
            <Position>
              <LatitudeDegrees>28.2499800436198711395263671875</LatitudeDegrees>
              <LongitudeDegrees>-16.61707936786115169525146484375</LongitudeDegrees>
            </Position>
            <AltitudeMeters>2253.39990234375</AltitudeMeters>
            <DistanceMeters>15494.130686878</DistanceMeters>
          </Trackpoint>
          <Trackpoint>
            <Time>2019-04-08T08:44:47.000Z</Time>
            <Position>
              <LatitudeDegrees>28.24994190596044063568115234375</LatitudeDegrees>
              <LongitudeDegrees>-16.6170534677803516387939453125</LongitudeDegrees>
            </Position>
            <AltitudeMeters>2252.199951171875</AltitudeMeters>
            <DistanceMeters>15499.077555298</DistanceMeters>
          </Trackpoint>
          <Trackpoint>
            <Time>2019-04-08T08:44:48.000Z</Time>
            <Position>
              <LatitudeDegrees>28.249933607876300811767578125</LatitudeDegrees>
              <LongitudeDegrees>-16.617047600448131561279296875</LongitudeDegrees>
            </Position>
            <AltitudeMeters>2252</AltitudeMeters>
            <DistanceMeters>15500.165185756</DistanceMeters>
          </Trackpoint>
          <Trackpoint>
            <Time>2019-04-08T08:44:52.000Z</Time>
            <Position>
              <LatitudeDegrees>28.24989966116845607757568359375</LatitudeDegrees>
              <LongitudeDegrees>-16.61701373755931854248046875</LongitudeDegrees>
            </Position>
            <AltitudeMeters>2251.199951171875</AltitudeMeters>
            <DistanceMeters>15505.194424677</DistanceMeters>
          </Trackpoint>
          <Trackpoint>
            <Time>2019-04-08T08:44:57.000Z</Time>
            <Position>
              <LatitudeDegrees>28.24984543025493621826171875</LatitudeDegrees>
              <LongitudeDegrees>-16.61697325296700000762939453125</LongitudeDegrees>
            </Position>
            <AltitudeMeters>2250.199951171875</AltitudeMeters>
            <DistanceMeters>15512.418955239</DistanceMeters>
          </Trackpoint>
          <Trackpoint>
            <Time>2019-04-08T08:45:02.000Z</Time>
            <Position>
              <LatitudeDegrees>28.24981332756578922271728515625</LatitudeDegrees>
              <LongitudeDegrees>-16.616914831101894378662109375</LongitudeDegrees>
            </Position>
            <AltitudeMeters>2249.39990234375</AltitudeMeters>
            <DistanceMeters>15519.169865979</DistanceMeters>
          </Trackpoint>
          <Trackpoint>
            <Time>2019-04-08T08:45:04.000Z</Time>
            <Position>
              <LatitudeDegrees>28.24980561621487140655517578125</LatitudeDegrees>
              <LongitudeDegrees>-16.6168875060975551605224609375</LongitudeDegrees>
            </Position>
            <AltitudeMeters>2249.199951171875</AltitudeMeters>
            <DistanceMeters>15521.982399883</DistanceMeters>
          </Trackpoint>
          <Trackpoint>
            <Time>2019-04-08T08:45:09.000Z</Time>
            <Position>
              <LatitudeDegrees>28.24980058707296848297119140625</LatitudeDegrees>
              <LongitudeDegrees>-16.61680796183645725250244140625</LongitudeDegrees>
            </Position>
            <AltitudeMeters>2248.199951171875</AltitudeMeters>
            <DistanceMeters>15529.801198866</DistanceMeters>
          </Trackpoint>
          <Trackpoint>
            <Time>2019-04-08T08:45:12.000Z</Time>
            <Position>
              <LatitudeDegrees>28.249789439141750335693359375</LatitudeDegrees>
              <LongitudeDegrees>-16.6167689859867095947265625</LongitudeDegrees>
            </Position>
            <AltitudeMeters>2247.800048828125</AltitudeMeters>
            <DistanceMeters>15533.820503128</DistanceMeters>
          </Trackpoint>
          <Trackpoint>
            <Time>2019-04-08T08:45:13.000Z</Time>
            <Position>
              <LatitudeDegrees>28.249785415828227996826171875</LatitudeDegrees>
              <LongitudeDegrees>-16.6167560778558254241943359375</LongitudeDegrees>
            </Position>
            <AltitudeMeters>2247.800048828125</AltitudeMeters>
            <DistanceMeters>15535.167739324</DistanceMeters>
          </Trackpoint>
          <Trackpoint>
            <Time>2019-04-08T08:45:16.000Z</Time>
            <Position>
              <LatitudeDegrees>28.24978902004659175872802734375</LatitudeDegrees>
              <LongitudeDegrees>-16.61671458743512630462646484375</LongitudeDegrees>
            </Position>
            <AltitudeMeters>2247.199951171875</AltitudeMeters>
            <DistanceMeters>15539.256097368</DistanceMeters>
          </Trackpoint>
          <Trackpoint>
            <Time>2019-04-08T08:45:22.000Z</Time>
            <Position>
              <LatitudeDegrees>28.2498016767203807830810546875</LatitudeDegrees>
              <LongitudeDegrees>-16.61662615835666656494140625</LongitudeDegrees>
            </Position>
            <AltitudeMeters>2246.60009765625</AltitudeMeters>
            <DistanceMeters>15548.039773884</DistanceMeters>
          </Trackpoint>
          <Trackpoint>
            <Time>2019-04-08T08:45:24.000Z</Time>
            <Position>
              <LatitudeDegrees>28.2498043589293956756591796875</LatitudeDegrees>
              <LongitudeDegrees>-16.6166038624942302703857421875</LongitudeDegrees>
            </Position>
            <AltitudeMeters>2246.39990234375</AltitudeMeters>
            <DistanceMeters>15550.24594958</DistanceMeters>
          </Trackpoint>
          <Trackpoint>
            <Time>2019-04-08T08:45:31.000Z</Time>
            <Position>
              <LatitudeDegrees>28.24981458485126495361328125</LatitudeDegrees>
              <LongitudeDegrees>-16.61650621332228183746337890625</LongitudeDegrees>
            </Position>
            <AltitudeMeters>2245.60009765625</AltitudeMeters>
            <DistanceMeters>15559.886830081</DistanceMeters>
          </Trackpoint>
          <Trackpoint>
            <Time>2019-04-08T08:45:32.000Z</Time>
            <Position>
              <LatitudeDegrees>28.24981600977480411529541015625</LatitudeDegrees>
              <LongitudeDegrees>-16.616493724286556243896484375</LongitudeDegrees>
            </Position>
            <AltitudeMeters>2245.39990234375</AltitudeMeters>
            <DistanceMeters>15561.118517072</DistanceMeters>
          </Trackpoint>
          <Trackpoint>
            <Time>2019-04-08T08:45:34.000Z</Time>
            <Position>
              <LatitudeDegrees>28.24981986545026302337646484375</LatitudeDegrees>
              <LongitudeDegrees>-16.61645944230258464813232421875</LongitudeDegrees>
            </Position>
            <AltitudeMeters>2245</AltitudeMeters>
            <DistanceMeters>15564.506322727</DistanceMeters>
          </Trackpoint>
          <Trackpoint>
            <Time>2019-04-08T08:45:37.000Z</Time>
            <Position>
              <LatitudeDegrees>28.24982321821153163909912109375</LatitudeDegrees>
              <LongitudeDegrees>-16.616417951881885528564453125</LongitudeDegrees>
            </Position>
            <AltitudeMeters>2244.39990234375</AltitudeMeters>
            <DistanceMeters>15568.591366334</DistanceMeters>
          </Trackpoint>
          <Trackpoint>
            <Time>2019-04-08T08:45:45.000Z</Time>
            <Position>
              <LatitudeDegrees>28.24982372112572193145751953125</LatitudeDegrees>
              <LongitudeDegrees>-16.616292893886566162109375</LongitudeDegrees>
            </Position>
            <AltitudeMeters>2243.60009765625</AltitudeMeters>
            <DistanceMeters>15580.852390461</DistanceMeters>
          </Trackpoint>
          <Trackpoint>
            <Time>2019-04-08T08:45:46.000Z</Time>
            <Position>
              <LatitudeDegrees>28.2498268224298954010009765625</LatitudeDegrees>
              <LongitudeDegrees>-16.61627721972763538360595703125</LongitudeDegrees>
            </Position>
            <AltitudeMeters>2243.60009765625</AltitudeMeters>
            <DistanceMeters>15582.428230244</DistanceMeters>
          </Trackpoint>
          <Trackpoint>
            <Time>2019-04-08T08:45:57.000Z</Time>
            <Position>
              <LatitudeDegrees>28.24985171668231487274169921875</LatitudeDegrees>
              <LongitudeDegrees>-16.61612324416637420654296875</LongitudeDegrees>
            </Position>
            <AltitudeMeters>2243.39990234375</AltitudeMeters>
            <DistanceMeters>15597.776736174</DistanceMeters>
          </Trackpoint>
          <Trackpoint>
            <Time>2019-04-08T08:46:03.000Z</Time>
            <Position>
              <LatitudeDegrees>28.24985892511904239654541015625</LatitudeDegrees>
              <LongitudeDegrees>-16.61603079177439212799072265625</LongitudeDegrees>
            </Position>
            <AltitudeMeters>2243.39990234375</AltitudeMeters>
            <DistanceMeters>15606.876505456</DistanceMeters>
          </Trackpoint>
          <Trackpoint>
            <Time>2019-04-08T08:46:06.000Z</Time>
            <Position>
              <LatitudeDegrees>28.24984417296946048736572265625</LatitudeDegrees>
              <LongitudeDegrees>-16.615990810096263885498046875</LongitudeDegrees>
            </Position>
            <AltitudeMeters>2243.800048828125</AltitudeMeters>
            <DistanceMeters>15611.126229316</DistanceMeters>
          </Trackpoint>
          <Trackpoint>
            <Time>2019-04-08T08:46:13.000Z</Time>
            <Position>
              <LatitudeDegrees>28.24978751130402088165283203125</LatitudeDegrees>
              <LongitudeDegrees>-16.61592207849025726318359375</LongitudeDegrees>
            </Position>
            <AltitudeMeters>2243.60009765625</AltitudeMeters>
            <DistanceMeters>15620.355569005</DistanceMeters>
          </Trackpoint>
          <Trackpoint>
            <Time>2019-04-08T08:46:18.000Z</Time>
            <Position>
              <LatitudeDegrees>28.24975297786295413970947265625</LatitudeDegrees>
              <LongitudeDegrees>-16.61586080677807331085205078125</LongitudeDegrees>
            </Position>
            <AltitudeMeters>2243.60009765625</AltitudeMeters>
            <DistanceMeters>15627.487005784</DistanceMeters>
          </Trackpoint>
          <Trackpoint>
            <Time>2019-04-08T08:46:24.000Z</Time>
            <Position>
              <LatitudeDegrees>28.24973923154175281524658203125</LatitudeDegrees>
              <LongitudeDegrees>-16.615762822329998016357421875</LongitudeDegrees>
            </Position>
            <AltitudeMeters>2243.800048828125</AltitudeMeters>
            <DistanceMeters>15637.214140048</DistanceMeters>
          </Trackpoint>
          <Trackpoint>
            <Time>2019-04-08T08:46:29.000Z</Time>
            <Position>
              <LatitudeDegrees>28.24975063093006610870361328125</LatitudeDegrees>
              <LongitudeDegrees>-16.61567959003150463104248046875</LongitudeDegrees>
            </Position>
            <AltitudeMeters>2244.60009765625</AltitudeMeters>
            <DistanceMeters>15645.472721486</DistanceMeters>
          </Trackpoint>
          <Trackpoint>
            <Time>2019-04-08T08:46:33.000Z</Time>
            <Position>
              <LatitudeDegrees>28.24976270087063312530517578125</LatitudeDegrees>
              <LongitudeDegrees>-16.615628041326999664306640625</LongitudeDegrees>
            </Position>
            <AltitudeMeters>2245</AltitudeMeters>
            <DistanceMeters>15650.701781772</DistanceMeters>
          </Trackpoint>
          <Trackpoint>
            <Time>2019-04-08T08:46:39.000Z</Time>
            <Position>
              <LatitudeDegrees>28.2497319392859935760498046875</LatitudeDegrees>
              <LongitudeDegrees>-16.61554363556206226348876953125</LongitudeDegrees>
            </Position>
            <AltitudeMeters>2245.39990234375</AltitudeMeters>
            <DistanceMeters>15659.657513957</DistanceMeters>
          </Trackpoint>
          <Trackpoint>
            <Time>2019-04-08T08:46:46.000Z</Time>
            <Position>
              <LatitudeDegrees>28.24972162954509258270263671875</LatitudeDegrees>
              <LongitudeDegrees>-16.61544003523886203765869140625</LongitudeDegrees>
            </Position>
            <AltitudeMeters>2245.800048828125</AltitudeMeters>
            <DistanceMeters>15669.879402948</DistanceMeters>
          </Trackpoint>
          <Trackpoint>
            <Time>2019-04-08T08:46:50.000Z</Time>
            <Position>
              <LatitudeDegrees>28.24971559457480907440185546875</LatitudeDegrees>
              <LongitudeDegrees>-16.615384630858898162841796875</LongitudeDegrees>
            </Position>
            <AltitudeMeters>2246</AltitudeMeters>
            <DistanceMeters>15675.353964457</DistanceMeters>
          </Trackpoint>
          <Trackpoint>
            <Time>2019-04-08T08:46:54.000Z</Time>
            <Position>
              <LatitudeDegrees>28.2497160136699676513671875</LatitudeDegrees>
              <LongitudeDegrees>-16.6153288073837757110595703125</LongitudeDegrees>
            </Position>
            <AltitudeMeters>2246.39990234375</AltitudeMeters>
            <DistanceMeters>15680.827701174</DistanceMeters>
          </Trackpoint>
          <Trackpoint>
            <Time>2019-04-08T08:46:55.000Z</Time>
            <Position>
              <LatitudeDegrees>28.24971375055611133575439453125</LatitudeDegrees>
              <LongitudeDegrees>-16.61531531251966953277587890625</LongitudeDegrees>
            </Position>
            <AltitudeMeters>2246.39990234375</AltitudeMeters>
            <DistanceMeters>15682.174937369</DistanceMeters>
          </Trackpoint>
          <Trackpoint>
            <Time>2019-04-08T08:47:01.000Z</Time>
            <Position>
              <LatitudeDegrees>28.2497161813080310821533203125</LatitudeDegrees>
              <LongitudeDegrees>-16.61526627838611602783203125</LongitudeDegrees>
            </Position>
            <AltitudeMeters>2246</AltitudeMeters>
            <DistanceMeters>15686.989520033</DistanceMeters>
          </Trackpoint>
          <Trackpoint>
            <Time>2019-04-08T08:47:06.000Z</Time>
            <Position>
              <LatitudeDegrees>28.2497114874422550201416015625</LatitudeDegrees>
              <LongitudeDegrees>-16.6152030788362026214599609375</LongitudeDegrees>
            </Position>
            <AltitudeMeters>2246.800048828125</AltitudeMeters>
            <DistanceMeters>15693.208508488</DistanceMeters>
          </Trackpoint>
          <Trackpoint>
            <Time>2019-04-08T08:47:07.000Z</Time>
            <Position>
              <LatitudeDegrees>28.24971308000385761260986328125</LatitudeDegrees>
              <LongitudeDegrees>-16.61518975161015987396240234375</LongitudeDegrees>
            </Position>
            <AltitudeMeters>2247</AltitudeMeters>
            <DistanceMeters>15694.525237267</DistanceMeters>
          </Trackpoint>
          <Trackpoint>
            <Time>2019-04-08T08:47:12.000Z</Time>
            <Position>
              <LatitudeDegrees>28.24972615577280521392822265625</LatitudeDegrees>
              <LongitudeDegrees>-16.6151370294392108917236328125</LongitudeDegrees>
            </Position>
            <AltitudeMeters>2247</AltitudeMeters>
            <DistanceMeters>15699.89571808</DistanceMeters>
          </Trackpoint>
          <Trackpoint>
            <Time>2019-04-08T08:47:18.000Z</Time>
            <Position>
              <LatitudeDegrees>28.249725066125392913818359375</LatitudeDegrees>
              <LongitudeDegrees>-16.6151108779013156890869140625</LongitudeDegrees>
            </Position>
            <AltitudeMeters>2247.199951171875</AltitudeMeters>
            <DistanceMeters>15702.461439368</DistanceMeters>
          </Trackpoint>
          <Trackpoint>
            <Time>2019-04-08T08:47:29.000Z</Time>
            <Position>
              <LatitudeDegrees>28.2497134990990161895751953125</LatitudeDegrees>
              <LongitudeDegrees>-16.615082882344722747802734375</LongitudeDegrees>
            </Position>
            <AltitudeMeters>2247</AltitudeMeters>
            <DistanceMeters>15705.490392598</DistanceMeters>
          </Trackpoint>
          <Trackpoint>
            <Time>2019-04-08T08:47:36.000Z</Time>
            <Position>
              <LatitudeDegrees>28.2497213780879974365234375</LatitudeDegrees>
              <LongitudeDegrees>-16.615044660866260528564453125</LongitudeDegrees>
            </Position>
            <AltitudeMeters>2246.800048828125</AltitudeMeters>
            <DistanceMeters>15709.338681226</DistanceMeters>
          </Trackpoint>
          <Trackpoint>
            <Time>2019-04-08T08:47:43.000Z</Time>
            <Position>
              <LatitudeDegrees>28.24975733645260334014892578125</LatitudeDegrees>
              <LongitudeDegrees>-16.61496721208095550537109375</LongitudeDegrees>
            </Position>
            <AltitudeMeters>2247.39990234375</AltitudeMeters>
            <DistanceMeters>15717.922702649</DistanceMeters>
          </Trackpoint>
          <Trackpoint>
            <Time>2019-04-08T08:47:50.000Z</Time>
            <Position>
              <LatitudeDegrees>28.24977091513574123382568359375</LatitudeDegrees>
              <LongitudeDegrees>-16.61488615907728672027587890625</LongitudeDegrees>
            </Position>
            <AltitudeMeters>2248.199951171875</AltitudeMeters>
            <DistanceMeters>15726.012261598</DistanceMeters>
          </Trackpoint>
          <Trackpoint>
            <Time>2019-04-08T08:48:01.000Z</Time>
            <Position>
              <LatitudeDegrees>28.2497168518602848052978515625</LatitudeDegrees>
              <LongitudeDegrees>-16.61477719433605670928955078125</LongitudeDegrees>
            </Position>
            <AltitudeMeters>2248.800048828125</AltitudeMeters>
            <DistanceMeters>15738.274022189</DistanceMeters>
          </Trackpoint>
          <Trackpoint>
            <Time>2019-04-08T08:48:03.000Z</Time>
            <Position>
              <LatitudeDegrees>28.24971375055611133575439453125</LatitudeDegrees>
              <LongitudeDegrees>-16.6147615201771259307861328125</LongitudeDegrees>
            </Position>
            <AltitudeMeters>2249.199951171875</AltitudeMeters>
            <DistanceMeters>15739.846994199</DistanceMeters>
          </Trackpoint>
          <Trackpoint>
            <Time>2019-04-08T08:48:10.000Z</Time>
            <Position>
              <LatitudeDegrees>28.24968776665627956390380859375</LatitudeDegrees>
              <LongitudeDegrees>-16.614664457738399505615234375</LongitudeDegrees>
            </Position>
            <AltitudeMeters>2249.39990234375</AltitudeMeters>
            <DistanceMeters>15749.793073198</DistanceMeters>
          </Trackpoint>
          <Trackpoint>
            <Time>2019-04-08T08:48:25.000Z</Time>
            <Position>
              <LatitudeDegrees>28.2496474497020244598388671875</LatitudeDegrees>
              <LongitudeDegrees>-16.61447226069867610931396484375</LongitudeDegrees>
            </Position>
            <AltitudeMeters>2250.60009765625</AltitudeMeters>
            <DistanceMeters>15769.164077213</DistanceMeters>
          </Trackpoint>
          <Trackpoint>
            <Time>2019-04-08T08:48:31.000Z</Time>
            <Position>
              <LatitudeDegrees>28.249614425003528594970703125</LatitudeDegrees>
              <LongitudeDegrees>-16.6143957339227199554443359375</LongitudeDegrees>
            </Position>
            <AltitudeMeters>2250.800048828125</AltitudeMeters>
            <DistanceMeters>15777.518865715</DistanceMeters>
          </Trackpoint>
          <Trackpoint>
            <Time>2019-04-08T08:48:39.000Z</Time>
            <Position>
              <LatitudeDegrees>28.24960344471037387847900390625</LatitudeDegrees>
              <LongitudeDegrees>-16.6142857633531093597412109375</LongitudeDegrees>
            </Position>
            <AltitudeMeters>2251.199951171875</AltitudeMeters>
            <DistanceMeters>15788.370234146</DistanceMeters>
          </Trackpoint>
          <Trackpoint>
            <Time>2019-04-08T08:48:44.000Z</Time>
            <Position>
              <LatitudeDegrees>28.24961802922189235687255859375</LatitudeDegrees>
              <LongitudeDegrees>-16.61419465206563472747802734375</LongitudeDegrees>
            </Position>
            <AltitudeMeters>2251</AltitudeMeters>
            <DistanceMeters>15797.449637643</DistanceMeters>
          </Trackpoint>
          <Trackpoint>
            <Time>2019-04-08T08:48:57.000Z</Time>
            <Position>
              <LatitudeDegrees>28.2496645487844944000244140625</LatitudeDegrees>
              <LongitudeDegrees>-16.613993905484676361083984375</LongitudeDegrees>
            </Position>
            <AltitudeMeters>2251.60009765625</AltitudeMeters>
            <DistanceMeters>15817.801334042</DistanceMeters>
          </Trackpoint>
          <Trackpoint>
            <Time>2019-04-08T08:49:01.000Z</Time>
            <Position>
              <LatitudeDegrees>28.24967284686863422393798828125</LatitudeDegrees>
              <LongitudeDegrees>-16.6139350645244121551513671875</LongitudeDegrees>
            </Position>
            <AltitudeMeters>2251.800048828125</AltitudeMeters>
            <DistanceMeters>15823.644511177</DistanceMeters>
          </Trackpoint>
          <Trackpoint>
            <Time>2019-04-08T08:49:11.000Z</Time>
            <Position>
              <LatitudeDegrees>28.24969162233173847198486328125</LatitudeDegrees>
              <LongitudeDegrees>-16.613795757293701171875</LongitudeDegrees>
            </Position>
            <AltitudeMeters>2251.60009765625</AltitudeMeters>
            <DistanceMeters>15837.461996703</DistanceMeters>
          </Trackpoint>
          <Trackpoint>
            <Time>2019-04-08T08:49:12.000Z</Time>
            <Position>
              <LatitudeDegrees>28.24969598092138767242431640625</LatitudeDegrees>
              <LongitudeDegrees>-16.61377974785864353179931640625</LongitudeDegrees>
            </Position>
            <AltitudeMeters>2251.800048828125</AltitudeMeters>
            <DistanceMeters>15839.105162202</DistanceMeters>
          </Trackpoint>
          <Trackpoint>
            <Time>2019-04-08T08:49:15.000Z</Time>
            <Position>
              <LatitudeDegrees>28.2497114874422550201416015625</LatitudeDegrees>
              <LongitudeDegrees>-16.61374001763761043548583984375</LongitudeDegrees>
            </Position>
            <AltitudeMeters>2251.60009765625</AltitudeMeters>
            <DistanceMeters>15843.365497125</DistanceMeters>
          </Trackpoint>
          <Trackpoint>
            <Time>2019-04-08T08:49:22.000Z</Time>
            <Position>
              <LatitudeDegrees>28.249727077782154083251953125</LatitudeDegrees>
              <LongitudeDegrees>-16.61364245228469371795654296875</LongitudeDegrees>
            </Position>
            <AltitudeMeters>2251.800048828125</AltitudeMeters>
            <DistanceMeters>15853.087059759</DistanceMeters>
          </Trackpoint>
          <Trackpoint>
            <Time>2019-04-08T08:49:29.000Z</Time>
            <Position>
              <LatitudeDegrees>28.2497634552419185638427734375</LatitudeDegrees>
              <LongitudeDegrees>-16.613537929952144622802734375</LongitudeDegrees>
            </Position>
            <AltitudeMeters>2251.60009765625</AltitudeMeters>
            <DistanceMeters>15864.105652128</DistanceMeters>
          </Trackpoint>
          <Trackpoint>
            <Time>2019-04-08T08:49:35.000Z</Time>
            <Position>
              <LatitudeDegrees>28.24982422403991222381591796875</LatitudeDegrees>
              <LongitudeDegrees>-16.6134747304022312164306640625</LongitudeDegrees>
            </Position>
            <AltitudeMeters>2251.800048828125</AltitudeMeters>
            <DistanceMeters>15873.278560735</DistanceMeters>
          </Trackpoint>
          <Trackpoint>
            <Time>2019-04-08T08:49:39.000Z</Time>
            <Position>
              <LatitudeDegrees>28.24986697174608707427978515625</LatitudeDegrees>
              <LongitudeDegrees>-16.61342754028737545013427734375</LongitudeDegrees>
            </Position>
            <AltitudeMeters>2252.199951171875</AltitudeMeters>
            <DistanceMeters>15879.916161429</DistanceMeters>
          </Trackpoint>
          <Trackpoint>
            <Time>2019-04-08T08:49:43.000Z</Time>
            <Position>
              <LatitudeDegrees>28.2499150000512599945068359375</LatitudeDegrees>
              <LongitudeDegrees>-16.61338311620056629180908203125</LongitudeDegrees>
            </Position>
            <AltitudeMeters>2252.60009765625</AltitudeMeters>
            <DistanceMeters>15886.811984987</DistanceMeters>
          </Trackpoint>
          <Trackpoint>
            <Time>2019-04-08T08:49:46.000Z</Time>
            <Position>
              <LatitudeDegrees>28.2499616034328937530517578125</LatitudeDegrees>
              <LongitudeDegrees>-16.6133664362132549285888671875</LongitudeDegrees>
            </Position>
            <AltitudeMeters>2252.800048828125</AltitudeMeters>
            <DistanceMeters>15892.250967468</DistanceMeters>
          </Trackpoint>
          <Trackpoint>
            <Time>2019-04-08T08:49:49.000Z</Time>
            <Position>
              <LatitudeDegrees>28.25001114048063755035400390625</LatitudeDegrees>
              <LongitudeDegrees>-16.61336417309939861297607421875</LongitudeDegrees>
            </Position>
            <AltitudeMeters>2252.800048828125</AltitudeMeters>
            <DistanceMeters>15897.769066577</DistanceMeters>
          </Trackpoint>
          <Trackpoint>
            <Time>2019-04-08T08:49:50.000Z</Time>
            <Position>
              <LatitudeDegrees>28.250024802982807159423828125</LatitudeDegrees>
              <LongitudeDegrees>-16.61336132325232028961181640625</LongitudeDegrees>
            </Position>
            <AltitudeMeters>2252.800048828125</AltitudeMeters>
            <DistanceMeters>15899.315989412</DistanceMeters>
          </Trackpoint>
          <Trackpoint>
            <Time>2019-04-08T08:49:55.000Z</Time>
            <Position>
              <LatitudeDegrees>28.25008724816143512725830078125</LatitudeDegrees>
              <LongitudeDegrees>-16.61333953030407428741455078125</LongitudeDegrees>
            </Position>
            <AltitudeMeters>2253.39990234375</AltitudeMeters>
            <DistanceMeters>15906.587861774</DistanceMeters>
          </Trackpoint>
          <Trackpoint>
            <Time>2019-04-08T08:50:01.000Z</Time>
            <Position>
              <LatitudeDegrees>28.2501262240111827850341796875</LatitudeDegrees>
              <LongitudeDegrees>-16.6132909990847110748291015625</LongitudeDegrees>
            </Position>
            <AltitudeMeters>2254</AltitudeMeters>
            <DistanceMeters>15913.026579112</DistanceMeters>
          </Trackpoint>
          <Trackpoint>
            <Time>2019-04-08T08:50:06.000Z</Time>
            <Position>
              <LatitudeDegrees>28.25014860369265079498291015625</LatitudeDegrees>
              <LongitudeDegrees>-16.61323240958154201507568359375</LongitudeDegrees>
            </Position>
            <AltitudeMeters>2255</AltitudeMeters>
            <DistanceMeters>15919.287534458</DistanceMeters>
          </Trackpoint>
          <Trackpoint>
            <Time>2019-04-08T08:50:07.000Z</Time>
            <Position>
              <LatitudeDegrees>28.2501530461013317108154296875</LatitudeDegrees>
              <LongitudeDegrees>-16.61322067491710186004638671875</LongitudeDegrees>
            </Position>
            <AltitudeMeters>2255.39990234375</AltitudeMeters>
            <DistanceMeters>15920.537415742</DistanceMeters>
          </Trackpoint>
          <Trackpoint>
            <Time>2019-04-08T08:50:10.000Z</Time>
            <Position>
              <LatitudeDegrees>28.25015799142420291900634765625</LatitudeDegrees>
              <LongitudeDegrees>-16.61319083534181118011474609375</LongitudeDegrees>
            </Position>
            <AltitudeMeters>2255.800048828125</AltitudeMeters>
            <DistanceMeters>15923.515256414</DistanceMeters>
          </Trackpoint>
          <Trackpoint>
            <Time>2019-04-08T08:50:11.000Z</Time>
            <Position>
              <LatitudeDegrees>28.250159919261932373046875</LatitudeDegrees>
              <LongitudeDegrees>-16.6131796874105930328369140625</LongitudeDegrees>
            </Position>
            <AltitudeMeters>2256.199951171875</AltitudeMeters>
            <DistanceMeters>15924.627515589</DistanceMeters>
          </Trackpoint>
          <Trackpoint>
            <Time>2019-04-08T08:50:12.000Z</Time>
            <Position>
              <LatitudeDegrees>28.250162936747074127197265625</LatitudeDegrees>
              <LongitudeDegrees>-16.61317591555416584014892578125</LongitudeDegrees>
            </Position>
            <AltitudeMeters>2256.60009765625</AltitudeMeters>
            <DistanceMeters>15925.130349698</DistanceMeters>
          </Trackpoint>
          <Trackpoint>
            <Time>2019-04-08T08:50:18.000Z</Time>
            <Position>
              <LatitudeDegrees>28.25017039664089679718017578125</LatitudeDegrees>
              <LongitudeDegrees>-16.6131136380136013031005859375</LongitudeDegrees>
            </Position>
            <AltitudeMeters>2256.39990234375</AltitudeMeters>
            <DistanceMeters>15931.292449295</DistanceMeters>
          </Trackpoint>
          <Trackpoint>
            <Time>2019-04-08T08:50:22.000Z</Time>
            <Position>
              <LatitudeDegrees>28.25017760507762432098388671875</LatitudeDegrees>
              <LongitudeDegrees>-16.61306326277554035186767578125</LongitudeDegrees>
            </Position>
            <AltitudeMeters>2256.60009765625</AltitudeMeters>
            <DistanceMeters>15936.296487862</DistanceMeters>
          </Trackpoint>
          <Trackpoint>
            <Time>2019-04-08T08:50:25.000Z</Time>
            <Position>
              <LatitudeDegrees>28.25018464587628841400146484375</LatitudeDegrees>
              <LongitudeDegrees>-16.6130281426012516021728515625</LongitudeDegrees>
            </Position>
            <AltitudeMeters>2256.800048828125</AltitudeMeters>
            <DistanceMeters>15939.826573625</DistanceMeters>
          </Trackpoint>
          <Trackpoint>
            <Time>2019-04-08T08:50:29.000Z</Time>
            <Position>
              <LatitudeDegrees>28.2501899264752864837646484375</LatitudeDegrees>
              <LongitudeDegrees>-16.612972319126129150390625</LongitudeDegrees>
            </Position>
            <AltitudeMeters>2257.199951171875</AltitudeMeters>
            <DistanceMeters>15945.330745358</DistanceMeters>
          </Trackpoint>
          <Trackpoint>
            <Time>2019-04-08T08:50:34.000Z</Time>
            <Position>
              <LatitudeDegrees>28.25019218958914279937744140625</LatitudeDegrees>
              <LongitudeDegrees>-16.61290635354816913604736328125</LongitudeDegrees>
            </Position>
            <AltitudeMeters>2257.39990234375</AltitudeMeters>
            <DistanceMeters>15951.803731894</DistanceMeters>
          </Trackpoint>
          <Trackpoint>
            <Time>2019-04-08T08:50:38.000Z</Time>
            <Position>
              <LatitudeDegrees>28.250197134912014007568359375</LatitudeDegrees>
              <LongitudeDegrees>-16.6128608398139476776123046875</LongitudeDegrees>
            </Position>
            <AltitudeMeters>2257.60009765625</AltitudeMeters>
            <DistanceMeters>15956.300212869</DistanceMeters>
          </Trackpoint>
          <Trackpoint>
            <Time>2019-04-08T08:50:39.000Z</Time>
            <Position>
              <LatitudeDegrees>28.25020082294940948486328125</LatitudeDegrees>
              <LongitudeDegrees>-16.61284835077822208404541015625</LongitudeDegrees>
            </Position>
            <AltitudeMeters>2257.800048828125</AltitudeMeters>
            <DistanceMeters>15957.596204466</DistanceMeters>
          </Trackpoint>
          <Trackpoint>
            <Time>2019-04-08T08:50:43.000Z</Time>
            <Position>
              <LatitudeDegrees>28.2502093724906444549560546875</LatitudeDegrees>
              <LongitudeDegrees>-16.612796969711780548095703125</LongitudeDegrees>
            </Position>
            <AltitudeMeters>2258</AltitudeMeters>
            <DistanceMeters>15962.724126326</DistanceMeters>
          </Trackpoint>
          <Trackpoint>
            <Time>2019-04-08T08:50:48.000Z</Time>
            <Position>
              <LatitudeDegrees>28.25021113269031047821044921875</LatitudeDegrees>
              <LongitudeDegrees>-16.61273268051445484161376953125</LongitudeDegrees>
            </Position>
            <AltitudeMeters>2257.800048828125</AltitudeMeters>
            <DistanceMeters>15969.030349971</DistanceMeters>
          </Trackpoint>
          <Trackpoint>
            <Time>2019-04-08T08:50:49.000Z</Time>
            <Position>
              <LatitudeDegrees>28.25021423399448394775390625</LatitudeDegrees>
              <LongitudeDegrees>-16.61272111348807811737060546875</LongitudeDegrees>
            </Position>
            <AltitudeMeters>2257.800048828125</AltitudeMeters>
            <DistanceMeters>15970.217233253</DistanceMeters>
          </Trackpoint>
          <Trackpoint>
            <Time>2019-04-08T08:50:55.000Z</Time>
            <Position>
              <LatitudeDegrees>28.2502526231110095977783203125</LatitudeDegrees>
              <LongitudeDegrees>-16.61266277544200420379638671875</LongitudeDegrees>
            </Position>
            <AltitudeMeters>2258.199951171875</AltitudeMeters>
            <DistanceMeters>15977.356895817</DistanceMeters>
          </Trackpoint>
          <Trackpoint>
            <Time>2019-04-08T08:51:00.000Z</Time>
            <Position>
              <LatitudeDegrees>28.25027860701084136962890625</LatitudeDegrees>
              <LongitudeDegrees>-16.61261047236621379852294921875</LongitudeDegrees>
            </Position>
            <AltitudeMeters>2258.60009765625</AltitudeMeters>
            <DistanceMeters>15983.243952245</DistanceMeters>
          </Trackpoint>
          <Trackpoint>
            <Time>2019-04-08T08:51:04.000Z</Time>
            <Position>
              <LatitudeDegrees>28.25030081905424594879150390625</LatitudeDegrees>
              <LongitudeDegrees>-16.61256990395486354827880859375</LongitudeDegrees>
            </Position>
            <AltitudeMeters>2259</AltitudeMeters>
            <DistanceMeters>15987.927333042</DistanceMeters>
          </Trackpoint>
          <Trackpoint>
            <Time>2019-04-08T08:51:11.000Z</Time>
            <Position>
              <LatitudeDegrees>28.25034976936876773834228515625</LatitudeDegrees>
              <LongitudeDegrees>-16.61249966360628604888916015625</LongitudeDegrees>
            </Position>
            <AltitudeMeters>2259.800048828125</AltitudeMeters>
            <DistanceMeters>15996.708439051</DistanceMeters>
          </Trackpoint>
          <Trackpoint>
            <Time>2019-04-08T08:51:12.000Z</Time>
            <Position>
              <LatitudeDegrees>28.250361420214176177978515625</LatitudeDegrees>
              <LongitudeDegrees>-16.6124974004924297332763671875</LongitudeDegrees>
            </Position>
            <AltitudeMeters>2260.39990234375</AltitudeMeters>
            <DistanceMeters>15998.021734373</DistanceMeters>
          </Trackpoint>
          <Trackpoint>
            <Time>2019-04-08T08:51:15.000Z</Time>
            <Position>
              <LatitudeDegrees>28.2503830455243587493896484375</LatitudeDegrees>
              <LongitudeDegrees>-16.61250092089176177978515625</LongitudeDegrees>
            </Position>
            <AltitudeMeters>2261.39990234375</AltitudeMeters>
            <DistanceMeters>16000.451892802</DistanceMeters>
          </Trackpoint>
          <Trackpoint>
            <Time>2019-04-08T08:51:16.000Z</Time>
            <Position>
              <LatitudeDegrees>28.250389583408832550048828125</LatitudeDegrees>
              <LongitudeDegrees>-16.61250117234885692596435546875</LongitudeDegrees>
            </Position>
            <AltitudeMeters>2261.60009765625</AltitudeMeters>
            <DistanceMeters>16001.175594698</DistanceMeters>
          </Trackpoint>
          <Trackpoint>
            <Time>2019-04-08T08:51:18.000Z</Time>
            <Position>
              <LatitudeDegrees>28.2503986358642578125</LatitudeDegrees>
              <LongitudeDegrees>-16.61250653676688671112060546875</LongitudeDegrees>
            </Position>
            <AltitudeMeters>2262</AltitudeMeters>
            <DistanceMeters>16002.311948926</DistanceMeters>
          </Trackpoint>
          <Trackpoint>
            <Time>2019-04-08T08:51:20.000Z</Time>
            <Position>
              <LatitudeDegrees>28.2504112087190151214599609375</LatitudeDegrees>
              <LongitudeDegrees>-16.61250703968107700347900390625</LongitudeDegrees>
            </Position>
            <AltitudeMeters>2262.199951171875</AltitudeMeters>
            <DistanceMeters>16003.71177984</DistanceMeters>
          </Trackpoint>
          <Trackpoint>
            <Time>2019-04-08T08:51:22.000Z</Time>
            <Position>
              <LatitudeDegrees>28.25043157674372196197509765625</LatitudeDegrees>
              <LongitudeDegrees>-16.61250955425202846527099609375</LongitudeDegrees>
            </Position>
            <AltitudeMeters>2262.39990234375</AltitudeMeters>
            <DistanceMeters>16005.992420985</DistanceMeters>
          </Trackpoint>
          <Trackpoint>
            <Time>2019-04-08T08:51:24.000Z</Time>
            <Position>
              <LatitudeDegrees>28.250451274216175079345703125</LatitudeDegrees>
              <LongitudeDegrees>-16.612507961690425872802734375</LongitudeDegrees>
            </Position>
            <AltitudeMeters>2263</AltitudeMeters>
            <DistanceMeters>16008.190395257</DistanceMeters>
          </Trackpoint>
          <Trackpoint>
            <Time>2019-04-08T08:51:26.000Z</Time>
            <Position>
              <LatitudeDegrees>28.2504668645560741424560546875</LatitudeDegrees>
              <LongitudeDegrees>-16.6124984063208103179931640625</LongitudeDegrees>
            </Position>
            <AltitudeMeters>2263.39990234375</AltitudeMeters>
            <DistanceMeters>16010.160911146</DistanceMeters>
          </Trackpoint>
          <Trackpoint>
            <Time>2019-04-08T08:51:27.000Z</Time>
            <Position>
              <LatitudeDegrees>28.25047315098345279693603515625</LatitudeDegrees>
              <LongitudeDegrees>-16.61250016652047634124755859375</LongitudeDegrees>
            </Position>
            <AltitudeMeters>2263.60009765625</AltitudeMeters>
            <DistanceMeters>16010.872025962</DistanceMeters>
          </Trackpoint>
          <Trackpoint>
            <Time>2019-04-08T08:51:28.000Z</Time>
            <Position>
              <LatitudeDegrees>28.2504796050488948822021484375</LatitudeDegrees>
              <LongitudeDegrees>-16.61250553093850612640380859375</LongitudeDegrees>
            </Position>
            <AltitudeMeters>2263.800048828125</AltitudeMeters>
            <DistanceMeters>16011.763455559</DistanceMeters>
          </Trackpoint>
          <Trackpoint>
            <Time>2019-04-08T08:51:32.000Z</Time>
            <Position>
              <LatitudeDegrees>28.25049410574138164520263671875</LatitudeDegrees>
              <LongitudeDegrees>-16.61253017373383045196533203125</LongitudeDegrees>
            </Position>
            <AltitudeMeters>2264.39990234375</AltitudeMeters>
            <DistanceMeters>16014.667606278</DistanceMeters>
          </Trackpoint>
          <Trackpoint>
            <Time>2019-04-08T08:51:35.000Z</Time>
            <Position>
              <LatitudeDegrees>28.25050869025290012359619140625</LatitudeDegrees>
              <LongitudeDegrees>-16.61255112849175930023193359375</LongitudeDegrees>
            </Position>
            <AltitudeMeters>2264.800048828125</AltitudeMeters>
            <DistanceMeters>16017.283862753</DistanceMeters>
          </Trackpoint>
          <Trackpoint>
            <Time>2019-04-08T08:51:37.000Z</Time>
            <Position>
              <LatitudeDegrees>28.2505161501467227935791015625</LatitudeDegrees>
              <LongitudeDegrees>-16.61256671883165836334228515625</LongitudeDegrees>
            </Position>
            <AltitudeMeters>2265</AltitudeMeters>
            <DistanceMeters>16019.02053933</DistanceMeters>
          </Trackpoint>
          <Trackpoint>
            <Time>2019-04-08T08:51:42.000Z</Time>
            <Position>
              <LatitudeDegrees>28.250545151531696319580078125</LatitudeDegrees>
              <LongitudeDegrees>-16.61260644905269145965576171875</LongitudeDegrees>
            </Position>
            <AltitudeMeters>2266</AltitudeMeters>
            <DistanceMeters>16024.079317507</DistanceMeters>
          </Trackpoint>
          <Trackpoint>
            <Time>2019-04-08T08:51:43.000Z</Time>
            <Position>
              <LatitudeDegrees>28.25054892338812351226806640625</LatitudeDegrees>
              <LongitudeDegrees>-16.61261625587940216064453125</LongitudeDegrees>
            </Position>
            <AltitudeMeters>2266</AltitudeMeters>
            <DistanceMeters>16025.124611365</DistanceMeters>
          </Trackpoint>
          <Trackpoint>
            <Time>2019-04-08T08:51:48.000Z</Time>
            <Position>
              <LatitudeDegrees>28.25057038106024265289306640625</LatitudeDegrees>
              <LongitudeDegrees>-16.612656824290752410888671875</LongitudeDegrees>
            </Position>
            <AltitudeMeters>2266.800048828125</AltitudeMeters>
            <DistanceMeters>16029.764406861</DistanceMeters>
          </Trackpoint>
          <Trackpoint>
            <Time>2019-04-08T08:51:49.000Z</Time>
            <Position>
              <LatitudeDegrees>28.25057339854538440704345703125</LatitudeDegrees>
              <LongitudeDegrees>-16.61266579292714595794677734375</LongitudeDegrees>
            </Position>
            <AltitudeMeters>2267</AltitudeMeters>
            <DistanceMeters>16030.705123338</DistanceMeters>
          </Trackpoint>
          <Trackpoint>
            <Time>2019-04-08T08:51:54.000Z</Time>
            <Position>
              <LatitudeDegrees>28.25059284456074237823486328125</LatitudeDegrees>
              <LongitudeDegrees>-16.61269538104534149169921875</LongitudeDegrees>
            </Position>
            <AltitudeMeters>2267.39990234375</AltitudeMeters>
            <DistanceMeters>16034.323632817</DistanceMeters>
          </Trackpoint>
          <Trackpoint>
            <Time>2019-04-08T08:52:02.000Z</Time>
            <Position>
              <LatitudeDegrees>28.25066308490931987762451171875</LatitudeDegrees>
              <LongitudeDegrees>-16.6126920282840728759765625</LongitudeDegrees>
            </Position>
            <AltitudeMeters>2268</AltitudeMeters>
            <DistanceMeters>16042.148781273</DistanceMeters>
          </Trackpoint>
          <Trackpoint>
            <Time>2019-04-08T08:52:06.000Z</Time>
            <Position>
              <LatitudeDegrees>28.25068630278110504150390625</LatitudeDegrees>
              <LongitudeDegrees>-16.61268020980060100555419921875</LongitudeDegrees>
            </Position>
            <AltitudeMeters>2268.199951171875</AltitudeMeters>
            <DistanceMeters>16044.98210758</DistanceMeters>
          </Trackpoint>
          <Trackpoint>
            <Time>2019-04-08T08:52:07.000Z</Time>
            <Position>
              <LatitudeDegrees>28.25069175101816654205322265625</LatitudeDegrees>
              <LongitudeDegrees>-16.61267383955419063568115234375</LongitudeDegrees>
            </Position>
            <AltitudeMeters>2268.39990234375</AltitudeMeters>
            <DistanceMeters>16045.853041803</DistanceMeters>
          </Trackpoint>
          <Trackpoint>
            <Time>2019-04-08T08:52:16.000Z</Time>
            <Position>
              <LatitudeDegrees>28.2507639192044734954833984375</LatitudeDegrees>
              <LongitudeDegrees>-16.6126155853271484375</LongitudeDegrees>
            </Position>
            <AltitudeMeters>2269.39990234375</AltitudeMeters>
            <DistanceMeters>16055.709744723</DistanceMeters>
          </Trackpoint>
          <Trackpoint>
            <Time>2019-04-08T08:52:22.000Z</Time>
            <Position>
              <LatitudeDegrees>28.25080758891999721527099609375</LatitudeDegrees>
              <LongitudeDegrees>-16.61257225088775157928466796875</LongitudeDegrees>
            </Position>
            <AltitudeMeters>2269.800048828125</AltitudeMeters>
            <DistanceMeters>16062.165969074</DistanceMeters>
          </Trackpoint>
          <Trackpoint>
            <Time>2019-04-08T08:52:34.000Z</Time>
            <Position>
              <LatitudeDegrees>28.25087414123117923736572265625</LatitudeDegrees>
              <LongitudeDegrees>-16.61242925561964511871337890625</LongitudeDegrees>
            </Position>
            <AltitudeMeters>2270.60009765625</AltitudeMeters>
            <DistanceMeters>16078.022337461</DistanceMeters>
          </Trackpoint>
          <Trackpoint>
            <Time>2019-04-08T08:52:35.000Z</Time>
            <Position>
              <LatitudeDegrees>28.2508775778114795684814453125</LatitudeDegrees>
              <LongitudeDegrees>-16.612414419651031494140625</LongitudeDegrees>
            </Position>
            <AltitudeMeters>2270.60009765625</AltitudeMeters>
            <DistanceMeters>16079.524841741</DistanceMeters>
          </Trackpoint>
          <Trackpoint>
            <Time>2019-04-08T08:52:37.000Z</Time>
            <Position>
              <LatitudeDegrees>28.25088771991431713104248046875</LatitudeDegrees>
              <LongitudeDegrees>-16.61238499917089939117431640625</LongitudeDegrees>
            </Position>
            <AltitudeMeters>2270.60009765625</AltitudeMeters>
            <DistanceMeters>16082.621604758</DistanceMeters>
          </Trackpoint>
          <Trackpoint>
            <Time>2019-04-08T08:52:44.000Z</Time>
            <Position>
              <LatitudeDegrees>28.25092711485922336578369140625</LatitudeDegrees>
              <LongitudeDegrees>-16.61231308244168758392333984375</LongitudeDegrees>
            </Position>
            <AltitudeMeters>2270.800048828125</AltitudeMeters>
            <DistanceMeters>16090.923807688</DistanceMeters>
          </Trackpoint>
          <Trackpoint>
            <Time>2019-04-08T08:52:51.000Z</Time>
            <Position>
              <LatitudeDegrees>28.2509758137166500091552734375</LatitudeDegrees>
              <LongitudeDegrees>-16.61223999224603176116943359375</LongitudeDegrees>
            </Position>
            <AltitudeMeters>2271.39990234375</AltitudeMeters>
            <DistanceMeters>16099.908733031</DistanceMeters>
          </Trackpoint>
          <Trackpoint>
            <Time>2019-04-08T08:52:54.000Z</Time>
            <Position>
              <LatitudeDegrees>28.2509986124932765960693359375</LatitudeDegrees>
              <LongitudeDegrees>-16.61221216432750225067138671875</LongitudeDegrees>
            </Position>
            <AltitudeMeters>2271.60009765625</AltitudeMeters>
            <DistanceMeters>16103.635428292</DistanceMeters>
          </Trackpoint>
          <Trackpoint>
            <Time>2019-04-08T08:52:55.000Z</Time>
            <Position>
              <LatitudeDegrees>28.25101009570062160491943359375</LatitudeDegrees>
              <LongitudeDegrees>-16.61220445297658443450927734375</LongitudeDegrees>
            </Position>
            <AltitudeMeters>2271.60009765625</AltitudeMeters>
            <DistanceMeters>16105.119793022</DistanceMeters>
          </Trackpoint>
          <Trackpoint>
            <Time>2019-04-08T08:52:58.000Z</Time>
            <Position>
              <LatitudeDegrees>28.2510432042181491851806640625</LatitudeDegrees>
              <LongitudeDegrees>-16.6121850907802581787109375</LongitudeDegrees>
            </Position>
            <AltitudeMeters>2271.800048828125</AltitudeMeters>
            <DistanceMeters>16109.26409096</DistanceMeters>
          </Trackpoint>
          <Trackpoint>
            <Time>2019-04-08T08:53:05.000Z</Time>
            <Position>
              <LatitudeDegrees>28.2511116005480289459228515625</LatitudeDegrees>
              <LongitudeDegrees>-16.612131111323833465576171875</LongitudeDegrees>
            </Position>
            <AltitudeMeters>2272</AltitudeMeters>
            <DistanceMeters>16118.534919811</DistanceMeters>
          </Trackpoint>
          <Trackpoint>
            <Time>2019-04-08T08:53:10.000Z</Time>
            <Position>
              <LatitudeDegrees>28.2511535100638866424560546875</LatitudeDegrees>
              <LongitudeDegrees>-16.6120826639235019683837890625</LongitudeDegrees>
            </Position>
            <AltitudeMeters>2272.39990234375</AltitudeMeters>
            <DistanceMeters>16125.192217701</DistanceMeters>
          </Trackpoint>
          <Trackpoint>
            <Time>2019-04-08T08:53:12.000Z</Time>
            <Position>
              <LatitudeDegrees>28.251170776784420013427734375</LatitudeDegrees>
              <LongitudeDegrees>-16.61206196062266826629638671875</LongitudeDegrees>
            </Position>
            <AltitudeMeters>2272.60009765625</AltitudeMeters>
            <DistanceMeters>16127.985421246</DistanceMeters>
          </Trackpoint>
          <Trackpoint>
            <Time>2019-04-08T08:53:16.000Z</Time>
            <Position>
              <LatitudeDegrees>28.25120254419744014739990234375</LatitudeDegrees>
              <LongitudeDegrees>-16.61202658899128437042236328125</LongitudeDegrees>
            </Position>
            <AltitudeMeters>2273.199951171875</AltitudeMeters>
            <DistanceMeters>16132.937762876</DistanceMeters>
          </Trackpoint>
          <Trackpoint>
            <Time>2019-04-08T08:53:22.000Z</Time>
            <Position>
              <LatitudeDegrees>28.25123338960111141204833984375</LatitudeDegrees>
              <LongitudeDegrees>-16.611961461603641510009765625</LongitudeDegrees>
            </Position>
            <AltitudeMeters>2273</AltitudeMeters>
            <DistanceMeters>16140.187248714</DistanceMeters>
          </Trackpoint>
          <Trackpoint>
            <Time>2019-04-08T08:53:29.000Z</Time>
            <Position>
              <LatitudeDegrees>28.25130212120711803436279296875</LatitudeDegrees>
              <LongitudeDegrees>-16.61191980354487895965576171875</LongitudeDegrees>
            </Position>
            <AltitudeMeters>2272.39990234375</AltitudeMeters>
            <DistanceMeters>16148.859705499</DistanceMeters>
          </Trackpoint>
          <Trackpoint>
            <Time>2019-04-08T08:53:35.000Z</Time>
            <Position>
              <LatitudeDegrees>28.2513674162328243255615234375</LatitudeDegrees>
              <LongitudeDegrees>-16.61188728176057338714599609375</LongitudeDegrees>
            </Position>
            <AltitudeMeters>2272.199951171875</AltitudeMeters>
            <DistanceMeters>16156.796000806</DistanceMeters>
          </Trackpoint>
          <Trackpoint>
            <Time>2019-04-08T08:53:37.000Z</Time>
            <Position>
              <LatitudeDegrees>28.25138325802981853485107421875</LatitudeDegrees>
              <LongitudeDegrees>-16.6118643991649150848388671875</LongitudeDegrees>
            </Position>
            <AltitudeMeters>2272.39990234375</AltitudeMeters>
            <DistanceMeters>16159.648385576</DistanceMeters>
          </Trackpoint>
          <Trackpoint>
            <Time>2019-04-08T08:53:38.000Z</Time>
            <Position>
              <LatitudeDegrees>28.251389376819133758544921875</LatitudeDegrees>
              <LongitudeDegrees>-16.61184989847242832183837890625</LongitudeDegrees>
            </Position>
            <AltitudeMeters>2272.39990234375</AltitudeMeters>
            <DistanceMeters>16161.224225359</DistanceMeters>
          </Trackpoint>
          <Trackpoint>
            <Time>2019-04-08T08:53:42.000Z</Time>
            <Position>
              <LatitudeDegrees>28.251399099826812744140625</LatitudeDegrees>
              <LongitudeDegrees>-16.611799187958240509033203125</LongitudeDegrees>
            </Position>
            <AltitudeMeters>2272</AltitudeMeters>
            <DistanceMeters>16166.313258592</DistanceMeters>
          </Trackpoint>
          <Trackpoint>
            <Time>2019-04-08T08:53:45.000Z</Time>
            <Position>
              <LatitudeDegrees>28.25140236876904964447021484375</LatitudeDegrees>
              <LongitudeDegrees>-16.61176373250782489776611328125</LongitudeDegrees>
            </Position>
            <AltitudeMeters>2271.800048828125</AltitudeMeters>
            <DistanceMeters>16169.809931797</DistanceMeters>
          </Trackpoint>
          <Trackpoint>
            <Time>2019-04-08T08:53:46.000Z</Time>
            <Position>
              <LatitudeDegrees>28.25140421278774738311767578125</LatitudeDegrees>
              <LongitudeDegrees>-16.61175065673887729644775390625</LongitudeDegrees>
            </Position>
            <AltitudeMeters>2271.800048828125</AltitudeMeters>
            <DistanceMeters>16171.105923394</DistanceMeters>
          </Trackpoint>
          <Trackpoint>
            <Time>2019-04-08T08:53:52.000Z</Time>
            <Position>
              <LatitudeDegrees>28.2513950765132904052734375</LatitudeDegrees>
              <LongitudeDegrees>-16.6116659156978130340576171875</LongitudeDegrees>
            </Position>
            <AltitudeMeters>2271.800048828125</AltitudeMeters>
            <DistanceMeters>16179.475829788</DistanceMeters>
          </Trackpoint>
          <Trackpoint>
            <Time>2019-04-08T08:53:56.000Z</Time>
            <Position>
              <LatitudeDegrees>28.25137923471629619598388671875</LatitudeDegrees>
              <LongitudeDegrees>-16.611611433327198028564453125</LongitudeDegrees>
            </Position>
            <AltitudeMeters>2270.60009765625</AltitudeMeters>
            <DistanceMeters>16185.101700204</DistanceMeters>
          </Trackpoint>
          <Trackpoint>
            <Time>2019-04-08T08:53:58.000Z</Time>
            <Position>
              <LatitudeDegrees>28.2513831742107868194580078125</LatitudeDegrees>
              <LongitudeDegrees>-16.61158922128379344940185546875</LongitudeDegrees>
            </Position>
            <AltitudeMeters>2270.199951171875</AltitudeMeters>
            <DistanceMeters>16187.322155504</DistanceMeters>
          </Trackpoint>
          <Trackpoint>
            <Time>2019-04-08T08:54:00.000Z</Time>
            <Position>
              <LatitudeDegrees>28.25139281339943408966064453125</LatitudeDegrees>
              <LongitudeDegrees>-16.61157446913421154022216796875</LongitudeDegrees>
            </Position>
            <AltitudeMeters>2269.39990234375</AltitudeMeters>
            <DistanceMeters>16189.122654725</DistanceMeters>
          </Trackpoint>
          <Trackpoint>
            <Time>2019-04-08T08:54:04.000Z</Time>
            <Position>
              <LatitudeDegrees>28.251430951058864593505859375</LatitudeDegrees>
              <LongitudeDegrees>-16.61155686713755130767822265625</LongitudeDegrees>
            </Position>
            <AltitudeMeters>2268.800048828125</AltitudeMeters>
            <DistanceMeters>16193.704676956</DistanceMeters>
          </Trackpoint>
          <Trackpoint>
            <Time>2019-04-08T08:54:05.000Z</Time>
            <Position>
              <LatitudeDegrees>28.2514445297420024871826171875</LatitudeDegrees>
              <LongitudeDegrees>-16.61155116744339466094970703125</LongitudeDegrees>
            </Position>
            <AltitudeMeters>2268.800048828125</AltitudeMeters>
            <DistanceMeters>16195.314531589</DistanceMeters>
          </Trackpoint>
          <Trackpoint>
            <Time>2019-04-08T08:54:08.000Z</Time>
            <Position>
              <LatitudeDegrees>28.25148032046854496002197265625</LatitudeDegrees>
              <LongitudeDegrees>-16.6115468926727771759033203125</LongitudeDegrees>
            </Position>
            <AltitudeMeters>2269.199951171875</AltitudeMeters>
            <DistanceMeters>16199.319205829</DistanceMeters>
          </Trackpoint>
          <Trackpoint>
            <Time>2019-04-08T08:54:11.000Z</Time>
            <Position>
              <LatitudeDegrees>28.25151820667088031768798828125</LatitudeDegrees>
              <LongitudeDegrees>-16.61154546774923801422119140625</LongitudeDegrees>
            </Position>
            <AltitudeMeters>2269.800048828125</AltitudeMeters>
            <DistanceMeters>16203.538006686</DistanceMeters>
          </Trackpoint>
          <Trackpoint>
            <Time>2019-04-08T08:54:13.000Z</Time>
            <Position>
              <LatitudeDegrees>28.25154670514166355133056640625</LatitudeDegrees>
              <LongitudeDegrees>-16.61154127679765224456787109375</LongitudeDegrees>
            </Position>
            <AltitudeMeters>2270.199951171875</AltitudeMeters>
            <DistanceMeters>16206.736612102</DistanceMeters>
          </Trackpoint>
          <Trackpoint>
            <Time>2019-04-08T08:54:16.000Z</Time>
            <Position>
              <LatitudeDegrees>28.25158459134399890899658203125</LatitudeDegrees>
              <LongitudeDegrees>-16.6115341521799564361572265625</LongitudeDegrees>
            </Position>
            <AltitudeMeters>2270.60009765625</AltitudeMeters>
            <DistanceMeters>16211.009645518</DistanceMeters>
          </Trackpoint>
          <Trackpoint>
            <Time>2019-04-08T08:54:21.000Z</Time>
            <Position>
              <LatitudeDegrees>28.2516373135149478912353515625</LatitudeDegrees>
              <LongitudeDegrees>-16.611514203250408172607421875</LongitudeDegrees>
            </Position>
            <AltitudeMeters>2270.39990234375</AltitudeMeters>
            <DistanceMeters>16217.195147429</DistanceMeters>
          </Trackpoint>
          <Trackpoint>
            <Time>2019-04-08T08:54:24.000Z</Time>
            <Position>
              <LatitudeDegrees>28.25165927410125732421875</LatitudeDegrees>
              <LongitudeDegrees>-16.61151529289782047271728515625</LongitudeDegrees>
            </Position>
            <AltitudeMeters>2269.199951171875</AltitudeMeters>
            <DistanceMeters>16219.643814568</DistanceMeters>
          </Trackpoint>
          <Trackpoint>
            <Time>2019-04-08T08:54:25.000Z</Time>
            <Position>
              <LatitudeDegrees>28.25167000293731689453125</LatitudeDegrees>
              <LongitudeDegrees>-16.611521244049072265625</LongitudeDegrees>
            </Position>
            <AltitudeMeters>2269</AltitudeMeters>
            <DistanceMeters>16220.974188569</DistanceMeters>
          </Trackpoint>
          <Trackpoint>
            <Time>2019-04-08T08:54:29.000Z</Time>
            <Position>
              <LatitudeDegrees>28.251708559691905975341796875</LatitudeDegrees>
              <LongitudeDegrees>-16.61151881329715251922607421875</LongitudeDegrees>
            </Position>
            <AltitudeMeters>2268.39990234375</AltitudeMeters>
            <DistanceMeters>16225.272506427</DistanceMeters>
          </Trackpoint>
          <Trackpoint>
            <Time>2019-04-08T08:54:30.000Z</Time>
            <Position>
              <LatitudeDegrees>28.25171635486185550689697265625</LatitudeDegrees>
              <LongitudeDegrees>-16.61151328124105930328369140625</LongitudeDegrees>
            </Position>
            <AltitudeMeters>2268.199951171875</AltitudeMeters>
            <DistanceMeters>16226.295975463</DistanceMeters>
          </Trackpoint>
          <Trackpoint>
            <Time>2019-04-08T08:54:31.000Z</Time>
            <Position>
              <LatitudeDegrees>28.25172456912696361541748046875</LatitudeDegrees>
              <LongitudeDegrees>-16.611506827175617218017578125</LongitudeDegrees>
            </Position>
            <AltitudeMeters>2268</AltitudeMeters>
            <DistanceMeters>16227.404167863</DistanceMeters>
          </Trackpoint>
          <Trackpoint>
            <Time>2019-04-08T08:54:37.000Z</Time>
            <Position>
              <LatitudeDegrees>28.2517861761152744293212890625</LatitudeDegrees>
              <LongitudeDegrees>-16.611488722264766693115234375</LongitudeDegrees>
            </Position>
            <AltitudeMeters>2267.39990234375</AltitudeMeters>
            <DistanceMeters>16234.487324273</DistanceMeters>
          </Trackpoint>
          <Trackpoint>
            <Time>2019-04-08T08:54:39.000Z</Time>
            <Position>
              <LatitudeDegrees>28.25181140564382076263427734375</LatitudeDegrees>
              <LongitudeDegrees>-16.6114835254848003387451171875</LongitudeDegrees>
            </Position>
            <AltitudeMeters>2267.199951171875</AltitudeMeters>
            <DistanceMeters>16237.341291503</DistanceMeters>
          </Trackpoint>
          <Trackpoint>
            <Time>2019-04-08T08:54:42.000Z</Time>
            <Position>
              <LatitudeDegrees>28.25184124521911144256591796875</LatitudeDegrees>
              <LongitudeDegrees>-16.611477993428707122802734375</LongitudeDegrees>
            </Position>
            <AltitudeMeters>2267</AltitudeMeters>
            <DistanceMeters>16240.706364439</DistanceMeters>
          </Trackpoint>
          <Trackpoint>
            <Time>2019-04-08T08:54:50.000Z</Time>
            <Position>
              <LatitudeDegrees>28.2519122399389743804931640625</LatitudeDegrees>
              <LongitudeDegrees>-16.6114707849919795989990234375</LongitudeDegrees>
            </Position>
            <AltitudeMeters>2267.39990234375</AltitudeMeters>
            <DistanceMeters>16248.639814685</DistanceMeters>
          </Trackpoint>
          <Trackpoint>
            <Time>2019-04-08T08:54:53.000Z</Time>
            <Position>
              <LatitudeDegrees>28.25194166041910648345947265625</LatitudeDegrees>
              <LongitudeDegrees>-16.611474640667438507080078125</LongitudeDegrees>
            </Position>
            <AltitudeMeters>2268</AltitudeMeters>
            <DistanceMeters>16251.935748842</DistanceMeters>
          </Trackpoint>
          <Trackpoint>
            <Time>2019-04-08T08:54:55.000Z</Time>
            <Position>
              <LatitudeDegrees>28.25195255689322948455810546875</LatitudeDegrees>
              <LongitudeDegrees>-16.6114724613726139068603515625</LongitudeDegrees>
            </Position>
            <AltitudeMeters>2268.60009765625</AltitudeMeters>
            <DistanceMeters>16253.167435832</DistanceMeters>
          </Trackpoint>
          <Trackpoint>
            <Time>2019-04-08T08:54:58.000Z</Time>
            <Position>
              <LatitudeDegrees>28.25197300873696804046630859375</LatitudeDegrees>
              <LongitudeDegrees>-16.6114701144397258758544921875</LongitudeDegrees>
            </Position>
            <AltitudeMeters>2269.60009765625</AltitudeMeters>
            <DistanceMeters>16255.454008433</DistanceMeters>
          </Trackpoint>
          <Trackpoint>
            <Time>2019-04-08T08:54:59.000Z</Time>
            <Position>
              <LatitudeDegrees>28.25197837315499782562255859375</LatitudeDegrees>
              <LongitudeDegrees>-16.6114731319248676300048828125</LongitudeDegrees>
            </Position>
            <AltitudeMeters>2269.800048828125</AltitudeMeters>
            <DistanceMeters>16256.112372823</DistanceMeters>
          </Trackpoint>
          <Trackpoint>
            <Time>2019-04-08T08:55:05.000Z</Time>
            <Position>
              <LatitudeDegrees>28.25201692990958690643310546875</LatitudeDegrees>
              <LongitudeDegrees>-16.61151428706943988800048828125</LongitudeDegrees>
            </Position>
            <AltitudeMeters>2271</AltitudeMeters>
            <DistanceMeters>16262.002496225</DistanceMeters>
          </Trackpoint>
          <Trackpoint>
            <Time>2019-04-08T08:55:06.000Z</Time>
            <Position>
              <LatitudeDegrees>28.252026736736297607421875</LatitudeDegrees>
              <LongitudeDegrees>-16.61152417771518230438232421875</LongitudeDegrees>
            </Position>
            <AltitudeMeters>2271.199951171875</AltitudeMeters>
            <DistanceMeters>16263.462324311</DistanceMeters>
          </Trackpoint>
          <Trackpoint>
            <Time>2019-04-08T08:55:15.000Z</Time>
            <Position>
              <LatitudeDegrees>28.25210644863545894622802734375</LatitudeDegrees>
              <LongitudeDegrees>-16.6115693561732769012451171875</LongitudeDegrees>
            </Position>
            <AltitudeMeters>2272.199951171875</AltitudeMeters>
            <DistanceMeters>16273.378852558</DistanceMeters>
          </Trackpoint>
          <Trackpoint>
            <Time>2019-04-08T08:55:19.000Z</Time>
            <Position>
              <LatitudeDegrees>28.25212304480373859405517578125</LatitudeDegrees>
              <LongitudeDegrees>-16.61161202006042003631591796875</LongitudeDegrees>
            </Position>
            <AltitudeMeters>2272.800048828125</AltitudeMeters>
            <DistanceMeters>16277.952984948</DistanceMeters>
          </Trackpoint>
          <Trackpoint>
            <Time>2019-04-08T08:55:22.000Z</Time>
            <Position>
              <LatitudeDegrees>28.25213746167719364166259765625</LatitudeDegrees>
              <LongitudeDegrees>-16.6116343997418880462646484375</LongitudeDegrees>
            </Position>
            <AltitudeMeters>2273.199951171875</AltitudeMeters>
            <DistanceMeters>16280.670815431</DistanceMeters>
          </Trackpoint>
          <Trackpoint>
            <Time>2019-04-08T08:55:30.000Z</Time>
            <Position>
              <LatitudeDegrees>28.25218322686851024627685546875</LatitudeDegrees>
              <LongitudeDegrees>-16.6116431169211864471435546875</LongitudeDegrees>
            </Position>
            <AltitudeMeters>2274.39990234375</AltitudeMeters>
            <DistanceMeters>16285.836459233</DistanceMeters>
          </Trackpoint>
          <Trackpoint>
            <Time>2019-04-08T08:55:32.000Z</Time>
            <Position>
              <LatitudeDegrees>28.2522005774080753326416015625</LatitudeDegrees>
              <LongitudeDegrees>-16.61164370365440845489501953125</LongitudeDegrees>
            </Position>
            <AltitudeMeters>2274.60009765625</AltitudeMeters>
            <DistanceMeters>16287.767630269</DistanceMeters>
          </Trackpoint>
          <Trackpoint>
            <Time>2019-04-08T08:55:36.000Z</Time>
            <Position>
              <LatitudeDegrees>28.25222790241241455078125</LatitudeDegrees>
              <LongitudeDegrees>-16.61166331730782985687255859375</LongitudeDegrees>
            </Position>
            <AltitudeMeters>2275</AltitudeMeters>
            <DistanceMeters>16291.367374663</DistanceMeters>
          </Trackpoint>
          <Trackpoint>
            <Time>2019-04-08T08:55:39.000Z</Time>
            <Position>
              <LatitudeDegrees>28.25224122963845729827880859375</LatitudeDegrees>
              <LongitudeDegrees>-16.6116934083402156829833984375</LongitudeDegrees>
            </Position>
            <AltitudeMeters>2275.60009765625</AltitudeMeters>
            <DistanceMeters>16294.670151123</DistanceMeters>
          </Trackpoint>
          <Trackpoint>
            <Time>2019-04-08T08:55:46.000Z</Time>
            <Position>
              <LatitudeDegrees>28.25229906477034091949462890625</LatitudeDegrees>
              <LongitudeDegrees>-16.61172819323837757110595703125</LongitudeDegrees>
            </Position>
            <AltitudeMeters>2276.800048828125</AltitudeMeters>
            <DistanceMeters>16301.954430715</DistanceMeters>
          </Trackpoint>
          <Trackpoint>
            <Time>2019-04-08T08:55:48.000Z</Time>
            <Position>
              <LatitudeDegrees>28.2523142360150814056396484375</LatitudeDegrees>
              <LongitudeDegrees>-16.611727438867092132568359375</LongitudeDegrees>
            </Position>
            <AltitudeMeters>2277</AltitudeMeters>
            <DistanceMeters>16303.64366254</DistanceMeters>
          </Trackpoint>
          <Trackpoint>
            <Time>2019-04-08T08:55:50.000Z</Time>
            <Position>
              <LatitudeDegrees>28.2523276470601558685302734375</LatitudeDegrees>
              <LongitudeDegrees>-16.61173908971250057220458984375</LongitudeDegrees>
            </Position>
            <AltitudeMeters>2277.199951171875</AltitudeMeters>
            <DistanceMeters>16305.520289784</DistanceMeters>
          </Trackpoint>
          <Trackpoint>
            <Time>2019-04-08T08:55:53.000Z</Time>
            <Position>
              <LatitudeDegrees>28.25234851799905300140380859375</LatitudeDegrees>
              <LongitudeDegrees>-16.611746214330196380615234375</LongitudeDegrees>
            </Position>
            <AltitudeMeters>2278</AltitudeMeters>
            <DistanceMeters>16307.94672953</DistanceMeters>
          </Trackpoint>
          <Trackpoint>
            <Time>2019-04-08T08:55:56.000Z</Time>
            <Position>
              <LatitudeDegrees>28.25236880220472812652587890625</LatitudeDegrees>
              <LongitudeDegrees>-16.6117406822741031646728515625</LongitudeDegrees>
            </Position>
            <AltitudeMeters>2278.39990234375</AltitudeMeters>
            <DistanceMeters>16310.270516464</DistanceMeters>
          </Trackpoint>
          <Trackpoint>
            <Time>2019-04-08T08:55:59.000Z</Time>
            <Position>
              <LatitudeDegrees>28.25237969867885112762451171875</LatitudeDegrees>
              <LongitudeDegrees>-16.6117178834974765777587890625</LongitudeDegrees>
            </Position>
            <AltitudeMeters>2279.39990234375</AltitudeMeters>
            <DistanceMeters>16312.813258042</DistanceMeters>
          </Trackpoint>
          <Trackpoint>
            <Time>2019-04-08T08:56:04.000Z</Time>
            <Position>
              <LatitudeDegrees>28.25239595957100391387939453125</LatitudeDegrees>
              <LongitudeDegrees>-16.61167304031550884246826171875</LongitudeDegrees>
            </Position>
            <AltitudeMeters>2279.60009765625</AltitudeMeters>
            <DistanceMeters>16317.567443707</DistanceMeters>
          </Trackpoint>
          <Trackpoint>
            <Time>2019-04-08T08:56:11.000Z</Time>
            <Position>
              <LatitudeDegrees>28.2524463348090648651123046875</LatitudeDegrees>
              <LongitudeDegrees>-16.61162861622869968414306640625</LongitudeDegrees>
            </Position>
            <AltitudeMeters>2280.60009765625</AltitudeMeters>
            <DistanceMeters>16324.666518057</DistanceMeters>
          </Trackpoint>
          <Trackpoint>
            <Time>2019-04-08T08:56:16.000Z</Time>
            <Position>
              <LatitudeDegrees>28.25248111970722675323486328125</LatitudeDegrees>
              <LongitudeDegrees>-16.6115941666066646575927734375</LongitudeDegrees>
            </Position>
            <AltitudeMeters>2281.39990234375</AltitudeMeters>
            <DistanceMeters>16329.803237182</DistanceMeters>
          </Trackpoint>
          <Trackpoint>
            <Time>2019-04-08T08:56:19.000Z</Time>
            <Position>
              <LatitudeDegrees>28.2525006495416164398193359375</LatitudeDegrees>
              <LongitudeDegrees>-16.61157262511551380157470703125</LongitudeDegrees>
            </Position>
            <AltitudeMeters>2281.800048828125</AltitudeMeters>
            <DistanceMeters>16332.832190412</DistanceMeters>
          </Trackpoint>
          <Trackpoint>
            <Time>2019-04-08T08:56:20.000Z</Time>
            <Position>
              <LatitudeDegrees>28.25251347385346889495849609375</LatitudeDegrees>
              <LongitudeDegrees>-16.611571200191974639892578125</LongitudeDegrees>
            </Position>
            <AltitudeMeters>2281.800048828125</AltitudeMeters>
            <DistanceMeters>16334.267062333</DistanceMeters>
          </Trackpoint>
          <Trackpoint>
            <Time>2019-04-08T08:56:25.000Z</Time>
            <Position>
              <LatitudeDegrees>28.252550102770328521728515625</LatitudeDegrees>
              <LongitudeDegrees>-16.61155653186142444610595703125</LongitudeDegrees>
            </Position>
            <AltitudeMeters>2282.39990234375</AltitudeMeters>
            <DistanceMeters>16338.590516766</DistanceMeters>
          </Trackpoint>
          <Trackpoint>
            <Time>2019-04-08T08:56:32.000Z</Time>
            <Position>
              <LatitudeDegrees>28.25258991681039333343505859375</LatitudeDegrees>
              <LongitudeDegrees>-16.611499451100826263427734375</LongitudeDegrees>
            </Position>
            <AltitudeMeters>2282.800048828125</AltitudeMeters>
            <DistanceMeters>16345.728914442</DistanceMeters>
          </Trackpoint>
          <Trackpoint>
            <Time>2019-04-08T08:56:33.000Z</Time>
            <Position>
              <LatitudeDegrees>28.25259377248585224151611328125</LatitudeDegrees>
              <LongitudeDegrees>-16.611494757235050201416015625</LongitudeDegrees>
            </Position>
            <AltitudeMeters>2283</AltitudeMeters>
            <DistanceMeters>16346.35204628</DistanceMeters>
          </Trackpoint>
          <Trackpoint>
            <Time>2019-04-08T08:56:38.000Z</Time>
            <Position>
              <LatitudeDegrees>28.25262327678501605987548828125</LatitudeDegrees>
              <LongitudeDegrees>-16.611456535756587982177734375</LongitudeDegrees>
            </Position>
            <AltitudeMeters>2283.199951171875</AltitudeMeters>
            <DistanceMeters>16351.335289222</DistanceMeters>
          </Trackpoint>
          <Trackpoint>
            <Time>2019-04-08T08:56:49.000Z</Time>
            <Position>
              <LatitudeDegrees>28.2527323253452777862548828125</LatitudeDegrees>
              <LongitudeDegrees>-16.61138302646577358245849609375</LongitudeDegrees>
            </Position>
            <AltitudeMeters>2283.800048828125</AltitudeMeters>
            <DistanceMeters>16365.451155005</DistanceMeters>
          </Trackpoint>
          <Trackpoint>
            <Time>2019-04-08T08:56:54.000Z</Time>
            <Position>
              <LatitudeDegrees>28.25279049575328826904296875</LatitudeDegrees>
              <LongitudeDegrees>-16.611370705068111419677734375</LongitudeDegrees>
            </Position>
            <AltitudeMeters>2284.39990234375</AltitudeMeters>
            <DistanceMeters>16372.037541513</DistanceMeters>
          </Trackpoint>
          <Trackpoint>
            <Time>2019-04-08T08:56:58.000Z</Time>
            <Position>
              <LatitudeDegrees>28.2528332434594631195068359375</LatitudeDegrees>
              <LongitudeDegrees>-16.61135670728981494903564453125</LongitudeDegrees>
            </Position>
            <AltitudeMeters>2285</AltitudeMeters>
            <DistanceMeters>16376.990794757</DistanceMeters>
          </Trackpoint>
          <Trackpoint>
            <Time>2019-04-08T08:57:06.000Z</Time>
            <Position>
              <LatitudeDegrees>28.252891413867473602294921875</LatitudeDegrees>
              <LongitudeDegrees>-16.61130541004240512847900390625</LongitudeDegrees>
            </Position>
            <AltitudeMeters>2285.39990234375</AltitudeMeters>
            <DistanceMeters>16385.189568388</DistanceMeters>
          </Trackpoint>
          <Trackpoint>
            <Time>2019-04-08T08:57:08.000Z</Time>
            <Position>
              <LatitudeDegrees>28.25289954431354999542236328125</LatitudeDegrees>
              <LongitudeDegrees>-16.61128319799900054931640625</LongitudeDegrees>
            </Position>
            <AltitudeMeters>2285.60009765625</AltitudeMeters>
            <DistanceMeters>16387.548069414</DistanceMeters>
          </Trackpoint>
          <Trackpoint>
            <Time>2019-04-08T08:57:19.000Z</Time>
            <Position>
              <LatitudeDegrees>28.2529529370367527008056640625</LatitudeDegrees>
              <LongitudeDegrees>-16.61118705756962299346923828125</LongitudeDegrees>
            </Position>
            <AltitudeMeters>2286.60009765625</AltitudeMeters>
            <DistanceMeters>16398.690939381</DistanceMeters>
          </Trackpoint>
          <Trackpoint>
            <Time>2019-04-08T08:57:20.000Z</Time>
            <Position>
              <LatitudeDegrees>28.25295352376997470855712890625</LatitudeDegrees>
              <LongitudeDegrees>-16.611177586019039154052734375</LongitudeDegrees>
            </Position>
            <AltitudeMeters>2286.800048828125</AltitudeMeters>
            <DistanceMeters>16399.62200723</DistanceMeters>
          </Trackpoint>
          <Trackpoint>
            <Time>2019-04-08T08:57:26.000Z</Time>
            <Position>
              <LatitudeDegrees>28.25297079049050807952880859375</LatitudeDegrees>
              <LongitudeDegrees>-16.6111143864691257476806640625</LongitudeDegrees>
            </Position>
            <AltitudeMeters>2285.800048828125</AltitudeMeters>
            <DistanceMeters>16406.109625152</DistanceMeters>
          </Trackpoint>
          <Trackpoint>
            <Time>2019-04-08T08:57:28.000Z</Time>
            <Position>
              <LatitudeDegrees>28.25297934003174304962158203125</LatitudeDegrees>
              <LongitudeDegrees>-16.6110872291028499603271484375</LongitudeDegrees>
            </Position>
            <AltitudeMeters>2285.800048828125</AltitudeMeters>
            <DistanceMeters>16408.936570085</DistanceMeters>
          </Trackpoint>
          <Trackpoint>
            <Time>2019-04-08T08:57:36.000Z</Time>
            <Position>
              <LatitudeDegrees>28.25303818099200725555419921875</LatitudeDegrees>
              <LongitudeDegrees>-16.61101673729717731475830078125</LongitudeDegrees>
            </Position>
            <AltitudeMeters>2285.800048828125</AltitudeMeters>
            <DistanceMeters>16418.457753699</DistanceMeters>
          </Trackpoint>
          <Trackpoint>
            <Time>2019-04-08T08:57:43.000Z</Time>
            <Position>
              <LatitudeDegrees>28.25305561535060405731201171875</LatitudeDegrees>
              <LongitudeDegrees>-16.6109620034694671630859375</LongitudeDegrees>
            </Position>
            <AltitudeMeters>2285.60009765625</AltitudeMeters>
            <DistanceMeters>16424.164105919</DistanceMeters>
          </Trackpoint>
          <Trackpoint>
            <Time>2019-04-08T08:57:51.000Z</Time>
            <Position>
              <LatitudeDegrees>28.25304932892322540283203125</LatitudeDegrees>
              <LongitudeDegrees>-16.61090475507080554962158203125</LongitudeDegrees>
            </Position>
            <AltitudeMeters>2284.800048828125</AltitudeMeters>
            <DistanceMeters>16429.820390993</DistanceMeters>
          </Trackpoint>
          <Trackpoint>
            <Time>2019-04-08T08:57:55.000Z</Time>
            <Position>
              <LatitudeDegrees>28.25305695645511150360107421875</LatitudeDegrees>
              <LongitudeDegrees>-16.610855050384998321533203125</LongitudeDegrees>
            </Position>
            <AltitudeMeters>2283.800048828125</AltitudeMeters>
            <DistanceMeters>16434.767259413</DistanceMeters>
          </Trackpoint>
          <Trackpoint>
            <Time>2019-04-08T08:57:59.000Z</Time>
            <Position>
              <LatitudeDegrees>28.253071121871471405029296875</LatitudeDegrees>
              <LongitudeDegrees>-16.61081355996429920196533203125</LongitudeDegrees>
            </Position>
            <AltitudeMeters>2283.60009765625</AltitudeMeters>
            <DistanceMeters>16439.130217257</DistanceMeters>
          </Trackpoint>
          <Trackpoint>
            <Time>2019-04-08T08:58:02.000Z</Time>
            <Position>
              <LatitudeDegrees>28.25308411382138729095458984375</LatitudeDegrees>
              <LongitudeDegrees>-16.61079880781471729278564453125</LongitudeDegrees>
            </Position>
            <AltitudeMeters>2283</AltitudeMeters>
            <DistanceMeters>16441.174948387</DistanceMeters>
          </Trackpoint>
          <Trackpoint>
            <Time>2019-04-08T08:58:06.000Z</Time>
            <Position>
              <LatitudeDegrees>28.25309853069484233856201171875</LatitudeDegrees>
              <LongitudeDegrees>-16.610789000988006591796875</LongitudeDegrees>
            </Position>
            <AltitudeMeters>2282.60009765625</AltitudeMeters>
            <DistanceMeters>16443.046757581</DistanceMeters>
          </Trackpoint>
          <Trackpoint>
            <Time>2019-04-08T08:58:11.000Z</Time>
            <Position>
              <LatitudeDegrees>28.2531175576150417327880859375</LatitudeDegrees>
              <LongitudeDegrees>-16.61077399738132953643798828125</LongitudeDegrees>
            </Position>
            <AltitudeMeters>2282</AltitudeMeters>
            <DistanceMeters>16445.624767717</DistanceMeters>
          </Trackpoint>
          <Trackpoint>
            <Time>2019-04-08T08:58:16.000Z</Time>
            <Position>
              <LatitudeDegrees>28.2531618140637874603271484375</LatitudeDegrees>
              <LongitudeDegrees>-16.61075002513825893402099609375</LongitudeDegrees>
            </Position>
            <AltitudeMeters>2280.800048828125</AltitudeMeters>
            <DistanceMeters>16451.081982402</DistanceMeters>
          </Trackpoint>
          <Trackpoint>
            <Time>2019-04-08T08:58:22.000Z</Time>
            <Position>
              <LatitudeDegrees>28.253209926187992095947265625</LatitudeDegrees>
              <LongitudeDegrees>-16.610702164471149444580078125</LongitudeDegrees>
            </Position>
            <AltitudeMeters>2279.800048828125</AltitudeMeters>
            <DistanceMeters>16458.202013943</DistanceMeters>
          </Trackpoint>
          <Trackpoint>
            <Time>2019-04-08T08:58:25.000Z</Time>
            <Position>
              <LatitudeDegrees>28.25324353761970996856689453125</LatitudeDegrees>
              <LongitudeDegrees>-16.61067710258066654205322265625</LongitudeDegrees>
            </Position>
            <AltitudeMeters>2279.39990234375</AltitudeMeters>
            <DistanceMeters>16462.679375857</DistanceMeters>
          </Trackpoint>
          <Trackpoint>
            <Time>2019-04-08T08:58:30.000Z</Time>
            <Position>
              <LatitudeDegrees>28.25327371247112751007080078125</LatitudeDegrees>
              <LongitudeDegrees>-16.61065556108951568603515625</LongitudeDegrees>
            </Position>
            <AltitudeMeters>2279</AltitudeMeters>
            <DistanceMeters>16466.646670054</DistanceMeters>
          </Trackpoint>
          <Trackpoint>
            <Time>2019-04-08T08:58:31.000Z</Time>
            <Position>
              <LatitudeDegrees>28.25327505357563495635986328125</LatitudeDegrees>
              <LongitudeDegrees>-16.61065287888050079345703125</LongitudeDegrees>
            </Position>
            <AltitudeMeters>2279</AltitudeMeters>
            <DistanceMeters>16466.94717091</DistanceMeters>
          </Trackpoint>
          <Trackpoint>
            <Time>2019-04-08T08:58:37.000Z</Time>
            <Position>
              <LatitudeDegrees>28.253305144608020782470703125</LatitudeDegrees>
              <LongitudeDegrees>-16.6106191836297512054443359375</LongitudeDegrees>
            </Position>
            <AltitudeMeters>2277.800048828125</AltitudeMeters>
            <DistanceMeters>16471.652672736</DistanceMeters>
          </Trackpoint>
          <Trackpoint>
            <Time>2019-04-08T08:58:38.000Z</Time>
            <Position>
              <LatitudeDegrees>28.25330858118832111358642578125</LatitudeDegrees>
              <LongitudeDegrees>-16.610618345439434051513671875</LongitudeDegrees>
            </Position>
            <AltitudeMeters>2277.39990234375</AltitudeMeters>
            <DistanceMeters>16472.044477917</DistanceMeters>
          </Trackpoint>
          <Trackpoint>
            <Time>2019-04-08T08:58:42.000Z</Time>
            <Position>
              <LatitudeDegrees>28.25332291424274444580078125</LatitudeDegrees>
              <LongitudeDegrees>-16.6105970554053783416748046875</LongitudeDegrees>
            </Position>
            <AltitudeMeters>2276.39990234375</AltitudeMeters>
            <DistanceMeters>16474.671068559</DistanceMeters>
          </Trackpoint>
          <Trackpoint>
            <Time>2019-04-08T08:58:46.000Z</Time>
            <Position>
              <LatitudeDegrees>28.25334629975259304046630859375</LatitudeDegrees>
              <LongitudeDegrees>-16.6105833090841770172119140625</LongitudeDegrees>
            </Position>
            <AltitudeMeters>2276</AltitudeMeters>
            <DistanceMeters>16477.603070056</DistanceMeters>
          </Trackpoint>
          <Trackpoint>
            <Time>2019-04-08T08:58:53.000Z</Time>
            <Position>
              <LatitudeDegrees>28.2534293644130229949951171875</LatitudeDegrees>
              <LongitudeDegrees>-16.61055003292858600616455078125</LongitudeDegrees>
            </Position>
            <AltitudeMeters>2275.800048828125</AltitudeMeters>
            <DistanceMeters>16487.407414182</DistanceMeters>
          </Trackpoint>
          <Trackpoint>
            <Time>2019-04-08T08:58:59.000Z</Time>
            <Position>
              <LatitudeDegrees>28.25349264778196811676025390625</LatitudeDegrees>
              <LongitudeDegrees>-16.6105145774781703948974609375</LongitudeDegrees>
            </Position>
            <AltitudeMeters>2275.800048828125</AltitudeMeters>
            <DistanceMeters>16495.261934044</DistanceMeters>
          </Trackpoint>
          <Trackpoint>
            <Time>2019-04-08T08:59:00.000Z</Time>
            <Position>
              <LatitudeDegrees>28.25350354425609111785888671875</LatitudeDegrees>
              <LongitudeDegrees>-16.6105018369853496551513671875</LongitudeDegrees>
            </Position>
            <AltitudeMeters>2275.60009765625</AltitudeMeters>
            <DistanceMeters>16497.003802491</DistanceMeters>
          </Trackpoint>
          <Trackpoint>
            <Time>2019-04-08T08:59:03.000Z</Time>
            <Position>
              <LatitudeDegrees>28.253534473478794097900390625</LatitudeDegrees>
              <LongitudeDegrees>-16.61047174595296382904052734375</LongitudeDegrees>
            </Position>
            <AltitudeMeters>2275.39990234375</AltitudeMeters>
            <DistanceMeters>16501.537283933</DistanceMeters>
          </Trackpoint>
          <Trackpoint>
            <Time>2019-04-08T08:59:12.000Z</Time>
            <Position>
              <LatitudeDegrees>28.25363698415458202362060546875</LatitudeDegrees>
              <LongitudeDegrees>-16.61041340790688991546630859375</LongitudeDegrees>
            </Position>
            <AltitudeMeters>2275</AltitudeMeters>
            <DistanceMeters>16514.300613398</DistanceMeters>
          </Trackpoint>
          <Trackpoint>
            <Time>2019-04-08T08:59:15.000Z</Time>
            <Position>
              <LatitudeDegrees>28.25367134995758533477783203125</LatitudeDegrees>
              <LongitudeDegrees>-16.610390357673168182373046875</LongitudeDegrees>
            </Position>
            <AltitudeMeters>2275</AltitudeMeters>
            <DistanceMeters>16518.743556917</DistanceMeters>
          </Trackpoint>
          <Trackpoint>
            <Time>2019-04-08T08:59:20.000Z</Time>
            <Position>
              <LatitudeDegrees>28.25372398830950260162353515625</LatitudeDegrees>
              <LongitudeDegrees>-16.61035515367984771728515625</LongitudeDegrees>
            </Position>
            <AltitudeMeters>2275</AltitudeMeters>
            <DistanceMeters>16525.543115093</DistanceMeters>
          </Trackpoint>
          <Trackpoint>
            <Time>2019-04-08T08:59:24.000Z</Time>
            <Position>
              <LatitudeDegrees>28.2537559233605861663818359375</LatitudeDegrees>
              <LongitudeDegrees>-16.61033478565514087677001953125</LongitudeDegrees>
            </Position>
            <AltitudeMeters>2275.39990234375</AltitudeMeters>
            <DistanceMeters>16529.620414534</DistanceMeters>
          </Trackpoint>
          <Trackpoint>
            <Time>2019-04-08T08:59:25.000Z</Time>
            <Position>
              <LatitudeDegrees>28.2537596113979816436767578125</LatitudeDegrees>
              <LongitudeDegrees>-16.61032590083777904510498046875</LongitudeDegrees>
            </Position>
            <AltitudeMeters>2275.39990234375</AltitudeMeters>
            <DistanceMeters>16530.584830354</DistanceMeters>
          </Trackpoint>
          <Trackpoint>
            <Time>2019-04-08T08:59:30.000Z</Time>
            <Position>
              <LatitudeDegrees>28.25380143709480762481689453125</LatitudeDegrees>
              <LongitudeDegrees>-16.6102939657866954803466796875</LongitudeDegrees>
            </Position>
            <AltitudeMeters>2275.800048828125</AltitudeMeters>
            <DistanceMeters>16536.195431613</DistanceMeters>
          </Trackpoint>
          <Trackpoint>
            <Time>2019-04-08T08:59:31.000Z</Time>
            <Position>
              <LatitudeDegrees>28.2538122497498989105224609375</LatitudeDegrees>
              <LongitudeDegrees>-16.61029103212058544158935546875</LongitudeDegrees>
            </Position>
            <AltitudeMeters>2275.800048828125</AltitudeMeters>
            <DistanceMeters>16537.434428383</DistanceMeters>
          </Trackpoint>
          <Trackpoint>
            <Time>2019-04-08T08:59:35.000Z</Time>
            <Position>
              <LatitudeDegrees>28.253866732120513916015625</LatitudeDegrees>
              <LongitudeDegrees>-16.61027602851390838623046875</LongitudeDegrees>
            </Position>
            <AltitudeMeters>2276</AltitudeMeters>
            <DistanceMeters>16543.675159085</DistanceMeters>
          </Trackpoint>
          <Trackpoint>
            <Time>2019-04-08T08:59:40.000Z</Time>
            <Position>
              <LatitudeDegrees>28.253920711576938629150390625</LatitudeDegrees>
              <LongitudeDegrees>-16.61024895496666431427001953125</LongitudeDegrees>
            </Position>
            <AltitudeMeters>2276.60009765625</AltitudeMeters>
            <DistanceMeters>16550.244385472</DistanceMeters>
          </Trackpoint>
          <Trackpoint>
            <Time>2019-04-08T08:59:45.000Z</Time>
            <Position>
              <LatitudeDegrees>28.25396521948277950286865234375</LatitudeDegrees>
              <LongitudeDegrees>-16.61020788364112377166748046875</LongitudeDegrees>
            </Position>
            <AltitudeMeters>2276.800048828125</AltitudeMeters>
            <DistanceMeters>16556.628172357</DistanceMeters>
          </Trackpoint>
          <Trackpoint>
            <Time>2019-04-08T08:59:46.000Z</Time>
            <Position>
              <LatitudeDegrees>28.25397477485239505767822265625</LatitudeDegrees>
              <LongitudeDegrees>-16.610199250280857086181640625</LongitudeDegrees>
            </Position>
            <AltitudeMeters>2277</AltitudeMeters>
            <DistanceMeters>16557.985425316</DistanceMeters>
          </Trackpoint>
          <Trackpoint>
            <Time>2019-04-08T08:59:50.000Z</Time>
            <Position>
              <LatitudeDegrees>28.25400277040898799896240234375</LatitudeDegrees>
              <LongitudeDegrees>-16.610166393220424652099609375</LongitudeDegrees>
            </Position>
            <AltitudeMeters>2277.199951171875</AltitudeMeters>
            <DistanceMeters>16562.466819074</DistanceMeters>
          </Trackpoint>
          <Trackpoint>
            <Time>2019-04-08T08:59:51.000Z</Time>
            <Position>
              <LatitudeDegrees>28.25401366688311100006103515625</LatitudeDegrees>
              <LongitudeDegrees>-16.61016865633428096771240234375</LongitudeDegrees>
            </Position>
            <AltitudeMeters>2277.199951171875</AltitudeMeters>
            <DistanceMeters>16563.698506064</DistanceMeters>
          </Trackpoint>
          <Trackpoint>
            <Time>2019-04-08T08:59:55.000Z</Time>
            <Position>
              <LatitudeDegrees>28.2540620304644107818603515625</LatitudeDegrees>
              <LongitudeDegrees>-16.610175110399723052978515625</LongitudeDegrees>
            </Position>
            <AltitudeMeters>2277.39990234375</AltitudeMeters>
            <DistanceMeters>16569.11752891</DistanceMeters>
          </Trackpoint>
          <Trackpoint>
            <Time>2019-04-08T08:59:57.000Z</Time>
            <Position>
              <LatitudeDegrees>28.2540751062333583831787109375</LatitudeDegrees>
              <LongitudeDegrees>-16.610152311623096466064453125</LongitudeDegrees>
            </Position>
            <AltitudeMeters>2277.60009765625</AltitudeMeters>
            <DistanceMeters>16571.783362768</DistanceMeters>
          </Trackpoint>
          <Trackpoint>
            <Time>2019-04-08T08:59:59.000Z</Time>
            <Position>
              <LatitudeDegrees>28.25407661497592926025390625</LatitudeDegrees>
              <LongitudeDegrees>-16.6101290099322795867919921875</LongitudeDegrees>
            </Position>
            <AltitudeMeters>2277.800048828125</AltitudeMeters>
            <DistanceMeters>16574.071909105</DistanceMeters>
          </Trackpoint>
          <Trackpoint>
            <Time>2019-04-08T09:00:00.000Z</Time>
            <Position>
              <LatitudeDegrees>28.25407301075756549835205078125</LatitudeDegrees>
              <LongitudeDegrees>-16.610115431249141693115234375</LongitudeDegrees>
            </Position>
            <AltitudeMeters>2278</AltitudeMeters>
            <DistanceMeters>16575.462030092</DistanceMeters>
          </Trackpoint>
          <Trackpoint>
            <Time>2019-04-08T09:00:01.000Z</Time>
            <Position>
              <LatitudeDegrees>28.25406949035823345184326171875</LatitudeDegrees>
              <LongitudeDegrees>-16.61010176874697208404541015625</LongitudeDegrees>
            </Position>
            <AltitudeMeters>2278</AltitudeMeters>
            <DistanceMeters>16576.861861007</DistanceMeters>
          </Trackpoint>
          <Trackpoint>
            <Time>2019-04-08T09:00:08.000Z</Time>
            <Position>
              <LatitudeDegrees>28.25405783951282501220703125</LatitudeDegrees>
              <LongitudeDegrees>-16.61001794971525669097900390625</LongitudeDegrees>
            </Position>
            <AltitudeMeters>2278.39990234375</AltitudeMeters>
            <DistanceMeters>16585.181448493</DistanceMeters>
          </Trackpoint>
          <Trackpoint>
            <Time>2019-04-08T09:00:14.000Z</Time>
            <Position>
              <LatitudeDegrees>28.25409128330647945404052734375</LatitudeDegrees>
              <LongitudeDegrees>-16.60996028222143650054931640625</LongitudeDegrees>
            </Position>
            <AltitudeMeters>2279.199951171875</AltitudeMeters>
            <DistanceMeters>16591.950392862</DistanceMeters>
          </Trackpoint>
          <Trackpoint>
            <Time>2019-04-08T09:00:15.000Z</Time>
            <Position>
              <LatitudeDegrees>28.254093714058399200439453125</LatitudeDegrees>
              <LongitudeDegrees>-16.60995407961308956146240234375</LongitudeDegrees>
            </Position>
            <AltitudeMeters>2279.199951171875</AltitudeMeters>
            <DistanceMeters>16592.622333204</DistanceMeters>
          </Trackpoint>
          <Trackpoint>
            <Time>2019-04-08T09:00:19.000Z</Time>
            <Position>
              <LatitudeDegrees>28.254119865596294403076171875</LatitudeDegrees>
              <LongitudeDegrees>-16.60991971381008625030517578125</LongitudeDegrees>
            </Position>
            <AltitudeMeters>2279.39990234375</AltitudeMeters>
            <DistanceMeters>16597.075427394</DistanceMeters>
          </Trackpoint>
          <Trackpoint>
            <Time>2019-04-08T09:00:21.000Z</Time>
            <Position>
              <LatitudeDegrees>28.25412330217659473419189453125</LatitudeDegrees>
              <LongitudeDegrees>-16.60989339463412761688232421875</LongitudeDegrees>
            </Position>
            <AltitudeMeters>2279.60009765625</AltitudeMeters>
            <DistanceMeters>16599.684771687</DistanceMeters>
          </Trackpoint>
          <Trackpoint>
            <Time>2019-04-08T09:00:24.000Z</Time>
            <Position>
              <LatitudeDegrees>28.2541270740330219268798828125</LatitudeDegrees>
              <LongitudeDegrees>-16.60986120812594890594482421875</LongitudeDegrees>
            </Position>
            <AltitudeMeters>2279.60009765625</AltitudeMeters>
            <DistanceMeters>16602.869230173</DistanceMeters>
          </Trackpoint>
          <Trackpoint>
            <Time>2019-04-08T09:00:26.000Z</Time>
            <Position>
              <LatitudeDegrees>28.25413025915622711181640625</LatitudeDegrees>
              <LongitudeDegrees>-16.60983623005449771881103515625</LongitudeDegrees>
            </Position>
            <AltitudeMeters>2280.199951171875</AltitudeMeters>
            <DistanceMeters>16605.343576921</DistanceMeters>
          </Trackpoint>
          <Trackpoint>
            <Time>2019-04-08T09:00:29.000Z</Time>
            <Position>
              <LatitudeDegrees>28.25414023362100124359130859375</LatitudeDegrees>
              <LongitudeDegrees>-16.6098017804324626922607421875</LongitudeDegrees>
            </Position>
            <AltitudeMeters>2281.39990234375</AltitudeMeters>
            <DistanceMeters>16608.897880924</DistanceMeters>
          </Trackpoint>
          <Trackpoint>
            <Time>2019-04-08T09:00:30.000Z</Time>
            <Position>
              <LatitudeDegrees>28.25414358638226985931396484375</LatitudeDegrees>
              <LongitudeDegrees>-16.60979666747152805328369140625</LongitudeDegrees>
            </Position>
            <AltitudeMeters>2281.60009765625</AltitudeMeters>
            <DistanceMeters>16609.528216837</DistanceMeters>
          </Trackpoint>
          <Trackpoint>
            <Time>2019-04-08T09:00:37.000Z</Time>
            <Position>
              <LatitudeDegrees>28.25416336767375469207763671875</LatitudeDegrees>
              <LongitudeDegrees>-16.60975635051727294921875</LongitudeDegrees>
            </Position>
            <AltitudeMeters>2282.800048828125</AltitudeMeters>
            <DistanceMeters>16614.051727998</DistanceMeters>
          </Trackpoint>
          <Trackpoint>
            <Time>2019-04-08T09:00:38.000Z</Time>
            <Position>
              <LatitudeDegrees>28.2541639544069766998291015625</LatitudeDegrees>
              <LongitudeDegrees>-16.6097484715282917022705078125</LongitudeDegrees>
            </Position>
            <AltitudeMeters>2282.800048828125</AltitudeMeters>
            <DistanceMeters>16614.823728675</DistanceMeters>
          </Trackpoint>
          <Trackpoint>
            <Time>2019-04-08T09:00:43.000Z</Time>
            <Position>
              <LatitudeDegrees>28.25417107902467250823974609375</LatitudeDegrees>
              <LongitudeDegrees>-16.609705723822116851806640625</LongitudeDegrees>
            </Position>
            <AltitudeMeters>2284</AltitudeMeters>
            <DistanceMeters>16619.08935923</DistanceMeters>
          </Trackpoint>
          <Trackpoint>
            <Time>2019-04-08T09:00:47.000Z</Time>
            <Position>
              <LatitudeDegrees>28.25418096967041492462158203125</LatitudeDegrees>
              <LongitudeDegrees>-16.60966314375400543212890625</LongitudeDegrees>
            </Position>
            <AltitudeMeters>2284.39990234375</AltitudeMeters>
            <DistanceMeters>16623.406543241</DistanceMeters>
          </Trackpoint>
          <Trackpoint>
            <Time>2019-04-08T09:00:53.000Z</Time>
            <Position>
              <LatitudeDegrees>28.25419354252517223358154296875</LatitudeDegrees>
              <LongitudeDegrees>-16.60957488231360912322998046875</LongitudeDegrees>
            </Position>
            <AltitudeMeters>2285</AltitudeMeters>
            <DistanceMeters>16632.171695286</DistanceMeters>
          </Trackpoint>
          <Trackpoint>
            <Time>2019-04-08T09:00:57.000Z</Time>
            <Position>
              <LatitudeDegrees>28.254196643829345703125</LatitudeDegrees>
              <LongitudeDegrees>-16.6095241717994213104248046875</LongitudeDegrees>
            </Position>
            <AltitudeMeters>2285.39990234375</AltitudeMeters>
            <DistanceMeters>16637.154938228</DistanceMeters>
          </Trackpoint>
          <Trackpoint>
            <Time>2019-04-08T09:01:01.000Z</Time>
            <Position>
              <LatitudeDegrees>28.2542082108557224273681640625</LatitudeDegrees>
              <LongitudeDegrees>-16.60946306772530078887939453125</LongitudeDegrees>
            </Position>
            <AltitudeMeters>2285.800048828125</AltitudeMeters>
            <DistanceMeters>16643.282503638</DistanceMeters>
          </Trackpoint>
          <Trackpoint>
            <Time>2019-04-08T09:01:08.000Z</Time>
            <Position>
              <LatitudeDegrees>28.25422681868076324462890625</LatitudeDegrees>
              <LongitudeDegrees>-16.6093561984598636627197265625</LongitudeDegrees>
            </Position>
            <AltitudeMeters>2285.800048828125</AltitudeMeters>
            <DistanceMeters>16653.962762326</DistanceMeters>
          </Trackpoint>
          <Trackpoint>
            <Time>2019-04-08T09:01:12.000Z</Time>
            <Position>
              <LatitudeDegrees>28.2542129047214984893798828125</LatitudeDegrees>
              <LongitudeDegrees>-16.6093065775930881500244140625</LongitudeDegrees>
            </Position>
            <AltitudeMeters>2285.39990234375</AltitudeMeters>
            <DistanceMeters>16659.06774035</DistanceMeters>
          </Trackpoint>
          <Trackpoint>
            <Time>2019-04-08T09:01:21.000Z</Time>
            <Position>
              <LatitudeDegrees>28.25424282811582088470458984375</LatitudeDegrees>
              <LongitudeDegrees>-16.60921462811529636383056640625</LongitudeDegrees>
            </Position>
            <AltitudeMeters>2284.60009765625</AltitudeMeters>
            <DistanceMeters>16668.678131698</DistanceMeters>
          </Trackpoint>
          <Trackpoint>
            <Time>2019-04-08T09:01:27.000Z</Time>
            <Position>
              <LatitudeDegrees>28.2542561553418636322021484375</LatitudeDegrees>
              <LongitudeDegrees>-16.609147489070892333984375</LongitudeDegrees>
            </Position>
            <AltitudeMeters>2284.39990234375</AltitudeMeters>
            <DistanceMeters>16675.425697587</DistanceMeters>
          </Trackpoint>
          <Trackpoint>
            <Time>2019-04-08T09:01:29.000Z</Time>
            <Position>
              <LatitudeDegrees>28.2542554847896099090576171875</LatitudeDegrees>
              <LongitudeDegrees>-16.6091184876859188079833984375</LongitudeDegrees>
            </Position>
            <AltitudeMeters>2284.199951171875</AltitudeMeters>
            <DistanceMeters>16678.271743717</DistanceMeters>
          </Trackpoint>
          <Trackpoint>
            <Time>2019-04-08T09:01:34.000Z</Time>
            <Position>
              <LatitudeDegrees>28.25424752198159694671630859375</LatitudeDegrees>
              <LongitudeDegrees>-16.60905352793633937835693359375</LongitudeDegrees>
            </Position>
            <AltitudeMeters>2283.60009765625</AltitudeMeters>
            <DistanceMeters>16684.702040758</DistanceMeters>
          </Trackpoint>
          <Trackpoint>
            <Time>2019-04-08T09:01:36.000Z</Time>
            <Position>
              <LatitudeDegrees>28.254245929419994354248046875</LatitudeDegrees>
              <LongitudeDegrees>-16.6090254485607147216796875</LongitudeDegrees>
            </Position>
            <AltitudeMeters>2283.199951171875</AltitudeMeters>
            <DistanceMeters>16687.462726274</DistanceMeters>
          </Trackpoint>
          <Trackpoint>
            <Time>2019-04-08T09:01:39.000Z</Time>
            <Position>
              <LatitudeDegrees>28.254237882792949676513671875</LatitudeDegrees>
              <LongitudeDegrees>-16.60899267531931400299072265625</LongitudeDegrees>
            </Position>
            <AltitudeMeters>2282.60009765625</AltitudeMeters>
            <DistanceMeters>16690.799503799</DistanceMeters>
          </Trackpoint>
          <Trackpoint>
            <Time>2019-04-08T09:01:40.000Z</Time>
            <Position>
              <LatitudeDegrees>28.254245258867740631103515625</LatitudeDegrees>
              <LongitudeDegrees>-16.6089880652725696563720703125</LongitudeDegrees>
            </Position>
            <AltitudeMeters>2282.39990234375</AltitudeMeters>
            <DistanceMeters>16691.735408397</DistanceMeters>
          </Trackpoint>
          <Trackpoint>
            <Time>2019-04-08T09:01:42.000Z</Time>
            <Position>
              <LatitudeDegrees>28.2542538084089756011962890625</LatitudeDegrees>
              <LongitudeDegrees>-16.60897406749427318572998046875</LongitudeDegrees>
            </Position>
            <AltitudeMeters>2282</AltitudeMeters>
            <DistanceMeters>16693.405825596</DistanceMeters>
          </Trackpoint>
          <Trackpoint>
            <Time>2019-04-08T09:01:46.000Z</Time>
            <Position>
              <LatitudeDegrees>28.2542789541184902191162109375</LatitudeDegrees>
              <LongitudeDegrees>-16.6089451499283313751220703125</LongitudeDegrees>
            </Position>
            <AltitudeMeters>2281.39990234375</AltitudeMeters>
            <DistanceMeters>16697.390154196</DistanceMeters>
          </Trackpoint>
          <Trackpoint>
            <Time>2019-04-08T09:01:49.000Z</Time>
            <Position>
              <LatitudeDegrees>28.25430837459862232208251953125</LatitudeDegrees>
              <LongitudeDegrees>-16.60892293788492679595947265625</LongitudeDegrees>
            </Position>
            <AltitudeMeters>2281</AltitudeMeters>
            <DistanceMeters>16701.323158257</DistanceMeters>
          </Trackpoint>
          <Trackpoint>
            <Time>2019-04-08T09:01:55.000Z</Time>
            <Position>
              <LatitudeDegrees>28.25436067767441272735595703125</LatitudeDegrees>
              <LongitudeDegrees>-16.60886845551431179046630859375</LongitudeDegrees>
            </Position>
            <AltitudeMeters>2280.800048828125</AltitudeMeters>
            <DistanceMeters>16709.222959413</DistanceMeters>
          </Trackpoint>
          <Trackpoint>
            <Time>2019-04-08T09:02:02.000Z</Time>
            <Position>
              <LatitudeDegrees>28.25445103459060192108154296875</LatitudeDegrees>
              <LongitudeDegrees>-16.6088660247623920440673828125</LongitudeDegrees>
            </Position>
            <AltitudeMeters>2281</AltitudeMeters>
            <DistanceMeters>16719.282334972</DistanceMeters>
          </Trackpoint>
          <Trackpoint>
            <Time>2019-04-08T09:02:13.000Z</Time>
            <Position>
              <LatitudeDegrees>28.254553377628326416015625</LatitudeDegrees>
              <LongitudeDegrees>-16.60878874361515045166015625</LongitudeDegrees>
            </Position>
            <AltitudeMeters>2281.39990234375</AltitudeMeters>
            <DistanceMeters>16732.962881905</DistanceMeters>
          </Trackpoint>
          <Trackpoint>
            <Time>2019-04-08T09:02:21.000Z</Time>
            <Position>
              <LatitudeDegrees>28.2546313293278217315673828125</LatitudeDegrees>
              <LongitudeDegrees>-16.608754210174083709716796875</LongitudeDegrees>
            </Position>
            <AltitudeMeters>2281</AltitudeMeters>
            <DistanceMeters>16742.275984731</DistanceMeters>
          </Trackpoint>
          <Trackpoint>
            <Time>2019-04-08T09:02:22.000Z</Time>
            <Position>
              <LatitudeDegrees>28.25463174842298030853271484375</LatitudeDegrees>
              <LongitudeDegrees>-16.60874540917575359344482421875</LongitudeDegrees>
            </Position>
            <AltitudeMeters>2280.800048828125</AltitudeMeters>
            <DistanceMeters>16743.136488228</DistanceMeters>
          </Trackpoint>
          <Trackpoint>
            <Time>2019-04-08T09:02:27.000Z</Time>
            <Position>
              <LatitudeDegrees>28.25461481697857379913330078125</LatitudeDegrees>
              <LongitudeDegrees>-16.60868153907358646392822265625</LongitudeDegrees>
            </Position>
            <AltitudeMeters>2280.39990234375</AltitudeMeters>
            <DistanceMeters>16749.675403425</DistanceMeters>
          </Trackpoint>
          <Trackpoint>
            <Time>2019-04-08T09:02:30.000Z</Time>
            <Position>
              <LatitudeDegrees>28.25460928492248058319091796875</LatitudeDegrees>
              <LongitudeDegrees>-16.60864382050931453704833984375</LongitudeDegrees>
            </Position>
            <AltitudeMeters>2280</AltitudeMeters>
            <DistanceMeters>16753.425047278</DistanceMeters>
          </Trackpoint>
          <Trackpoint>
            <Time>2019-04-08T09:02:31.000Z</Time>
            <Position>
              <LatitudeDegrees>28.254601992666721343994140625</LatitudeDegrees>
              <LongitudeDegrees>-16.608632840216159820556640625</LongitudeDegrees>
            </Position>
            <AltitudeMeters>2279.800048828125</AltitudeMeters>
            <DistanceMeters>16754.768927961</DistanceMeters>
          </Trackpoint>
          <Trackpoint>
            <Time>2019-04-08T09:02:33.000Z</Time>
            <Position>
              <LatitudeDegrees>28.25458162464201450347900390625</LatitudeDegrees>
              <LongitudeDegrees>-16.608620770275592803955078125</LongitudeDegrees>
            </Position>
            <AltitudeMeters>2279.800048828125</AltitudeMeters>
            <DistanceMeters>16757.32583534</DistanceMeters>
          </Trackpoint>
          <Trackpoint>
            <Time>2019-04-08T09:02:37.000Z</Time>
            <Position>
              <LatitudeDegrees>28.25454273261129856109619140625</LatitudeDegrees>
              <LongitudeDegrees>-16.60860174335539340972900390625</LongitudeDegrees>
            </Position>
            <AltitudeMeters>2279</AltitudeMeters>
            <DistanceMeters>16762.039964965</DistanceMeters>
          </Trackpoint>
          <Trackpoint>
            <Time>2019-04-08T09:02:38.000Z</Time>
            <Position>
              <LatitudeDegrees>28.2545327581465244293212890625</LatitudeDegrees>
              <LongitudeDegrees>-16.6085934452712535858154296875</LongitudeDegrees>
            </Position>
            <AltitudeMeters>2278.800048828125</AltitudeMeters>
            <DistanceMeters>16763.417032884</DistanceMeters>
          </Trackpoint>
          <Trackpoint>
            <Time>2019-04-08T09:02:42.000Z</Time>
            <Position>
              <LatitudeDegrees>28.25449814088642597198486328125</LatitudeDegrees>
              <LongitudeDegrees>-16.6085760109126567840576171875</LongitudeDegrees>
            </Position>
            <AltitudeMeters>2277.60009765625</AltitudeMeters>
            <DistanceMeters>16767.632621864</DistanceMeters>
          </Trackpoint>
          <Trackpoint>
            <Time>2019-04-08T09:02:45.000Z</Time>
            <Position>
              <LatitudeDegrees>28.25447265990078449249267578125</LatitudeDegrees>
              <LongitudeDegrees>-16.6085694730281829833984375</LongitudeDegrees>
            </Position>
            <AltitudeMeters>2276.39990234375</AltitudeMeters>
            <DistanceMeters>16770.541432897</DistanceMeters>
          </Trackpoint>
          <Trackpoint>
            <Time>2019-04-08T09:02:47.000Z</Time>
            <Position>
              <LatitudeDegrees>28.254462517797946929931640625</LatitudeDegrees>
              <LongitudeDegrees>-16.6085632704198360443115234375</LongitudeDegrees>
            </Position>
            <AltitudeMeters>2276</AltitudeMeters>
            <DistanceMeters>16771.823413362</DistanceMeters>
          </Trackpoint>
          <Trackpoint>
            <Time>2019-04-08T09:02:51.000Z</Time>
            <Position>
              <LatitudeDegrees>28.25443829409778118133544921875</LatitudeDegrees>
              <LongitudeDegrees>-16.60856880247592926025390625</LongitudeDegrees>
            </Position>
            <AltitudeMeters>2275.39990234375</AltitudeMeters>
            <DistanceMeters>16774.574268513</DistanceMeters>
          </Trackpoint>
          <Trackpoint>
            <Time>2019-04-08T09:02:55.000Z</Time>
            <Position>
              <LatitudeDegrees>28.2543986476957798004150390625</LatitudeDegrees>
              <LongitudeDegrees>-16.608561091125011444091796875</LongitudeDegrees>
            </Position>
            <AltitudeMeters>2274.39990234375</AltitudeMeters>
            <DistanceMeters>16779.052638728</DistanceMeters>
          </Trackpoint>
          <Trackpoint>
            <Time>2019-04-08T09:02:56.000Z</Time>
            <Position>
              <LatitudeDegrees>28.25438800267875194549560546875</LatitudeDegrees>
              <LongitudeDegrees>-16.60855882801115512847900390625</LongitudeDegrees>
            </Position>
            <AltitudeMeters>2274</AltitudeMeters>
            <DistanceMeters>16780.258392561</DistanceMeters>
          </Trackpoint>
          <Trackpoint>
            <Time>2019-04-08T09:02:59.000Z</Time>
            <Position>
              <LatitudeDegrees>28.254362605512142181396484375</LatitudeDegrees>
              <LongitudeDegrees>-16.60853837616741657257080078125</LongitudeDegrees>
            </Position>
            <AltitudeMeters>2274</AltitudeMeters>
            <DistanceMeters>16783.725240084</DistanceMeters>
          </Trackpoint>
          <Trackpoint>
            <Time>2019-04-08T09:03:05.000Z</Time>
            <Position>
              <LatitudeDegrees>28.2543133199214935302734375</LatitudeDegrees>
              <LongitudeDegrees>-16.608518846333026885986328125</LongitudeDegrees>
            </Position>
            <AltitudeMeters>2274.60009765625</AltitudeMeters>
            <DistanceMeters>16789.535873081</DistanceMeters>
          </Trackpoint>
          <Trackpoint>
            <Time>2019-04-08T09:03:08.000Z</Time>
            <Position>
              <LatitudeDegrees>28.2542846538126468658447265625</LatitudeDegrees>
              <LongitudeDegrees>-16.60851557739078998565673828125</LongitudeDegrees>
            </Position>
            <AltitudeMeters>2275.39990234375</AltitudeMeters>
            <DistanceMeters>16792.744344235</DistanceMeters>
          </Trackpoint>
          <Trackpoint>
            <Time>2019-04-08T09:03:10.000Z</Time>
            <Position>
              <LatitudeDegrees>28.254273422062397003173828125</LatitudeDegrees>
              <LongitudeDegrees>-16.608504094183444976806640625</LongitudeDegrees>
            </Position>
            <AltitudeMeters>2275.60009765625</AltitudeMeters>
            <DistanceMeters>16794.428221904</DistanceMeters>
          </Trackpoint>
          <Trackpoint>
            <Time>2019-04-08T09:03:18.000Z</Time>
            <Position>
              <LatitudeDegrees>28.25422204099595546722412109375</LatitudeDegrees>
              <LongitudeDegrees>-16.60846930928528308868408203125</LongitudeDegrees>
            </Position>
            <AltitudeMeters>2276.39990234375</AltitudeMeters>
            <DistanceMeters>16801.086876073</DistanceMeters>
          </Trackpoint>
          <Trackpoint>
            <Time>2019-04-08T09:03:19.000Z</Time>
            <Position>
              <LatitudeDegrees>28.2542129047214984893798828125</LatitudeDegrees>
              <LongitudeDegrees>-16.6084657050669193267822265625</LongitudeDegrees>
            </Position>
            <AltitudeMeters>2276.60009765625</AltitudeMeters>
            <DistanceMeters>16802.166172075</DistanceMeters>
          </Trackpoint>
          <Trackpoint>
            <Time>2019-04-08T09:03:28.000Z</Time>
            <Position>
              <LatitudeDegrees>28.25415314175188541412353515625</LatitudeDegrees>
              <LongitudeDegrees>-16.60841591656208038330078125</LongitudeDegrees>
            </Position>
            <AltitudeMeters>2277.60009765625</AltitudeMeters>
            <DistanceMeters>16810.417096042</DistanceMeters>
          </Trackpoint>
          <Trackpoint>
            <Time>2019-04-08T09:03:30.000Z</Time>
            <Position>
              <LatitudeDegrees>28.25414392165839672088623046875</LatitudeDegrees>
              <LongitudeDegrees>-16.608400829136371612548828125</LongitudeDegrees>
            </Position>
            <AltitudeMeters>2277.800048828125</AltitudeMeters>
            <DistanceMeters>16812.217595263</DistanceMeters>
          </Trackpoint>
          <Trackpoint>
            <Time>2019-04-08T09:03:33.000Z</Time>
            <Position>
              <LatitudeDegrees>28.2541227154433727264404296875</LatitudeDegrees>
              <LongitudeDegrees>-16.608386076986789703369140625</LongitudeDegrees>
            </Position>
            <AltitudeMeters>2278.800048828125</AltitudeMeters>
            <DistanceMeters>16814.98644609</DistanceMeters>
          </Trackpoint>
          <Trackpoint>
            <Time>2019-04-08T09:03:39.000Z</Time>
            <Position>
              <LatitudeDegrees>28.25408357195556163787841796875</LatitudeDegrees>
              <LongitudeDegrees>-16.60836503840982913970947265625</LongitudeDegrees>
            </Position>
            <AltitudeMeters>2280</AltitudeMeters>
            <DistanceMeters>16819.806652174</DistanceMeters>
          </Trackpoint>
          <Trackpoint>
            <Time>2019-04-08T09:03:42.000Z</Time>
            <Position>
              <LatitudeDegrees>28.254069574177265167236328125</LatitudeDegrees>
              <LongitudeDegrees>-16.6083647869527339935302734375</LongitudeDegrees>
            </Position>
            <AltitudeMeters>2280.199951171875</AltitudeMeters>
            <DistanceMeters>16821.365206171</DistanceMeters>
          </Trackpoint>
          <Trackpoint>
            <Time>2019-04-08T09:03:47.000Z</Time>
            <Position>
              <LatitudeDegrees>28.25404618866741657257080078125</LatitudeDegrees>
              <LongitudeDegrees>-16.60834827460348606109619140625</LongitudeDegrees>
            </Position>
            <AltitudeMeters>2281.199951171875</AltitudeMeters>
            <DistanceMeters>16824.431198601</DistanceMeters>
          </Trackpoint>
          <Trackpoint>
            <Time>2019-04-08T09:03:52.000Z</Time>
            <Position>
              <LatitudeDegrees>28.254040069878101348876953125</LatitudeDegrees>
              <LongitudeDegrees>-16.6083218716084957122802734375</LongitudeDegrees>
            </Position>
            <AltitudeMeters>2281.60009765625</AltitudeMeters>
            <DistanceMeters>16827.108861891</DistanceMeters>
          </Trackpoint>
          <Trackpoint>
            <Time>2019-04-08T09:03:59.000Z</Time>
            <Position>
              <LatitudeDegrees>28.25409094803035259246826171875</LatitudeDegrees>
              <LongitudeDegrees>-16.60832664929330348968505859375</LongitudeDegrees>
            </Position>
            <AltitudeMeters>2282.39990234375</AltitudeMeters>
            <DistanceMeters>16832.791427629</DistanceMeters>
          </Trackpoint>
          <Trackpoint>
            <Time>2019-04-08T09:04:07.000Z</Time>
            <Position>
              <LatitudeDegrees>28.2541344501078128814697265625</LatitudeDegrees>
              <LongitudeDegrees>-16.608284153044223785400390625</LongitudeDegrees>
            </Position>
            <AltitudeMeters>2283.199951171875</AltitudeMeters>
            <DistanceMeters>16839.179456703</DistanceMeters>
          </Trackpoint>
          <Trackpoint>
            <Time>2019-04-08T09:04:10.000Z</Time>
            <Position>
              <LatitudeDegrees>28.25413721613585948944091796875</LatitudeDegrees>
              <LongitudeDegrees>-16.6082628630101680755615234375</LongitudeDegrees>
            </Position>
            <AltitudeMeters>2283.39990234375</AltitudeMeters>
            <DistanceMeters>16841.291530983</DistanceMeters>
          </Trackpoint>
          <Trackpoint>
            <Time>2019-04-08T09:04:18.000Z</Time>
            <Position>
              <LatitudeDegrees>28.25416705571115016937255859375</LatitudeDegrees>
              <LongitudeDegrees>-16.60822539590299129486083984375</LongitudeDegrees>
            </Position>
            <AltitudeMeters>2284.39990234375</AltitudeMeters>
            <DistanceMeters>16846.243872613</DistanceMeters>
          </Trackpoint>
          <Trackpoint>
            <Time>2019-04-08T09:04:24.000Z</Time>
            <Position>
              <LatitudeDegrees>28.25421382673084735870361328125</LatitudeDegrees>
              <LongitudeDegrees>-16.60823344253003597259521484375</LongitudeDegrees>
            </Position>
            <AltitudeMeters>2285.60009765625</AltitudeMeters>
            <DistanceMeters>16851.509072959</DistanceMeters>
          </Trackpoint>
          <Trackpoint>
            <Time>2019-04-08T09:04:26.000Z</Time>
            <Position>
              <LatitudeDegrees>28.25423059053719043731689453125</LatitudeDegrees>
              <LongitudeDegrees>-16.60824014805257320404052734375</LongitudeDegrees>
            </Position>
            <AltitudeMeters>2285.60009765625</AltitudeMeters>
            <DistanceMeters>16853.488732823</DistanceMeters>
          </Trackpoint>
          <Trackpoint>
            <Time>2019-04-08T09:04:32.000Z</Time>
            <Position>
              <LatitudeDegrees>28.2542859949171543121337890625</LatitudeDegrees>
              <LongitudeDegrees>-16.608233861625194549560546875</LongitudeDegrees>
            </Position>
            <AltitudeMeters>2286.800048828125</AltitudeMeters>
            <DistanceMeters>16859.686631272</DistanceMeters>
          </Trackpoint>
          <Trackpoint>
            <Time>2019-04-08T09:04:36.000Z</Time>
            <Position>
              <LatitudeDegrees>28.254314325749874114990234375</LatitudeDegrees>
              <LongitudeDegrees>-16.60821064375340938568115234375</LongitudeDegrees>
            </Position>
            <AltitudeMeters>2287.60009765625</AltitudeMeters>
            <DistanceMeters>16863.576927934</DistanceMeters>
          </Trackpoint>
          <Trackpoint>
            <Time>2019-04-08T09:04:42.000Z</Time>
            <Position>
              <LatitudeDegrees>28.25433184392750263214111328125</LatitudeDegrees>
              <LongitudeDegrees>-16.60819203592836856842041015625</LongitudeDegrees>
            </Position>
            <AltitudeMeters>2287.800048828125</AltitudeMeters>
            <DistanceMeters>16866.24952788</DistanceMeters>
          </Trackpoint>
          <Trackpoint>
            <Time>2019-04-08T09:04:49.000Z</Time>
            <Position>
              <LatitudeDegrees>28.2543325982987880706787109375</LatitudeDegrees>
              <LongitudeDegrees>-16.6081699915230274200439453125</LongitudeDegrees>
            </Position>
            <AltitudeMeters>2287.800048828125</AltitudeMeters>
            <DistanceMeters>16868.414385767</DistanceMeters>
          </Trackpoint>
          <Trackpoint>
            <Time>2019-04-08T09:04:54.000Z</Time>
            <Position>
              <LatitudeDegrees>28.2543560676276683807373046875</LatitudeDegrees>
              <LongitudeDegrees>-16.6081552393734455108642578125</LongitudeDegrees>
            </Position>
            <AltitudeMeters>2287.800048828125</AltitudeMeters>
            <DistanceMeters>16871.401309859</DistanceMeters>
          </Trackpoint>
          <Trackpoint>
            <Time>2019-04-08T09:04:55.000Z</Time>
            <Position>
              <LatitudeDegrees>28.254360593855381011962890625</LatitudeDegrees>
              <LongitudeDegrees>-16.60814643837511539459228515625</LongitudeDegrees>
            </Position>
            <AltitudeMeters>2288</AltitudeMeters>
            <DistanceMeters>16872.397958447</DistanceMeters>
          </Trackpoint>
          <Trackpoint>
            <Time>2019-04-08T09:04:58.000Z</Time>
            <Position>
              <LatitudeDegrees>28.25436294078826904296875</LatitudeDegrees>
              <LongitudeDegrees>-16.6081183589994907379150390625</LongitudeDegrees>
            </Position>
            <AltitudeMeters>2288.199951171875</AltitudeMeters>
            <DistanceMeters>16875.163546043</DistanceMeters>
          </Trackpoint>
          <Trackpoint>
            <Time>2019-04-08T09:05:06.000Z</Time>
            <Position>
              <LatitudeDegrees>28.25432413257658481597900390625</LatitudeDegrees>
              <LongitudeDegrees>-16.60804979503154754638671875</LongitudeDegrees>
            </Position>
            <AltitudeMeters>2289</AltitudeMeters>
            <DistanceMeters>16883.153705018</DistanceMeters>
          </Trackpoint>
          <Trackpoint>
            <Time>2019-04-08T09:05:07.000Z</Time>
            <Position>
              <LatitudeDegrees>28.25431927107274532318115234375</LatitudeDegrees>
              <LongitudeDegrees>-16.60804099403321743011474609375</LongitudeDegrees>
            </Position>
            <AltitudeMeters>2289.199951171875</AltitudeMeters>
            <DistanceMeters>16884.168312684</DistanceMeters>
          </Trackpoint>
          <Trackpoint>
            <Time>2019-04-08T09:05:12.000Z</Time>
            <Position>
              <LatitudeDegrees>28.2543054409325122833251953125</LatitudeDegrees>
              <LongitudeDegrees>-16.60802003927528858184814453125</LongitudeDegrees>
            </Position>
            <AltitudeMeters>2290</AltitudeMeters>
            <DistanceMeters>16886.735793123</DistanceMeters>
          </Trackpoint>
          <Trackpoint>
            <Time>2019-04-08T09:05:13.000Z</Time>
            <Position>
              <LatitudeDegrees>28.254303596913814544677734375</LatitudeDegrees>
              <LongitudeDegrees>-16.60801366902887821197509765625</LongitudeDegrees>
            </Position>
            <AltitudeMeters>2290.199951171875</AltitudeMeters>
            <DistanceMeters>16887.394157512</DistanceMeters>
          </Trackpoint>
          <Trackpoint>
            <Time>2019-04-08T09:05:18.000Z</Time>
            <Position>
              <LatitudeDegrees>28.2543161697685718536376953125</LatitudeDegrees>
              <LongitudeDegrees>-16.607989110052585601806640625</LongitudeDegrees>
            </Position>
            <AltitudeMeters>2291.199951171875</AltitudeMeters>
            <DistanceMeters>16890.179267145</DistanceMeters>
          </Trackpoint>
          <Trackpoint>
            <Time>2019-04-08T09:05:19.000Z</Time>
            <Position>
              <LatitudeDegrees>28.2543181814253330230712890625</LatitudeDegrees>
              <LongitudeDegrees>-16.6079839132726192474365234375</LongitudeDegrees>
            </Position>
            <AltitudeMeters>2291.199951171875</AltitudeMeters>
            <DistanceMeters>16890.741452768</DistanceMeters>
          </Trackpoint>
          <Trackpoint>
            <Time>2019-04-08T09:05:25.000Z</Time>
            <Position>
              <LatitudeDegrees>28.25435413978993892669677734375</LatitudeDegrees>
              <LongitudeDegrees>-16.60799506120383739471435546875</LongitudeDegrees>
            </Position>
            <AltitudeMeters>2292</AltitudeMeters>
            <DistanceMeters>16894.890106249</DistanceMeters>
          </Trackpoint>
          <Trackpoint>
            <Time>2019-04-08T09:05:28.000Z</Time>
            <Position>
              <LatitudeDegrees>28.25436889193952083587646484375</LatitudeDegrees>
              <LongitudeDegrees>-16.6079929657280445098876953125</LongitudeDegrees>
            </Position>
            <AltitudeMeters>2292.60009765625</AltitudeMeters>
            <DistanceMeters>16896.546953628</DistanceMeters>
          </Trackpoint>
          <Trackpoint>
            <Time>2019-04-08T09:05:35.000Z</Time>
            <Position>
              <LatitudeDegrees>28.25441784225404262542724609375</LatitudeDegrees>
              <LongitudeDegrees>-16.60800562240183353424072265625</LongitudeDegrees>
            </Position>
            <AltitudeMeters>2293.39990234375</AltitudeMeters>
            <DistanceMeters>16902.13578485</DistanceMeters>
          </Trackpoint>
          <Trackpoint>
            <Time>2019-04-08T09:05:39.000Z</Time>
            <Position>
              <LatitudeDegrees>28.25444164685904979705810546875</LatitudeDegrees>
              <LongitudeDegrees>-16.60804032348096370697021484375</LongitudeDegrees>
            </Position>
            <AltitudeMeters>2293.800048828125</AltitudeMeters>
            <DistanceMeters>16906.448783514</DistanceMeters>
          </Trackpoint>
          <Trackpoint>
            <Time>2019-04-08T09:05:44.000Z</Time>
            <Position>
              <LatitudeDegrees>28.254469893872737884521484375</LatitudeDegrees>
              <LongitudeDegrees>-16.6080678999423980712890625</LongitudeDegrees>
            </Position>
            <AltitudeMeters>2294</AltitudeMeters>
            <DistanceMeters>16910.594170766</DistanceMeters>
          </Trackpoint>
          <Trackpoint>
            <Time>2019-04-08T09:05:53.000Z</Time>
            <Position>
              <LatitudeDegrees>28.25455605983734130859375</LatitudeDegrees>
              <LongitudeDegrees>-16.60809061489999294281005859375</LongitudeDegrees>
            </Position>
            <AltitudeMeters>2294.39990234375</AltitudeMeters>
            <DistanceMeters>16920.439415331</DistanceMeters>
          </Trackpoint>
          <Trackpoint>
            <Time>2019-04-08T09:05:55.000Z</Time>
            <Position>
              <LatitudeDegrees>28.2545696385204792022705078125</LatitudeDegrees>
              <LongitudeDegrees>-16.60809698514640331268310546875</LongitudeDegrees>
            </Position>
            <AltitudeMeters>2294.800048828125</AltitudeMeters>
            <DistanceMeters>16922.074316743</DistanceMeters>
          </Trackpoint>
          <Trackpoint>
            <Time>2019-04-08T09:06:03.000Z</Time>
            <Position>
              <LatitudeDegrees>28.25462789274752140045166015625</LatitudeDegrees>
              <LongitudeDegrees>-16.60809463821351528167724609375</LongitudeDegrees>
            </Position>
            <AltitudeMeters>2295.60009765625</AltitudeMeters>
            <DistanceMeters>16928.561934666</DistanceMeters>
          </Trackpoint>
          <Trackpoint>
            <Time>2019-04-08T09:06:06.000Z</Time>
            <Position>
              <LatitudeDegrees>28.25464750640094280242919921875</LatitudeDegrees>
              <LongitudeDegrees>-16.60808759741485118865966796875</LongitudeDegrees>
            </Position>
            <AltitudeMeters>2296</AltitudeMeters>
            <DistanceMeters>16930.852453038</DistanceMeters>
          </Trackpoint>
          <Trackpoint>
            <Time>2019-04-08T09:06:10.000Z</Time>
            <Position>
              <LatitudeDegrees>28.25467198155820369720458984375</LatitudeDegrees>
              <LongitudeDegrees>-16.6080694086849689483642578125</LongitudeDegrees>
            </Position>
            <AltitudeMeters>2296.39990234375</AltitudeMeters>
            <DistanceMeters>16934.108418294</DistanceMeters>
          </Trackpoint>
          <Trackpoint>
            <Time>2019-04-08T09:06:12.000Z</Time>
            <Position>
              <LatitudeDegrees>28.2546853087842464447021484375</LatitudeDegrees>
              <LongitudeDegrees>-16.6080767847597599029541015625</LongitudeDegrees>
            </Position>
            <AltitudeMeters>2297.199951171875</AltitudeMeters>
            <DistanceMeters>16935.759806524</DistanceMeters>
          </Trackpoint>
          <Trackpoint>
            <Time>2019-04-08T09:06:18.000Z</Time>
            <Position>
              <LatitudeDegrees>28.25472646392881870269775390625</LatitudeDegrees>
              <LongitudeDegrees>-16.60810452885925769805908203125</LongitudeDegrees>
            </Position>
            <AltitudeMeters>2298.39990234375</AltitudeMeters>
            <DistanceMeters>16941.086390812</DistanceMeters>
          </Trackpoint>
          <Trackpoint>
            <Time>2019-04-08T09:06:23.000Z</Time>
            <Position>
              <LatitudeDegrees>28.2547639310359954833984375</LatitudeDegrees>
              <LongitudeDegrees>-16.60808340646326541900634765625</LongitudeDegrees>
            </Position>
            <AltitudeMeters>2299</AltitudeMeters>
            <DistanceMeters>16945.741730055</DistanceMeters>
          </Trackpoint>
          <Trackpoint>
            <Time>2019-04-08T09:06:28.000Z</Time>
            <Position>
              <LatitudeDegrees>28.2547912560403347015380859375</LatitudeDegrees>
              <LongitudeDegrees>-16.6080747731029987335205078125</LongitudeDegrees>
            </Position>
            <AltitudeMeters>2299.60009765625</AltitudeMeters>
            <DistanceMeters>16948.89770444</DistanceMeters>
          </Trackpoint>
          <Trackpoint>
            <Time>2019-04-08T09:06:31.000Z</Time>
            <Position>
              <LatitudeDegrees>28.25480877421796321868896484375</LatitudeDegrees>
              <LongitudeDegrees>-16.60807535983622074127197265625</LongitudeDegrees>
            </Position>
            <AltitudeMeters>2300.199951171875</AltitudeMeters>
            <DistanceMeters>16950.849803889</DistanceMeters>
          </Trackpoint>
          <Trackpoint>
            <Time>2019-04-08T09:06:35.000Z</Time>
            <Position>
              <LatitudeDegrees>28.25483526103198528289794921875</LatitudeDegrees>
              <LongitudeDegrees>-16.60810318775475025177001953125</LongitudeDegrees>
            </Position>
            <AltitudeMeters>2300.60009765625</AltitudeMeters>
            <DistanceMeters>16954.866860847</DistanceMeters>
          </Trackpoint>
          <Trackpoint>
            <Time>2019-04-08T09:06:37.000Z</Time>
            <Position>
              <LatitudeDegrees>28.254852108657360076904296875</LatitudeDegrees>
              <LongitudeDegrees>-16.608118526637554168701171875</LongitudeDegrees>
            </Position>
            <AltitudeMeters>2300.60009765625</AltitudeMeters>
            <DistanceMeters>16957.272745092</DistanceMeters>
          </Trackpoint>
          <Trackpoint>
            <Time>2019-04-08T09:06:43.000Z</Time>
            <Position>
              <LatitudeDegrees>28.254886306822299957275390625</LatitudeDegrees>
              <LongitudeDegrees>-16.608152724802494049072265625</LongitudeDegrees>
            </Position>
            <AltitudeMeters>2301</AltitudeMeters>
            <DistanceMeters>16962.344893334</DistanceMeters>
          </Trackpoint>
          <Trackpoint>
            <Time>2019-04-08T09:06:48.000Z</Time>
            <Position>
              <LatitudeDegrees>28.2549042440950870513916015625</LatitudeDegrees>
              <LongitudeDegrees>-16.60819287411868572235107421875</LongitudeDegrees>
            </Position>
            <AltitudeMeters>2301.60009765625</AltitudeMeters>
            <DistanceMeters>16966.757244727</DistanceMeters>
          </Trackpoint>
          <Trackpoint>
            <Time>2019-04-08T09:06:54.000Z</Time>
            <Position>
              <LatitudeDegrees>28.254931233823299407958984375</LatitudeDegrees>
              <LongitudeDegrees>-16.60822254605591297149658203125</LongitudeDegrees>
            </Position>
            <AltitudeMeters>2302.800048828125</AltitudeMeters>
            <DistanceMeters>16970.938420159</DistanceMeters>
          </Trackpoint>
          <Trackpoint>
            <Time>2019-04-08T09:06:55.000Z</Time>
            <Position>
              <LatitudeDegrees>28.25493601150810718536376953125</LatitudeDegrees>
              <LongitudeDegrees>-16.60822690464556217193603515625</LongitudeDegrees>
            </Position>
            <AltitudeMeters>2302.800048828125</AltitudeMeters>
            <DistanceMeters>16971.617046639</DistanceMeters>
          </Trackpoint>
          <Trackpoint>
            <Time>2019-04-08T09:07:04.000Z</Time>
            <Position>
              <LatitudeDegrees>28.25498395599424839019775390625</LatitudeDegrees>
              <LongitudeDegrees>-16.608268730342388153076171875</LongitudeDegrees>
            </Position>
            <AltitudeMeters>2303.39990234375</AltitudeMeters>
            <DistanceMeters>16978.346521609</DistanceMeters>
          </Trackpoint>
          <Trackpoint>
            <Time>2019-04-08T09:07:15.000Z</Time>
            <Position>
              <LatitudeDegrees>28.25499502010643482208251953125</LatitudeDegrees>
              <LongitudeDegrees>-16.60829362459480762481689453125</LongitudeDegrees>
            </Position>
            <AltitudeMeters>2303.199951171875</AltitudeMeters>
            <DistanceMeters>16981.07926258</DistanceMeters>
          </Trackpoint>
          <Trackpoint>
            <Time>2019-04-08T09:07:22.000Z</Time>
            <Position>
              <LatitudeDegrees>28.25503860600292682647705078125</LatitudeDegrees>
              <LongitudeDegrees>-16.608341820538043975830078125</LongitudeDegrees>
            </Position>
            <AltitudeMeters>2304</AltitudeMeters>
            <DistanceMeters>16987.851541241</DistanceMeters>
          </Trackpoint>
          <Trackpoint>
            <Time>2019-04-08T09:07:25.000Z</Time>
            <Position>
              <LatitudeDegrees>28.255057632923126220703125</LatitudeDegrees>
              <LongitudeDegrees>-16.60835447721183300018310546875</LongitudeDegrees>
            </Position>
            <AltitudeMeters>2304.199951171875</AltitudeMeters>
            <DistanceMeters>16990.307572809</DistanceMeters>
          </Trackpoint>
          <Trackpoint>
            <Time>2019-04-08T09:07:32.000Z</Time>
            <Position>
              <LatitudeDegrees>28.25511085800826549530029296875</LatitudeDegrees>
              <LongitudeDegrees>-16.60836034454405307769775390625</LongitudeDegrees>
            </Position>
            <AltitudeMeters>2305.199951171875</AltitudeMeters>
            <DistanceMeters>16996.258703779</DistanceMeters>
          </Trackpoint>
          <Trackpoint>
            <Time>2019-04-08T09:07:35.000Z</Time>
            <Position>
              <LatitudeDegrees>28.2551268674433231353759765625</LatitudeDegrees>
              <LongitudeDegrees>-16.60834006033837795257568359375</LongitudeDegrees>
            </Position>
            <AltitudeMeters>2305.60009765625</AltitudeMeters>
            <DistanceMeters>16998.927922824</DistanceMeters>
          </Trackpoint>
          <Trackpoint>
            <Time>2019-04-08T09:07:39.000Z</Time>
            <Position>
              <LatitudeDegrees>28.25514413416385650634765625</LatitudeDegrees>
              <LongitudeDegrees>-16.6083044372498989105224609375</LongitudeDegrees>
            </Position>
            <AltitudeMeters>2306</AltitudeMeters>
            <DistanceMeters>17002.913384462</DistanceMeters>
          </Trackpoint>
          <Trackpoint>
            <Time>2019-04-08T09:07:40.000Z</Time>
            <Position>
              <LatitudeDegrees>28.25514547526836395263671875</LatitudeDegrees>
              <LongitudeDegrees>-16.60829479806125164031982421875</LongitudeDegrees>
            </Position>
            <AltitudeMeters>2306.199951171875</AltitudeMeters>
            <DistanceMeters>17003.868391122</DistanceMeters>
          </Trackpoint>
          <Trackpoint>
            <Time>2019-04-08T09:07:48.000Z</Time>
            <Position>
              <LatitudeDegrees>28.2551734708249568939208984375</LatitudeDegrees>
              <LongitudeDegrees>-16.60824266262352466583251953125</LongitudeDegrees>
            </Position>
            <AltitudeMeters>2306.800048828125</AltitudeMeters>
            <DistanceMeters>17009.8543199</DistanceMeters>
          </Trackpoint>
          <Trackpoint>
            <Time>2019-04-08T09:07:51.000Z</Time>
            <Position>
              <LatitudeDegrees>28.25518612749874591827392578125</LatitudeDegrees>
              <LongitudeDegrees>-16.6082202829420566558837890625</LongitudeDegrees>
            </Position>
            <AltitudeMeters>2307.39990234375</AltitudeMeters>
            <DistanceMeters>17012.461933284</DistanceMeters>
          </Trackpoint>
          <Trackpoint>
            <Time>2019-04-08T09:07:58.000Z</Time>
            <Position>
              <LatitudeDegrees>28.25523055158555507659912109375</LatitudeDegrees>
              <LongitudeDegrees>-16.60821265541017055511474609375</LongitudeDegrees>
            </Position>
            <AltitudeMeters>2308.39990234375</AltitudeMeters>
            <DistanceMeters>17017.463264282</DistanceMeters>
          </Trackpoint>
          <Trackpoint>
            <Time>2019-04-08T09:08:08.000Z</Time>
            <Position>
              <LatitudeDegrees>28.25528386048972606658935546875</LatitudeDegrees>
              <LongitudeDegrees>-16.60822858102619647979736328125</LongitudeDegrees>
            </Position>
            <AltitudeMeters>2309.39990234375</AltitudeMeters>
            <DistanceMeters>17023.599665407</DistanceMeters>
          </Trackpoint>
          <Trackpoint>
            <Time>2019-04-08T09:08:16.000Z</Time>
            <Position>
              <LatitudeDegrees>28.2553297095000743865966796875</LatitudeDegrees>
              <LongitudeDegrees>-16.60823780111968517303466796875</LongitudeDegrees>
            </Position>
            <AltitudeMeters>2310.800048828125</AltitudeMeters>
            <DistanceMeters>17028.782760759</DistanceMeters>
          </Trackpoint>
          <Trackpoint>
            <Time>2019-04-08T09:08:18.000Z</Time>
            <Position>
              <LatitudeDegrees>28.2553404383361339569091796875</LatitudeDegrees>
              <LongitudeDegrees>-16.60822874866425991058349609375</LongitudeDegrees>
            </Position>
            <AltitudeMeters>2311.199951171875</AltitudeMeters>
            <DistanceMeters>17030.267125489</DistanceMeters>
          </Trackpoint>
          <Trackpoint>
            <Time>2019-04-08T09:08:20.000Z</Time>
            <Position>
              <LatitudeDegrees>28.25534798204898834228515625</LatitudeDegrees>
              <LongitudeDegrees>-16.6082209534943103790283203125</LongitudeDegrees>
            </Position>
            <AltitudeMeters>2311.800048828125</AltitudeMeters>
            <DistanceMeters>17031.39949948</DistanceMeters>
          </Trackpoint>
          <Trackpoint>
            <Time>2019-04-08T09:08:25.000Z</Time>
            <Position>
              <LatitudeDegrees>28.2553692720830440521240234375</LatitudeDegrees>
              <LongitudeDegrees>-16.60819807089865207672119140625</LongitudeDegrees>
            </Position>
            <AltitudeMeters>2312.60009765625</AltitudeMeters>
            <DistanceMeters>17034.661006808</DistanceMeters>
          </Trackpoint>
          <Trackpoint>
            <Time>2019-04-08T09:08:27.000Z</Time>
            <Position>
              <LatitudeDegrees>28.25537790544331073760986328125</LatitudeDegrees>
              <LongitudeDegrees>-16.60818499512970447540283203125</LongitudeDegrees>
            </Position>
            <AltitudeMeters>2313</AltitudeMeters>
            <DistanceMeters>17036.262425463</DistanceMeters>
          </Trackpoint>
          <Trackpoint>
            <Time>2019-04-08T09:08:30.000Z</Time>
            <Position>
              <LatitudeDegrees>28.25539215467870235443115234375</LatitudeDegrees>
              <LongitudeDegrees>-16.6081750206649303436279296875</LongitudeDegrees>
            </Position>
            <AltitudeMeters>2313.60009765625</AltitudeMeters>
            <DistanceMeters>17038.12698424</DistanceMeters>
          </Trackpoint>
          <Trackpoint>
            <Time>2019-04-08T09:08:32.000Z</Time>
            <Position>
              <LatitudeDegrees>28.25539953075349330902099609375</LatitudeDegrees>
              <LongitudeDegrees>-16.60816940478980541229248046875</LongitudeDegrees>
            </Position>
            <AltitudeMeters>2314</AltitudeMeters>
            <DistanceMeters>17039.114530824</DistanceMeters>
          </Trackpoint>
          <Trackpoint>
            <Time>2019-04-08T09:08:37.000Z</Time>
            <Position>
              <LatitudeDegrees>28.255410678684711456298828125</LatitudeDegrees>
              <LongitudeDegrees>-16.60814828239381313323974609375</LongitudeDegrees>
            </Position>
            <AltitudeMeters>2314.60009765625</AltitudeMeters>
            <DistanceMeters>17041.527910053</DistanceMeters>
          </Trackpoint>
          <Trackpoint>
            <Time>2019-04-08T09:08:39.000Z</Time>
            <Position>
              <LatitudeDegrees>28.25541830621659755706787109375</LatitudeDegrees>
              <LongitudeDegrees>-16.60814308561384677886962890625</LongitudeDegrees>
            </Position>
            <AltitudeMeters>2315</AltitudeMeters>
            <DistanceMeters>17042.515456638</DistanceMeters>
          </Trackpoint>
          <Trackpoint>
            <Time>2019-04-08T09:08:44.000Z</Time>
            <Position>
              <LatitudeDegrees>28.25543456710875034332275390625</LatitudeDegrees>
              <LongitudeDegrees>-16.608122885227203369140625</LongitudeDegrees>
            </Position>
            <AltitudeMeters>2316</AltitudeMeters>
            <DistanceMeters>17045.196490179</DistanceMeters>
          </Trackpoint>
          <Trackpoint>
            <Time>2019-04-08T09:08:48.000Z</Time>
            <Position>
              <LatitudeDegrees>28.25543439947068691253662109375</LatitudeDegrees>
              <LongitudeDegrees>-16.60810302011668682098388671875</LongitudeDegrees>
            </Position>
            <AltitudeMeters>2316.39990234375</AltitudeMeters>
            <DistanceMeters>17047.143958306</DistanceMeters>
          </Trackpoint>
          <Trackpoint>
            <Time>2019-04-08T09:08:50.000Z</Time>
            <Position>
              <LatitudeDegrees>28.25542685575783252716064453125</LatitudeDegrees>
              <LongitudeDegrees>-16.60809463821351528167724609375</LongitudeDegrees>
            </Position>
            <AltitudeMeters>2316.800048828125</AltitudeMeters>
            <DistanceMeters>17048.315526324</DistanceMeters>
          </Trackpoint>
          <Trackpoint>
            <Time>2019-04-08T09:08:56.000Z</Time>
            <Position>
              <LatitudeDegrees>28.25543791987001895904541015625</LatitudeDegrees>
              <LongitudeDegrees>-16.60806396044790744781494140625</LongitudeDegrees>
            </Position>
            <AltitudeMeters>2317.39990234375</AltitudeMeters>
            <DistanceMeters>17051.565940057</DistanceMeters>
          </Trackpoint>
          <Trackpoint>
            <Time>2019-04-08T09:08:57.000Z</Time>
            <Position>
              <LatitudeDegrees>28.25544361956417560577392578125</LatitudeDegrees>
              <LongitudeDegrees>-16.6080620326101779937744140625</LongitudeDegrees>
            </Position>
            <AltitudeMeters>2317.60009765625</AltitudeMeters>
            <DistanceMeters>17052.237880398</DistanceMeters>
          </Trackpoint>
          <Trackpoint>
            <Time>2019-04-08T09:09:04.000Z</Time>
            <Position>
              <LatitudeDegrees>28.255471028387546539306640625</LatitudeDegrees>
              <LongitudeDegrees>-16.60808256827294826507568359375</LongitudeDegrees>
            </Position>
            <AltitudeMeters>2318.39990234375</AltitudeMeters>
            <DistanceMeters>17055.893631092</DistanceMeters>
          </Trackpoint>
          <Trackpoint>
            <Time>2019-04-08T09:09:07.000Z</Time>
            <Position>
              <LatitudeDegrees>28.25548385269939899444580078125</LatitudeDegrees>
              <LongitudeDegrees>-16.60807552747428417205810546875</LongitudeDegrees>
            </Position>
            <AltitudeMeters>2318.800048828125</AltitudeMeters>
            <DistanceMeters>17057.480890154</DistanceMeters>
          </Trackpoint>
          <Trackpoint>
            <Time>2019-04-08T09:09:13.000Z</Time>
            <Position>
              <LatitudeDegrees>28.2555080763995647430419921875</LatitudeDegrees>
              <LongitudeDegrees>-16.6080586798489093780517578125</LongitudeDegrees>
            </Position>
            <AltitudeMeters>2319.60009765625</AltitudeMeters>
            <DistanceMeters>17060.644009611</DistanceMeters>
          </Trackpoint>
          <Trackpoint>
            <Time>2019-04-08T09:09:15.000Z</Time>
            <Position>
              <LatitudeDegrees>28.25552140362560749053955078125</LatitudeDegrees>
              <LongitudeDegrees>-16.60806044004857540130615234375</LongitudeDegrees>
            </Position>
            <AltitudeMeters>2319.800048828125</AltitudeMeters>
            <DistanceMeters>17062.137471657</DistanceMeters>
          </Trackpoint>
          <Trackpoint>
            <Time>2019-04-08T09:09:21.000Z</Time>
            <Position>
              <LatitudeDegrees>28.25552391819655895233154296875</LatitudeDegrees>
              <LongitudeDegrees>-16.60810117609798908233642578125</LongitudeDegrees>
            </Position>
            <AltitudeMeters>2320.39990234375</AltitudeMeters>
            <DistanceMeters>17066.142145896</DistanceMeters>
          </Trackpoint>
          <Trackpoint>
            <Time>2019-04-08T09:09:27.000Z</Time>
            <Position>
              <LatitudeDegrees>28.25552877970039844512939453125</LatitudeDegrees>
              <LongitudeDegrees>-16.6081481985747814178466796875</LongitudeDegrees>
            </Position>
            <AltitudeMeters>2321</AltitudeMeters>
            <DistanceMeters>17070.782914401</DistanceMeters>
          </Trackpoint>
          <Trackpoint>
            <Time>2019-04-08T09:09:30.000Z</Time>
            <Position>
              <LatitudeDegrees>28.25552442111074924468994140625</LatitudeDegrees>
              <LongitudeDegrees>-16.6081716679036617279052734375</LongitudeDegrees>
            </Position>
            <AltitudeMeters>2321.39990234375</AltitudeMeters>
            <DistanceMeters>17073.137583579</DistanceMeters>
          </Trackpoint>
          <Trackpoint>
            <Time>2019-04-08T09:09:36.000Z</Time>
            <Position>
              <LatitudeDegrees>28.25552098453044891357421875</LatitudeDegrees>
              <LongitudeDegrees>-16.6082288324832916259765625</LongitudeDegrees>
            </Position>
            <AltitudeMeters>2322.199951171875</AltitudeMeters>
            <DistanceMeters>17078.75542277</DistanceMeters>
          </Trackpoint>
          <Trackpoint>
            <Time>2019-04-08T09:09:41.000Z</Time>
            <Position>
              <LatitudeDegrees>28.25553263537585735321044921875</LatitudeDegrees>
              <LongitudeDegrees>-16.608256995677947998046875</LongitudeDegrees>
            </Position>
            <AltitudeMeters>2322.800048828125</AltitudeMeters>
            <DistanceMeters>17081.806653474</DistanceMeters>
          </Trackpoint>
          <Trackpoint>
            <Time>2019-04-08T09:09:45.000Z</Time>
            <Position>
              <LatitudeDegrees>28.25554470531642436981201171875</LatitudeDegrees>
              <LongitudeDegrees>-16.608252637088298797607421875</LongitudeDegrees>
            </Position>
            <AltitudeMeters>2323.39990234375</AltitudeMeters>
            <DistanceMeters>17083.216127425</DistanceMeters>
          </Trackpoint>
          <Trackpoint>
            <Time>2019-04-08T09:09:50.000Z</Time>
            <Position>
              <LatitudeDegrees>28.2555761374533176422119140625</LatitudeDegrees>
              <LongitudeDegrees>-16.608242578804492950439453125</LongitudeDegrees>
            </Position>
            <AltitudeMeters>2324.199951171875</AltitudeMeters>
            <DistanceMeters>17086.850821613</DistanceMeters>
          </Trackpoint>
          <Trackpoint>
            <Time>2019-04-08T09:09:52.000Z</Time>
            <Position>
              <LatitudeDegrees>28.25558979995548725128173828125</LatitudeDegrees>
              <LongitudeDegrees>-16.60824383608996868133544921875</LongitudeDegrees>
            </Position>
            <AltitudeMeters>2324.39990234375</AltitudeMeters>
            <DistanceMeters>17088.377176657</DistanceMeters>
          </Trackpoint>
          <Trackpoint>
            <Time>2019-04-08T09:09:59.000Z</Time>
            <Position>
              <LatitudeDegrees>28.25564704835414886474609375</LatitudeDegrees>
              <LongitudeDegrees>-16.6082397289574146270751953125</LongitudeDegrees>
            </Position>
            <AltitudeMeters>2325.800048828125</AltitudeMeters>
            <DistanceMeters>17094.761670769</DistanceMeters>
          </Trackpoint>
          <Trackpoint>
            <Time>2019-04-08T09:10:02.000Z</Time>
            <Position>
              <LatitudeDegrees>28.2556703500449657440185546875</LatitudeDegrees>
              <LongitudeDegrees>-16.6082261502742767333984375</LongitudeDegrees>
            </Position>
            <AltitudeMeters>2326</AltitudeMeters>
            <DistanceMeters>17097.676683966</DistanceMeters>
          </Trackpoint>
          <Trackpoint>
            <Time>2019-04-08T09:10:11.000Z</Time>
            <Position>
              <LatitudeDegrees>28.25572474859654903411865234375</LatitudeDegrees>
              <LongitudeDegrees>-16.6081897728145122528076171875</LongitudeDegrees>
            </Position>
            <AltitudeMeters>2326.60009765625</AltitudeMeters>
            <DistanceMeters>17104.703522372</DistanceMeters>
          </Trackpoint>
          <Trackpoint>
            <Time>2019-04-08T09:10:13.000Z</Time>
            <Position>
              <LatitudeDegrees>28.25574067421257495880126953125</LatitudeDegrees>
              <LongitudeDegrees>-16.608199663460254669189453125</LongitudeDegrees>
            </Position>
            <AltitudeMeters>2327</AltitudeMeters>
            <DistanceMeters>17106.726051638</DistanceMeters>
          </Trackpoint>
          <Trackpoint>
            <Time>2019-04-08T09:10:19.000Z</Time>
            <Position>
              <LatitudeDegrees>28.25575944967567920684814453125</LatitudeDegrees>
              <LongitudeDegrees>-16.60825439728796482086181640625</LongitudeDegrees>
            </Position>
            <AltitudeMeters>2327.60009765625</AltitudeMeters>
            <DistanceMeters>17112.485956225</DistanceMeters>
          </Trackpoint>
          <Trackpoint>
            <Time>2019-04-08T09:10:23.000Z</Time>
            <Position>
              <LatitudeDegrees>28.255782835185527801513671875</LatitudeDegrees>
              <LongitudeDegrees>-16.60829245112836360931396484375</LongitudeDegrees>
            </Position>
            <AltitudeMeters>2328.199951171875</AltitudeMeters>
            <DistanceMeters>17117.035344669</DistanceMeters>
          </Trackpoint>
          <Trackpoint>
            <Time>2019-04-08T09:10:27.000Z</Time>
            <Position>
              <LatitudeDegrees>28.255810998380184173583984375</LatitudeDegrees>
              <LongitudeDegrees>-16.60831307061016559600830078125</LongitudeDegrees>
            </Position>
            <AltitudeMeters>2328.800048828125</AltitudeMeters>
            <DistanceMeters>17120.764462222</DistanceMeters>
          </Trackpoint>
          <Trackpoint>
            <Time>2019-04-08T09:10:29.000Z</Time>
            <Position>
              <LatitudeDegrees>28.255821056663990020751953125</LatitudeDegrees>
              <LongitudeDegrees>-16.60831625573337078094482421875</LongitudeDegrees>
            </Position>
            <AltitudeMeters>2329.199951171875</AltitudeMeters>
            <DistanceMeters>17121.928297032</DistanceMeters>
          </Trackpoint>
          <Trackpoint>
            <Time>2019-04-08T09:10:35.000Z</Time>
            <Position>
              <LatitudeDegrees>28.25582583434879779815673828125</LatitudeDegrees>
              <LongitudeDegrees>-16.6083688102662563323974609375</LongitudeDegrees>
            </Position>
            <AltitudeMeters>2330</AltitudeMeters>
            <DistanceMeters>17127.107906778</DistanceMeters>
          </Trackpoint>
          <Trackpoint>
            <Time>2019-04-08T09:10:37.000Z</Time>
            <Position>
              <LatitudeDegrees>28.25582533143460750579833984375</LatitudeDegrees>
              <LongitudeDegrees>-16.60838683135807514190673828125</LongitudeDegrees>
            </Position>
            <AltitudeMeters>2330.39990234375</AltitudeMeters>
            <DistanceMeters>17128.875505841</DistanceMeters>
          </Trackpoint>
          <Trackpoint>
            <Time>2019-04-08T09:10:44.000Z</Time>
            <Position>
              <LatitudeDegrees>28.25584980659186840057373046875</LatitudeDegrees>
              <LongitudeDegrees>-16.60843661986291408538818359375</LongitudeDegrees>
            </Position>
            <AltitudeMeters>2331.60009765625</AltitudeMeters>
            <DistanceMeters>17134.465144872</DistanceMeters>
          </Trackpoint>
          <Trackpoint>
            <Time>2019-04-08T09:10:45.000Z</Time>
            <Position>
              <LatitudeDegrees>28.255852572619915008544921875</LatitudeDegrees>
              <LongitudeDegrees>-16.60844265483319759368896484375</LongitudeDegrees>
            </Position>
            <AltitudeMeters>2331.800048828125</AltitudeMeters>
            <DistanceMeters>17135.130331873</DistanceMeters>
          </Trackpoint>
          <Trackpoint>
            <Time>2019-04-08T09:10:54.000Z</Time>
            <Position>
              <LatitudeDegrees>28.2559104077517986297607421875</LatitudeDegrees>
              <LongitudeDegrees>-16.6085086204111576080322265625</LongitudeDegrees>
            </Position>
            <AltitudeMeters>2332.199951171875</AltitudeMeters>
            <DistanceMeters>17144.255370771</DistanceMeters>
          </Trackpoint>
          <Trackpoint>
            <Time>2019-04-08T09:10:59.000Z</Time>
            <Position>
              <LatitudeDegrees>28.255965225398540496826171875</LatitudeDegrees>
              <LongitudeDegrees>-16.60851876251399517059326171875</LongitudeDegrees>
            </Position>
            <AltitudeMeters>2332.60009765625</AltitudeMeters>
            <DistanceMeters>17150.436491497</DistanceMeters>
          </Trackpoint>
          <Trackpoint>
            <Time>2019-04-08T09:11:03.000Z</Time>
            <Position>
              <LatitudeDegrees>28.25600805692374706268310546875</LatitudeDegrees>
              <LongitudeDegrees>-16.60850099287927150726318359375</LongitudeDegrees>
            </Position>
            <AltitudeMeters>2332.60009765625</AltitudeMeters>
            <DistanceMeters>17155.511309525</DistanceMeters>
          </Trackpoint>
          <Trackpoint>
            <Time>2019-04-08T09:11:07.000Z</Time>
            <Position>
              <LatitudeDegrees>28.25603588484227657318115234375</LatitudeDegrees>
              <LongitudeDegrees>-16.6084663756191730499267578125</LongitudeDegrees>
            </Position>
            <AltitudeMeters>2332.39990234375</AltitudeMeters>
            <DistanceMeters>17160.106123855</DistanceMeters>
          </Trackpoint>
          <Trackpoint>
            <Time>2019-04-08T09:11:18.000Z</Time>
            <Position>
              <LatitudeDegrees>28.25611819513142108917236328125</LatitudeDegrees>
              <LongitudeDegrees>-16.60838163457810878753662109375</LongitudeDegrees>
            </Position>
            <AltitudeMeters>2333</AltitudeMeters>
            <DistanceMeters>17172.473477445</DistanceMeters>
          </Trackpoint>
          <Trackpoint>
            <Time>2019-04-08T09:11:26.000Z</Time>
            <Position>
              <LatitudeDegrees>28.25619832612574100494384765625</LatitudeDegrees>
              <LongitudeDegrees>-16.6083721630275249481201171875</LongitudeDegrees>
            </Position>
            <AltitudeMeters>2333.800048828125</AltitudeMeters>
            <DistanceMeters>17181.440294085</DistanceMeters>
          </Trackpoint>
          <Trackpoint>
            <Time>2019-04-08T09:11:31.000Z</Time>
            <Position>
              <LatitudeDegrees>28.25623453594744205474853515625</LatitudeDegrees>
              <LongitudeDegrees>-16.6083339415490627288818359375</LongitudeDegrees>
            </Position>
            <AltitudeMeters>2333.800048828125</AltitudeMeters>
            <DistanceMeters>17186.943645463</DistanceMeters>
          </Trackpoint>
          <Trackpoint>
            <Time>2019-04-08T09:11:35.000Z</Time>
            <Position>
              <LatitudeDegrees>28.25625197030603885650634765625</LatitudeDegrees>
              <LongitudeDegrees>-16.60831055603921413421630859375</LongitudeDegrees>
            </Position>
            <AltitudeMeters>2334.800048828125</AltitudeMeters>
            <DistanceMeters>17189.947151143</DistanceMeters>
          </Trackpoint>
          <Trackpoint>
            <Time>2019-04-08T09:11:38.000Z</Time>
            <Position>
              <LatitudeDegrees>28.25627074576914310455322265625</LatitudeDegrees>
              <LongitudeDegrees>-16.608298234641551971435546875</LongitudeDegrees>
            </Position>
            <AltitudeMeters>2335</AltitudeMeters>
            <DistanceMeters>17192.35865881</DistanceMeters>
          </Trackpoint>
          <Trackpoint>
            <Time>2019-04-08T09:11:46.000Z</Time>
            <Position>
              <LatitudeDegrees>28.256307877600193023681640625</LatitudeDegrees>
              <LongitudeDegrees>-16.60824987106025218963623046875</LongitudeDegrees>
            </Position>
            <AltitudeMeters>2335.800048828125</AltitudeMeters>
            <DistanceMeters>17198.649111495</DistanceMeters>
          </Trackpoint>
          <Trackpoint>
            <Time>2019-04-08T09:11:49.000Z</Time>
            <Position>
              <LatitudeDegrees>28.25633126311004161834716796875</LatitudeDegrees>
              <LongitudeDegrees>-16.60823428072035312652587890625</LongitudeDegrees>
            </Position>
            <AltitudeMeters>2336</AltitudeMeters>
            <DistanceMeters>17201.666116144</DistanceMeters>
          </Trackpoint>
          <Trackpoint>
            <Time>2019-04-08T09:11:55.000Z</Time>
            <Position>
              <LatitudeDegrees>28.2563730888068675994873046875</LatitudeDegrees>
              <LongitudeDegrees>-16.6082020103931427001953125</LongitudeDegrees>
            </Position>
            <AltitudeMeters>2337.199951171875</AltitudeMeters>
            <DistanceMeters>17207.294393693</DistanceMeters>
          </Trackpoint>
          <Trackpoint>
            <Time>2019-04-08T09:11:58.000Z</Time>
            <Position>
              <LatitudeDegrees>28.25639613904058933258056640625</LatitudeDegrees>
              <LongitudeDegrees>-16.6081971488893032073974609375</LongitudeDegrees>
            </Position>
            <AltitudeMeters>2337.39990234375</AltitudeMeters>
            <DistanceMeters>17209.903737986</DistanceMeters>
          </Trackpoint>
          <Trackpoint>
            <Time>2019-04-08T09:12:07.000Z</Time>
            <Position>
              <LatitudeDegrees>28.2564673013985157012939453125</LatitudeDegrees>
              <LongitudeDegrees>-16.60819857381284236907958984375</LongitudeDegrees>
            </Position>
            <AltitudeMeters>2338.39990234375</AltitudeMeters>
            <DistanceMeters>17217.825797774</DistanceMeters>
          </Trackpoint>
          <Trackpoint>
            <Time>2019-04-08T09:12:08.000Z</Time>
            <Position>
              <LatitudeDegrees>28.25647425837814807891845703125</LatitudeDegrees>
              <LongitudeDegrees>-16.6082045249640941619873046875</LongitudeDegrees>
            </Position>
            <AltitudeMeters>2338.39990234375</AltitudeMeters>
            <DistanceMeters>17218.794883916</DistanceMeters>
          </Trackpoint>
          <Trackpoint>
            <Time>2019-04-08T09:12:16.000Z</Time>
            <Position>
              <LatitudeDegrees>28.25649672187864780426025390625</LatitudeDegrees>
              <LongitudeDegrees>-16.60826596431434154510498046875</LongitudeDegrees>
            </Position>
            <AltitudeMeters>2339.199951171875</AltitudeMeters>
            <DistanceMeters>17225.316514084</DistanceMeters>
          </Trackpoint>
          <Trackpoint>
            <Time>2019-04-08T09:12:19.000Z</Time>
            <Position>
              <LatitudeDegrees>28.25651901774108409881591796875</LatitudeDegrees>
              <LongitudeDegrees>-16.6082856617867946624755859375</LongitudeDegrees>
            </Position>
            <AltitudeMeters>2339.39990234375</AltitudeMeters>
            <DistanceMeters>17228.461022584</DistanceMeters>
          </Trackpoint>
          <Trackpoint>
            <Time>2019-04-08T09:12:24.000Z</Time>
            <Position>
              <LatitudeDegrees>28.2565521262586116790771484375</LatitudeDegrees>
              <LongitudeDegrees>-16.6082849912345409393310546875</LongitudeDegrees>
            </Position>
            <AltitudeMeters>2340.60009765625</AltitudeMeters>
            <DistanceMeters>17232.147520251</DistanceMeters>
          </Trackpoint>
          <Trackpoint>
            <Time>2019-04-08T09:12:30.000Z</Time>
            <Position>
              <LatitudeDegrees>28.25659059919416904449462890625</LatitudeDegrees>
              <LongitudeDegrees>-16.60832279361784458160400390625</LongitudeDegrees>
            </Position>
            <AltitudeMeters>2341.60009765625</AltitudeMeters>
            <DistanceMeters>17237.810984873</DistanceMeters>
          </Trackpoint>
          <Trackpoint>
            <Time>2019-04-08T09:12:33.000Z</Time>
            <Position>
              <LatitudeDegrees>28.256602920591831207275390625</LatitudeDegrees>
              <LongitudeDegrees>-16.60835648886859416961669921875</LongitudeDegrees>
            </Position>
            <AltitudeMeters>2342</AltitudeMeters>
            <DistanceMeters>17241.388081226</DistanceMeters>
          </Trackpoint>
          <Trackpoint>
            <Time>2019-04-08T09:12:42.000Z</Time>
            <Position>
              <LatitudeDegrees>28.25666167773306369781494140625</LatitudeDegrees>
              <LongitudeDegrees>-16.60842572338879108428955078125</LongitudeDegrees>
            </Position>
            <AltitudeMeters>2342.60009765625</AltitudeMeters>
            <DistanceMeters>17250.813945756</DistanceMeters>
          </Trackpoint>
          <Trackpoint>
            <Time>2019-04-08T09:12:53.000Z</Time>
            <Position>
              <LatitudeDegrees>28.25677265413105487823486328125</LatitudeDegrees>
              <LongitudeDegrees>-16.60845338366925716400146484375</LongitudeDegrees>
            </Position>
            <AltitudeMeters>2343.60009765625</AltitudeMeters>
            <DistanceMeters>17263.459998651</DistanceMeters>
          </Trackpoint>
          <Trackpoint>
            <Time>2019-04-08T09:12:54.000Z</Time>
            <Position>
              <LatitudeDegrees>28.25678120367228984832763671875</LatitudeDegrees>
              <LongitudeDegrees>-16.60844969563186168670654296875</LongitudeDegrees>
            </Position>
            <AltitudeMeters>2343.60009765625</AltitudeMeters>
            <DistanceMeters>17264.479046634</DistanceMeters>
          </Trackpoint>
          <Trackpoint>
            <Time>2019-04-08T09:13:05.000Z</Time>
            <Position>
              <LatitudeDegrees>28.2568870671093463897705078125</LatitudeDegrees>
              <LongitudeDegrees>-16.60843603312969207763671875</LongitudeDegrees>
            </Position>
            <AltitudeMeters>2344.39990234375</AltitudeMeters>
            <DistanceMeters>17276.337984636</DistanceMeters>
          </Trackpoint>
          <Trackpoint>
            <Time>2019-04-08T09:13:12.000Z</Time>
            <Position>
              <LatitudeDegrees>28.25695035047829151153564453125</LatitudeDegrees>
              <LongitudeDegrees>-16.6084660403430461883544921875</LongitudeDegrees>
            </Position>
            <AltitudeMeters>2344.199951171875</AltitudeMeters>
            <DistanceMeters>17283.970942989</DistanceMeters>
          </Trackpoint>
          <Trackpoint>
            <Time>2019-04-08T09:13:18.000Z</Time>
            <Position>
              <LatitudeDegrees>28.25701170600950717926025390625</LatitudeDegrees>
              <LongitudeDegrees>-16.60848808474838733673095703125</LongitudeDegrees>
            </Position>
            <AltitudeMeters>2343.39990234375</AltitudeMeters>
            <DistanceMeters>17291.133965699</DistanceMeters>
          </Trackpoint>
          <Trackpoint>
            <Time>2019-04-08T09:13:23.000Z</Time>
            <Position>
              <LatitudeDegrees>28.25706870295107364654541015625</LatitudeDegrees>
              <LongitudeDegrees>-16.6084999032318592071533203125</LongitudeDegrees>
            </Position>
            <AltitudeMeters>2342.60009765625</AltitudeMeters>
            <DistanceMeters>17297.58249282</DistanceMeters>
          </Trackpoint>
          <Trackpoint>
            <Time>2019-04-08T09:13:29.000Z</Time>
            <Position>
              <LatitudeDegrees>28.25714279897511005401611328125</LatitudeDegrees>
              <LongitudeDegrees>-16.6085223667323589324951171875</LongitudeDegrees>
            </Position>
            <AltitudeMeters>2342</AltitudeMeters>
            <DistanceMeters>17306.118515713</DistanceMeters>
          </Trackpoint>
          <Trackpoint>
            <Time>2019-04-08T09:13:39.000Z</Time>
            <Position>
              <LatitudeDegrees>28.2572572119534015655517578125</LatitudeDegrees>
              <LongitudeDegrees>-16.60852429457008838653564453125</LongitudeDegrees>
            </Position>
            <AltitudeMeters>2341.800048828125</AltitudeMeters>
            <DistanceMeters>17318.854222724</DistanceMeters>
          </Trackpoint>
          <Trackpoint>
            <Time>2019-04-08T09:13:52.000Z</Time>
            <Position>
              <LatitudeDegrees>28.2574057392776012420654296875</LatitudeDegrees>
              <LongitudeDegrees>-16.6084730811417102813720703125</LongitudeDegrees>
            </Position>
            <AltitudeMeters>2341.800048828125</AltitudeMeters>
            <DistanceMeters>17336.131584705</DistanceMeters>
          </Trackpoint>
          <Trackpoint>
            <Time>2019-04-08T09:14:00.000Z</Time>
            <Position>
              <LatitudeDegrees>28.25749986805021762847900390625</LatitudeDegrees>
              <LongitudeDegrees>-16.6085056029260158538818359375</LongitudeDegrees>
            </Position>
            <AltitudeMeters>2342</AltitudeMeters>
            <DistanceMeters>17347.082769356</DistanceMeters>
          </Trackpoint>
          <Trackpoint>
            <Time>2019-04-08T09:14:07.000Z</Time>
            <Position>
              <LatitudeDegrees>28.257564492523670196533203125</LatitudeDegrees>
              <LongitudeDegrees>-16.6085572354495525360107421875</LongitudeDegrees>
            </Position>
            <AltitudeMeters>2342</AltitudeMeters>
            <DistanceMeters>17355.877747174</DistanceMeters>
          </Trackpoint>
          <Trackpoint>
            <Time>2019-04-08T09:14:12.000Z</Time>
            <Position>
              <LatitudeDegrees>28.25760967098176479339599609375</LatitudeDegrees>
              <LongitudeDegrees>-16.6085947863757610321044921875</LongitudeDegrees>
            </Position>
            <AltitudeMeters>2342.39990234375</AltitudeMeters>
            <DistanceMeters>17362.10979008</DistanceMeters>
          </Trackpoint>
          <Trackpoint>
            <Time>2019-04-08T09:14:13.000Z</Time>
            <Position>
              <LatitudeDegrees>28.25761771760880947113037109375</LatitudeDegrees>
              <LongitudeDegrees>-16.60860476084053516387939453125</LongitudeDegrees>
            </Position>
            <AltitudeMeters>2342.39990234375</AltitudeMeters>
            <DistanceMeters>17363.43676593</DistanceMeters>
          </Trackpoint>
          <Trackpoint>
            <Time>2019-04-08T09:14:20.000Z</Time>
            <Position>
              <LatitudeDegrees>28.25767555274069309234619140625</LatitudeDegrees>
              <LongitudeDegrees>-16.6086660325527191162109375</LongitudeDegrees>
            </Position>
            <AltitudeMeters>2342.39990234375</AltitudeMeters>
            <DistanceMeters>17372.24149229</DistanceMeters>
          </Trackpoint>
          <Trackpoint>
            <Time>2019-04-08T09:14:28.000Z</Time>
            <Position>
              <LatitudeDegrees>28.25776456855237483978271484375</LatitudeDegrees>
              <LongitudeDegrees>-16.60872294567525386810302734375</LongitudeDegrees>
            </Position>
            <AltitudeMeters>2342.60009765625</AltitudeMeters>
            <DistanceMeters>17383.61258127</DistanceMeters>
          </Trackpoint>
          <Trackpoint>
            <Time>2019-04-08T09:14:29.000Z</Time>
            <Position>
              <LatitudeDegrees>28.2577768899500370025634765625</LatitudeDegrees>
              <LongitudeDegrees>-16.60872126929461956024169921875</LongitudeDegrees>
            </Position>
            <AltitudeMeters>2342.39990234375</AltitudeMeters>
            <DistanceMeters>17384.992924028</DistanceMeters>
          </Trackpoint>
          <Trackpoint>
            <Time>2019-04-08T09:14:33.000Z</Time>
            <Position>
              <LatitudeDegrees>28.2578100822865962982177734375</LatitudeDegrees>
              <LongitudeDegrees>-16.6087436489760875701904296875</LongitudeDegrees>
            </Position>
            <AltitudeMeters>2342.60009765625</AltitudeMeters>
            <DistanceMeters>17389.289140533</DistanceMeters>
          </Trackpoint>
          <Trackpoint>
            <Time>2019-04-08T09:14:38.000Z</Time>
            <Position>
              <LatitudeDegrees>28.25784972868859767913818359375</LatitudeDegrees>
              <LongitudeDegrees>-16.60877910442650318145751953125</LongitudeDegrees>
            </Position>
            <AltitudeMeters>2342.60009765625</AltitudeMeters>
            <DistanceMeters>17394.906175969</DistanceMeters>
          </Trackpoint>
          <Trackpoint>
            <Time>2019-04-08T09:14:39.000Z</Time>
            <Position>
              <LatitudeDegrees>28.25785643421113491058349609375</LatitudeDegrees>
              <LongitudeDegrees>-16.60878296010196208953857421875</LongitudeDegrees>
            </Position>
            <AltitudeMeters>2342.60009765625</AltitudeMeters>
            <DistanceMeters>17395.745429186</DistanceMeters>
          </Trackpoint>
          <Trackpoint>
            <Time>2019-04-08T09:14:44.000Z</Time>
            <Position>
              <LatitudeDegrees>28.25788862071931362152099609375</LatitudeDegrees>
              <LongitudeDegrees>-16.60880123265087604522705078125</LongitudeDegrees>
            </Position>
            <AltitudeMeters>2343.39990234375</AltitudeMeters>
            <DistanceMeters>17399.748975825</DistanceMeters>
          </Trackpoint>
          <Trackpoint>
            <Time>2019-04-08T09:14:50.000Z</Time>
            <Position>
              <LatitudeDegrees>28.2579317875206470489501953125</LatitudeDegrees>
              <LongitudeDegrees>-16.60881933756172657012939453125</LongitudeDegrees>
            </Position>
            <AltitudeMeters>2344.60009765625</AltitudeMeters>
            <DistanceMeters>17404.870730609</DistanceMeters>
          </Trackpoint>
          <Trackpoint>
            <Time>2019-04-08T09:14:54.000Z</Time>
            <Position>
              <LatitudeDegrees>28.25796271674335002899169921875</LatitudeDegrees>
              <LongitudeDegrees>-16.608817577362060546875</LongitudeDegrees>
            </Position>
            <AltitudeMeters>2345</AltitudeMeters>
            <DistanceMeters>17408.31667758</DistanceMeters>
          </Trackpoint>
          <Trackpoint>
            <Time>2019-04-08T09:14:56.000Z</Time>
            <Position>
              <LatitudeDegrees>28.25797730125486850738525390625</LatitudeDegrees>
              <LongitudeDegrees>-16.60881766118109226226806640625</LongitudeDegrees>
            </Position>
            <AltitudeMeters>2345.800048828125</AltitudeMeters>
            <DistanceMeters>17409.940494787</DistanceMeters>
          </Trackpoint>
          <Trackpoint>
            <Time>2019-04-08T09:15:01.000Z</Time>
            <Position>
              <LatitudeDegrees>28.25801066122949123382568359375</LatitudeDegrees>
              <LongitudeDegrees>-16.608819253742694854736328125</LongitudeDegrees>
            </Position>
            <AltitudeMeters>2347</AltitudeMeters>
            <DistanceMeters>17413.656270195</DistanceMeters>
          </Trackpoint>
          <Trackpoint>
            <Time>2019-04-08T09:15:04.000Z</Time>
            <Position>
              <LatitudeDegrees>28.258029855787754058837890625</LatitudeDegrees>
              <LongitudeDegrees>-16.60882453434169292449951171875</LongitudeDegrees>
            </Position>
            <AltitudeMeters>2347.199951171875</AltitudeMeters>
            <DistanceMeters>17415.852189324</DistanceMeters>
          </Trackpoint>
          <Trackpoint>
            <Time>2019-04-08T09:15:09.000Z</Time>
            <Position>
              <LatitudeDegrees>28.258059024810791015625</LatitudeDegrees>
              <LongitudeDegrees>-16.60883090458810329437255859375</LongitudeDegrees>
            </Position>
            <AltitudeMeters>2348.199951171875</AltitudeMeters>
            <DistanceMeters>17419.15906437</DistanceMeters>
          </Trackpoint>
          <Trackpoint>
            <Time>2019-04-08T09:15:13.000Z</Time>
            <Position>
              <LatitudeDegrees>28.25808324851095676422119140625</LatitudeDegrees>
              <LongitudeDegrees>-16.6088361851871013641357421875</LongitudeDegrees>
            </Position>
            <AltitudeMeters>2349</AltitudeMeters>
            <DistanceMeters>17421.903346381</DistanceMeters>
          </Trackpoint>
          <Trackpoint>
            <Time>2019-04-08T09:15:16.000Z</Time>
            <Position>
              <LatitudeDegrees>28.25810001231729984283447265625</LatitudeDegrees>
              <LongitudeDegrees>-16.60884867422282695770263671875</LongitudeDegrees>
            </Position>
            <AltitudeMeters>2349.199951171875</AltitudeMeters>
            <DistanceMeters>17424.13596865</DistanceMeters>
          </Trackpoint>
          <Trackpoint>
            <Time>2019-04-08T09:15:21.000Z</Time>
            <Position>
              <LatitudeDegrees>28.2581232301890850067138671875</LatitudeDegrees>
              <LongitudeDegrees>-16.60887298174202442169189453125</LongitudeDegrees>
            </Position>
            <AltitudeMeters>2350.39990234375</AltitudeMeters>
            <DistanceMeters>17427.650672702</DistanceMeters>
          </Trackpoint>
          <Trackpoint>
            <Time>2019-04-08T09:15:22.000Z</Time>
            <Position>
              <LatitudeDegrees>28.25812767259776592254638671875</LatitudeDegrees>
              <LongitudeDegrees>-16.6088750772178173065185546875</LongitudeDegrees>
            </Position>
            <AltitudeMeters>2350.60009765625</AltitudeMeters>
            <DistanceMeters>17428.179759056</DistanceMeters>
          </Trackpoint>
          <Trackpoint>
            <Time>2019-04-08T09:15:30.000Z</Time>
            <Position>
              <LatitudeDegrees>28.25818282552063465118408203125</LatitudeDegrees>
              <LongitudeDegrees>-16.608889661729335784912109375</LongitudeDegrees>
            </Position>
            <AltitudeMeters>2351.39990234375</AltitudeMeters>
            <DistanceMeters>17434.483118189</DistanceMeters>
          </Trackpoint>
          <Trackpoint>
            <Time>2019-04-08T09:15:31.000Z</Time>
            <Position>
              <LatitudeDegrees>28.258190117776393890380859375</LatitudeDegrees>
              <LongitudeDegrees>-16.6088918410241603851318359375</LongitudeDegrees>
            </Position>
            <AltitudeMeters>2351.39990234375</AltitudeMeters>
            <DistanceMeters>17435.322371406</DistanceMeters>
          </Trackpoint>
          <Trackpoint>
            <Time>2019-04-08T09:15:37.000Z</Time>
            <Position>
              <LatitudeDegrees>28.2582335360348224639892578125</LatitudeDegrees>
              <LongitudeDegrees>-16.60888890735805034637451171875</LongitudeDegrees>
            </Position>
            <AltitudeMeters>2352.60009765625</AltitudeMeters>
            <DistanceMeters>17440.163140805</DistanceMeters>
          </Trackpoint>
          <Trackpoint>
            <Time>2019-04-08T09:15:41.000Z</Time>
            <Position>
              <LatitudeDegrees>28.25826128013432025909423828125</LatitudeDegrees>
              <LongitudeDegrees>-16.608883626759052276611328125</LongitudeDegrees>
            </Position>
            <AltitudeMeters>2353.199951171875</AltitudeMeters>
            <DistanceMeters>17443.293257886</DistanceMeters>
          </Trackpoint>
          <Trackpoint>
            <Time>2019-04-08T09:15:46.000Z</Time>
            <Position>
              <LatitudeDegrees>28.25829899869859218597412109375</LatitudeDegrees>
              <LongitudeDegrees>-16.60889628343284130096435546875</LongitudeDegrees>
            </Position>
            <AltitudeMeters>2353.60009765625</AltitudeMeters>
            <DistanceMeters>17447.671711071</DistanceMeters>
          </Trackpoint>
          <Trackpoint>
            <Time>2019-04-08T09:15:51.000Z</Time>
            <Position>
              <LatitudeDegrees>28.25833998620510101318359375</LatitudeDegrees>
              <LongitudeDegrees>-16.6089189983904361724853515625</LongitudeDegrees>
            </Position>
            <AltitudeMeters>2354</AltitudeMeters>
            <DistanceMeters>17452.748308176</DistanceMeters>
          </Trackpoint>
          <Trackpoint>
            <Time>2019-04-08T09:15:56.000Z</Time>
            <Position>
              <LatitudeDegrees>28.2583810575306415557861328125</LatitudeDegrees>
              <LongitudeDegrees>-16.6089235246181488037109375</LongitudeDegrees>
            </Position>
            <AltitudeMeters>2354.800048828125</AltitudeMeters>
            <DistanceMeters>17457.34115681</DistanceMeters>
          </Trackpoint>
          <Trackpoint>
            <Time>2019-04-08T09:16:00.000Z</Time>
            <Position>
              <LatitudeDegrees>28.2584021799266338348388671875</LatitudeDegrees>
              <LongitudeDegrees>-16.6089149750769138336181640625</LongitudeDegrees>
            </Position>
            <AltitudeMeters>2355.60009765625</AltitudeMeters>
            <DistanceMeters>17459.837304391</DistanceMeters>
          </Trackpoint>
          <Trackpoint>
            <Time>2019-04-08T09:16:01.000Z</Time>
            <Position>
              <LatitudeDegrees>28.2584072090685367584228515625</LatitudeDegrees>
              <LongitudeDegrees>-16.60891078412532806396484375</LongitudeDegrees>
            </Position>
            <AltitudeMeters>2355.800048828125</AltitudeMeters>
            <DistanceMeters>17460.535605277</DistanceMeters>
          </Trackpoint>
          <Trackpoint>
            <Time>2019-04-08T09:16:08.000Z</Time>
            <Position>
              <LatitudeDegrees>28.258432857692241668701171875</LatitudeDegrees>
              <LongitudeDegrees>-16.60889226011931896209716796875</LongitudeDegrees>
            </Position>
            <AltitudeMeters>2356.800048828125</AltitudeMeters>
            <DistanceMeters>17463.919410374</DistanceMeters>
          </Trackpoint>
          <Trackpoint>
            <Time>2019-04-08T09:16:09.000Z</Time>
            <Position>
              <LatitudeDegrees>28.25843964703381061553955078125</LatitudeDegrees>
              <LongitudeDegrees>-16.60889200866222381591796875</LongitudeDegrees>
            </Position>
            <AltitudeMeters>2357</AltitudeMeters>
            <DistanceMeters>17464.679624089</DistanceMeters>
          </Trackpoint>
          <Trackpoint>
            <Time>2019-04-08T09:16:17.000Z</Time>
            <Position>
              <LatitudeDegrees>28.25849689543247222900390625</LatitudeDegrees>
              <LongitudeDegrees>-16.6088891588151454925537109375</LongitudeDegrees>
            </Position>
            <AltitudeMeters>2357.800048828125</AltitudeMeters>
            <DistanceMeters>17471.057750332</DistanceMeters>
          </Trackpoint>
          <Trackpoint>
            <Time>2019-04-08T09:16:20.000Z</Time>
            <Position>
              <LatitudeDegrees>28.25851030647754669189453125</LatitudeDegrees>
              <LongitudeDegrees>-16.6088858060538768768310546875</LongitudeDegrees>
            </Position>
            <AltitudeMeters>2358.60009765625</AltitudeMeters>
            <DistanceMeters>17472.584105377</DistanceMeters>
          </Trackpoint>
          <Trackpoint>
            <Time>2019-04-08T09:16:24.000Z</Time>
            <Position>
              <LatitudeDegrees>28.2585252262651920318603515625</LatitudeDegrees>
              <LongitudeDegrees>-16.608887650072574615478515625</LongitudeDegrees>
            </Position>
            <AltitudeMeters>2359</AltitudeMeters>
            <DistanceMeters>17474.254522577</DistanceMeters>
          </Trackpoint>
          <Trackpoint>
            <Time>2019-04-08T09:16:29.000Z</Time>
            <Position>
              <LatitudeDegrees>28.258554227650165557861328125</LatitudeDegrees>
              <LongitudeDegrees>-16.6088864766061305999755859375</LongitudeDegrees>
            </Position>
            <AltitudeMeters>2360</AltitudeMeters>
            <DistanceMeters>17477.485430865</DistanceMeters>
          </Trackpoint>
          <Trackpoint>
            <Time>2019-04-08T09:16:30.000Z</Time>
            <Position>
              <LatitudeDegrees>28.25856126844882965087890625</LatitudeDegrees>
              <LongitudeDegrees>-16.608886979520320892333984375</LongitudeDegrees>
            </Position>
            <AltitudeMeters>2360.199951171875</AltitudeMeters>
            <DistanceMeters>17478.269041227</DistanceMeters>
          </Trackpoint>
          <Trackpoint>
            <Time>2019-04-08T09:16:37.000Z</Time>
            <Position>
              <LatitudeDegrees>28.2586050219833850860595703125</LatitudeDegrees>
              <LongitudeDegrees>-16.6089082695543766021728515625</LongitudeDegrees>
            </Position>
            <AltitudeMeters>2361.199951171875</AltitudeMeters>
            <DistanceMeters>17483.567579484</DistanceMeters>
          </Trackpoint>
          <Trackpoint>
            <Time>2019-04-08T09:16:38.000Z</Time>
            <Position>
              <LatitudeDegrees>28.258610554039478302001953125</LatitudeDegrees>
              <LongitudeDegrees>-16.6089099459350109100341796875</LongitudeDegrees>
            </Position>
            <AltitudeMeters>2361.39990234375</AltitudeMeters>
            <DistanceMeters>17484.205038063</DistanceMeters>
          </Trackpoint>
          <Trackpoint>
            <Time>2019-04-08T09:16:48.000Z</Time>
            <Position>
              <LatitudeDegrees>28.258662521839141845703125</LatitudeDegrees>
              <LongitudeDegrees>-16.60889779217541217803955078125</LongitudeDegrees>
            </Position>
            <AltitudeMeters>2362.39990234375</AltitudeMeters>
            <DistanceMeters>17490.110472444</DistanceMeters>
          </Trackpoint>
          <Trackpoint>
            <Time>2019-04-08T09:16:51.000Z</Time>
            <Position>
              <LatitudeDegrees>28.258666209876537322998046875</LatitudeDegrees>
              <LongitudeDegrees>-16.60887348465621471405029296875</LongitudeDegrees>
            </Position>
            <AltitudeMeters>2363.39990234375</AltitudeMeters>
            <DistanceMeters>17492.529457672</DistanceMeters>
          </Trackpoint>
          <Trackpoint>
            <Time>2019-04-08T09:16:56.000Z</Time>
            <Position>
              <LatitudeDegrees>28.25867534615099430084228515625</LatitudeDegrees>
              <LongitudeDegrees>-16.60885051824152469635009765625</LongitudeDegrees>
            </Position>
            <AltitudeMeters>2364.39990234375</AltitudeMeters>
            <DistanceMeters>17495.001979007</DistanceMeters>
          </Trackpoint>
          <Trackpoint>
            <Time>2019-04-08T09:16:57.000Z</Time>
            <Position>
              <LatitudeDegrees>28.25868054293096065521240234375</LatitudeDegrees>
              <LongitudeDegrees>-16.608850099146366119384765625</LongitudeDegrees>
            </Position>
            <AltitudeMeters>2364.60009765625</AltitudeMeters>
            <DistanceMeters>17495.587763016</DistanceMeters>
          </Trackpoint>
          <Trackpoint>
            <Time>2019-04-08T09:17:03.000Z</Time>
            <Position>
              <LatitudeDegrees>28.25870535336434841156005859375</LatitudeDegrees>
              <LongitudeDegrees>-16.6088549606502056121826171875</LongitudeDegrees>
            </Position>
            <AltitudeMeters>2365.60009765625</AltitudeMeters>
            <DistanceMeters>17498.390648406</DistanceMeters>
          </Trackpoint>
          <Trackpoint>
            <Time>2019-04-08T09:17:06.000Z</Time>
            <Position>
              <LatitudeDegrees>28.25870887376368045806884765625</LatitudeDegrees>
              <LongitudeDegrees>-16.60886057652533054351806640625</LongitudeDegrees>
            </Position>
            <AltitudeMeters>2366.199951171875</AltitudeMeters>
            <DistanceMeters>17499.055835406</DistanceMeters>
          </Trackpoint>
          <Trackpoint>
            <Time>2019-04-08T09:17:11.000Z</Time>
            <Position>
              <LatitudeDegrees>28.25872085988521575927734375</LatitudeDegrees>
              <LongitudeDegrees>-16.6088616661727428436279296875</LongitudeDegrees>
            </Position>
            <AltitudeMeters>2366.60009765625</AltitudeMeters>
            <DistanceMeters>17500.399716089</DistanceMeters>
          </Trackpoint>
          <Trackpoint>
            <Time>2019-04-08T09:17:15.000Z</Time>
            <Position>
              <LatitudeDegrees>28.25872714631259441375732421875</LatitudeDegrees>
              <LongitudeDegrees>-16.6088408790528774261474609375</LongitudeDegrees>
            </Position>
            <AltitudeMeters>2367.199951171875</AltitudeMeters>
            <DistanceMeters>17502.556215421</DistanceMeters>
          </Trackpoint>
          <Trackpoint>
            <Time>2019-04-08T09:17:18.000Z</Time>
            <Position>
              <LatitudeDegrees>28.25873703695833683013916015625</LatitudeDegrees>
              <LongitudeDegrees>-16.6088278032839298248291015625</LongitudeDegrees>
            </Position>
            <AltitudeMeters>2367.800048828125</AltitudeMeters>
            <DistanceMeters>17504.248117969</DistanceMeters>
          </Trackpoint>
          <Trackpoint>
            <Time>2019-04-08T09:17:25.000Z</Time>
            <Position>
              <LatitudeDegrees>28.25877073220908641815185546875</LatitudeDegrees>
              <LongitudeDegrees>-16.6088135540485382080078125</LongitudeDegrees>
            </Position>
            <AltitudeMeters>2369</AltitudeMeters>
            <DistanceMeters>17508.250536689</DistanceMeters>
          </Trackpoint>
          <Trackpoint>
            <Time>2019-04-08T09:17:32.000Z</Time>
            <Position>
              <LatitudeDegrees>28.25880425982177257537841796875</LatitudeDegrees>
              <LongitudeDegrees>-16.60880810581147670745849609375</LongitudeDegrees>
            </Position>
            <AltitudeMeters>2370.199951171875</AltitudeMeters>
            <DistanceMeters>17512.020595087</DistanceMeters>
          </Trackpoint>
          <Trackpoint>
            <Time>2019-04-08T09:17:34.000Z</Time>
            <Position>
              <LatitudeDegrees>28.2588202692568302154541015625</LatitudeDegrees>
              <LongitudeDegrees>-16.6088107042014598846435546875</LongitudeDegrees>
            </Position>
            <AltitudeMeters>2370.199951171875</AltitudeMeters>
            <DistanceMeters>17513.821094307</DistanceMeters>
          </Trackpoint>
          <Trackpoint>
            <Time>2019-04-08T09:17:39.000Z</Time>
            <Position>
              <LatitudeDegrees>28.258850276470184326171875</LatitudeDegrees>
              <LongitudeDegrees>-16.6088113747537136077880859375</LongitudeDegrees>
            </Position>
            <AltitudeMeters>2371.199951171875</AltitudeMeters>
            <DistanceMeters>17517.161928707</DistanceMeters>
          </Trackpoint>
          <Trackpoint>
            <Time>2019-04-08T09:17:46.000Z</Time>
            <Position>
              <LatitudeDegrees>28.2588864862918853759765625</LatitudeDegrees>
              <LongitudeDegrees>-16.6088157333433628082275390625</LongitudeDegrees>
            </Position>
            <AltitudeMeters>2372</AltitudeMeters>
            <DistanceMeters>17521.214793009</DistanceMeters>
          </Trackpoint>
          <Trackpoint>
            <Time>2019-04-08T09:17:47.000Z</Time>
            <Position>
              <LatitudeDegrees>28.25889009051024913787841796875</LatitudeDegrees>
              <LongitudeDegrees>-16.60881447605788707733154296875</LongitudeDegrees>
            </Position>
            <AltitudeMeters>2372.199951171875</AltitudeMeters>
            <DistanceMeters>17521.639765395</DistanceMeters>
          </Trackpoint>
          <Trackpoint>
            <Time>2019-04-08T09:17:54.000Z</Time>
            <Position>
              <LatitudeDegrees>28.2589339278638362884521484375</LatitudeDegrees>
              <LongitudeDegrees>-16.60879989154636859893798828125</LongitudeDegrees>
            </Position>
            <AltitudeMeters>2373.199951171875</AltitudeMeters>
            <DistanceMeters>17526.724360645</DistanceMeters>
          </Trackpoint>
          <Trackpoint>
            <Time>2019-04-08T09:17:55.000Z</Time>
            <Position>
              <LatitudeDegrees>28.25894054956734180450439453125</LatitudeDegrees>
              <LongitudeDegrees>-16.60879687406122684478759765625</LongitudeDegrees>
            </Position>
            <AltitudeMeters>2373.199951171875</AltitudeMeters>
            <DistanceMeters>17527.507971007</DistanceMeters>
          </Trackpoint>
          <Trackpoint>
            <Time>2019-04-08T09:18:02.000Z</Time>
            <Position>
              <LatitudeDegrees>28.25898178853094577789306640625</LatitudeDegrees>
              <LongitudeDegrees>-16.60878740251064300537109375</LongitudeDegrees>
            </Position>
            <AltitudeMeters>2374.39990234375</AltitudeMeters>
            <DistanceMeters>17532.190387648</DistanceMeters>
          </Trackpoint>
          <Trackpoint>
            <Time>2019-04-08T09:18:05.000Z</Time>
            <Position>
              <LatitudeDegrees>28.25899335555732250213623046875</LatitudeDegrees>
              <LongitudeDegrees>-16.6087925992906093597412109375</LongitudeDegrees>
            </Position>
            <AltitudeMeters>2375</AltitudeMeters>
            <DistanceMeters>17533.577256886</DistanceMeters>
          </Trackpoint>
          <Trackpoint>
            <Time>2019-04-08T09:18:09.000Z</Time>
            <Position>
              <LatitudeDegrees>28.25901296921074390411376953125</LatitudeDegrees>
              <LongitudeDegrees>-16.6087813675403594970703125</LongitudeDegrees>
            </Position>
            <AltitudeMeters>2375.39990234375</AltitudeMeters>
            <DistanceMeters>17536.022233492</DistanceMeters>
          </Trackpoint>
          <Trackpoint>
            <Time>2019-04-08T09:18:14.000Z</Time>
            <Position>
              <LatitudeDegrees>28.25903694145381450653076171875</LatitudeDegrees>
              <LongitudeDegrees>-16.60877105779945850372314453125</LongitudeDegrees>
            </Position>
            <AltitudeMeters>2376.199951171875</AltitudeMeters>
            <DistanceMeters>17538.876200723</DistanceMeters>
          </Trackpoint>
          <Trackpoint>
            <Time>2019-04-08T09:18:15.000Z</Time>
            <Position>
              <LatitudeDegrees>28.2590415515005588531494140625</LatitudeDegrees>
              <LongitudeDegrees>-16.608770303428173065185546875</LongitudeDegrees>
            </Position>
            <AltitudeMeters>2376.39990234375</AltitudeMeters>
            <DistanceMeters>17539.396683473</DistanceMeters>
          </Trackpoint>
          <Trackpoint>
            <Time>2019-04-08T09:18:22.000Z</Time>
            <Position>
              <LatitudeDegrees>28.2590797729790210723876953125</LatitudeDegrees>
              <LongitudeDegrees>-16.6087506897747516632080078125</LongitudeDegrees>
            </Position>
            <AltitudeMeters>2377.800048828125</AltitudeMeters>
            <DistanceMeters>17544.065581045</DistanceMeters>
          </Trackpoint>
          <Trackpoint>
            <Time>2019-04-08T09:18:24.000Z</Time>
            <Position>
              <LatitudeDegrees>28.2590982131659984588623046875</LatitudeDegrees>
              <LongitudeDegrees>-16.6087459959089756011962890625</LongitudeDegrees>
            </Position>
            <AltitudeMeters>2378</AltitudeMeters>
            <DistanceMeters>17546.169087037</DistanceMeters>
          </Trackpoint>
          <Trackpoint>
            <Time>2019-04-08T09:18:32.000Z</Time>
            <Position>
              <LatitudeDegrees>28.2591216824948787689208984375</LatitudeDegrees>
              <LongitudeDegrees>-16.60879687406122684478759765625</LongitudeDegrees>
            </Position>
            <AltitudeMeters>2378.800048828125</AltitudeMeters>
            <DistanceMeters>17551.798968769</DistanceMeters>
          </Trackpoint>
          <Trackpoint>
            <Time>2019-04-08T09:18:40.000Z</Time>
            <Position>
              <LatitudeDegrees>28.25905881822109222412109375</LatitudeDegrees>
              <LongitudeDegrees>-16.60888035781681537628173828125</LongitudeDegrees>
            </Position>
            <AltitudeMeters>2378.60009765625</AltitudeMeters>
            <DistanceMeters>17562.565960985</DistanceMeters>
          </Trackpoint>
          <Trackpoint>
            <Time>2019-04-08T09:18:51.000Z</Time>
            <Position>
              <LatitudeDegrees>28.2589875720441341400146484375</LatitudeDegrees>
              <LongitudeDegrees>-16.60900156013667583465576171875</LongitudeDegrees>
            </Position>
            <AltitudeMeters>2378.199951171875</AltitudeMeters>
            <DistanceMeters>17576.850976473</DistanceMeters>
          </Trackpoint>
          <Trackpoint>
            <Time>2019-04-08T09:19:00.000Z</Time>
            <Position>
              <LatitudeDegrees>28.25893116183578968048095703125</LatitudeDegrees>
              <LongitudeDegrees>-16.60910658538341522216796875</LongitudeDegrees>
            </Position>
            <AltitudeMeters>2378.199951171875</AltitudeMeters>
            <DistanceMeters>17588.910386953</DistanceMeters>
          </Trackpoint>
          <Trackpoint>
            <Time>2019-04-08T09:19:10.000Z</Time>
            <Position>
              <LatitudeDegrees>28.25885899364948272705078125</LatitudeDegrees>
              <LongitudeDegrees>-16.60921580158174037933349609375</LongitudeDegrees>
            </Position>
            <AltitudeMeters>2378.199951171875</AltitudeMeters>
            <DistanceMeters>17602.295667926</DistanceMeters>
          </Trackpoint>
          <Trackpoint>
            <Time>2019-04-08T09:19:18.000Z</Time>
            <Position>
              <LatitudeDegrees>28.25879772193729877471923828125</LatitudeDegrees>
              <LongitudeDegrees>-16.6093015484511852264404296875</LongitudeDegrees>
            </Position>
            <AltitudeMeters>2378.199951171875</AltitudeMeters>
            <DistanceMeters>17613.120374478</DistanceMeters>
          </Trackpoint>
          <Trackpoint>
            <Time>2019-04-08T09:19:23.000Z</Time>
            <Position>
              <LatitudeDegrees>28.25875598005950450897216796875</LatitudeDegrees>
              <LongitudeDegrees>-16.6093499958515167236328125</LongitudeDegrees>
            </Position>
            <AltitudeMeters>2377.60009765625</AltitudeMeters>
            <DistanceMeters>17619.764094344</DistanceMeters>
          </Trackpoint>
          <Trackpoint>
            <Time>2019-04-08T09:19:25.000Z</Time>
            <Position>
              <LatitudeDegrees>28.2587401382625102996826171875</LatitudeDegrees>
              <LongitudeDegrees>-16.60936935804784297943115234375</LongitudeDegrees>
            </Position>
            <AltitudeMeters>2377.60009765625</AltitudeMeters>
            <DistanceMeters>17622.354335027</DistanceMeters>
          </Trackpoint>
          <Trackpoint>
            <Time>2019-04-08T09:19:33.000Z</Time>
            <Position>
              <LatitudeDegrees>28.25868456624448299407958984375</LatitudeDegrees>
              <LongitudeDegrees>-16.6094648279249668121337890625</LongitudeDegrees>
            </Position>
            <AltitudeMeters>2377.39990234375</AltitudeMeters>
            <DistanceMeters>17633.573123085</DistanceMeters>
          </Trackpoint>
          <Trackpoint>
            <Time>2019-04-08T09:19:41.000Z</Time>
            <Position>
              <LatitudeDegrees>28.2586321793496608734130859375</LatitudeDegrees>
              <LongitudeDegrees>-16.60956163890659809112548828125</LongitudeDegrees>
            </Position>
            <AltitudeMeters>2377.39990234375</AltitudeMeters>
            <DistanceMeters>17644.712751018</DistanceMeters>
          </Trackpoint>
          <Trackpoint>
            <Time>2019-04-08T09:19:49.000Z</Time>
            <Position>
              <LatitudeDegrees>28.25857744552195072174072265625</LatitudeDegrees>
              <LongitudeDegrees>-16.60965098999440670013427734375</LongitudeDegrees>
            </Position>
            <AltitudeMeters>2377.199951171875</AltitudeMeters>
            <DistanceMeters>17655.382858975</DistanceMeters>
          </Trackpoint>
          <Trackpoint>
            <Time>2019-04-08T09:19:57.000Z</Time>
            <Position>
              <LatitudeDegrees>28.258523046970367431640625</LatitudeDegrees>
              <LongitudeDegrees>-16.6097496449947357177734375</LongitudeDegrees>
            </Position>
            <AltitudeMeters>2377.199951171875</AltitudeMeters>
            <DistanceMeters>17666.793980844</DistanceMeters>
          </Trackpoint>
          <Trackpoint>
            <Time>2019-04-08T09:20:03.000Z</Time>
            <Position>
              <LatitudeDegrees>28.2584772817790508270263671875</LatitudeDegrees>
              <LongitudeDegrees>-16.60981594584882259368896484375</LongitudeDegrees>
            </Position>
            <AltitudeMeters>2377.199951171875</AltitudeMeters>
            <DistanceMeters>17675.052015556</DistanceMeters>
          </Trackpoint>
          <Trackpoint>
            <Time>2019-04-08T09:20:10.000Z</Time>
            <Position>
              <LatitudeDegrees>28.2584306783974170684814453125</LatitudeDegrees>
              <LongitudeDegrees>-16.60988048650324344635009765625</LongitudeDegrees>
            </Position>
            <AltitudeMeters>2377</AltitudeMeters>
            <DistanceMeters>17683.233699776</DistanceMeters>
          </Trackpoint>
          <Trackpoint>
            <Time>2019-04-08T09:20:17.000Z</Time>
            <Position>
              <LatitudeDegrees>28.25838633812963962554931640625</LatitudeDegrees>
              <LongitudeDegrees>-16.60996816121041774749755859375</LongitudeDegrees>
            </Position>
            <AltitudeMeters>2377</AltitudeMeters>
            <DistanceMeters>17693.144762865</DistanceMeters>
          </Trackpoint>
          <Trackpoint>
            <Time>2019-04-08T09:20:24.000Z</Time>
            <Position>
              <LatitudeDegrees>28.25833587907254695892333984375</LatitudeDegrees>
              <LongitudeDegrees>-16.6100334562361240386962890625</LongitudeDegrees>
            </Position>
            <AltitudeMeters>2376.39990234375</AltitudeMeters>
            <DistanceMeters>17701.660132138</DistanceMeters>
          </Trackpoint>
          <Trackpoint>
            <Time>2019-04-08T09:20:31.000Z</Time>
            <Position>
              <LatitudeDegrees>28.25827955268323421478271484375</LatitudeDegrees>
              <LongitudeDegrees>-16.61009791307151317596435546875</LongitudeDegrees>
            </Position>
            <AltitudeMeters>2375.60009765625</AltitudeMeters>
            <DistanceMeters>17710.561249524</DistanceMeters>
          </Trackpoint>
          <Trackpoint>
            <Time>2019-04-08T09:20:39.000Z</Time>
            <Position>
              <LatitudeDegrees>28.2582244835793972015380859375</LatitudeDegrees>
              <LongitudeDegrees>-16.61018726415932178497314453125</LongitudeDegrees>
            </Position>
            <AltitudeMeters>2375.60009765625</AltitudeMeters>
            <DistanceMeters>17721.252493962</DistanceMeters>
          </Trackpoint>
          <Trackpoint>
            <Time>2019-04-08T09:20:44.000Z</Time>
            <Position>
              <LatitudeDegrees>28.2581892795860767364501953125</LatitudeDegrees>
              <LongitudeDegrees>-16.61024115979671478271484375</LongitudeDegrees>
            </Position>
            <AltitudeMeters>2375.199951171875</AltitudeMeters>
            <DistanceMeters>17727.830649198</DistanceMeters>
          </Trackpoint>
          <Trackpoint>
            <Time>2019-04-08T09:20:47.000Z</Time>
            <Position>
              <LatitudeDegrees>28.258166648447513580322265625</LatitudeDegrees>
              <LongitudeDegrees>-16.6102728433907032012939453125</LongitudeDegrees>
            </Position>
            <AltitudeMeters>2375</AltitudeMeters>
            <DistanceMeters>17731.828553062</DistanceMeters>
          </Trackpoint>
          <Trackpoint>
            <Time>2019-04-08T09:20:53.000Z</Time>
            <Position>
              <LatitudeDegrees>28.25813856907188892364501953125</LatitudeDegrees>
              <LongitudeDegrees>-16.610338725149631500244140625</LongitudeDegrees>
            </Position>
            <AltitudeMeters>2375.39990234375</AltitudeMeters>
            <DistanceMeters>17739.002912667</DistanceMeters>
          </Trackpoint>
          <Trackpoint>
            <Time>2019-04-08T09:21:01.000Z</Time>
            <Position>
              <LatitudeDegrees>28.2581047900021076202392578125</LatitudeDegrees>
              <LongitudeDegrees>-16.61044224165380001068115234375</LongitudeDegrees>
            </Position>
            <AltitudeMeters>2374.800048828125</AltitudeMeters>
            <DistanceMeters>17749.825533493</DistanceMeters>
          </Trackpoint>
          <Trackpoint>
            <Time>2019-04-08T09:21:05.000Z</Time>
            <Position>
              <LatitudeDegrees>28.25808811001479625701904296875</LatitudeDegrees>
              <LongitudeDegrees>-16.6104901023209095001220703125</LongitudeDegrees>
            </Position>
            <AltitudeMeters>2374.60009765625</AltitudeMeters>
            <DistanceMeters>17754.871800982</DistanceMeters>
          </Trackpoint>
          <Trackpoint>
            <Time>2019-04-08T09:21:08.000Z</Time>
            <Position>
              <LatitudeDegrees>28.25806832872331142425537109375</LatitudeDegrees>
              <LongitudeDegrees>-16.61051549948751926422119140625</LongitudeDegrees>
            </Position>
            <AltitudeMeters>2374.60009765625</AltitudeMeters>
            <DistanceMeters>17758.196378184</DistanceMeters>
          </Trackpoint>
          <Trackpoint>
            <Time>2019-04-08T09:21:10.000Z</Time>
            <Position>
              <LatitudeDegrees>28.25805575586855411529541015625</LatitudeDegrees>
              <LongitudeDegrees>-16.610531844198703765869140625</LongitudeDegrees>
            </Position>
            <AltitudeMeters>2374.60009765625</AltitudeMeters>
            <DistanceMeters>17760.321240114</DistanceMeters>
          </Trackpoint>
          <Trackpoint>
            <Time>2019-04-08T09:21:14.000Z</Time>
            <Position>
              <LatitudeDegrees>28.2580263353884220123291015625</LatitudeDegrees>
              <LongitudeDegrees>-16.61057719029486179351806640625</LongitudeDegrees>
            </Position>
            <AltitudeMeters>2374.60009765625</AltitudeMeters>
            <DistanceMeters>17765.842611146</DistanceMeters>
          </Trackpoint>
          <Trackpoint>
            <Time>2019-04-08T09:21:19.000Z</Time>
            <Position>
              <LatitudeDegrees>28.2579897902905941009521484375</LatitudeDegrees>
              <LongitudeDegrees>-16.6106268949806690216064453125</LongitudeDegrees>
            </Position>
            <AltitudeMeters>2374.60009765625</AltitudeMeters>
            <DistanceMeters>17772.18951362</DistanceMeters>
          </Trackpoint>
          <Trackpoint>
            <Time>2019-04-08T09:21:22.000Z</Time>
            <Position>
              <LatitudeDegrees>28.25796590186655521392822265625</LatitudeDegrees>
              <LongitudeDegrees>-16.6106580756604671478271484375</LongitudeDegrees>
            </Position>
            <AltitudeMeters>2374.39990234375</AltitudeMeters>
            <DistanceMeters>17776.241263733</DistanceMeters>
          </Trackpoint>
          <Trackpoint>
            <Time>2019-04-08T09:21:25.000Z</Time>
            <Position>
              <LatitudeDegrees>28.2579478807747364044189453125</LatitudeDegrees>
              <LongitudeDegrees>-16.6106822155416011810302734375</LongitudeDegrees>
            </Position>
            <AltitudeMeters>2374.199951171875</AltitudeMeters>
            <DistanceMeters>17779.340941351</DistanceMeters>
          </Trackpoint>
          <Trackpoint>
            <Time>2019-04-08T09:21:28.000Z</Time>
            <Position>
              <LatitudeDegrees>28.2579431869089603424072265625</LatitudeDegrees>
              <LongitudeDegrees>-16.6106788627803325653076171875</LongitudeDegrees>
            </Position>
            <AltitudeMeters>2374</AltitudeMeters>
            <DistanceMeters>17779.956784846</DistanceMeters>
          </Trackpoint>
          <Trackpoint>
            <Time>2019-04-08T09:21:31.000Z</Time>
            <Position>
              <LatitudeDegrees>28.2579435221850872039794921875</LatitudeDegrees>
              <LongitudeDegrees>-16.6106771863996982574462890625</LongitudeDegrees>
            </Position>
            <AltitudeMeters>2374</AltitudeMeters>
            <DistanceMeters>17780.121375943</DistanceMeters>
          </Trackpoint>
          <Trackpoint>
            <Time>2019-04-08T09:21:32.000Z</Time>
            <Position>
              <LatitudeDegrees>28.2579421810805797576904296875</LatitudeDegrees>
              <LongitudeDegrees>-16.610675342381000518798828125</LongitudeDegrees>
            </Position>
            <AltitudeMeters>2374</AltitudeMeters>
            <DistanceMeters>17780.354142905</DistanceMeters>
          </Trackpoint>
        </Track>
      </Lap>
    </Activity>
  </Activities>
</TrainingCenterDatabase>
